<?xml version='1.0' encoding='UTF-8'?><gpx version="1.1" creator="JPX - https://github.com/jenetics/jpx" xmlns="http://www.topografix.com/GPX/1/1"><trk><trkseg><trkpt lat="44.78453610593904" lon="10.084485312528175"><ele>220.0</ele><time>2026-04-04T06:39:08.998Z</time></trkpt><trkpt lat="44.78443745226051" lon="10.084619535004085"><ele>220.0</ele><time>2026-04-04T06:39:10.998Z</time></trkpt><trkpt lat="44.784375099060036" lon="10.084647693126373"><ele>220.0</ele><time>2026-04-04T06:39:11.998Z</time></trkpt><trkpt lat="44.784303814612905" lon="10.084558060475977"><ele>220.0</ele><time>2026-04-04T06:39:12.998Z</time></trkpt><trkpt lat="44.784187122637896" lon="10.084454762410092"><ele>220.0</ele><time>2026-04-04T06:39:14.998Z</time></trkpt><trkpt lat="44.78410721634268" lon="10.084379176730435"><ele>221.0</ele><time>2026-04-04T06:39:15.998Z</time></trkpt><trkpt lat="44.78402096421164" lon="10.084329610539585"><ele>222.0</ele><time>2026-04-04T06:39:16.998Z</time></trkpt><trkpt lat="44.783933563338465" lon="10.084314479902957"><ele>223.0</ele><time>2026-04-04T06:39:17.998Z</time></trkpt><trkpt lat="44.783837759520026" lon="10.084333630412344"><ele>224.0</ele><time>2026-04-04T06:39:18.998Z</time></trkpt><trkpt lat="44.78371947900448" lon="10.08430906033428"><ele>225.0</ele><time>2026-04-04T06:39:19.998Z</time></trkpt><trkpt lat="44.783591879753054" lon="10.0842851333391"><ele>223.5</ele><time>2026-04-04T06:39:20.998Z</time></trkpt><trkpt lat="44.78346318607208" lon="10.084245422934442"><ele>222.0</ele><time>2026-04-04T06:39:21.998Z</time></trkpt><trkpt lat="44.783338147912744" lon="10.08419642127693"><ele>220.5</ele><time>2026-04-04T06:39:22.998Z</time></trkpt><trkpt lat="44.783204549834224" lon="10.084139601212774"><ele>219.0</ele><time>2026-04-04T06:39:23.998Z</time></trkpt><trkpt lat="44.78307380982968" lon="10.084081178585814"><ele>219.0</ele><time>2026-04-04T06:39:24.998Z</time></trkpt><trkpt lat="44.782947731089834" lon="10.084017364447131"><ele>219.0</ele><time>2026-04-04T06:39:25.998Z</time></trkpt><trkpt lat="44.7828262479055" lon="10.083952817102752"><ele>219.0</ele><time>2026-04-04T06:39:26.998Z</time></trkpt><trkpt lat="44.782707562953874" lon="10.083880288263948"><ele>219.0</ele><time>2026-04-04T06:39:27.998Z</time></trkpt><trkpt lat="44.78261160224304" lon="10.083804461793742"><ele>222.5</ele><time>2026-04-04T06:39:28.998Z</time></trkpt><trkpt lat="44.78251715413439" lon="10.083715463069815"><ele>226.0</ele><time>2026-04-04T06:39:29.998Z</time></trkpt><trkpt lat="44.782403049926806" lon="10.083609532969044"><ele>229.5</ele><time>2026-04-04T06:39:30.998Z</time></trkpt><trkpt lat="44.78229050904784" lon="10.083511465933796"><ele>233.0</ele><time>2026-04-04T06:39:31.998Z</time></trkpt><trkpt lat="44.78218675232556" lon="10.083423097575464"><ele>233.0</ele><time>2026-04-04T06:39:32.998Z</time></trkpt><trkpt lat="44.78210319911535" lon="10.083355736544062"><ele>233.0</ele><time>2026-04-04T06:39:33.998Z</time></trkpt><trkpt lat="44.78200442792312" lon="10.083287446110774"><ele>233.0</ele><time>2026-04-04T06:39:34.998Z</time></trkpt><trkpt lat="44.78192498575444" lon="10.08321901061319"><ele>233.0</ele><time>2026-04-04T06:39:35.998Z</time></trkpt><trkpt lat="44.78184449424036" lon="10.08312491876657"><ele>233.0</ele><time>2026-04-04T06:39:36.998Z</time></trkpt><trkpt lat="44.781755469306525" lon="10.083014203698143"><ele>232.25</ele><time>2026-04-04T06:39:37.998Z</time></trkpt><trkpt lat="44.78165996964581" lon="10.08290700728638"><ele>231.5</ele><time>2026-04-04T06:39:38.998Z</time></trkpt><trkpt lat="44.78155361741962" lon="10.082811517739637"><ele>230.75</ele><time>2026-04-04T06:39:39.998Z</time></trkpt><trkpt lat="44.781441850378975" lon="10.082723281133601"><ele>230.0</ele><time>2026-04-04T06:39:40.998Z</time></trkpt><trkpt lat="44.78133190157464" lon="10.08264022760561"><ele>230.0</ele><time>2026-04-04T06:39:41.998Z</time></trkpt><trkpt lat="44.78122888772339" lon="10.08256472399479"><ele>230.0</ele><time>2026-04-04T06:39:42.998Z</time></trkpt><trkpt lat="44.781138577374634" lon="10.082498914525443"><ele>230.0</ele><time>2026-04-04T06:39:43.998Z</time></trkpt><trkpt lat="44.78105775556365" lon="10.082430140364405"><ele>230.0</ele><time>2026-04-04T06:39:44.998Z</time></trkpt><trkpt lat="44.78097709985785" lon="10.082332705000033"><ele>230.0</ele><time>2026-04-04T06:39:45.998Z</time></trkpt><trkpt lat="44.78091204779098" lon="10.082221246042865"><ele>230.6</ele><time>2026-04-04T06:39:46.998Z</time></trkpt><trkpt lat="44.780832780416155" lon="10.082129031205742"><ele>231.2</ele><time>2026-04-04T06:39:47.998Z</time></trkpt><trkpt lat="44.78076497613462" lon="10.082047386127428"><ele>231.8</ele><time>2026-04-04T06:39:48.998Z</time></trkpt><trkpt lat="44.78070248614019" lon="10.081954047315259"><ele>232.4</ele><time>2026-04-04T06:39:49.998Z</time></trkpt><trkpt lat="44.78065093197335" lon="10.081853506563332"><ele>233.0</ele><time>2026-04-04T06:39:50.998Z</time></trkpt><trkpt lat="44.780585307545124" lon="10.081756847138909"><ele>233.0</ele><time>2026-04-04T06:39:51.997Z</time></trkpt><trkpt lat="44.78051452285608" lon="10.081660017024099"><ele>233.0</ele><time>2026-04-04T06:39:53Z</time></trkpt><trkpt lat="44.78043285715391" lon="10.08162376277538"><ele>233.0</ele><time>2026-04-04T06:39:54Z</time></trkpt><trkpt lat="44.78056381996019" lon="10.081793598263006"><ele>233.0</ele><time>2026-04-04T06:40:21Z</time></trkpt><trkpt lat="44.780624985142495" lon="10.081910549041632"><ele>233.00000000000003</ele><time>2026-04-04T06:40:22Z</time></trkpt><trkpt lat="44.78066692563881" lon="10.082001320516333"><ele>233.0</ele><time>2026-04-04T06:40:23Z</time></trkpt><trkpt lat="44.78070885215419" lon="10.082076046619793"><ele>233.0</ele><time>2026-04-04T06:40:24Z</time></trkpt><trkpt lat="44.78078053642159" lon="10.082151556268542"><ele>233.0</ele><time>2026-04-04T06:40:25Z</time></trkpt><trkpt lat="44.78086541085601" lon="10.082236258690106"><ele>233.00000000000003</ele><time>2026-04-04T06:40:26Z</time></trkpt><trkpt lat="44.780927070934084" lon="10.082314735973174"><ele>233.0</ele><time>2026-04-04T06:40:27Z</time></trkpt><trkpt lat="44.780971110248736" lon="10.08238385363303"><ele>233.00000000000003</ele><time>2026-04-04T06:40:27.999Z</time></trkpt><trkpt lat="44.78103647585463" lon="10.082464596352755"><ele>233.0</ele><time>2026-04-04T06:40:29.999Z</time></trkpt><trkpt lat="44.78099450415241" lon="10.082534131484348"><ele>233.0</ele><time>2026-04-04T06:40:32.999Z</time></trkpt><trkpt lat="44.78092751709454" lon="10.082503678968314"><ele>233.0</ele><time>2026-04-04T06:40:34.999Z</time></trkpt><trkpt lat="44.78087717007994" lon="10.082435628539166"><ele>233.00000000000003</ele><time>2026-04-04T06:40:35.999Z</time></trkpt><trkpt lat="44.78081041972922" lon="10.082356104197167"><ele>233.0</ele><time>2026-04-04T06:40:36.999Z</time></trkpt><trkpt lat="44.780723707099696" lon="10.082287868257712"><ele>233.0</ele><time>2026-04-04T06:40:37.999Z</time></trkpt><trkpt lat="44.780612776993664" lon="10.082213342410462"><ele>233.0</ele><time>2026-04-04T06:40:38.999Z</time></trkpt><trkpt lat="44.780486302372005" lon="10.082122151624231"><ele>233.0</ele><time>2026-04-04T06:40:39.999Z</time></trkpt><trkpt lat="44.78035801388166" lon="10.082029725108983"><ele>233.0</ele><time>2026-04-04T06:40:40.999Z</time></trkpt><trkpt lat="44.78025108302162" lon="10.081950759318167"><ele>236.2</ele><time>2026-04-04T06:40:41.999Z</time></trkpt><trkpt lat="44.780144902200284" lon="10.081877331161976"><ele>239.4</ele><time>2026-04-04T06:40:42.999Z</time></trkpt><trkpt lat="44.78004919716998" lon="10.081808404448365"><ele>242.59999999999997</ele><time>2026-04-04T06:40:43.999Z</time></trkpt><trkpt lat="44.77995863626652" lon="10.081738674423258"><ele>245.79999999999998</ele><time>2026-04-04T06:40:44.999Z</time></trkpt><trkpt lat="44.779870242871695" lon="10.081672919133753"><ele>249.0</ele><time>2026-04-04T06:40:45.999Z</time></trkpt><trkpt lat="44.77979025063594" lon="10.081617002862675"><ele>247.79999999999998</ele><time>2026-04-04T06:40:46.999Z</time></trkpt><trkpt lat="44.77972279742952" lon="10.081549456893374"><ele>246.59999999999997</ele><time>2026-04-04T06:40:47.999Z</time></trkpt><trkpt lat="44.77967029077676" lon="10.08148388509145"><ele>245.4</ele><time>2026-04-04T06:40:48.999Z</time></trkpt><trkpt lat="44.779622716160084" lon="10.081353780578088"><ele>244.2</ele><time>2026-04-04T06:40:50.999Z</time></trkpt><trkpt lat="44.779685678354845" lon="10.08121851704993"><ele>243.0</ele><time>2026-04-04T06:40:52.999Z</time></trkpt><trkpt lat="44.77971765524622" lon="10.08111766039989"><ele>243.0</ele><time>2026-04-04T06:40:53.999Z</time></trkpt><trkpt lat="44.77969305606357" lon="10.080987914009471"><ele>243.0</ele><time>2026-04-04T06:40:55.999Z</time></trkpt><trkpt lat="44.779646084189984" lon="10.080916532726805"><ele>243.0</ele><time>2026-04-04T06:40:56.999Z</time></trkpt><trkpt lat="44.77958490265518" lon="10.080859905295027"><ele>243.0</ele><time>2026-04-04T06:40:57.999Z</time></trkpt><trkpt lat="44.77949605429346" lon="10.080793916924156"><ele>243.0</ele><time>2026-04-04T06:40:58.999Z</time></trkpt><trkpt lat="44.77939592074841" lon="10.080719332749174"><ele>246.25</ele><time>2026-04-04T06:40:59.999Z</time></trkpt><trkpt lat="44.77928363571231" lon="10.080617910734288"><ele>249.5</ele><time>2026-04-04T06:41:00.999Z</time></trkpt><trkpt lat="44.779172684290835" lon="10.08050727274084"><ele>252.75</ele><time>2026-04-04T06:41:01.999Z</time></trkpt><trkpt lat="44.77905669923408" lon="10.080408978762975"><ele>256.0</ele><time>2026-04-04T06:41:02.999Z</time></trkpt><trkpt lat="44.77894276487016" lon="10.08032610243782"><ele>256.0</ele><time>2026-04-04T06:41:03.999Z</time></trkpt><trkpt lat="44.77882967660517" lon="10.080251898519638"><ele>256.0</ele><time>2026-04-04T06:41:04.999Z</time></trkpt><trkpt lat="44.778719778155704" lon="10.080197511882252"><ele>256.0</ele><time>2026-04-04T06:41:05.999Z</time></trkpt><trkpt lat="44.77859376130762" lon="10.080141505098112"><ele>256.0</ele><time>2026-04-04T06:41:06.999Z</time></trkpt><trkpt lat="44.77845034160616" lon="10.080091807604854"><ele>256.6</ele><time>2026-04-04T06:41:07.999Z</time></trkpt><trkpt lat="44.77831784781385" lon="10.08005333450491"><ele>257.20000000000005</ele><time>2026-04-04T06:41:08.999Z</time></trkpt><trkpt lat="44.77821972326401" lon="10.080016848001092"><ele>257.79999999999995</ele><time>2026-04-04T06:41:09.999Z</time></trkpt><trkpt lat="44.778135848356875" lon="10.079974077428366"><ele>258.4</ele><time>2026-04-04T06:41:10.999Z</time></trkpt><trkpt lat="44.778036731585985" lon="10.079922305425521"><ele>259.0</ele><time>2026-04-04T06:41:11.998Z</time></trkpt><trkpt lat="44.77793003920091" lon="10.07985274628702"><ele>259.0</ele><time>2026-04-04T06:41:12.998Z</time></trkpt><trkpt lat="44.77781620636744" lon="10.079778027308375"><ele>259.0</ele><time>2026-04-04T06:41:13.998Z</time></trkpt><trkpt lat="44.77771312023859" lon="10.079702495548204"><ele>259.0</ele><time>2026-04-04T06:41:14.998Z</time></trkpt><trkpt lat="44.777630512774195" lon="10.079624915747422"><ele>259.0</ele><time>2026-04-04T06:41:15.998Z</time></trkpt><trkpt lat="44.7775650653373" lon="10.079553694652615"><ele>259.0</ele><time>2026-04-04T06:41:16.998Z</time></trkpt><trkpt lat="44.777512086411804" lon="10.079497808541124"><ele>261.4</ele><time>2026-04-04T06:41:17.998Z</time></trkpt><trkpt lat="44.777434433083826" lon="10.079409619447208"><ele>263.79999999999995</ele><time>2026-04-04T06:41:19.998Z</time></trkpt><trkpt lat="44.77735119803911" lon="10.07933301815362"><ele>266.20000000000005</ele><time>2026-04-04T06:41:21.998Z</time></trkpt><trkpt lat="44.77723260189373" lon="10.079256711892446"><ele>268.6</ele><time>2026-04-04T06:41:23.998Z</time></trkpt><trkpt lat="44.777153778927655" lon="10.07921053395362"><ele>271.0</ele><time>2026-04-04T06:41:24.998Z</time></trkpt><trkpt lat="44.77706941629958" lon="10.079149609526034"><ele>271.0</ele><time>2026-04-04T06:41:25.998Z</time></trkpt><trkpt lat="44.77700243167998" lon="10.079104684355064"><ele>271.0</ele><time>2026-04-04T06:41:26.998Z</time></trkpt><trkpt lat="44.776936677179066" lon="10.079057573542224"><ele>271.0</ele><time>2026-04-04T06:41:27.998Z</time></trkpt><trkpt lat="44.776857806426904" lon="10.078991764745771"><ele>271.0</ele><time>2026-04-04T06:41:28.998Z</time></trkpt><trkpt lat="44.776788894400354" lon="10.078915037313566"><ele>271.0</ele><time>2026-04-04T06:41:29.998Z</time></trkpt><trkpt lat="44.776739773282806" lon="10.078825812299682"><ele>271.0</ele><time>2026-04-04T06:41:30.998Z</time></trkpt><trkpt lat="44.77670236589796" lon="10.078708524366784"><ele>271.8333333333333</ele><time>2026-04-04T06:41:31.998Z</time></trkpt><trkpt lat="44.77667238829475" lon="10.078597039397525"><ele>272.66666666666663</ele><time>2026-04-04T06:41:32.998Z</time></trkpt><trkpt lat="44.77663996517169" lon="10.07851206050429"><ele>273.5</ele><time>2026-04-04T06:41:33.998Z</time></trkpt><trkpt lat="44.7765789248097" lon="10.078436643510011"><ele>274.3333333333333</ele><time>2026-04-04T06:41:34.998Z</time></trkpt><trkpt lat="44.77649295194298" lon="10.078382895232746"><ele>275.1666666666667</ele><time>2026-04-04T06:41:35.998Z</time></trkpt><trkpt lat="44.77638567877624" lon="10.078318724157306"><ele>276.0</ele><time>2026-04-04T06:41:36.998Z</time></trkpt><trkpt lat="44.77627253532088" lon="10.07825064535476"><ele>276.8333333333333</ele><time>2026-04-04T06:41:37.998Z</time></trkpt><trkpt lat="44.77615647233485" lon="10.078183304371606"><ele>277.6666666666667</ele><time>2026-04-04T06:41:38.998Z</time></trkpt><trkpt lat="44.77607568531412" lon="10.078137870115158"><ele>278.5</ele><time>2026-04-04T06:41:39.998Z</time></trkpt><trkpt lat="44.77600542340866" lon="10.078093695282686"><ele>279.33333333333337</ele><time>2026-04-04T06:41:40.998Z</time></trkpt><trkpt lat="44.775939905134464" lon="10.078057531853045"><ele>280.1666666666667</ele><time>2026-04-04T06:41:41.998Z</time></trkpt><trkpt lat="44.77588043412175" lon="10.078006766004165"><ele>281.0</ele><time>2026-04-04T06:41:42.998Z</time></trkpt><trkpt lat="44.775841273919575" lon="10.077936917187603"><ele>281.0</ele><time>2026-04-04T06:41:43.998Z</time></trkpt><trkpt lat="44.77579730541645" lon="10.077782799721374"><ele>281.0</ele><time>2026-04-04T06:41:45.998Z</time></trkpt><trkpt lat="44.77574256352889" lon="10.077702724230038"><ele>281.0</ele><time>2026-04-04T06:41:47.998Z</time></trkpt><trkpt lat="44.775664182520934" lon="10.077736302723633"><ele>281.0</ele><time>2026-04-04T06:41:50.998Z</time></trkpt><trkpt lat="44.77560079903517" lon="10.07778121938172"><ele>281.0</ele><time>2026-04-04T06:41:51.998Z</time></trkpt><trkpt lat="44.77551711993148" lon="10.077802088533591"><ele>281.0</ele><time>2026-04-04T06:41:52.998Z</time></trkpt><trkpt lat="44.775419995909466" lon="10.077752874587949"><ele>281.0</ele><time>2026-04-04T06:41:53.998Z</time></trkpt><trkpt lat="44.77533909223005" lon="10.077678737439033"><ele>281.0</ele><time>2026-04-04T06:41:54.998Z</time></trkpt><trkpt lat="44.77522651277862" lon="10.077599329892665"><ele>281.0</ele><time>2026-04-04T06:41:55.998Z</time></trkpt><trkpt lat="44.77509396665934" lon="10.077525925558225"><ele>281.0</ele><time>2026-04-04T06:41:56.997Z</time></trkpt><trkpt lat="44.77497520431988" lon="10.077446213188667"><ele>283.1666666666667</ele><time>2026-04-04T06:41:57.997Z</time></trkpt><trkpt lat="44.77488049453007" lon="10.07738395263692"><ele>285.33333333333337</ele><time>2026-04-04T06:41:59Z</time></trkpt><trkpt lat="44.77478858768554" lon="10.077346282550481"><ele>287.5</ele><time>2026-04-04T06:42:00Z</time></trkpt><trkpt lat="44.7747168043306" lon="10.077315106087658"><ele>289.6666666666667</ele><time>2026-04-04T06:42:01Z</time></trkpt><trkpt lat="44.774673578524556" lon="10.077218554630551"><ele>291.8333333333333</ele><time>2026-04-04T06:42:03Z</time></trkpt><trkpt lat="44.7746922469956" lon="10.07710298922736"><ele>294.0</ele><time>2026-04-04T06:47:07.999Z</time></trkpt><trkpt lat="44.77471016005218" lon="10.076924632209224"><ele>294.0</ele><time>2026-04-04T06:47:09.999Z</time></trkpt><trkpt lat="44.77472049930001" lon="10.076821465389504"><ele>294.0</ele><time>2026-04-04T06:47:10.999Z</time></trkpt><trkpt lat="44.7747314598541" lon="10.076681941025857"><ele>294.0</ele><time>2026-04-04T06:47:11.999Z</time></trkpt><trkpt lat="44.774756604471705" lon="10.076564515079506"><ele>294.0</ele><time>2026-04-04T06:47:12.999Z</time></trkpt><trkpt lat="44.77475221247071" lon="10.07644561702018"><ele>294.0</ele><time>2026-04-04T06:47:13.999Z</time></trkpt><trkpt lat="44.77476351655593" lon="10.076306262609739"><ele>294.0</ele><time>2026-04-04T06:47:14.999Z</time></trkpt><trkpt lat="44.77476986786283" lon="10.07617686728033"><ele>294.59999999999997</ele><time>2026-04-04T06:47:15.999Z</time></trkpt><trkpt lat="44.774766133601325" lon="10.076055464995374"><ele>295.2</ele><time>2026-04-04T06:47:16.999Z</time></trkpt><trkpt lat="44.77477415453011" lon="10.075940260812054"><ele>295.79999999999995</ele><time>2026-04-04T06:47:17.999Z</time></trkpt><trkpt lat="44.7747595339834" lon="10.075806171012184"><ele>296.4</ele><time>2026-04-04T06:47:18.999Z</time></trkpt><trkpt lat="44.77473926354995" lon="10.075650570438349"><ele>297.0</ele><time>2026-04-04T06:47:19.999Z</time></trkpt><trkpt lat="44.77470926056684" lon="10.075489341376407"><ele>297.25</ele><time>2026-04-04T06:47:20.999Z</time></trkpt><trkpt lat="44.774668638851175" lon="10.075317793871603"><ele>297.5</ele><time>2026-04-04T06:47:21.999Z</time></trkpt><trkpt lat="44.77462052887723" lon="10.075127061566128"><ele>297.75</ele><time>2026-04-04T06:47:22.999Z</time></trkpt><trkpt lat="44.77457745084712" lon="10.074958668705303"><ele>298.0</ele><time>2026-04-04T06:47:23.999Z</time></trkpt><trkpt lat="44.77453497643627" lon="10.07479263528235"><ele>298.25</ele><time>2026-04-04T06:47:24.999Z</time></trkpt><trkpt lat="44.77449401171644" lon="10.074632338548987"><ele>298.5</ele><time>2026-04-04T06:47:25.999Z</time></trkpt><trkpt lat="44.774451088281886" lon="10.074464098381219"><ele>298.75</ele><time>2026-04-04T06:47:26.999Z</time></trkpt><trkpt lat="44.77440973119037" lon="10.074297189311977"><ele>299.0</ele><time>2026-04-04T06:47:27.999Z</time></trkpt><trkpt lat="44.774367903178295" lon="10.074127586347405"><ele>295.0</ele><time>2026-04-04T06:47:28.999Z</time></trkpt><trkpt lat="44.77432354735156" lon="10.073980671290268"><ele>291.0</ele><time>2026-04-04T06:47:29.999Z</time></trkpt><trkpt lat="44.77428099577694" lon="10.073828893537106"><ele>287.0</ele><time>2026-04-04T06:47:30.999Z</time></trkpt><trkpt lat="44.77423917137132" lon="10.073668911477155"><ele>283.0</ele><time>2026-04-04T06:47:31.999Z</time></trkpt><trkpt lat="44.774202630109464" lon="10.073527828051676"><ele>283.0</ele><time>2026-04-04T06:47:32.999Z</time></trkpt><trkpt lat="44.77415568316851" lon="10.073374621958427"><ele>283.0</ele><time>2026-04-04T06:47:33.998Z</time></trkpt><trkpt lat="44.774067229155236" lon="10.073261838294968"><ele>283.0</ele><time>2026-04-04T06:47:34.998Z</time></trkpt><trkpt lat="44.773982513128914" lon="10.073163414595133"><ele>283.0</ele><time>2026-04-04T06:47:35.998Z</time></trkpt><trkpt lat="44.77386186325735" lon="10.073079286431357"><ele>282.25</ele><time>2026-04-04T06:47:36.998Z</time></trkpt><trkpt lat="44.773738730813726" lon="10.072972601335184"><ele>281.5</ele><time>2026-04-04T06:47:37.998Z</time></trkpt><trkpt lat="44.77362268100686" lon="10.072895121637215"><ele>280.75</ele><time>2026-04-04T06:47:38.998Z</time></trkpt><trkpt lat="44.77351096101647" lon="10.07282362990121"><ele>280.0</ele><time>2026-04-04T06:47:39.998Z</time></trkpt><trkpt lat="44.773384508314386" lon="10.07277067475219"><ele>280.0</ele><time>2026-04-04T06:47:40.998Z</time></trkpt><trkpt lat="44.77325203771292" lon="10.072756619323878"><ele>280.0</ele><time>2026-04-04T06:47:41.998Z</time></trkpt><trkpt lat="44.77309887610848" lon="10.072799378002918"><ele>280.0</ele><time>2026-04-04T06:47:42.998Z</time></trkpt><trkpt lat="44.77297352326069" lon="10.07280077056477"><ele>280.0</ele><time>2026-04-04T06:47:43.998Z</time></trkpt><trkpt lat="44.77286842123326" lon="10.07278989337446"><ele>280.0</ele><time>2026-04-04T06:47:44.998Z</time></trkpt><trkpt lat="44.77276872452796" lon="10.072752821221668"><ele>280.0</ele><time>2026-04-04T06:47:45.998Z</time></trkpt><trkpt lat="44.77267850292988" lon="10.07266659401449"><ele>280.0</ele><time>2026-04-04T06:47:46.998Z</time></trkpt><trkpt lat="44.77257262779524" lon="10.072591198534882"><ele>280.0</ele><time>2026-04-04T06:47:47.998Z</time></trkpt><trkpt lat="44.77245636117678" lon="10.072545788512539"><ele>281.25</ele><time>2026-04-04T06:47:48.998Z</time></trkpt><trkpt lat="44.77233901927049" lon="10.072508717744684"><ele>282.5</ele><time>2026-04-04T06:47:49.998Z</time></trkpt><trkpt lat="44.77222841670713" lon="10.072544793888756"><ele>283.75</ele><time>2026-04-04T06:47:50.998Z</time></trkpt><trkpt lat="44.772113944780614" lon="10.072613659161323"><ele>285.0</ele><time>2026-04-04T06:47:51.998Z</time></trkpt><trkpt lat="44.77200163060541" lon="10.072690706381323"><ele>285.0</ele><time>2026-04-04T06:47:52.998Z</time></trkpt><trkpt lat="44.77190016101708" lon="10.072763786745247"><ele>285.0</ele><time>2026-04-04T06:47:53.998Z</time></trkpt><trkpt lat="44.77180126838854" lon="10.07283501106845"><ele>285.0</ele><time>2026-04-04T06:47:54.998Z</time></trkpt><trkpt lat="44.771721160055804" lon="10.072887082488803"><ele>285.0</ele><time>2026-04-04T06:47:55.998Z</time></trkpt><trkpt lat="44.771650398422224" lon="10.072921132821863"><ele>285.0</ele><time>2026-04-04T06:47:56.998Z</time></trkpt><trkpt lat="44.77153205707649" lon="10.072935708470785"><ele>285.8</ele><time>2026-04-04T06:47:58.998Z</time></trkpt><trkpt lat="44.77148325380593" lon="10.072867629756981"><ele>286.6</ele><time>2026-04-04T06:47:59.998Z</time></trkpt><trkpt lat="44.77144343132646" lon="10.07277896678204"><ele>287.4</ele><time>2026-04-04T06:48:00.998Z</time></trkpt><trkpt lat="44.77143695831303" lon="10.072638875586128"><ele>288.2</ele><time>2026-04-04T06:48:01.998Z</time></trkpt><trkpt lat="44.77141318266216" lon="10.072489449954292"><ele>289.0</ele><time>2026-04-04T06:48:02.998Z</time></trkpt><trkpt lat="44.77137661191424" lon="10.07232498448604"><ele>291.0</ele><time>2026-04-04T06:48:03.998Z</time></trkpt><trkpt lat="44.77134105760507" lon="10.072140825860885"><ele>293.0</ele><time>2026-04-04T06:48:04.998Z</time></trkpt><trkpt lat="44.77129929082689" lon="10.071951659181659"><ele>295.0</ele><time>2026-04-04T06:48:05.998Z</time></trkpt><trkpt lat="44.771261303490455" lon="10.071782568957728"><ele>297.0</ele><time>2026-04-04T06:48:06.998Z</time></trkpt><trkpt lat="44.771217387515065" lon="10.07162753991333"><ele>296.8</ele><time>2026-04-04T06:48:07.998Z</time></trkpt><trkpt lat="44.77117056386267" lon="10.071486842345173"><ele>296.6</ele><time>2026-04-04T06:48:08.998Z</time></trkpt><trkpt lat="44.77110965400602" lon="10.071361078037421"><ele>296.40000000000003</ele><time>2026-04-04T06:48:09.998Z</time></trkpt><trkpt lat="44.77104734800799" lon="10.071233972681195"><ele>296.2</ele><time>2026-04-04T06:48:10.998Z</time></trkpt><trkpt lat="44.77096562644311" lon="10.071128220083326"><ele>296.0</ele><time>2026-04-04T06:48:11.998Z</time></trkpt><trkpt lat="44.7708676808051" lon="10.071058838962355"><ele>292.5</ele><time>2026-04-04T06:48:12.998Z</time></trkpt><trkpt lat="44.77074463136474" lon="10.071035536380002"><ele>289.0</ele><time>2026-04-04T06:48:13.998Z</time></trkpt><trkpt lat="44.77061453519067" lon="10.071008364515373"><ele>285.5</ele><time>2026-04-04T06:48:14.998Z</time></trkpt><trkpt lat="44.770501869684146" lon="10.070971627311943"><ele>282.0</ele><time>2026-04-04T06:48:15.998Z</time></trkpt><trkpt lat="44.770409864245416" lon="10.070909107053554"><ele>282.0</ele><time>2026-04-04T06:48:17Z</time></trkpt><trkpt lat="44.77032488740131" lon="10.070845478674983"><ele>282.0</ele><time>2026-04-04T06:48:18Z</time></trkpt><trkpt lat="44.77023329412112" lon="10.070772594380333"><ele>282.0</ele><time>2026-04-04T06:48:19Z</time></trkpt><trkpt lat="44.77013962001586" lon="10.070694575596644"><ele>282.0</ele><time>2026-04-04T06:48:20Z</time></trkpt><trkpt lat="44.77006312659034" lon="10.070620720350128"><ele>282.0</ele><time>2026-04-04T06:48:21Z</time></trkpt><trkpt lat="44.76999035096244" lon="10.070540266552861"><ele>280.0</ele><time>2026-04-04T06:48:22Z</time></trkpt><trkpt lat="44.769939903006396" lon="10.070452278968922"><ele>278.0</ele><time>2026-04-04T06:48:23Z</time></trkpt><trkpt lat="44.76992781492706" lon="10.070355044566126"><ele>276.0</ele><time>2026-04-04T06:48:24Z</time></trkpt><trkpt lat="44.76995835040178" lon="10.070237399617593"><ele>274.0</ele><time>2026-04-04T06:48:25Z</time></trkpt><trkpt lat="44.76999818849862" lon="10.07008825827182"><ele>272.0</ele><time>2026-04-04T06:48:26Z</time></trkpt><trkpt lat="44.77002741340894" lon="10.069908263221109"><ele>270.75</ele><time>2026-04-04T06:48:27Z</time></trkpt><trkpt lat="44.77005241649794" lon="10.069719460436358"><ele>269.5</ele><time>2026-04-04T06:48:28Z</time></trkpt><trkpt lat="44.77004788143529" lon="10.069526932559148"><ele>268.25</ele><time>2026-04-04T06:48:29Z</time></trkpt><trkpt lat="44.77003818952794" lon="10.069344928763368"><ele>267.0</ele><time>2026-04-04T06:48:30Z</time></trkpt><trkpt lat="44.770024167622644" lon="10.069173806301574"><ele>265.75</ele><time>2026-04-04T06:48:31Z</time></trkpt><trkpt lat="44.769994622274865" lon="10.069007232187301"><ele>264.5</ele><time>2026-04-04T06:48:32Z</time></trkpt><trkpt lat="44.76995462067173" lon="10.068853739731603"><ele>263.25</ele><time>2026-04-04T06:48:33Z</time></trkpt><trkpt lat="44.76991995435916" lon="10.068711753957256"><ele>262.0</ele><time>2026-04-04T06:48:34Z</time></trkpt><trkpt lat="44.76985624030177" lon="10.068576760362454"><ele>262.0</ele><time>2026-04-04T06:48:35Z</time></trkpt><trkpt lat="44.769781716328055" lon="10.06843956462027"><ele>262.0</ele><time>2026-04-04T06:48:36Z</time></trkpt><trkpt lat="44.769701767827094" lon="10.068314213436643"><ele>262.0</ele><time>2026-04-04T06:48:37Z</time></trkpt><trkpt lat="44.76960937854445" lon="10.06817896223896"><ele>262.0</ele><time>2026-04-04T06:48:38Z</time></trkpt><trkpt lat="44.76952472084538" lon="10.068057679836446"><ele>263.4</ele><time>2026-04-04T06:48:39Z</time></trkpt><trkpt lat="44.76945377106097" lon="10.067958453717663"><ele>264.79999999999995</ele><time>2026-04-04T06:48:40Z</time></trkpt><trkpt lat="44.769376994440705" lon="10.067864869884792"><ele>266.2</ele><time>2026-04-04T06:48:41Z</time></trkpt><trkpt lat="44.76928587044792" lon="10.067778383985592"><ele>267.59999999999997</ele><time>2026-04-04T06:48:42Z</time></trkpt><trkpt lat="44.769195485283" lon="10.067724093293696"><ele>269.0</ele><time>2026-04-04T06:48:43Z</time></trkpt><trkpt lat="44.76909203886598" lon="10.067712898928281"><ele>269.0</ele><time>2026-04-04T06:48:44Z</time></trkpt><trkpt lat="44.768975051228445" lon="10.067713551839216"><ele>269.0</ele><time>2026-04-04T06:48:45Z</time></trkpt><trkpt lat="44.76885242651057" lon="10.067732789852592"><ele>269.0</ele><time>2026-04-04T06:48:46Z</time></trkpt><trkpt lat="44.76872766073163" lon="10.067749705767278"><ele>269.0</ele><time>2026-04-04T06:48:47Z</time></trkpt><trkpt lat="44.76860812311741" lon="10.06776552773871"><ele>270.8</ele><time>2026-04-04T06:48:48Z</time></trkpt><trkpt lat="44.76849861650578" lon="10.06777745309192"><ele>272.59999999999997</ele><time>2026-04-04T06:48:49Z</time></trkpt><trkpt lat="44.768388500885166" lon="10.067789012601512"><ele>274.4</ele><time>2026-04-04T06:48:50Z</time></trkpt><trkpt lat="44.768283194953305" lon="10.067798484285648"><ele>276.2</ele><time>2026-04-04T06:48:51Z</time></trkpt><trkpt lat="44.76818053614362" lon="10.067804926752547"><ele>278.0</ele><time>2026-04-04T06:48:51.999Z</time></trkpt><trkpt lat="44.76808943782245" lon="10.067801500578897"><ele>278.0</ele><time>2026-04-04T06:48:52.999Z</time></trkpt><trkpt lat="44.768014988759546" lon="10.067769257945814"><ele>278.0</ele><time>2026-04-04T06:48:53.999Z</time></trkpt><trkpt lat="44.76793892672138" lon="10.067702439110757"><ele>278.0</ele><time>2026-04-04T06:48:54.999Z</time></trkpt><trkpt lat="44.76786709931753" lon="10.06761369348762"><ele>278.0</ele><time>2026-04-04T06:48:55.999Z</time></trkpt><trkpt lat="44.76785269157598" lon="10.067473727550649"><ele>278.0</ele><time>2026-04-04T06:48:56.999Z</time></trkpt><trkpt lat="44.7678409234083" lon="10.06733480967076"><ele>278.4</ele><time>2026-04-04T06:48:57.999Z</time></trkpt><trkpt lat="44.76785159546121" lon="10.067184478073068"><ele>278.8</ele><time>2026-04-04T06:48:58.999Z</time></trkpt><trkpt lat="44.767885196189255" lon="10.0670258875392"><ele>279.2</ele><time>2026-04-04T06:48:59.999Z</time></trkpt><trkpt lat="44.76792966341994" lon="10.066880244772861"><ele>279.6</ele><time>2026-04-04T06:49:00.999Z</time></trkpt><trkpt lat="44.767963720910465" lon="10.06673945458906"><ele>280.0</ele><time>2026-04-04T06:49:01.999Z</time></trkpt><trkpt lat="44.76800061278048" lon="10.066586942295245"><ele>279.2</ele><time>2026-04-04T06:49:02.999Z</time></trkpt><trkpt lat="44.768031409192766" lon="10.066425356842181"><ele>278.4</ele><time>2026-04-04T06:49:03.999Z</time></trkpt><trkpt lat="44.76805481995551" lon="10.066281406214687"><ele>277.6</ele><time>2026-04-04T06:49:04.999Z</time></trkpt><trkpt lat="44.768077581092875" lon="10.066140091201424"><ele>276.8</ele><time>2026-04-04T06:49:05.999Z</time></trkpt><trkpt lat="44.76807725093685" lon="10.066009008608528"><ele>276.0</ele><time>2026-04-04T06:49:06.999Z</time></trkpt><trkpt lat="44.768071399868724" lon="10.065863437736374"><ele>274.2</ele><time>2026-04-04T06:49:07.999Z</time></trkpt><trkpt lat="44.76805700933923" lon="10.065723481949602"><ele>272.40000000000003</ele><time>2026-04-04T06:49:08.999Z</time></trkpt><trkpt lat="44.76803595631061" lon="10.065595341119565"><ele>270.6</ele><time>2026-04-04T06:49:09.999Z</time></trkpt><trkpt lat="44.768003776617114" lon="10.065465230947124"><ele>268.8</ele><time>2026-04-04T06:49:10.999Z</time></trkpt><trkpt lat="44.76796709344313" lon="10.065334214285336"><ele>267.0</ele><time>2026-04-04T06:49:11.999Z</time></trkpt><trkpt lat="44.767932453537334" lon="10.065204049358213"><ele>267.0</ele><time>2026-04-04T06:49:12.999Z</time></trkpt><trkpt lat="44.76789646925899" lon="10.065074076357556"><ele>267.0</ele><time>2026-04-04T06:49:13.999Z</time></trkpt><trkpt lat="44.767860041951195" lon="10.064937164994282"><ele>267.0</ele><time>2026-04-04T06:49:14.999Z</time></trkpt><trkpt lat="44.767819703910504" lon="10.064793948532328"><ele>267.0</ele><time>2026-04-04T06:49:15.999Z</time></trkpt><trkpt lat="44.76778453448315" lon="10.06464615505989"><ele>267.0</ele><time>2026-04-04T06:49:16.999Z</time></trkpt><trkpt lat="44.76774884007296" lon="10.064508174387882"><ele>265.75</ele><time>2026-04-04T06:49:17.999Z</time></trkpt><trkpt lat="44.76771306874371" lon="10.064352363381262"><ele>264.5</ele><time>2026-04-04T06:49:18.999Z</time></trkpt><trkpt lat="44.76767195995641" lon="10.064186341762237"><ele>263.25</ele><time>2026-04-04T06:49:19.999Z</time></trkpt><trkpt lat="44.767634579317686" lon="10.064024741448266"><ele>262.0</ele><time>2026-04-04T06:49:20.999Z</time></trkpt><trkpt lat="44.76758982380446" lon="10.063860197885479"><ele>264.5</ele><time>2026-04-04T06:49:21.999Z</time></trkpt><trkpt lat="44.7675458120923" lon="10.063693915342775"><ele>267.0</ele><time>2026-04-04T06:49:22.999Z</time></trkpt><trkpt lat="44.76750419568436" lon="10.063528301477852"><ele>269.5</ele><time>2026-04-04T06:49:23.999Z</time></trkpt><trkpt lat="44.76746816370682" lon="10.06338021623866"><ele>272.0</ele><time>2026-04-04T06:49:24.999Z</time></trkpt><trkpt lat="44.76742843028209" lon="10.063227368505384"><ele>272.0</ele><time>2026-04-04T06:49:25.999Z</time></trkpt><trkpt lat="44.76739062787986" lon="10.063069724848154"><ele>272.0</ele><time>2026-04-04T06:49:26.999Z</time></trkpt><trkpt lat="44.76735987007046" lon="10.062915930964147"><ele>272.0</ele><time>2026-04-04T06:49:27.999Z</time></trkpt><trkpt lat="44.767330645447444" lon="10.062767297144154"><ele>272.0</ele><time>2026-04-04T06:49:28.999Z</time></trkpt><trkpt lat="44.76729894882989" lon="10.062607148574719"><ele>271.5</ele><time>2026-04-04T06:49:29.999Z</time></trkpt><trkpt lat="44.767270887342775" lon="10.062447687288136"><ele>271.0</ele><time>2026-04-04T06:49:30.999Z</time></trkpt><trkpt lat="44.7672406043412" lon="10.062296936607263"><ele>270.5</ele><time>2026-04-04T06:49:31.999Z</time></trkpt><trkpt lat="44.767224035588846" lon="10.06213406808318"><ele>270.0</ele><time>2026-04-04T06:49:32.999Z</time></trkpt><trkpt lat="44.767150667080216" lon="10.061994678531399"><ele>270.0</ele><time>2026-04-04T06:49:33.999Z</time></trkpt><trkpt lat="44.767106689407036" lon="10.061846220077404"><ele>270.0</ele><time>2026-04-04T06:49:34.999Z</time></trkpt><trkpt lat="44.76705417726427" lon="10.06170962102495"><ele>270.0</ele><time>2026-04-04T06:49:35.999Z</time></trkpt><trkpt lat="44.76700163917246" lon="10.06157571371804"><ele>270.0</ele><time>2026-04-04T06:49:36.999Z</time></trkpt><trkpt lat="44.76693148152727" lon="10.061412162011663"><ele>273.25</ele><time>2026-04-04T06:49:37.998Z</time></trkpt><trkpt lat="44.76685844521227" lon="10.061243968160044"><ele>276.5</ele><time>2026-04-04T06:49:38.998Z</time></trkpt><trkpt lat="44.76678336866738" lon="10.06107569884923"><ele>279.75</ele><time>2026-04-04T06:49:39.998Z</time></trkpt><trkpt lat="44.76673360296864" lon="10.060919862232405"><ele>283.0</ele><time>2026-04-04T06:49:40.998Z</time></trkpt><trkpt lat="44.76668647073576" lon="10.060792449244683"><ele>284.4</ele><time>2026-04-04T06:49:41.998Z</time></trkpt><trkpt lat="44.76664309430144" lon="10.060650959102452"><ele>285.8</ele><time>2026-04-04T06:49:42.998Z</time></trkpt><trkpt lat="44.76659391692257" lon="10.060513664842292"><ele>287.2</ele><time>2026-04-04T06:49:43.998Z</time></trkpt><trkpt lat="44.766553361866805" lon="10.06039075228522"><ele>288.6</ele><time>2026-04-04T06:49:44.998Z</time></trkpt><trkpt lat="44.76652132322316" lon="10.060266805014376"><ele>290.0</ele><time>2026-04-04T06:49:45.998Z</time></trkpt><trkpt lat="44.76652325811216" lon="10.060139198137602"><ele>290.0</ele><time>2026-04-04T06:49:46.998Z</time></trkpt><trkpt lat="44.76652282943543" lon="10.060013782504145"><ele>290.0</ele><time>2026-04-04T06:49:47.998Z</time></trkpt><trkpt lat="44.766459952512655" lon="10.059887141930222"><ele>290.0</ele><time>2026-04-04T06:49:48.998Z</time></trkpt><trkpt lat="44.76645427190025" lon="10.059757054737146"><ele>290.0</ele><time>2026-04-04T06:49:49.998Z</time></trkpt><trkpt lat="44.76646557695718" lon="10.059637178164294"><ele>290.0</ele><time>2026-04-04T06:49:50.998Z</time></trkpt><trkpt lat="44.7664970410692" lon="10.059514800780365"><ele>291.6</ele><time>2026-04-04T06:49:51.998Z</time></trkpt><trkpt lat="44.76652281849952" lon="10.059387611568269"><ele>293.2</ele><time>2026-04-04T06:49:52.998Z</time></trkpt><trkpt lat="44.76653639515189" lon="10.059249413275069"><ele>294.8</ele><time>2026-04-04T06:49:53.998Z</time></trkpt><trkpt lat="44.76654611556233" lon="10.059113706475058"><ele>296.4</ele><time>2026-04-04T06:49:54.998Z</time></trkpt><trkpt lat="44.76654163487779" lon="10.058999533913937"><ele>298.0</ele><time>2026-04-04T06:49:55.998Z</time></trkpt><trkpt lat="44.766524008916136" lon="10.058879935342988"><ele>299.0</ele><time>2026-04-04T06:49:56.998Z</time></trkpt><trkpt lat="44.766470691952826" lon="10.05877740400082"><ele>300.0</ele><time>2026-04-04T06:49:57.998Z</time></trkpt><trkpt lat="44.7664140545009" lon="10.058699720877533"><ele>301.0</ele><time>2026-04-04T06:49:58.998Z</time></trkpt><trkpt lat="44.76634556954831" lon="10.05862964700253"><ele>302.0</ele><time>2026-04-04T06:49:59.998Z</time></trkpt><trkpt lat="44.76625263865934" lon="10.058550004755894"><ele>303.0</ele><time>2026-04-04T06:50:00.998Z</time></trkpt><trkpt lat="44.76615032033714" lon="10.058425695359238"><ele>303.0</ele><time>2026-04-04T06:50:01.998Z</time></trkpt><trkpt lat="44.76604354997402" lon="10.058325946449601"><ele>303.0</ele><time>2026-04-04T06:50:02.998Z</time></trkpt><trkpt lat="44.7659561013839" lon="10.058227106684443"><ele>303.0</ele><time>2026-04-04T06:50:03.998Z</time></trkpt><trkpt lat="44.765900312868105" lon="10.058149758610384"><ele>303.0</ele><time>2026-04-04T06:50:04.998Z</time></trkpt><trkpt lat="44.76587389374777" lon="10.058000706327789"><ele>303.0</ele><time>2026-04-04T06:50:06.998Z</time></trkpt><trkpt lat="44.76590440451425" lon="10.057909041339002"><ele>304.0</ele><time>2026-04-04T06:50:07.998Z</time></trkpt><trkpt lat="44.76595437186652" lon="10.057809926483307"><ele>305.0</ele><time>2026-04-04T06:50:08.998Z</time></trkpt><trkpt lat="44.766006370870414" lon="10.057724839581441"><ele>306.0</ele><time>2026-04-04T06:50:09.998Z</time></trkpt><trkpt lat="44.76604338411706" lon="10.05761866368844"><ele>307.0</ele><time>2026-04-04T06:50:10.998Z</time></trkpt><trkpt lat="44.76605625300059" lon="10.057523578380744"><ele>308.0</ele><time>2026-04-04T06:50:11.998Z</time></trkpt><trkpt lat="44.766066015878415" lon="10.057408691860998"><ele>309.0</ele><time>2026-04-04T06:50:12.998Z</time></trkpt><trkpt lat="44.76606730243478" lon="10.057303220328718"><ele>309.5</ele><time>2026-04-04T06:50:13.998Z</time></trkpt><trkpt lat="44.76608045503377" lon="10.05719511859518"><ele>310.0</ele><time>2026-04-04T06:50:14.998Z</time></trkpt><trkpt lat="44.76607465586901" lon="10.057081984938225"><ele>310.5</ele><time>2026-04-04T06:50:15.998Z</time></trkpt><trkpt lat="44.76606375530835" lon="10.056963845905836"><ele>311.0</ele><time>2026-04-04T06:50:16.998Z</time></trkpt><trkpt lat="44.76603725036913" lon="10.056833645810146"><ele>311.5</ele><time>2026-04-04T06:50:17.998Z</time></trkpt><trkpt lat="44.765995451425674" lon="10.056702898770915"><ele>312.0</ele><time>2026-04-04T06:50:18.998Z</time></trkpt><trkpt lat="44.765954857934034" lon="10.056592277134147"><ele>316.0</ele><time>2026-04-04T06:50:19.998Z</time></trkpt><trkpt lat="44.765911467528724" lon="10.056478970918299"><ele>320.0</ele><time>2026-04-04T06:50:20.998Z</time></trkpt><trkpt lat="44.76587677444784" lon="10.056358632409276"><ele>324.0</ele><time>2026-04-04T06:50:21.998Z</time></trkpt><trkpt lat="44.765842497592196" lon="10.056218935445374"><ele>328.0</ele><time>2026-04-04T06:50:23Z</time></trkpt><trkpt lat="44.765814838501285" lon="10.056084344806345"><ele>332.0</ele><time>2026-04-04T06:50:24Z</time></trkpt><trkpt lat="44.765789596175225" lon="10.055932982132228"><ele>332.0</ele><time>2026-04-04T06:50:25Z</time></trkpt><trkpt lat="44.765773875560996" lon="10.055809745772832"><ele>332.0</ele><time>2026-04-04T06:50:26Z</time></trkpt><trkpt lat="44.7657241601942" lon="10.055673682118252"><ele>332.0</ele><time>2026-04-04T06:50:27Z</time></trkpt><trkpt lat="44.76571002412927" lon="10.05552621260391"><ele>332.0</ele><time>2026-04-04T06:50:28Z</time></trkpt><trkpt lat="44.76570038717299" lon="10.055365631865907"><ele>332.0</ele><time>2026-04-04T06:50:29Z</time></trkpt><trkpt lat="44.76569547873513" lon="10.055194190247311"><ele>334.20000000000005</ele><time>2026-04-04T06:50:30Z</time></trkpt><trkpt lat="44.765708451755984" lon="10.055036323896049"><ele>336.4</ele><time>2026-04-04T06:50:31Z</time></trkpt><trkpt lat="44.765696606407985" lon="10.054909271827134"><ele>338.6</ele><time>2026-04-04T06:50:32Z</time></trkpt><trkpt lat="44.76567832698124" lon="10.054787737064942"><ele>340.79999999999995</ele><time>2026-04-04T06:50:33Z</time></trkpt><trkpt lat="44.76564737112204" lon="10.054651496602228"><ele>343.0</ele><time>2026-04-04T06:50:34Z</time></trkpt><trkpt lat="44.76560049455003" lon="10.054503896246223"><ele>345.25</ele><time>2026-04-04T06:50:35Z</time></trkpt><trkpt lat="44.765535322481256" lon="10.054349540458269"><ele>347.5</ele><time>2026-04-04T06:50:36Z</time></trkpt><trkpt lat="44.765454898955134" lon="10.054218679301965"><ele>349.75</ele><time>2026-04-04T06:50:37Z</time></trkpt><trkpt lat="44.76535443509709" lon="10.05406953649194"><ele>352.0</ele><time>2026-04-04T06:50:38Z</time></trkpt><trkpt lat="44.76529130384756" lon="10.053933219119225"><ele>352.8333333333333</ele><time>2026-04-04T06:50:39Z</time></trkpt><trkpt lat="44.765240516831696" lon="10.053839105275237"><ele>353.66666666666663</ele><time>2026-04-04T06:50:40Z</time></trkpt><trkpt lat="44.76517824694863" lon="10.053749555859639"><ele>354.5</ele><time>2026-04-04T06:50:41Z</time></trkpt><trkpt lat="44.7651673141913" lon="10.053621829505127"><ele>355.3333333333333</ele><time>2026-04-04T06:50:42Z</time></trkpt><trkpt lat="44.76516082336151" lon="10.053523207573107"><ele>356.1666666666667</ele><time>2026-04-04T06:50:43Z</time></trkpt><trkpt lat="44.76517257231197" lon="10.053395489438385"><ele>357.0</ele><time>2026-04-04T06:50:44Z</time></trkpt><trkpt lat="44.76518773425141" lon="10.053292225926597"><ele>355.6</ele><time>2026-04-04T06:50:45Z</time></trkpt><trkpt lat="44.76522820998751" lon="10.053186080372534"><ele>354.20000000000005</ele><time>2026-04-04T06:50:46Z</time></trkpt><trkpt lat="44.76529651506961" lon="10.05306662692925"><ele>352.8</ele><time>2026-04-04T06:50:47Z</time></trkpt><trkpt lat="44.76535176039615" lon="10.05294696566457"><ele>351.4</ele><time>2026-04-04T06:50:48Z</time></trkpt><trkpt lat="44.76543437466718" lon="10.052840879678973"><ele>350.0</ele><time>2026-04-04T06:50:49Z</time></trkpt><trkpt lat="44.76551759721643" lon="10.052719668243855"><ele>350.0</ele><time>2026-04-04T06:50:50Z</time></trkpt><trkpt lat="44.765607366615" lon="10.05258427156729"><ele>350.0</ele><time>2026-04-04T06:50:51Z</time></trkpt><trkpt lat="44.76569155354438" lon="10.052449079723544"><ele>350.0</ele><time>2026-04-04T06:50:52Z</time></trkpt><trkpt lat="44.7657495106199" lon="10.052313064189523"><ele>350.0</ele><time>2026-04-04T06:50:53Z</time></trkpt><trkpt lat="44.765813064133695" lon="10.052171899406646"><ele>351.8</ele><time>2026-04-04T06:50:54Z</time></trkpt><trkpt lat="44.76589137605174" lon="10.052056964550127"><ele>353.6</ele><time>2026-04-04T06:50:55Z</time></trkpt><trkpt lat="44.76597009094954" lon="10.051955597536761"><ele>355.4</ele><time>2026-04-04T06:50:56Z</time></trkpt><trkpt lat="44.76603844059048" lon="10.051837235406"><ele>357.2</ele><time>2026-04-04T06:50:57Z</time></trkpt><trkpt lat="44.76609600727526" lon="10.051723275503068"><ele>359.0</ele><time>2026-04-04T06:50:57.999Z</time></trkpt><trkpt lat="44.76611870695708" lon="10.051605674843463"><ele>359.75</ele><time>2026-04-04T06:50:58.999Z</time></trkpt><trkpt lat="44.76611989253249" lon="10.051470818330746"><ele>360.5</ele><time>2026-04-04T06:50:59.999Z</time></trkpt><trkpt lat="44.76609800148389" lon="10.051324966339013"><ele>361.25</ele><time>2026-04-04T06:51:00.999Z</time></trkpt><trkpt lat="44.76606838327766" lon="10.05115553071849"><ele>362.0</ele><time>2026-04-04T06:51:01.999Z</time></trkpt><trkpt lat="44.76603677580442" lon="10.05097631045364"><ele>357.25</ele><time>2026-04-04T06:51:02.999Z</time></trkpt><trkpt lat="44.76601663533633" lon="10.050820429321021"><ele>352.5</ele><time>2026-04-04T06:51:03.999Z</time></trkpt><trkpt lat="44.76600839824762" lon="10.050650008717394"><ele>347.75</ele><time>2026-04-04T06:51:04.999Z</time></trkpt><trkpt lat="44.765995835520876" lon="10.050449254592406"><ele>343.0</ele><time>2026-04-04T06:51:05.999Z</time></trkpt><trkpt lat="44.765980498488155" lon="10.050268581136807"><ele>343.0</ele><time>2026-04-04T06:51:06.999Z</time></trkpt><trkpt lat="44.76595288861965" lon="10.050101040795392"><ele>343.0</ele><time>2026-04-04T06:51:07.999Z</time></trkpt><trkpt lat="44.76591942509731" lon="10.049943906156425"><ele>343.0</ele><time>2026-04-04T06:51:08.999Z</time></trkpt><trkpt lat="44.76587539673851" lon="10.049799704238275"><ele>343.0</ele><time>2026-04-04T06:51:09.999Z</time></trkpt><trkpt lat="44.76583735833698" lon="10.049682512282864"><ele>343.0</ele><time>2026-04-04T06:51:10.999Z</time></trkpt><trkpt lat="44.76580770096751" lon="10.049563939694911"><ele>344.0</ele><time>2026-04-04T06:51:11.999Z</time></trkpt><trkpt lat="44.765798335630876" lon="10.04946416619665"><ele>345.0</ele><time>2026-04-04T06:51:12.999Z</time></trkpt><trkpt lat="44.765794415829774" lon="10.049319873664988"><ele>346.0</ele><time>2026-04-04T06:51:13.999Z</time></trkpt><trkpt lat="44.76579335487206" lon="10.049156612066563"><ele>347.0</ele><time>2026-04-04T06:51:14.999Z</time></trkpt><trkpt lat="44.76579988492859" lon="10.048992406754529"><ele>348.0</ele><time>2026-04-04T06:51:15.999Z</time></trkpt><trkpt lat="44.765816501365336" lon="10.048844852722077"><ele>348.79999999999995</ele><time>2026-04-04T06:51:16.999Z</time></trkpt><trkpt lat="44.76583390267765" lon="10.048707157845211"><ele>349.6</ele><time>2026-04-04T06:51:17.999Z</time></trkpt><trkpt lat="44.765829980196635" lon="10.048560822123024"><ele>350.4</ele><time>2026-04-04T06:51:18.999Z</time></trkpt><trkpt lat="44.76580941301362" lon="10.048426144122129"><ele>351.20000000000005</ele><time>2026-04-04T06:51:19.999Z</time></trkpt><trkpt lat="44.76576548054551" lon="10.04828562669708"><ele>352.0</ele><time>2026-04-04T06:51:20.999Z</time></trkpt><trkpt lat="44.765740152254615" lon="10.048138338857912"><ele>350.66666666666663</ele><time>2026-04-04T06:51:21.999Z</time></trkpt><trkpt lat="44.765737408437936" lon="10.048015171504309"><ele>349.3333333333333</ele><time>2026-04-04T06:51:22.999Z</time></trkpt><trkpt lat="44.765771860187805" lon="10.047920665072688"><ele>348.0</ele><time>2026-04-04T06:51:23.999Z</time></trkpt><trkpt lat="44.765822112210984" lon="10.047846072322649"><ele>346.6666666666667</ele><time>2026-04-04T06:51:24.999Z</time></trkpt><trkpt lat="44.76590045598278" lon="10.047787525644905"><ele>345.33333333333337</ele><time>2026-04-04T06:51:25.999Z</time></trkpt><trkpt lat="44.766004627934905" lon="10.047737014230247"><ele>344.0</ele><time>2026-04-04T06:51:26.999Z</time></trkpt><trkpt lat="44.7661117447279" lon="10.047656195544414"><ele>345.1666666666667</ele><time>2026-04-04T06:51:27.999Z</time></trkpt><trkpt lat="44.76620188712199" lon="10.047560962733224"><ele>346.33333333333337</ele><time>2026-04-04T06:51:28.999Z</time></trkpt><trkpt lat="44.76626945369365" lon="10.047491973858603"><ele>347.5</ele><time>2026-04-04T06:51:29.999Z</time></trkpt><trkpt lat="44.766317461941156" lon="10.047424540938406"><ele>348.6666666666667</ele><time>2026-04-04T06:51:30.999Z</time></trkpt><trkpt lat="44.76634338035368" lon="10.047317575617141"><ele>349.8333333333333</ele><time>2026-04-04T06:51:31.999Z</time></trkpt><trkpt lat="44.76636864197068" lon="10.047177483448948"><ele>351.0</ele><time>2026-04-04T06:51:32.999Z</time></trkpt><trkpt lat="44.7663778768982" lon="10.047010562205221"><ele>351.0</ele><time>2026-04-04T06:51:33.999Z</time></trkpt><trkpt lat="44.766386332308365" lon="10.046884758213329"><ele>351.0</ele><time>2026-04-04T06:51:34.999Z</time></trkpt><trkpt lat="44.76638736778804" lon="10.046788825794737"><ele>351.0</ele><time>2026-04-04T06:51:35.999Z</time></trkpt><trkpt lat="44.76640499326869" lon="10.046701425606846"><ele>351.0</ele><time>2026-04-04T06:51:36.999Z</time></trkpt><trkpt lat="44.76643459084236" lon="10.046619818221517"><ele>351.0</ele><time>2026-04-04T06:51:37.999Z</time></trkpt><trkpt lat="44.76650002946657" lon="10.04654017425795"><ele>351.0</ele><time>2026-04-04T06:51:38.999Z</time></trkpt><trkpt lat="44.76657226127923" lon="10.046454994381788"><ele>348.0</ele><time>2026-04-04T06:51:39.999Z</time></trkpt><trkpt lat="44.766653975075386" lon="10.046400838396018"><ele>345.0</ele><time>2026-04-04T06:51:40.999Z</time></trkpt><trkpt lat="44.76675885296929" lon="10.046362262293872"><ele>342.0</ele><time>2026-04-04T06:51:41.999Z</time></trkpt><trkpt lat="44.766829930765496" lon="10.046320494439286"><ele>339.0</ele><time>2026-04-04T06:51:42.999Z</time></trkpt><trkpt lat="44.766912673395424" lon="10.046282781913131"><ele>336.0</ele><time>2026-04-04T06:51:43.998Z</time></trkpt><trkpt lat="44.7670028830929" lon="10.046247851350904"><ele>336.0</ele><time>2026-04-04T06:51:44.998Z</time></trkpt><trkpt lat="44.76707592106134" lon="10.046256183798734"><ele>336.0</ele><time>2026-04-04T06:51:45.998Z</time></trkpt><trkpt lat="44.76716151550233" lon="10.046286706051253"><ele>336.0</ele><time>2026-04-04T06:51:46.998Z</time></trkpt><trkpt lat="44.76724751758582" lon="10.046304208443212"><ele>336.0</ele><time>2026-04-04T06:51:47.998Z</time></trkpt><trkpt lat="44.76734542421708" lon="10.046291554591575"><ele>336.0</ele><time>2026-04-04T06:51:48.998Z</time></trkpt><trkpt lat="44.767423959962784" lon="10.046245014175813"><ele>336.0</ele><time>2026-04-04T06:51:49.998Z</time></trkpt><trkpt lat="44.76748207593919" lon="10.046173812029291"><ele>336.0</ele><time>2026-04-04T06:51:50.998Z</time></trkpt><trkpt lat="44.76755263593956" lon="10.046089536951161"><ele>336.0</ele><time>2026-04-04T06:51:51.998Z</time></trkpt><trkpt lat="44.767581843787426" lon="10.045991144436535"><ele>336.0</ele><time>2026-04-04T06:51:52.998Z</time></trkpt><trkpt lat="44.767611505706036" lon="10.045884203915959"><ele>336.0</ele><time>2026-04-04T06:51:53.998Z</time></trkpt><trkpt lat="44.76764075316326" lon="10.045798321567485"><ele>336.0</ele><time>2026-04-04T06:51:54.998Z</time></trkpt><trkpt lat="44.767633259399084" lon="10.04564186547772"><ele>336.0</ele><time>2026-04-04T06:51:56.998Z</time></trkpt><trkpt lat="44.76759993367447" lon="10.04555007836808"><ele>333.8</ele><time>2026-04-04T06:51:57.998Z</time></trkpt><trkpt lat="44.76756730978974" lon="10.045446978512194"><ele>331.6</ele><time>2026-04-04T06:51:58.998Z</time></trkpt><trkpt lat="44.76755315723441" lon="10.04532209017054"><ele>329.4</ele><time>2026-04-04T06:51:59.998Z</time></trkpt><trkpt lat="44.76755633834434" lon="10.045171882862828"><ele>327.2</ele><time>2026-04-04T06:52:00.998Z</time></trkpt><trkpt lat="44.76757405618525" lon="10.044988229585803"><ele>325.0</ele><time>2026-04-04T06:52:01.998Z</time></trkpt><trkpt lat="44.76759489574363" lon="10.04480102341279"><ele>324.25</ele><time>2026-04-04T06:52:02.998Z</time></trkpt><trkpt lat="44.76762115531382" lon="10.044611104744284"><ele>323.5</ele><time>2026-04-04T06:52:03.998Z</time></trkpt><trkpt lat="44.76763586731108" lon="10.044430620808974"><ele>322.75</ele><time>2026-04-04T06:52:04.998Z</time></trkpt><trkpt lat="44.767643370230594" lon="10.04425457371915"><ele>322.0</ele><time>2026-04-04T06:52:05.998Z</time></trkpt><trkpt lat="44.76765976464574" lon="10.044093396568359"><ele>321.5</ele><time>2026-04-04T06:52:06.998Z</time></trkpt><trkpt lat="44.76767031351487" lon="10.043916525198364"><ele>321.0</ele><time>2026-04-04T06:52:07.998Z</time></trkpt><trkpt lat="44.76767860011109" lon="10.043720814222926"><ele>320.5</ele><time>2026-04-04T06:52:08.998Z</time></trkpt><trkpt lat="44.76768433594867" lon="10.043534895390419"><ele>320.0</ele><time>2026-04-04T06:52:09.998Z</time></trkpt><trkpt lat="44.767691894406674" lon="10.043361930239877"><ele>324.0</ele><time>2026-04-04T06:52:10.998Z</time></trkpt><trkpt lat="44.76770407139555" lon="10.043203751974394"><ele>328.0</ele><time>2026-04-04T06:52:11.998Z</time></trkpt><trkpt lat="44.767721981971576" lon="10.043037348639551"><ele>332.0</ele><time>2026-04-04T06:52:12.998Z</time></trkpt><trkpt lat="44.76773740014266" lon="10.042885707063013"><ele>336.0</ele><time>2026-04-04T06:52:13.998Z</time></trkpt><trkpt lat="44.767749379594065" lon="10.042727467034268"><ele>336.0</ele><time>2026-04-04T06:52:14.998Z</time></trkpt><trkpt lat="44.76777492763412" lon="10.042566215311284"><ele>336.0</ele><time>2026-04-04T06:52:15.998Z</time></trkpt><trkpt lat="44.76775989986607" lon="10.042416160073303"><ele>336.0</ele><time>2026-04-04T06:52:16.998Z</time></trkpt><trkpt lat="44.767743902189395" lon="10.042243535214903"><ele>336.0</ele><time>2026-04-04T06:52:17.998Z</time></trkpt><trkpt lat="44.767734482006155" lon="10.04206856478736"><ele>335.0</ele><time>2026-04-04T06:52:18.998Z</time></trkpt><trkpt lat="44.76773478700229" lon="10.041896562153147"><ele>334.0</ele><time>2026-04-04T06:52:19.998Z</time></trkpt><trkpt lat="44.767729245089384" lon="10.041742975940243"><ele>333.0</ele><time>2026-04-04T06:52:20.998Z</time></trkpt><trkpt lat="44.76771343036831" lon="10.041614952676198"><ele>332.0</ele><time>2026-04-04T06:52:21.998Z</time></trkpt><trkpt lat="44.767704201122946" lon="10.041486603801006"><ele>331.0</ele><time>2026-04-04T06:52:22.998Z</time></trkpt><trkpt lat="44.767706098905855" lon="10.041356674375967"><ele>331.16666666666663</ele><time>2026-04-04T06:52:23.998Z</time></trkpt><trkpt lat="44.76770740625621" lon="10.041249448851833"><ele>331.3333333333333</ele><time>2026-04-04T06:52:24.998Z</time></trkpt><trkpt lat="44.767660898924255" lon="10.041082146795524"><ele>331.5</ele><time>2026-04-04T06:52:26.998Z</time></trkpt><trkpt lat="44.76764325106628" lon="10.04098933055874"><ele>331.6666666666667</ele><time>2026-04-04T06:52:27.998Z</time></trkpt><trkpt lat="44.76754548074463" lon="10.040991875948608"><ele>331.83333333333337</ele><time>2026-04-04T06:52:31Z</time></trkpt><trkpt lat="44.76747440153975" lon="10.041026399567825"><ele>332.0</ele><time>2026-04-04T06:52:32Z</time></trkpt><trkpt lat="44.76738350571498" lon="10.0410255793142"><ele>332.0</ele><time>2026-04-04T06:52:33Z</time></trkpt><trkpt lat="44.7672811624071" lon="10.041009030130896"><ele>332.0</ele><time>2026-04-04T06:52:34Z</time></trkpt><trkpt lat="44.76719062087458" lon="10.040988295726185"><ele>332.0</ele><time>2026-04-04T06:52:35Z</time></trkpt><trkpt lat="44.76708518272453" lon="10.040954714613019"><ele>332.0</ele><time>2026-04-04T06:52:36Z</time></trkpt><trkpt lat="44.76697517923083" lon="10.04092178023328"><ele>332.0</ele><time>2026-04-04T06:52:37Z</time></trkpt><trkpt lat="44.76686877954506" lon="10.040886812408498"><ele>330.6</ele><time>2026-04-04T06:52:38Z</time></trkpt><trkpt lat="44.766762525893654" lon="10.04085552237011"><ele>329.20000000000005</ele><time>2026-04-04T06:52:39Z</time></trkpt><trkpt lat="44.766659560146934" lon="10.040819968967261"><ele>327.8</ele><time>2026-04-04T06:52:40Z</time></trkpt><trkpt lat="44.76657066447274" lon="10.040782501835771"><ele>326.4</ele><time>2026-04-04T06:52:41Z</time></trkpt><trkpt lat="44.76648665317982" lon="10.040744514313976"><ele>325.0</ele><time>2026-04-04T06:52:42Z</time></trkpt><trkpt lat="44.76640013090534" lon="10.04069763998782"><ele>325.0</ele><time>2026-04-04T06:52:43Z</time></trkpt><trkpt lat="44.76633429402304" lon="10.040668358090434"><ele>325.0</ele><time>2026-04-04T06:52:44Z</time></trkpt><trkpt lat="44.76624550235356" lon="10.040690802845097"><ele>325.0</ele><time>2026-04-04T06:52:46Z</time></trkpt><trkpt lat="44.76618915287212" lon="10.04076074580185"><ele>325.0</ele><time>2026-04-04T06:52:47Z</time></trkpt><trkpt lat="44.76612849818326" lon="10.040850777494855"><ele>325.0</ele><time>2026-04-04T06:52:48Z</time></trkpt><trkpt lat="44.76607616460142" lon="10.04093508287363"><ele>325.0</ele><time>2026-04-04T06:52:49Z</time></trkpt><trkpt lat="44.766031202772" lon="10.041014591790272"><ele>326.4</ele><time>2026-04-04T06:52:50Z</time></trkpt><trkpt lat="44.76598763825113" lon="10.041128464421138"><ele>327.8</ele><time>2026-04-04T06:52:51Z</time></trkpt><trkpt lat="44.7659450242249" lon="10.041222354383756"><ele>329.20000000000005</ele><time>2026-04-04T06:52:52Z</time></trkpt><trkpt lat="44.765833750507646" lon="10.041311827987943"><ele>330.6</ele><time>2026-04-04T06:52:54Z</time></trkpt><trkpt lat="44.76571359059876" lon="10.041331628434376"><ele>332.0</ele><time>2026-04-04T06:52:55Z</time></trkpt><trkpt lat="44.765608604468596" lon="10.041341014016952"><ele>332.0</ele><time>2026-04-04T06:52:56Z</time></trkpt><trkpt lat="44.76550902868635" lon="10.041325304395382"><ele>332.0</ele><time>2026-04-04T06:52:57Z</time></trkpt><trkpt lat="44.76540095976492" lon="10.041314247141596"><ele>332.0</ele><time>2026-04-04T06:52:58Z</time></trkpt><trkpt lat="44.76530941939883" lon="10.041316668273586"><ele>332.0</ele><time>2026-04-04T06:52:59Z</time></trkpt><trkpt lat="44.765237703343836" lon="10.04134456773609"><ele>332.0</ele><time>2026-04-04T06:53:00Z</time></trkpt><trkpt lat="44.76514302946008" lon="10.041304581713229"><ele>331.6666666666667</ele><time>2026-04-04T06:53:02Z</time></trkpt><trkpt lat="44.76507376554926" lon="10.041182249064205"><ele>331.33333333333337</ele><time>2026-04-04T06:53:03.999Z</time></trkpt><trkpt lat="44.76502627019816" lon="10.041091297121621"><ele>331.0</ele><time>2026-04-04T06:53:04.999Z</time></trkpt><trkpt lat="44.76495313939788" lon="10.040998798380857"><ele>330.6666666666667</ele><time>2026-04-04T06:53:05.999Z</time></trkpt><trkpt lat="44.76488028281252" lon="10.040942325293393"><ele>330.3333333333333</ele><time>2026-04-04T06:53:06.999Z</time></trkpt><trkpt lat="44.764828200806576" lon="10.040873195936818"><ele>330.0</ele><time>2026-04-04T06:53:07.999Z</time></trkpt><trkpt lat="44.76476445630857" lon="10.0407959018765"><ele>330.0</ele><time>2026-04-04T06:53:08.999Z</time></trkpt><trkpt lat="44.76464585662652" lon="10.040814435647123"><ele>330.0</ele><time>2026-04-04T06:53:10.999Z</time></trkpt><trkpt lat="44.76458618190328" lon="10.04087464150784"><ele>330.0</ele><time>2026-04-04T06:53:11.999Z</time></trkpt><trkpt lat="44.76452032837742" lon="10.040960033311821"><ele>330.0</ele><time>2026-04-04T06:53:12.999Z</time></trkpt><trkpt lat="44.76445750093167" lon="10.041000472869243"><ele>330.0</ele><time>2026-04-04T06:53:13.999Z</time></trkpt><trkpt lat="44.76437520156337" lon="10.041021732201806"><ele>330.0</ele><time>2026-04-04T06:53:14.999Z</time></trkpt><trkpt lat="44.764300841305804" lon="10.041064463924716"><ele>329.8</ele><time>2026-04-04T06:53:15.999Z</time></trkpt><trkpt lat="44.76421885801498" lon="10.041157169532054"><ele>329.6</ele><time>2026-04-04T06:53:16.999Z</time></trkpt><trkpt lat="44.764136192788776" lon="10.041239185403864"><ele>329.4</ele><time>2026-04-04T06:53:17.999Z</time></trkpt><trkpt lat="44.764050283666315" lon="10.041305602330013"><ele>329.2</ele><time>2026-04-04T06:53:18.999Z</time></trkpt><trkpt lat="44.76396189044123" lon="10.041351198303426"><ele>329.0</ele><time>2026-04-04T06:53:19.999Z</time></trkpt><trkpt lat="44.76389200145348" lon="10.041375824648233"><ele>329.0</ele><time>2026-04-04T06:53:20.999Z</time></trkpt><trkpt lat="44.76376907362077" lon="10.041352802633266"><ele>329.0</ele><time>2026-04-04T06:53:22.999Z</time></trkpt><trkpt lat="44.76368696259366" lon="10.04132735716979"><ele>329.0</ele><time>2026-04-04T06:53:23.999Z</time></trkpt><trkpt lat="44.76361317098487" lon="10.041310169115723"><ele>329.0</ele><time>2026-04-04T06:53:24.999Z</time></trkpt><trkpt lat="44.76352911263463" lon="10.041326257236657"><ele>329.0</ele><time>2026-04-04T06:53:25.999Z</time></trkpt><trkpt lat="44.76344423401964" lon="10.041352333817974"><ele>329.0</ele><time>2026-04-04T06:53:26.999Z</time></trkpt><trkpt lat="44.7633739229954" lon="10.041359812934447"><ele>329.0</ele><time>2026-04-04T06:53:27.999Z</time></trkpt><trkpt lat="44.76330580650893" lon="10.041379230278922"><ele>329.0</ele><time>2026-04-04T06:53:28.999Z</time></trkpt><trkpt lat="44.76323668218604" lon="10.041410241208943"><ele>329.0</ele><time>2026-04-04T06:53:29.999Z</time></trkpt><trkpt lat="44.76316086473525" lon="10.041445775099831"><ele>329.0</ele><time>2026-04-04T06:53:30.999Z</time></trkpt><trkpt lat="44.763075815324335" lon="10.041483109762758"><ele>329.0</ele><time>2026-04-04T06:53:31.999Z</time></trkpt><trkpt lat="44.76299935045354" lon="10.041510390919683"><ele>329.0</ele><time>2026-04-04T06:53:32.999Z</time></trkpt><trkpt lat="44.762913149530505" lon="10.041522647175439"><ele>329.0</ele><time>2026-04-04T06:53:33.999Z</time></trkpt><trkpt lat="44.762843087838" lon="10.041509032066694"><ele>329.0</ele><time>2026-04-04T06:53:34.999Z</time></trkpt><trkpt lat="44.76276388212641" lon="10.041491683756236"><ele>329.0</ele><time>2026-04-04T06:53:35.999Z</time></trkpt><trkpt lat="44.76268787395665" lon="10.041491462099005"><ele>329.0</ele><time>2026-04-04T06:53:36.999Z</time></trkpt><trkpt lat="44.76261472555309" lon="10.041513578479808"><ele>329.0</ele><time>2026-04-04T06:53:37.999Z</time></trkpt><trkpt lat="44.762545955049966" lon="10.041538732395233"><ele>326.5</ele><time>2026-04-04T06:53:38.999Z</time></trkpt><trkpt lat="44.76247738966092" lon="10.041557855216771"><ele>324.0</ele><time>2026-04-04T06:53:39.999Z</time></trkpt><trkpt lat="44.76241231026525" lon="10.041574506521153"><ele>321.5</ele><time>2026-04-04T06:53:40.999Z</time></trkpt><trkpt lat="44.76229585895982" lon="10.041658061459822"><ele>319.0</ele><time>2026-04-04T06:53:42.999Z</time></trkpt><trkpt lat="44.76223100765354" lon="10.041719945189808"><ele>316.5</ele><time>2026-04-04T06:53:43.999Z</time></trkpt><trkpt lat="44.762168333888674" lon="10.04176773718485"><ele>314.0</ele><time>2026-04-04T06:53:44.999Z</time></trkpt><trkpt lat="44.76204680581458" lon="10.041808291885896"><ele>312.5</ele><time>2026-04-04T06:53:46.999Z</time></trkpt><trkpt lat="44.76198295794867" lon="10.041820200825727"><ele>311.0</ele><time>2026-04-04T06:53:47.999Z</time></trkpt><trkpt lat="44.761914735813846" lon="10.041826170601173"><ele>309.5</ele><time>2026-04-04T06:53:48.999Z</time></trkpt><trkpt lat="44.76181320078695" lon="10.04180857924573"><ele>308.0</ele><time>2026-04-04T06:53:50.998Z</time></trkpt><trkpt lat="44.761786657562155" lon="10.041716111786469"><ele>306.5</ele><time>2026-04-04T06:53:54.998Z</time></trkpt><trkpt lat="44.76179995215104" lon="10.041608150935662"><ele>305.0</ele><time>2026-04-04T06:53:56.998Z</time></trkpt><trkpt lat="44.76175065681888" lon="10.041465598786703"><ele>303.2</ele><time>2026-04-04T06:53:58.998Z</time></trkpt><trkpt lat="44.76172109836399" lon="10.04135620518622"><ele>301.4</ele><time>2026-04-04T06:54:00.998Z</time></trkpt><trkpt lat="44.76168158697966" lon="10.041218042258828"><ele>299.6</ele><time>2026-04-04T06:54:02.998Z</time></trkpt><trkpt lat="44.76165331387402" lon="10.041074508008785"><ele>297.8</ele><time>2026-04-04T06:54:04.998Z</time></trkpt><trkpt lat="44.76162092373944" lon="10.040985042820184"><ele>296.0</ele><time>2026-04-04T06:54:05.998Z</time></trkpt><trkpt lat="44.7615910564845" lon="10.040847188915754"><ele>294.40000000000003</ele><time>2026-04-04T06:54:07.998Z</time></trkpt><trkpt lat="44.76156228789657" lon="10.040641238723463"><ele>292.8</ele><time>2026-04-04T06:54:09.998Z</time></trkpt><trkpt lat="44.761539962595194" lon="10.040523856602274"><ele>291.20000000000005</ele><time>2026-04-04T06:54:10.998Z</time></trkpt><trkpt lat="44.76152898776255" lon="10.040422512660495"><ele>289.6</ele><time>2026-04-04T06:54:11.998Z</time></trkpt><trkpt lat="44.76151588176183" lon="10.040321733908693"><ele>288.0</ele><time>2026-04-04T06:54:12.998Z</time></trkpt><trkpt lat="44.761501279002125" lon="10.040198857963293"><ele>288.0</ele><time>2026-04-04T06:54:13.998Z</time></trkpt><trkpt lat="44.76150109936825" lon="10.040069369896546"><ele>288.0</ele><time>2026-04-04T06:54:14.998Z</time></trkpt><trkpt lat="44.76151795898231" lon="10.039950470198598"><ele>288.0</ele><time>2026-04-04T06:54:15.998Z</time></trkpt><trkpt lat="44.76154283653254" lon="10.039812127706888"><ele>288.0</ele><time>2026-04-04T06:54:16.998Z</time></trkpt><trkpt lat="44.76156556952227" lon="10.039686873095405"><ele>288.0</ele><time>2026-04-04T06:54:17.998Z</time></trkpt><trkpt lat="44.76159835236531" lon="10.039550474364413"><ele>288.0</ele><time>2026-04-04T06:54:18.998Z</time></trkpt><trkpt lat="44.761631506884925" lon="10.039407382079117"><ele>288.0</ele><time>2026-04-04T06:54:19.998Z</time></trkpt><trkpt lat="44.761655222658575" lon="10.039259651283533"><ele>288.0</ele><time>2026-04-04T06:54:20.998Z</time></trkpt><trkpt lat="44.76165658481028" lon="10.039124357828019"><ele>288.0</ele><time>2026-04-04T06:54:21.998Z</time></trkpt><trkpt lat="44.76164891742584" lon="10.038974919351595"><ele>288.0</ele><time>2026-04-04T06:54:22.998Z</time></trkpt><trkpt lat="44.76163758252638" lon="10.038817983207654"><ele>288.6</ele><time>2026-04-04T06:54:23.998Z</time></trkpt><trkpt lat="44.76163607717204" lon="10.03867468026782"><ele>289.20000000000005</ele><time>2026-04-04T06:54:24.998Z</time></trkpt><trkpt lat="44.76164986109227" lon="10.038526857987108"><ele>289.8</ele><time>2026-04-04T06:54:25.998Z</time></trkpt><trkpt lat="44.761685554705565" lon="10.038382506607505"><ele>290.40000000000003</ele><time>2026-04-04T06:54:26.998Z</time></trkpt><trkpt lat="44.76173056773165" lon="10.038232548158604"><ele>291.0</ele><time>2026-04-04T06:54:27.998Z</time></trkpt><trkpt lat="44.761783496784666" lon="10.038077635432687"><ele>291.0</ele><time>2026-04-04T06:54:28.998Z</time></trkpt><trkpt lat="44.76182772589204" lon="10.03793236141164"><ele>291.0</ele><time>2026-04-04T06:54:29.998Z</time></trkpt><trkpt lat="44.76186686709045" lon="10.03777646187048"><ele>291.0</ele><time>2026-04-04T06:54:30.998Z</time></trkpt><trkpt lat="44.76190312400012" lon="10.037614530569872"><ele>291.0</ele><time>2026-04-04T06:54:31.998Z</time></trkpt><trkpt lat="44.76194450312909" lon="10.037431870772105"><ele>296.6666666666667</ele><time>2026-04-04T06:54:32.998Z</time></trkpt><trkpt lat="44.76198363532468" lon="10.03722511290515"><ele>302.33333333333337</ele><time>2026-04-04T06:54:33.998Z</time></trkpt><trkpt lat="44.76203254908363" lon="10.037016109228903"><ele>308.0</ele><time>2026-04-04T06:54:35Z</time></trkpt><trkpt lat="44.76207586836928" lon="10.036821139411177"><ele>307.75</ele><time>2026-04-04T06:54:36Z</time></trkpt><trkpt lat="44.76211640748396" lon="10.036619097538132"><ele>307.5</ele><time>2026-04-04T06:54:37Z</time></trkpt><trkpt lat="44.76214806136325" lon="10.036449536595368"><ele>307.25</ele><time>2026-04-04T06:54:38Z</time></trkpt><trkpt lat="44.762179855096626" lon="10.036287987399023"><ele>307.0</ele><time>2026-04-04T06:54:39Z</time></trkpt><trkpt lat="44.76220935332081" lon="10.036130640117756"><ele>307.0</ele><time>2026-04-04T06:54:40Z</time></trkpt><trkpt lat="44.7622325962746" lon="10.036000705855315"><ele>307.0</ele><time>2026-04-04T06:54:41Z</time></trkpt><trkpt lat="44.76225023425781" lon="10.03590601489185"><ele>307.0</ele><time>2026-04-04T06:54:42Z</time></trkpt><trkpt lat="44.76222021698287" lon="10.035769356041374"><ele>307.0</ele><time>2026-04-04T06:54:44Z</time></trkpt><trkpt lat="44.76216658032834" lon="10.035717660604067"><ele>307.0</ele><time>2026-04-04T06:54:45Z</time></trkpt><trkpt lat="44.76210410455706" lon="10.035690739893408"><ele>307.0</ele><time>2026-04-04T06:54:46Z</time></trkpt><trkpt lat="44.76202838439316" lon="10.035699110756871"><ele>305.75</ele><time>2026-04-04T06:54:47Z</time></trkpt><trkpt lat="44.76193009680151" lon="10.035703420315622"><ele>304.5</ele><time>2026-04-04T06:54:48Z</time></trkpt><trkpt lat="44.76181489891551" lon="10.035718698524882"><ele>303.25</ele><time>2026-04-04T06:54:49Z</time></trkpt><trkpt lat="44.76169441987631" lon="10.03573568040036"><ele>302.0</ele><time>2026-04-04T06:54:50Z</time></trkpt><trkpt lat="44.76157871145387" lon="10.035755749770916"><ele>306.8</ele><time>2026-04-04T06:54:51Z</time></trkpt><trkpt lat="44.7615050532055" lon="10.035775100423344"><ele>311.6</ele><time>2026-04-04T06:54:52Z</time></trkpt><trkpt lat="44.761442065218155" lon="10.035791477320531"><ele>316.40000000000003</ele><time>2026-04-04T06:54:53Z</time></trkpt><trkpt lat="44.761313894562946" lon="10.03578119665252"><ele>321.2</ele><time>2026-04-04T06:54:55Z</time></trkpt><trkpt lat="44.76123613457917" lon="10.035769624898315"><ele>326.0</ele><time>2026-04-04T06:54:56Z</time></trkpt><trkpt lat="44.761178503736076" lon="10.035634429428585"><ele>326.0</ele><time>2026-04-04T06:54:57Z</time></trkpt><trkpt lat="44.76111385543726" lon="10.035557470208712"><ele>326.0</ele><time>2026-04-04T06:54:58Z</time></trkpt><trkpt lat="44.76104230025869" lon="10.035466342054663"><ele>326.0</ele><time>2026-04-04T06:54:59Z</time></trkpt><trkpt lat="44.76096899854447" lon="10.03535471234518"><ele>326.0</ele><time>2026-04-04T06:55:00Z</time></trkpt><trkpt lat="44.760918764450665" lon="10.035225577156623"><ele>326.0</ele><time>2026-04-04T06:55:01Z</time></trkpt><trkpt lat="44.76085687082185" lon="10.03512500792238"><ele>326.8</ele><time>2026-04-04T06:55:02Z</time></trkpt><trkpt lat="44.76079887688405" lon="10.035067297526723"><ele>327.6</ele><time>2026-04-04T06:55:03Z</time></trkpt><trkpt lat="44.760692404958746" lon="10.034973481934392"><ele>328.4</ele><time>2026-04-04T06:55:05Z</time></trkpt><trkpt lat="44.7606017955875" lon="10.0349780337956"><ele>329.2</ele><time>2026-04-04T06:55:06Z</time></trkpt><trkpt lat="44.76050988024715" lon="10.035037664243822"><ele>330.0</ele><time>2026-04-04T06:55:07Z</time></trkpt><trkpt lat="44.76041958807731" lon="10.035093358553114"><ele>330.0</ele><time>2026-04-04T06:55:07.999Z</time></trkpt><trkpt lat="44.760362824290155" lon="10.035154043047196"><ele>330.0</ele><time>2026-04-04T06:55:08.999Z</time></trkpt><trkpt lat="44.760259818355706" lon="10.03523553582517"><ele>330.0</ele><time>2026-04-04T06:55:10.999Z</time></trkpt><trkpt lat="44.76019428111329" lon="10.03521655755091"><ele>330.0</ele><time>2026-04-04T06:55:12.999Z</time></trkpt><trkpt lat="44.760227676468425" lon="10.035015769909371"><ele>330.0</ele><time>2026-04-04T06:55:15.999Z</time></trkpt><trkpt lat="44.760247747158246" lon="10.03492866005702"><ele>333.8</ele><time>2026-04-04T06:55:16.999Z</time></trkpt><trkpt lat="44.76026955688982" lon="10.034818599251608"><ele>337.6</ele><time>2026-04-04T06:55:17.999Z</time></trkpt><trkpt lat="44.76028654886974" lon="10.034682761870195"><ele>341.4</ele><time>2026-04-04T06:55:18.999Z</time></trkpt><trkpt lat="44.76033011528221" lon="10.034556875767311"><ele>345.2</ele><time>2026-04-04T06:55:19.999Z</time></trkpt><trkpt lat="44.760362788879014" lon="10.034416750565484"><ele>349.0</ele><time>2026-04-04T06:55:20.999Z</time></trkpt><trkpt lat="44.760411634470614" lon="10.034291148901499"><ele>349.0</ele><time>2026-04-04T06:55:21.999Z</time></trkpt><trkpt lat="44.76042595886433" lon="10.03416064647846"><ele>349.0</ele><time>2026-04-04T06:55:22.999Z</time></trkpt><trkpt lat="44.760438715846526" lon="10.034061660117814"><ele>349.0</ele><time>2026-04-04T06:55:23.999Z</time></trkpt><trkpt lat="44.760451492881494" lon="10.033956700530481"><ele>349.0</ele><time>2026-04-04T06:55:24.999Z</time></trkpt><trkpt lat="44.76046086395757" lon="10.03383368206689"><ele>349.0</ele><time>2026-04-04T06:55:25.999Z</time></trkpt><trkpt lat="44.760462591942726" lon="10.033714544983702"><ele>349.0</ele><time>2026-04-04T06:55:26.999Z</time></trkpt><trkpt lat="44.76045991791009" lon="10.033598320304431"><ele>348.4</ele><time>2026-04-04T06:55:27.999Z</time></trkpt><trkpt lat="44.760416315399674" lon="10.03349826087793"><ele>347.79999999999995</ele><time>2026-04-04T06:55:28.999Z</time></trkpt><trkpt lat="44.760389800360926" lon="10.033366442080405"><ele>347.20000000000005</ele><time>2026-04-04T06:55:29.999Z</time></trkpt><trkpt lat="44.7603266352793" lon="10.033238984089714"><ele>346.6</ele><time>2026-04-04T06:55:30.999Z</time></trkpt><trkpt lat="44.76023167750259" lon="10.033133843527553"><ele>346.0</ele><time>2026-04-04T06:55:31.999Z</time></trkpt><trkpt lat="44.76016159234553" lon="10.032993878840909"><ele>350.0</ele><time>2026-04-04T06:55:32.999Z</time></trkpt><trkpt lat="44.76011299346436" lon="10.032863404772767"><ele>354.0</ele><time>2026-04-04T06:55:33.999Z</time></trkpt><trkpt lat="44.76005624096056" lon="10.032699060932446"><ele>358.0</ele><time>2026-04-04T06:55:34.999Z</time></trkpt><trkpt lat="44.76000497063089" lon="10.03253720306355"><ele>362.0</ele><time>2026-04-04T06:55:35.999Z</time></trkpt><trkpt lat="44.75996281232398" lon="10.032380234603995"><ele>362.0</ele><time>2026-04-04T06:55:36.999Z</time></trkpt><trkpt lat="44.75992857599401" lon="10.032221455282217"><ele>362.0</ele><time>2026-04-04T06:55:37.999Z</time></trkpt><trkpt lat="44.75989519765667" lon="10.032050279252841"><ele>362.0</ele><time>2026-04-04T06:55:38.999Z</time></trkpt><trkpt lat="44.75984425186604" lon="10.031889596101438"><ele>362.0</ele><time>2026-04-04T06:55:39.999Z</time></trkpt><trkpt lat="44.75983889780505" lon="10.031748429510081"><ele>362.40000000000003</ele><time>2026-04-04T06:55:40.999Z</time></trkpt><trkpt lat="44.75981019021365" lon="10.03162487378685"><ele>362.8</ele><time>2026-04-04T06:55:41.999Z</time></trkpt><trkpt lat="44.75979260829368" lon="10.031467628818845"><ele>363.2</ele><time>2026-04-04T06:55:42.999Z</time></trkpt><trkpt lat="44.75979253830793" lon="10.03130560286886"><ele>363.6</ele><time>2026-04-04T06:55:43.999Z</time></trkpt><trkpt lat="44.75976040188368" lon="10.031151824730284"><ele>364.0</ele><time>2026-04-04T06:55:44.999Z</time></trkpt><trkpt lat="44.759746586988946" lon="10.031003804815649"><ele>364.0</ele><time>2026-04-04T06:55:45.999Z</time></trkpt><trkpt lat="44.75976379884787" lon="10.030885560968615"><ele>364.0</ele><time>2026-04-04T06:55:46.999Z</time></trkpt><trkpt lat="44.75976996952478" lon="10.030773045029214"><ele>364.0</ele><time>2026-04-04T06:55:47.999Z</time></trkpt><trkpt lat="44.75977381414992" lon="10.030632734725119"><ele>364.0</ele><time>2026-04-04T06:55:48.999Z</time></trkpt><trkpt lat="44.759758010124386" lon="10.03048503443352"><ele>364.0</ele><time>2026-04-04T06:55:49.999Z</time></trkpt><trkpt lat="44.75975482837665" lon="10.030355460269423"><ele>364.3333333333333</ele><time>2026-04-04T06:55:50.999Z</time></trkpt><trkpt lat="44.75977954033398" lon="10.03025003734819"><ele>364.66666666666663</ele><time>2026-04-04T06:55:51.999Z</time></trkpt><trkpt lat="44.75980547999533" lon="10.0301396351391"><ele>365.0</ele><time>2026-04-04T06:55:52.999Z</time></trkpt><trkpt lat="44.7598439996378" lon="10.030036160006686"><ele>365.3333333333333</ele><time>2026-04-04T06:55:53.999Z</time></trkpt><trkpt lat="44.7598816247373" lon="10.029925944271675"><ele>365.6666666666667</ele><time>2026-04-04T06:55:54.999Z</time></trkpt><trkpt lat="44.75991808567801" lon="10.029831371423311"><ele>366.0</ele><time>2026-04-04T06:55:55.998Z</time></trkpt><trkpt lat="44.75992983268329" lon="10.029739162427985"><ele>367.4</ele><time>2026-04-04T06:55:56.998Z</time></trkpt><trkpt lat="44.759923699489015" lon="10.029643132352886"><ele>368.8</ele><time>2026-04-04T06:55:57.998Z</time></trkpt><trkpt lat="44.7598965507573" lon="10.029552989034434"><ele>370.2</ele><time>2026-04-04T06:55:58.998Z</time></trkpt><trkpt lat="44.759850895580165" lon="10.029436750632215"><ele>371.59999999999997</ele><time>2026-04-04T06:56:00.998Z</time></trkpt><trkpt lat="44.75978409344404" lon="10.029326522673562"><ele>373.0</ele><time>2026-04-04T06:56:07.998Z</time></trkpt><trkpt lat="44.7600049694302" lon="10.029228988327668"><ele>373.0</ele><time>2026-04-04T06:56:08.998Z</time></trkpt><trkpt lat="44.760047974144044" lon="10.02914581982044"><ele>373.0</ele><time>2026-04-04T06:56:09.998Z</time></trkpt><trkpt lat="44.760082144613506" lon="10.02905600581681"><ele>373.0</ele><time>2026-04-04T06:56:10.998Z</time></trkpt><trkpt lat="44.76008526121136" lon="10.028958415674964"><ele>373.0</ele><time>2026-04-04T06:56:11.998Z</time></trkpt><trkpt lat="44.76008569010015" lon="10.028844959272629"><ele>373.0</ele><time>2026-04-04T06:56:12.998Z</time></trkpt><trkpt lat="44.760090909363186" lon="10.02871951989787"><ele>373.0</ele><time>2026-04-04T06:56:13.998Z</time></trkpt><trkpt lat="44.76008642866156" lon="10.028607086062529"><ele>374.8333333333333</ele><time>2026-04-04T06:56:14.998Z</time></trkpt><trkpt lat="44.76007655924234" lon="10.028491356685741"><ele>376.66666666666663</ele><time>2026-04-04T06:56:15.998Z</time></trkpt><trkpt lat="44.76004797952464" lon="10.028401347651812"><ele>378.5</ele><time>2026-04-04T06:56:16.998Z</time></trkpt><trkpt lat="44.760022734307604" lon="10.028296489957873"><ele>380.3333333333333</ele><time>2026-04-04T06:56:17.998Z</time></trkpt><trkpt lat="44.76000180823164" lon="10.02820584034054"><ele>382.1666666666667</ele><time>2026-04-04T06:56:18.998Z</time></trkpt><trkpt lat="44.75990548847327" lon="10.028073480208844"><ele>384.0</ele><time>2026-04-04T06:56:20.998Z</time></trkpt><trkpt lat="44.75984797791587" lon="10.028023629272834"><ele>384.8333333333333</ele><time>2026-04-04T06:56:21.998Z</time></trkpt><trkpt lat="44.75979544685334" lon="10.027967260430895"><ele>385.66666666666663</ele><time>2026-04-04T06:56:22.998Z</time></trkpt><trkpt lat="44.7597289928851" lon="10.02782038584915"><ele>386.5</ele><time>2026-04-04T06:56:24.998Z</time></trkpt><trkpt lat="44.759708605035456" lon="10.027713233271784"><ele>387.3333333333333</ele><time>2026-04-04T06:56:25.998Z</time></trkpt><trkpt lat="44.75969136318832" lon="10.027595551684263"><ele>388.16666666666663</ele><time>2026-04-04T06:56:26.998Z</time></trkpt><trkpt lat="44.7596719552255" lon="10.027481980534699"><ele>389.0</ele><time>2026-04-04T06:56:27.998Z</time></trkpt><trkpt lat="44.75963290555791" lon="10.027376019896439"><ele>389.49999999999994</ele><time>2026-04-04T06:56:28.998Z</time></trkpt><trkpt lat="44.75958965913404" lon="10.027288126960203"><ele>390.0</ele><time>2026-04-04T06:56:29.998Z</time></trkpt><trkpt lat="44.75954703170611" lon="10.027106317987878"><ele>390.5</ele><time>2026-04-04T06:56:31.998Z</time></trkpt><trkpt lat="44.75951640937864" lon="10.026988419858508"><ele>391.0</ele><time>2026-04-04T06:56:33.998Z</time></trkpt><trkpt lat="44.75957002799577" lon="10.026931871115105"><ele>391.49999999999994</ele><time>2026-04-04T06:56:37.998Z</time></trkpt><trkpt lat="44.759623050167455" lon="10.026878517905898"><ele>392.0</ele><time>2026-04-04T06:56:41Z</time></trkpt><trkpt lat="44.759693250430225" lon="10.026816858268651"><ele>391.99999999999994</ele><time>2026-04-04T06:56:44Z</time></trkpt><trkpt lat="44.75975362661108" lon="10.0267430566949"><ele>392.0</ele><time>2026-04-04T06:56:48Z</time></trkpt><trkpt lat="44.759816120986756" lon="10.026692889227744"><ele>392.0</ele><time>2026-04-04T06:56:50Z</time></trkpt><trkpt lat="44.75987562463965" lon="10.026651012269305"><ele>392.0</ele><time>2026-04-04T06:56:52Z</time></trkpt><trkpt lat="44.75996926807052" lon="10.026596724744818"><ele>391.99999999999994</ele><time>2026-04-04T06:56:54Z</time></trkpt><trkpt lat="44.76007437154009" lon="10.026546080434997"><ele>392.0</ele><time>2026-04-04T06:56:56Z</time></trkpt><trkpt lat="44.760150031726496" lon="10.0265156309551"><ele>389.8333333333333</ele><time>2026-04-04T06:56:58Z</time></trkpt><trkpt lat="44.76011648614927" lon="10.026425102903252"><ele>387.66666666666663</ele><time>2026-04-04T06:57:02Z</time></trkpt><trkpt lat="44.76004732350321" lon="10.026417104136737"><ele>385.5</ele><time>2026-04-04T06:57:04Z</time></trkpt><trkpt lat="44.75995199481924" lon="10.026413943003844"><ele>383.3333333333333</ele><time>2026-04-04T06:57:05Z</time></trkpt><trkpt lat="44.75985194510362" lon="10.026399893603175"><ele>381.16666666666663</ele><time>2026-04-04T06:57:06Z</time></trkpt><trkpt lat="44.75975933061674" lon="10.026368274220989"><ele>379.0</ele><time>2026-04-04T06:57:07Z</time></trkpt><trkpt lat="44.75968782519599" lon="10.02633466924524"><ele>379.0</ele><time>2026-04-04T06:57:08Z</time></trkpt><trkpt lat="44.75959996750051" lon="10.026285479634472"><ele>379.0</ele><time>2026-04-04T06:57:09Z</time></trkpt><trkpt lat="44.75950806632462" lon="10.026260189565434"><ele>379.0</ele><time>2026-04-04T06:57:10Z</time></trkpt><trkpt lat="44.75941188881896" lon="10.02624693028814"><ele>379.0</ele><time>2026-04-04T06:57:11Z</time></trkpt><trkpt lat="44.75932527061703" lon="10.026241104582114"><ele>379.0</ele><time>2026-04-04T06:57:12Z</time></trkpt><trkpt lat="44.7592237837956" lon="10.026265495711707"><ele>380.6</ele><time>2026-04-04T06:57:12.999Z</time></trkpt><trkpt lat="44.7591364528413" lon="10.026280687577637"><ele>382.2</ele><time>2026-04-04T06:57:13.999Z</time></trkpt><trkpt lat="44.75904169622079" lon="10.026285766324875"><ele>383.8</ele><time>2026-04-04T06:57:14.999Z</time></trkpt><trkpt lat="44.75894476631178" lon="10.026267474442374"><ele>385.40000000000003</ele><time>2026-04-04T06:57:15.999Z</time></trkpt><trkpt lat="44.758853937068345" lon="10.02623634112229"><ele>387.0</ele><time>2026-04-04T06:57:16.999Z</time></trkpt><trkpt lat="44.75877297116729" lon="10.02619612824015"><ele>387.0</ele><time>2026-04-04T06:57:17.999Z</time></trkpt><trkpt lat="44.75869164918267" lon="10.026158127532566"><ele>387.0</ele><time>2026-04-04T06:57:18.999Z</time></trkpt><trkpt lat="44.758614058941774" lon="10.026128647709218"><ele>387.0</ele><time>2026-04-04T06:57:19.999Z</time></trkpt><trkpt lat="44.758544823829645" lon="10.026099602585719"><ele>387.0</ele><time>2026-04-04T06:57:20.999Z</time></trkpt><trkpt lat="44.75845077910719" lon="10.02606885052605"><ele>387.0</ele><time>2026-04-04T06:57:21.999Z</time></trkpt><trkpt lat="44.758360266789246" lon="10.026066020458769"><ele>387.0</ele><time>2026-04-04T06:57:22.999Z</time></trkpt><trkpt lat="44.75827438684729" lon="10.026056632089293"><ele>390.0</ele><time>2026-04-04T06:57:23.999Z</time></trkpt><trkpt lat="44.75819037311498" lon="10.026006873327473"><ele>393.0</ele><time>2026-04-04T06:57:24.999Z</time></trkpt><trkpt lat="44.75808983218056" lon="10.025918691110846"><ele>396.0</ele><time>2026-04-04T06:57:25.999Z</time></trkpt><trkpt lat="44.757971609587834" lon="10.025825323925533"><ele>399.0</ele><time>2026-04-04T06:57:26.999Z</time></trkpt><trkpt lat="44.75786248169427" lon="10.02575407528262"><ele>399.0</ele><time>2026-04-04T06:57:27.999Z</time></trkpt><trkpt lat="44.75775568694227" lon="10.025655511726745"><ele>399.0</ele><time>2026-04-04T06:57:28.999Z</time></trkpt><trkpt lat="44.757656795315526" lon="10.025658579994493"><ele>399.0</ele><time>2026-04-04T06:57:29.999Z</time></trkpt><trkpt lat="44.75758015348084" lon="10.025642905649292"><ele>399.0</ele><time>2026-04-04T06:57:30.999Z</time></trkpt><trkpt lat="44.75752457909815" lon="10.025597991467164"><ele>399.0</ele><time>2026-04-04T06:57:31.999Z</time></trkpt><trkpt lat="44.75746540420498" lon="10.025489164442684"><ele>398.1666666666667</ele><time>2026-04-04T06:57:33.999Z</time></trkpt><trkpt lat="44.75744469661543" lon="10.025391979628765"><ele>397.33333333333337</ele><time>2026-04-04T06:57:34.999Z</time></trkpt><trkpt lat="44.75742082851767" lon="10.025296299428758"><ele>396.5</ele><time>2026-04-04T06:57:35.999Z</time></trkpt><trkpt lat="44.7574424561175" lon="10.025156673549269"><ele>395.6666666666667</ele><time>2026-04-04T06:57:37.999Z</time></trkpt><trkpt lat="44.75748272602634" lon="10.025061512045369"><ele>394.83333333333337</ele><time>2026-04-04T06:57:38.999Z</time></trkpt><trkpt lat="44.75753722351508" lon="10.024945269382059"><ele>394.0</ele><time>2026-04-04T06:57:39.999Z</time></trkpt><trkpt lat="44.757593467639566" lon="10.024831365298361"><ele>395.33333333333337</ele><time>2026-04-04T06:57:40.999Z</time></trkpt><trkpt lat="44.75762791279722" lon="10.02471746727592"><ele>396.6666666666667</ele><time>2026-04-04T06:57:41.999Z</time></trkpt><trkpt lat="44.75766458676246" lon="10.024610622307588"><ele>398.0</ele><time>2026-04-04T06:57:42.999Z</time></trkpt><trkpt lat="44.75769936708951" lon="10.024499801032556"><ele>399.33333333333337</ele><time>2026-04-04T06:57:43.999Z</time></trkpt><trkpt lat="44.757733861850646" lon="10.02441043525415"><ele>400.6666666666667</ele><time>2026-04-04T06:57:44.999Z</time></trkpt><trkpt lat="44.75776210252306" lon="10.024291347430646"><ele>402.0</ele><time>2026-04-04T06:57:45.999Z</time></trkpt><trkpt lat="44.7577882350505" lon="10.02415262173936"><ele>400.8333333333333</ele><time>2026-04-04T06:57:46.999Z</time></trkpt><trkpt lat="44.75780512445112" lon="10.024032331685383"><ele>399.66666666666663</ele><time>2026-04-04T06:57:47.999Z</time></trkpt><trkpt lat="44.757830068881056" lon="10.023916287819901"><ele>398.5</ele><time>2026-04-04T06:57:48.999Z</time></trkpt><trkpt lat="44.757851552842595" lon="10.023798568214419"><ele>397.3333333333333</ele><time>2026-04-04T06:57:49.999Z</time></trkpt><trkpt lat="44.757869937230836" lon="10.023681789147178"><ele>396.16666666666663</ele><time>2026-04-04T06:57:50.999Z</time></trkpt><trkpt lat="44.75788081770717" lon="10.023587428284864"><ele>395.0</ele><time>2026-04-04T06:57:51.999Z</time></trkpt><trkpt lat="44.757891379941945" lon="10.023441574972582"><ele>394.99999999999994</ele><time>2026-04-04T06:57:52.999Z</time></trkpt><trkpt lat="44.757910464002386" lon="10.02335676583823"><ele>395.0</ele><time>2026-04-04T06:57:53.999Z</time></trkpt><trkpt lat="44.75793145015356" lon="10.023187607267404"><ele>395.0</ele><time>2026-04-04T06:57:55.999Z</time></trkpt><trkpt lat="44.75792593277437" lon="10.0230887109311"><ele>395.0</ele><time>2026-04-04T06:57:56.999Z</time></trkpt><trkpt lat="44.75793587988171" lon="10.022966382255808"><ele>394.99999999999994</ele><time>2026-04-04T06:57:57.999Z</time></trkpt><trkpt lat="44.75796796527984" lon="10.022849372941563"><ele>395.0</ele><time>2026-04-04T06:57:58.999Z</time></trkpt><trkpt lat="44.75798428564332" lon="10.0227246976018"><ele>392.0</ele><time>2026-04-04T06:57:59.999Z</time></trkpt><trkpt lat="44.75797097410345" lon="10.022631686549229"><ele>389.0</ele><time>2026-04-04T06:58:00.999Z</time></trkpt><trkpt lat="44.7579573457119" lon="10.02254028830909"><ele>386.0</ele><time>2026-04-04T06:58:01.999Z</time></trkpt><trkpt lat="44.75789475013541" lon="10.022377021298775"><ele>383.0</ele><time>2026-04-04T06:58:03.998Z</time></trkpt><trkpt lat="44.75782655501855" lon="10.022294084273833"><ele>380.0</ele><time>2026-04-04T06:58:04.998Z</time></trkpt><trkpt lat="44.75775942206609" lon="10.022197377926089"><ele>379.1666666666667</ele><time>2026-04-04T06:58:05.998Z</time></trkpt><trkpt lat="44.75770873083385" lon="10.02208466401411"><ele>378.33333333333337</ele><time>2026-04-04T06:58:06.998Z</time></trkpt><trkpt lat="44.75766448392687" lon="10.022001329999705"><ele>377.5</ele><time>2026-04-04T06:58:07.998Z</time></trkpt><trkpt lat="44.75761664570303" lon="10.021914369358065"><ele>376.6666666666667</ele><time>2026-04-04T06:58:08.998Z</time></trkpt><trkpt lat="44.757565971725576" lon="10.021804632723875"><ele>375.8333333333333</ele><time>2026-04-04T06:58:09.998Z</time></trkpt><trkpt lat="44.757541448740184" lon="10.021672414875457"><ele>375.0</ele><time>2026-04-04T06:58:10.998Z</time></trkpt><trkpt lat="44.75753013109777" lon="10.021542437270577"><ele>380.4</ele><time>2026-04-04T06:58:11.998Z</time></trkpt><trkpt lat="44.75750430655708" lon="10.021426199712131"><ele>385.8</ele><time>2026-04-04T06:58:12.998Z</time></trkpt><trkpt lat="44.75746372954323" lon="10.021307357246872"><ele>391.20000000000005</ele><time>2026-04-04T06:58:13.998Z</time></trkpt><trkpt lat="44.75742227792951" lon="10.021172745265934"><ele>396.6</ele><time>2026-04-04T06:58:14.998Z</time></trkpt><trkpt lat="44.75739064893585" lon="10.021062677584814"><ele>402.0</ele><time>2026-04-04T06:58:15.998Z</time></trkpt><trkpt lat="44.757302566301746" lon="10.020969777587768"><ele>402.0</ele><time>2026-04-04T06:58:17.998Z</time></trkpt><trkpt lat="44.75722578613427" lon="10.020939699506306"><ele>402.0</ele><time>2026-04-04T06:58:18.998Z</time></trkpt><trkpt lat="44.75712305286587" lon="10.020880163678951"><ele>402.0</ele><time>2026-04-04T06:58:19.998Z</time></trkpt><trkpt lat="44.757020285194926" lon="10.020809175849287"><ele>402.0</ele><time>2026-04-04T06:58:20.998Z</time></trkpt><trkpt lat="44.756961490756446" lon="10.020744019485681"><ele>402.0</ele><time>2026-04-04T06:58:21.998Z</time></trkpt><trkpt lat="44.75692594706909" lon="10.020613567468734"><ele>403.40000000000003</ele><time>2026-04-04T06:58:23.998Z</time></trkpt><trkpt lat="44.75693499986136" lon="10.020413073039856"><ele>404.8</ele><time>2026-04-04T06:58:25.998Z</time></trkpt><trkpt lat="44.7569519034595" lon="10.02027880822069"><ele>406.2</ele><time>2026-04-04T06:58:26.998Z</time></trkpt><trkpt lat="44.756971884777506" lon="10.020140954121873"><ele>407.6</ele><time>2026-04-04T06:58:27.998Z</time></trkpt><trkpt lat="44.75699172330453" lon="10.020026873180319"><ele>409.0</ele><time>2026-04-04T06:58:28.998Z</time></trkpt><trkpt lat="44.75699491497165" lon="10.019924650011268"><ele>409.00000000000006</ele><time>2026-04-04T06:58:29.998Z</time></trkpt><trkpt lat="44.75698401461881" lon="10.01982228608684"><ele>409.0</ele><time>2026-04-04T06:58:30.998Z</time></trkpt><trkpt lat="44.75700498941584" lon="10.019717560236685"><ele>409.0</ele><time>2026-04-04T06:58:31.998Z</time></trkpt><trkpt lat="44.75706192181099" lon="10.019621323010403"><ele>409.0</ele><time>2026-04-04T06:58:32.998Z</time></trkpt><trkpt lat="44.757122269534094" lon="10.019535369673422"><ele>409.00000000000006</ele><time>2026-04-04T06:58:33.998Z</time></trkpt><trkpt lat="44.75715222970487" lon="10.019434872523272"><ele>409.0</ele><time>2026-04-04T06:58:34.998Z</time></trkpt><trkpt lat="44.75717286189812" lon="10.019308350686392"><ele>409.00000000000006</ele><time>2026-04-04T06:58:35.998Z</time></trkpt><trkpt lat="44.75720341485849" lon="10.019194365433632"><ele>409.0</ele><time>2026-04-04T06:58:36.998Z</time></trkpt><trkpt lat="44.75724578700826" lon="10.019084201902348"><ele>409.0</ele><time>2026-04-04T06:58:37.998Z</time></trkpt><trkpt lat="44.75728487731502" lon="10.018975996308003"><ele>409.0</ele><time>2026-04-04T06:58:38.998Z</time></trkpt><trkpt lat="44.75730041995783" lon="10.018855783697285"><ele>409.00000000000006</ele><time>2026-04-04T06:58:39.998Z</time></trkpt><trkpt lat="44.757320140276434" lon="10.018739515716758"><ele>409.0</ele><time>2026-04-04T06:58:40.998Z</time></trkpt><trkpt lat="44.75735781658464" lon="10.018594911893018"><ele>406.83333333333337</ele><time>2026-04-04T06:58:41.998Z</time></trkpt><trkpt lat="44.757399736895806" lon="10.018485631508499"><ele>404.6666666666667</ele><time>2026-04-04T06:58:42.998Z</time></trkpt><trkpt lat="44.75744306623319" lon="10.018375576676046"><ele>402.5</ele><time>2026-04-04T06:58:43.998Z</time></trkpt><trkpt lat="44.75747021874006" lon="10.018264734551144"><ele>400.33333333333337</ele><time>2026-04-04T06:58:44.998Z</time></trkpt><trkpt lat="44.757514837894114" lon="10.01815801205439"><ele>398.1666666666667</ele><time>2026-04-04T06:58:45.998Z</time></trkpt><trkpt lat="44.757571065872156" lon="10.018049416584553"><ele>396.0</ele><time>2026-04-04T06:58:47Z</time></trkpt><trkpt lat="44.75761823641322" lon="10.017960797372634"><ele>396.3333333333333</ele><time>2026-04-04T06:58:48Z</time></trkpt><trkpt lat="44.757677347615555" lon="10.017891579360196"><ele>396.66666666666663</ele><time>2026-04-04T06:58:49Z</time></trkpt><trkpt lat="44.75772568649238" lon="10.017795597276594"><ele>397.0</ele><time>2026-04-04T06:58:50Z</time></trkpt><trkpt lat="44.75776425348266" lon="10.017691614087486"><ele>397.3333333333333</ele><time>2026-04-04T06:58:51Z</time></trkpt><trkpt lat="44.7577838503085" lon="10.017591988456612"><ele>397.66666666666663</ele><time>2026-04-04T06:58:52Z</time></trkpt><trkpt lat="44.75781031773209" lon="10.017500070944507"><ele>398.0</ele><time>2026-04-04T06:58:53Z</time></trkpt><trkpt lat="44.75783355605649" lon="10.017400842187929"><ele>397.99999999999994</ele><time>2026-04-04T06:58:54Z</time></trkpt><trkpt lat="44.75787082086434" lon="10.017269601983445"><ele>398.0</ele><time>2026-04-04T06:58:55Z</time></trkpt><trkpt lat="44.75791410668981" lon="10.017169144411303"><ele>398.0</ele><time>2026-04-04T06:58:56Z</time></trkpt><trkpt lat="44.75795049299873" lon="10.017064139750152"><ele>398.0</ele><time>2026-04-04T06:58:57Z</time></trkpt><trkpt lat="44.757964931230504" lon="10.016927900529069"><ele>397.99999999999994</ele><time>2026-04-04T06:58:58Z</time></trkpt><trkpt lat="44.757977170370786" lon="10.01681856192281"><ele>398.0</ele><time>2026-04-04T06:58:59Z</time></trkpt><trkpt lat="44.75800015930294" lon="10.016717901778094"><ele>395.0</ele><time>2026-04-04T06:59:00Z</time></trkpt><trkpt lat="44.75803334912163" lon="10.016619907610414"><ele>392.0</ele><time>2026-04-04T06:59:01Z</time></trkpt><trkpt lat="44.75809399248085" lon="10.016495997345693"><ele>389.0</ele><time>2026-04-04T06:59:02Z</time></trkpt><trkpt lat="44.75815153330186" lon="10.016377625217954"><ele>386.0</ele><time>2026-04-04T06:59:03Z</time></trkpt><trkpt lat="44.758203513815026" lon="10.016265832073463"><ele>383.0</ele><time>2026-04-04T06:59:04Z</time></trkpt><trkpt lat="44.758258603634616" lon="10.016176108726333"><ele>383.0</ele><time>2026-04-04T06:59:05Z</time></trkpt><trkpt lat="44.75831185084304" lon="10.01609750726588"><ele>383.0</ele><time>2026-04-04T06:59:06Z</time></trkpt><trkpt lat="44.75834856751157" lon="10.016024000731424"><ele>383.0</ele><time>2026-04-04T06:59:07Z</time></trkpt><trkpt lat="44.758371898016726" lon="10.015927613374696"><ele>383.0</ele><time>2026-04-04T06:59:08Z</time></trkpt><trkpt lat="44.7583826596899" lon="10.015815921963576"><ele>383.0</ele><time>2026-04-04T06:59:09Z</time></trkpt><trkpt lat="44.7583715021928" lon="10.01568898207124"><ele>383.0</ele><time>2026-04-04T06:59:11Z</time></trkpt><trkpt lat="44.758380016574925" lon="10.015571750942225"><ele>379.75</ele><time>2026-04-04T06:59:12Z</time></trkpt><trkpt lat="44.758404571061995" lon="10.015426560265313"><ele>376.5</ele><time>2026-04-04T06:59:14Z</time></trkpt><trkpt lat="44.75844011947459" lon="10.015252854134964"><ele>373.25</ele><time>2026-04-04T06:59:16Z</time></trkpt><trkpt lat="44.75849395658885" lon="10.015116751807431"><ele>370.0</ele><time>2026-04-04T06:59:18Z</time></trkpt><trkpt lat="44.75852656165176" lon="10.014975440999827"><ele>369.4</ele><time>2026-04-04T06:59:19.999Z</time></trkpt><trkpt lat="44.758541918485015" lon="10.01480437575308"><ele>368.8</ele><time>2026-04-04T06:59:21.999Z</time></trkpt><trkpt lat="44.75855541280682" lon="10.014714867459372"><ele>368.20000000000005</ele><time>2026-04-04T06:59:22.999Z</time></trkpt><trkpt lat="44.75854862892335" lon="10.014563447321532"><ele>367.6</ele><time>2026-04-04T06:59:24.999Z</time></trkpt><trkpt lat="44.758505062601614" lon="10.014470778659177"><ele>367.0</ele><time>2026-04-04T06:59:25.999Z</time></trkpt><trkpt lat="44.758437262307844" lon="10.014350833955223"><ele>367.0</ele><time>2026-04-04T06:59:26.999Z</time></trkpt><trkpt lat="44.75837755763993" lon="10.014203987220181"><ele>367.0</ele><time>2026-04-04T06:59:27.999Z</time></trkpt><trkpt lat="44.75832876336243" lon="10.014035242415183"><ele>367.0</ele><time>2026-04-04T06:59:28.999Z</time></trkpt><trkpt lat="44.75827444239106" lon="10.013849251426599"><ele>367.0</ele><time>2026-04-04T06:59:29.999Z</time></trkpt><trkpt lat="44.7582298447211" lon="10.013689929634378"><ele>366.0</ele><time>2026-04-04T06:59:30.999Z</time></trkpt><trkpt lat="44.75818074328628" lon="10.013518151968059"><ele>365.0</ele><time>2026-04-04T06:59:31.999Z</time></trkpt><trkpt lat="44.758132679544474" lon="10.01335716934959"><ele>364.0</ele><time>2026-04-04T06:59:32.999Z</time></trkpt><trkpt lat="44.75809106617151" lon="10.013225334859756"><ele>363.0</ele><time>2026-04-04T06:59:33.999Z</time></trkpt><trkpt lat="44.75804986073432" lon="10.013107333425785"><ele>362.59999999999997</ele><time>2026-04-04T06:59:34.999Z</time></trkpt><trkpt lat="44.75800920087077" lon="10.0130081922957"><ele>362.2</ele><time>2026-04-04T06:59:35.999Z</time></trkpt><trkpt lat="44.757951345544676" lon="10.012816806729964"><ele>361.8</ele><time>2026-04-04T06:59:37.999Z</time></trkpt><trkpt lat="44.757939303171035" lon="10.012703019179849"><ele>361.4</ele><time>2026-04-04T06:59:38.999Z</time></trkpt><trkpt lat="44.7579401127767" lon="10.012595223629758"><ele>361.0</ele><time>2026-04-04T06:59:39.999Z</time></trkpt><trkpt lat="44.7579300865107" lon="10.012486689191098"><ele>360.3333333333333</ele><time>2026-04-04T06:59:40.999Z</time></trkpt><trkpt lat="44.75790514900211" lon="10.012402424093088"><ele>359.66666666666663</ele><time>2026-04-04T06:59:41.999Z</time></trkpt><trkpt lat="44.75786272513621" lon="10.012294750338006"><ele>359.0</ele><time>2026-04-04T06:59:42.999Z</time></trkpt><trkpt lat="44.75782180837703" lon="10.01219931016989"><ele>358.3333333333333</ele><time>2026-04-04T06:59:43.999Z</time></trkpt><trkpt lat="44.757784794873054" lon="10.012087688033015"><ele>357.6666666666667</ele><time>2026-04-04T06:59:44.999Z</time></trkpt><trkpt lat="44.757740066087706" lon="10.01197079753296"><ele>357.0</ele><time>2026-04-04T06:59:45.999Z</time></trkpt><trkpt lat="44.75769253913674" lon="10.011870173839485"><ele>359.8</ele><time>2026-04-04T06:59:46.999Z</time></trkpt><trkpt lat="44.75762981836947" lon="10.011795251904688"><ele>362.6</ele><time>2026-04-04T06:59:47.999Z</time></trkpt><trkpt lat="44.75755551005056" lon="10.01171842134781"><ele>365.40000000000003</ele><time>2026-04-04T06:59:48.999Z</time></trkpt><trkpt lat="44.757468733007364" lon="10.01164872119561"><ele>368.20000000000005</ele><time>2026-04-04T06:59:49.999Z</time></trkpt><trkpt lat="44.757358787202726" lon="10.011571662332889"><ele>371.0</ele><time>2026-04-04T06:59:50.999Z</time></trkpt><trkpt lat="44.75723617408039" lon="10.01148075285763"><ele>371.0</ele><time>2026-04-04T06:59:51.999Z</time></trkpt><trkpt lat="44.757135088005235" lon="10.011412154789209"><ele>371.0</ele><time>2026-04-04T06:59:52.999Z</time></trkpt><trkpt lat="44.75705818336863" lon="10.011360165617418"><ele>371.0</ele><time>2026-04-04T06:59:53.999Z</time></trkpt><trkpt lat="44.756985009817505" lon="10.011281905097407"><ele>371.0</ele><time>2026-04-04T06:59:54.999Z</time></trkpt><trkpt lat="44.756904843563944" lon="10.011150848864107"><ele>371.0</ele><time>2026-04-04T06:59:55.999Z</time></trkpt><trkpt lat="44.75681257530973" lon="10.011008342773208"><ele>370.75</ele><time>2026-04-04T06:59:56.999Z</time></trkpt><trkpt lat="44.7567361608692" lon="10.010880199347508"><ele>370.5</ele><time>2026-04-04T06:59:57.999Z</time></trkpt><trkpt lat="44.75666380875239" lon="10.01077893939254"><ele>370.25</ele><time>2026-04-04T06:59:58.999Z</time></trkpt><trkpt lat="44.756572600822196" lon="10.010713645078562"><ele>370.0</ele><time>2026-04-04T06:59:59.999Z</time></trkpt><trkpt lat="44.7564466369346" lon="10.010638852241856"><ele>370.0</ele><time>2026-04-04T07:00:00.999Z</time></trkpt><trkpt lat="44.756317043869345" lon="10.010561288328875"><ele>370.0</ele><time>2026-04-04T07:00:01.999Z</time></trkpt><trkpt lat="44.75621667467333" lon="10.010476310745164"><ele>370.0</ele><time>2026-04-04T07:00:02.999Z</time></trkpt><trkpt lat="44.75612070816291" lon="10.010382887657611"><ele>370.0</ele><time>2026-04-04T07:00:03.999Z</time></trkpt><trkpt lat="44.75604324727905" lon="10.010270912694814"><ele>372.0</ele><time>2026-04-04T07:00:04.999Z</time></trkpt><trkpt lat="44.75599910680388" lon="10.010146426494236"><ele>374.0</ele><time>2026-04-04T07:00:05.999Z</time></trkpt><trkpt lat="44.75597077814205" lon="10.010014244065623"><ele>376.0</ele><time>2026-04-04T07:00:06.999Z</time></trkpt><trkpt lat="44.75595383241307" lon="10.009852102882025"><ele>378.0</ele><time>2026-04-04T07:00:07.999Z</time></trkpt><trkpt lat="44.75593261536952" lon="10.00968596820766"><ele>380.0</ele><time>2026-04-04T07:00:08.999Z</time></trkpt><trkpt lat="44.755917246371695" lon="10.009539616015866"><ele>380.0</ele><time>2026-04-04T07:00:09.999Z</time></trkpt><trkpt lat="44.75590373375883" lon="10.009434780476987"><ele>380.0</ele><time>2026-04-04T07:00:10.999Z</time></trkpt><trkpt lat="44.75582794573893" lon="10.009278463482897"><ele>380.0</ele><time>2026-04-04T07:00:12.998Z</time></trkpt><trkpt lat="44.75578139918355" lon="10.009189131065051"><ele>380.0</ele><time>2026-04-04T07:00:13.998Z</time></trkpt><trkpt lat="44.755740658552526" lon="10.00907943620168"><ele>380.0</ele><time>2026-04-04T07:00:14.998Z</time></trkpt><trkpt lat="44.75571115104691" lon="10.008975983640514"><ele>379.0</ele><time>2026-04-04T07:00:15.998Z</time></trkpt><trkpt lat="44.75567821045191" lon="10.00886499518755"><ele>378.0</ele><time>2026-04-04T07:00:17.998Z</time></trkpt><trkpt lat="44.755634415360795" lon="10.008736496970492"><ele>377.0</ele><time>2026-04-04T07:00:19.998Z</time></trkpt><trkpt lat="44.75558042728714" lon="10.00859167613996"><ele>376.0</ele><time>2026-04-04T07:00:21.998Z</time></trkpt><trkpt lat="44.755548769991165" lon="10.008513650571816"><ele>375.0</ele><time>2026-04-04T07:00:22.998Z</time></trkpt><trkpt lat="44.75548263461844" lon="10.008373507872399"><ele>375.75</ele><time>2026-04-04T07:00:24.998Z</time></trkpt><trkpt lat="44.75542894802835" lon="10.008257822659393"><ele>376.5</ele><time>2026-04-04T07:00:26.998Z</time></trkpt><trkpt lat="44.75536286195733" lon="10.008139684021765"><ele>377.25</ele><time>2026-04-04T07:00:28.998Z</time></trkpt><trkpt lat="44.755256801528624" lon="10.008039053401168"><ele>378.0</ele><time>2026-04-04T07:00:30.998Z</time></trkpt><trkpt lat="44.75514646089713" lon="10.007970613674473"><ele>378.0</ele><time>2026-04-04T07:00:32.998Z</time></trkpt><trkpt lat="44.75504051890729" lon="10.007907001890006"><ele>378.0</ele><time>2026-04-04T07:00:34.998Z</time></trkpt><trkpt lat="44.754960884888604" lon="10.007870581115252"><ele>378.0</ele><time>2026-04-04T07:00:36.998Z</time></trkpt><trkpt lat="44.75487506564703" lon="10.007831459683638"><ele>378.0</ele><time>2026-04-04T07:00:39.998Z</time></trkpt><trkpt lat="44.75479845610756" lon="10.007784698834373"><ele>378.0</ele><time>2026-04-04T07:00:42.998Z</time></trkpt><trkpt lat="44.7547163642689" lon="10.007749951819966"><ele>378.0</ele><time>2026-04-04T07:00:44.998Z</time></trkpt><trkpt lat="44.75461613634671" lon="10.0077109110388"><ele>378.0</ele><time>2026-04-04T07:00:47.998Z</time></trkpt><trkpt lat="44.75451463387736" lon="10.007596733171981"><ele>378.0</ele><time>2026-04-04T07:00:49.998Z</time></trkpt><trkpt lat="44.75445264735884" lon="10.007511795435422"><ele>378.0</ele><time>2026-04-04T07:00:50.998Z</time></trkpt><trkpt lat="44.75439458362694" lon="10.007421326411848"><ele>378.0</ele><time>2026-04-04T07:00:51.998Z</time></trkpt><trkpt lat="44.75438085004346" lon="10.007305402209527"><ele>378.0</ele><time>2026-04-04T07:00:53Z</time></trkpt><trkpt lat="44.75433906186253" lon="10.007199418395942"><ele>378.0</ele><time>2026-04-04T07:00:54Z</time></trkpt><trkpt lat="44.75430090603057" lon="10.007094941413023"><ele>378.0</ele><time>2026-04-04T07:00:55Z</time></trkpt><trkpt lat="44.75425982212136" lon="10.007000895257807"><ele>378.0</ele><time>2026-04-04T07:00:56Z</time></trkpt><trkpt lat="44.75420462388828" lon="10.006921315920312"><ele>378.0</ele><time>2026-04-04T07:00:57Z</time></trkpt><trkpt lat="44.75412021474942" lon="10.006887699392893"><ele>378.0</ele><time>2026-04-04T07:00:58Z</time></trkpt><trkpt lat="44.754031635111765" lon="10.006892152197931"><ele>378.0</ele><time>2026-04-04T07:00:59Z</time></trkpt><trkpt lat="44.75394212396828" lon="10.006954500667101"><ele>378.0</ele><time>2026-04-04T07:01:00Z</time></trkpt><trkpt lat="44.753850639719765" lon="10.007008024324387"><ele>378.0</ele><time>2026-04-04T07:01:01Z</time></trkpt><trkpt lat="44.75376156802546" lon="10.007050294286705"><ele>378.0</ele><time>2026-04-04T07:01:02Z</time></trkpt><trkpt lat="44.753677719528184" lon="10.007074786158512"><ele>378.0</ele><time>2026-04-04T07:01:03Z</time></trkpt><trkpt lat="44.75359075704519" lon="10.007082556405983"><ele>380.79999999999995</ele><time>2026-04-04T07:01:04Z</time></trkpt><trkpt lat="44.75349754600847" lon="10.007085558091836"><ele>383.6</ele><time>2026-04-04T07:01:05Z</time></trkpt><trkpt lat="44.75340055653766" lon="10.007085319877751"><ele>386.4</ele><time>2026-04-04T07:01:06Z</time></trkpt><trkpt lat="44.75329955323079" lon="10.007083398042395"><ele>389.20000000000005</ele><time>2026-04-04T07:01:07Z</time></trkpt><trkpt lat="44.753212066963684" lon="10.007077277706765"><ele>392.0</ele><time>2026-04-04T07:01:08Z</time></trkpt><trkpt lat="44.75311681915092" lon="10.007067075633294"><ele>392.0</ele><time>2026-04-04T07:01:09Z</time></trkpt><trkpt lat="44.75301969252024" lon="10.007051425672644"><ele>392.0</ele><time>2026-04-04T07:01:10Z</time></trkpt><trkpt lat="44.752922323988614" lon="10.007028996013293"><ele>392.0</ele><time>2026-04-04T07:01:11Z</time></trkpt><trkpt lat="44.752827093094" lon="10.006994377557678"><ele>392.0</ele><time>2026-04-04T07:01:12Z</time></trkpt><trkpt lat="44.75274551944535" lon="10.006954445312328"><ele>392.0</ele><time>2026-04-04T07:01:13Z</time></trkpt><trkpt lat="44.75265137274602" lon="10.006910245000006"><ele>391.99999999999994</ele><time>2026-04-04T07:01:14Z</time></trkpt><trkpt lat="44.75255939187015" lon="10.006867061483048"><ele>392.0</ele><time>2026-04-04T07:01:15Z</time></trkpt><trkpt lat="44.75248567656147" lon="10.00682728716711"><ele>392.0</ele><time>2026-04-04T07:01:16Z</time></trkpt><trkpt lat="44.75241322732237" lon="10.006786836402956"><ele>392.0</ele><time>2026-04-04T07:01:17Z</time></trkpt><trkpt lat="44.752346886554044" lon="10.00674409564"><ele>391.99999999999994</ele><time>2026-04-04T07:01:18Z</time></trkpt><trkpt lat="44.75226522203499" lon="10.00666760763095"><ele>392.0</ele><time>2026-04-04T07:01:20Z</time></trkpt><trkpt lat="44.75202907625779" lon="10.006635210024342"><ele>392.6</ele><time>2026-04-04T07:01:21Z</time></trkpt><trkpt lat="44.75196139232618" lon="10.006674563924046"><ele>393.20000000000005</ele><time>2026-04-04T07:01:22Z</time></trkpt><trkpt lat="44.75189965562572" lon="10.006708268430312"><ele>393.8</ele><time>2026-04-04T07:01:23Z</time></trkpt><trkpt lat="44.75177030477799" lon="10.006741393659313"><ele>394.4</ele><time>2026-04-04T07:01:25Z</time></trkpt><trkpt lat="44.75163638507562" lon="10.006722942706865"><ele>395.0</ele><time>2026-04-04T07:01:27Z</time></trkpt><trkpt lat="44.75153280766503" lon="10.00669750334002"><ele>399.25</ele><time>2026-04-04T07:01:28Z</time></trkpt><trkpt lat="44.75144243209262" lon="10.006711540828185"><ele>403.5</ele><time>2026-04-04T07:01:28.999Z</time></trkpt><trkpt lat="44.751357707425846" lon="10.00672688384488"><ele>407.75</ele><time>2026-04-04T07:01:29.999Z</time></trkpt><trkpt lat="44.751290964092455" lon="10.006735738789626"><ele>412.0</ele><time>2026-04-04T07:01:30.999Z</time></trkpt><trkpt lat="44.751186878762695" lon="10.007215314699991"><ele>411.99999999999994</ele><time>2026-04-04T07:01:32.999Z</time></trkpt><trkpt lat="44.751118456083205" lon="10.00724072673842"><ele>412.0</ele><time>2026-04-04T07:01:33.999Z</time></trkpt><trkpt lat="44.751043866489546" lon="10.007245381786191"><ele>412.0</ele><time>2026-04-04T07:01:34.999Z</time></trkpt><trkpt lat="44.75097266782878" lon="10.007214779460307"><ele>412.0</ele><time>2026-04-04T07:01:35.999Z</time></trkpt><trkpt lat="44.75090804427374" lon="10.007197369217405"><ele>412.0</ele><time>2026-04-04T07:01:36.999Z</time></trkpt><trkpt lat="44.7508338110612" lon="10.00719826942593"><ele>411.99999999999994</ele><time>2026-04-04T07:01:37.999Z</time></trkpt><trkpt lat="44.75076381648658" lon="10.007228811635416"><ele>412.0</ele><time>2026-04-04T07:01:38.999Z</time></trkpt><trkpt lat="44.75068492572456" lon="10.007264219167633"><ele>413.20000000000005</ele><time>2026-04-04T07:01:39.999Z</time></trkpt><trkpt lat="44.750543727605155" lon="10.007315492583626"><ele>414.4</ele><time>2026-04-04T07:01:41.999Z</time></trkpt><trkpt lat="44.75047347711092" lon="10.007353010136555"><ele>415.6</ele><time>2026-04-04T07:01:42.999Z</time></trkpt><trkpt lat="44.75040774969348" lon="10.00738322909507"><ele>416.79999999999995</ele><time>2026-04-04T07:01:43.999Z</time></trkpt><trkpt lat="44.750303018685216" lon="10.007432531175832"><ele>418.0</ele><time>2026-04-04T07:01:45.999Z</time></trkpt><trkpt lat="44.750165668597475" lon="10.007396473515739"><ele>418.0</ele><time>2026-04-04T07:01:47.999Z</time></trkpt><trkpt lat="44.75008505178853" lon="10.00739161130454"><ele>418.0</ele><time>2026-04-04T07:01:48.999Z</time></trkpt><trkpt lat="44.74999350325146" lon="10.007311727861133"><ele>418.0</ele><time>2026-04-04T07:01:50.999Z</time></trkpt><trkpt lat="44.74996246511999" lon="10.007154972504935"><ele>418.0</ele><time>2026-04-04T07:01:52.999Z</time></trkpt><trkpt lat="44.7499214867631" lon="10.007032474386914"><ele>418.0</ele><time>2026-04-04T07:01:53.999Z</time></trkpt><trkpt lat="44.749883194124216" lon="10.006944587020472"><ele>418.0</ele><time>2026-04-04T07:01:54.999Z</time></trkpt><trkpt lat="44.74976397543742" lon="10.006864072070867"><ele>418.0</ele><time>2026-04-04T07:01:56.999Z</time></trkpt><trkpt lat="44.749684439301696" lon="10.006847781526076"><ele>418.0</ele><time>2026-04-04T07:01:57.999Z</time></trkpt><trkpt lat="44.74961245419223" lon="10.006846778228866"><ele>418.0</ele><time>2026-04-04T07:01:58.999Z</time></trkpt><trkpt lat="44.74955564056846" lon="10.00692505226372"><ele>418.0</ele><time>2026-04-04T07:02:00.999Z</time></trkpt><trkpt lat="44.74959419138413" lon="10.007062171168327"><ele>418.00000000000006</ele><time>2026-04-04T07:02:02.999Z</time></trkpt><trkpt lat="44.74963730165667" lon="10.007155779685768"><ele>418.0</ele><time>2026-04-04T07:02:03.999Z</time></trkpt><trkpt lat="44.749666958627266" lon="10.00725822677639"><ele>418.0</ele><time>2026-04-04T07:02:04.999Z</time></trkpt><trkpt lat="44.749677649454384" lon="10.007368897585867"><ele>418.0</ele><time>2026-04-04T07:02:05.999Z</time></trkpt><trkpt lat="44.74968001119154" lon="10.00747855212325"><ele>418.00000000000006</ele><time>2026-04-04T07:02:06.999Z</time></trkpt><trkpt lat="44.749655821855455" lon="10.007578894331873"><ele>418.0</ele><time>2026-04-04T07:02:07.999Z</time></trkpt><trkpt lat="44.7496621766157" lon="10.007688994586108"><ele>414.33333333333337</ele><time>2026-04-04T07:02:08.999Z</time></trkpt><trkpt lat="44.749683428106664" lon="10.007780459838047"><ele>410.6666666666667</ele><time>2026-04-04T07:02:09.999Z</time></trkpt><trkpt lat="44.74972634002033" lon="10.007871946714703"><ele>407.0</ele><time>2026-04-04T07:02:10.999Z</time></trkpt><trkpt lat="44.749730523823814" lon="10.007963690313524"><ele>403.33333333333337</ele><time>2026-04-04T07:02:11.999Z</time></trkpt><trkpt lat="44.74970575751843" lon="10.008101480430915"><ele>399.6666666666667</ele><time>2026-04-04T07:02:13.999Z</time></trkpt><trkpt lat="44.749661049029754" lon="10.008237689135282"><ele>396.0</ele><time>2026-04-04T07:02:15.999Z</time></trkpt><trkpt lat="44.74960842368069" lon="10.00838660943288"><ele>395.6</ele><time>2026-04-04T07:02:17.999Z</time></trkpt><trkpt lat="44.74955914412371" lon="10.00852146494351"><ele>395.20000000000005</ele><time>2026-04-04T07:02:19.999Z</time></trkpt><trkpt lat="44.749560140602696" lon="10.008663447940762"><ele>394.79999999999995</ele><time>2026-04-04T07:02:21.998Z</time></trkpt><trkpt lat="44.74956281660373" lon="10.008768335594034"><ele>394.4</ele><time>2026-04-04T07:02:22.998Z</time></trkpt><trkpt lat="44.749554313508284" lon="10.008858846688963"><ele>394.0</ele><time>2026-04-04T07:02:23.998Z</time></trkpt><trkpt lat="44.74949783662093" lon="10.008980888207217"><ele>394.00000000000006</ele><time>2026-04-04T07:02:25.998Z</time></trkpt><trkpt lat="44.74943012613737" lon="10.009033811730411"><ele>394.0</ele><time>2026-04-04T07:02:27.998Z</time></trkpt><trkpt lat="44.749345404217244" lon="10.009033131367127"><ele>394.0</ele><time>2026-04-04T07:02:29.998Z</time></trkpt><trkpt lat="44.749286951853854" lon="10.008998772563412"><ele>394.0</ele><time>2026-04-04T07:02:30.998Z</time></trkpt><trkpt lat="44.74920566228522" lon="10.008924404514165"><ele>394.00000000000006</ele><time>2026-04-04T07:02:33.998Z</time></trkpt><trkpt lat="44.749117804509304" lon="10.008951769077537"><ele>394.0</ele><time>2026-04-04T07:02:35.998Z</time></trkpt><trkpt lat="44.74905438644053" lon="10.00903578461424"><ele>401.79999999999995</ele><time>2026-04-04T07:02:37.998Z</time></trkpt><trkpt lat="44.749004899037224" lon="10.00920492386281"><ele>409.59999999999997</ele><time>2026-04-04T07:02:39.998Z</time></trkpt><trkpt lat="44.74897787315732" lon="10.009377616611339"><ele>417.4</ele><time>2026-04-04T07:02:41.998Z</time></trkpt><trkpt lat="44.74896171460226" lon="10.009490787383035"><ele>425.2</ele><time>2026-04-04T07:02:42.998Z</time></trkpt><trkpt lat="44.74893049486411" lon="10.009589702288212"><ele>433.0</ele><time>2026-04-04T07:02:43.998Z</time></trkpt><trkpt lat="44.74889333798938" lon="10.009669486853037"><ele>432.99999999999994</ele><time>2026-04-04T07:02:44.998Z</time></trkpt><trkpt lat="44.74884399250405" lon="10.009732454446487"><ele>433.0</ele><time>2026-04-04T07:02:45.998Z</time></trkpt><trkpt lat="44.74879374416527" lon="10.00979344818936"><ele>433.0</ele><time>2026-04-04T07:02:46.998Z</time></trkpt><trkpt lat="44.74873629378056" lon="10.009855141329908"><ele>433.0</ele><time>2026-04-04T07:02:47.998Z</time></trkpt><trkpt lat="44.74867503877322" lon="10.009928066068243"><ele>433.0</ele><time>2026-04-04T07:02:48.998Z</time></trkpt><trkpt lat="44.748622360265486" lon="10.010007179675917"><ele>432.99999999999994</ele><time>2026-04-04T07:02:49.998Z</time></trkpt><trkpt lat="44.748603315025626" lon="10.010094527194385"><ele>433.0</ele><time>2026-04-04T07:02:50.998Z</time></trkpt><trkpt lat="44.74859060462983" lon="10.010185068605491"><ele>431.83333333333337</ele><time>2026-04-04T07:02:51.998Z</time></trkpt><trkpt lat="44.74859506502651" lon="10.010299729264656"><ele>430.6666666666667</ele><time>2026-04-04T07:02:53.998Z</time></trkpt><trkpt lat="44.748668555658604" lon="10.010347284489988"><ele>429.5</ele><time>2026-04-04T07:02:55.998Z</time></trkpt><trkpt lat="44.7486458549907" lon="10.010451174967379"><ele>428.33333333333337</ele><time>2026-04-04T07:02:59Z</time></trkpt><trkpt lat="44.74866439797252" lon="10.010563244938067"><ele>427.1666666666667</ele><time>2026-04-04T07:03:01Z</time></trkpt><trkpt lat="44.748685435556204" lon="10.010655162437692"><ele>426.0</ele><time>2026-04-04T07:03:02Z</time></trkpt><trkpt lat="44.74867073388528" lon="10.010768184764487"><ele>425.8333333333333</ele><time>2026-04-04T07:03:05Z</time></trkpt><trkpt lat="44.74862589142258" lon="10.010845382060266"><ele>425.66666666666663</ele><time>2026-04-04T07:03:07Z</time></trkpt><trkpt lat="44.74864380735301" lon="10.010949491736165"><ele>425.5</ele><time>2026-04-04T07:03:09Z</time></trkpt><trkpt lat="44.748617297622026" lon="10.011054048081698"><ele>425.3333333333333</ele><time>2026-04-04T07:03:12Z</time></trkpt><trkpt lat="44.74856063861178" lon="10.011125116240525"><ele>425.16666666666663</ele><time>2026-04-04T07:03:13Z</time></trkpt><trkpt lat="44.748529859228505" lon="10.011222823374233"><ele>425.0</ele><time>2026-04-04T07:03:14Z</time></trkpt><trkpt lat="44.7485168544195" lon="10.011373399333356"><ele>429.16666666666663</ele><time>2026-04-04T07:03:16Z</time></trkpt><trkpt lat="44.74840441288875" lon="10.011454860401528"><ele>433.3333333333333</ele><time>2026-04-04T07:03:18Z</time></trkpt><trkpt lat="44.74835248207022" lon="10.011517388923373"><ele>437.5</ele><time>2026-04-04T07:03:19Z</time></trkpt><trkpt lat="44.74831557809545" lon="10.011611978732686"><ele>441.66666666666663</ele><time>2026-04-04T07:03:20Z</time></trkpt><trkpt lat="44.74830397182225" lon="10.011704345605615"><ele>445.8333333333333</ele><time>2026-04-04T07:03:21Z</time></trkpt><trkpt lat="44.74826843639148" lon="10.011783820544892"><ele>450.0</ele><time>2026-04-04T07:03:22Z</time></trkpt><trkpt lat="44.748196516513076" lon="10.011933061592975"><ele>450.0</ele><time>2026-04-04T07:03:24Z</time></trkpt><trkpt lat="44.74809740257605" lon="10.01205006112672"><ele>450.0</ele><time>2026-04-04T07:03:26Z</time></trkpt><trkpt lat="44.74804885410206" lon="10.012123154312476"><ele>450.0</ele><time>2026-04-04T07:03:27Z</time></trkpt><trkpt lat="44.74798634411722" lon="10.012200469863906"><ele>450.0</ele><time>2026-04-04T07:03:29Z</time></trkpt><trkpt lat="44.74793537089969" lon="10.012255664556443"><ele>450.0</ele><time>2026-04-04T07:03:31Z</time></trkpt><trkpt lat="44.74788533966418" lon="10.01231231698809"><ele>450.0</ele><time>2026-04-04T07:03:42.999Z</time></trkpt><trkpt lat="44.74779362029314" lon="10.01237210390125"><ele>450.0</ele><time>2026-04-04T07:03:45.999Z</time></trkpt><trkpt lat="44.74772777559355" lon="10.012405462629935"><ele>450.0</ele><time>2026-04-04T07:03:46.999Z</time></trkpt><trkpt lat="44.74764104047135" lon="10.012439219496944"><ele>450.0</ele><time>2026-04-04T07:03:48.999Z</time></trkpt><trkpt lat="44.7475917720049" lon="10.012519009862338"><ele>450.0</ele><time>2026-04-04T07:03:50.999Z</time></trkpt><trkpt lat="44.747565957711224" lon="10.012636682825887"><ele>450.0</ele><time>2026-04-04T07:03:52.999Z</time></trkpt><trkpt lat="44.7474994277777" lon="10.012648369050059"><ele>450.0</ele><time>2026-04-04T07:03:54.999Z</time></trkpt><trkpt lat="44.747439707026125" lon="10.012619199733347"><ele>450.5</ele><time>2026-04-04T07:03:55.999Z</time></trkpt><trkpt lat="44.74737445986382" lon="10.012565048657711"><ele>451.0</ele><time>2026-04-04T07:03:56.999Z</time></trkpt><trkpt lat="44.74731225401818" lon="10.012544022729754"><ele>451.5</ele><time>2026-04-04T07:03:57.999Z</time></trkpt><trkpt lat="44.74724659729883" lon="10.012545503240284"><ele>452.0</ele><time>2026-04-04T07:03:58.999Z</time></trkpt><trkpt lat="44.7471751641983" lon="10.012526978488495"><ele>452.5</ele><time>2026-04-04T07:03:59.999Z</time></trkpt><trkpt lat="44.74709296019035" lon="10.01257213866235"><ele>453.0</ele><time>2026-04-04T07:04:00.999Z</time></trkpt><trkpt lat="44.74700932044389" lon="10.012619116439758"><ele>453.0</ele><time>2026-04-04T07:04:01.999Z</time></trkpt><trkpt lat="44.74692673518683" lon="10.012643242502934"><ele>453.0</ele><time>2026-04-04T07:04:02.999Z</time></trkpt><trkpt lat="44.7468435565816" lon="10.012662188258288"><ele>453.0</ele><time>2026-04-04T07:04:03.999Z</time></trkpt><trkpt lat="44.746775457700075" lon="10.012671043918683"><ele>453.0</ele><time>2026-04-04T07:04:04.999Z</time></trkpt><trkpt lat="44.74670070426241" lon="10.012669265605847"><ele>453.0</ele><time>2026-04-04T07:04:05.999Z</time></trkpt><trkpt lat="44.74663018217383" lon="10.012667423831036"><ele>453.0</ele><time>2026-04-04T07:04:06.999Z</time></trkpt><trkpt lat="44.74655090721008" lon="10.012550618028461"><ele>454.1666666666667</ele><time>2026-04-04T07:04:08.999Z</time></trkpt><trkpt lat="44.7465873069629" lon="10.012444060467924"><ele>455.33333333333337</ele><time>2026-04-04T07:04:13.999Z</time></trkpt><trkpt lat="44.74670055339786" lon="10.012372022024701"><ele>456.5</ele><time>2026-04-04T07:04:15.999Z</time></trkpt><trkpt lat="44.74675516762213" lon="10.012312122304477"><ele>457.6666666666667</ele><time>2026-04-04T07:04:16.999Z</time></trkpt><trkpt lat="44.74680725026864" lon="10.012233784952793"><ele>458.83333333333337</ele><time>2026-04-04T07:04:17.999Z</time></trkpt><trkpt lat="44.746852678627256" lon="10.012164121703504"><ele>460.0</ele><time>2026-04-04T07:04:18.999Z</time></trkpt><trkpt lat="44.746907841516" lon="10.012091269739638"><ele>463.0</ele><time>2026-04-04T07:04:19.999Z</time></trkpt><trkpt lat="44.74695785836794" lon="10.01201391724822"><ele>466.0</ele><time>2026-04-04T07:04:20.999Z</time></trkpt><trkpt lat="44.74700654262359" lon="10.011925016305831"><ele>469.0</ele><time>2026-04-04T07:04:21.999Z</time></trkpt><trkpt lat="44.74712116301037" lon="10.011835601450569"><ele>472.0</ele><time>2026-04-04T07:04:23.999Z</time></trkpt><trkpt lat="44.74719299159162" lon="10.011776585749276"><ele>475.0</ele><time>2026-04-04T07:04:24.999Z</time></trkpt><trkpt lat="44.747264395398695" lon="10.011709148125927"><ele>476.00000000000006</ele><time>2026-04-04T07:04:25.999Z</time></trkpt><trkpt lat="44.747310355707974" lon="10.011630981689676"><ele>477.0</ele><time>2026-04-04T07:04:26.999Z</time></trkpt><trkpt lat="44.747373297692555" lon="10.011522449583063"><ele>478.0</ele><time>2026-04-04T07:04:27.999Z</time></trkpt><trkpt lat="44.74744014028303" lon="10.011432974380337"><ele>479.0</ele><time>2026-04-04T07:04:28.998Z</time></trkpt><trkpt lat="44.74749555311181" lon="10.01134044476067"><ele>480.00000000000006</ele><time>2026-04-04T07:04:29.998Z</time></trkpt><trkpt lat="44.747548656814864" lon="10.011232912264516"><ele>481.0</ele><time>2026-04-04T07:04:30.998Z</time></trkpt><trkpt lat="44.74757321298789" lon="10.011125153938705"><ele>481.00000000000006</ele><time>2026-04-04T07:04:31.998Z</time></trkpt><trkpt lat="44.74757947422766" lon="10.010999842764733"><ele>481.0</ele><time>2026-04-04T07:04:32.998Z</time></trkpt><trkpt lat="44.74757550438646" lon="10.010872364854755"><ele>481.0</ele><time>2026-04-04T07:04:33.998Z</time></trkpt><trkpt lat="44.74762079314745" lon="10.01078351051997"><ele>481.0</ele><time>2026-04-04T07:04:35.998Z</time></trkpt><trkpt lat="44.74766816568387" lon="10.010667637584959"><ele>481.00000000000006</ele><time>2026-04-04T07:04:37.998Z</time></trkpt><trkpt lat="44.74765903943367" lon="10.010560145505861"><ele>481.0</ele><time>2026-04-04T07:04:38.998Z</time></trkpt><trkpt lat="44.747657262000786" lon="10.01046045953449"><ele>480.6666666666667</ele><time>2026-04-04T07:04:39.998Z</time></trkpt><trkpt lat="44.74768359392407" lon="10.010341904549797"><ele>480.33333333333337</ele><time>2026-04-04T07:13:42Z</time></trkpt><trkpt lat="44.74771387760433" lon="10.010250947751244"><ele>480.0</ele><time>2026-04-04T07:13:43Z</time></trkpt><trkpt lat="44.74773365282174" lon="10.01016602634114"><ele>479.66666666666663</ele><time>2026-04-04T07:13:44Z</time></trkpt><trkpt lat="44.74776368794542" lon="10.010054881739158"><ele>479.3333333333333</ele><time>2026-04-04T07:13:45Z</time></trkpt><trkpt lat="44.74780251600852" lon="10.009929703924346"><ele>479.0</ele><time>2026-04-04T07:13:46Z</time></trkpt><trkpt lat="44.74782981101477" lon="10.009823917389589"><ele>478.66666666666663</ele><time>2026-04-04T07:13:47Z</time></trkpt><trkpt lat="44.74786367440067" lon="10.009730778856119"><ele>478.3333333333333</ele><time>2026-04-04T07:13:48Z</time></trkpt><trkpt lat="44.74790804678257" lon="10.009625437392039"><ele>478.0</ele><time>2026-04-04T07:13:49Z</time></trkpt><trkpt lat="44.74794946463282" lon="10.009531918028822"><ele>477.66666666666663</ele><time>2026-04-04T07:13:50Z</time></trkpt><trkpt lat="44.747967348033534" lon="10.00944492286327"><ele>477.3333333333333</ele><time>2026-04-04T07:13:51Z</time></trkpt><trkpt lat="44.74798940972289" lon="10.009345993698592"><ele>477.0</ele><time>2026-04-04T07:13:52Z</time></trkpt><trkpt lat="44.748024637107825" lon="10.009246112413246"><ele>476.1666666666667</ele><time>2026-04-04T07:13:53Z</time></trkpt><trkpt lat="44.748061669478034" lon="10.009158683696585"><ele>475.33333333333337</ele><time>2026-04-04T07:13:54Z</time></trkpt><trkpt lat="44.74811508194903" lon="10.00907950138669"><ele>474.5</ele><time>2026-04-04T07:13:55Z</time></trkpt><trkpt lat="44.74813666592122" lon="10.008995052534278"><ele>473.6666666666667</ele><time>2026-04-04T07:13:56Z</time></trkpt><trkpt lat="44.74813796172536" lon="10.008905101491498"><ele>472.83333333333337</ele><time>2026-04-04T07:13:57Z</time></trkpt><trkpt lat="44.74814587762264" lon="10.008807995922218"><ele>472.0</ele><time>2026-04-04T07:13:58Z</time></trkpt><trkpt lat="44.748093962030794" lon="10.00864155396227"><ele>472.00000000000006</ele><time>2026-04-04T07:14:00Z</time></trkpt><trkpt lat="44.748049528256985" lon="10.008547790398191"><ele>472.0</ele><time>2026-04-04T07:14:01Z</time></trkpt><trkpt lat="44.74797779621018" lon="10.008424829043507"><ele>472.0</ele><time>2026-04-04T07:14:03Z</time></trkpt><trkpt lat="44.74790426503018" lon="10.008379573812132"><ele>472.0</ele><time>2026-04-04T07:14:06Z</time></trkpt><trkpt lat="44.74782465847394" lon="10.00842931791951"><ele>472.00000000000006</ele><time>2026-04-04T07:14:08.999Z</time></trkpt><trkpt lat="44.747749016561485" lon="10.008482281840339"><ele>472.0</ele><time>2026-04-04T07:14:10.999Z</time></trkpt><trkpt lat="44.74768911218413" lon="10.008516060784979"><ele>470.83333333333337</ele><time>2026-04-04T07:14:12.999Z</time></trkpt><trkpt lat="44.74760737824986" lon="10.008574211889597"><ele>469.6666666666667</ele><time>2026-04-04T07:14:15.999Z</time></trkpt><trkpt lat="44.74753920539039" lon="10.008501814624347"><ele>468.5</ele><time>2026-04-04T07:14:17.999Z</time></trkpt><trkpt lat="44.747488510255494" lon="10.008404572299758"><ele>467.33333333333337</ele><time>2026-04-04T07:14:19.999Z</time></trkpt><trkpt lat="44.747402343769636" lon="10.008390948378546"><ele>466.1666666666667</ele><time>2026-04-04T07:14:21.999Z</time></trkpt><trkpt lat="44.74733033518422" lon="10.008392998237897"><ele>465.0</ele><time>2026-04-04T07:14:22.999Z</time></trkpt><trkpt lat="44.74726459827181" lon="10.008385208651948"><ele>465.0</ele><time>2026-04-04T07:14:23.999Z</time></trkpt><trkpt lat="44.74719616837697" lon="10.008366894652111"><ele>465.0</ele><time>2026-04-04T07:14:24.999Z</time></trkpt><trkpt lat="44.74710780440175" lon="10.00822565969"><ele>465.0</ele><time>2026-04-04T07:14:26.999Z</time></trkpt><trkpt lat="44.74702816389312" lon="10.008128911911614"><ele>465.0</ele><time>2026-04-04T07:14:27.999Z</time></trkpt><trkpt lat="44.746936819078975" lon="10.00805655342004"><ele>465.0</ele><time>2026-04-04T07:14:28.999Z</time></trkpt><trkpt lat="44.7468562634167" lon="10.00798387236429"><ele>463.6666666666667</ele><time>2026-04-04T07:14:29.999Z</time></trkpt><trkpt lat="44.74679379312687" lon="10.007930309384275"><ele>462.33333333333337</ele><time>2026-04-04T07:14:30.999Z</time></trkpt><trkpt lat="44.74671758468045" lon="10.007859755050642"><ele>461.0</ele><time>2026-04-04T07:14:31.999Z</time></trkpt><trkpt lat="44.746639341585166" lon="10.007783627977183"><ele>459.6666666666667</ele><time>2026-04-04T07:14:32.999Z</time></trkpt><trkpt lat="44.74656531779585" lon="10.007722506706909"><ele>458.33333333333337</ele><time>2026-04-04T07:14:33.999Z</time></trkpt><trkpt lat="44.746486611390964" lon="10.007667248774958"><ele>457.0</ele><time>2026-04-04T07:14:34.999Z</time></trkpt><trkpt lat="44.74641167172456" lon="10.007645881814046"><ele>457.0</ele><time>2026-04-04T07:14:35.999Z</time></trkpt><trkpt lat="44.74633403993173" lon="10.007671036279591"><ele>457.00000000000006</ele><time>2026-04-04T07:14:37.999Z</time></trkpt><trkpt lat="44.746282949895196" lon="10.007723259034123"><ele>457.00000000000006</ele><time>2026-04-04T07:14:40.999Z</time></trkpt><trkpt lat="44.74617482465618" lon="10.007786341262666"><ele>457.0</ele><time>2026-04-04T07:14:42.999Z</time></trkpt><trkpt lat="44.746043467302165" lon="10.007783010147802"><ele>457.0</ele><time>2026-04-04T07:14:44.999Z</time></trkpt><trkpt lat="44.74595469016068" lon="10.007785161106794"><ele>458.1666666666667</ele><time>2026-04-04T07:14:45.999Z</time></trkpt><trkpt lat="44.7458639564506" lon="10.007792893051311"><ele>459.33333333333337</ele><time>2026-04-04T07:14:46.999Z</time></trkpt><trkpt lat="44.745779897051335" lon="10.007794368218072"><ele>460.5</ele><time>2026-04-04T07:14:47.999Z</time></trkpt><trkpt lat="44.74571327802756" lon="10.007786716391024"><ele>461.66666666666663</ele><time>2026-04-04T07:14:48.999Z</time></trkpt><trkpt lat="44.74563517460267" lon="10.007774958445921"><ele>462.8333333333333</ele><time>2026-04-04T07:14:49.999Z</time></trkpt><trkpt lat="44.745552496978604" lon="10.007768341103771"><ele>464.0</ele><time>2026-04-04T07:14:50.999Z</time></trkpt><trkpt lat="44.74547834261042" lon="10.007766357383407"><ele>464.0</ele><time>2026-04-04T07:14:51.999Z</time></trkpt><trkpt lat="44.745404515304095" lon="10.007762745614933"><ele>464.0</ele><time>2026-04-04T07:14:52.999Z</time></trkpt><trkpt lat="44.745286705123036" lon="10.007765854466774"><ele>464.0</ele><time>2026-04-04T07:14:54.999Z</time></trkpt><trkpt lat="44.74517066770759" lon="10.007772849424496"><ele>464.0</ele><time>2026-04-04T07:14:56.999Z</time></trkpt><trkpt lat="44.74504427351232" lon="10.007786732025997"><ele>464.0</ele><time>2026-04-04T07:14:58.999Z</time></trkpt><trkpt lat="44.74497462848728" lon="10.007787412987955"><ele>461.8571428571429</ele><time>2026-04-04T07:14:59.999Z</time></trkpt><trkpt lat="44.74490083504527" lon="10.00778454410975"><ele>459.7142857142857</ele><time>2026-04-04T07:15:00.999Z</time></trkpt><trkpt lat="44.74482540091661" lon="10.007780464432683"><ele>457.57142857142856</ele><time>2026-04-04T07:15:01.998Z</time></trkpt><trkpt lat="44.74475377836387" lon="10.007780963615215"><ele>455.42857142857144</ele><time>2026-04-04T07:15:02.998Z</time></trkpt><trkpt lat="44.74467460758103" lon="10.007777286931002"><ele>453.2857142857142</ele><time>2026-04-04T07:15:03.998Z</time></trkpt><trkpt lat="44.74460607811609" lon="10.007775832885745"><ele>451.1428571428571</ele><time>2026-04-04T07:15:04.998Z</time></trkpt><trkpt lat="44.74453933298477" lon="10.007767216188412"><ele>449.0</ele><time>2026-04-04T07:15:05.998Z</time></trkpt><trkpt lat="44.744406451162774" lon="10.007761069556986"><ele>446.49999999999994</ele><time>2026-04-04T07:15:07.998Z</time></trkpt><trkpt lat="44.74430346846833" lon="10.007794255173392"><ele>444.0</ele><time>2026-04-04T07:15:09.998Z</time></trkpt><trkpt lat="44.744278666486395" lon="10.007901711383592"><ele>441.5</ele><time>2026-04-04T07:15:11.998Z</time></trkpt><trkpt lat="44.74429820806036" lon="10.008059807659711"><ele>439.0</ele><time>2026-04-04T07:15:13.998Z</time></trkpt><trkpt lat="44.74431018569605" lon="10.008158757180825"><ele>436.49999999999994</ele><time>2026-04-04T07:15:14.998Z</time></trkpt><trkpt lat="44.74431670330241" lon="10.008248734499384"><ele>434.0</ele><time>2026-04-04T07:15:15.998Z</time></trkpt><trkpt lat="44.74435334981323" lon="10.008409997698154"><ele>432.79999999999995</ele><time>2026-04-04T07:15:17.998Z</time></trkpt><trkpt lat="44.744421657478945" lon="10.008591676295111"><ele>431.59999999999997</ele><time>2026-04-04T07:15:19.998Z</time></trkpt><trkpt lat="44.744446193547475" lon="10.008687102937467"><ele>430.4</ele><time>2026-04-04T07:15:20.998Z</time></trkpt><trkpt lat="44.74443482315472" lon="10.008787871303511"><ele>429.2</ele><time>2026-04-04T07:15:21.998Z</time></trkpt><trkpt lat="44.744384593898715" lon="10.008895017472986"><ele>428.0</ele><time>2026-04-04T07:15:22.998Z</time></trkpt><trkpt lat="44.74431511418064" lon="10.00898880692309"><ele>428.0</ele><time>2026-04-04T07:15:23.998Z</time></trkpt><trkpt lat="44.74423297158682" lon="10.009104529051811"><ele>427.99999999999994</ele><time>2026-04-04T07:15:24.998Z</time></trkpt><trkpt lat="44.744140259673316" lon="10.009237665282916"><ele>427.99999999999994</ele><time>2026-04-04T07:15:25.998Z</time></trkpt><trkpt lat="44.74407866436333" lon="10.009334852303382"><ele>428.0</ele><time>2026-04-04T07:15:26.998Z</time></trkpt><trkpt lat="44.744018383962825" lon="10.009456627472684"><ele>428.0</ele><time>2026-04-04T07:15:28.998Z</time></trkpt><trkpt lat="44.74401774577723" lon="10.009629896097406"><ele>425.66666666666663</ele><time>2026-04-04T07:15:30.998Z</time></trkpt><trkpt lat="44.74402007983813" lon="10.00975598303088"><ele>423.3333333333333</ele><time>2026-04-04T07:15:31.998Z</time></trkpt><trkpt lat="44.74401529992528" lon="10.009872049062091"><ele>421.0</ele><time>2026-04-04T07:15:32.998Z</time></trkpt><trkpt lat="44.74401951116626" lon="10.009983626235243"><ele>418.66666666666663</ele><time>2026-04-04T07:15:33.998Z</time></trkpt><trkpt lat="44.74400537608379" lon="10.01009238286571"><ele>416.3333333333333</ele><time>2026-04-04T07:15:35Z</time></trkpt><trkpt lat="44.74397138448998" lon="10.01019646407755"><ele>414.0</ele><time>2026-04-04T07:15:36Z</time></trkpt><trkpt lat="44.74392099161868" lon="10.01032670177803"><ele>411.0</ele><time>2026-04-04T07:15:37Z</time></trkpt><trkpt lat="44.74387746355577" lon="10.010453229717074"><ele>408.0</ele><time>2026-04-04T07:15:38Z</time></trkpt><trkpt lat="44.743835745894046" lon="10.010577571366387"><ele>405.0</ele><time>2026-04-04T07:15:39Z</time></trkpt><trkpt lat="44.74379193337011" lon="10.010697454763037"><ele>402.0</ele><time>2026-04-04T07:15:40Z</time></trkpt><trkpt lat="44.743744341729126" lon="10.010847025093936"><ele>399.0</ele><time>2026-04-04T07:15:41Z</time></trkpt><trkpt lat="44.74370342174488" lon="10.010970330284252"><ele>397.0</ele><time>2026-04-04T07:15:42Z</time></trkpt><trkpt lat="44.74366049488681" lon="10.011096789714678"><ele>395.0</ele><time>2026-04-04T07:15:43Z</time></trkpt><trkpt lat="44.7436161555103" lon="10.011224435271656"><ele>393.0</ele><time>2026-04-04T07:15:44Z</time></trkpt><trkpt lat="44.74357811360931" lon="10.01133235649894"><ele>391.0</ele><time>2026-04-04T07:15:45Z</time></trkpt><trkpt lat="44.743539479081406" lon="10.011440073971489"><ele>389.0</ele><time>2026-04-04T07:15:46Z</time></trkpt><trkpt lat="44.74346905281858" lon="10.011536406603994"><ele>388.2</ele><time>2026-04-04T07:15:48Z</time></trkpt><trkpt lat="44.74340170908924" lon="10.011502858587711"><ele>387.4</ele><time>2026-04-04T07:15:50Z</time></trkpt><trkpt lat="44.74331239368499" lon="10.0113364246786"><ele>386.6</ele><time>2026-04-04T07:15:52Z</time></trkpt><trkpt lat="44.743241799084004" lon="10.011223262262924"><ele>385.8</ele><time>2026-04-04T07:15:53Z</time></trkpt><trkpt lat="44.74317654703908" lon="10.011155629097209"><ele>385.0</ele><time>2026-04-04T07:15:54Z</time></trkpt><trkpt lat="44.74309751335004" lon="10.011111961783357"><ele>385.00000000000006</ele><time>2026-04-04T07:15:55Z</time></trkpt><trkpt lat="44.743026757703966" lon="10.011113299547592"><ele>385.0</ele><time>2026-04-04T07:15:56Z</time></trkpt><trkpt lat="44.74292903297036" lon="10.011136675265123"><ele>385.0</ele><time>2026-04-04T07:15:57Z</time></trkpt><trkpt lat="44.7428444529224" lon="10.011186188707516"><ele>385.0</ele><time>2026-04-04T07:15:58Z</time></trkpt><trkpt lat="44.742777605458556" lon="10.011248220587792"><ele>385.00000000000006</ele><time>2026-04-04T07:15:59Z</time></trkpt><trkpt lat="44.74273650856488" lon="10.011325611753026"><ele>385.0</ele><time>2026-04-04T07:16:00Z</time></trkpt><trkpt lat="44.74265724435762" lon="10.011402560220487"><ele>385.2</ele><time>2026-04-04T07:16:01Z</time></trkpt><trkpt lat="44.7425551143389" lon="10.011449861449462"><ele>385.4</ele><time>2026-04-04T07:16:02Z</time></trkpt><trkpt lat="44.74245196237333" lon="10.011513300326067"><ele>385.6</ele><time>2026-04-04T07:16:03Z</time></trkpt><trkpt lat="44.74238498306541" lon="10.011600729917058"><ele>385.8</ele><time>2026-04-04T07:16:04Z</time></trkpt><trkpt lat="44.742342926843676" lon="10.011697018800273"><ele>386.0</ele><time>2026-04-04T07:16:05Z</time></trkpt><trkpt lat="44.74229115239006" lon="10.01182217768439"><ele>383.8333333333333</ele><time>2026-04-04T07:16:06Z</time></trkpt><trkpt lat="44.74223619686243" lon="10.011940154330908"><ele>381.66666666666663</ele><time>2026-04-04T07:16:07Z</time></trkpt><trkpt lat="44.74218638810073" lon="10.01204986985158"><ele>379.5</ele><time>2026-04-04T07:16:08Z</time></trkpt><trkpt lat="44.74214530989875" lon="10.012145499458093"><ele>377.3333333333333</ele><time>2026-04-04T07:16:09Z</time></trkpt><trkpt lat="44.742099147957944" lon="10.01224498348874"><ele>375.16666666666663</ele><time>2026-04-04T07:16:10Z</time></trkpt><trkpt lat="44.74205632587546" lon="10.01235011893963"><ele>373.0</ele><time>2026-04-04T07:16:11Z</time></trkpt><trkpt lat="44.74200728957516" lon="10.01247317419938"><ele>371.2</ele><time>2026-04-04T07:16:12Z</time></trkpt><trkpt lat="44.74195182438093" lon="10.012596270327997"><ele>369.4</ele><time>2026-04-04T07:16:13Z</time></trkpt><trkpt lat="44.74189814258982" lon="10.01269866353061"><ele>367.59999999999997</ele><time>2026-04-04T07:16:14Z</time></trkpt><trkpt lat="44.74183438213812" lon="10.012798502392478"><ele>365.79999999999995</ele><time>2026-04-04T07:16:15Z</time></trkpt><trkpt lat="44.74177027171309" lon="10.012905875263572"><ele>364.0</ele><time>2026-04-04T07:16:15.999Z</time></trkpt><trkpt lat="44.741719699062614" lon="10.012997864711917"><ele>363.16666666666663</ele><time>2026-04-04T07:16:16.999Z</time></trkpt><trkpt lat="44.741662660355246" lon="10.01308268373255"><ele>362.3333333333333</ele><time>2026-04-04T07:16:17.999Z</time></trkpt><trkpt lat="44.7416083710572" lon="10.013172545023785"><ele>361.5</ele><time>2026-04-04T07:16:18.999Z</time></trkpt><trkpt lat="44.74155904373967" lon="10.01328351200692"><ele>360.6666666666667</ele><time>2026-04-04T07:16:19.999Z</time></trkpt><trkpt lat="44.74151622425359" lon="10.013376611422132"><ele>359.83333333333337</ele><time>2026-04-04T07:16:20.999Z</time></trkpt><trkpt lat="44.741473414730024" lon="10.013460451267642"><ele>359.0</ele><time>2026-04-04T07:16:21.999Z</time></trkpt><trkpt lat="44.741431173417254" lon="10.013548772431605"><ele>357.83333333333337</ele><time>2026-04-04T07:16:22.999Z</time></trkpt><trkpt lat="44.741377697474896" lon="10.013637864816195"><ele>356.6666666666667</ele><time>2026-04-04T07:16:23.999Z</time></trkpt><trkpt lat="44.74132115292537" lon="10.01371271640997"><ele>355.5</ele><time>2026-04-04T07:16:24.999Z</time></trkpt><trkpt lat="44.741257310993774" lon="10.013794429208739"><ele>354.3333333333333</ele><time>2026-04-04T07:16:25.999Z</time></trkpt><trkpt lat="44.7412087896151" lon="10.013872690947629"><ele>353.16666666666663</ele><time>2026-04-04T07:16:26.999Z</time></trkpt><trkpt lat="44.74119883870529" lon="10.013971508214828"><ele>352.0</ele><time>2026-04-04T07:16:27.999Z</time></trkpt><trkpt lat="44.74124185046698" lon="10.014132091707733"><ele>350.0</ele><time>2026-04-04T07:16:29.999Z</time></trkpt><trkpt lat="44.74129376167023" lon="10.014234032182882"><ele>348.0</ele><time>2026-04-04T07:16:30.999Z</time></trkpt><trkpt lat="44.74134360664679" lon="10.01434350593772"><ele>346.0</ele><time>2026-04-04T07:16:31.999Z</time></trkpt><trkpt lat="44.74139732042757" lon="10.014463807252726"><ele>344.0</ele><time>2026-04-04T07:16:32.999Z</time></trkpt><trkpt lat="44.74146193277748" lon="10.014563982859618"><ele>342.0</ele><time>2026-04-04T07:16:33.999Z</time></trkpt><trkpt lat="44.74152041600024" lon="10.0146479285612"><ele>342.0</ele><time>2026-04-04T07:16:34.999Z</time></trkpt><trkpt lat="44.74158209835802" lon="10.014724699882496"><ele>342.0</ele><time>2026-04-04T07:16:35.999Z</time></trkpt><trkpt lat="44.741651088277976" lon="10.014796767409887"><ele>342.0</ele><time>2026-04-04T07:16:36.999Z</time></trkpt><trkpt lat="44.74172066841128" lon="10.014865581965477"><ele>342.0</ele><time>2026-04-04T07:16:37.999Z</time></trkpt><trkpt lat="44.74178716941303" lon="10.014909558612796"><ele>342.0</ele><time>2026-04-04T07:16:38.999Z</time></trkpt><trkpt lat="44.74184849889236" lon="10.014947760002517"><ele>342.0</ele><time>2026-04-04T07:16:39.999Z</time></trkpt><trkpt lat="44.741883590246736" lon="10.01505545488888"><ele>339.8</ele><time>2026-04-04T07:16:41.999Z</time></trkpt><trkpt lat="44.74182867486234" lon="10.015254131338743"><ele>337.6</ele><time>2026-04-04T07:16:43.999Z</time></trkpt><trkpt lat="44.74179730377662" lon="10.015397207424506"><ele>335.40000000000003</ele><time>2026-04-04T07:16:44.999Z</time></trkpt><trkpt lat="44.74176802154512" lon="10.015523807025652"><ele>333.20000000000005</ele><time>2026-04-04T07:16:45.999Z</time></trkpt><trkpt lat="44.74174748816321" lon="10.01563981562744"><ele>331.0</ele><time>2026-04-04T07:16:46.999Z</time></trkpt><trkpt lat="44.741722534722776" lon="10.01577242000022"><ele>328.8</ele><time>2026-04-04T07:16:47.999Z</time></trkpt><trkpt lat="44.74169103320666" lon="10.01589873150846"><ele>326.6</ele><time>2026-04-04T07:16:48.999Z</time></trkpt><trkpt lat="44.741637991219456" lon="10.016050926460679"><ele>324.4</ele><time>2026-04-04T07:16:49.999Z</time></trkpt><trkpt lat="44.74158830749642" lon="10.016197592241841"><ele>322.2</ele><time>2026-04-04T07:16:50.999Z</time></trkpt><trkpt lat="44.74155099072522" lon="10.016348233045985"><ele>320.0</ele><time>2026-04-04T07:16:51.999Z</time></trkpt><trkpt lat="44.741499460505466" lon="10.016498626609721"><ele>320.0</ele><time>2026-04-04T07:16:52.999Z</time></trkpt><trkpt lat="44.74146857156182" lon="10.016646618576528"><ele>320.0</ele><time>2026-04-04T07:16:53.999Z</time></trkpt><trkpt lat="44.74143732532685" lon="10.01679965309665"><ele>320.0</ele><time>2026-04-04T07:16:54.999Z</time></trkpt><trkpt lat="44.74141553373409" lon="10.016919763599907"><ele>320.0</ele><time>2026-04-04T07:16:55.999Z</time></trkpt><trkpt lat="44.741413521634094" lon="10.017069023029395"><ele>320.0</ele><time>2026-04-04T07:16:57.999Z</time></trkpt><trkpt lat="44.74145001825478" lon="10.017175901609795"><ele>319.4</ele><time>2026-04-04T07:16:59.999Z</time></trkpt><trkpt lat="44.74149698087398" lon="10.017242372309596"><ele>318.8</ele><time>2026-04-04T07:17:05.999Z</time></trkpt><trkpt lat="44.7414952676886" lon="10.017351426800351"><ele>318.2</ele><time>2026-04-04T07:17:49Z</time></trkpt><trkpt lat="44.741415621666604" lon="10.017474907281995"><ele>317.6</ele><time>2026-04-04T07:17:51Z</time></trkpt><trkpt lat="44.74134610538357" lon="10.017552096650686"><ele>317.0</ele><time>2026-04-04T07:17:52Z</time></trkpt><trkpt lat="44.74125374222597" lon="10.017633677048643"><ele>319.0</ele><time>2026-04-04T07:17:53Z</time></trkpt><trkpt lat="44.74120166880877" lon="10.017753419980336"><ele>321.0</ele><time>2026-04-04T07:17:54Z</time></trkpt><trkpt lat="44.74113723701662" lon="10.017878349854795"><ele>323.0</ele><time>2026-04-04T07:17:55Z</time></trkpt><trkpt lat="44.74109177416674" lon="10.017993993752757"><ele>325.0</ele><time>2026-04-04T07:17:56Z</time></trkpt><trkpt lat="44.74105093928232" lon="10.018120406896838"><ele>327.0</ele><time>2026-04-04T07:17:57Z</time></trkpt><trkpt lat="44.74101280554444" lon="10.018241479452785"><ele>323.0</ele><time>2026-04-04T07:17:58Z</time></trkpt><trkpt lat="44.740936845463224" lon="10.018336510527035"><ele>319.0</ele><time>2026-04-04T07:17:59Z</time></trkpt><trkpt lat="44.740873232272875" lon="10.018435195358077"><ele>315.0</ele><time>2026-04-04T07:18:00Z</time></trkpt><trkpt lat="44.74080504330159" lon="10.018540622281835"><ele>311.0</ele><time>2026-04-04T07:18:01Z</time></trkpt><trkpt lat="44.740739561378355" lon="10.018641863824675"><ele>307.0</ele><time>2026-04-04T07:18:02Z</time></trkpt><trkpt lat="44.74068235610606" lon="10.018752299301244"><ele>307.0</ele><time>2026-04-04T07:18:03Z</time></trkpt><trkpt lat="44.74062175097623" lon="10.018842838270356"><ele>307.0</ele><time>2026-04-04T07:18:04Z</time></trkpt><trkpt lat="44.74055565567095" lon="10.018952358702439"><ele>307.0</ele><time>2026-04-04T07:18:05Z</time></trkpt><trkpt lat="44.74048914774254" lon="10.019068577589476"><ele>307.0</ele><time>2026-04-04T07:18:06Z</time></trkpt><trkpt lat="44.7404339069996" lon="10.019182252730344"><ele>307.0</ele><time>2026-04-04T07:18:07Z</time></trkpt><trkpt lat="44.74038457817889" lon="10.019301841033837"><ele>308.8333333333333</ele><time>2026-04-04T07:18:08Z</time></trkpt><trkpt lat="44.740351296718615" lon="10.019412809344505"><ele>310.66666666666663</ele><time>2026-04-04T07:18:09Z</time></trkpt><trkpt lat="44.740305775909405" lon="10.019505569994195"><ele>312.5</ele><time>2026-04-04T07:18:10Z</time></trkpt><trkpt lat="44.740265108863824" lon="10.019618504845212"><ele>314.3333333333333</ele><time>2026-04-04T07:18:11Z</time></trkpt><trkpt lat="44.74022436952284" lon="10.01972749417025"><ele>316.1666666666667</ele><time>2026-04-04T07:18:12Z</time></trkpt><trkpt lat="44.74018253432762" lon="10.019839206492739"><ele>318.0</ele><time>2026-04-04T07:18:13Z</time></trkpt><trkpt lat="44.74014364677404" lon="10.019943047737621"><ele>314.0</ele><time>2026-04-04T07:18:14Z</time></trkpt><trkpt lat="44.740109844811585" lon="10.020031611606896"><ele>310.0</ele><time>2026-04-04T07:18:15Z</time></trkpt><trkpt lat="44.74008660156486" lon="10.020133543860055"><ele>306.0</ele><time>2026-04-04T07:18:16Z</time></trkpt><trkpt lat="44.740049156314676" lon="10.02021922334606"><ele>302.0</ele><time>2026-04-04T07:18:17Z</time></trkpt><trkpt lat="44.740004974295665" lon="10.02031667447985"><ele>298.0</ele><time>2026-04-04T07:18:18Z</time></trkpt><trkpt lat="44.73996134313935" lon="10.020414294350275"><ele>294.0</ele><time>2026-04-04T07:18:19Z</time></trkpt><trkpt lat="44.739889569830794" lon="10.020507168737073"><ele>294.0</ele><time>2026-04-04T07:18:21Z</time></trkpt><trkpt lat="44.73990856427818" lon="10.020726460885413"><ele>294.0</ele><time>2026-04-04T07:18:23Z</time></trkpt><trkpt lat="44.73992124926274" lon="10.020872370009117"><ele>294.0</ele><time>2026-04-04T07:18:23.999Z</time></trkpt><trkpt lat="44.739947744997444" lon="10.021022132958274"><ele>294.0</ele><time>2026-04-04T07:18:24.999Z</time></trkpt><trkpt lat="44.739979138911956" lon="10.02115092741649"><ele>292.8</ele><time>2026-04-04T07:18:25.999Z</time></trkpt><trkpt lat="44.74001869736623" lon="10.021255842986305"><ele>291.59999999999997</ele><time>2026-04-04T07:18:26.999Z</time></trkpt><trkpt lat="44.74006785946835" lon="10.021344067389762"><ele>290.4</ele><time>2026-04-04T07:18:27.999Z</time></trkpt><trkpt lat="44.74013730987845" lon="10.021413621607975"><ele>289.2</ele><time>2026-04-04T07:18:28.999Z</time></trkpt><trkpt lat="44.740226776168974" lon="10.021469493310233"><ele>288.0</ele><time>2026-04-04T07:18:29.999Z</time></trkpt><trkpt lat="44.740333260847585" lon="10.02151837435401"><ele>286.5</ele><time>2026-04-04T07:18:30.999Z</time></trkpt><trkpt lat="44.74044756736066" lon="10.021561107255557"><ele>285.0</ele><time>2026-04-04T07:18:31.999Z</time></trkpt><trkpt lat="44.740578626020024" lon="10.021601103624546"><ele>283.5</ele><time>2026-04-04T07:18:32.999Z</time></trkpt><trkpt lat="44.740688526214676" lon="10.02167322525411"><ele>282.0</ele><time>2026-04-04T07:18:33.999Z</time></trkpt><trkpt lat="44.7407780977242" lon="10.02174508772438"><ele>282.0</ele><time>2026-04-04T07:18:34.999Z</time></trkpt><trkpt lat="44.7408763129711" lon="10.021805935041876"><ele>282.0</ele><time>2026-04-04T07:18:35.999Z</time></trkpt><trkpt lat="44.74098930422299" lon="10.021868141394709"><ele>282.0</ele><time>2026-04-04T07:18:36.999Z</time></trkpt><trkpt lat="44.74107816847026" lon="10.0219218296772"><ele>282.0</ele><time>2026-04-04T07:18:37.999Z</time></trkpt><trkpt lat="44.74113820153501" lon="10.02196672353127"><ele>282.0</ele><time>2026-04-04T07:18:38.999Z</time></trkpt><trkpt lat="44.7412184094034" lon="10.022013061401724"><ele>282.0</ele><time>2026-04-04T07:18:40.999Z</time></trkpt><trkpt lat="44.741130076600825" lon="10.022001742411968"><ele>282.0</ele><time>2026-04-04T07:18:50.999Z</time></trkpt><trkpt lat="44.740976644345785" lon="10.02208385733428"><ele>282.0</ele><time>2026-04-04T07:18:51.999Z</time></trkpt><trkpt lat="44.740894521824025" lon="10.022062711037428"><ele>282.0</ele><time>2026-04-04T07:18:52.999Z</time></trkpt><trkpt lat="44.74081768897427" lon="10.02205546752323"><ele>282.0</ele><time>2026-04-04T07:18:53.999Z</time></trkpt><trkpt lat="44.74073627325926" lon="10.022026207398664"><ele>282.0</ele><time>2026-04-04T07:18:54.999Z</time></trkpt><trkpt lat="44.74065817239161" lon="10.022003287918071"><ele>282.0</ele><time>2026-04-04T07:18:55.999Z</time></trkpt><trkpt lat="44.740573697448035" lon="10.021983132515551"><ele>282.0</ele><time>2026-04-04T07:18:56.999Z</time></trkpt><trkpt lat="44.74049466000549" lon="10.021986988118437"><ele>282.0</ele><time>2026-04-04T07:18:57.999Z</time></trkpt><trkpt lat="44.74042580399947" lon="10.022027508671671"><ele>282.0</ele><time>2026-04-04T07:18:58.999Z</time></trkpt><trkpt lat="44.74035719344578" lon="10.022081567466445"><ele>282.0</ele><time>2026-04-04T07:18:59.999Z</time></trkpt><trkpt lat="44.74029999667023" lon="10.022131069803343"><ele>282.0</ele><time>2026-04-04T07:19:00.999Z</time></trkpt><trkpt lat="44.740354028520606" lon="10.022326727731393"><ele>282.0</ele><time>2026-04-04T07:19:03.999Z</time></trkpt><trkpt lat="44.74043253710631" lon="10.022351525060852"><ele>282.0</ele><time>2026-04-04T07:19:04.999Z</time></trkpt><trkpt lat="44.74051413326941" lon="10.022359348881702"><ele>282.0</ele><time>2026-04-04T07:19:05.999Z</time></trkpt><trkpt lat="44.740581970864056" lon="10.022398002338099"><ele>282.0</ele><time>2026-04-04T07:19:06.999Z</time></trkpt><trkpt lat="44.74062800261027" lon="10.0224631118367"><ele>277.8333333333333</ele><time>2026-04-04T07:19:07.999Z</time></trkpt><trkpt lat="44.74066363067363" lon="10.02254093369247"><ele>273.6666666666667</ele><time>2026-04-04T07:19:08.999Z</time></trkpt><trkpt lat="44.74069001799205" lon="10.022704704882678"><ele>269.5</ele><time>2026-04-04T07:19:10.999Z</time></trkpt><trkpt lat="44.74068190292214" lon="10.02280214698729"><ele>265.33333333333337</ele><time>2026-04-04T07:19:11.999Z</time></trkpt><trkpt lat="44.740737037225195" lon="10.022900679704193"><ele>261.1666666666667</ele><time>2026-04-04T07:19:13.999Z</time></trkpt><trkpt lat="44.74078971625365" lon="10.022952944346482"><ele>257.0</ele><time>2026-04-04T07:19:14.999Z</time></trkpt><trkpt lat="44.740865045209425" lon="10.023023901088528"><ele>257.0</ele><time>2026-04-04T07:19:15.998Z</time></trkpt><trkpt lat="44.74092199231412" lon="10.02309459524722"><ele>257.0</ele><time>2026-04-04T07:19:16.998Z</time></trkpt><trkpt lat="44.74096326859357" lon="10.023251881207802"><ele>257.0</ele><time>2026-04-04T07:19:18.998Z</time></trkpt><trkpt lat="44.74096545834257" lon="10.02336134664634"><ele>257.0</ele><time>2026-04-04T07:19:19.998Z</time></trkpt><trkpt lat="44.74097467998826" lon="10.023465045533232"><ele>257.0</ele><time>2026-04-04T07:19:20.998Z</time></trkpt><trkpt lat="44.74099089761526" lon="10.023581312652706"><ele>257.0</ele><time>2026-04-04T07:19:21.998Z</time></trkpt><trkpt lat="44.740991827636535" lon="10.023694065932261"><ele>257.33333333333337</ele><time>2026-04-04T07:19:22.998Z</time></trkpt><trkpt lat="44.74098131254406" lon="10.023818184227496"><ele>257.6666666666667</ele><time>2026-04-04T07:19:23.998Z</time></trkpt><trkpt lat="44.74095370108279" lon="10.023929535526403"><ele>258.0</ele><time>2026-04-04T07:19:24.998Z</time></trkpt><trkpt lat="44.74092706958679" lon="10.0240244173894"><ele>258.3333333333333</ele><time>2026-04-04T07:19:25.998Z</time></trkpt><trkpt lat="44.74089806067228" lon="10.024123414659067"><ele>258.66666666666663</ele><time>2026-04-04T07:19:26.998Z</time></trkpt><trkpt lat="44.740862315901595" lon="10.02421113810439"><ele>259.0</ele><time>2026-04-04T07:19:27.998Z</time></trkpt><trkpt lat="44.7408032814913" lon="10.024287155198502"><ele>261.16666666666663</ele><time>2026-04-04T07:19:28.998Z</time></trkpt><trkpt lat="44.74074764221229" lon="10.024393498155424"><ele>263.3333333333333</ele><time>2026-04-04T07:19:30.998Z</time></trkpt><trkpt lat="44.74077894884677" lon="10.024498215507617"><ele>265.5</ele><time>2026-04-04T07:19:32.998Z</time></trkpt><trkpt lat="44.740839063105156" lon="10.024530610149762"><ele>267.6666666666667</ele><time>2026-04-04T07:19:33.998Z</time></trkpt><trkpt lat="44.74088067818888" lon="10.024662648787224"><ele>269.83333333333337</ele><time>2026-04-04T07:19:35.998Z</time></trkpt><trkpt lat="44.74085647552177" lon="10.024760389492217"><ele>272.0</ele><time>2026-04-04T07:19:36.998Z</time></trkpt><trkpt lat="44.74084714833845" lon="10.024869744048338"><ele>274.6666666666667</ele><time>2026-04-04T07:19:37.998Z</time></trkpt><trkpt lat="44.74082969555982" lon="10.024990987482374"><ele>277.33333333333337</ele><time>2026-04-04T07:19:38.998Z</time></trkpt><trkpt lat="44.740799370542796" lon="10.025101695788251"><ele>280.0</ele><time>2026-04-04T07:19:39.998Z</time></trkpt><trkpt lat="44.74075556935334" lon="10.025194550104382"><ele>282.6666666666667</ele><time>2026-04-04T07:19:40.998Z</time></trkpt><trkpt lat="44.74070315151283" lon="10.025287828599252"><ele>285.3333333333333</ele><time>2026-04-04T07:19:41.998Z</time></trkpt><trkpt lat="44.740642885547565" lon="10.025371052476011"><ele>288.0</ele><time>2026-04-04T07:19:43.998Z</time></trkpt><trkpt lat="44.74059292497577" lon="10.025481875223804"><ele>288.0</ele><time>2026-04-04T07:19:45.998Z</time></trkpt><trkpt lat="44.740552041233585" lon="10.025560424179492"><ele>288.0</ele><time>2026-04-04T07:19:47Z</time></trkpt><trkpt lat="44.74051416217814" lon="10.025635803060496"><ele>288.0</ele><time>2026-04-04T07:19:48Z</time></trkpt><trkpt lat="44.74046427953719" lon="10.025743162464469"><ele>288.0</ele><time>2026-04-04T07:19:50Z</time></trkpt><trkpt lat="44.740526197825346" lon="10.02587564982283"><ele>288.0</ele><time>2026-04-04T07:19:52Z</time></trkpt><trkpt lat="44.740570119856216" lon="10.025960812864346"><ele>288.0</ele><time>2026-04-04T07:19:53Z</time></trkpt><trkpt lat="44.740630255322614" lon="10.02602785132142"><ele>292.0</ele><time>2026-04-04T07:19:54Z</time></trkpt><trkpt lat="44.7406983144091" lon="10.026073137445946"><ele>296.0</ele><time>2026-04-04T07:19:55Z</time></trkpt><trkpt lat="44.740780119202924" lon="10.026117149355832"><ele>300.0</ele><time>2026-04-04T07:19:57Z</time></trkpt><trkpt lat="44.740847910820335" lon="10.026090634706684"><ele>304.0</ele><time>2026-04-04T07:19:59Z</time></trkpt><trkpt lat="44.74092618287914" lon="10.026176285312147"><ele>308.0</ele><time>2026-04-04T07:20:01Z</time></trkpt><trkpt lat="44.741006100143856" lon="10.026297667947965"><ele>308.6666666666667</ele><time>2026-04-04T07:20:03Z</time></trkpt><trkpt lat="44.74107629327536" lon="10.026431837940272"><ele>309.33333333333337</ele><time>2026-04-04T07:20:05Z</time></trkpt><trkpt lat="44.74112022770003" lon="10.026502952855967"><ele>310.0</ele><time>2026-04-04T07:20:06Z</time></trkpt><trkpt lat="44.74114950622338" lon="10.02661331277747"><ele>310.6666666666667</ele><time>2026-04-04T07:20:09Z</time></trkpt><trkpt lat="44.741126511427346" lon="10.02674181605222"><ele>311.3333333333333</ele><time>2026-04-04T07:20:11Z</time></trkpt><trkpt lat="44.74110604451636" lon="10.026838396985562"><ele>312.0</ele><time>2026-04-04T07:20:12Z</time></trkpt><trkpt lat="44.74107223548809" lon="10.026946856367182"><ele>314.5</ele><time>2026-04-04T07:20:13Z</time></trkpt><trkpt lat="44.741025851226404" lon="10.02705211719272"><ele>317.0</ele><time>2026-04-04T07:20:14Z</time></trkpt><trkpt lat="44.74097035516417" lon="10.027161218125668"><ele>319.5</ele><time>2026-04-04T07:20:15Z</time></trkpt><trkpt lat="44.74092642241905" lon="10.027263943562792"><ele>322.0</ele><time>2026-04-04T07:20:16Z</time></trkpt><trkpt lat="44.74090631670573" lon="10.02736536857261"><ele>324.5</ele><time>2026-04-04T07:20:17Z</time></trkpt><trkpt lat="44.74089900837478" lon="10.027494592976673"><ele>327.0</ele><time>2026-04-04T07:20:18Z</time></trkpt><trkpt lat="44.74088078267006" lon="10.027640322356586"><ele>328.3333333333333</ele><time>2026-04-04T07:20:19Z</time></trkpt><trkpt lat="44.74085564275032" lon="10.027791909959127"><ele>329.6666666666667</ele><time>2026-04-04T07:20:20Z</time></trkpt><trkpt lat="44.740832788808504" lon="10.027903760374635"><ele>331.0</ele><time>2026-04-04T07:20:21Z</time></trkpt><trkpt lat="44.7408123176781" lon="10.027997735726371"><ele>332.33333333333337</ele><time>2026-04-04T07:20:22Z</time></trkpt><trkpt lat="44.74078580818986" lon="10.028108299915237"><ele>333.6666666666667</ele><time>2026-04-04T07:20:23Z</time></trkpt><trkpt lat="44.7407566939449" lon="10.028229343540856"><ele>335.0</ele><time>2026-04-04T07:20:24Z</time></trkpt><trkpt lat="44.740732805744145" lon="10.028360917577961"><ele>335.8</ele><time>2026-04-04T07:20:25Z</time></trkpt><trkpt lat="44.74071835796808" lon="10.028487620056882"><ele>336.6</ele><time>2026-04-04T07:20:26Z</time></trkpt><trkpt lat="44.740699988245794" lon="10.028624523073466"><ele>337.4</ele><time>2026-04-04T07:20:27Z</time></trkpt><trkpt lat="44.74067378317172" lon="10.028771809047694"><ele>338.2</ele><time>2026-04-04T07:20:28Z</time></trkpt><trkpt lat="44.740643636108224" lon="10.0289308079947"><ele>339.0</ele><time>2026-04-04T07:20:29Z</time></trkpt><trkpt lat="44.74061389395085" lon="10.029088162246774"><ele>340.6</ele><time>2026-04-04T07:20:29.999Z</time></trkpt><trkpt lat="44.740587967049734" lon="10.02921367572173"><ele>342.2</ele><time>2026-04-04T07:20:30.999Z</time></trkpt><trkpt lat="44.740567502177676" lon="10.029346311189784"><ele>343.8</ele><time>2026-04-04T07:20:31.999Z</time></trkpt><trkpt lat="44.740532830019845" lon="10.029486033532296"><ele>345.40000000000003</ele><time>2026-04-04T07:20:32.999Z</time></trkpt><trkpt lat="44.74050192113834" lon="10.029614400946523"><ele>347.0</ele><time>2026-04-04T07:20:33.999Z</time></trkpt><trkpt lat="44.740473523392815" lon="10.029730235169026"><ele>347.0</ele><time>2026-04-04T07:20:34.999Z</time></trkpt><trkpt lat="44.740446397916116" lon="10.029837330593292"><ele>347.0</ele><time>2026-04-04T07:20:35.999Z</time></trkpt><trkpt lat="44.740404098188364" lon="10.029953606869165"><ele>347.0</ele><time>2026-04-04T07:20:52.999Z</time></trkpt><trkpt lat="44.74038039453866" lon="10.030036562027464"><ele>347.0</ele><time>2026-04-04T07:20:53.999Z</time></trkpt><trkpt lat="44.740351844493716" lon="10.030124360505924"><ele>347.0</ele><time>2026-04-04T07:20:54.999Z</time></trkpt><trkpt lat="44.74032061418756" lon="10.030202829384233"><ele>347.0</ele><time>2026-04-04T07:20:55.999Z</time></trkpt><trkpt lat="44.740281341335105" lon="10.030283481094202"><ele>347.0</ele><time>2026-04-04T07:20:56.999Z</time></trkpt><trkpt lat="44.74025214885145" lon="10.030368089706288"><ele>349.0</ele><time>2026-04-04T07:20:57.999Z</time></trkpt><trkpt lat="44.74024724001298" lon="10.03052583587994"><ele>351.0</ele><time>2026-04-04T07:20:59.999Z</time></trkpt><trkpt lat="44.74024237936542" lon="10.030626765882056"><ele>353.0</ele><time>2026-04-04T07:21:00.999Z</time></trkpt><trkpt lat="44.74023421070637" lon="10.030757451567494"><ele>355.0</ele><time>2026-04-04T07:21:01.999Z</time></trkpt><trkpt lat="44.740222413702945" lon="10.030921990347315"><ele>357.0</ele><time>2026-04-04T07:21:02.999Z</time></trkpt><trkpt lat="44.740210633501725" lon="10.031100628185188"><ele>360.20000000000005</ele><time>2026-04-04T07:21:03.999Z</time></trkpt><trkpt lat="44.74019438709766" lon="10.031272246314066"><ele>363.4</ele><time>2026-04-04T07:21:04.999Z</time></trkpt><trkpt lat="44.74018375691791" lon="10.031442744397086"><ele>366.6</ele><time>2026-04-04T07:21:05.999Z</time></trkpt><trkpt lat="44.74017068002475" lon="10.031588577257653"><ele>369.79999999999995</ele><time>2026-04-04T07:21:06.999Z</time></trkpt><trkpt lat="44.740160360054986" lon="10.031711295621257"><ele>373.0</ele><time>2026-04-04T07:21:07.999Z</time></trkpt><trkpt lat="44.74016067181204" lon="10.03183215007737"><ele>374.57142857142856</ele><time>2026-04-04T07:21:08.999Z</time></trkpt><trkpt lat="44.74015068958784" lon="10.031936671092545"><ele>376.14285714285717</ele><time>2026-04-04T07:21:09.999Z</time></trkpt><trkpt lat="44.740142328991595" lon="10.032032860868936"><ele>377.71428571428567</ele><time>2026-04-04T07:21:10.999Z</time></trkpt><trkpt lat="44.7401293241344" lon="10.032130715515002"><ele>379.2857142857143</ele><time>2026-04-04T07:21:11.999Z</time></trkpt><trkpt lat="44.74011523819848" lon="10.032223498285521"><ele>380.85714285714283</ele><time>2026-04-04T07:21:12.999Z</time></trkpt><trkpt lat="44.740107133505155" lon="10.03231292974074"><ele>382.4285714285714</ele><time>2026-04-04T07:21:13.999Z</time></trkpt><trkpt lat="44.74008893601639" lon="10.032404764021114"><ele>384.0</ele><time>2026-04-04T07:21:14.999Z</time></trkpt><trkpt lat="44.7400627384783" lon="10.0324874255905"><ele>385.5</ele><time>2026-04-04T07:21:15.999Z</time></trkpt><trkpt lat="44.74002171654258" lon="10.032580538953171"><ele>387.0</ele><time>2026-04-04T07:21:16.999Z</time></trkpt><trkpt lat="44.739978209002324" lon="10.03265379593381"><ele>388.5</ele><time>2026-04-04T07:21:17.999Z</time></trkpt><trkpt lat="44.73993045214686" lon="10.032721829616655"><ele>390.0</ele><time>2026-04-04T07:21:18.999Z</time></trkpt><trkpt lat="44.739850590557246" lon="10.032830871486524"><ele>391.5</ele><time>2026-04-04T07:21:20.998Z</time></trkpt><trkpt lat="44.73980157306395" lon="10.032894016865026"><ele>393.0</ele><time>2026-04-04T07:21:26.998Z</time></trkpt><trkpt lat="44.739740752265995" lon="10.03297244467508"><ele>393.00000000000006</ele><time>2026-04-04T07:21:28.998Z</time></trkpt><trkpt lat="44.7396908287202" lon="10.033042699117566"><ele>393.0</ele><time>2026-04-04T07:21:29.998Z</time></trkpt><trkpt lat="44.739636708193906" lon="10.033102664911663"><ele>393.0</ele><time>2026-04-04T07:21:30.998Z</time></trkpt><trkpt lat="44.73957558140425" lon="10.03314867928674"><ele>393.0</ele><time>2026-04-04T07:21:31.998Z</time></trkpt><trkpt lat="44.7395017225406" lon="10.033176871472293"><ele>393.0</ele><time>2026-04-04T07:21:32.998Z</time></trkpt><trkpt lat="44.7394267303791" lon="10.03317274358176"><ele>393.00000000000006</ele><time>2026-04-04T07:21:33.998Z</time></trkpt><trkpt lat="44.739348592553945" lon="10.03314119678803"><ele>393.0</ele><time>2026-04-04T07:21:34.998Z</time></trkpt><trkpt lat="44.73928871649127" lon="10.033091176502245"><ele>393.6666666666667</ele><time>2026-04-04T07:21:35.998Z</time></trkpt><trkpt lat="44.73919763810293" lon="10.033052126199385"><ele>394.33333333333337</ele><time>2026-04-04T07:21:37.998Z</time></trkpt><trkpt lat="44.73914708555674" lon="10.0331228678267"><ele>395.0</ele><time>2026-04-04T07:21:39.998Z</time></trkpt><trkpt lat="44.73916291587683" lon="10.033217002177736"><ele>395.6666666666667</ele><time>2026-04-04T07:21:41.998Z</time></trkpt><trkpt lat="44.739254529641485" lon="10.03332939490721"><ele>396.33333333333337</ele><time>2026-04-04T07:21:43.998Z</time></trkpt><trkpt lat="44.739312695322894" lon="10.033392376274328"><ele>397.0</ele><time>2026-04-04T07:21:44.998Z</time></trkpt><trkpt lat="44.73937952177353" lon="10.033468582395917"><ele>398.00000000000006</ele><time>2026-04-04T07:21:45.998Z</time></trkpt><trkpt lat="44.73944951104232" lon="10.03354044956173"><ele>399.0</ele><time>2026-04-04T07:21:46.998Z</time></trkpt><trkpt lat="44.73951736956579" lon="10.033611880098258"><ele>400.0</ele><time>2026-04-04T07:21:47.998Z</time></trkpt><trkpt lat="44.73958774378522" lon="10.033693313066065"><ele>401.0</ele><time>2026-04-04T07:21:48.998Z</time></trkpt><trkpt lat="44.73966136795055" lon="10.03378526017317"><ele>402.00000000000006</ele><time>2026-04-04T07:21:49.998Z</time></trkpt><trkpt lat="44.73971439261419" lon="10.033870023947962"><ele>403.0</ele><time>2026-04-04T07:21:50.998Z</time></trkpt><trkpt lat="44.73974452156099" lon="10.033950901624914"><ele>403.0</ele><time>2026-04-04T07:21:51.998Z</time></trkpt><trkpt lat="44.739765548158466" lon="10.034057006556194"><ele>403.0</ele><time>2026-04-04T07:21:53Z</time></trkpt><trkpt lat="44.739765433688746" lon="10.034155574692056"><ele>403.0</ele><time>2026-04-04T07:21:54Z</time></trkpt><trkpt lat="44.73975647643585" lon="10.034254005944234"><ele>403.0</ele><time>2026-04-04T07:21:55Z</time></trkpt><trkpt lat="44.73972296268076" lon="10.034336934082601"><ele>403.0</ele><time>2026-04-04T07:21:56Z</time></trkpt><trkpt lat="44.73967223555442" lon="10.034409431976892"><ele>403.0</ele><time>2026-04-04T07:21:57Z</time></trkpt><trkpt lat="44.73961117917013" lon="10.034480844773146"><ele>403.0</ele><time>2026-04-04T07:21:58Z</time></trkpt><trkpt lat="44.739533040238825" lon="10.034575127960732"><ele>404.2</ele><time>2026-04-04T07:21:59Z</time></trkpt><trkpt lat="44.739455103768634" lon="10.034656366680672"><ele>405.4</ele><time>2026-04-04T07:22:00Z</time></trkpt><trkpt lat="44.73937388807456" lon="10.034756546951714"><ele>406.59999999999997</ele><time>2026-04-04T07:22:01Z</time></trkpt><trkpt lat="44.73930024426624" lon="10.034860824344289"><ele>407.79999999999995</ele><time>2026-04-04T07:22:02Z</time></trkpt><trkpt lat="44.739232743600674" lon="10.034970288754927"><ele>409.0</ele><time>2026-04-04T07:22:03Z</time></trkpt><trkpt lat="44.739166247766896" lon="10.035075537137269"><ele>411.1666666666667</ele><time>2026-04-04T07:22:04Z</time></trkpt><trkpt lat="44.73910563116009" lon="10.035171823098082"><ele>413.33333333333337</ele><time>2026-04-04T07:22:05Z</time></trkpt><trkpt lat="44.73904792624191" lon="10.035266957911249"><ele>415.5</ele><time>2026-04-04T07:22:06Z</time></trkpt><trkpt lat="44.738994469032114" lon="10.035363585327287"><ele>417.66666666666663</ele><time>2026-04-04T07:22:07Z</time></trkpt><trkpt lat="44.73894932747447" lon="10.035464407551876"><ele>419.8333333333333</ele><time>2026-04-04T07:22:08Z</time></trkpt><trkpt lat="44.73892300259827" lon="10.035565784979855"><ele>422.0</ele><time>2026-04-04T07:22:09Z</time></trkpt><trkpt lat="44.738916953311545" lon="10.03568458332239"><ele>422.6</ele><time>2026-04-04T07:22:10Z</time></trkpt><trkpt lat="44.73891597546625" lon="10.035822183684184"><ele>423.20000000000005</ele><time>2026-04-04T07:22:11Z</time></trkpt><trkpt lat="44.738912159930265" lon="10.035982207729893"><ele>423.8</ele><time>2026-04-04T07:22:12Z</time></trkpt><trkpt lat="44.73889856240188" lon="10.036144193221654"><ele>424.4</ele><time>2026-04-04T07:22:13Z</time></trkpt><trkpt lat="44.73887370656365" lon="10.036289994542372"><ele>425.0</ele><time>2026-04-04T07:22:14Z</time></trkpt><trkpt lat="44.73884130431175" lon="10.0364202319225"><ele>425.0</ele><time>2026-04-04T07:22:15Z</time></trkpt><trkpt lat="44.73881673629486" lon="10.036563121698963"><ele>425.0</ele><time>2026-04-04T07:22:16Z</time></trkpt><trkpt lat="44.73878968558619" lon="10.03672326519173"><ele>425.0</ele><time>2026-04-04T07:22:17Z</time></trkpt><trkpt lat="44.73876325601004" lon="10.036879606722977"><ele>425.0</ele><time>2026-04-04T07:22:18Z</time></trkpt><trkpt lat="44.73874074954154" lon="10.037022528582973"><ele>425.0</ele><time>2026-04-04T07:22:19Z</time></trkpt><trkpt lat="44.73872601528153" lon="10.03718873025398"><ele>425.4</ele><time>2026-04-04T07:22:20Z</time></trkpt><trkpt lat="44.73872456901977" lon="10.037346406918358"><ele>425.8</ele><time>2026-04-04T07:22:21Z</time></trkpt><trkpt lat="44.7387451389087" lon="10.037466311005232"><ele>426.20000000000005</ele><time>2026-04-04T07:22:22Z</time></trkpt><trkpt lat="44.73878389961261" lon="10.037584422373127"><ele>426.6</ele><time>2026-04-04T07:22:23Z</time></trkpt><trkpt lat="44.73883231903051" lon="10.037704783700526"><ele>427.0</ele><time>2026-04-04T07:22:24Z</time></trkpt><trkpt lat="44.73888505600592" lon="10.037804055160874"><ele>428.1666666666667</ele><time>2026-04-04T07:22:25Z</time></trkpt><trkpt lat="44.73894273368774" lon="10.037900618800409"><ele>429.33333333333337</ele><time>2026-04-04T07:22:27Z</time></trkpt><trkpt lat="44.738939342234666" lon="10.03799763042002"><ele>430.5</ele><time>2026-04-04T07:22:29Z</time></trkpt><trkpt lat="44.7388820163325" lon="10.03806186921796"><ele>431.66666666666663</ele><time>2026-04-04T07:22:31Z</time></trkpt><trkpt lat="44.73876669691466" lon="10.03812386910228"><ele>432.8333333333333</ele><time>2026-04-04T07:22:33Z</time></trkpt><trkpt lat="44.73869637052784" lon="10.03819206709693"><ele>434.0</ele><time>2026-04-04T07:22:34Z</time></trkpt><trkpt lat="44.73862199719207" lon="10.03826074406839"><ele>440.0</ele><time>2026-04-04T07:22:35Z</time></trkpt><trkpt lat="44.738519875494376" lon="10.038289567119065"><ele>446.0</ele><time>2026-04-04T07:22:36.999Z</time></trkpt><trkpt lat="44.73845512768681" lon="10.038149442602377"><ele>452.0</ele><time>2026-04-04T07:22:38.999Z</time></trkpt><trkpt lat="44.738403607506044" lon="10.03805323156571"><ele>458.0</ele><time>2026-04-04T07:22:39.999Z</time></trkpt><trkpt lat="44.73834603846021" lon="10.037974263362036"><ele>464.0</ele><time>2026-04-04T07:22:40.999Z</time></trkpt><trkpt lat="44.738283080672346" lon="10.037932915023063"><ele>464.0</ele><time>2026-04-04T07:22:41.999Z</time></trkpt><trkpt lat="44.73819068663011" lon="10.037845345881482"><ele>464.0</ele><time>2026-04-04T07:22:43.999Z</time></trkpt><trkpt lat="44.73814558153357" lon="10.037752707148659"><ele>464.0</ele><time>2026-04-04T07:22:45.999Z</time></trkpt><trkpt lat="44.738104754715025" lon="10.037636303090403"><ele>464.0</ele><time>2026-04-04T07:22:47.999Z</time></trkpt><trkpt lat="44.73806297091868" lon="10.037519509323506"><ele>464.0</ele><time>2026-04-04T07:22:49.999Z</time></trkpt><trkpt lat="44.738045000376346" lon="10.037394314914396"><ele>463.99999999999994</ele><time>2026-04-04T07:22:51.999Z</time></trkpt><trkpt lat="44.73802610607819" lon="10.037295033515703"><ele>464.0</ele><time>2026-04-04T07:22:53.999Z</time></trkpt><trkpt lat="44.73803887614798" lon="10.03714787976342"><ele>464.0</ele><time>2026-04-04T07:22:55.999Z</time></trkpt><trkpt lat="44.73801848726482" lon="10.037014955355975"><ele>464.0</ele><time>2026-04-04T07:22:57.999Z</time></trkpt><trkpt lat="44.738024911125336" lon="10.036892093931689"><ele>463.99999999999994</ele><time>2026-04-04T07:22:59.999Z</time></trkpt><trkpt lat="44.738004984910354" lon="10.036785943025897"><ele>464.0</ele><time>2026-04-04T07:23:01.999Z</time></trkpt><trkpt lat="44.73790820883175" lon="10.0367171117736"><ele>463.99999999999994</ele><time>2026-04-04T07:23:03.999Z</time></trkpt><trkpt lat="44.737825780556406" lon="10.036738743583804"><ele>464.0</ele><time>2026-04-04T07:23:05.999Z</time></trkpt><trkpt lat="44.737760495791335" lon="10.036772940197121"><ele>464.0</ele><time>2026-04-04T07:23:07.999Z</time></trkpt><trkpt lat="44.73767823026538" lon="10.036705235950652"><ele>464.0</ele><time>2026-04-04T07:23:09.999Z</time></trkpt><trkpt lat="44.73760247283774" lon="10.0367245720027"><ele>463.99999999999994</ele><time>2026-04-04T07:23:11.999Z</time></trkpt><trkpt lat="44.73754167817985" lon="10.036801522028224"><ele>464.0</ele><time>2026-04-04T07:23:14.999Z</time></trkpt><trkpt lat="44.7374261948701" lon="10.036820512796803"><ele>468.6</ele><time>2026-04-04T07:23:16.999Z</time></trkpt><trkpt lat="44.73736498146637" lon="10.036866475244244"><ele>473.2</ele><time>2026-04-04T07:23:17.999Z</time></trkpt><trkpt lat="44.73730735102411" lon="10.036907716956119"><ele>477.80000000000007</ele><time>2026-04-04T07:23:18.999Z</time></trkpt><trkpt lat="44.73725695369821" lon="10.037038631089388"><ele>482.40000000000003</ele><time>2026-04-04T07:23:20.999Z</time></trkpt><trkpt lat="44.73724039737778" lon="10.037183155121138"><ele>487.0</ele><time>2026-04-04T07:23:22.999Z</time></trkpt><trkpt lat="44.73712640483655" lon="10.037274007180999"><ele>487.0</ele><time>2026-04-04T07:23:24.999Z</time></trkpt><trkpt lat="44.737073688844816" lon="10.037407770839401"><ele>487.00000000000006</ele><time>2026-04-04T07:23:26.998Z</time></trkpt><trkpt lat="44.73700881098255" lon="10.037441824875568"><ele>487.00000000000006</ele><time>2026-04-04T07:23:28.998Z</time></trkpt><trkpt lat="44.736895821227186" lon="10.037594731452375"><ele>487.0</ele><time>2026-04-04T07:23:30.998Z</time></trkpt><trkpt lat="44.73686248267941" lon="10.037700095720927"><ele>487.0</ele><time>2026-04-04T07:23:31.998Z</time></trkpt><trkpt lat="44.73684472109154" lon="10.037802141735636"><ele>488.8</ele><time>2026-04-04T07:23:32.998Z</time></trkpt><trkpt lat="44.736846976267294" lon="10.037891377269315"><ele>490.6</ele><time>2026-04-04T07:23:33.998Z</time></trkpt><trkpt lat="44.7368152876079" lon="10.03805019768581"><ele>492.40000000000003</ele><time>2026-04-04T07:23:35.998Z</time></trkpt><trkpt lat="44.73675799519424" lon="10.038207550989888"><ele>494.20000000000005</ele><time>2026-04-04T07:23:37.998Z</time></trkpt><trkpt lat="44.73673836985437" lon="10.038302964910603"><ele>496.0</ele><time>2026-04-04T07:23:38.998Z</time></trkpt><trkpt lat="44.736691583277455" lon="10.038470450326862"><ele>498.1666666666667</ele><time>2026-04-04T07:23:40.998Z</time></trkpt><trkpt lat="44.73666374539079" lon="10.038593399329944"><ele>500.33333333333337</ele><time>2026-04-04T07:23:41.998Z</time></trkpt><trkpt lat="44.73664813866026" lon="10.038719226365744"><ele>502.5</ele><time>2026-04-04T07:23:42.998Z</time></trkpt><trkpt lat="44.73661932565722" lon="10.038804266251"><ele>504.66666666666663</ele><time>2026-04-04T07:23:43.998Z</time></trkpt><trkpt lat="44.73656778232491" lon="10.038894491582106"><ele>506.8333333333333</ele><time>2026-04-04T07:23:44.998Z</time></trkpt><trkpt lat="44.73651875249589" lon="10.038998611230761"><ele>509.0</ele><time>2026-04-04T07:23:45.998Z</time></trkpt><trkpt lat="44.736480604336165" lon="10.039093098771449"><ele>510.2</ele><time>2026-04-04T07:23:46.998Z</time></trkpt><trkpt lat="44.736451101965784" lon="10.039186199628539"><ele>511.4</ele><time>2026-04-04T07:23:47.998Z</time></trkpt><trkpt lat="44.736405269666214" lon="10.039293521316178"><ele>512.6</ele><time>2026-04-04T07:23:48.998Z</time></trkpt><trkpt lat="44.73631043967479" lon="10.03941303578704"><ele>513.8</ele><time>2026-04-04T07:23:50.998Z</time></trkpt><trkpt lat="44.736219346597544" lon="10.039521944639635"><ele>515.0</ele><time>2026-04-04T07:23:52.998Z</time></trkpt><trkpt lat="44.73614447725003" lon="10.039622397199567"><ele>515.0</ele><time>2026-04-04T07:23:54.998Z</time></trkpt><trkpt lat="44.736087787716684" lon="10.039690505360229"><ele>515.0</ele><time>2026-04-04T07:23:55.998Z</time></trkpt><trkpt lat="44.736024007603234" lon="10.039762409212528"><ele>515.0</ele><time>2026-04-04T07:23:56.998Z</time></trkpt><trkpt lat="44.73596334516102" lon="10.039833180527054"><ele>515.0</ele><time>2026-04-04T07:23:57.998Z</time></trkpt><trkpt lat="44.73590837005872" lon="10.03991197577456"><ele>515.0</ele><time>2026-04-04T07:23:59Z</time></trkpt><trkpt lat="44.73584228940623" lon="10.04000995982519"><ele>515.0</ele><time>2026-04-04T07:24:00Z</time></trkpt><trkpt lat="44.73577681203763" lon="10.04009484124128"><ele>517.8571428571429</ele><time>2026-04-04T07:24:01Z</time></trkpt><trkpt lat="44.73572466849123" lon="10.040147944907954"><ele>520.7142857142857</ele><time>2026-04-04T07:24:02Z</time></trkpt><trkpt lat="44.73567676373724" lon="10.040211350929981"><ele>523.5714285714286</ele><time>2026-04-04T07:24:03Z</time></trkpt><trkpt lat="44.735638108484046" lon="10.040284584171411"><ele>526.4285714285714</ele><time>2026-04-04T07:24:04Z</time></trkpt><trkpt lat="44.73560320065964" lon="10.040363962180535"><ele>529.2857142857143</ele><time>2026-04-04T07:24:05Z</time></trkpt><trkpt lat="44.735561106224836" lon="10.040454260548305"><ele>532.1428571428571</ele><time>2026-04-04T07:24:06Z</time></trkpt><trkpt lat="44.73550768845972" lon="10.040503350105011"><ele>535.0</ele><time>2026-04-04T07:24:07Z</time></trkpt><trkpt lat="44.73541569017391" lon="10.040550388755516"><ele>535.0</ele><time>2026-04-04T07:24:09Z</time></trkpt><trkpt lat="44.735368816295114" lon="10.040641033694849"><ele>535.0</ele><time>2026-04-04T07:24:18Z</time></trkpt><trkpt lat="44.7352589130797" lon="10.040688784425448"><ele>535.0</ele><time>2026-04-04T07:24:20Z</time></trkpt><trkpt lat="44.73515414594665" lon="10.040735458763397"><ele>535.0</ele><time>2026-04-04T07:24:22Z</time></trkpt><trkpt lat="44.73509635222749" lon="10.040774384570968"><ele>535.0</ele><time>2026-04-04T07:24:23Z</time></trkpt><trkpt lat="44.73498469517584" lon="10.0408284208484"><ele>537.0</ele><time>2026-04-04T07:24:25Z</time></trkpt><trkpt lat="44.73484460997126" lon="10.04084086630049"><ele>539.0</ele><time>2026-04-04T07:24:27Z</time></trkpt><trkpt lat="44.734771819152634" lon="10.040878479423403"><ele>541.0</ele><time>2026-04-04T07:24:28Z</time></trkpt><trkpt lat="44.73470258723119" lon="10.040908154637284"><ele>543.0</ele><time>2026-04-04T07:24:29Z</time></trkpt><trkpt lat="44.734615238291234" lon="10.040930594474919"><ele>545.0</ele><time>2026-04-04T07:24:30Z</time></trkpt><trkpt lat="44.734479775328666" lon="10.040986232463807"><ele>544.6666666666666</ele><time>2026-04-04T07:24:32Z</time></trkpt><trkpt lat="44.734384107517116" lon="10.041025785096247"><ele>544.3333333333333</ele><time>2026-04-04T07:24:33Z</time></trkpt><trkpt lat="44.734302926523284" lon="10.041044349451925"><ele>544.0</ele><time>2026-04-04T07:24:34Z</time></trkpt><trkpt lat="44.73423579799196" lon="10.041097198758864"><ele>543.6666666666666</ele><time>2026-04-04T07:24:36Z</time></trkpt><trkpt lat="44.73417008477031" lon="10.041113925238935"><ele>543.3333333333334</ele><time>2026-04-04T07:28:34Z</time></trkpt><trkpt lat="44.73410086031464" lon="10.041113148068087"><ele>543.0</ele><time>2026-04-04T07:28:36Z</time></trkpt><trkpt lat="44.73404018297854" lon="10.041071340769072"><ele>543.0</ele><time>2026-04-04T07:28:38Z</time></trkpt><trkpt lat="44.7339843318872" lon="10.041003617693418"><ele>543.0</ele><time>2026-04-04T07:28:40Z</time></trkpt><trkpt lat="44.733915008487756" lon="10.040943208405226"><ele>543.0</ele><time>2026-04-04T07:28:43Z</time></trkpt><trkpt lat="44.73388310026882" lon="10.040826218519978"><ele>543.0</ele><time>2026-04-04T07:28:45Z</time></trkpt><trkpt lat="44.73384673766219" lon="10.040701363390113"><ele>543.0</ele><time>2026-04-04T07:28:47Z</time></trkpt><trkpt lat="44.73381109784162" lon="10.040606245183659"><ele>543.0</ele><time>2026-04-04T07:28:48Z</time></trkpt><trkpt lat="44.73380393913647" lon="10.04051564328684"><ele>540.8</ele><time>2026-04-04T07:28:49Z</time></trkpt><trkpt lat="44.733816463391264" lon="10.040424671624436"><ele>538.5999999999999</ele><time>2026-04-04T07:28:49.999Z</time></trkpt><trkpt lat="44.73380555272905" lon="10.040258014826325"><ele>536.4000000000001</ele><time>2026-04-04T07:28:51.999Z</time></trkpt><trkpt lat="44.733819003651284" lon="10.040105328842404"><ele>534.2</ele><time>2026-04-04T07:28:53.999Z</time></trkpt><trkpt lat="44.73384498633915" lon="10.039979271688109"><ele>532.0</ele><time>2026-04-04T07:28:55.999Z</time></trkpt><trkpt lat="44.73386566256539" lon="10.039818188338602"><ele>529.8333333333334</ele><time>2026-04-04T07:28:57.999Z</time></trkpt><trkpt lat="44.733920743264115" lon="10.039700030954616"><ele>527.6666666666667</ele><time>2026-04-04T07:28:59.999Z</time></trkpt><trkpt lat="44.7339412840567" lon="10.039604657226178"><ele>525.5</ele><time>2026-04-04T07:29:01.999Z</time></trkpt><trkpt lat="44.73397489612905" lon="10.03952413877923"><ele>523.3333333333334</ele><time>2026-04-04T07:29:03.999Z</time></trkpt><trkpt lat="44.73404205744943" lon="10.03949083909064"><ele>521.1666666666666</ele><time>2026-04-04T07:29:05.999Z</time></trkpt><trkpt lat="44.73412431969731" lon="10.039455227567501"><ele>519.0</ele><time>2026-04-04T07:29:07.999Z</time></trkpt><trkpt lat="44.73416272741821" lon="10.039373151117546"><ele>519.0</ele><time>2026-04-04T07:29:09.999Z</time></trkpt><trkpt lat="44.734061395256155" lon="10.039288140246615"><ele>519.0</ele><time>2026-04-04T07:29:12.999Z</time></trkpt><trkpt lat="44.73400068799197" lon="10.039247873771702"><ele>519.0</ele><time>2026-04-04T07:29:13.999Z</time></trkpt><trkpt lat="44.73392302492296" lon="10.039189005660496"><ele>519.0</ele><time>2026-04-04T07:29:15.999Z</time></trkpt><trkpt lat="44.73381260400881" lon="10.039208435300285"><ele>519.0</ele><time>2026-04-04T07:29:17.999Z</time></trkpt><trkpt lat="44.73374460185233" lon="10.039227147063432"><ele>519.0</ele><time>2026-04-04T07:29:18.999Z</time></trkpt><trkpt lat="44.73368061256286" lon="10.039212476542607"><ele>519.0</ele><time>2026-04-04T07:29:19.999Z</time></trkpt><trkpt lat="44.733572067231826" lon="10.039230611047916"><ele>519.0</ele><time>2026-04-04T07:29:21.999Z</time></trkpt><trkpt lat="44.73346506644168" lon="10.039256757273735"><ele>519.0</ele><time>2026-04-04T07:29:23.999Z</time></trkpt><trkpt lat="44.733368099231484" lon="10.039347409090428"><ele>519.0</ele><time>2026-04-04T07:29:25.999Z</time></trkpt><trkpt lat="44.73331162285954" lon="10.039395728640523"><ele>516.8333333333334</ele><time>2026-04-04T07:29:26.999Z</time></trkpt><trkpt lat="44.73324813472392" lon="10.039432205835599"><ele>514.6666666666666</ele><time>2026-04-04T07:29:27.999Z</time></trkpt><trkpt lat="44.733179511987494" lon="10.039479661846476"><ele>512.5</ele><time>2026-04-04T07:29:28.999Z</time></trkpt><trkpt lat="44.73311729358752" lon="10.03951321000879"><ele>510.3333333333333</ele><time>2026-04-04T07:29:29.999Z</time></trkpt><trkpt lat="44.73306864591506" lon="10.03968016281203"><ele>508.16666666666663</ele><time>2026-04-04T07:29:31.999Z</time></trkpt><trkpt lat="44.73304498381199" lon="10.039776367575852"><ele>506.0</ele><time>2026-04-04T07:29:32.999Z</time></trkpt><trkpt lat="44.7330034045521" lon="10.039894806726416"><ele>506.0</ele><time>2026-04-04T07:29:34.999Z</time></trkpt><trkpt lat="44.732913595312624" lon="10.039890945362849"><ele>506.0</ele><time>2026-04-04T07:29:36.999Z</time></trkpt><trkpt lat="44.73282489087711" lon="10.039887150846493"><ele>506.0</ele><time>2026-04-04T07:29:37.998Z</time></trkpt><trkpt lat="44.73275177493776" lon="10.039923591126891"><ele>506.0</ele><time>2026-04-04T07:29:38.998Z</time></trkpt><trkpt lat="44.73265742992157" lon="10.04000378467938"><ele>506.0</ele><time>2026-04-04T07:29:40.998Z</time></trkpt><trkpt lat="44.73256669677079" lon="10.0400010136392"><ele>503.0</ele><time>2026-04-04T07:29:42.998Z</time></trkpt><trkpt lat="44.732464803372494" lon="10.040020216288958"><ele>500.0</ele><time>2026-04-04T07:29:44.998Z</time></trkpt><trkpt lat="44.73235578232351" lon="10.040014320870789"><ele>497.0</ele><time>2026-04-04T07:29:46.998Z</time></trkpt><trkpt lat="44.73229751978387" lon="10.040073255532558"><ele>494.0</ele><time>2026-04-04T07:29:48.998Z</time></trkpt><trkpt lat="44.732292974334655" lon="10.040192198543844"><ele>491.0</ele><time>2026-04-04T07:29:50.998Z</time></trkpt><trkpt lat="44.73220846095203" lon="10.040247712012485"><ele>490.99999999999994</ele><time>2026-04-04T07:29:52.998Z</time></trkpt><trkpt lat="44.73214161910488" lon="10.040194731503574"><ele>491.0</ele><time>2026-04-04T07:29:54.998Z</time></trkpt><trkpt lat="44.73206087086741" lon="10.040119864174976"><ele>491.0</ele><time>2026-04-04T07:29:56.998Z</time></trkpt><trkpt lat="44.731983576704685" lon="10.040095948858445"><ele>491.0</ele><time>2026-04-04T07:29:58.998Z</time></trkpt><trkpt lat="44.731924868628916" lon="10.040167064112334"><ele>490.99999999999994</ele><time>2026-04-04T07:30:00.998Z</time></trkpt><trkpt lat="44.731934756321884" lon="10.040277136232724"><ele>491.0</ele><time>2026-04-04T07:30:02.998Z</time></trkpt><trkpt lat="44.73196113679712" lon="10.040432155901408"><ele>491.0</ele><time>2026-04-04T07:30:04.998Z</time></trkpt><trkpt lat="44.73195679382591" lon="10.040592463414194"><ele>491.0</ele><time>2026-04-04T07:30:06.998Z</time></trkpt><trkpt lat="44.732003217274496" lon="10.040717550185196"><ele>491.0</ele><time>2026-04-04T07:30:08.998Z</time></trkpt><trkpt lat="44.73205357977312" lon="10.040778967884735"><ele>491.0</ele><time>2026-04-04T07:30:09.998Z</time></trkpt><trkpt lat="44.7321417742088" lon="10.040855464612399"><ele>491.0</ele><time>2026-04-04T07:30:10.998Z</time></trkpt><trkpt lat="44.732210561769854" lon="10.040925651941556"><ele>489.49999999999994</ele><time>2026-04-04T07:30:11.998Z</time></trkpt><trkpt lat="44.73226735815851" lon="10.041032593209135"><ele>488.0</ele><time>2026-04-04T07:30:13.998Z</time></trkpt><trkpt lat="44.732251810085394" lon="10.041127888061672"><ele>486.5</ele><time>2026-04-04T07:30:14.998Z</time></trkpt><trkpt lat="44.7322017906017" lon="10.041225352543238"><ele>485.0</ele><time>2026-04-04T07:30:15.998Z</time></trkpt><trkpt lat="44.73214273681514" lon="10.04133266215326"><ele>483.49999999999994</ele><time>2026-04-04T07:30:17Z</time></trkpt><trkpt lat="44.73209478535276" lon="10.041433828022058"><ele>482.0</ele><time>2026-04-04T07:30:18Z</time></trkpt><trkpt lat="44.7320587974653" lon="10.04155141289494"><ele>481.20000000000005</ele><time>2026-04-04T07:30:19Z</time></trkpt><trkpt lat="44.7320380944132" lon="10.0416670157916"><ele>480.40000000000003</ele><time>2026-04-04T07:30:20Z</time></trkpt><trkpt lat="44.73199791831996" lon="10.041787737218684"><ele>479.59999999999997</ele><time>2026-04-04T07:30:21Z</time></trkpt><trkpt lat="44.73196209252975" lon="10.041916260667003"><ele>478.79999999999995</ele><time>2026-04-04T07:30:22Z</time></trkpt><trkpt lat="44.731956518013554" lon="10.042032391009535"><ele>478.0</ele><time>2026-04-04T07:30:23Z</time></trkpt><trkpt lat="44.731967016072176" lon="10.04216873780182"><ele>478.00000000000006</ele><time>2026-04-04T07:30:24Z</time></trkpt><trkpt lat="44.73196837300994" lon="10.042286084314927"><ele>478.0</ele><time>2026-04-04T07:30:25Z</time></trkpt><trkpt lat="44.73197549414873" lon="10.042420182333574"><ele>478.0</ele><time>2026-04-04T07:30:26Z</time></trkpt><trkpt lat="44.7319897238085" lon="10.04253596189452"><ele>478.0</ele><time>2026-04-04T07:30:27Z</time></trkpt><trkpt lat="44.732019022381635" lon="10.042655530821653"><ele>478.00000000000006</ele><time>2026-04-04T07:30:28Z</time></trkpt><trkpt lat="44.73204281753502" lon="10.042759847194361"><ele>478.0</ele><time>2026-04-04T07:30:29Z</time></trkpt><trkpt lat="44.73205711269986" lon="10.042867296034446"><ele>476.00000000000006</ele><time>2026-04-04T07:30:30Z</time></trkpt><trkpt lat="44.73208944475881" lon="10.04295531583615"><ele>474.0</ele><time>2026-04-04T07:30:31Z</time></trkpt><trkpt lat="44.732125465920916" lon="10.043038992005888"><ele>472.0</ele><time>2026-04-04T07:30:32Z</time></trkpt><trkpt lat="44.732166259402995" lon="10.043114088874018"><ele>470.0</ele><time>2026-04-04T07:30:33Z</time></trkpt><trkpt lat="44.73222458792648" lon="10.043173637753757"><ele>468.00000000000006</ele><time>2026-04-04T07:30:34Z</time></trkpt><trkpt lat="44.7323032046657" lon="10.043235515344286"><ele>466.0</ele><time>2026-04-04T07:30:35Z</time></trkpt><trkpt lat="44.732401237314" lon="10.043305239546903"><ele>464.50000000000006</ele><time>2026-04-04T07:30:36Z</time></trkpt><trkpt lat="44.73248741083227" lon="10.043351314995112"><ele>463.0</ele><time>2026-04-04T07:30:37Z</time></trkpt><trkpt lat="44.732574696265516" lon="10.043389088469093"><ele>461.5</ele><time>2026-04-04T07:30:38Z</time></trkpt><trkpt lat="44.73265657421552" lon="10.043430390255883"><ele>460.0</ele><time>2026-04-04T07:30:39Z</time></trkpt><trkpt lat="44.73271513909773" lon="10.043463712078701"><ele>458.50000000000006</ele><time>2026-04-04T07:30:40Z</time></trkpt><trkpt lat="44.73278209044903" lon="10.04354195744317"><ele>457.0</ele><time>2026-04-04T07:30:41Z</time></trkpt><trkpt lat="44.73285779119634" lon="10.043580418092642"><ele>457.0</ele><time>2026-04-04T07:30:42Z</time></trkpt><trkpt lat="44.73290544834767" lon="10.043681575983838"><ele>457.00000000000006</ele><time>2026-04-04T07:30:43Z</time></trkpt><trkpt lat="44.73298792378318" lon="10.04380419557568"><ele>457.00000000000006</ele><time>2026-04-04T07:30:44Z</time></trkpt><trkpt lat="44.73304994320734" lon="10.04390012387056"><ele>457.0</ele><time>2026-04-04T07:30:45Z</time></trkpt><trkpt lat="44.73312591775499" lon="10.043986501864342"><ele>457.0</ele><time>2026-04-04T07:30:46Z</time></trkpt><trkpt lat="44.733193493553806" lon="10.04405804111623"><ele>449.6</ele><time>2026-04-04T07:30:47Z</time></trkpt><trkpt lat="44.7332519127869" lon="10.044139199562114"><ele>442.20000000000005</ele><time>2026-04-04T07:30:48Z</time></trkpt><trkpt lat="44.73331572773161" lon="10.044236028701421"><ele>434.8</ele><time>2026-04-04T07:30:49Z</time></trkpt><trkpt lat="44.73337766032705" lon="10.044334902932036"><ele>427.4</ele><time>2026-04-04T07:30:50Z</time></trkpt><trkpt lat="44.73342241230446" lon="10.044457675467179"><ele>420.0</ele><time>2026-04-04T07:30:51Z</time></trkpt><trkpt lat="44.733457516373775" lon="10.04459324425071"><ele>420.0</ele><time>2026-04-04T07:30:52Z</time></trkpt><trkpt lat="44.733482683415595" lon="10.044731916150166"><ele>420.0</ele><time>2026-04-04T07:30:53Z</time></trkpt><trkpt lat="44.73349908400889" lon="10.044851032024283"><ele>420.0</ele><time>2026-04-04T07:30:54Z</time></trkpt><trkpt lat="44.7335152135553" lon="10.044975751583097"><ele>420.0</ele><time>2026-04-04T07:30:55Z</time></trkpt><trkpt lat="44.733544786577326" lon="10.045113318210255"><ele>420.0</ele><time>2026-04-04T07:30:55.999Z</time></trkpt><trkpt lat="44.733587934413606" lon="10.045228996791876"><ele>418.8333333333333</ele><time>2026-04-04T07:30:56.999Z</time></trkpt><trkpt lat="44.733631462752435" lon="10.045313020024398"><ele>417.66666666666663</ele><time>2026-04-04T07:30:57.999Z</time></trkpt><trkpt lat="44.733690992166856" lon="10.045401191563577"><ele>416.5</ele><time>2026-04-04T07:30:58.999Z</time></trkpt><trkpt lat="44.73373471952462" lon="10.045493925033439"><ele>415.3333333333333</ele><time>2026-04-04T07:30:59.999Z</time></trkpt><trkpt lat="44.73376458342087" lon="10.045626569468046"><ele>414.16666666666663</ele><time>2026-04-04T07:31:01.999Z</time></trkpt><trkpt lat="44.73373349243552" lon="10.045727731547384"><ele>413.0</ele><time>2026-04-04T07:31:03.999Z</time></trkpt><trkpt lat="44.733821963864315" lon="10.04581086340949"><ele>411.16666666666663</ele><time>2026-04-04T07:31:06.999Z</time></trkpt><trkpt lat="44.733928791727664" lon="10.04588081043924"><ele>409.3333333333333</ele><time>2026-04-04T07:31:08.999Z</time></trkpt><trkpt lat="44.73403289659703" lon="10.045935544563863"><ele>407.5</ele><time>2026-04-04T07:31:10.999Z</time></trkpt><trkpt lat="44.7341122618903" lon="10.045971478321386"><ele>405.66666666666663</ele><time>2026-04-04T07:31:12.999Z</time></trkpt><trkpt lat="44.73415549212953" lon="10.04604361688915"><ele>403.8333333333333</ele><time>2026-04-04T07:31:14.999Z</time></trkpt><trkpt lat="44.73413786024869" lon="10.046134405651271"><ele>402.0</ele><time>2026-04-04T07:31:16.999Z</time></trkpt><trkpt lat="44.73401618167272" lon="10.046198511240338"><ele>402.0</ele><time>2026-04-04T07:31:18.999Z</time></trkpt><trkpt lat="44.73391981822034" lon="10.046220589158416"><ele>402.0</ele><time>2026-04-04T07:31:19.999Z</time></trkpt><trkpt lat="44.73382798933445" lon="10.046251548654602"><ele>402.0</ele><time>2026-04-04T07:31:20.999Z</time></trkpt><trkpt lat="44.73372011668039" lon="10.046320608896087"><ele>402.0</ele><time>2026-04-04T07:31:21.999Z</time></trkpt><trkpt lat="44.733615853886775" lon="10.046402360252143"><ele>402.0</ele><time>2026-04-04T07:31:22.999Z</time></trkpt><trkpt lat="44.7335189810778" lon="10.046481175961947"><ele>402.0</ele><time>2026-04-04T07:31:23.999Z</time></trkpt><trkpt lat="44.73343072982878" lon="10.046539768414304"><ele>402.0</ele><time>2026-04-04T07:31:24.999Z</time></trkpt><trkpt lat="44.73333664024695" lon="10.046587446740233"><ele>402.0</ele><time>2026-04-04T07:31:25.999Z</time></trkpt><trkpt lat="44.73323417923213" lon="10.046605119611224"><ele>402.0</ele><time>2026-04-04T07:31:26.999Z</time></trkpt><trkpt lat="44.733131981437545" lon="10.046585017563196"><ele>402.0</ele><time>2026-04-04T07:31:27.999Z</time></trkpt><trkpt lat="44.73304810302763" lon="10.046528573023668"><ele>402.0</ele><time>2026-04-04T07:31:28.999Z</time></trkpt><trkpt lat="44.732980525782764" lon="10.046466278356988"><ele>402.0</ele><time>2026-04-04T07:31:29.999Z</time></trkpt><trkpt lat="44.73290122658337" lon="10.046460761806747"><ele>402.0</ele><time>2026-04-04T07:31:30.999Z</time></trkpt><trkpt lat="44.73280252593235" lon="10.046506505563002"><ele>402.0</ele><time>2026-04-04T07:31:31.999Z</time></trkpt><trkpt lat="44.732705194946526" lon="10.046585255647162"><ele>402.0</ele><time>2026-04-04T07:31:32.999Z</time></trkpt><trkpt lat="44.73262114683405" lon="10.046696146984145"><ele>396.25</ele><time>2026-04-04T07:31:33.999Z</time></trkpt><trkpt lat="44.73253290900886" lon="10.046825347087244"><ele>390.5</ele><time>2026-04-04T07:31:34.999Z</time></trkpt><trkpt lat="44.732444178177964" lon="10.046947799012779"><ele>384.75</ele><time>2026-04-04T07:31:35.999Z</time></trkpt><trkpt lat="44.73236402688866" lon="10.047074080245466"><ele>379.0</ele><time>2026-04-04T07:31:36.999Z</time></trkpt><trkpt lat="44.73228366638325" lon="10.047211507173223"><ele>379.0</ele><time>2026-04-04T07:31:37.999Z</time></trkpt><trkpt lat="44.73222510087739" lon="10.047359930282582"><ele>379.0</ele><time>2026-04-04T07:31:38.999Z</time></trkpt><trkpt lat="44.73217896836721" lon="10.047508391840388"><ele>379.0</ele><time>2026-04-04T07:31:39.999Z</time></trkpt><trkpt lat="44.732143546014306" lon="10.047629222269288"><ele>379.0</ele><time>2026-04-04T07:31:40.999Z</time></trkpt><trkpt lat="44.73210197170073" lon="10.047724043899201"><ele>379.0</ele><time>2026-04-04T07:31:41.999Z</time></trkpt><trkpt lat="44.73201657190775" lon="10.047733186928241"><ele>378.4</ele><time>2026-04-04T07:31:42.998Z</time></trkpt><trkpt lat="44.73195153694981" lon="10.047668535518758"><ele>377.79999999999995</ele><time>2026-04-04T07:31:43.998Z</time></trkpt><trkpt lat="44.731869910073435" lon="10.04762039984917"><ele>377.20000000000005</ele><time>2026-04-04T07:31:44.998Z</time></trkpt><trkpt lat="44.73177297512399" lon="10.047606146710633"><ele>376.6</ele><time>2026-04-04T07:31:45.998Z</time></trkpt><trkpt lat="44.7316732363765" lon="10.047664050296941"><ele>376.0</ele><time>2026-04-04T07:31:46.998Z</time></trkpt><trkpt lat="44.7316313183992" lon="10.047820848328291"><ele>374.25</ele><time>2026-04-04T07:31:47.998Z</time></trkpt><trkpt lat="44.73159105032914" lon="10.047964622429028"><ele>372.5</ele><time>2026-04-04T07:31:48.998Z</time></trkpt><trkpt lat="44.73154668282978" lon="10.048141114267466"><ele>370.75</ele><time>2026-04-04T07:31:49.998Z</time></trkpt><trkpt lat="44.73148032555473" lon="10.048333986622326"><ele>369.0</ele><time>2026-04-04T07:31:50.998Z</time></trkpt><trkpt lat="44.731381190111286" lon="10.048522039696032"><ele>367.0</ele><time>2026-04-04T07:31:51.998Z</time></trkpt><trkpt lat="44.73127252535971" lon="10.048697876227896"><ele>365.0</ele><time>2026-04-04T07:31:52.998Z</time></trkpt><trkpt lat="44.731159118316064" lon="10.048869658400733"><ele>363.0</ele><time>2026-04-04T07:31:53.998Z</time></trkpt><trkpt lat="44.731039220912564" lon="10.049052244707916"><ele>361.6666666666667</ele><time>2026-04-04T07:31:54.998Z</time></trkpt><trkpt lat="44.73091398273398" lon="10.049238772089426"><ele>360.33333333333337</ele><time>2026-04-04T07:31:55.998Z</time></trkpt><trkpt lat="44.73077766468771" lon="10.049423932063432"><ele>359.0</ele><time>2026-04-04T07:31:56.998Z</time></trkpt><trkpt lat="44.73064862518687" lon="10.049622664014052"><ele>359.0</ele><time>2026-04-04T07:31:57.998Z</time></trkpt><trkpt lat="44.73051094673034" lon="10.049766642679737"><ele>359.0</ele><time>2026-04-04T07:31:58.998Z</time></trkpt><trkpt lat="44.73039207565731" lon="10.049905385081901"><ele>359.0</ele><time>2026-04-04T07:31:59.998Z</time></trkpt><trkpt lat="44.73028806252999" lon="10.05002067633853"><ele>359.75</ele><time>2026-04-04T07:32:00.998Z</time></trkpt><trkpt lat="44.73022366974482" lon="10.050111707528501"><ele>360.5</ele><time>2026-04-04T07:32:01.998Z</time></trkpt><trkpt lat="44.73014933001264" lon="10.050148885302665"><ele>361.25</ele><time>2026-04-04T07:32:02.998Z</time></trkpt><trkpt lat="44.730061065040054" lon="10.050207962023833"><ele>362.0</ele><time>2026-04-04T07:32:04.998Z</time></trkpt><trkpt lat="44.73017321339984" lon="10.050494427400393"><ele>362.0</ele><time>2026-04-04T07:32:08.998Z</time></trkpt><trkpt lat="44.730194936019366" lon="10.050595853127067"><ele>362.0</ele><time>2026-04-04T07:32:09.998Z</time></trkpt><trkpt lat="44.73019786049793" lon="10.050696885133364"><ele>362.0</ele><time>2026-04-04T07:32:10.998Z</time></trkpt><trkpt lat="44.73020374290379" lon="10.050828884779559"><ele>362.0</ele><time>2026-04-04T07:32:11.998Z</time></trkpt><trkpt lat="44.73020201766747" lon="10.050954206269994"><ele>362.0</ele><time>2026-04-04T07:32:12.998Z</time></trkpt><trkpt lat="44.73019528001035" lon="10.051102566480886"><ele>362.0</ele><time>2026-04-04T07:32:13.998Z</time></trkpt><trkpt lat="44.73018251844627" lon="10.051272632537318"><ele>364.0</ele><time>2026-04-04T07:32:14.998Z</time></trkpt><trkpt lat="44.73015390923467" lon="10.051433416666994"><ele>366.0</ele><time>2026-04-04T07:32:15.998Z</time></trkpt><trkpt lat="44.73011211628177" lon="10.051598103039927"><ele>368.0</ele><time>2026-04-04T07:32:16.998Z</time></trkpt><trkpt lat="44.73007109113215" lon="10.051757512286743"><ele>370.0</ele><time>2026-04-04T07:32:17.998Z</time></trkpt><trkpt lat="44.73002978513123" lon="10.051915370768105"><ele>371.4</ele><time>2026-04-04T07:32:18.998Z</time></trkpt><trkpt lat="44.729997326820545" lon="10.052053887742531"><ele>372.8</ele><time>2026-04-04T07:32:19.998Z</time></trkpt><trkpt lat="44.72997401301526" lon="10.052206160451178"><ele>374.20000000000005</ele><time>2026-04-04T07:32:20.998Z</time></trkpt><trkpt lat="44.72996096242145" lon="10.052359163454172"><ele>375.6</ele><time>2026-04-04T07:32:21.998Z</time></trkpt><trkpt lat="44.72993937271082" lon="10.052510077192185"><ele>377.0</ele><time>2026-04-04T07:32:23Z</time></trkpt><trkpt lat="44.72991365330183" lon="10.052623040243377"><ele>378.1666666666667</ele><time>2026-04-04T07:32:24Z</time></trkpt><trkpt lat="44.72988125689403" lon="10.052713934478774"><ele>379.33333333333337</ele><time>2026-04-04T07:32:25Z</time></trkpt><trkpt lat="44.729844308519695" lon="10.052799482531174"><ele>380.5</ele><time>2026-04-04T07:32:26Z</time></trkpt><trkpt lat="44.72982413049186" lon="10.052902531434551"><ele>381.6666666666667</ele><time>2026-04-04T07:32:27Z</time></trkpt><trkpt lat="44.72982041576878" lon="10.053015775580912"><ele>382.8333333333333</ele><time>2026-04-04T07:32:28Z</time></trkpt><trkpt lat="44.72982274999915" lon="10.053128186215234"><ele>384.0</ele><time>2026-04-04T07:32:29Z</time></trkpt><trkpt lat="44.729826765733584" lon="10.05323623017595"><ele>384.6</ele><time>2026-04-04T07:32:30Z</time></trkpt><trkpt lat="44.72983145195776" lon="10.0534018725579"><ele>385.2</ele><time>2026-04-04T07:32:32Z</time></trkpt><trkpt lat="44.72984769136816" lon="10.05349576556509"><ele>385.8</ele><time>2026-04-04T07:32:33Z</time></trkpt><trkpt lat="44.7298721769855" lon="10.053582575561615"><ele>386.40000000000003</ele><time>2026-04-04T07:32:34Z</time></trkpt><trkpt lat="44.72990923333114" lon="10.053700849774312"><ele>387.0</ele><time>2026-04-04T07:32:35Z</time></trkpt><trkpt lat="44.72994644331025" lon="10.053848537304104"><ele>387.0</ele><time>2026-04-04T07:32:36Z</time></trkpt><trkpt lat="44.729972440441045" lon="10.05402978020449"><ele>387.0</ele><time>2026-04-04T07:32:37Z</time></trkpt><trkpt lat="44.729983048675614" lon="10.054215638823734"><ele>387.0</ele><time>2026-04-04T07:32:38Z</time></trkpt><trkpt lat="44.729984309306246" lon="10.054384498862623"><ele>387.0</ele><time>2026-04-04T07:32:39Z</time></trkpt><trkpt lat="44.72998387183083" lon="10.05457983479828"><ele>386.5</ele><time>2026-04-04T07:32:40Z</time></trkpt><trkpt lat="44.72997697934848" lon="10.054766035412372"><ele>386.0</ele><time>2026-04-04T07:32:41Z</time></trkpt><trkpt lat="44.72998481968095" lon="10.054950503678239"><ele>385.5</ele><time>2026-04-04T07:32:42Z</time></trkpt><trkpt lat="44.72999821075363" lon="10.055108588599964"><ele>385.0</ele><time>2026-04-04T07:32:43Z</time></trkpt><trkpt lat="44.73000397320179" lon="10.055241911454692"><ele>385.6666666666667</ele><time>2026-04-04T07:32:44Z</time></trkpt><trkpt lat="44.73000967754981" lon="10.055363958949709"><ele>386.33333333333337</ele><time>2026-04-04T07:32:45Z</time></trkpt><trkpt lat="44.72999327005095" lon="10.055495793120047"><ele>387.0</ele><time>2026-04-04T07:32:46Z</time></trkpt><trkpt lat="44.72997946244678" lon="10.05562227796384"><ele>387.66666666666663</ele><time>2026-04-04T07:32:47Z</time></trkpt><trkpt lat="44.72994232758068" lon="10.055722555020859"><ele>388.3333333333333</ele><time>2026-04-04T07:32:48Z</time></trkpt><trkpt lat="44.72989382828334" lon="10.05583107329554"><ele>389.0</ele><time>2026-04-04T07:32:49Z</time></trkpt><trkpt lat="44.72985947059505" lon="10.055958341826287"><ele>389.2</ele><time>2026-04-04T07:32:50Z</time></trkpt><trkpt lat="44.72984594581758" lon="10.056098174955517"><ele>389.4</ele><time>2026-04-04T07:32:51Z</time></trkpt><trkpt lat="44.72986373526726" lon="10.056232441165099"><ele>389.6</ele><time>2026-04-04T07:32:52Z</time></trkpt><trkpt lat="44.72989525874335" lon="10.05637266055269"><ele>389.8</ele><time>2026-04-04T07:32:53Z</time></trkpt><trkpt lat="44.72990379292626" lon="10.056518253324015"><ele>390.0</ele><time>2026-04-04T07:32:54Z</time></trkpt><trkpt lat="44.72988858179002" lon="10.056656627673304"><ele>390.1666666666667</ele><time>2026-04-04T07:32:55Z</time></trkpt><trkpt lat="44.729851370146584" lon="10.056780079285192"><ele>390.33333333333337</ele><time>2026-04-04T07:32:56Z</time></trkpt><trkpt lat="44.72980627434702" lon="10.056878149497615"><ele>390.5</ele><time>2026-04-04T07:32:57Z</time></trkpt><trkpt lat="44.72978664889771" lon="10.056980462238148"><ele>390.6666666666667</ele><time>2026-04-04T07:32:58Z</time></trkpt><trkpt lat="44.7297865862133" lon="10.057075379336911"><ele>390.83333333333337</ele><time>2026-04-04T07:32:59Z</time></trkpt><trkpt lat="44.729779732661" lon="10.057227857153816"><ele>391.0</ele><time>2026-04-04T07:33:00.999Z</time></trkpt><trkpt lat="44.729776590035954" lon="10.057320565384082"><ele>391.0</ele><time>2026-04-04T07:33:01.999Z</time></trkpt><trkpt lat="44.72996006946387" lon="10.057438332851415"><ele>391.0</ele><time>2026-04-04T07:33:02.999Z</time></trkpt><trkpt lat="44.73000677730949" lon="10.05754709837554"><ele>391.0</ele><time>2026-04-04T07:33:03.999Z</time></trkpt><trkpt lat="44.73004423957557" lon="10.057642996891165"><ele>391.0</ele><time>2026-04-04T07:33:04.999Z</time></trkpt><trkpt lat="44.73009033647549" lon="10.057725582256658"><ele>391.0</ele><time>2026-04-04T07:33:05.999Z</time></trkpt><trkpt lat="44.73014334903649" lon="10.057806000320076"><ele>390.85714285714283</ele><time>2026-04-04T07:33:06.999Z</time></trkpt><trkpt lat="44.73019952699006" lon="10.057867126634445"><ele>390.7142857142857</ele><time>2026-04-04T07:33:07.999Z</time></trkpt><trkpt lat="44.730262601425224" lon="10.057922334327507"><ele>390.57142857142856</ele><time>2026-04-04T07:33:08.999Z</time></trkpt><trkpt lat="44.73032109684378" lon="10.057983993416489"><ele>390.42857142857144</ele><time>2026-04-04T07:33:09.999Z</time></trkpt><trkpt lat="44.73037670220292" lon="10.058039660958743"><ele>390.2857142857143</ele><time>2026-04-04T07:33:10.999Z</time></trkpt><trkpt lat="44.730438347073395" lon="10.058111294831239"><ele>390.1428571428571</ele><time>2026-04-04T07:33:11.999Z</time></trkpt><trkpt lat="44.730495648278875" lon="10.058166865127008"><ele>390.0</ele><time>2026-04-04T07:33:12.999Z</time></trkpt><trkpt lat="44.7306127076895" lon="10.058223683350818"><ele>386.75</ele><time>2026-04-04T07:33:14.999Z</time></trkpt><trkpt lat="44.73076081024884" lon="10.058275349042807"><ele>383.5</ele><time>2026-04-04T07:33:16.999Z</time></trkpt><trkpt lat="44.730874034542786" lon="10.058343775473046"><ele>380.25</ele><time>2026-04-04T07:33:17.999Z</time></trkpt><trkpt lat="44.73098837207134" lon="10.058423792496761"><ele>377.0</ele><time>2026-04-04T07:33:18.999Z</time></trkpt><trkpt lat="44.73107485888346" lon="10.05852705246138"><ele>375.20000000000005</ele><time>2026-04-04T07:33:19.999Z</time></trkpt><trkpt lat="44.7311394994703" lon="10.058641212578094"><ele>373.4</ele><time>2026-04-04T07:33:20.999Z</time></trkpt><trkpt lat="44.731173138859724" lon="10.058740448310076"><ele>371.6</ele><time>2026-04-04T07:33:21.999Z</time></trkpt><trkpt lat="44.73118594942683" lon="10.058869360081955"><ele>369.79999999999995</ele><time>2026-04-04T07:33:22.999Z</time></trkpt><trkpt lat="44.731191323981676" lon="10.059018929683337"><ele>368.0</ele><time>2026-04-04T07:33:23.999Z</time></trkpt><trkpt lat="44.7311907258048" lon="10.059185120291867"><ele>368.0</ele><time>2026-04-04T07:33:24.999Z</time></trkpt><trkpt lat="44.73119068000253" lon="10.059372093985209"><ele>368.0</ele><time>2026-04-04T07:33:25.999Z</time></trkpt><trkpt lat="44.731194478287954" lon="10.059562752248285"><ele>368.0</ele><time>2026-04-04T07:33:26.999Z</time></trkpt><trkpt lat="44.73119522533329" lon="10.059725458190355"><ele>368.0</ele><time>2026-04-04T07:33:27.999Z</time></trkpt><trkpt lat="44.73119410071798" lon="10.059872363187049"><ele>368.2</ele><time>2026-04-04T07:33:28.999Z</time></trkpt><trkpt lat="44.731210124275506" lon="10.060014639587962"><ele>368.4</ele><time>2026-04-04T07:33:29.999Z</time></trkpt><trkpt lat="44.731232462291" lon="10.060148118753213"><ele>368.59999999999997</ele><time>2026-04-04T07:33:30.999Z</time></trkpt><trkpt lat="44.731267675673244" lon="10.060278227289077"><ele>368.79999999999995</ele><time>2026-04-04T07:33:31.999Z</time></trkpt><trkpt lat="44.73129940301239" lon="10.060422492483909"><ele>369.0</ele><time>2026-04-04T07:33:32.999Z</time></trkpt><trkpt lat="44.73135155339099" lon="10.060565531675485"><ele>369.0</ele><time>2026-04-04T07:33:33.999Z</time></trkpt><trkpt lat="44.73141766722059" lon="10.060702999233452"><ele>369.0</ele><time>2026-04-04T07:33:34.999Z</time></trkpt><trkpt lat="44.73147445634786" lon="10.06084756592636"><ele>369.0</ele><time>2026-04-04T07:33:35.999Z</time></trkpt><trkpt lat="44.731515792395996" lon="10.061003592065758"><ele>369.0</ele><time>2026-04-04T07:33:36.999Z</time></trkpt><trkpt lat="44.731556549859434" lon="10.061138352137668"><ele>368.79999999999995</ele><time>2026-04-04T07:33:37.999Z</time></trkpt><trkpt lat="44.731608851267545" lon="10.06129348179039"><ele>368.59999999999997</ele><time>2026-04-04T07:33:38.999Z</time></trkpt><trkpt lat="44.7316679058547" lon="10.06142113270647"><ele>368.4</ele><time>2026-04-04T07:33:39.999Z</time></trkpt><trkpt lat="44.731730865973454" lon="10.061540598938494"><ele>368.2</ele><time>2026-04-04T07:33:40.999Z</time></trkpt><trkpt lat="44.73179731622866" lon="10.061666554733158"><ele>368.0</ele><time>2026-04-04T07:33:41.999Z</time></trkpt><trkpt lat="44.73185830096338" lon="10.061811093995644"><ele>366.5</ele><time>2026-04-04T07:33:42.999Z</time></trkpt><trkpt lat="44.73191078234026" lon="10.061968801980328"><ele>365.0</ele><time>2026-04-04T07:33:43.999Z</time></trkpt><trkpt lat="44.731956014826466" lon="10.062111427028782"><ele>363.5</ele><time>2026-04-04T07:33:44.999Z</time></trkpt><trkpt lat="44.731997309144624" lon="10.062240250255664"><ele>362.0</ele><time>2026-04-04T07:33:45.999Z</time></trkpt><trkpt lat="44.732053663714154" lon="10.062396248961841"><ele>362.25</ele><time>2026-04-04T07:33:46.999Z</time></trkpt><trkpt lat="44.732116291498464" lon="10.062574565608296"><ele>362.5</ele><time>2026-04-04T07:33:47.998Z</time></trkpt><trkpt lat="44.73217754339392" lon="10.06273701473552"><ele>362.75</ele><time>2026-04-04T07:33:48.998Z</time></trkpt><trkpt lat="44.73223383044919" lon="10.062870013902236"><ele>363.0</ele><time>2026-04-04T07:33:49.998Z</time></trkpt><trkpt lat="44.73229626674691" lon="10.063013872476011"><ele>363.0</ele><time>2026-04-04T07:33:50.998Z</time></trkpt><trkpt lat="44.73236527412182" lon="10.063153171038147"><ele>363.0</ele><time>2026-04-04T07:33:51.998Z</time></trkpt><trkpt lat="44.732431910546524" lon="10.063250434172677"><ele>363.0</ele><time>2026-04-04T07:33:52.998Z</time></trkpt><trkpt lat="44.73249291300956" lon="10.063326426726778"><ele>363.0</ele><time>2026-04-04T07:33:53.998Z</time></trkpt><trkpt lat="44.73259533052129" lon="10.063393397697796"><ele>363.0</ele><time>2026-04-04T07:33:55.998Z</time></trkpt><trkpt lat="44.73267709770824" lon="10.063347122039456"><ele>361.79999999999995</ele><time>2026-04-04T07:33:57.998Z</time></trkpt><trkpt lat="44.732772940740006" lon="10.063321094879432"><ele>360.6</ele><time>2026-04-04T07:33:59.998Z</time></trkpt><trkpt lat="44.732861197695705" lon="10.06329341719682"><ele>359.4</ele><time>2026-04-04T07:34:03.998Z</time></trkpt><trkpt lat="44.732945402697666" lon="10.063279403878509"><ele>358.20000000000005</ele><time>2026-04-04T07:34:05.998Z</time></trkpt><trkpt lat="44.7330544522366" lon="10.06328343353228"><ele>357.0</ele><time>2026-04-04T07:34:07.998Z</time></trkpt><trkpt lat="44.73314653848148" lon="10.063275006736262"><ele>357.0</ele><time>2026-04-04T07:34:09.998Z</time></trkpt><trkpt lat="44.733251921854624" lon="10.063263930682524"><ele>357.0</ele><time>2026-04-04T07:34:11.998Z</time></trkpt><trkpt lat="44.733337196458024" lon="10.06323304587107"><ele>357.0</ele><time>2026-04-04T07:34:13.998Z</time></trkpt><trkpt lat="44.73340521795046" lon="10.06321645925126"><ele>357.0</ele><time>2026-04-04T07:34:16.998Z</time></trkpt><trkpt lat="44.733474941052634" lon="10.063193674066461"><ele>357.0</ele><time>2026-04-04T07:34:18.998Z</time></trkpt><trkpt lat="44.733562443988106" lon="10.063183567246902"><ele>357.0</ele><time>2026-04-04T07:34:20.998Z</time></trkpt><trkpt lat="44.733653667461724" lon="10.063211923834523"><ele>359.8333333333333</ele><time>2026-04-04T07:34:23.998Z</time></trkpt><trkpt lat="44.73375285367027" lon="10.063282301194603"><ele>362.6666666666667</ele><time>2026-04-04T07:34:25.998Z</time></trkpt><trkpt lat="44.733821893303194" lon="10.063325002762662"><ele>365.5</ele><time>2026-04-04T07:34:26.998Z</time></trkpt><trkpt lat="44.73389128158668" lon="10.063370139592154"><ele>368.33333333333337</ele><time>2026-04-04T07:34:27.998Z</time></trkpt><trkpt lat="44.73396361734339" lon="10.063417604964432"><ele>371.1666666666667</ele><time>2026-04-04T07:34:29Z</time></trkpt><trkpt lat="44.73403688900263" lon="10.063455584058191"><ele>374.0</ele><time>2026-04-04T07:34:30Z</time></trkpt><trkpt lat="44.73414349380887" lon="10.063459294714562"><ele>374.0</ele><time>2026-04-04T07:34:32Z</time></trkpt><trkpt lat="44.73423403129" lon="10.063317875320758"><ele>374.0</ele><time>2026-04-04T07:34:34Z</time></trkpt><trkpt lat="44.73429053736166" lon="10.063247949237333"><ele>374.0</ele><time>2026-04-04T07:34:35Z</time></trkpt><trkpt lat="44.734364160413236" lon="10.063231665109509"><ele>374.0</ele><time>2026-04-04T07:34:36Z</time></trkpt><trkpt lat="44.73443125188245" lon="10.063244446338446"><ele>374.0</ele><time>2026-04-04T07:34:37Z</time></trkpt><trkpt lat="44.73451125206829" lon="10.063264679707768"><ele>374.0</ele><time>2026-04-04T07:34:38Z</time></trkpt><trkpt lat="44.73459850749591" lon="10.063281463690377"><ele>374.79999999999995</ele><time>2026-04-04T07:34:39Z</time></trkpt><trkpt lat="44.734669112282596" lon="10.063292539545747"><ele>375.59999999999997</ele><time>2026-04-04T07:34:40Z</time></trkpt><trkpt lat="44.73474036281386" lon="10.063354274000037"><ele>376.4</ele><time>2026-04-04T07:34:42Z</time></trkpt><trkpt lat="44.734780635138975" lon="10.063525478639555"><ele>377.2</ele><time>2026-04-04T07:34:44Z</time></trkpt><trkpt lat="44.73488331738992" lon="10.063578467248341"><ele>378.0</ele><time>2026-04-04T07:34:46Z</time></trkpt><trkpt lat="44.73495073146456" lon="10.063588159961661"><ele>378.0</ele><time>2026-04-04T07:34:47Z</time></trkpt><trkpt lat="44.735024009089436" lon="10.06362755892868"><ele>378.0</ele><time>2026-04-04T07:34:48Z</time></trkpt><trkpt lat="44.73509640365988" lon="10.063728050380417"><ele>378.0</ele><time>2026-04-04T07:34:50Z</time></trkpt><trkpt lat="44.73520311093591" lon="10.06376230613035"><ele>378.0</ele><time>2026-04-04T07:34:52Z</time></trkpt><trkpt lat="44.73532159299553" lon="10.063793072045742"><ele>378.0</ele><time>2026-04-04T07:34:54Z</time></trkpt><trkpt lat="44.73539693493455" lon="10.063800734309993"><ele>377.8333333333333</ele><time>2026-04-04T07:34:56Z</time></trkpt><trkpt lat="44.7353920577921" lon="10.06391299108685"><ele>377.6666666666667</ele><time>2026-04-04T07:34:58Z</time></trkpt><trkpt lat="44.73530289820388" lon="10.063991155967997"><ele>377.5</ele><time>2026-04-04T07:35:00Z</time></trkpt><trkpt lat="44.73524714926222" lon="10.064077873642647"><ele>377.33333333333337</ele><time>2026-04-04T07:35:02Z</time></trkpt><trkpt lat="44.73517613000411" lon="10.064132472461393"><ele>377.1666666666667</ele><time>2026-04-04T07:35:10.999Z</time></trkpt><trkpt lat="44.73510684273496" lon="10.064190934137327"><ele>377.0</ele><time>2026-04-04T07:35:24.999Z</time></trkpt><trkpt lat="44.73498370763854" lon="10.064236140651623"><ele>380.0</ele><time>2026-04-04T07:35:28.999Z</time></trkpt><trkpt lat="44.734886791751" lon="10.064294851981828"><ele>383.0</ele><time>2026-04-04T07:35:30.999Z</time></trkpt><trkpt lat="44.73481748349377" lon="10.064312809970774"><ele>386.0</ele><time>2026-04-04T07:35:31.999Z</time></trkpt><trkpt lat="44.734749398639664" lon="10.064325212344414"><ele>389.0</ele><time>2026-04-04T07:35:32.999Z</time></trkpt><trkpt lat="44.734658665262074" lon="10.064413666351562"><ele>392.0</ele><time>2026-04-04T07:35:34.999Z</time></trkpt><trkpt lat="44.734561685385685" lon="10.064475768949203"><ele>391.99999999999994</ele><time>2026-04-04T07:35:36.999Z</time></trkpt><trkpt lat="44.73450851657212" lon="10.064574026070826"><ele>392.0</ele><time>2026-04-04T07:35:37.999Z</time></trkpt><trkpt lat="44.73446149638334" lon="10.064662371440292"><ele>392.0</ele><time>2026-04-04T07:35:38.999Z</time></trkpt><trkpt lat="44.734406345907075" lon="10.064743179901512"><ele>392.0</ele><time>2026-04-04T07:35:39.999Z</time></trkpt><trkpt lat="44.734341421055255" lon="10.064798550153798"><ele>391.99999999999994</ele><time>2026-04-04T07:35:40.999Z</time></trkpt><trkpt lat="44.73428544106581" lon="10.0648626020739"><ele>392.0</ele><time>2026-04-04T07:35:41.999Z</time></trkpt><trkpt lat="44.734210739579574" lon="10.064972330277376"><ele>396.6</ele><time>2026-04-04T07:35:43.999Z</time></trkpt><trkpt lat="44.73417420880249" lon="10.065050343531944"><ele>401.20000000000005</ele><time>2026-04-04T07:35:44.999Z</time></trkpt><trkpt lat="44.73413370476397" lon="10.065142899972498"><ele>405.8</ele><time>2026-04-04T07:35:45.999Z</time></trkpt><trkpt lat="44.734050123148975" lon="10.065270342610821"><ele>410.4</ele><time>2026-04-04T07:35:47.999Z</time></trkpt><trkpt lat="44.73403436788832" lon="10.065453793969223"><ele>415.0</ele><time>2026-04-04T07:35:49.999Z</time></trkpt><trkpt lat="44.73403645492669" lon="10.065547054169153"><ele>415.0</ele><time>2026-04-04T07:35:50.999Z</time></trkpt><trkpt lat="44.734018760223094" lon="10.065640911573041"><ele>415.0</ele><time>2026-04-04T07:35:51.999Z</time></trkpt><trkpt lat="44.73402730865448" lon="10.065731983449618"><ele>415.0</ele><time>2026-04-04T07:35:52.999Z</time></trkpt><trkpt lat="44.73404703197844" lon="10.06584228900711"><ele>415.0</ele><time>2026-04-04T07:35:53.998Z</time></trkpt><trkpt lat="44.734080322824866" lon="10.065937529071363"><ele>415.0</ele><time>2026-04-04T07:35:54.998Z</time></trkpt><trkpt lat="44.73410571470115" lon="10.066037390742682"><ele>415.0</ele><time>2026-04-04T07:35:55.998Z</time></trkpt><trkpt lat="44.73414956748223" lon="10.066117500424843"><ele>415.0</ele><time>2026-04-04T07:35:56.998Z</time></trkpt><trkpt lat="44.734219733927866" lon="10.066183605872084"><ele>415.50000000000006</ele><time>2026-04-04T07:35:58.998Z</time></trkpt><trkpt lat="44.734273185368274" lon="10.066289643515066"><ele>416.0</ele><time>2026-04-04T07:36:00.998Z</time></trkpt><trkpt lat="44.734272191632094" lon="10.066391187495938"><ele>416.5</ele><time>2026-04-04T07:36:01.998Z</time></trkpt><trkpt lat="44.73424566487533" lon="10.066494415930592"><ele>417.0</ele><time>2026-04-04T07:36:02.998Z</time></trkpt><trkpt lat="44.73422296665967" lon="10.066588680306793"><ele>417.50000000000006</ele><time>2026-04-04T07:36:03.998Z</time></trkpt><trkpt lat="44.73421646135424" lon="10.066691235944788"><ele>418.0</ele><time>2026-04-04T07:36:04.998Z</time></trkpt><trkpt lat="44.7342199616216" lon="10.06679382928539"><ele>419.83333333333337</ele><time>2026-04-04T07:36:05.998Z</time></trkpt><trkpt lat="44.73422634947465" lon="10.066887183689069"><ele>421.6666666666667</ele><time>2026-04-04T07:36:06.998Z</time></trkpt><trkpt lat="44.73420600983548" lon="10.066989848376492"><ele>423.5</ele><time>2026-04-04T07:36:07.998Z</time></trkpt><trkpt lat="44.73419194300371" lon="10.067094238724643"><ele>425.33333333333337</ele><time>2026-04-04T07:36:08.998Z</time></trkpt><trkpt lat="44.73418858410259" lon="10.06725557664226"><ele>427.1666666666667</ele><time>2026-04-04T07:36:10.998Z</time></trkpt><trkpt lat="44.734176537073914" lon="10.067367682667264"><ele>429.0</ele><time>2026-04-04T07:36:11.998Z</time></trkpt><trkpt lat="44.73415301971215" lon="10.06747631714122"><ele>429.5</ele><time>2026-04-04T07:36:12.998Z</time></trkpt><trkpt lat="44.73411513891416" lon="10.067589200720715"><ele>430.0</ele><time>2026-04-04T07:36:13.998Z</time></trkpt><trkpt lat="44.73406153092833" lon="10.06770967493249"><ele>430.5</ele><time>2026-04-04T07:36:14.998Z</time></trkpt><trkpt lat="44.73404689220365" lon="10.06780078077459"><ele>431.0</ele><time>2026-04-04T07:36:15.998Z</time></trkpt><trkpt lat="44.73405321541378" lon="10.067937696696518"><ele>431.5</ele><time>2026-04-04T07:36:17.998Z</time></trkpt><trkpt lat="44.73405975675032" lon="10.068031626116142"><ele>432.0</ele><time>2026-04-04T07:36:18.998Z</time></trkpt><trkpt lat="44.73404646779422" lon="10.068176791990417"><ele>432.0</ele><time>2026-04-04T07:36:19.998Z</time></trkpt><trkpt lat="44.73404912422738" lon="10.068282924894469"><ele>432.0</ele><time>2026-04-04T07:36:20.998Z</time></trkpt><trkpt lat="44.73405473881979" lon="10.068378149286785"><ele>432.0</ele><time>2026-04-04T07:36:21.998Z</time></trkpt><trkpt lat="44.73405047003869" lon="10.068536046307203"><ele>432.0</ele><time>2026-04-04T07:36:23.998Z</time></trkpt><trkpt lat="44.73407997829313" lon="10.068629759059764"><ele>432.0</ele><time>2026-04-04T07:36:24.998Z</time></trkpt><trkpt lat="44.73411426765357" lon="10.06877306045414"><ele>432.0</ele><time>2026-04-04T07:36:26.998Z</time></trkpt><trkpt lat="44.73413828693906" lon="10.068864392200517"><ele>432.0</ele><time>2026-04-04T07:36:28.998Z</time></trkpt><trkpt lat="44.73418840051641" lon="10.068926179629193"><ele>432.0</ele><time>2026-04-04T07:36:30.998Z</time></trkpt><trkpt lat="44.73426645383988" lon="10.069005213844095"><ele>432.0</ele><time>2026-04-04T07:36:32.998Z</time></trkpt><trkpt lat="44.73431666560504" lon="10.069061276667966"><ele>432.0</ele><time>2026-04-04T07:36:33.998Z</time></trkpt><trkpt lat="44.734381166896284" lon="10.069121333856208"><ele>432.0</ele><time>2026-04-04T07:36:35Z</time></trkpt><trkpt lat="44.73446802365431" lon="10.069188203101588"><ele>432.0</ele><time>2026-04-04T07:36:36Z</time></trkpt><trkpt lat="44.734540118514204" lon="10.069242771741438"><ele>429.6</ele><time>2026-04-04T07:36:37Z</time></trkpt><trkpt lat="44.734589618359266" lon="10.069306345587677"><ele>427.20000000000005</ele><time>2026-04-04T07:36:38Z</time></trkpt><trkpt lat="44.73468231909677" lon="10.06938836052218"><ele>424.8</ele><time>2026-04-04T07:36:40Z</time></trkpt><trkpt lat="44.73482018954396" lon="10.069423882183356"><ele>422.4</ele><time>2026-04-04T07:36:42Z</time></trkpt><trkpt lat="44.73492227335583" lon="10.069448447343035"><ele>420.0</ele><time>2026-04-04T07:36:43Z</time></trkpt><trkpt lat="44.7349933436101" lon="10.06945232709656"><ele>420.0</ele><time>2026-04-04T07:36:44Z</time></trkpt><trkpt lat="44.735077671166074" lon="10.069493841380613"><ele>420.0</ele><time>2026-04-04T07:36:45Z</time></trkpt><trkpt lat="44.73516185623913" lon="10.069552594306327"><ele>420.0</ele><time>2026-04-04T07:36:46Z</time></trkpt><trkpt lat="44.735296034339775" lon="10.0696229142163"><ele>420.0</ele><time>2026-04-04T07:36:48Z</time></trkpt><trkpt lat="44.735356746001415" lon="10.069693790976139"><ele>420.0</ele><time>2026-04-04T07:36:49Z</time></trkpt><trkpt lat="44.73542317618336" lon="10.069754160925738"><ele>419.0</ele><time>2026-04-04T07:36:50Z</time></trkpt><trkpt lat="44.7354868206767" lon="10.069787570901285"><ele>418.0</ele><time>2026-04-04T07:36:51Z</time></trkpt><trkpt lat="44.735550937775606" lon="10.069824244835878"><ele>417.0</ele><time>2026-04-04T07:36:53Z</time></trkpt><trkpt lat="44.73561709707976" lon="10.069842455900911"><ele>416.0</ele><time>2026-04-04T07:38:09.998Z</time></trkpt><trkpt lat="44.73570306818219" lon="10.069990701390324"><ele>415.0</ele><time>2026-04-04T07:38:15.998Z</time></trkpt><trkpt lat="44.735739693280834" lon="10.070072718270985"><ele>414.0</ele><time>2026-04-04T07:38:16.998Z</time></trkpt><trkpt lat="44.73579954251377" lon="10.070102235927154"><ele>414.0</ele><time>2026-04-04T07:38:17.998Z</time></trkpt><trkpt lat="44.73589933919552" lon="10.070232591421886"><ele>414.0</ele><time>2026-04-04T07:38:19.998Z</time></trkpt><trkpt lat="44.735944112372074" lon="10.070300192738912"><ele>414.0</ele><time>2026-04-04T07:38:20.998Z</time></trkpt><trkpt lat="44.73599651385428" lon="10.070362665017049"><ele>414.0</ele><time>2026-04-04T07:38:21.998Z</time></trkpt><trkpt lat="44.73605111591077" lon="10.070416976737608"><ele>414.0</ele><time>2026-04-04T07:38:22.998Z</time></trkpt><trkpt lat="44.73611152492865" lon="10.070487108175447"><ele>414.0</ele><time>2026-04-04T07:38:23.998Z</time></trkpt><trkpt lat="44.73616721275518" lon="10.07054672258115"><ele>414.5</ele><time>2026-04-04T07:38:24.998Z</time></trkpt><trkpt lat="44.73622454961509" lon="10.070587128707787"><ele>415.0</ele><time>2026-04-04T07:38:25.998Z</time></trkpt><trkpt lat="44.73629106795628" lon="10.070634306117757"><ele>415.5</ele><time>2026-04-04T07:38:27.998Z</time></trkpt><trkpt lat="44.73633846412985" lon="10.070752733175027"><ele>416.0</ele><time>2026-04-04T07:38:29.998Z</time></trkpt><trkpt lat="44.73636179193637" lon="10.070846202450705"><ele>416.5</ele><time>2026-04-04T07:38:30.998Z</time></trkpt><trkpt lat="44.736397564997574" lon="10.07097361127909"><ele>417.0</ele><time>2026-04-04T07:38:32.998Z</time></trkpt><trkpt lat="44.736435036480565" lon="10.071053853565324"><ele>417.0</ele><time>2026-04-04T07:38:33.998Z</time></trkpt><trkpt lat="44.736476622063314" lon="10.071125611629757"><ele>417.0</ele><time>2026-04-04T07:38:34.998Z</time></trkpt><trkpt lat="44.7365239870973" lon="10.071261511336226"><ele>417.0</ele><time>2026-04-04T07:38:36.998Z</time></trkpt><trkpt lat="44.73657623982837" lon="10.07137940746196"><ele>417.0</ele><time>2026-04-04T07:38:38.998Z</time></trkpt><trkpt lat="44.73665145216742" lon="10.071521975383268"><ele>417.0</ele><time>2026-04-04T07:38:41Z</time></trkpt><trkpt lat="44.73677513297787" lon="10.071584063259364"><ele>417.0</ele><time>2026-04-04T07:38:43Z</time></trkpt><trkpt lat="44.73684062548501" lon="10.07159444707142"><ele>417.0</ele><time>2026-04-04T07:38:44Z</time></trkpt><trkpt lat="44.736905296740616" lon="10.071610532537179"><ele>417.0</ele><time>2026-04-04T07:38:45Z</time></trkpt><trkpt lat="44.736970101559415" lon="10.07163028530866"><ele>417.0</ele><time>2026-04-04T07:38:46Z</time></trkpt><trkpt lat="44.73704165340635" lon="10.071643763620397"><ele>417.0</ele><time>2026-04-04T07:38:47Z</time></trkpt><trkpt lat="44.73714348315509" lon="10.071643907234298"><ele>417.0</ele><time>2026-04-04T07:38:49Z</time></trkpt><trkpt lat="44.737245299021474" lon="10.071643724435399"><ele>417.5714285714286</ele><time>2026-04-04T07:38:51Z</time></trkpt><trkpt lat="44.73731868482261" lon="10.071607262732327"><ele>418.1428571428571</ele><time>2026-04-04T07:38:53Z</time></trkpt><trkpt lat="44.737377698679474" lon="10.071565973666367"><ele>418.7142857142857</ele><time>2026-04-04T07:38:55Z</time></trkpt><trkpt lat="44.73742198098753" lon="10.071659055310276"><ele>419.28571428571433</ele><time>2026-04-04T07:38:58Z</time></trkpt><trkpt lat="44.737393519832715" lon="10.071746437915927"><ele>419.8571428571429</ele><time>2026-04-04T07:38:59Z</time></trkpt><trkpt lat="44.737353413803355" lon="10.071844572091326"><ele>420.42857142857144</ele><time>2026-04-04T07:39:00Z</time></trkpt><trkpt lat="44.73730439837917" lon="10.071918063829933"><ele>421.0</ele><time>2026-04-04T07:39:01Z</time></trkpt><trkpt lat="44.73723999042019" lon="10.071956587533007"><ele>421.0</ele><time>2026-04-04T07:39:02Z</time></trkpt><trkpt lat="44.73717620136204" lon="10.071946850305425"><ele>421.0</ele><time>2026-04-04T07:39:03Z</time></trkpt><trkpt lat="44.73708021993055" lon="10.071929959853836"><ele>421.0</ele><time>2026-04-04T07:39:04Z</time></trkpt><trkpt lat="44.736980785711886" lon="10.071952907800348"><ele>421.0</ele><time>2026-04-04T07:39:05Z</time></trkpt><trkpt lat="44.736886550808165" lon="10.072017241725046"><ele>421.0</ele><time>2026-04-04T07:39:06Z</time></trkpt><trkpt lat="44.7367936560876" lon="10.07209224320433"><ele>421.4</ele><time>2026-04-04T07:39:07Z</time></trkpt><trkpt lat="44.73672165709481" lon="10.072167308914855"><ele>421.8</ele><time>2026-04-04T07:39:08Z</time></trkpt><trkpt lat="44.73663400189113" lon="10.07224245317085"><ele>422.2</ele><time>2026-04-04T07:39:09Z</time></trkpt><trkpt lat="44.736569475782275" lon="10.072327163378349"><ele>422.59999999999997</ele><time>2026-04-04T07:39:10Z</time></trkpt><trkpt lat="44.73650465770659" lon="10.0724221363043"><ele>423.0</ele><time>2026-04-04T07:39:11Z</time></trkpt><trkpt lat="44.73645331128053" lon="10.072515377454216"><ele>422.0</ele><time>2026-04-04T07:39:12Z</time></trkpt><trkpt lat="44.736404175767326" lon="10.072614401379658"><ele>421.0</ele><time>2026-04-04T07:39:13Z</time></trkpt><trkpt lat="44.736362678825174" lon="10.072713679476639"><ele>420.0</ele><time>2026-04-04T07:39:14Z</time></trkpt><trkpt lat="44.736320829033794" lon="10.072809380579823"><ele>419.0</ele><time>2026-04-04T07:39:15Z</time></trkpt><trkpt lat="44.73629937260637" lon="10.072898507060007"><ele>418.0</ele><time>2026-04-04T07:39:16Z</time></trkpt><trkpt lat="44.736287032446114" lon="10.073001501997425"><ele>417.0</ele><time>2026-04-04T07:39:16.999Z</time></trkpt><trkpt lat="44.73628848966203" lon="10.073135012564576"><ele>415.0</ele><time>2026-04-04T07:39:17.999Z</time></trkpt><trkpt lat="44.7362806949096" lon="10.073296021417132"><ele>413.0</ele><time>2026-04-04T07:39:18.999Z</time></trkpt><trkpt lat="44.736270370679385" lon="10.07345284340379"><ele>411.0</ele><time>2026-04-04T07:39:19.999Z</time></trkpt><trkpt lat="44.73626220005149" lon="10.073572310180744"><ele>409.0</ele><time>2026-04-04T07:39:20.999Z</time></trkpt><trkpt lat="44.7362624743437" lon="10.073686387229124"><ele>407.0</ele><time>2026-04-04T07:39:21.999Z</time></trkpt><trkpt lat="44.73623897401084" lon="10.07380949791623"><ele>406.99999999999994</ele><time>2026-04-04T07:39:22.999Z</time></trkpt><trkpt lat="44.736218852444146" lon="10.07392546167078"><ele>407.0</ele><time>2026-04-04T07:39:23.999Z</time></trkpt><trkpt lat="44.736205734206415" lon="10.074046743450836"><ele>407.0</ele><time>2026-04-04T07:39:24.999Z</time></trkpt><trkpt lat="44.736171987121296" lon="10.074122040879693"><ele>407.0</ele><time>2026-04-04T07:39:25.999Z</time></trkpt><trkpt lat="44.73610477709887" lon="10.074297950787464"><ele>406.99999999999994</ele><time>2026-04-04T07:39:27.999Z</time></trkpt><trkpt lat="44.736085361904436" lon="10.074392909090479"><ele>407.0</ele><time>2026-04-04T07:39:28.999Z</time></trkpt><trkpt lat="44.73603619721166" lon="10.074474382525063"><ele>407.0</ele><time>2026-04-04T07:39:29.999Z</time></trkpt><trkpt lat="44.73598836856259" lon="10.07460045039575"><ele>407.0</ele><time>2026-04-04T07:39:30.999Z</time></trkpt><trkpt lat="44.73592917833305" lon="10.074734007047025"><ele>407.0</ele><time>2026-04-04T07:39:31.999Z</time></trkpt><trkpt lat="44.735879159325016" lon="10.07485155530035"><ele>407.0</ele><time>2026-04-04T07:39:32.999Z</time></trkpt><trkpt lat="44.73582687464069" lon="10.074972611037822"><ele>407.0</ele><time>2026-04-04T07:39:33.999Z</time></trkpt><trkpt lat="44.73577527906228" lon="10.075092071354172"><ele>406.99999999999994</ele><time>2026-04-04T07:39:34.999Z</time></trkpt><trkpt lat="44.73573113473448" lon="10.075194279556902"><ele>407.0</ele><time>2026-04-04T07:39:35.999Z</time></trkpt><trkpt lat="44.73568616384614" lon="10.075302418777877"><ele>407.0</ele><time>2026-04-04T07:39:36.999Z</time></trkpt><trkpt lat="44.735645610821585" lon="10.075401263363945"><ele>407.0</ele><time>2026-04-04T07:39:37.999Z</time></trkpt><trkpt lat="44.735621441921204" lon="10.075493074387987"><ele>406.99999999999994</ele><time>2026-04-04T07:39:38.999Z</time></trkpt><trkpt lat="44.73558847464348" lon="10.075592717042305"><ele>407.0</ele><time>2026-04-04T07:39:39.999Z</time></trkpt><trkpt lat="44.735568499320806" lon="10.075699875140543"><ele>408.0</ele><time>2026-04-04T07:39:40.999Z</time></trkpt><trkpt lat="44.73554184735738" lon="10.075825794373694"><ele>409.0</ele><time>2026-04-04T07:39:41.999Z</time></trkpt><trkpt lat="44.73552332746367" lon="10.075950826478827"><ele>410.0</ele><time>2026-04-04T07:39:42.999Z</time></trkpt><trkpt lat="44.735525562300964" lon="10.076084577006855"><ele>411.0</ele><time>2026-04-04T07:39:43.999Z</time></trkpt><trkpt lat="44.73552975442421" lon="10.076222881232727"><ele>412.0</ele><time>2026-04-04T07:39:44.999Z</time></trkpt><trkpt lat="44.73554467204" lon="10.076364399408433"><ele>412.00000000000006</ele><time>2026-04-04T07:39:45.999Z</time></trkpt><trkpt lat="44.73555181294622" lon="10.076466219513625"><ele>412.0</ele><time>2026-04-04T07:39:46.999Z</time></trkpt><trkpt lat="44.735559874262925" lon="10.076578715694476"><ele>412.0</ele><time>2026-04-04T07:39:47.999Z</time></trkpt><trkpt lat="44.73555839701335" lon="10.076693549540922"><ele>412.0</ele><time>2026-04-04T07:39:48.999Z</time></trkpt><trkpt lat="44.73554800881558" lon="10.076811095157032"><ele>412.00000000000006</ele><time>2026-04-04T07:39:49.999Z</time></trkpt><trkpt lat="44.73553069963121" lon="10.07691953867325"><ele>412.0</ele><time>2026-04-04T07:39:50.999Z</time></trkpt><trkpt lat="44.735505083692544" lon="10.07703125607499"><ele>412.00000000000006</ele><time>2026-04-04T07:39:51.999Z</time></trkpt><trkpt lat="44.735468455100744" lon="10.07714462582155"><ele>412.0</ele><time>2026-04-04T07:39:52.999Z</time></trkpt><trkpt lat="44.73542556290461" lon="10.07722675288561"><ele>412.0</ele><time>2026-04-04T07:39:53.999Z</time></trkpt><trkpt lat="44.73537068003254" lon="10.077326310759386"><ele>412.0</ele><time>2026-04-04T07:39:54.999Z</time></trkpt><trkpt lat="44.735317599007374" lon="10.07741249185466"><ele>412.00000000000006</ele><time>2026-04-04T07:39:55.999Z</time></trkpt><trkpt lat="44.735263670982775" lon="10.077487049405006"><ele>412.0</ele><time>2026-04-04T07:39:56.999Z</time></trkpt><trkpt lat="44.73520364481981" lon="10.077594605031411"><ele>411.8</ele><time>2026-04-04T07:39:58.999Z</time></trkpt><trkpt lat="44.735110032893374" lon="10.077715925502721"><ele>411.6</ele><time>2026-04-04T07:40:00.999Z</time></trkpt><trkpt lat="44.73504682863186" lon="10.077843206530657"><ele>411.40000000000003</ele><time>2026-04-04T07:40:02.999Z</time></trkpt><trkpt lat="44.73500820223654" lon="10.077980930863033"><ele>411.20000000000005</ele><time>2026-04-04T07:40:04.998Z</time></trkpt><trkpt lat="44.735007185109616" lon="10.078121260264954"><ele>411.0</ele><time>2026-04-04T07:40:06.998Z</time></trkpt><trkpt lat="44.7350040607935" lon="10.078255360382235"><ele>411.5</ele><time>2026-04-04T07:40:08.998Z</time></trkpt><trkpt lat="44.734987844492444" lon="10.078352770397034"><ele>412.0</ele><time>2026-04-04T07:40:10.998Z</time></trkpt><trkpt lat="44.73493942903414" lon="10.078449984825953"><ele>412.5</ele><time>2026-04-04T07:40:13.998Z</time></trkpt><trkpt lat="44.73488862542061" lon="10.078525889037376"><ele>413.0</ele><time>2026-04-04T07:40:15.998Z</time></trkpt><trkpt lat="44.73482502910652" lon="10.078561097775756"><ele>413.5</ele><time>2026-04-04T07:40:17.998Z</time></trkpt><trkpt lat="44.7347296287131" lon="10.078576645324505"><ele>414.0</ele><time>2026-04-04T07:40:19.998Z</time></trkpt><trkpt lat="44.73466086464939" lon="10.078605906888232"><ele>414.0</ele><time>2026-04-04T07:40:22.998Z</time></trkpt><trkpt lat="44.73460196333985" lon="10.078650661398513"><ele>414.0</ele><time>2026-04-04T07:40:24.998Z</time></trkpt><trkpt lat="44.73453834895768" lon="10.078696631139696"><ele>414.0</ele><time>2026-04-04T07:40:27.998Z</time></trkpt><trkpt lat="44.734465828693644" lon="10.07877254670661"><ele>414.0</ele><time>2026-04-04T07:40:30.998Z</time></trkpt><trkpt lat="44.7344188090869" lon="10.078839559703772"><ele>414.0</ele><time>2026-04-04T07:40:32.998Z</time></trkpt><trkpt lat="44.734383276981255" lon="10.078951343350496"><ele>414.0</ele><time>2026-04-04T07:40:34.998Z</time></trkpt><trkpt lat="44.734349066654175" lon="10.079045462724538"><ele>409.1666666666667</ele><time>2026-04-04T07:40:35.998Z</time></trkpt><trkpt lat="44.73431774117336" lon="10.079123932035529"><ele>404.33333333333337</ele><time>2026-04-04T07:40:36.998Z</time></trkpt><trkpt lat="44.7342569792685" lon="10.079243085044581"><ele>399.5</ele><time>2026-04-04T07:40:38.998Z</time></trkpt><trkpt lat="44.73423359770999" lon="10.07935507061735"><ele>394.6666666666667</ele><time>2026-04-04T07:40:40.998Z</time></trkpt><trkpt lat="44.73414468353789" lon="10.079418697682158"><ele>389.83333333333337</ele><time>2026-04-04T07:40:42.998Z</time></trkpt><trkpt lat="44.734083946997536" lon="10.079442966048713"><ele>385.0</ele><time>2026-04-04T07:40:43.998Z</time></trkpt><trkpt lat="44.734011475855795" lon="10.079456298367475"><ele>385.00000000000006</ele><time>2026-04-04T07:40:44.998Z</time></trkpt><trkpt lat="44.73394604503774" lon="10.079473586250213"><ele>385.0</ele><time>2026-04-04T07:40:45.998Z</time></trkpt><trkpt lat="44.733883769024565" lon="10.07949731018228"><ele>385.0</ele><time>2026-04-04T07:40:47Z</time></trkpt><trkpt lat="44.73380918369365" lon="10.07955240449042"><ele>385.0</ele><time>2026-04-04T07:40:49Z</time></trkpt><trkpt lat="44.733762693115985" lon="10.07966091399696"><ele>385.00000000000006</ele><time>2026-04-04T07:40:51Z</time></trkpt><trkpt lat="44.73370438140317" lon="10.079758737530694"><ele>385.0</ele><time>2026-04-04T07:40:52Z</time></trkpt><trkpt lat="44.73364701216275" lon="10.079840344393949"><ele>385.00000000000006</ele><time>2026-04-04T07:40:53Z</time></trkpt><trkpt lat="44.733586906608906" lon="10.079889770814896"><ele>385.0</ele><time>2026-04-04T07:40:54Z</time></trkpt><trkpt lat="44.73352654239818" lon="10.079957475476364"><ele>385.0</ele><time>2026-04-04T07:40:56Z</time></trkpt><trkpt lat="44.733460874487605" lon="10.080050281243443"><ele>385.0</ele><time>2026-04-04T07:40:58Z</time></trkpt><trkpt lat="44.733391141870065" lon="10.080149119533605"><ele>385.00000000000006</ele><time>2026-04-04T07:41:00Z</time></trkpt><trkpt lat="44.73332865945443" lon="10.080251768043889"><ele>385.0</ele><time>2026-04-04T07:41:02Z</time></trkpt><trkpt lat="44.73328538545072" lon="10.08032902976104"><ele>380.50000000000006</ele><time>2026-04-04T07:41:03Z</time></trkpt><trkpt lat="44.733241129031676" lon="10.080406038891299"><ele>376.0</ele><time>2026-04-04T07:41:04Z</time></trkpt><trkpt lat="44.73319885866843" lon="10.08049041309981"><ele>371.5</ele><time>2026-04-04T07:41:05Z</time></trkpt><trkpt lat="44.73315540101703" lon="10.080564210122938"><ele>367.0</ele><time>2026-04-04T07:41:06Z</time></trkpt><trkpt lat="44.733061553865475" lon="10.080686039151912"><ele>362.5</ele><time>2026-04-04T07:41:08Z</time></trkpt><trkpt lat="44.73299957815268" lon="10.080749915555002"><ele>358.0</ele><time>2026-04-04T07:41:09Z</time></trkpt><trkpt lat="44.73294097177848" lon="10.080810805160564"><ele>356.0</ele><time>2026-04-04T07:41:10Z</time></trkpt><trkpt lat="44.73288487810675" lon="10.080874117722455"><ele>354.0</ele><time>2026-04-04T07:41:11Z</time></trkpt><trkpt lat="44.73278791151089" lon="10.080986085151821"><ele>352.0</ele><time>2026-04-04T07:41:13Z</time></trkpt><trkpt lat="44.73273794155084" lon="10.081049935389247"><ele>350.0</ele><time>2026-04-04T07:41:14Z</time></trkpt><trkpt lat="44.7326813071605" lon="10.08112511773116"><ele>348.0</ele><time>2026-04-04T07:41:15Z</time></trkpt><trkpt lat="44.73261184072751" lon="10.081206691426445"><ele>346.0</ele><time>2026-04-04T07:41:16Z</time></trkpt><trkpt lat="44.73255594584341" lon="10.081270475973193"><ele>344.5</ele><time>2026-04-04T07:41:17Z</time></trkpt><trkpt lat="44.73249607343296" lon="10.081341322262245"><ele>343.0</ele><time>2026-04-04T07:41:18Z</time></trkpt><trkpt lat="44.732444870212966" lon="10.081401986784885"><ele>341.5</ele><time>2026-04-04T07:41:19Z</time></trkpt><trkpt lat="44.73233400966612" lon="10.081466097158149"><ele>340.0</ele><time>2026-04-04T07:41:21Z</time></trkpt><trkpt lat="44.73226175626831" lon="10.081474507976397"><ele>338.5</ele><time>2026-04-04T07:41:22Z</time></trkpt><trkpt lat="44.73219163103789" lon="10.08149900883391"><ele>337.0</ele><time>2026-04-04T07:41:23Z</time></trkpt><trkpt lat="44.732122662593376" lon="10.081549212682797"><ele>336.3333333333333</ele><time>2026-04-04T07:41:23.999Z</time></trkpt><trkpt lat="44.732065681322574" lon="10.081603416925416"><ele>335.66666666666663</ele><time>2026-04-04T07:41:24.999Z</time></trkpt><trkpt lat="44.73201712339194" lon="10.081671116152734"><ele>335.0</ele><time>2026-04-04T07:41:25.999Z</time></trkpt><trkpt lat="44.731978029391286" lon="10.08177342954909"><ele>334.3333333333333</ele><time>2026-04-04T07:41:26.999Z</time></trkpt><trkpt lat="44.731938529978414" lon="10.08189665191927"><ele>333.6666666666667</ele><time>2026-04-04T07:41:27.999Z</time></trkpt><trkpt lat="44.73188912093162" lon="10.082000456754784"><ele>333.0</ele><time>2026-04-04T07:41:28.999Z</time></trkpt><trkpt lat="44.73185086633929" lon="10.08209113303719"><ele>331.5714285714286</ele><time>2026-04-04T07:41:29.999Z</time></trkpt><trkpt lat="44.7318250123003" lon="10.0821720776534"><ele>330.1428571428571</ele><time>2026-04-04T07:41:30.999Z</time></trkpt><trkpt lat="44.73180009102281" lon="10.08227961034758"><ele>328.7142857142857</ele><time>2026-04-04T07:41:32.999Z</time></trkpt><trkpt lat="44.731767221085896" lon="10.08239425744083"><ele>327.28571428571433</ele><time>2026-04-04T07:41:35.999Z</time></trkpt><trkpt lat="44.731753387239365" lon="10.082486199834426"><ele>325.8571428571429</ele><time>2026-04-04T07:41:37.999Z</time></trkpt><trkpt lat="44.73175115165681" lon="10.082575139237221"><ele>324.42857142857144</ele><time>2026-04-04T07:41:39.999Z</time></trkpt><trkpt lat="44.73173768064212" lon="10.08266361209127"><ele>323.0</ele><time>2026-04-04T07:41:41.999Z</time></trkpt><trkpt lat="44.7317229961054" lon="10.082751403923906"><ele>323.0</ele><time>2026-04-04T07:41:43.999Z</time></trkpt><trkpt lat="44.73169462238991" lon="10.082834020427311"><ele>323.0</ele><time>2026-04-04T07:41:45.999Z</time></trkpt><trkpt lat="44.73164908737214" lon="10.082913163974908"><ele>323.0</ele><time>2026-04-04T07:41:47.999Z</time></trkpt><trkpt lat="44.731622339882605" lon="10.083022400327208"><ele>323.0</ele><time>2026-04-04T07:41:49.999Z</time></trkpt><trkpt lat="44.73160186102604" lon="10.08313682480054"><ele>323.0</ele><time>2026-04-04T07:41:51.999Z</time></trkpt><trkpt lat="44.73155972853162" lon="10.083250057654894"><ele>323.0</ele><time>2026-04-04T07:41:53.999Z</time></trkpt><trkpt lat="44.73151745208702" lon="10.083352538339978"><ele>322.5</ele><time>2026-04-04T07:41:55.999Z</time></trkpt><trkpt lat="44.73148173229355" lon="10.083462063045964"><ele>322.0</ele><time>2026-04-04T07:41:57.999Z</time></trkpt><trkpt lat="44.73145328023408" lon="10.083602517192885"><ele>321.5</ele><time>2026-04-04T07:41:59.999Z</time></trkpt><trkpt lat="44.73141724445937" lon="10.083742386954881"><ele>321.0</ele><time>2026-04-04T07:42:01.999Z</time></trkpt><trkpt lat="44.731388716296266" lon="10.083821564223546"><ele>320.5</ele><time>2026-04-04T07:42:02.999Z</time></trkpt><trkpt lat="44.73135182474554" lon="10.083925659619064"><ele>320.0</ele><time>2026-04-04T07:42:03.999Z</time></trkpt><trkpt lat="44.731319588489505" lon="10.084045625066988"><ele>319.0</ele><time>2026-04-04T07:42:04.999Z</time></trkpt><trkpt lat="44.731280524803196" lon="10.084157812085605"><ele>318.0</ele><time>2026-04-04T07:42:05.999Z</time></trkpt><trkpt lat="44.73125414735901" lon="10.084267342426699"><ele>317.0</ele><time>2026-04-04T07:42:06.999Z</time></trkpt><trkpt lat="44.73122838519874" lon="10.084380489531503"><ele>316.0</ele><time>2026-04-04T07:42:07.999Z</time></trkpt><trkpt lat="44.73121164206277" lon="10.084475459409308"><ele>315.0</ele><time>2026-04-04T07:42:08.999Z</time></trkpt><trkpt lat="44.73120723522382" lon="10.084577689394353"><ele>314.0</ele><time>2026-04-04T07:42:09.999Z</time></trkpt><trkpt lat="44.7312176541823" lon="10.084700355001392"><ele>314.0</ele><time>2026-04-04T07:42:10.999Z</time></trkpt><trkpt lat="44.731235435225514" lon="10.0848278927325"><ele>314.0</ele><time>2026-04-04T07:42:11.999Z</time></trkpt><trkpt lat="44.73126301327746" lon="10.084930628099263"><ele>314.0</ele><time>2026-04-04T07:42:12.998Z</time></trkpt><trkpt lat="44.73131027096006" lon="10.085007881257553"><ele>314.0</ele><time>2026-04-04T07:42:13.998Z</time></trkpt><trkpt lat="44.73137026156428" lon="10.085099034680711"><ele>314.0</ele><time>2026-04-04T07:42:14.998Z</time></trkpt><trkpt lat="44.73143617061894" lon="10.08519699504517"><ele>314.0</ele><time>2026-04-04T07:42:15.998Z</time></trkpt><trkpt lat="44.73150459420001" lon="10.085281753890492"><ele>313.83333333333337</ele><time>2026-04-04T07:42:16.998Z</time></trkpt><trkpt lat="44.73153925170814" lon="10.085359280253892"><ele>313.6666666666667</ele><time>2026-04-04T07:42:17.998Z</time></trkpt><trkpt lat="44.731523770838145" lon="10.08545254745966"><ele>313.5</ele><time>2026-04-04T07:42:18.998Z</time></trkpt><trkpt lat="44.731552043159596" lon="10.085546177432496"><ele>313.3333333333333</ele><time>2026-04-04T07:42:19.998Z</time></trkpt><trkpt lat="44.731579793503585" lon="10.0856380787744"><ele>313.16666666666663</ele><time>2026-04-04T07:42:20.998Z</time></trkpt><trkpt lat="44.73156325946338" lon="10.085801955139127"><ele>313.0</ele><time>2026-04-04T07:42:22.998Z</time></trkpt><trkpt lat="44.73146500534853" lon="10.085770375324074"><ele>303.0</ele><time>2026-04-04T07:42:23.998Z</time></trkpt><trkpt lat="44.731929731246304" lon="10.085904842086828"><ele>303.0</ele><time>2026-04-04T07:42:24.998Z</time></trkpt><trkpt lat="44.73196877623043" lon="10.086005360404341"><ele>303.0</ele><time>2026-04-04T07:42:25.998Z</time></trkpt><trkpt lat="44.732006941178234" lon="10.086094094393458"><ele>303.0</ele><time>2026-04-04T07:42:26.998Z</time></trkpt><trkpt lat="44.732032454970586" lon="10.086194215152458"><ele>303.0</ele><time>2026-04-04T07:42:27.998Z</time></trkpt><trkpt lat="44.73206558863769" lon="10.086299662628862"><ele>303.0</ele><time>2026-04-04T07:42:28.998Z</time></trkpt><trkpt lat="44.7321028427091" lon="10.086398630907944"><ele>303.0</ele><time>2026-04-04T07:42:29.998Z</time></trkpt><trkpt lat="44.73214630713819" lon="10.086486026514065"><ele>303.0</ele><time>2026-04-04T07:42:30.998Z</time></trkpt><trkpt lat="44.73217987484533" lon="10.08657499019803"><ele>303.0</ele><time>2026-04-04T07:42:31.998Z</time></trkpt><trkpt lat="44.73217650878096" lon="10.086669148030555"><ele>303.0</ele><time>2026-04-04T07:42:32.998Z</time></trkpt><trkpt lat="44.732208177607916" lon="10.086792402009024"><ele>303.0</ele><time>2026-04-04T07:42:34.998Z</time></trkpt><trkpt lat="44.73225132547294" lon="10.086901580459552"><ele>303.0</ele><time>2026-04-04T07:42:36.998Z</time></trkpt><trkpt lat="44.73226509322791" lon="10.087012853091712"><ele>303.0</ele><time>2026-04-04T07:42:38.998Z</time></trkpt><trkpt lat="44.73226216121993" lon="10.0871469206101"><ele>302.3333333333333</ele><time>2026-04-04T07:42:40.998Z</time></trkpt><trkpt lat="44.73225386945339" lon="10.087262620580962"><ele>301.6666666666667</ele><time>2026-04-04T07:42:42.998Z</time></trkpt><trkpt lat="44.73220567584382" lon="10.087340977168587"><ele>301.0</ele><time>2026-04-04T07:42:44.998Z</time></trkpt><trkpt lat="44.73215647807998" lon="10.087411242619554"><ele>300.33333333333337</ele><time>2026-04-04T07:42:46.998Z</time></trkpt><trkpt lat="44.73210380549211" lon="10.08748955826155"><ele>299.6666666666667</ele><time>2026-04-04T07:42:48.998Z</time></trkpt><trkpt lat="44.73207438302808" lon="10.087627746264404"><ele>299.0</ele><time>2026-04-04T07:42:51.998Z</time></trkpt><trkpt lat="44.732111412919814" lon="10.08777535478593"><ele>297.2</ele><time>2026-04-04T07:42:54Z</time></trkpt><trkpt lat="44.732144120891924" lon="10.087878552009366"><ele>295.4</ele><time>2026-04-04T07:42:56Z</time></trkpt><trkpt lat="44.73218048613458" lon="10.08798094784254"><ele>293.6</ele><time>2026-04-04T07:42:59Z</time></trkpt><trkpt lat="44.732216325218424" lon="10.088127494212133"><ele>291.8</ele><time>2026-04-04T07:43:02Z</time></trkpt><trkpt lat="44.73218650044473" lon="10.088238117872667"><ele>290.0</ele><time>2026-04-04T07:43:04Z</time></trkpt><trkpt lat="44.73213036417815" lon="10.088371548894116"><ele>287.4</ele><time>2026-04-04T07:43:06Z</time></trkpt><trkpt lat="44.73204361436859" lon="10.088467285848404"><ele>284.8</ele><time>2026-04-04T07:43:08Z</time></trkpt><trkpt lat="44.732013121969935" lon="10.088588157467873"><ele>282.2</ele><time>2026-04-04T07:43:10Z</time></trkpt><trkpt lat="44.73190968535948" lon="10.08867249831575"><ele>279.6</ele><time>2026-04-04T07:43:12Z</time></trkpt><trkpt lat="44.73182916281301" lon="10.088664030227307"><ele>277.0</ele><time>2026-04-04T07:43:13Z</time></trkpt><trkpt lat="44.73175224625288" lon="10.088644704998254"><ele>277.0</ele><time>2026-04-04T07:43:14Z</time></trkpt><trkpt lat="44.731680685351364" lon="10.08862142447234"><ele>277.0</ele><time>2026-04-04T07:43:15Z</time></trkpt><trkpt lat="44.73159383135451" lon="10.088572914722823"><ele>277.0</ele><time>2026-04-04T07:43:16Z</time></trkpt><trkpt lat="44.73148937272436" lon="10.088506641342217"><ele>277.0</ele><time>2026-04-04T07:43:17Z</time></trkpt><trkpt lat="44.73138424401316" lon="10.088431538663212"><ele>277.0</ele><time>2026-04-04T07:43:18Z</time></trkpt><trkpt lat="44.73126294386873" lon="10.088372084181549"><ele>277.0</ele><time>2026-04-04T07:43:19Z</time></trkpt><trkpt lat="44.73112163716397" lon="10.088319946082354"><ele>277.0</ele><time>2026-04-04T07:43:20Z</time></trkpt><trkpt lat="44.730985979080565" lon="10.088276169477012"><ele>277.0</ele><time>2026-04-04T07:43:21Z</time></trkpt><trkpt lat="44.73085445572656" lon="10.088224470509696"><ele>277.0</ele><time>2026-04-04T07:43:22Z</time></trkpt><trkpt lat="44.73073971279309" lon="10.088162370623971"><ele>275.8</ele><time>2026-04-04T07:43:23Z</time></trkpt><trkpt lat="44.730628675395344" lon="10.088111365835017"><ele>274.6</ele><time>2026-04-04T07:43:24Z</time></trkpt><trkpt lat="44.730523088884574" lon="10.088077683786475"><ele>273.40000000000003</ele><time>2026-04-04T07:43:25Z</time></trkpt><trkpt lat="44.73042354156125" lon="10.088056436344077"><ele>272.2</ele><time>2026-04-04T07:43:26Z</time></trkpt><trkpt lat="44.73031447671224" lon="10.088038777434994"><ele>271.0</ele><time>2026-04-04T07:43:27Z</time></trkpt><trkpt lat="44.730210099312586" lon="10.088026302513493"><ele>271.0</ele><time>2026-04-04T07:43:28Z</time></trkpt><trkpt lat="44.73011175855037" lon="10.088021300165668"><ele>271.0</ele><time>2026-04-04T07:43:29Z</time></trkpt><trkpt lat="44.730030609563784" lon="10.088032253694724"><ele>271.0</ele><time>2026-04-04T07:43:30Z</time></trkpt><trkpt lat="44.72995859419494" lon="10.088030849060997"><ele>271.0</ele><time>2026-04-04T07:43:30.999Z</time></trkpt><trkpt lat="44.7298929528924" lon="10.08803045162171"><ele>271.0</ele><time>2026-04-04T07:43:31.999Z</time></trkpt><trkpt lat="44.72977642581802" lon="10.088093952478994"><ele>271.0</ele><time>2026-04-04T07:43:33.999Z</time></trkpt><trkpt lat="44.72976917284912" lon="10.088187489876498"><ele>271.0</ele><time>2026-04-04T07:43:35.999Z</time></trkpt><trkpt lat="44.729666474906175" lon="10.088202674731605"><ele>271.0</ele><time>2026-04-04T07:43:37.999Z</time></trkpt><trkpt lat="44.729540566368705" lon="10.088240651997038"><ele>271.0</ele><time>2026-04-04T07:43:39.999Z</time></trkpt><trkpt lat="44.72946879780133" lon="10.088285865542604"><ele>271.0</ele><time>2026-04-04T07:43:40.999Z</time></trkpt><trkpt lat="44.72941148839249" lon="10.088325347203552"><ele>271.0</ele><time>2026-04-04T07:43:41.999Z</time></trkpt><trkpt lat="44.72932271277825" lon="10.088386506987636"><ele>267.2</ele><time>2026-04-04T07:43:43.999Z</time></trkpt><trkpt lat="44.72927955775077" lon="10.088460177010944"><ele>263.40000000000003</ele><time>2026-04-04T07:43:45.999Z</time></trkpt><trkpt lat="44.72918633083741" lon="10.088489523011562"><ele>259.6</ele><time>2026-04-04T07:43:47.999Z</time></trkpt><trkpt lat="44.72907752096263" lon="10.088486521278845"><ele>255.8</ele><time>2026-04-04T07:43:49.999Z</time></trkpt><trkpt lat="44.72899579039113" lon="10.088398403858813"><ele>252.0</ele><time>2026-04-04T07:43:51.999Z</time></trkpt><trkpt lat="44.72892161529052" lon="10.088294166369193"><ele>251.16666666666666</ele><time>2026-04-04T07:43:53.999Z</time></trkpt><trkpt lat="44.72890927813179" lon="10.08816544170696"><ele>250.33333333333331</ele><time>2026-04-04T07:43:55.999Z</time></trkpt><trkpt lat="44.728924988542744" lon="10.088060063148225"><ele>249.5</ele><time>2026-04-04T07:43:57.999Z</time></trkpt><trkpt lat="44.72899336966022" lon="10.087984886303628"><ele>248.66666666666666</ele><time>2026-04-04T07:43:59.999Z</time></trkpt><trkpt lat="44.72892176906971" lon="10.08795711214118"><ele>247.83333333333331</ele><time>2026-04-04T07:44:05.999Z</time></trkpt><trkpt lat="44.72885247266575" lon="10.088002900277882"><ele>247.0</ele><time>2026-04-04T07:44:06.999Z</time></trkpt><trkpt lat="44.72881298502484" lon="10.08811487664284"><ele>247.0</ele><time>2026-04-04T07:44:08.999Z</time></trkpt><trkpt lat="44.72874954061493" lon="10.088139172657636"><ele>247.0</ele><time>2026-04-04T07:44:09.999Z</time></trkpt><trkpt lat="44.72866333388067" lon="10.088188928916805"><ele>247.0</ele><time>2026-04-04T07:44:11.999Z</time></trkpt><trkpt lat="44.72863089228488" lon="10.08829127573817"><ele>247.0</ele><time>2026-04-04T07:44:12.999Z</time></trkpt><trkpt lat="44.72853559832988" lon="10.088401653640936"><ele>247.0</ele><time>2026-04-04T07:44:14.999Z</time></trkpt><trkpt lat="44.728443796458066" lon="10.088502965920243"><ele>243.2</ele><time>2026-04-04T07:44:16.999Z</time></trkpt><trkpt lat="44.72836183297787" lon="10.088596434195109"><ele>239.39999999999998</ele><time>2026-04-04T07:44:18.998Z</time></trkpt><trkpt lat="44.72826670993501" lon="10.08868861724006"><ele>235.60000000000002</ele><time>2026-04-04T07:44:20.998Z</time></trkpt><trkpt lat="44.72820439690193" lon="10.088743263224627"><ele>231.8</ele><time>2026-04-04T07:44:21.998Z</time></trkpt><trkpt lat="44.728110817345474" lon="10.08876123448772"><ele>228.0</ele><time>2026-04-04T07:44:23.998Z</time></trkpt><trkpt lat="44.72803058445642" lon="10.08873461184025"><ele>228.0</ele><time>2026-04-04T07:44:24.998Z</time></trkpt><trkpt lat="44.72793461400631" lon="10.088705894694021"><ele>228.0</ele><time>2026-04-04T07:44:25.998Z</time></trkpt><trkpt lat="44.72787067160368" lon="10.088744554772578"><ele>228.0</ele><time>2026-04-04T07:44:26.998Z</time></trkpt><trkpt lat="44.7278326545811" lon="10.08882382395443"><ele>228.0</ele><time>2026-04-04T07:44:28.998Z</time></trkpt><trkpt lat="44.72781353244372" lon="10.088720246417719"><ele>228.0</ele><time>2026-04-04T07:44:32.998Z</time></trkpt><trkpt lat="44.727904954472535" lon="10.088606261571762"><ele>228.0</ele><time>2026-04-04T07:44:34.998Z</time></trkpt><trkpt lat="44.72800063310597" lon="10.088548654954167"><ele>228.0</ele><time>2026-04-04T07:44:36.998Z</time></trkpt><trkpt lat="44.7280863798802" lon="10.088472222378641"><ele>228.0</ele><time>2026-04-04T07:44:38.998Z</time></trkpt><trkpt lat="44.72815412264924" lon="10.088383996151984"><ele>228.0</ele><time>2026-04-04T07:44:40.998Z</time></trkpt><trkpt lat="44.728207556123365" lon="10.088251678255979"><ele>228.0</ele><time>2026-04-04T07:44:42.998Z</time></trkpt><trkpt lat="44.72823331543259" lon="10.088098939996678"><ele>228.0</ele><time>2026-04-04T07:44:44.998Z</time></trkpt><trkpt lat="44.728254315406836" lon="10.087934756790848"><ele>226.33333333333334</ele><time>2026-04-04T07:44:46.998Z</time></trkpt><trkpt lat="44.728206251303526" lon="10.087800031013943"><ele>224.66666666666669</ele><time>2026-04-04T07:44:49.998Z</time></trkpt><trkpt lat="44.728123166998884" lon="10.087808029076962"><ele>223.0</ele><time>2026-04-04T07:44:52.998Z</time></trkpt><trkpt lat="44.72805035552897" lon="10.087841023943575"><ele>221.33333333333334</ele><time>2026-04-04T07:44:54.998Z</time></trkpt><trkpt lat="44.728009033670844" lon="10.087773277634753"><ele>219.66666666666669</ele><time>2026-04-04T07:44:55.998Z</time></trkpt><trkpt lat="44.72795591779899" lon="10.087694018013316"><ele>218.0</ele><time>2026-04-04T07:44:56.998Z</time></trkpt><trkpt lat="44.72790143618427" lon="10.087619234756353"><ele>218.00000000000003</ele><time>2026-04-04T07:44:57.998Z</time></trkpt><trkpt lat="44.72785048470322" lon="10.087567048514215"><ele>218.0</ele><time>2026-04-04T07:44:59Z</time></trkpt><trkpt lat="44.72777029272813" lon="10.08750101452672"><ele>218.0</ele><time>2026-04-04T07:45:00Z</time></trkpt><trkpt lat="44.727684930279956" lon="10.087442877943952"><ele>218.0</ele><time>2026-04-04T07:45:01Z</time></trkpt><trkpt lat="44.7275959328038" lon="10.087402834899114"><ele>218.00000000000003</ele><time>2026-04-04T07:45:03Z</time></trkpt><trkpt lat="44.727519341384195" lon="10.08739122724703"><ele>218.0</ele><time>2026-04-04T07:45:04Z</time></trkpt><trkpt lat="44.727423189704815" lon="10.087336499696503"><ele>215.83333333333334</ele><time>2026-04-04T07:45:06Z</time></trkpt><trkpt lat="44.72736695368972" lon="10.087284920782997"><ele>213.66666666666669</ele><time>2026-04-04T07:45:07Z</time></trkpt><trkpt lat="44.72728349847718" lon="10.087251339749457"><ele>211.5</ele><time>2026-04-04T07:45:09Z</time></trkpt><trkpt lat="44.72720551834668" lon="10.087232937899158"><ele>209.33333333333331</ele><time>2026-04-04T07:45:10Z</time></trkpt><trkpt lat="44.727139973181885" lon="10.087183093768937"><ele>207.16666666666666</ele><time>2026-04-04T07:45:11Z</time></trkpt><trkpt lat="44.72705372611295" lon="10.08715272310144"><ele>205.0</ele><time>2026-04-04T07:45:13Z</time></trkpt><trkpt lat="44.72696632722001" lon="10.08709007953452"><ele>204.99999999999997</ele><time>2026-04-04T07:45:15Z</time></trkpt><trkpt lat="44.72690724415521" lon="10.087032273178169"><ele>205.0</ele><time>2026-04-04T07:45:16Z</time></trkpt><trkpt lat="44.726873062128455" lon="10.08692758575956"><ele>205.0</ele><time>2026-04-04T07:45:17Z</time></trkpt><trkpt lat="44.72684809113007" lon="10.086794371998199"><ele>205.0</ele><time>2026-04-04T07:45:18Z</time></trkpt><trkpt lat="44.72681305083524" lon="10.08667239959213"><ele>204.99999999999997</ele><time>2026-04-04T07:45:19Z</time></trkpt><trkpt lat="44.72674830094906" lon="10.0865708051619"><ele>205.0</ele><time>2026-04-04T07:45:20Z</time></trkpt><trkpt lat="44.72667532361857" lon="10.08639506791214"><ele>203.83333333333331</ele><time>2026-04-04T07:45:22Z</time></trkpt><trkpt lat="44.72664947215006" lon="10.086301471807205"><ele>202.66666666666666</ele><time>2026-04-04T07:45:23Z</time></trkpt><trkpt lat="44.726561417561534" lon="10.086303975474875"><ele>201.5</ele><time>2026-04-04T07:45:26Z</time></trkpt><trkpt lat="44.72653489780768" lon="10.086452411982334"><ele>200.33333333333331</ele><time>2026-04-04T07:45:28Z</time></trkpt><trkpt lat="44.72651665912535" lon="10.08654295652969"><ele>199.16666666666666</ele><time>2026-04-04T07:45:29Z</time></trkpt><trkpt lat="44.72647615648179" lon="10.086638704401585"><ele>198.0</ele><time>2026-04-04T07:45:30Z</time></trkpt><trkpt lat="44.72645224556357" lon="10.086732716992573"><ele>196.0</ele><time>2026-04-04T07:45:31Z</time></trkpt><trkpt lat="44.726421692570646" lon="10.086848767581024"><ele>194.0</ele><time>2026-04-04T07:45:32Z</time></trkpt><trkpt lat="44.72637041814754" lon="10.086975605183126"><ele>192.0</ele><time>2026-04-04T07:45:33Z</time></trkpt><trkpt lat="44.726301761906804" lon="10.087100916371595"><ele>190.0</ele><time>2026-04-04T07:45:34Z</time></trkpt><trkpt lat="44.72624054955021" lon="10.087196427010852"><ele>188.0</ele><time>2026-04-04T07:45:35Z</time></trkpt><trkpt lat="44.72619453889582" lon="10.087298188038796"><ele>188.0</ele><time>2026-04-04T07:45:35.999Z</time></trkpt><trkpt lat="44.72614954135069" lon="10.087396881696325"><ele>188.0</ele><time>2026-04-04T07:45:36.999Z</time></trkpt><trkpt lat="44.72611392647751" lon="10.087499527087624"><ele>188.0</ele><time>2026-04-04T07:45:37.999Z</time></trkpt><trkpt lat="44.726111392847336" lon="10.087627897733688"><ele>188.0</ele><time>2026-04-04T07:45:38.999Z</time></trkpt><trkpt lat="44.726096780686575" lon="10.087727658929284"><ele>188.0</ele><time>2026-04-04T07:45:39.999Z</time></trkpt><trkpt lat="44.72600510633115" lon="10.087837889932585"><ele>188.0</ele><time>2026-04-04T07:45:41.999Z</time></trkpt><trkpt lat="44.725937555697755" lon="10.087860867098144"><ele>190.0</ele><time>2026-04-04T07:45:42.999Z</time></trkpt><trkpt lat="44.72583276694329" lon="10.087881906268994"><ele>192.0</ele><time>2026-04-04T07:45:43.999Z</time></trkpt><trkpt lat="44.72574214098258" lon="10.087909939492842"><ele>194.0</ele><time>2026-04-04T07:45:44.999Z</time></trkpt><trkpt lat="44.725640836332154" lon="10.087942820187953"><ele>196.0</ele><time>2026-04-04T07:45:45.999Z</time></trkpt><trkpt lat="44.725550835561855" lon="10.087963746858822"><ele>198.0</ele><time>2026-04-04T07:45:46.999Z</time></trkpt><trkpt lat="44.72542237165437" lon="10.08803124117631"><ele>198.0</ele><time>2026-04-04T07:45:48.999Z</time></trkpt><trkpt lat="44.725362035061934" lon="10.088065000717421"><ele>198.0</ele><time>2026-04-04T07:45:49.999Z</time></trkpt><trkpt lat="44.725278944291134" lon="10.08809138235956"><ele>198.0</ele><time>2026-04-04T07:45:50.999Z</time></trkpt><trkpt lat="44.72521569453211" lon="10.088108939086043"><ele>198.0</ele><time>2026-04-04T07:45:51.999Z</time></trkpt><trkpt lat="44.72509718404658" lon="10.088117108370191"><ele>198.0</ele><time>2026-04-04T07:45:53.999Z</time></trkpt><trkpt lat="44.72495390259568" lon="10.088184388857801"><ele>197.83333333333334</ele><time>2026-04-04T07:45:55.999Z</time></trkpt><trkpt lat="44.7248635366545" lon="10.088201092505622"><ele>197.66666666666669</ele><time>2026-04-04T07:45:56.999Z</time></trkpt><trkpt lat="44.7247832090244" lon="10.088204480944915"><ele>197.5</ele><time>2026-04-04T07:45:57.999Z</time></trkpt><trkpt lat="44.72469338835267" lon="10.088227082161167"><ele>197.33333333333334</ele><time>2026-04-04T07:45:58.999Z</time></trkpt><trkpt lat="44.72461557917777" lon="10.088253500926118"><ele>197.16666666666669</ele><time>2026-04-04T07:45:59.999Z</time></trkpt><trkpt lat="44.72452574609123" lon="10.088271351028203"><ele>197.0</ele><time>2026-04-04T07:46:00.999Z</time></trkpt><trkpt lat="44.72443610023861" lon="10.088307256590088"><ele>192.0</ele><time>2026-04-04T07:46:01.999Z</time></trkpt><trkpt lat="44.72435528863816" lon="10.08834140259156"><ele>187.0</ele><time>2026-04-04T07:46:02.999Z</time></trkpt><trkpt lat="44.72425120134597" lon="10.088379091174268"><ele>182.0</ele><time>2026-04-04T07:46:03.999Z</time></trkpt><trkpt lat="44.72416680521949" lon="10.088395913583362"><ele>177.0</ele><time>2026-04-04T07:46:04.999Z</time></trkpt><trkpt lat="44.72407193382968" lon="10.088420724446195"><ele>172.0</ele><time>2026-04-04T07:46:05.999Z</time></trkpt><trkpt lat="44.72396832899766" lon="10.088460078901807"><ele>172.0</ele><time>2026-04-04T07:46:06.999Z</time></trkpt><trkpt lat="44.723867127674495" lon="10.088483803079876"><ele>172.0</ele><time>2026-04-04T07:46:07.999Z</time></trkpt><trkpt lat="44.723754373328184" lon="10.088510917049108"><ele>172.0</ele><time>2026-04-04T07:46:08.999Z</time></trkpt><trkpt lat="44.72365696452497" lon="10.088537094590512"><ele>172.0</ele><time>2026-04-04T07:46:09.999Z</time></trkpt><trkpt lat="44.72355553580399" lon="10.088587135171988"><ele>172.0</ele><time>2026-04-04T07:46:10.999Z</time></trkpt><trkpt lat="44.72345315842698" lon="10.088611034357992"><ele>170.8</ele><time>2026-04-04T07:46:11.999Z</time></trkpt><trkpt lat="44.72335618223307" lon="10.088810621711756"><ele>169.6</ele><time>2026-04-04T07:46:12.999Z</time></trkpt><trkpt lat="44.72326256368109" lon="10.088813192404974"><ele>168.4</ele><time>2026-04-04T07:46:13.999Z</time></trkpt><trkpt lat="44.72317708410606" lon="10.08881676513929"><ele>167.20000000000002</ele><time>2026-04-04T07:46:14.999Z</time></trkpt><trkpt lat="44.723094730901934" lon="10.088820207199287"><ele>166.0</ele><time>2026-04-04T07:46:15.999Z</time></trkpt><trkpt lat="44.72299087387836" lon="10.088824548097978"><ele>166.0</ele><time>2026-04-04T07:46:16.999Z</time></trkpt><trkpt lat="44.72290454482773" lon="10.088825149110422"><ele>166.0</ele><time>2026-04-04T07:46:17.999Z</time></trkpt><trkpt lat="44.72281636457275" lon="10.088818823394918"><ele>166.0</ele><time>2026-04-04T07:46:18.999Z</time></trkpt><trkpt lat="44.72273206839046" lon="10.088834485796227"><ele>166.0</ele><time>2026-04-04T07:46:19.999Z</time></trkpt><trkpt lat="44.722612295239735" lon="10.08884973275106"><ele>166.0</ele><time>2026-04-04T07:46:21.999Z</time></trkpt><trkpt lat="44.72246432527875" lon="10.08879548978015"><ele>164.8</ele><time>2026-04-04T07:46:23.998Z</time></trkpt><trkpt lat="44.72243045407458" lon="10.088897824719725"><ele>163.60000000000002</ele><time>2026-04-04T07:46:25.998Z</time></trkpt><trkpt lat="44.72242409440841" lon="10.088991848924481"><ele>162.4</ele><time>2026-04-04T07:46:27.998Z</time></trkpt><trkpt lat="44.722436319235875" lon="10.089080102866138"><ele>161.2</ele><time>2026-04-04T07:46:29.998Z</time></trkpt><trkpt lat="44.72242668813714" lon="10.089228706552007"><ele>160.0</ele><time>2026-04-04T07:46:39.998Z</time></trkpt><trkpt lat="44.722452612513315" lon="10.089418891239136"><ele>159.6</ele><time>2026-04-04T07:46:41.998Z</time></trkpt><trkpt lat="44.7224478197512" lon="10.089546660583375"><ele>159.2</ele><time>2026-04-04T07:46:42.998Z</time></trkpt><trkpt lat="44.72245953014264" lon="10.08968800513341"><ele>158.8</ele><time>2026-04-04T07:46:43.998Z</time></trkpt><trkpt lat="44.72247375211774" lon="10.089840468158808"><ele>158.4</ele><time>2026-04-04T07:46:44.998Z</time></trkpt><trkpt lat="44.722488070735324" lon="10.089989535701429"><ele>158.0</ele><time>2026-04-04T07:46:45.998Z</time></trkpt><trkpt lat="44.72250508992948" lon="10.090159652954684"><ele>157.6</ele><time>2026-04-04T07:46:46.998Z</time></trkpt><trkpt lat="44.72252320198507" lon="10.090342104541032"><ele>157.20000000000002</ele><time>2026-04-04T07:46:47.998Z</time></trkpt><trkpt lat="44.722554810883175" lon="10.090480597764905"><ele>156.8</ele><time>2026-04-04T07:46:48.998Z</time></trkpt><trkpt lat="44.72257590197157" lon="10.090599314183324"><ele>156.4</ele><time>2026-04-04T07:46:49.998Z</time></trkpt><trkpt lat="44.72256848094162" lon="10.090695771476632"><ele>156.0</ele><time>2026-04-04T07:46:50.998Z</time></trkpt><trkpt lat="44.72255002905429" lon="10.090804098260113"><ele>156.0</ele><time>2026-04-04T07:46:52.998Z</time></trkpt><trkpt lat="44.722423763904594" lon="10.090721138855141"><ele>156.0</ele><time>2026-04-04T07:46:53.998Z</time></trkpt><trkpt lat="44.72232727707846" lon="10.090736511646998"><ele>156.0</ele><time>2026-04-04T07:46:54.998Z</time></trkpt><trkpt lat="44.722217708598286" lon="10.090756443201915"><ele>156.0</ele><time>2026-04-04T07:46:55.998Z</time></trkpt><trkpt lat="44.72210614495939" lon="10.090777121627596"><ele>155.6</ele><time>2026-04-04T07:46:56.998Z</time></trkpt><trkpt lat="44.72200599924674" lon="10.090791901012034"><ele>155.2</ele><time>2026-04-04T07:46:57.998Z</time></trkpt><trkpt lat="44.72192160406084" lon="10.090833628338396"><ele>154.8</ele><time>2026-04-04T07:46:58.998Z</time></trkpt><trkpt lat="44.72185213853967" lon="10.090819123045636"><ele>154.4</ele><time>2026-04-04T07:46:59.998Z</time></trkpt><trkpt lat="44.72182381532028" lon="10.09064698365932"><ele>154.0</ele><time>2026-04-04T07:47:00.998Z</time></trkpt><trkpt lat="44.721755938707275" lon="10.090539724581816"><ele>154.0</ele><time>2026-04-04T07:47:01.998Z</time></trkpt><trkpt lat="44.7216909822827" lon="10.090430511229526"><ele>154.0</ele><time>2026-04-04T07:47:02.998Z</time></trkpt><trkpt lat="44.72161980528349" lon="10.09030533566366"><ele>154.0</ele><time>2026-04-04T07:47:03.998Z</time></trkpt><trkpt lat="44.72154988024168" lon="10.090178609345847"><ele>154.0</ele><time>2026-04-04T07:47:05Z</time></trkpt><trkpt lat="44.72149829216081" lon="10.090077710491968"><ele>154.0</ele><time>2026-04-04T07:47:06Z</time></trkpt><trkpt lat="44.72144656825657" lon="10.089973211718323"><ele>154.2</ele><time>2026-04-04T07:47:07Z</time></trkpt><trkpt lat="44.721399585979626" lon="10.089866219940927"><ele>154.4</ele><time>2026-04-04T07:47:08Z</time></trkpt><trkpt lat="44.721356380040625" lon="10.089744965782073"><ele>154.6</ele><time>2026-04-04T07:47:09Z</time></trkpt><trkpt lat="44.72132285844663" lon="10.089605798223658"><ele>154.8</ele><time>2026-04-04T07:47:10Z</time></trkpt><trkpt lat="44.72129259850325" lon="10.08945977270749"><ele>155.0</ele><time>2026-04-04T07:47:11Z</time></trkpt><trkpt lat="44.721259254072244" lon="10.08932615032366"><ele>155.0</ele><time>2026-04-04T07:47:12Z</time></trkpt><trkpt lat="44.7212268364589" lon="10.089189837086858"><ele>155.0</ele><time>2026-04-04T07:47:13Z</time></trkpt><trkpt lat="44.72119597541755" lon="10.089032187381553"><ele>155.0</ele><time>2026-04-04T07:47:14Z</time></trkpt><trkpt lat="44.72116723013756" lon="10.088887631226585"><ele>155.0</ele><time>2026-04-04T07:47:15Z</time></trkpt><trkpt lat="44.721139185076794" lon="10.088760932933114"><ele>155.0</ele><time>2026-04-04T07:47:16Z</time></trkpt><trkpt lat="44.72112047903993" lon="10.088636246174616"><ele>155.2</ele><time>2026-04-04T07:47:17Z</time></trkpt><trkpt lat="44.72109141297024" lon="10.088503735396722"><ele>155.4</ele><time>2026-04-04T07:47:18Z</time></trkpt><trkpt lat="44.72106209384969" lon="10.088374114980663"><ele>155.6</ele><time>2026-04-04T07:47:19Z</time></trkpt><trkpt lat="44.721040668399304" lon="10.088239828041875"><ele>155.8</ele><time>2026-04-04T07:47:20Z</time></trkpt><trkpt lat="44.72100819090429" lon="10.088113623165565"><ele>156.0</ele><time>2026-04-04T07:47:21Z</time></trkpt><trkpt lat="44.720987672767336" lon="10.087985049400206"><ele>156.2</ele><time>2026-04-04T07:47:22Z</time></trkpt><trkpt lat="44.720957433632194" lon="10.087872632399819"><ele>156.39999999999998</ele><time>2026-04-04T07:47:23Z</time></trkpt><trkpt lat="44.72093299835647" lon="10.087752592130837"><ele>156.6</ele><time>2026-04-04T07:47:24Z</time></trkpt><trkpt lat="44.720904496995765" lon="10.087632998889864"><ele>156.79999999999998</ele><time>2026-04-04T07:47:25Z</time></trkpt><trkpt lat="44.72087248416077" lon="10.087504455011633"><ele>157.0</ele><time>2026-04-04T07:47:26Z</time></trkpt><trkpt lat="44.72083921772187" lon="10.087375980249416"><ele>157.33333333333334</ele><time>2026-04-04T07:47:27Z</time></trkpt><trkpt lat="44.72080885505302" lon="10.087254177182722"><ele>157.66666666666669</ele><time>2026-04-04T07:47:28Z</time></trkpt><trkpt lat="44.720802573992216" lon="10.087145198747319"><ele>158.0</ele><time>2026-04-04T07:47:29Z</time></trkpt><trkpt lat="44.72078258270537" lon="10.087046135434939"><ele>158.33333333333334</ele><time>2026-04-04T07:47:30Z</time></trkpt><trkpt lat="44.72074612562954" lon="10.086946585698696"><ele>158.66666666666666</ele><time>2026-04-04T07:47:31Z</time></trkpt><trkpt lat="44.72072973414819" lon="10.086825161614852"><ele>159.0</ele><time>2026-04-04T07:47:32Z</time></trkpt><trkpt lat="44.7207027571888" lon="10.086689523443738"><ele>159.0</ele><time>2026-04-04T07:47:33Z</time></trkpt><trkpt lat="44.72067676902047" lon="10.086563613607732"><ele>159.0</ele><time>2026-04-04T07:47:34Z</time></trkpt><trkpt lat="44.72066332590241" lon="10.086452233626215"><ele>159.0</ele><time>2026-04-04T07:47:35Z</time></trkpt><trkpt lat="44.720637742290315" lon="10.086346513768389"><ele>159.0</ele><time>2026-04-04T07:47:36Z</time></trkpt><trkpt lat="44.72060136490682" lon="10.086221994533751"><ele>159.0</ele><time>2026-04-04T07:47:37Z</time></trkpt><trkpt lat="44.72059108766605" lon="10.086110349611996"><ele>159.0</ele><time>2026-04-04T07:47:38Z</time></trkpt><trkpt lat="44.72057321204903" lon="10.08601031885411"><ele>159.0</ele><time>2026-04-04T07:47:39Z</time></trkpt><trkpt lat="44.72054575515093" lon="10.085835714743764"><ele>159.0</ele><time>2026-04-04T07:47:40.999Z</time></trkpt><trkpt lat="44.72053161490773" lon="10.08570300616384"><ele>159.0</ele><time>2026-04-04T07:47:42.999Z</time></trkpt><trkpt lat="44.720398321483735" lon="10.08563203388705"><ele>159.0</ele><time>2026-04-04T07:47:46.999Z</time></trkpt><trkpt lat="44.720319901831665" lon="10.085640950481901"><ele>159.0</ele><time>2026-04-04T07:47:47.999Z</time></trkpt><trkpt lat="44.720239945036454" lon="10.085653490983587"><ele>159.8</ele><time>2026-04-04T07:47:48.999Z</time></trkpt><trkpt lat="44.720133560779864" lon="10.085646335829685"><ele>160.60000000000002</ele><time>2026-04-04T07:47:49.999Z</time></trkpt><trkpt lat="44.720014656082554" lon="10.085634473933206"><ele>161.4</ele><time>2026-04-04T07:47:50.999Z</time></trkpt><trkpt lat="44.71991721369954" lon="10.08562384790543"><ele>162.20000000000002</ele><time>2026-04-04T07:47:51.999Z</time></trkpt><trkpt lat="44.71981962032307" lon="10.085612207652902"><ele>163.0</ele><time>2026-04-04T07:47:52.999Z</time></trkpt><trkpt lat="44.71972081881575" lon="10.085600549266676"><ele>163.0</ele><time>2026-04-04T07:47:53.999Z</time></trkpt><trkpt lat="44.71959835869327" lon="10.0855961324755"><ele>163.0</ele><time>2026-04-04T07:47:54.999Z</time></trkpt><trkpt lat="44.7195225722332" lon="10.085594118871475"><ele>163.0</ele><time>2026-04-04T07:47:55.999Z</time></trkpt><trkpt lat="44.71944145356169" lon="10.085606853674436"><ele>163.0</ele><time>2026-04-04T07:47:56.999Z</time></trkpt><trkpt lat="44.7193695275487" lon="10.085610958023144"><ele>163.0</ele><time>2026-04-04T07:47:57.999Z</time></trkpt><trkpt lat="44.71926958007659" lon="10.08564158810147"><ele>166.0</ele><time>2026-04-04T07:47:59.999Z</time></trkpt><trkpt lat="44.71915995722697" lon="10.085723276394667"><ele>169.0</ele><time>2026-04-04T07:48:01.999Z</time></trkpt><trkpt lat="44.71911873015539" lon="10.085791895713218"><ele>172.0</ele><time>2026-04-04T07:48:02.999Z</time></trkpt><trkpt lat="44.71904980838779" lon="10.08593360965066"><ele>175.0</ele><time>2026-04-04T07:48:04.999Z</time></trkpt><trkpt lat="44.71902156575047" lon="10.086018976239101"><ele>178.0</ele><time>2026-04-04T07:48:05.999Z</time></trkpt><trkpt lat="44.71894553903942" lon="10.086050917585746"><ele>178.8</ele><time>2026-04-04T07:48:08.999Z</time></trkpt><trkpt lat="44.7188286955092" lon="10.086005577716882"><ele>179.60000000000002</ele><time>2026-04-04T07:48:10.999Z</time></trkpt><trkpt lat="44.71874721931947" lon="10.085959753062808"><ele>180.39999999999998</ele><time>2026-04-04T07:48:12.999Z</time></trkpt><trkpt lat="44.71863446796052" lon="10.085997909684163"><ele>181.2</ele><time>2026-04-04T07:48:14.999Z</time></trkpt><trkpt lat="44.71852063293774" lon="10.086020513097157"><ele>182.0</ele><time>2026-04-04T07:48:16.999Z</time></trkpt><trkpt lat="44.71843080111538" lon="10.086033649597601"><ele>186.0</ele><time>2026-04-04T07:48:17.999Z</time></trkpt><trkpt lat="44.7183574872816" lon="10.086073241389565"><ele>190.0</ele><time>2026-04-04T07:48:18.999Z</time></trkpt><trkpt lat="44.71831983503145" lon="10.086180942685116"><ele>194.0</ele><time>2026-04-04T07:48:20.999Z</time></trkpt><trkpt lat="44.71823721717869" lon="10.086294237364752"><ele>198.0</ele><time>2026-04-04T07:48:22.999Z</time></trkpt><trkpt lat="44.71818401897637" lon="10.086345586858386"><ele>202.00000000000003</ele><time>2026-04-04T07:48:23.999Z</time></trkpt><trkpt lat="44.718130518085985" lon="10.08639829703779"><ele>206.0</ele><time>2026-04-04T07:48:24.999Z</time></trkpt><trkpt lat="44.7180797706598" lon="10.086463411224837"><ele>206.00000000000003</ele><time>2026-04-04T07:48:25.999Z</time></trkpt><trkpt lat="44.718019350246145" lon="10.086533564856685"><ele>206.0</ele><time>2026-04-04T07:48:26.999Z</time></trkpt><trkpt lat="44.71796873242794" lon="10.086599359240195"><ele>206.0</ele><time>2026-04-04T07:48:27.999Z</time></trkpt><trkpt lat="44.7178823990942" lon="10.086609152247384"><ele>206.0</ele><time>2026-04-04T07:48:29.998Z</time></trkpt><trkpt lat="44.71778346543004" lon="10.08656377484458"><ele>206.00000000000003</ele><time>2026-04-04T07:48:31.998Z</time></trkpt><trkpt lat="44.71769247095173" lon="10.086608232161135"><ele>206.0</ele><time>2026-04-04T07:48:33.998Z</time></trkpt><trkpt lat="44.71760937438179" lon="10.086694237654235"><ele>210.60000000000002</ele><time>2026-04-04T07:48:35.998Z</time></trkpt><trkpt lat="44.71753562889869" lon="10.086703780526374"><ele>215.2</ele><time>2026-04-04T07:48:36.998Z</time></trkpt><trkpt lat="44.71743364916573" lon="10.086698633403339"><ele>219.79999999999998</ele><time>2026-04-04T07:48:38.998Z</time></trkpt><trkpt lat="44.71736285922278" lon="10.086760945139767"><ele>224.39999999999998</ele><time>2026-04-04T07:48:40.998Z</time></trkpt><trkpt lat="44.71728084938682" lon="10.086812882651225"><ele>229.0</ele><time>2026-04-04T07:48:42.998Z</time></trkpt><trkpt lat="44.71719411171613" lon="10.086907336185106"><ele>229.0</ele><time>2026-04-04T07:48:44.998Z</time></trkpt><trkpt lat="44.71713504505976" lon="10.08701509826481"><ele>228.99999999999997</ele><time>2026-04-04T07:48:47.998Z</time></trkpt><trkpt lat="44.717138904528646" lon="10.087139657153209"><ele>228.99999999999997</ele><time>2026-04-04T07:48:50.998Z</time></trkpt><trkpt lat="44.717141539317" lon="10.087231355151085"><ele>229.0</ele><time>2026-04-04T07:48:52.998Z</time></trkpt><trkpt lat="44.71704582060566" lon="10.087201927768445"><ele>229.0</ele><time>2026-04-04T07:48:56.998Z</time></trkpt><trkpt lat="44.716947681980145" lon="10.08715686475705"><ele>231.6</ele><time>2026-04-04T07:48:58.998Z</time></trkpt><trkpt lat="44.71683258632524" lon="10.087125960915841"><ele>234.2</ele><time>2026-04-04T07:49:00.998Z</time></trkpt><trkpt lat="44.7167388490876" lon="10.087117116677698"><ele>236.79999999999998</ele><time>2026-04-04T07:49:02.998Z</time></trkpt><trkpt lat="44.71667491085411" lon="10.087140780847207"><ele>239.39999999999998</ele><time>2026-04-04T07:49:03.998Z</time></trkpt><trkpt lat="44.71658869463674" lon="10.0872125451954"><ele>242.0</ele><time>2026-04-04T07:49:05.998Z</time></trkpt><trkpt lat="44.7165260680374" lon="10.087124833408524"><ele>242.00000000000003</ele><time>2026-04-04T07:49:08.998Z</time></trkpt><trkpt lat="44.71646144340008" lon="10.086977033401938"><ele>242.0</ele><time>2026-04-04T07:49:11Z</time></trkpt><trkpt lat="44.71642754692289" lon="10.086887613009784"><ele>242.0</ele><time>2026-04-04T07:49:12Z</time></trkpt><trkpt lat="44.71638437408994" lon="10.086818576354583"><ele>242.0</ele><time>2026-04-04T07:49:13Z</time></trkpt><trkpt lat="44.71631508203918" lon="10.0867518570192"><ele>242.00000000000003</ele><time>2026-04-04T07:49:14Z</time></trkpt><trkpt lat="44.716254679655464" lon="10.086689752532099"><ele>242.0</ele><time>2026-04-04T07:49:15Z</time></trkpt><trkpt lat="44.716198261261766" lon="10.086552675820032"><ele>241.2</ele><time>2026-04-04T07:49:17Z</time></trkpt><trkpt lat="44.71619652305244" lon="10.086329773404776"><ele>240.39999999999998</ele><time>2026-04-04T07:49:19Z</time></trkpt><trkpt lat="44.71619414278679" lon="10.086171333893676"><ele>239.60000000000002</ele><time>2026-04-04T07:49:20Z</time></trkpt><trkpt lat="44.71618814747362" lon="10.0860431741847"><ele>238.8</ele><time>2026-04-04T07:49:21Z</time></trkpt><trkpt lat="44.716185871036146" lon="10.085934288774208"><ele>238.0</ele><time>2026-04-04T07:49:22Z</time></trkpt><trkpt lat="44.71618216844475" lon="10.085826289050791"><ele>236.99999999999997</ele><time>2026-04-04T07:49:23Z</time></trkpt><trkpt lat="44.716182710752335" lon="10.085725128202707"><ele>236.0</ele><time>2026-04-04T07:49:24Z</time></trkpt><trkpt lat="44.71615746767119" lon="10.085624202724981"><ele>235.0</ele><time>2026-04-04T07:49:25Z</time></trkpt><trkpt lat="44.716120766980794" lon="10.085544169269467"><ele>234.0</ele><time>2026-04-04T07:49:26Z</time></trkpt><trkpt lat="44.71607956305884" lon="10.085465764185704"><ele>232.99999999999997</ele><time>2026-04-04T07:49:27Z</time></trkpt><trkpt lat="44.715998415940135" lon="10.085332358897416"><ele>232.0</ele><time>2026-04-04T07:49:29Z</time></trkpt><trkpt lat="44.71595941530745" lon="10.085254678018643"><ele>234.8</ele><time>2026-04-04T07:49:30Z</time></trkpt><trkpt lat="44.71586016367762" lon="10.085216836387007"><ele>237.6</ele><time>2026-04-04T07:49:32Z</time></trkpt><trkpt lat="44.715771673838056" lon="10.085162122991632"><ele>240.40000000000003</ele><time>2026-04-04T07:49:34Z</time></trkpt><trkpt lat="44.71571925898441" lon="10.085097186701729"><ele>243.20000000000002</ele><time>2026-04-04T07:49:35Z</time></trkpt><trkpt lat="44.71567089269962" lon="10.085001678704952"><ele>246.0</ele><time>2026-04-04T07:49:36Z</time></trkpt><trkpt lat="44.71559815964925" lon="10.08488284248549"><ele>246.0</ele><time>2026-04-04T07:49:37Z</time></trkpt><trkpt lat="44.71552580100965" lon="10.084786919419507"><ele>246.0</ele><time>2026-04-04T07:49:38Z</time></trkpt><trkpt lat="44.71545543617778" lon="10.084681037369075"><ele>246.0</ele><time>2026-04-04T07:49:39Z</time></trkpt><trkpt lat="44.715402417712234" lon="10.0846108861484"><ele>246.0</ele><time>2026-04-04T07:49:40Z</time></trkpt><trkpt lat="44.715338848123515" lon="10.084533293955154"><ele>246.0</ele><time>2026-04-04T07:49:41Z</time></trkpt><trkpt lat="44.71529445136073" lon="10.08446047837419"><ele>246.0</ele><time>2026-04-04T07:49:42Z</time></trkpt><trkpt lat="44.715242109667386" lon="10.084360484818186"><ele>245.83333333333334</ele><time>2026-04-04T07:49:43Z</time></trkpt><trkpt lat="44.71519926456504" lon="10.084271559822527"><ele>245.66666666666669</ele><time>2026-04-04T07:49:44Z</time></trkpt><trkpt lat="44.71515347811142" lon="10.084201111456832"><ele>245.5</ele><time>2026-04-04T07:49:45Z</time></trkpt><trkpt lat="44.71505637663949" lon="10.084093238747371"><ele>245.33333333333334</ele><time>2026-04-04T07:49:47Z</time></trkpt><trkpt lat="44.714996105204996" lon="10.084027262712587"><ele>245.16666666666669</ele><time>2026-04-04T07:49:48Z</time></trkpt><trkpt lat="44.71493603530161" lon="10.083964392022947"><ele>245.0</ele><time>2026-04-04T07:49:49Z</time></trkpt><trkpt lat="44.714870128466885" lon="10.083893421210156"><ele>245.00000000000003</ele><time>2026-04-04T07:49:49.999Z</time></trkpt><trkpt lat="44.71481188637769" lon="10.083813309376325"><ele>245.0</ele><time>2026-04-04T07:49:50.999Z</time></trkpt><trkpt lat="44.714758242434236" lon="10.08373116215065"><ele>245.0</ele><time>2026-04-04T07:49:51.999Z</time></trkpt><trkpt lat="44.71471624838707" lon="10.083632240950667"><ele>245.0</ele><time>2026-04-04T07:49:52.999Z</time></trkpt><trkpt lat="44.71468200705963" lon="10.08353128309876"><ele>245.00000000000003</ele><time>2026-04-04T07:49:53.999Z</time></trkpt><trkpt lat="44.71464747970767" lon="10.083426362060772"><ele>245.0</ele><time>2026-04-04T07:49:54.999Z</time></trkpt><trkpt lat="44.714627862504685" lon="10.083301408306076"><ele>245.8</ele><time>2026-04-04T07:49:55.999Z</time></trkpt><trkpt lat="44.714617883047644" lon="10.083171638989743"><ele>246.6</ele><time>2026-04-04T07:49:56.999Z</time></trkpt><trkpt lat="44.71460237778158" lon="10.083064122611717"><ele>247.39999999999998</ele><time>2026-04-04T07:49:57.999Z</time></trkpt><trkpt lat="44.71457878427351" lon="10.082935970048796"><ele>248.2</ele><time>2026-04-04T07:49:58.999Z</time></trkpt><trkpt lat="44.71455515266501" lon="10.082799654495673"><ele>249.0</ele><time>2026-04-04T07:49:59.999Z</time></trkpt><trkpt lat="44.714534944186184" lon="10.082647778544944"><ele>249.0</ele><time>2026-04-04T07:50:00.999Z</time></trkpt><trkpt lat="44.714518246947094" lon="10.082493256678456"><ele>248.99999999999997</ele><time>2026-04-04T07:50:01.999Z</time></trkpt><trkpt lat="44.71450068816409" lon="10.082358714258397"><ele>248.99999999999997</ele><time>2026-04-04T07:50:02.999Z</time></trkpt><trkpt lat="44.71448714687899" lon="10.082249248312849"><ele>249.0</ele><time>2026-04-04T07:50:03.999Z</time></trkpt><trkpt lat="44.71448532953116" lon="10.082125546794417"><ele>249.0</ele><time>2026-04-04T07:50:04.999Z</time></trkpt><trkpt lat="44.71447414820618" lon="10.082007444034293"><ele>250.2</ele><time>2026-04-04T07:50:05.999Z</time></trkpt><trkpt lat="44.71446731892989" lon="10.081872033848269"><ele>251.39999999999998</ele><time>2026-04-04T07:50:06.999Z</time></trkpt><trkpt lat="44.714462862767796" lon="10.081753974668079"><ele>252.6</ele><time>2026-04-04T07:50:07.999Z</time></trkpt><trkpt lat="44.714444319517284" lon="10.081642448609825"><ele>253.8</ele><time>2026-04-04T07:50:09.999Z</time></trkpt><trkpt lat="44.71434596290201" lon="10.081613094617596"><ele>255.0</ele><time>2026-04-04T07:50:11.999Z</time></trkpt><trkpt lat="44.71424035525656" lon="10.081556657057934"><ele>255.16666666666666</ele><time>2026-04-04T07:50:13.999Z</time></trkpt><trkpt lat="44.714165611938576" lon="10.081516718936342"><ele>255.33333333333331</ele><time>2026-04-04T07:50:15.999Z</time></trkpt><trkpt lat="44.71408913362548" lon="10.081451780931543"><ele>255.5</ele><time>2026-04-04T07:50:17.999Z</time></trkpt><trkpt lat="44.71402945907033" lon="10.0814050848336"><ele>255.66666666666666</ele><time>2026-04-04T07:50:19.999Z</time></trkpt><trkpt lat="44.71390376147908" lon="10.081374243293471"><ele>255.83333333333331</ele><time>2026-04-04T07:50:23.999Z</time></trkpt><trkpt lat="44.71383897049773" lon="10.081387138817426"><ele>256.0</ele><time>2026-04-04T07:50:24.999Z</time></trkpt><trkpt lat="44.71377066177869" lon="10.081325756907658"><ele>255.99999999999997</ele><time>2026-04-04T07:50:26.999Z</time></trkpt><trkpt lat="44.71370576949853" lon="10.08125588278938"><ele>256.0</ele><time>2026-04-04T07:50:28.999Z</time></trkpt><trkpt lat="44.71363241243638" lon="10.08123192840804"><ele>256.0</ele><time>2026-04-04T07:50:31.999Z</time></trkpt><trkpt lat="44.71354226181593" lon="10.081180191989596"><ele>256.0</ele><time>2026-04-04T07:50:34.999Z</time></trkpt><trkpt lat="44.71346490180649" lon="10.081158635350759"><ele>255.99999999999997</ele><time>2026-04-04T07:50:36.999Z</time></trkpt><trkpt lat="44.713413092170335" lon="10.081104544287959"><ele>256.0</ele><time>2026-04-04T07:50:38.998Z</time></trkpt><trkpt lat="44.71335314723997" lon="10.08106151728023"><ele>255.99999999999997</ele><time>2026-04-04T07:50:39.998Z</time></trkpt><trkpt lat="44.71330005134495" lon="10.081010632631207"><ele>256.0</ele><time>2026-04-04T07:50:40.998Z</time></trkpt><trkpt lat="44.71324229910496" lon="10.080949112667971"><ele>256.0</ele><time>2026-04-04T07:50:42.998Z</time></trkpt><trkpt lat="44.71318937055502" lon="10.080881428380861"><ele>256.0</ele><time>2026-04-04T07:50:46.998Z</time></trkpt><trkpt lat="44.71311212056" lon="10.080847437383557"><ele>255.99999999999997</ele><time>2026-04-04T07:50:54.998Z</time></trkpt><trkpt lat="44.71305787862636" lon="10.080780071699614"><ele>256.0</ele><time>2026-04-04T07:50:56.998Z</time></trkpt><trkpt lat="44.71301583122291" lon="10.080633811251053"><ele>255.99999999999997</ele><time>2026-04-04T07:50:58.998Z</time></trkpt><trkpt lat="44.71292795245921" lon="10.08053037504611"><ele>256.0</ele><time>2026-04-04T07:51:00.998Z</time></trkpt><trkpt lat="44.71286608000099" lon="10.08045768970295"><ele>256.0</ele><time>2026-04-04T07:51:01.998Z</time></trkpt><trkpt lat="44.71281593942193" lon="10.080387761697024"><ele>256.0</ele><time>2026-04-04T07:51:02.998Z</time></trkpt><trkpt lat="44.71277978753107" lon="10.080299315061174"><ele>255.99999999999997</ele><time>2026-04-04T07:51:03.998Z</time></trkpt><trkpt lat="44.71274115326366" lon="10.08020205588654"><ele>256.0</ele><time>2026-04-04T07:51:04.998Z</time></trkpt><trkpt lat="44.71271391246252" lon="10.080106654832106"><ele>258.16666666666663</ele><time>2026-04-04T07:51:05.998Z</time></trkpt><trkpt lat="44.71264212576565" lon="10.079970901539069"><ele>260.3333333333333</ele><time>2026-04-04T07:51:07.998Z</time></trkpt><trkpt lat="44.71258651325888" lon="10.079870082225533"><ele>262.5</ele><time>2026-04-04T07:51:08.998Z</time></trkpt><trkpt lat="44.71252971589826" lon="10.079789627792392"><ele>264.6666666666667</ele><time>2026-04-04T07:51:09.998Z</time></trkpt><trkpt lat="44.71247778476509" lon="10.079728831735618"><ele>266.83333333333337</ele><time>2026-04-04T07:51:10.998Z</time></trkpt><trkpt lat="44.712426884829405" lon="10.079667222482527"><ele>269.0</ele><time>2026-04-04T07:51:11.998Z</time></trkpt><trkpt lat="44.712378394535975" lon="10.07961033057301"><ele>269.0</ele><time>2026-04-04T07:51:12.998Z</time></trkpt><trkpt lat="44.71230899637769" lon="10.07955409061228"><ele>269.0</ele><time>2026-04-04T07:51:14.998Z</time></trkpt><trkpt lat="44.712216063359065" lon="10.079505651778529"><ele>269.0</ele><time>2026-04-04T07:51:36Z</time></trkpt><trkpt lat="44.71216448835212" lon="10.07942387886498"><ele>269.0</ele><time>2026-04-04T07:51:38Z</time></trkpt><trkpt lat="44.71212735787275" lon="10.079351300458526"><ele>269.0</ele><time>2026-04-04T07:51:40Z</time></trkpt><trkpt lat="44.71207573830408" lon="10.079279289395764"><ele>269.0</ele><time>2026-04-04T07:51:42Z</time></trkpt><trkpt lat="44.7120293362402" lon="10.07921925642645"><ele>269.0</ele><time>2026-04-04T07:51:44Z</time></trkpt><trkpt lat="44.711965648886896" lon="10.079166661404019"><ele>269.0</ele><time>2026-04-04T07:51:47Z</time></trkpt><trkpt lat="44.71187062978232" lon="10.07909571828471"><ele>269.0</ele><time>2026-04-04T07:51:49Z</time></trkpt><trkpt lat="44.71181066096652" lon="10.078996317936502"><ele>269.0</ele><time>2026-04-04T07:51:51Z</time></trkpt><trkpt lat="44.711763574589035" lon="10.07891681660524"><ele>269.0</ele><time>2026-04-04T07:52:53.998Z</time></trkpt><trkpt lat="44.71170679014186" lon="10.07883353666109"><ele>269.0</ele><time>2026-04-04T07:53:30Z</time></trkpt><trkpt lat="44.71164714941499" lon="10.078779520082344"><ele>273.6666666666667</ele><time>2026-04-04T07:53:35Z</time></trkpt><trkpt lat="44.71159807812906" lon="10.078711669978508"><ele>278.33333333333337</ele><time>2026-04-04T07:53:40Z</time></trkpt><trkpt lat="44.71152726383368" lon="10.0786382883042"><ele>283.0</ele><time>2026-04-04T07:53:43Z</time></trkpt><trkpt lat="44.71147265169782" lon="10.078582820412555"><ele>287.6666666666667</ele><time>2026-04-04T07:53:45Z</time></trkpt><trkpt lat="44.71139949407415" lon="10.078524230414542"><ele>292.3333333333333</ele><time>2026-04-04T07:53:48Z</time></trkpt><trkpt lat="44.71134910900311" lon="10.078459228679309"><ele>297.0</ele><time>2026-04-04T07:53:51Z</time></trkpt><trkpt lat="44.711288281765775" lon="10.078397444775904"><ele>297.0</ele><time>2026-04-04T07:53:54Z</time></trkpt><trkpt lat="44.71124817675156" lon="10.07831067556726"><ele>297.0</ele><time>2026-04-04T07:53:57Z</time></trkpt><trkpt lat="44.71120442215314" lon="10.078240226049274"><ele>297.0</ele><time>2026-04-04T07:54:00Z</time></trkpt><trkpt lat="44.71119894800254" lon="10.07814758851301"><ele>297.0</ele><time>2026-04-04T08:01:34.998Z</time></trkpt><trkpt lat="44.711182402946825" lon="10.077989695342557"><ele>297.0</ele><time>2026-04-04T08:01:36.998Z</time></trkpt><trkpt lat="44.71117370051036" lon="10.077845855268976"><ele>297.0</ele><time>2026-04-04T08:01:38.998Z</time></trkpt><trkpt lat="44.711197715871585" lon="10.077738180093434"><ele>299.0</ele><time>2026-04-04T08:01:39.998Z</time></trkpt><trkpt lat="44.71117869528209" lon="10.077622852234484"><ele>301.0</ele><time>2026-04-04T08:01:40.998Z</time></trkpt><trkpt lat="44.71114956101979" lon="10.077510158213702"><ele>303.0</ele><time>2026-04-04T08:01:41.998Z</time></trkpt><trkpt lat="44.71112929578758" lon="10.07741167288027"><ele>305.0</ele><time>2026-04-04T08:01:42.998Z</time></trkpt><trkpt lat="44.71112049570127" lon="10.077313552630088"><ele>307.0</ele><time>2026-04-04T08:01:43.998Z</time></trkpt><trkpt lat="44.71113075981023" lon="10.077193735292951"><ele>309.0</ele><time>2026-04-04T08:01:44.998Z</time></trkpt><trkpt lat="44.71114954161758" lon="10.07707546461226"><ele>312.6666666666667</ele><time>2026-04-04T08:01:45.998Z</time></trkpt><trkpt lat="44.71116779350514" lon="10.07696964098361"><ele>316.3333333333333</ele><time>2026-04-04T08:01:47Z</time></trkpt><trkpt lat="44.71118679656842" lon="10.076847813635256"><ele>320.0</ele><time>2026-04-04T08:01:48Z</time></trkpt><trkpt lat="44.71120109179794" lon="10.076725045970045"><ele>323.66666666666663</ele><time>2026-04-04T08:01:49Z</time></trkpt><trkpt lat="44.711216936074365" lon="10.076583835751618"><ele>327.3333333333333</ele><time>2026-04-04T08:01:50Z</time></trkpt><trkpt lat="44.7112289348493" lon="10.076456760962415"><ele>331.0</ele><time>2026-04-04T08:01:51Z</time></trkpt><trkpt lat="44.711239174832045" lon="10.076311969910707"><ele>331.20000000000005</ele><time>2026-04-04T08:01:52Z</time></trkpt><trkpt lat="44.71124610437019" lon="10.076183634996514"><ele>331.40000000000003</ele><time>2026-04-04T08:01:53Z</time></trkpt><trkpt lat="44.71125144562301" lon="10.076031409138366"><ele>331.6</ele><time>2026-04-04T08:01:54Z</time></trkpt><trkpt lat="44.71125601911855" lon="10.075901064480425"><ele>331.8</ele><time>2026-04-04T08:01:55Z</time></trkpt><trkpt lat="44.711250263345036" lon="10.075759904015133"><ele>332.0</ele><time>2026-04-04T08:01:57Z</time></trkpt><trkpt lat="44.71099584546796" lon="10.075774247715557"><ele>332.0</ele><time>2026-04-04T08:02:09Z</time></trkpt><trkpt lat="44.71091035499195" lon="10.07578755211019"><ele>332.0</ele><time>2026-04-04T08:02:11Z</time></trkpt><trkpt lat="44.71081631436774" lon="10.075747321852395"><ele>332.0</ele><time>2026-04-04T08:02:13Z</time></trkpt><trkpt lat="44.71071397302243" lon="10.07568192590035"><ele>332.0</ele><time>2026-04-04T08:02:15Z</time></trkpt><trkpt lat="44.71062283938322" lon="10.075579215397584"><ele>332.0</ele><time>2026-04-04T08:02:17Z</time></trkpt><trkpt lat="44.71057235757637" lon="10.075521837729545"><ele>331.25</ele><time>2026-04-04T08:02:18Z</time></trkpt><trkpt lat="44.71049236365933" lon="10.075455366962025"><ele>330.5</ele><time>2026-04-04T08:02:19Z</time></trkpt><trkpt lat="44.71037931151729" lon="10.075402998442154"><ele>329.75</ele><time>2026-04-04T08:02:20Z</time></trkpt><trkpt lat="44.71025688302343" lon="10.075356551767632"><ele>329.0</ele><time>2026-04-04T08:02:21Z</time></trkpt><trkpt lat="44.71014836491421" lon="10.0753045259931"><ele>326.4</ele><time>2026-04-04T08:02:22Z</time></trkpt><trkpt lat="44.71005693150548" lon="10.075264294328383"><ele>323.79999999999995</ele><time>2026-04-04T08:02:23Z</time></trkpt><trkpt lat="44.70996930149491" lon="10.075221536660996"><ele>321.20000000000005</ele><time>2026-04-04T08:02:24Z</time></trkpt><trkpt lat="44.709877190188394" lon="10.075186837865164"><ele>318.6</ele><time>2026-04-04T08:02:24.999Z</time></trkpt><trkpt lat="44.709785061846226" lon="10.075142372539112"><ele>316.0</ele><time>2026-04-04T08:02:25.999Z</time></trkpt><trkpt lat="44.709692377895756" lon="10.075102465786694"><ele>316.0</ele><time>2026-04-04T08:02:26.999Z</time></trkpt><trkpt lat="44.70957712880529" lon="10.075010678959165"><ele>316.0</ele><time>2026-04-04T08:02:28.999Z</time></trkpt><trkpt lat="44.709497290779815" lon="10.074926796445688"><ele>316.0</ele><time>2026-04-04T08:02:29.999Z</time></trkpt><trkpt lat="44.70940632274033" lon="10.074836310109752"><ele>316.0</ele><time>2026-04-04T08:02:30.999Z</time></trkpt><trkpt lat="44.70931951953638" lon="10.074738723720184"><ele>315.8</ele><time>2026-04-04T08:02:31.999Z</time></trkpt><trkpt lat="44.70925003013935" lon="10.074632044015225"><ele>315.6</ele><time>2026-04-04T08:02:32.999Z</time></trkpt><trkpt lat="44.70918734131351" lon="10.074506000900612"><ele>315.4</ele><time>2026-04-04T08:02:33.999Z</time></trkpt><trkpt lat="44.70911640910787" lon="10.07438569765098"><ele>315.2</ele><time>2026-04-04T08:02:34.999Z</time></trkpt><trkpt lat="44.70903040082323" lon="10.074278061959458"><ele>315.0</ele><time>2026-04-04T08:02:35.999Z</time></trkpt><trkpt lat="44.70893987715243" lon="10.074166109470573"><ele>312.6</ele><time>2026-04-04T08:02:36.999Z</time></trkpt><trkpt lat="44.708857746258424" lon="10.07405944091886"><ele>310.2</ele><time>2026-04-04T08:02:37.999Z</time></trkpt><trkpt lat="44.70879499695646" lon="10.073953826888639"><ele>307.8</ele><time>2026-04-04T08:02:38.999Z</time></trkpt><trkpt lat="44.708743274178495" lon="10.07384461201575"><ele>305.4</ele><time>2026-04-04T08:02:39.999Z</time></trkpt><trkpt lat="44.708688174021" lon="10.073760425943915"><ele>303.0</ele><time>2026-04-04T08:02:40.999Z</time></trkpt><trkpt lat="44.70862374266103" lon="10.07370241919499"><ele>308.0</ele><time>2026-04-04T08:02:41.999Z</time></trkpt><trkpt lat="44.708558267716626" lon="10.073649219773493"><ele>313.0</ele><time>2026-04-04T08:02:42.999Z</time></trkpt><trkpt lat="44.70847221493287" lon="10.07354517909752"><ele>318.0</ele><time>2026-04-04T08:02:43.999Z</time></trkpt><trkpt lat="44.708400313771044" lon="10.073447710070935"><ele>323.0</ele><time>2026-04-04T08:02:44.999Z</time></trkpt><trkpt lat="44.708340277468096" lon="10.073398297222061"><ele>328.0</ele><time>2026-04-04T08:02:45.999Z</time></trkpt><trkpt lat="44.708270695754756" lon="10.073401950515095"><ele>333.0</ele><time>2026-04-04T08:02:46.999Z</time></trkpt><trkpt lat="44.708188641774505" lon="10.073387456805856"><ele>333.0</ele><time>2026-04-04T08:02:47.999Z</time></trkpt><trkpt lat="44.70812535865063" lon="10.073380589657125"><ele>333.0</ele><time>2026-04-04T08:02:48.999Z</time></trkpt><trkpt lat="44.70805649140113" lon="10.073342431722752"><ele>333.0</ele><time>2026-04-04T08:02:49.999Z</time></trkpt><trkpt lat="44.707961528394556" lon="10.07328988402615"><ele>333.0</ele><time>2026-04-04T08:02:50.999Z</time></trkpt><trkpt lat="44.70784865238215" lon="10.073229117211072"><ele>333.0</ele><time>2026-04-04T08:02:51.999Z</time></trkpt><trkpt lat="44.70774226879776" lon="10.073199608110224"><ele>333.1666666666667</ele><time>2026-04-04T08:02:52.999Z</time></trkpt><trkpt lat="44.70765007490219" lon="10.073189635327223"><ele>333.3333333333333</ele><time>2026-04-04T08:02:53.999Z</time></trkpt><trkpt lat="44.707582407907736" lon="10.073162651959134"><ele>333.5</ele><time>2026-04-04T08:02:54.999Z</time></trkpt><trkpt lat="44.70752085588087" lon="10.073117875146647"><ele>333.66666666666663</ele><time>2026-04-04T08:02:55.999Z</time></trkpt><trkpt lat="44.70745327711003" lon="10.073084247978244"><ele>333.8333333333333</ele><time>2026-04-04T08:02:56.999Z</time></trkpt><trkpt lat="44.70739470972946" lon="10.073042682909014"><ele>334.0</ele><time>2026-04-04T08:02:57.999Z</time></trkpt><trkpt lat="44.70728483885741" lon="10.073011792706478"><ele>334.0</ele><time>2026-04-04T08:02:59.999Z</time></trkpt><trkpt lat="44.70722306264977" lon="10.072949864327121"><ele>334.0</ele><time>2026-04-04T08:03:00.999Z</time></trkpt><trkpt lat="44.70715532588345" lon="10.072865405813127"><ele>334.0</ele><time>2026-04-04T08:03:01.999Z</time></trkpt><trkpt lat="44.707083884815844" lon="10.072798376232047"><ele>334.0</ele><time>2026-04-04T08:03:02.999Z</time></trkpt><trkpt lat="44.706992498453275" lon="10.072737436762223"><ele>334.0</ele><time>2026-04-04T08:03:03.999Z</time></trkpt><trkpt lat="44.70689367912532" lon="10.072671626492982"><ele>334.0</ele><time>2026-04-04T08:03:04.999Z</time></trkpt><trkpt lat="44.706825285913794" lon="10.072627552338924"><ele>334.0</ele><time>2026-04-04T08:03:05.999Z</time></trkpt><trkpt lat="44.70676133682911" lon="10.072577035430502"><ele>334.0</ele><time>2026-04-04T08:03:06.999Z</time></trkpt><trkpt lat="44.70668452289187" lon="10.07252282866208"><ele>334.0</ele><time>2026-04-04T08:03:07.999Z</time></trkpt><trkpt lat="44.70661531971262" lon="10.07247452466539"><ele>334.0</ele><time>2026-04-04T08:03:08.999Z</time></trkpt><trkpt lat="44.70654120723599" lon="10.072403152029773"><ele>334.0</ele><time>2026-04-04T08:03:09.998Z</time></trkpt><trkpt lat="44.706477786246914" lon="10.07233288930718"><ele>334.0</ele><time>2026-04-04T08:03:10.998Z</time></trkpt><trkpt lat="44.70641197940686" lon="10.07226222936442"><ele>334.0</ele><time>2026-04-04T08:03:11.998Z</time></trkpt><trkpt lat="44.7063741257146" lon="10.072173105044424"><ele>334.0</ele><time>2026-04-04T08:03:12.998Z</time></trkpt><trkpt lat="44.706337230154574" lon="10.072050403556542"><ele>334.0</ele><time>2026-04-04T08:03:13.998Z</time></trkpt><trkpt lat="44.70628760952002" lon="10.07189170845571"><ele>334.0</ele><time>2026-04-04T08:03:14.998Z</time></trkpt><trkpt lat="44.70622589780261" lon="10.07175090359136"><ele>334.0</ele><time>2026-04-04T08:03:15.998Z</time></trkpt><trkpt lat="44.70617785283637" lon="10.071631978565353"><ele>334.0</ele><time>2026-04-04T08:03:16.998Z</time></trkpt><trkpt lat="44.70613712572518" lon="10.07153683991223"><ele>334.0</ele><time>2026-04-04T08:03:17.998Z</time></trkpt><trkpt lat="44.7060953288685" lon="10.07145220846641"><ele>334.0</ele><time>2026-04-04T08:03:18.998Z</time></trkpt><trkpt lat="44.706051609811226" lon="10.071346990849547"><ele>334.0</ele><time>2026-04-04T08:03:19.998Z</time></trkpt><trkpt lat="44.70602780761449" lon="10.071156538975998"><ele>335.0</ele><time>2026-04-04T08:03:21.998Z</time></trkpt><trkpt lat="44.706013166343624" lon="10.071057036451604"><ele>336.0</ele><time>2026-04-04T08:03:22.998Z</time></trkpt><trkpt lat="44.70598190793708" lon="10.070970498086117"><ele>337.0</ele><time>2026-04-04T08:03:23.998Z</time></trkpt><trkpt lat="44.70594407362909" lon="10.070897330695363"><ele>338.0</ele><time>2026-04-04T08:03:24.998Z</time></trkpt><trkpt lat="44.705902476750275" lon="10.070753509250512"><ele>339.0</ele><time>2026-04-04T08:03:26.998Z</time></trkpt><trkpt lat="44.705861517087385" lon="10.070606184072473"><ele>340.0</ele><time>2026-04-04T08:03:28.998Z</time></trkpt><trkpt lat="44.70583566132775" lon="10.070483270663646"><ele>337.6</ele><time>2026-04-04T08:03:30.998Z</time></trkpt><trkpt lat="44.705779484291206" lon="10.070383359748783"><ele>335.2</ele><time>2026-04-04T08:03:32.998Z</time></trkpt><trkpt lat="44.70568865020481" lon="10.070353873579093"><ele>332.79999999999995</ele><time>2026-04-04T08:03:34.998Z</time></trkpt><trkpt lat="44.705601043938856" lon="10.070397258938845"><ele>330.4</ele><time>2026-04-04T08:03:36.998Z</time></trkpt><trkpt lat="44.70555394741041" lon="10.070525578058248"><ele>328.0</ele><time>2026-04-04T08:03:38.998Z</time></trkpt><trkpt lat="44.70549359808384" lon="10.07061902184463"><ele>328.0</ele><time>2026-04-04T08:03:40.998Z</time></trkpt><trkpt lat="44.705415536569376" lon="10.070723390394914"><ele>328.0</ele><time>2026-04-04T08:03:42.998Z</time></trkpt><trkpt lat="44.70533784105814" lon="10.070795556723308"><ele>328.0</ele><time>2026-04-04T08:03:43.998Z</time></trkpt><trkpt lat="44.70524116353196" lon="10.070873898548076"><ele>328.0</ele><time>2026-04-04T08:03:44.998Z</time></trkpt><trkpt lat="44.70516467329407" lon="10.070918652925448"><ele>328.0</ele><time>2026-04-04T08:03:45.998Z</time></trkpt><trkpt lat="44.705096398519444" lon="10.070936867045493"><ele>329.0</ele><time>2026-04-04T08:03:46.998Z</time></trkpt><trkpt lat="44.70503316425641" lon="10.070948214787474"><ele>330.0</ele><time>2026-04-04T08:03:47.998Z</time></trkpt><trkpt lat="44.704969973354864" lon="10.07095643672608"><ele>331.0</ele><time>2026-04-04T08:03:48.998Z</time></trkpt><trkpt lat="44.704904405477045" lon="10.070980921649396"><ele>332.0</ele><time>2026-04-04T08:03:49.998Z</time></trkpt><trkpt lat="44.70484823232585" lon="10.071040026515533"><ele>333.0</ele><time>2026-04-04T08:03:50.998Z</time></trkpt><trkpt lat="44.70478437477891" lon="10.071114129293408"><ele>334.0</ele><time>2026-04-04T08:03:51.998Z</time></trkpt><trkpt lat="44.704668911131684" lon="10.071126608101363"><ele>334.0</ele><time>2026-04-04T08:03:54Z</time></trkpt><trkpt lat="44.704566213174516" lon="10.071050558293996"><ele>334.0</ele><time>2026-04-04T08:03:56Z</time></trkpt><trkpt lat="44.70447156275522" lon="10.070977024372363"><ele>334.0</ele><time>2026-04-04T08:03:58Z</time></trkpt><trkpt lat="44.70438164119907" lon="10.070892322668277"><ele>334.0</ele><time>2026-04-04T08:04:00Z</time></trkpt><trkpt lat="44.704334917265335" lon="10.070822420430014"><ele>334.0</ele><time>2026-04-04T08:04:01Z</time></trkpt><trkpt lat="44.70425567759073" lon="10.07078336974013"><ele>337.79999999999995</ele><time>2026-04-04T08:04:03Z</time></trkpt><trkpt lat="44.70416105729082" lon="10.070896044250453"><ele>341.59999999999997</ele><time>2026-04-04T08:04:05Z</time></trkpt><trkpt lat="44.704065202969325" lon="10.070877204155053"><ele>345.4</ele><time>2026-04-04T08:04:07Z</time></trkpt><trkpt lat="44.70399990371514" lon="10.070859569041477"><ele>349.2</ele><time>2026-04-04T08:04:08Z</time></trkpt><trkpt lat="44.70393072714437" lon="10.070979270519274"><ele>353.0</ele><time>2026-04-04T08:04:10Z</time></trkpt><trkpt lat="44.70386470983131" lon="10.071015908154909"><ele>353.0</ele><time>2026-04-04T08:04:11Z</time></trkpt><trkpt lat="44.70377632891525" lon="10.07106013212285"><ele>353.0</ele><time>2026-04-04T08:04:12Z</time></trkpt><trkpt lat="44.70371340954249" lon="10.071019476978417"><ele>353.0</ele><time>2026-04-04T08:04:14Z</time></trkpt><trkpt lat="44.70369136898009" lon="10.070891843350577"><ele>353.0</ele><time>2026-04-04T08:04:16Z</time></trkpt><trkpt lat="44.70369999223641" lon="10.070800043260242"><ele>353.0</ele><time>2026-04-04T08:04:17Z</time></trkpt><trkpt lat="44.7037183229538" lon="10.070641914244"><ele>353.0</ele><time>2026-04-04T08:04:19Z</time></trkpt><trkpt lat="44.70370561646987" lon="10.070548468413396"><ele>353.0</ele><time>2026-04-04T08:04:20Z</time></trkpt><trkpt lat="44.70369881238106" lon="10.070394341916602"><ele>353.0</ele><time>2026-04-04T08:04:22Z</time></trkpt><trkpt lat="44.70370737562318" lon="10.070207414822193"><ele>353.0</ele><time>2026-04-04T08:04:24Z</time></trkpt><trkpt lat="44.70369294481712" lon="10.070113740400464"><ele>353.0</ele><time>2026-04-04T08:04:25Z</time></trkpt><trkpt lat="44.703662900777836" lon="10.07003580764295"><ele>353.0</ele><time>2026-04-04T08:04:26Z</time></trkpt><trkpt lat="44.70362953362706" lon="10.069924585588288"><ele>354.4</ele><time>2026-04-04T08:04:28Z</time></trkpt><trkpt lat="44.703599595337806" lon="10.069808548754011"><ele>355.79999999999995</ele><time>2026-04-04T08:04:30Z</time></trkpt><trkpt lat="44.70357361771774" lon="10.069727329634059"><ele>357.2</ele><time>2026-04-04T08:04:31Z</time></trkpt><trkpt lat="44.703514224543106" lon="10.06957944682177"><ele>358.6</ele><time>2026-04-04T08:04:32.999Z</time></trkpt><trkpt lat="44.70348123765899" lon="10.06947091527176"><ele>360.0</ele><time>2026-04-04T08:04:33.999Z</time></trkpt><trkpt lat="44.70345291716717" lon="10.069342091257418"><ele>360.0</ele><time>2026-04-04T08:04:34.999Z</time></trkpt><trkpt lat="44.70342048107766" lon="10.069212897960673"><ele>360.0</ele><time>2026-04-04T08:04:35.999Z</time></trkpt><trkpt lat="44.70338811795246" lon="10.069101961243339"><ele>360.0</ele><time>2026-04-04T08:04:36.999Z</time></trkpt><trkpt lat="44.70336533242485" lon="10.069004581403895"><ele>360.0</ele><time>2026-04-04T08:04:37.999Z</time></trkpt><trkpt lat="44.70335318070547" lon="10.068901314541383"><ele>360.0</ele><time>2026-04-04T08:04:38.999Z</time></trkpt><trkpt lat="44.70332603786523" lon="10.068799303316958"><ele>360.0</ele><time>2026-04-04T08:04:39.999Z</time></trkpt><trkpt lat="44.70328356424949" lon="10.068713393035052"><ele>360.3333333333333</ele><time>2026-04-04T08:04:40.999Z</time></trkpt><trkpt lat="44.703235149724094" lon="10.068652755719825"><ele>360.6666666666667</ele><time>2026-04-04T08:04:41.999Z</time></trkpt><trkpt lat="44.70310238416387" lon="10.068596900614578"><ele>361.0</ele><time>2026-04-04T08:04:43.999Z</time></trkpt><trkpt lat="44.70303001403286" lon="10.068539542550125"><ele>361.33333333333337</ele><time>2026-04-04T08:04:44.999Z</time></trkpt><trkpt lat="44.70297457908044" lon="10.068478796623387"><ele>361.6666666666667</ele><time>2026-04-04T08:04:45.999Z</time></trkpt><trkpt lat="44.70291870067569" lon="10.06839138102835"><ele>362.0</ele><time>2026-04-04T08:04:46.999Z</time></trkpt><trkpt lat="44.70285436927367" lon="10.06830697857181"><ele>362.1666666666667</ele><time>2026-04-04T08:04:47.999Z</time></trkpt><trkpt lat="44.70281011668292" lon="10.068231105513393"><ele>362.33333333333337</ele><time>2026-04-04T08:04:48.999Z</time></trkpt><trkpt lat="44.7027676253744" lon="10.06806820959044"><ele>362.5</ele><time>2026-04-04T08:04:50.999Z</time></trkpt><trkpt lat="44.70276501057725" lon="10.067978093749378"><ele>362.6666666666667</ele><time>2026-04-04T08:04:51.999Z</time></trkpt><trkpt lat="44.702766941776424" lon="10.067849196934917"><ele>362.8333333333333</ele><time>2026-04-04T08:04:52.999Z</time></trkpt><trkpt lat="44.70275472088263" lon="10.067717797975382"><ele>363.0</ele><time>2026-04-04T08:04:53.999Z</time></trkpt><trkpt lat="44.70273937973864" lon="10.067606894669115"><ele>363.0</ele><time>2026-04-04T08:04:54.999Z</time></trkpt><trkpt lat="44.70271695786985" lon="10.067501806208186"><ele>363.0</ele><time>2026-04-04T08:04:55.999Z</time></trkpt><trkpt lat="44.70269455877929" lon="10.067384263182984"><ele>363.0</ele><time>2026-04-04T08:04:56.999Z</time></trkpt><trkpt lat="44.702669518142045" lon="10.067278116133805"><ele>363.0</ele><time>2026-04-04T08:04:57.999Z</time></trkpt><trkpt lat="44.70264582095066" lon="10.067179460228095"><ele>363.0</ele><time>2026-04-04T08:04:58.999Z</time></trkpt><trkpt lat="44.70262610524063" lon="10.067050499031136"><ele>363.0</ele><time>2026-04-04T08:04:59.999Z</time></trkpt><trkpt lat="44.70260445730795" lon="10.066928617148873"><ele>362.5</ele><time>2026-04-04T08:05:00.999Z</time></trkpt><trkpt lat="44.702568083239605" lon="10.066824470853964"><ele>362.0</ele><time>2026-04-04T08:05:01.999Z</time></trkpt><trkpt lat="44.70252775137494" lon="10.066700989832459"><ele>361.5</ele><time>2026-04-04T08:05:02.999Z</time></trkpt><trkpt lat="44.70251467625812" lon="10.066588779959345"><ele>361.0</ele><time>2026-04-04T08:05:03.999Z</time></trkpt><trkpt lat="44.70251528326149" lon="10.066466662596262"><ele>360.5</ele><time>2026-04-04T08:05:04.999Z</time></trkpt><trkpt lat="44.702512621925095" lon="10.066348467281315"><ele>360.0</ele><time>2026-04-04T08:05:05.999Z</time></trkpt><trkpt lat="44.702499264335735" lon="10.066252757454784"><ele>359.8</ele><time>2026-04-04T08:05:06.999Z</time></trkpt><trkpt lat="44.70248849784236" lon="10.066107796680503"><ele>359.6</ele><time>2026-04-04T08:05:08.999Z</time></trkpt><trkpt lat="44.702495262383366" lon="10.065981685371229"><ele>359.4</ele><time>2026-04-04T08:05:10.999Z</time></trkpt><trkpt lat="44.7024680285428" lon="10.065836061156789"><ele>359.2</ele><time>2026-04-04T08:05:12.999Z</time></trkpt><trkpt lat="44.702447315047706" lon="10.06572888867174"><ele>359.0</ele><time>2026-04-04T08:05:13.999Z</time></trkpt><trkpt lat="44.702434890940594" lon="10.06561125311358"><ele>359.0</ele><time>2026-04-04T08:05:14.999Z</time></trkpt><trkpt lat="44.70241448051205" lon="10.065478732434698"><ele>359.0</ele><time>2026-04-04T08:05:15.998Z</time></trkpt><trkpt lat="44.702401496561045" lon="10.065369799377807"><ele>359.0</ele><time>2026-04-04T08:05:16.998Z</time></trkpt><trkpt lat="44.70239517863304" lon="10.065265770990399"><ele>359.0</ele><time>2026-04-04T08:05:17.998Z</time></trkpt><trkpt lat="44.70237261993736" lon="10.065138591876254"><ele>359.0</ele><time>2026-04-04T08:05:18.998Z</time></trkpt><trkpt lat="44.70235689999125" lon="10.065014019655106"><ele>359.0</ele><time>2026-04-04T08:05:19.998Z</time></trkpt><trkpt lat="44.702334441435916" lon="10.064824431463874"><ele>359.4</ele><time>2026-04-04T08:05:21.998Z</time></trkpt><trkpt lat="44.70231421733189" lon="10.06467318191142"><ele>359.79999999999995</ele><time>2026-04-04T08:05:22.998Z</time></trkpt><trkpt lat="44.70230224019884" lon="10.064552112189233"><ele>360.20000000000005</ele><time>2026-04-04T08:05:23.998Z</time></trkpt><trkpt lat="44.70229664313433" lon="10.064419862153192"><ele>360.6</ele><time>2026-04-04T08:05:24.998Z</time></trkpt><trkpt lat="44.7022862172039" lon="10.064285373628426"><ele>361.0</ele><time>2026-04-04T08:05:25.998Z</time></trkpt><trkpt lat="44.702285745676626" lon="10.064155722021704"><ele>362.0</ele><time>2026-04-04T08:05:26.998Z</time></trkpt><trkpt lat="44.70228390977283" lon="10.064041157445672"><ele>363.0</ele><time>2026-04-04T08:05:27.998Z</time></trkpt><trkpt lat="44.70228183282089" lon="10.063931435342964"><ele>364.0</ele><time>2026-04-04T08:05:28.998Z</time></trkpt><trkpt lat="44.70228270006812" lon="10.06381014246573"><ele>365.0</ele><time>2026-04-04T08:05:29.998Z</time></trkpt><trkpt lat="44.70229401894493" lon="10.063718988472768"><ele>366.0</ele><time>2026-04-04T08:05:30.998Z</time></trkpt><trkpt lat="44.702360671151084" lon="10.0635591881817"><ele>367.0</ele><time>2026-04-04T08:05:32.998Z</time></trkpt><trkpt lat="44.70238480391219" lon="10.063471533708789"><ele>367.0</ele><time>2026-04-04T08:05:33.998Z</time></trkpt><trkpt lat="44.702392484264074" lon="10.063342634233177"><ele>367.0</ele><time>2026-04-04T08:05:34.998Z</time></trkpt><trkpt lat="44.70240029028619" lon="10.063187368240959"><ele>367.0</ele><time>2026-04-04T08:05:35.998Z</time></trkpt><trkpt lat="44.70240798815602" lon="10.063017139744108"><ele>367.0</ele><time>2026-04-04T08:05:36.998Z</time></trkpt><trkpt lat="44.7024088756056" lon="10.062874585887897"><ele>367.0</ele><time>2026-04-04T08:05:37.998Z</time></trkpt><trkpt lat="44.70241187712245" lon="10.062736771135096"><ele>367.16666666666663</ele><time>2026-04-04T08:05:38.998Z</time></trkpt><trkpt lat="44.70241506879183" lon="10.06261185418359"><ele>367.3333333333333</ele><time>2026-04-04T08:05:39.998Z</time></trkpt><trkpt lat="44.702414438646905" lon="10.062490675509295"><ele>367.5</ele><time>2026-04-04T08:05:40.998Z</time></trkpt><trkpt lat="44.70241119122703" lon="10.062383184359028"><ele>367.6666666666667</ele><time>2026-04-04T08:05:41.998Z</time></trkpt><trkpt lat="44.702413122982456" lon="10.062270185100896"><ele>367.83333333333337</ele><time>2026-04-04T08:05:42.998Z</time></trkpt><trkpt lat="44.70241526968266" lon="10.062137567504896"><ele>368.0</ele><time>2026-04-04T08:05:43.998Z</time></trkpt><trkpt lat="44.702411257837134" lon="10.06200107231351"><ele>368.1666666666667</ele><time>2026-04-04T08:05:44.998Z</time></trkpt><trkpt lat="44.702404609619414" lon="10.061869422657425"><ele>368.33333333333337</ele><time>2026-04-04T08:05:45.998Z</time></trkpt><trkpt lat="44.70239940339068" lon="10.061750771328661"><ele>368.5</ele><time>2026-04-04T08:05:46.998Z</time></trkpt><trkpt lat="44.702400232315064" lon="10.061639570651778"><ele>368.6666666666667</ele><time>2026-04-04T08:05:47.998Z</time></trkpt><trkpt lat="44.702410307817104" lon="10.06153716643353"><ele>368.8333333333333</ele><time>2026-04-04T08:05:48.998Z</time></trkpt><trkpt lat="44.70242759861706" lon="10.061442196430612"><ele>369.0</ele><time>2026-04-04T08:05:49.998Z</time></trkpt><trkpt lat="44.702440918788504" lon="10.06134804526477"><ele>370.5</ele><time>2026-04-04T08:05:50.998Z</time></trkpt><trkpt lat="44.70244247775293" lon="10.061257928113115"><ele>372.0</ele><time>2026-04-04T08:05:51.998Z</time></trkpt><trkpt lat="44.70244305780954" lon="10.061164508481017"><ele>373.5</ele><time>2026-04-04T08:05:52.998Z</time></trkpt><trkpt lat="44.70242751527844" lon="10.060997824206746"><ele>375.0</ele><time>2026-04-04T08:05:54.998Z</time></trkpt><trkpt lat="44.70241782747963" lon="10.060877234742648"><ele>376.5</ele><time>2026-04-04T08:05:55.998Z</time></trkpt><trkpt lat="44.702416103228565" lon="10.060753620524283"><ele>378.0</ele><time>2026-04-04T08:05:56.998Z</time></trkpt><trkpt lat="44.702431591994284" lon="10.0606248080381"><ele>378.4</ele><time>2026-04-04T08:05:58Z</time></trkpt><trkpt lat="44.70244673817377" lon="10.060510422110228"><ele>378.79999999999995</ele><time>2026-04-04T08:05:59Z</time></trkpt><trkpt lat="44.702468176653944" lon="10.060361409569946"><ele>379.2</ele><time>2026-04-04T08:06:00Z</time></trkpt><trkpt lat="44.70247933863509" lon="10.060219936446291"><ele>379.6</ele><time>2026-04-04T08:06:01Z</time></trkpt><trkpt lat="44.70248501219263" lon="10.060064975209897"><ele>380.0</ele><time>2026-04-04T08:06:02Z</time></trkpt><trkpt lat="44.70248712653515" lon="10.059935880224764"><ele>380.2</ele><time>2026-04-04T08:06:03Z</time></trkpt><trkpt lat="44.70249579489219" lon="10.059806982032134"><ele>380.4</ele><time>2026-04-04T08:06:04Z</time></trkpt><trkpt lat="44.702501622572306" lon="10.059678886675846"><ele>380.6</ele><time>2026-04-04T08:06:05Z</time></trkpt><trkpt lat="44.70250826494828" lon="10.059564057753036"><ele>380.8</ele><time>2026-04-04T08:06:06Z</time></trkpt><trkpt lat="44.70251351066282" lon="10.059441323152376"><ele>381.0</ele><time>2026-04-04T08:06:07Z</time></trkpt><trkpt lat="44.702476574935666" lon="10.059267156061656"><ele>381.0</ele><time>2026-04-04T08:06:09Z</time></trkpt><trkpt lat="44.70243736648906" lon="10.05918350255611"><ele>381.0</ele><time>2026-04-04T08:06:10Z</time></trkpt><trkpt lat="44.702405026007014" lon="10.05903833142111"><ele>381.0</ele><time>2026-04-04T08:06:12Z</time></trkpt><trkpt lat="44.702397622761" lon="10.05892895633771"><ele>381.0</ele><time>2026-04-04T08:06:13Z</time></trkpt><trkpt lat="44.70239348765696" lon="10.058797419781834"><ele>381.0</ele><time>2026-04-04T08:06:14Z</time></trkpt><trkpt lat="44.70239126174375" lon="10.058650410674637"><ele>381.4</ele><time>2026-04-04T08:06:15Z</time></trkpt><trkpt lat="44.70238329391403" lon="10.058494133145372"><ele>381.8</ele><time>2026-04-04T08:06:16Z</time></trkpt><trkpt lat="44.702370531603" lon="10.058327561978974"><ele>382.2</ele><time>2026-04-04T08:06:17Z</time></trkpt><trkpt lat="44.70235584187469" lon="10.058168364938807"><ele>382.59999999999997</ele><time>2026-04-04T08:06:18Z</time></trkpt><trkpt lat="44.702337428131734" lon="10.058044300877834"><ele>383.0</ele><time>2026-04-04T08:06:19Z</time></trkpt><trkpt lat="44.70232034170707" lon="10.057890682706445"><ele>385.25</ele><time>2026-04-04T08:06:20Z</time></trkpt><trkpt lat="44.70230693452819" lon="10.057728797888968"><ele>387.5</ele><time>2026-04-04T08:06:21Z</time></trkpt><trkpt lat="44.70227894464098" lon="10.057568932822726"><ele>389.75</ele><time>2026-04-04T08:06:22Z</time></trkpt><trkpt lat="44.70225356269528" lon="10.057409332875475"><ele>392.0</ele><time>2026-04-04T08:06:23Z</time></trkpt><trkpt lat="44.70223334045336" lon="10.057262598828338"><ele>392.49999999999994</ele><time>2026-04-04T08:06:24Z</time></trkpt><trkpt lat="44.70221462488154" lon="10.057119273821073"><ele>393.0</ele><time>2026-04-04T08:06:25Z</time></trkpt><trkpt lat="44.70220776154434" lon="10.0569972885004"><ele>393.5</ele><time>2026-04-04T08:06:26Z</time></trkpt><trkpt lat="44.702193160423974" lon="10.056874945029001"><ele>394.0</ele><time>2026-04-04T08:06:27Z</time></trkpt><trkpt lat="44.70216636827065" lon="10.056765591216406"><ele>394.49999999999994</ele><time>2026-04-04T08:06:28Z</time></trkpt><trkpt lat="44.70213742812321" lon="10.05668159321131"><ele>395.0</ele><time>2026-04-04T08:06:29Z</time></trkpt><trkpt lat="44.702091037311206" lon="10.056604984540845"><ele>396.8</ele><time>2026-04-04T08:06:30Z</time></trkpt><trkpt lat="44.70204974224486" lon="10.05647987246263"><ele>398.6</ele><time>2026-04-04T08:06:32Z</time></trkpt><trkpt lat="44.70200544116656" lon="10.056372239304979"><ele>400.4</ele><time>2026-04-04T08:06:34Z</time></trkpt><trkpt lat="44.702007963647326" lon="10.056226646586415"><ele>402.2</ele><time>2026-04-04T08:06:40.999Z</time></trkpt><trkpt lat="44.702021807477905" lon="10.056103491399233"><ele>404.0</ele><time>2026-04-04T08:06:42.999Z</time></trkpt><trkpt lat="44.70203581177518" lon="10.055984562996155"><ele>403.99999999999994</ele><time>2026-04-04T08:06:43.999Z</time></trkpt><trkpt lat="44.70205707774393" lon="10.055874903100353"><ele>404.0</ele><time>2026-04-04T08:06:44.999Z</time></trkpt><trkpt lat="44.702083954773634" lon="10.055768733779988"><ele>404.0</ele><time>2026-04-04T08:06:45.999Z</time></trkpt><trkpt lat="44.702094747279986" lon="10.055640521734189"><ele>404.0</ele><time>2026-04-04T08:06:46.999Z</time></trkpt><trkpt lat="44.70210604147235" lon="10.055551955226644"><ele>403.99999999999994</ele><time>2026-04-04T08:06:47.999Z</time></trkpt><trkpt lat="44.70201297209769" lon="10.055537625818497"><ele>404.0</ele><time>2026-04-04T08:06:50.999Z</time></trkpt><trkpt lat="44.70193954720836" lon="10.055618613623562"><ele>409.0</ele><time>2026-04-04T08:06:52.999Z</time></trkpt><trkpt lat="44.70183908890263" lon="10.055652163432732"><ele>414.0</ele><time>2026-04-04T08:06:54.999Z</time></trkpt><trkpt lat="44.70176455486026" lon="10.055700949617504"><ele>419.0</ele><time>2026-04-04T08:06:55.999Z</time></trkpt><trkpt lat="44.70163581217864" lon="10.055771248321513"><ele>424.0</ele><time>2026-04-04T08:06:57.999Z</time></trkpt><trkpt lat="44.70154196289234" lon="10.055845869894515"><ele>429.0</ele><time>2026-04-04T08:06:59.999Z</time></trkpt><trkpt lat="44.70151371924474" lon="10.055711256642862"><ele>429.2</ele><time>2026-04-04T08:07:01.999Z</time></trkpt><trkpt lat="44.701549922284364" lon="10.055633823394567"><ele>429.4</ele><time>2026-04-04T08:07:02.999Z</time></trkpt><trkpt lat="44.70165864860559" lon="10.055500975566993"><ele>429.6</ele><time>2026-04-04T08:07:04.999Z</time></trkpt><trkpt lat="44.70169265745693" lon="10.055375610232694"><ele>429.8</ele><time>2026-04-04T08:07:05.999Z</time></trkpt><trkpt lat="44.70172804526834" lon="10.05525995329265"><ele>430.0</ele><time>2026-04-04T08:07:06.999Z</time></trkpt><trkpt lat="44.701705165257394" lon="10.055092229447196"><ele>430.0</ele><time>2026-04-04T08:07:08.999Z</time></trkpt><trkpt lat="44.701673451893406" lon="10.054994788160954"><ele>430.0</ele><time>2026-04-04T08:07:09.999Z</time></trkpt><trkpt lat="44.70165313208094" lon="10.05487402152235"><ele>430.0</ele><time>2026-04-04T08:07:10.999Z</time></trkpt><trkpt lat="44.70166289150688" lon="10.054755319555447"><ele>430.0</ele><time>2026-04-04T08:07:11.999Z</time></trkpt><trkpt lat="44.7016951740038" lon="10.0546261878138"><ele>430.0</ele><time>2026-04-04T08:07:12.999Z</time></trkpt><trkpt lat="44.70171408189226" lon="10.054475342853136"><ele>430.33333333333337</ele><time>2026-04-04T08:07:13.999Z</time></trkpt><trkpt lat="44.7017279817241" lon="10.054345799745736"><ele>430.6666666666667</ele><time>2026-04-04T08:07:14.999Z</time></trkpt><trkpt lat="44.70174040207157" lon="10.054230444979588"><ele>431.0</ele><time>2026-04-04T08:07:15.999Z</time></trkpt><trkpt lat="44.7017559307743" lon="10.05409765067086"><ele>431.33333333333337</ele><time>2026-04-04T08:07:16.999Z</time></trkpt><trkpt lat="44.70175596084721" lon="10.053966971057218"><ele>431.6666666666667</ele><time>2026-04-04T08:07:17.999Z</time></trkpt><trkpt lat="44.701774183076246" lon="10.053857182990818"><ele>432.0</ele><time>2026-04-04T08:07:18.999Z</time></trkpt><trkpt lat="44.701770363943574" lon="10.053757621022719"><ele>432.0</ele><time>2026-04-04T08:07:19.998Z</time></trkpt><trkpt lat="44.70175375572675" lon="10.053652196903872"><ele>432.0</ele><time>2026-04-04T08:07:20.998Z</time></trkpt><trkpt lat="44.701630931883834" lon="10.05347710244229"><ele>432.0</ele><time>2026-04-04T08:07:22.998Z</time></trkpt><trkpt lat="44.70173662437708" lon="10.053383985718243"><ele>432.0</ele><time>2026-04-04T08:07:24.998Z</time></trkpt><trkpt lat="44.70175792190159" lon="10.053256409301445"><ele>431.5</ele><time>2026-04-04T08:07:26.998Z</time></trkpt><trkpt lat="44.701788881506836" lon="10.053172036069267"><ele>431.0</ele><time>2026-04-04T08:07:27.998Z</time></trkpt><trkpt lat="44.70182718685984" lon="10.053081919175408"><ele>430.5</ele><time>2026-04-04T08:07:28.998Z</time></trkpt><trkpt lat="44.70188288265068" lon="10.053010843705426"><ele>430.0</ele><time>2026-04-04T08:07:29.998Z</time></trkpt><trkpt lat="44.70193947715005" lon="10.052904949990767"><ele>429.5</ele><time>2026-04-04T08:07:31.998Z</time></trkpt><trkpt lat="44.70196893130298" lon="10.052807184568364"><ele>429.0</ele><time>2026-04-04T08:07:33.998Z</time></trkpt><trkpt lat="44.70201529504838" lon="10.052707981980028"><ele>429.0</ele><time>2026-04-04T08:07:35.998Z</time></trkpt><trkpt lat="44.702096042652656" lon="10.052617846062994"><ele>429.0</ele><time>2026-04-04T08:07:37.998Z</time></trkpt><trkpt lat="44.702169841181274" lon="10.0525481361416"><ele>429.0</ele><time>2026-04-04T08:07:39.998Z</time></trkpt><trkpt lat="44.702293683579235" lon="10.052484125041197"><ele>429.0</ele><time>2026-04-04T08:07:41.998Z</time></trkpt><trkpt lat="44.70236378783636" lon="10.052449143479697"><ele>429.0</ele><time>2026-04-04T08:07:42.998Z</time></trkpt><trkpt lat="44.702427866180926" lon="10.052427031000835"><ele>427.3333333333333</ele><time>2026-04-04T08:07:43.998Z</time></trkpt><trkpt lat="44.70250076641889" lon="10.052389064725471"><ele>425.66666666666663</ele><time>2026-04-04T08:07:44.998Z</time></trkpt><trkpt lat="44.702570269142164" lon="10.052332719795132"><ele>424.0</ele><time>2026-04-04T08:07:45.998Z</time></trkpt><trkpt lat="44.702619587324335" lon="10.052258260344406"><ele>422.3333333333333</ele><time>2026-04-04T08:07:46.998Z</time></trkpt><trkpt lat="44.70265265416239" lon="10.052111504116223"><ele>420.66666666666663</ele><time>2026-04-04T08:07:48.998Z</time></trkpt><trkpt lat="44.702684713262684" lon="10.052033267556888"><ele>419.0</ele><time>2026-04-04T08:07:49.998Z</time></trkpt><trkpt lat="44.70277469529167" lon="10.05189456061515"><ele>418.8333333333333</ele><time>2026-04-04T08:07:51.998Z</time></trkpt><trkpt lat="44.70281889056084" lon="10.051769174615199"><ele>418.66666666666663</ele><time>2026-04-04T08:07:52.998Z</time></trkpt><trkpt lat="44.7028542671872" lon="10.05164986523596"><ele>418.5</ele><time>2026-04-04T08:07:53.998Z</time></trkpt><trkpt lat="44.70288650383205" lon="10.051531059595943"><ele>418.33333333333337</ele><time>2026-04-04T08:07:54.998Z</time></trkpt><trkpt lat="44.7029149209833" lon="10.051433354675565"><ele>418.1666666666667</ele><time>2026-04-04T08:07:55.998Z</time></trkpt><trkpt lat="44.70294924001859" lon="10.051350915768426"><ele>418.0</ele><time>2026-04-04T08:07:56.998Z</time></trkpt><trkpt lat="44.702989910200166" lon="10.051275851416863"><ele>418.0</ele><time>2026-04-04T08:07:57.998Z</time></trkpt><trkpt lat="44.70302966835989" lon="10.051163750047023"><ele>418.0</ele><time>2026-04-04T08:07:58.998Z</time></trkpt><trkpt lat="44.70306771109346" lon="10.051016804828334"><ele>418.0</ele><time>2026-04-04T08:07:59.998Z</time></trkpt><trkpt lat="44.70311874628923" lon="10.050864835843017"><ele>418.0</ele><time>2026-04-04T08:08:00.998Z</time></trkpt><trkpt lat="44.70318952101267" lon="10.05073961347498"><ele>418.0</ele><time>2026-04-04T08:08:01.998Z</time></trkpt><trkpt lat="44.70326493230607" lon="10.050612355575659"><ele>418.59999999999997</ele><time>2026-04-04T08:08:02.998Z</time></trkpt><trkpt lat="44.70332016910423" lon="10.050493393506303"><ele>419.2</ele><time>2026-04-04T08:08:04Z</time></trkpt><trkpt lat="44.70337306004541" lon="10.050374838173534"><ele>419.8</ele><time>2026-04-04T08:08:05Z</time></trkpt><trkpt lat="44.703412605618546" lon="10.050268947005334"><ele>420.4</ele><time>2026-04-04T08:08:06Z</time></trkpt><trkpt lat="44.70343809789819" lon="10.050148019967994"><ele>421.0</ele><time>2026-04-04T08:08:07Z</time></trkpt><trkpt lat="44.70346547922477" lon="10.050036194185902"><ele>420.4</ele><time>2026-04-04T08:08:08Z</time></trkpt><trkpt lat="44.70347233957177" lon="10.049918673272817"><ele>419.8</ele><time>2026-04-04T08:08:09Z</time></trkpt><trkpt lat="44.7034822689644" lon="10.049768108940231"><ele>419.2</ele><time>2026-04-04T08:08:10Z</time></trkpt><trkpt lat="44.703494592658274" lon="10.049589476340536"><ele>418.59999999999997</ele><time>2026-04-04T08:08:11Z</time></trkpt><trkpt lat="44.703498242084564" lon="10.04942966590814"><ele>418.0</ele><time>2026-04-04T08:08:12Z</time></trkpt><trkpt lat="44.703500471298604" lon="10.049284316266169"><ele>418.0</ele><time>2026-04-04T08:08:13Z</time></trkpt><trkpt lat="44.70350757486481" lon="10.049156064501272"><ele>418.0</ele><time>2026-04-04T08:08:14Z</time></trkpt><trkpt lat="44.70353492659141" lon="10.049026321623346"><ele>418.0</ele><time>2026-04-04T08:08:15Z</time></trkpt><trkpt lat="44.70356959868255" lon="10.048906492022034"><ele>418.0</ele><time>2026-04-04T08:08:16Z</time></trkpt><trkpt lat="44.70360233687624" lon="10.048801867316717"><ele>418.0</ele><time>2026-04-04T08:08:17Z</time></trkpt><trkpt lat="44.70364316901436" lon="10.048673771155405"><ele>416.6666666666667</ele><time>2026-04-04T08:08:18Z</time></trkpt><trkpt lat="44.70368010903444" lon="10.048555663303047"><ele>415.33333333333337</ele><time>2026-04-04T08:08:19Z</time></trkpt><trkpt lat="44.703703463445684" lon="10.048435063270906"><ele>414.0</ele><time>2026-04-04T08:08:20Z</time></trkpt><trkpt lat="44.70372650489196" lon="10.048317729599582"><ele>412.66666666666663</ele><time>2026-04-04T08:08:21Z</time></trkpt><trkpt lat="44.70374500136952" lon="10.048212618277052"><ele>411.3333333333333</ele><time>2026-04-04T08:08:22Z</time></trkpt><trkpt lat="44.70374443471427" lon="10.048088807265426"><ele>410.0</ele><time>2026-04-04T08:08:23Z</time></trkpt><trkpt lat="44.703756960037445" lon="10.047995448876677"><ele>412.8333333333333</ele><time>2026-04-04T08:08:24Z</time></trkpt><trkpt lat="44.70378413280861" lon="10.047890275357194"><ele>415.66666666666663</ele><time>2026-04-04T08:08:25Z</time></trkpt><trkpt lat="44.70380448570852" lon="10.047803656777619"><ele>418.5</ele><time>2026-04-04T08:08:26Z</time></trkpt><trkpt lat="44.70377353625818" lon="10.047651265599068"><ele>421.33333333333337</ele><time>2026-04-04T08:08:28Z</time></trkpt><trkpt lat="44.70370941232401" lon="10.047515541456793"><ele>424.1666666666667</ele><time>2026-04-04T08:08:30Z</time></trkpt><trkpt lat="44.703667139951015" lon="10.047448603983382"><ele>427.0</ele><time>2026-04-04T08:08:31Z</time></trkpt><trkpt lat="44.70363415079953" lon="10.0473550153572"><ele>424.83333333333337</ele><time>2026-04-04T08:08:32Z</time></trkpt><trkpt lat="44.70361166343329" lon="10.047259381334433"><ele>422.6666666666667</ele><time>2026-04-04T08:08:33Z</time></trkpt><trkpt lat="44.70359356072525" lon="10.0471503687838"><ele>420.5</ele><time>2026-04-04T08:08:34Z</time></trkpt><trkpt lat="44.70358012521776" lon="10.047030387741351"><ele>418.33333333333337</ele><time>2026-04-04T08:08:35Z</time></trkpt><trkpt lat="44.70358601811759" lon="10.046922431680754"><ele>416.1666666666667</ele><time>2026-04-04T08:08:36Z</time></trkpt><trkpt lat="44.70361237420051" lon="10.04680573588214"><ele>414.0</ele><time>2026-04-04T08:08:37Z</time></trkpt><trkpt lat="44.70363317389058" lon="10.046720535853202"><ele>415.2</ele><time>2026-04-04T08:08:38Z</time></trkpt><trkpt lat="44.7036500477955" lon="10.046555826440121"><ele>416.4</ele><time>2026-04-04T08:08:40Z</time></trkpt><trkpt lat="44.703656166516" lon="10.046404876802692"><ele>417.6</ele><time>2026-04-04T08:08:41.999Z</time></trkpt><trkpt lat="44.70363101086422" lon="10.046254189664914"><ele>418.8</ele><time>2026-04-04T08:08:43.999Z</time></trkpt><trkpt lat="44.70358664671317" lon="10.046158142944057"><ele>420.0</ele><time>2026-04-04T08:08:45.999Z</time></trkpt><trkpt lat="44.7035372547146" lon="10.046035337968563"><ele>420.0</ele><time>2026-04-04T08:08:47.999Z</time></trkpt><trkpt lat="44.7034908109432" lon="10.045950091890361"><ele>420.0</ele><time>2026-04-04T08:08:48.999Z</time></trkpt><trkpt lat="44.703460344271626" lon="10.045866860350237"><ele>420.0</ele><time>2026-04-04T08:08:49.999Z</time></trkpt><trkpt lat="44.70342665855896" lon="10.045744259138138"><ele>420.0</ele><time>2026-04-04T08:08:51.999Z</time></trkpt><trkpt lat="44.70342811436688" lon="10.045580693074045"><ele>420.0</ele><time>2026-04-04T08:08:53.999Z</time></trkpt><trkpt lat="44.70341656638476" lon="10.045475468335837"><ele>420.0</ele><time>2026-04-04T08:08:54.999Z</time></trkpt><trkpt lat="44.70337781340295" lon="10.045340597439175"><ele>420.0</ele><time>2026-04-04T08:08:56.999Z</time></trkpt><trkpt lat="44.70339964843596" lon="10.045192006022386"><ele>420.0</ele><time>2026-04-04T08:08:58.999Z</time></trkpt><trkpt lat="44.703437445784004" lon="10.045106631139872"><ele>420.0</ele><time>2026-04-04T08:08:59.999Z</time></trkpt><trkpt lat="44.70345829280715" lon="10.045021964165192"><ele>420.0</ele><time>2026-04-04T08:09:00.999Z</time></trkpt><trkpt lat="44.703483498801575" lon="10.04493958583226"><ele>420.0</ele><time>2026-04-04T08:09:01.999Z</time></trkpt><trkpt lat="44.70350014389048" lon="10.044850184917724"><ele>420.0</ele><time>2026-04-04T08:09:02.999Z</time></trkpt><trkpt lat="44.70346606073234" lon="10.044682798643324"><ele>420.0</ele><time>2026-04-04T08:09:04.999Z</time></trkpt><trkpt lat="44.70342320407319" lon="10.044599313994283"><ele>420.0</ele><time>2026-04-04T08:09:05.999Z</time></trkpt><trkpt lat="44.70338504483918" lon="10.044506008409842"><ele>420.0</ele><time>2026-04-04T08:09:06.999Z</time></trkpt><trkpt lat="44.70332678585024" lon="10.044437043816602"><ele>420.0</ele><time>2026-04-04T08:09:07.999Z</time></trkpt><trkpt lat="44.703261500033015" lon="10.044367363699784"><ele>420.0</ele><time>2026-04-04T08:09:08.999Z</time></trkpt><trkpt lat="44.70320901763625" lon="10.04430210673983"><ele>420.0</ele><time>2026-04-04T08:09:09.999Z</time></trkpt><trkpt lat="44.70315971330802" lon="10.044223964245475"><ele>420.8</ele><time>2026-04-04T08:09:10.999Z</time></trkpt><trkpt lat="44.70309358832753" lon="10.044075385461925"><ele>421.6</ele><time>2026-04-04T08:09:12.999Z</time></trkpt><trkpt lat="44.70306031916336" lon="10.043913609753947"><ele>422.4</ele><time>2026-04-04T08:09:14.999Z</time></trkpt><trkpt lat="44.70304084831527" lon="10.04373164635923"><ele>423.2</ele><time>2026-04-04T08:09:16.999Z</time></trkpt><trkpt lat="44.70301953175367" lon="10.043637738990883"><ele>424.0</ele><time>2026-04-04T08:09:17.999Z</time></trkpt><trkpt lat="44.702989838627765" lon="10.043520774322147"><ele>424.00000000000006</ele><time>2026-04-04T08:09:18.999Z</time></trkpt><trkpt lat="44.70295587953923" lon="10.043426028960335"><ele>424.0</ele><time>2026-04-04T08:09:19.999Z</time></trkpt><trkpt lat="44.70289036615834" lon="10.043340388514236"><ele>424.0</ele><time>2026-04-04T08:09:21.999Z</time></trkpt><trkpt lat="44.7028709269972" lon="10.043207481552594"><ele>424.0</ele><time>2026-04-04T08:09:23.999Z</time></trkpt><trkpt lat="44.70289755341444" lon="10.04306543403365"><ele>424.00000000000006</ele><time>2026-04-04T08:09:25.998Z</time></trkpt><trkpt lat="44.702922714233935" lon="10.042967607459262"><ele>424.0</ele><time>2026-04-04T08:09:27.998Z</time></trkpt><trkpt lat="44.70299080672633" lon="10.042874451930196"><ele>423.79999999999995</ele><time>2026-04-04T08:09:30.998Z</time></trkpt><trkpt lat="44.703055126902825" lon="10.042772224941402"><ele>423.59999999999997</ele><time>2026-04-04T08:09:33.998Z</time></trkpt><trkpt lat="44.703111664890685" lon="10.042731037478921"><ele>423.4</ele><time>2026-04-04T08:09:34.998Z</time></trkpt><trkpt lat="44.7032266356102" lon="10.04266119633194"><ele>423.2</ele><time>2026-04-04T08:09:36.998Z</time></trkpt><trkpt lat="44.703296695906445" lon="10.04258400539191"><ele>423.0</ele><time>2026-04-04T08:09:38.998Z</time></trkpt><trkpt lat="44.70337394932146" lon="10.042523818145876"><ele>421.79999999999995</ele><time>2026-04-04T08:09:40.998Z</time></trkpt><trkpt lat="44.70349321326485" lon="10.042455146344164"><ele>420.6</ele><time>2026-04-04T08:09:42.998Z</time></trkpt><trkpt lat="44.703616595603826" lon="10.042394185805064"><ele>419.4</ele><time>2026-04-04T08:09:44.998Z</time></trkpt><trkpt lat="44.703691320975885" lon="10.042280922235062"><ele>418.20000000000005</ele><time>2026-04-04T08:09:46.998Z</time></trkpt><trkpt lat="44.703726048013884" lon="10.042202720446088"><ele>417.0</ele><time>2026-04-04T08:09:47.998Z</time></trkpt><trkpt lat="44.703759192626705" lon="10.042122509743256"><ele>419.0</ele><time>2026-04-04T08:09:48.998Z</time></trkpt><trkpt lat="44.70379714725139" lon="10.042019204320468"><ele>421.0</ele><time>2026-04-04T08:09:49.998Z</time></trkpt><trkpt lat="44.70384231284687" lon="10.041916276033056"><ele>423.0</ele><time>2026-04-04T08:09:50.998Z</time></trkpt><trkpt lat="44.70387969507558" lon="10.041840983375748"><ele>425.0</ele><time>2026-04-04T08:09:51.998Z</time></trkpt><trkpt lat="44.703929328516296" lon="10.04178452963699"><ele>427.0</ele><time>2026-04-04T08:09:52.998Z</time></trkpt><trkpt lat="44.70398238785097" lon="10.04170426598119"><ele>429.0</ele><time>2026-04-04T08:09:53.998Z</time></trkpt><trkpt lat="44.704033397303036" lon="10.041607647701623"><ele>429.0</ele><time>2026-04-04T08:09:54.998Z</time></trkpt><trkpt lat="44.70407822618186" lon="10.041515489166313"><ele>429.0</ele><time>2026-04-04T08:09:55.998Z</time></trkpt><trkpt lat="44.70411951809917" lon="10.041423746488373"><ele>429.0</ele><time>2026-04-04T08:09:56.998Z</time></trkpt><trkpt lat="44.70416753127492" lon="10.041327157928244"><ele>429.0</ele><time>2026-04-04T08:09:57.998Z</time></trkpt><trkpt lat="44.704216816728085" lon="10.041229160979292"><ele>429.0</ele><time>2026-04-04T08:09:58.998Z</time></trkpt><trkpt lat="44.70426583620909" lon="10.0411389697442"><ele>429.0</ele><time>2026-04-04T08:09:59.998Z</time></trkpt><trkpt lat="44.70431373474595" lon="10.041046538121234"><ele>429.0</ele><time>2026-04-04T08:10:00.998Z</time></trkpt><trkpt lat="44.70435614209527" lon="10.040947529414554"><ele>429.0</ele><time>2026-04-04T08:10:01.998Z</time></trkpt><trkpt lat="44.70440371969528" lon="10.040846332715521"><ele>429.0</ele><time>2026-04-04T08:10:02.998Z</time></trkpt><trkpt lat="44.7044529626032" lon="10.040754555303872"><ele>429.0</ele><time>2026-04-04T08:10:03.998Z</time></trkpt><trkpt lat="44.704508358947535" lon="10.040679018922448"><ele>429.0</ele><time>2026-04-04T08:10:04.998Z</time></trkpt><trkpt lat="44.70456676526275" lon="10.040626749866503"><ele>429.0</ele><time>2026-04-04T08:10:05.998Z</time></trkpt><trkpt lat="44.70466487890854" lon="10.040589412935194"><ele>428.3333333333333</ele><time>2026-04-04T08:10:07.998Z</time></trkpt><trkpt lat="44.704749642603176" lon="10.040526058155777"><ele>427.66666666666663</ele><time>2026-04-04T08:10:10Z</time></trkpt><trkpt lat="44.704804954891124" lon="10.040468629502936"><ele>427.0</ele><time>2026-04-04T08:10:11Z</time></trkpt><trkpt lat="44.70485582949618" lon="10.04040199745004"><ele>426.3333333333333</ele><time>2026-04-04T08:10:12Z</time></trkpt><trkpt lat="44.704902399381524" lon="10.040330331207455"><ele>425.66666666666663</ele><time>2026-04-04T08:10:13Z</time></trkpt><trkpt lat="44.7049471792761" lon="10.040235678222633"><ele>425.0</ele><time>2026-04-04T08:10:14Z</time></trkpt><trkpt lat="44.70498984094993" lon="10.04015733936618"><ele>424.99999999999994</ele><time>2026-04-04T08:10:15Z</time></trkpt><trkpt lat="44.70504697067801" lon="10.04008767382164"><ele>425.0</ele><time>2026-04-04T08:10:16Z</time></trkpt><trkpt lat="44.705119095556235" lon="10.040021261564148"><ele>425.0</ele><time>2026-04-04T08:10:17Z</time></trkpt><trkpt lat="44.70519303116546" lon="10.039930366770262"><ele>425.0</ele><time>2026-04-04T08:10:18Z</time></trkpt><trkpt lat="44.705258129179335" lon="10.039843450039694"><ele>424.99999999999994</ele><time>2026-04-04T08:10:19Z</time></trkpt><trkpt lat="44.70532158995664" lon="10.039757211096509"><ele>425.0</ele><time>2026-04-04T08:10:20Z</time></trkpt><trkpt lat="44.7053824770464" lon="10.039668719652889"><ele>422.49999999999994</ele><time>2026-04-04T08:10:21Z</time></trkpt><trkpt lat="44.705426546020384" lon="10.03958233367984"><ele>420.0</ele><time>2026-04-04T08:10:22Z</time></trkpt><trkpt lat="44.705456032953236" lon="10.039484726046407"><ele>417.5</ele><time>2026-04-04T08:10:23Z</time></trkpt><trkpt lat="44.70545799951139" lon="10.039391848996416"><ele>415.0</ele><time>2026-04-04T08:10:24Z</time></trkpt><trkpt lat="44.70545425442715" lon="10.039271121896048"><ele>412.49999999999994</ele><time>2026-04-04T08:10:25Z</time></trkpt><trkpt lat="44.705447309839755" lon="10.039134478785375"><ele>410.0</ele><time>2026-04-04T08:10:26Z</time></trkpt><trkpt lat="44.705455396158975" lon="10.03898976138856"><ele>409.6</ele><time>2026-04-04T08:10:27Z</time></trkpt><trkpt lat="44.70548029478051" lon="10.038864485207736"><ele>409.2</ele><time>2026-04-04T08:10:28Z</time></trkpt><trkpt lat="44.70550895296601" lon="10.038709577549321"><ele>408.79999999999995</ele><time>2026-04-04T08:10:29Z</time></trkpt><trkpt lat="44.70553809311241" lon="10.038572157127124"><ele>408.4</ele><time>2026-04-04T08:10:30Z</time></trkpt><trkpt lat="44.705568105962506" lon="10.038446584058331"><ele>408.0</ele><time>2026-04-04T08:10:31Z</time></trkpt><trkpt lat="44.70559600245599" lon="10.03832756671468"><ele>408.4</ele><time>2026-04-04T08:10:32Z</time></trkpt><trkpt lat="44.70563461002332" lon="10.038219719861898"><ele>408.79999999999995</ele><time>2026-04-04T08:10:33Z</time></trkpt><trkpt lat="44.70570049561368" lon="10.038100435846925"><ele>409.2</ele><time>2026-04-04T08:10:34Z</time></trkpt><trkpt lat="44.70576786655098" lon="10.037989997234122"><ele>409.6</ele><time>2026-04-04T08:10:35Z</time></trkpt><trkpt lat="44.705810534576266" lon="10.03789182440972"><ele>410.0</ele><time>2026-04-04T08:10:36Z</time></trkpt><trkpt lat="44.70584731382629" lon="10.037756301424636"><ele>410.0</ele><time>2026-04-04T08:10:37Z</time></trkpt><trkpt lat="44.70587035178652" lon="10.037600445922806"><ele>410.0</ele><time>2026-04-04T08:10:38Z</time></trkpt><trkpt lat="44.70589571575816" lon="10.037430145400943"><ele>410.0</ele><time>2026-04-04T08:10:39Z</time></trkpt><trkpt lat="44.70592170990871" lon="10.03720532819531"><ele>410.0</ele><time>2026-04-04T08:10:40Z</time></trkpt><trkpt lat="44.7059486554063" lon="10.037030633058636"><ele>409.99999999999994</ele><time>2026-04-04T08:10:41Z</time></trkpt><trkpt lat="44.70596484127004" lon="10.036882054168133"><ele>410.0</ele><time>2026-04-04T08:10:42Z</time></trkpt><trkpt lat="44.70599000032726" lon="10.036781162785859"><ele>410.0</ele><time>2026-04-04T08:10:43Z</time></trkpt><trkpt lat="44.70602463189941" lon="10.03665865502874"><ele>410.0</ele><time>2026-04-04T08:10:44Z</time></trkpt><trkpt lat="44.70606888535566" lon="10.036572485521614"><ele>409.99999999999994</ele><time>2026-04-04T08:10:44.999Z</time></trkpt><trkpt lat="44.70611848079449" lon="10.03648970164949"><ele>410.0</ele><time>2026-04-04T08:10:45.999Z</time></trkpt><trkpt lat="44.70618250442303" lon="10.036411067598147"><ele>411.75</ele><time>2026-04-04T08:10:46.999Z</time></trkpt><trkpt lat="44.70627085636132" lon="10.03626859363284"><ele>413.5</ele><time>2026-04-04T08:10:48.999Z</time></trkpt><trkpt lat="44.70634359099952" lon="10.036127901421848"><ele>415.25</ele><time>2026-04-04T08:10:50.999Z</time></trkpt><trkpt lat="44.70639915902817" lon="10.0359659349342"><ele>417.0</ele><time>2026-04-04T08:10:52.999Z</time></trkpt><trkpt lat="44.70643348830862" lon="10.035886006621725"><ele>417.8</ele><time>2026-04-04T08:10:53.999Z</time></trkpt><trkpt lat="44.70649978003688" lon="10.035753576524884"><ele>418.6</ele><time>2026-04-04T08:10:55.999Z</time></trkpt><trkpt lat="44.70657732700493" lon="10.035621846832145"><ele>419.40000000000003</ele><time>2026-04-04T08:10:57.999Z</time></trkpt><trkpt lat="44.706638357783405" lon="10.03549995248995"><ele>420.20000000000005</ele><time>2026-04-04T08:10:59.999Z</time></trkpt><trkpt lat="44.70666886892393" lon="10.035418159210328"><ele>421.0</ele><time>2026-04-04T08:11:00.999Z</time></trkpt><trkpt lat="44.70671539639844" lon="10.03533984776969"><ele>421.0</ele><time>2026-04-04T08:11:01.999Z</time></trkpt><trkpt lat="44.70678032552703" lon="10.035248647960415"><ele>421.0</ele><time>2026-04-04T08:11:02.999Z</time></trkpt><trkpt lat="44.70686563877995" lon="10.035156301431483"><ele>421.0</ele><time>2026-04-04T08:11:03.999Z</time></trkpt><trkpt lat="44.706946719580834" lon="10.035070572717087"><ele>421.0</ele><time>2026-04-04T08:11:04.999Z</time></trkpt><trkpt lat="44.70703486810158" lon="10.034966117441812"><ele>421.0</ele><time>2026-04-04T08:11:05.999Z</time></trkpt><trkpt lat="44.70709843002896" lon="10.034868992806462"><ele>423.83333333333337</ele><time>2026-04-04T08:11:06.999Z</time></trkpt><trkpt lat="44.70713896124446" lon="10.034790531415354"><ele>426.6666666666667</ele><time>2026-04-04T08:11:07.999Z</time></trkpt><trkpt lat="44.70719068179522" lon="10.034728836159266"><ele>429.5</ele><time>2026-04-04T08:11:08.999Z</time></trkpt><trkpt lat="44.707267040510175" lon="10.03468132095718"><ele>432.33333333333337</ele><time>2026-04-04T08:11:15.999Z</time></trkpt><trkpt lat="44.70732077531925" lon="10.034630021725137"><ele>435.1666666666667</ele><time>2026-04-04T08:11:16.999Z</time></trkpt><trkpt lat="44.70740838059817" lon="10.034496760849352"><ele>438.0</ele><time>2026-04-04T08:11:18.999Z</time></trkpt><trkpt lat="44.70746506190594" lon="10.034434373111672"><ele>438.0</ele><time>2026-04-04T08:11:19.999Z</time></trkpt><trkpt lat="44.7075116587523" lon="10.03435438705104"><ele>438.0</ele><time>2026-04-04T08:11:20.999Z</time></trkpt><trkpt lat="44.707582327236246" lon="10.034201333471716"><ele>438.0</ele><time>2026-04-04T08:11:22.999Z</time></trkpt><trkpt lat="44.707625513661114" lon="10.034120674335288"><ele>438.0</ele><time>2026-04-04T08:11:23.999Z</time></trkpt><trkpt lat="44.707676606370406" lon="10.034044767612507"><ele>438.0</ele><time>2026-04-04T08:11:24.999Z</time></trkpt><trkpt lat="44.70774347222139" lon="10.033966902509471"><ele>438.0</ele><time>2026-04-04T08:11:25.999Z</time></trkpt><trkpt lat="44.707810626211504" lon="10.033882796001746"><ele>438.79999999999995</ele><time>2026-04-04T08:11:26.999Z</time></trkpt><trkpt lat="44.707865068358544" lon="10.03380069692985"><ele>439.59999999999997</ele><time>2026-04-04T08:11:27.999Z</time></trkpt><trkpt lat="44.70788484577133" lon="10.033647135496318"><ele>440.40000000000003</ele><time>2026-04-04T08:11:29.998Z</time></trkpt><trkpt lat="44.70790280458353" lon="10.033548892982877"><ele>441.20000000000005</ele><time>2026-04-04T08:11:30.998Z</time></trkpt><trkpt lat="44.70791772650572" lon="10.033426183566437"><ele>442.0</ele><time>2026-04-04T08:11:31.998Z</time></trkpt><trkpt lat="44.70792495470284" lon="10.033253173549888"><ele>443.0</ele><time>2026-04-04T08:11:32.998Z</time></trkpt><trkpt lat="44.70794658699954" lon="10.033086048631715"><ele>444.0</ele><time>2026-04-04T08:11:33.998Z</time></trkpt><trkpt lat="44.70798308720107" lon="10.032896762202727"><ele>445.0</ele><time>2026-04-04T08:11:34.998Z</time></trkpt><trkpt lat="44.708012970620835" lon="10.032736297410985"><ele>446.0</ele><time>2026-04-04T08:11:35.998Z</time></trkpt><trkpt lat="44.70805145082619" lon="10.032601235725442"><ele>446.0</ele><time>2026-04-04T08:11:36.998Z</time></trkpt><trkpt lat="44.70807522320687" lon="10.032511613383889"><ele>446.0</ele><time>2026-04-04T08:11:37.998Z</time></trkpt><trkpt lat="44.70809517075097" lon="10.03241610131945"><ele>446.0</ele><time>2026-04-04T08:11:38.998Z</time></trkpt><trkpt lat="44.70814866846128" lon="10.032222880937688"><ele>446.0</ele><time>2026-04-04T08:11:40.998Z</time></trkpt><trkpt lat="44.70818937302201" lon="10.032069001958673"><ele>446.0</ele><time>2026-04-04T08:11:41.998Z</time></trkpt><trkpt lat="44.708240749437905" lon="10.03189154537035"><ele>445.99999999999994</ele><time>2026-04-04T08:11:42.998Z</time></trkpt><trkpt lat="44.70827792359697" lon="10.031736163214815"><ele>446.0</ele><time>2026-04-04T08:11:43.998Z</time></trkpt><trkpt lat="44.70831338808267" lon="10.031614940898677"><ele>446.0</ele><time>2026-04-04T08:11:44.998Z</time></trkpt><trkpt lat="44.70833232173269" lon="10.031525094619692"><ele>446.0</ele><time>2026-04-04T08:11:45.998Z</time></trkpt><trkpt lat="44.708359828659496" lon="10.031419120888986"><ele>445.99999999999994</ele><time>2026-04-04T08:11:46.998Z</time></trkpt><trkpt lat="44.708393852641855" lon="10.031335708800597"><ele>446.0</ele><time>2026-04-04T08:11:47.998Z</time></trkpt><trkpt lat="44.70843581668537" lon="10.031246593840825"><ele>446.0</ele><time>2026-04-04T08:11:48.998Z</time></trkpt><trkpt lat="44.70849188441836" lon="10.031140153867286"><ele>446.0</ele><time>2026-04-04T08:11:49.998Z</time></trkpt><trkpt lat="44.70855370186522" lon="10.031006291111282"><ele>446.0</ele><time>2026-04-04T08:11:50.998Z</time></trkpt><trkpt lat="44.70860052394511" lon="10.030857732490222"><ele>446.0</ele><time>2026-04-04T08:11:51.998Z</time></trkpt><trkpt lat="44.708641282654725" lon="10.030724003199847"><ele>446.0</ele><time>2026-04-04T08:11:52.998Z</time></trkpt><trkpt lat="44.70868588818072" lon="10.030571064653083"><ele>448.25</ele><time>2026-04-04T08:11:53.998Z</time></trkpt><trkpt lat="44.708741923003565" lon="10.030403925563098"><ele>450.5</ele><time>2026-04-04T08:11:54.998Z</time></trkpt><trkpt lat="44.708806224477264" lon="10.03026854518147"><ele>452.75</ele><time>2026-04-04T08:11:55.998Z</time></trkpt><trkpt lat="44.7088862981342" lon="10.030144013796962"><ele>455.0</ele><time>2026-04-04T08:11:56.998Z</time></trkpt><trkpt lat="44.70896604764985" lon="10.030033872840512"><ele>455.4</ele><time>2026-04-04T08:11:57.998Z</time></trkpt><trkpt lat="44.70903540695613" lon="10.02994641352176"><ele>455.8</ele><time>2026-04-04T08:11:58.998Z</time></trkpt><trkpt lat="44.70913230437217" lon="10.02982449137146"><ele>456.20000000000005</ele><time>2026-04-04T08:12:00.998Z</time></trkpt><trkpt lat="44.70920570415117" lon="10.02973940736235"><ele>456.6</ele><time>2026-04-04T08:12:01.998Z</time></trkpt><trkpt lat="44.709289298611694" lon="10.029624650898533"><ele>457.0</ele><time>2026-04-04T08:12:02.998Z</time></trkpt><trkpt lat="44.70935781998649" lon="10.029496816215834"><ele>457.00000000000006</ele><time>2026-04-04T08:12:03.998Z</time></trkpt><trkpt lat="44.70940888232955" lon="10.029380913829383"><ele>457.0</ele><time>2026-04-04T08:12:04.998Z</time></trkpt><trkpt lat="44.70943863203871" lon="10.02929479832893"><ele>457.0</ele><time>2026-04-04T08:12:05.998Z</time></trkpt><trkpt lat="44.70946118168051" lon="10.029212065373764"><ele>457.0</ele><time>2026-04-04T08:12:06.998Z</time></trkpt><trkpt lat="44.709504248657886" lon="10.029121963447448"><ele>457.00000000000006</ele><time>2026-04-04T08:12:07.998Z</time></trkpt><trkpt lat="44.70956289508184" lon="10.029036320431345"><ele>457.0</ele><time>2026-04-04T08:12:08.998Z</time></trkpt><trkpt lat="44.70962399251758" lon="10.028991797578648"><ele>457.0</ele><time>2026-04-04T08:12:09.998Z</time></trkpt><trkpt lat="44.709702509363886" lon="10.028961256426175"><ele>457.00000000000006</ele><time>2026-04-04T08:12:10.998Z</time></trkpt><trkpt lat="44.709793801138204" lon="10.028929234577461"><ele>457.00000000000006</ele><time>2026-04-04T08:12:12.998Z</time></trkpt><trkpt lat="44.709888790858656" lon="10.028866152557926"><ele>457.0</ele><time>2026-04-04T08:12:14.997Z</time></trkpt><trkpt lat="44.710012465577925" lon="10.028845343413826"><ele>457.0</ele><time>2026-04-04T08:12:17Z</time></trkpt><trkpt lat="44.71008630940645" lon="10.028837551757952"><ele>457.00000000000006</ele><time>2026-04-04T08:12:18Z</time></trkpt><trkpt lat="44.71015145818725" lon="10.028829822321411"><ele>457.0</ele><time>2026-04-04T08:12:19Z</time></trkpt><trkpt lat="44.710243602791785" lon="10.028725984282266"><ele>457.0</ele><time>2026-04-04T08:12:21Z</time></trkpt><trkpt lat="44.71028126490001" lon="10.028612992141042"><ele>457.0</ele><time>2026-04-04T08:12:23Z</time></trkpt><trkpt lat="44.710304590659035" lon="10.028508529885253"><ele>457.00000000000006</ele><time>2026-04-04T08:12:25Z</time></trkpt><trkpt lat="44.71033926360022" lon="10.028396632783451"><ele>457.0</ele><time>2026-04-04T08:12:27Z</time></trkpt><trkpt lat="44.710368871887404" lon="10.028274731848924"><ele>455.00000000000006</ele><time>2026-04-04T08:12:29Z</time></trkpt><trkpt lat="44.71039272930836" lon="10.028159839631654"><ele>453.0</ele><time>2026-04-04T08:12:31Z</time></trkpt><trkpt lat="44.71041953653766" lon="10.028043929960507"><ele>451.0</ele><time>2026-04-04T08:12:33Z</time></trkpt><trkpt lat="44.710451296211154" lon="10.02791872646391"><ele>449.0</ele><time>2026-04-04T08:12:35Z</time></trkpt><trkpt lat="44.71046118980402" lon="10.027789887626911"><ele>447.00000000000006</ele><time>2026-04-04T08:12:37Z</time></trkpt><trkpt lat="44.71049099989481" lon="10.0277065362835"><ele>445.0</ele><time>2026-04-04T08:12:38Z</time></trkpt><trkpt lat="44.710524211197296" lon="10.027630292613601"><ele>445.00000000000006</ele><time>2026-04-04T08:12:39Z</time></trkpt><trkpt lat="44.71055491574169" lon="10.027527408802353"><ele>445.0</ele><time>2026-04-04T08:12:40Z</time></trkpt><trkpt lat="44.71056892745143" lon="10.027409349578999"><ele>445.0</ele><time>2026-04-04T08:12:41Z</time></trkpt><trkpt lat="44.710567918126756" lon="10.027296683870967"><ele>445.0</ele><time>2026-04-04T08:12:42Z</time></trkpt><trkpt lat="44.71055146088299" lon="10.027177998605552"><ele>445.00000000000006</ele><time>2026-04-04T08:12:43Z</time></trkpt><trkpt lat="44.7105168843163" lon="10.027074027619141"><ele>445.0</ele><time>2026-04-04T08:12:44Z</time></trkpt><trkpt lat="44.71047560530442" lon="10.026981955195389"><ele>445.00000000000006</ele><time>2026-04-04T08:12:46Z</time></trkpt><trkpt lat="44.710463097615126" lon="10.026867260057402"><ele>445.0</ele><time>2026-04-04T08:12:49.999Z</time></trkpt><trkpt lat="44.71042310464586" lon="10.026794352069595"><ele>445.0</ele><time>2026-04-04T08:12:52.999Z</time></trkpt><trkpt lat="44.71036350406593" lon="10.026711753374755"><ele>445.0</ele><time>2026-04-04T08:12:54.999Z</time></trkpt><trkpt lat="44.71033169959166" lon="10.026561032476009"><ele>445.00000000000006</ele><time>2026-04-04T08:12:56.999Z</time></trkpt><trkpt lat="44.710321037873335" lon="10.026462066287214"><ele>445.0</ele><time>2026-04-04T08:12:57.999Z</time></trkpt><trkpt lat="44.710308704472205" lon="10.026357135406462"><ele>445.00000000000006</ele><time>2026-04-04T08:12:58.999Z</time></trkpt><trkpt lat="44.71029386896576" lon="10.026244138016454"><ele>445.0</ele><time>2026-04-04T08:12:59.999Z</time></trkpt><trkpt lat="44.71028971107312" lon="10.026152159321581"><ele>445.0</ele><time>2026-04-04T08:13:00.999Z</time></trkpt><trkpt lat="44.71026432031846" lon="10.026017805359361"><ele>445.0</ele><time>2026-04-04T08:13:01.999Z</time></trkpt><trkpt lat="44.71025259654159" lon="10.025873614120902"><ele>445.00000000000006</ele><time>2026-04-04T08:13:02.999Z</time></trkpt><trkpt lat="44.71025405275504" lon="10.02575107083987"><ele>445.0</ele><time>2026-04-04T08:13:03.999Z</time></trkpt><trkpt lat="44.71028426662176" lon="10.025573465005612"><ele>446.6</ele><time>2026-04-04T08:13:05.999Z</time></trkpt><trkpt lat="44.71032988472422" lon="10.025440434633083"><ele>448.2</ele><time>2026-04-04T08:13:07.999Z</time></trkpt><trkpt lat="44.710368055995154" lon="10.025352528687254"><ele>449.79999999999995</ele><time>2026-04-04T08:13:09.999Z</time></trkpt><trkpt lat="44.71039938781905" lon="10.025232246763041"><ele>451.4</ele><time>2026-04-04T08:13:11.999Z</time></trkpt><trkpt lat="44.71043642616696" lon="10.02509435740285"><ele>453.0</ele><time>2026-04-04T08:13:13.999Z</time></trkpt><trkpt lat="44.71043825474895" lon="10.024906672655034"><ele>456.0</ele><time>2026-04-04T08:13:15.999Z</time></trkpt><trkpt lat="44.71045506164035" lon="10.024736094687917"><ele>459.0</ele><time>2026-04-04T08:13:17.999Z</time></trkpt><trkpt lat="44.71046762219693" lon="10.024571300151644"><ele>462.0</ele><time>2026-04-04T08:13:19.999Z</time></trkpt><trkpt lat="44.710409201883934" lon="10.024406939939881"><ele>465.0</ele><time>2026-04-04T08:13:21.999Z</time></trkpt><trkpt lat="44.71043508207736" lon="10.024293176596434"><ele>465.0</ele><time>2026-04-04T08:13:23.999Z</time></trkpt><trkpt lat="44.71048974599748" lon="10.02419003072804"><ele>465.0</ele><time>2026-04-04T08:13:25.999Z</time></trkpt><trkpt lat="44.71053342555863" lon="10.024076059863733"><ele>465.0</ele><time>2026-04-04T08:13:27.999Z</time></trkpt><trkpt lat="44.71060045048809" lon="10.023963898350774"><ele>465.0</ele><time>2026-04-04T08:13:29.999Z</time></trkpt><trkpt lat="44.710656593702744" lon="10.023853257248568"><ele>465.0</ele><time>2026-04-04T08:13:31.999Z</time></trkpt><trkpt lat="44.710698198179934" lon="10.023749001167836"><ele>467.6666666666667</ele><time>2026-04-04T08:13:33.999Z</time></trkpt><trkpt lat="44.71073170071594" lon="10.023634963565568"><ele>470.33333333333337</ele><time>2026-04-04T08:13:35.998Z</time></trkpt><trkpt lat="44.71072580476925" lon="10.023513402724253"><ele>473.0</ele><time>2026-04-04T08:13:37.998Z</time></trkpt><trkpt lat="44.710759512189014" lon="10.023390530406553"><ele>475.6666666666667</ele><time>2026-04-04T08:13:39.998Z</time></trkpt><trkpt lat="44.71081875531528" lon="10.023283925553656"><ele>478.33333333333337</ele><time>2026-04-04T08:13:41.998Z</time></trkpt><trkpt lat="44.71085806603665" lon="10.02319755989906"><ele>481.0</ele><time>2026-04-04T08:13:43.998Z</time></trkpt><trkpt lat="44.71088681814065" lon="10.023064739171954"><ele>483.6</ele><time>2026-04-04T08:13:46.998Z</time></trkpt><trkpt lat="44.71087911112972" lon="10.022882693816134"><ele>486.20000000000005</ele><time>2026-04-04T08:13:48.998Z</time></trkpt><trkpt lat="44.7108435620288" lon="10.022805347482269"><ele>488.79999999999995</ele><time>2026-04-04T08:13:49.998Z</time></trkpt><trkpt lat="44.71081486210926" lon="10.022721669623461"><ele>491.4</ele><time>2026-04-04T08:13:50.998Z</time></trkpt><trkpt lat="44.71078642047946" lon="10.022556550157983"><ele>494.0</ele><time>2026-04-04T08:13:52.998Z</time></trkpt><trkpt lat="44.710763486608656" lon="10.02242438599376"><ele>495.0</ele><time>2026-04-04T08:13:54.998Z</time></trkpt><trkpt lat="44.71073171714325" lon="10.022281985338024"><ele>496.0</ele><time>2026-04-04T08:13:56.998Z</time></trkpt><trkpt lat="44.71074902876305" lon="10.022165043585229"><ele>497.0</ele><time>2026-04-04T08:13:58.998Z</time></trkpt><trkpt lat="44.71080411726856" lon="10.022032940081282"><ele>498.0</ele><time>2026-04-04T08:14:00.998Z</time></trkpt><trkpt lat="44.710865362541476" lon="10.021908531258056"><ele>499.0</ele><time>2026-04-04T08:14:02.998Z</time></trkpt><trkpt lat="44.710880355568925" lon="10.02178298774773"><ele>499.0</ele><time>2026-04-04T08:14:04.998Z</time></trkpt><trkpt lat="44.71094462926135" lon="10.021716355613174"><ele>499.0</ele><time>2026-04-04T08:14:06.998Z</time></trkpt><trkpt lat="44.711042935610934" lon="10.021665575964784"><ele>499.0</ele><time>2026-04-04T08:14:08.998Z</time></trkpt><trkpt lat="44.71115301408871" lon="10.021612555355095"><ele>499.0</ele><time>2026-04-04T08:14:10.998Z</time></trkpt><trkpt lat="44.71117653573658" lon="10.021491754159756"><ele>499.0</ele><time>2026-04-04T08:14:12.998Z</time></trkpt><trkpt lat="44.71119405087492" lon="10.021358502805102"><ele>501.0</ele><time>2026-04-04T08:14:14.998Z</time></trkpt><trkpt lat="44.71122326438506" lon="10.021253009610122"><ele>503.0</ele><time>2026-04-04T08:14:15.998Z</time></trkpt><trkpt lat="44.71129140722165" lon="10.021143261840702"><ele>505.0</ele><time>2026-04-04T08:14:17.998Z</time></trkpt><trkpt lat="44.7113921303432" lon="10.021021802169193"><ele>507.0</ele><time>2026-04-04T08:14:19.998Z</time></trkpt><trkpt lat="44.7114679049318" lon="10.020889674552622"><ele>509.0</ele><time>2026-04-04T08:14:22Z</time></trkpt><trkpt lat="44.71153159704013" lon="10.020813661870418"><ele>509.8333333333333</ele><time>2026-04-04T08:14:23Z</time></trkpt><trkpt lat="44.711598722707464" lon="10.02076081649368"><ele>510.66666666666663</ele><time>2026-04-04T08:14:24Z</time></trkpt><trkpt lat="44.711656412923126" lon="10.020722856859214"><ele>511.5</ele><time>2026-04-04T08:14:25Z</time></trkpt><trkpt lat="44.71174023811445" lon="10.020611563919552"><ele>512.3333333333334</ele><time>2026-04-04T08:14:27Z</time></trkpt><trkpt lat="44.71181554946842" lon="10.020496944695587"><ele>513.1666666666667</ele><time>2026-04-04T08:14:29Z</time></trkpt><trkpt lat="44.71186851048276" lon="10.020411629717856"><ele>514.0</ele><time>2026-04-04T08:14:31Z</time></trkpt><trkpt lat="44.71193553595614" lon="10.020340835110831"><ele>515.6</ele><time>2026-04-04T08:14:33Z</time></trkpt><trkpt lat="44.71196385801816" lon="10.020231462198149"><ele>517.2</ele><time>2026-04-04T08:14:35Z</time></trkpt><trkpt lat="44.71194115470437" lon="10.020112811913137"><ele>518.8000000000001</ele><time>2026-04-04T08:14:37Z</time></trkpt><trkpt lat="44.7119871966626" lon="10.02001503472461"><ele>520.4</ele><time>2026-04-04T08:14:39Z</time></trkpt><trkpt lat="44.71205992653869" lon="10.019912534977168"><ele>522.0</ele><time>2026-04-04T08:14:41Z</time></trkpt><trkpt lat="44.71213661563441" lon="10.019806878211796"><ele>525.8000000000001</ele><time>2026-04-04T08:14:43Z</time></trkpt><trkpt lat="44.71220032224523" lon="10.019706445484498"><ele>529.6</ele><time>2026-04-04T08:14:45Z</time></trkpt><trkpt lat="44.71224449290503" lon="10.01962591535354"><ele>533.4000000000001</ele><time>2026-04-04T08:14:46Z</time></trkpt><trkpt lat="44.7123001589863" lon="10.019507429155725"><ele>537.2</ele><time>2026-04-04T08:14:48Z</time></trkpt><trkpt lat="44.71236765913829" lon="10.019414155913209"><ele>541.0</ele><time>2026-04-04T08:14:50Z</time></trkpt><trkpt lat="44.71240786045611" lon="10.019280895979424"><ele>541.8</ele><time>2026-04-04T08:14:52Z</time></trkpt><trkpt lat="44.71246924193403" lon="10.019130441424345"><ele>542.6</ele><time>2026-04-04T08:14:54Z</time></trkpt><trkpt lat="44.712522340302755" lon="10.018980010207176"><ele>543.4</ele><time>2026-04-04T08:14:55.999Z</time></trkpt><trkpt lat="44.71256831770922" lon="10.018854623360745"><ele>544.2</ele><time>2026-04-04T08:14:57.999Z</time></trkpt><trkpt lat="44.71257681525266" lon="10.018763828791384"><ele>545.0</ele><time>2026-04-04T08:18:12.998Z</time></trkpt><trkpt lat="44.71253181468688" lon="10.018696640827482"><ele>545.0</ele><time>2026-04-04T08:39:00.998Z</time></trkpt><trkpt lat="44.712437235591864" lon="10.018613070861717"><ele>545.0</ele><time>2026-04-04T08:39:02.998Z</time></trkpt><trkpt lat="44.712371938063356" lon="10.018479051079426"><ele>545.0</ele><time>2026-04-04T08:39:04.998Z</time></trkpt><trkpt lat="44.71235950517188" lon="10.018390316718099"><ele>545.0</ele><time>2026-04-04T08:39:05.998Z</time></trkpt><trkpt lat="44.71234254756126" lon="10.018218903798955"><ele>545.0</ele><time>2026-04-04T08:39:07.998Z</time></trkpt><trkpt lat="44.71233029048539" lon="10.018096251891675"><ele>542.6</ele><time>2026-04-04T08:39:09.998Z</time></trkpt><trkpt lat="44.71230131600114" lon="10.01798705476419"><ele>540.2</ele><time>2026-04-04T08:39:12.998Z</time></trkpt><trkpt lat="44.71225700545787" lon="10.017904639342271"><ele>537.8</ele><time>2026-04-04T08:39:14.998Z</time></trkpt><trkpt lat="44.712190397021075" lon="10.01781543007786"><ele>535.4</ele><time>2026-04-04T08:39:16.998Z</time></trkpt><trkpt lat="44.712114074210795" lon="10.017728246591146"><ele>533.0</ele><time>2026-04-04T08:39:19.998Z</time></trkpt><trkpt lat="44.712022231226356" lon="10.017601380131937"><ele>533.0</ele><time>2026-04-04T08:39:21.998Z</time></trkpt><trkpt lat="44.711972643088735" lon="10.017532646393253"><ele>533.0</ele><time>2026-04-04T08:39:22.998Z</time></trkpt><trkpt lat="44.71191912007222" lon="10.017458213871004"><ele>533.0</ele><time>2026-04-04T08:39:23.998Z</time></trkpt><trkpt lat="44.71186070462545" lon="10.017384983669842"><ele>533.0</ele><time>2026-04-04T08:39:24.998Z</time></trkpt><trkpt lat="44.711805422835745" lon="10.017325346502075"><ele>533.0</ele><time>2026-04-04T08:39:25.998Z</time></trkpt><trkpt lat="44.71172721404048" lon="10.017260749250728"><ele>533.0</ele><time>2026-04-04T08:39:26.998Z</time></trkpt><trkpt lat="44.711652567543105" lon="10.017204406595075"><ele>531.3333333333333</ele><time>2026-04-04T08:39:27.998Z</time></trkpt><trkpt lat="44.71156818941962" lon="10.017138177920058"><ele>529.6666666666666</ele><time>2026-04-04T08:39:28.998Z</time></trkpt><trkpt lat="44.711484538641166" lon="10.017083224581803"><ele>528.0</ele><time>2026-04-04T08:39:29.998Z</time></trkpt><trkpt lat="44.7114064114736" lon="10.017039752992538"><ele>526.3333333333334</ele><time>2026-04-04T08:39:30.998Z</time></trkpt><trkpt lat="44.71133110817614" lon="10.017011776792089"><ele>524.6666666666667</ele><time>2026-04-04T08:39:31.998Z</time></trkpt><trkpt lat="44.71124259227566" lon="10.016977456004488"><ele>523.0</ele><time>2026-04-04T08:39:32.998Z</time></trkpt><trkpt lat="44.711165140880695" lon="10.016942284616471"><ele>523.0</ele><time>2026-04-04T08:39:34Z</time></trkpt><trkpt lat="44.71109002806073" lon="10.0169007648594"><ele>523.0</ele><time>2026-04-04T08:39:35Z</time></trkpt><trkpt lat="44.71101531971656" lon="10.016847791587391"><ele>523.0</ele><time>2026-04-04T08:39:36Z</time></trkpt><trkpt lat="44.7109272857825" lon="10.0168209326818"><ele>523.0</ele><time>2026-04-04T08:39:37Z</time></trkpt><trkpt lat="44.710832906433346" lon="10.016788360929237"><ele>523.0</ele><time>2026-04-04T08:39:38Z</time></trkpt><trkpt lat="44.710735186473904" lon="10.016745265463056"><ele>523.6</ele><time>2026-04-04T08:39:39Z</time></trkpt><trkpt lat="44.71062276917361" lon="10.016711550343237"><ele>524.1999999999999</ele><time>2026-04-04T08:39:40Z</time></trkpt><trkpt lat="44.71052940672266" lon="10.016696175151267"><ele>524.8</ele><time>2026-04-04T08:39:41Z</time></trkpt><trkpt lat="44.710443583296886" lon="10.016681201608947"><ele>525.4</ele><time>2026-04-04T08:39:42Z</time></trkpt><trkpt lat="44.710350003947" lon="10.016672749618195"><ele>526.0</ele><time>2026-04-04T08:39:43Z</time></trkpt><trkpt lat="44.71026761031122" lon="10.016647848793513"><ele>525.8333333333334</ele><time>2026-04-04T08:39:44Z</time></trkpt><trkpt lat="44.710204198332896" lon="10.01663116755798"><ele>525.6666666666667</ele><time>2026-04-04T08:39:45Z</time></trkpt><trkpt lat="44.71013368876174" lon="10.016623970069922"><ele>525.5</ele><time>2026-04-04T08:39:46Z</time></trkpt><trkpt lat="44.7100228042696" lon="10.01666259438395"><ele>525.3333333333334</ele><time>2026-04-04T08:39:48Z</time></trkpt><trkpt lat="44.70994503405623" lon="10.016677543286999"><ele>525.1666666666666</ele><time>2026-04-04T08:39:49Z</time></trkpt><trkpt lat="44.70986182722273" lon="10.016678726162466"><ele>525.0</ele><time>2026-04-04T08:39:50Z</time></trkpt><trkpt lat="44.709779920631036" lon="10.01667571384607"><ele>525.0</ele><time>2026-04-04T08:39:51Z</time></trkpt><trkpt lat="44.70968970826687" lon="10.016666940381493"><ele>525.0</ele><time>2026-04-04T08:39:52Z</time></trkpt><trkpt lat="44.709599250350536" lon="10.01663553752648"><ele>525.0</ele><time>2026-04-04T08:39:53Z</time></trkpt><trkpt lat="44.70951710700092" lon="10.016579303591977"><ele>525.0</ele><time>2026-04-04T08:39:54Z</time></trkpt><trkpt lat="44.70945841212121" lon="10.016518821503778"><ele>525.0</ele><time>2026-04-04T08:39:55Z</time></trkpt><trkpt lat="44.709397057468934" lon="10.016438653146857"><ele>525.0</ele><time>2026-04-04T08:39:56Z</time></trkpt><trkpt lat="44.70932122790883" lon="10.016348891052546"><ele>524.8</ele><time>2026-04-04T08:39:57Z</time></trkpt><trkpt lat="44.709231348507885" lon="10.0162531234818"><ele>524.6</ele><time>2026-04-04T08:39:58Z</time></trkpt><trkpt lat="44.709149370119405" lon="10.016171272352317"><ele>524.4</ele><time>2026-04-04T08:39:59Z</time></trkpt><trkpt lat="44.709073322120005" lon="10.016112920522186"><ele>524.2</ele><time>2026-04-04T08:40:00Z</time></trkpt><trkpt lat="44.708999701963734" lon="10.016054818014679"><ele>524.0</ele><time>2026-04-04T08:40:01Z</time></trkpt><trkpt lat="44.708903938743134" lon="10.015986294260555"><ele>524.0</ele><time>2026-04-04T08:40:03Z</time></trkpt><trkpt lat="44.7087836930539" lon="10.015926329045135"><ele>524.0</ele><time>2026-04-04T08:40:05Z</time></trkpt><trkpt lat="44.708703456871085" lon="10.015925506833305"><ele>524.0</ele><time>2026-04-04T08:40:07Z</time></trkpt><trkpt lat="44.70863483598917" lon="10.015938539269879"><ele>524.0</ele><time>2026-04-04T08:40:08Z</time></trkpt><trkpt lat="44.70853919689004" lon="10.015943882295854"><ele>524.0</ele><time>2026-04-04T08:40:09Z</time></trkpt><trkpt lat="44.708453923979334" lon="10.015928552017272"><ele>526.4</ele><time>2026-04-04T08:40:10Z</time></trkpt><trkpt lat="44.70835155990513" lon="10.015916415873514"><ele>528.8</ele><time>2026-04-04T08:40:10.999Z</time></trkpt><trkpt lat="44.70825229959489" lon="10.015913823398368"><ele>531.2</ele><time>2026-04-04T08:40:11.999Z</time></trkpt><trkpt lat="44.708146039039086" lon="10.015898176718114"><ele>533.6</ele><time>2026-04-04T08:40:12.999Z</time></trkpt><trkpt lat="44.70803338680249" lon="10.015881746458495"><ele>536.0</ele><time>2026-04-04T08:40:13.999Z</time></trkpt><trkpt lat="44.707927339312675" lon="10.015872017027892"><ele>536.0</ele><time>2026-04-04T08:40:14.999Z</time></trkpt><trkpt lat="44.707833403641686" lon="10.015876951854505"><ele>536.0</ele><time>2026-04-04T08:40:15.999Z</time></trkpt><trkpt lat="44.7077182535309" lon="10.01588311286859"><ele>536.0</ele><time>2026-04-04T08:40:17.999Z</time></trkpt><trkpt lat="44.707621532665044" lon="10.0158673664548"><ele>536.0</ele><time>2026-04-04T08:40:19.999Z</time></trkpt><trkpt lat="44.707569625497214" lon="10.015929871097212"><ele>536.0</ele><time>2026-04-04T08:40:21.999Z</time></trkpt><trkpt lat="44.70750726422872" lon="10.015987977554657"><ele>536.8333333333333</ele><time>2026-04-04T08:40:23.999Z</time></trkpt><trkpt lat="44.707442065053655" lon="10.01602336893643"><ele>537.6666666666666</ele><time>2026-04-04T08:40:25.999Z</time></trkpt><trkpt lat="44.70738253406447" lon="10.01606780367938"><ele>538.5</ele><time>2026-04-04T08:40:27.999Z</time></trkpt><trkpt lat="44.70730379753686" lon="10.01614314992087"><ele>539.3333333333334</ele><time>2026-04-04T08:40:30.999Z</time></trkpt><trkpt lat="44.70724732189147" lon="10.016183355874759"><ele>540.1666666666667</ele><time>2026-04-04T08:40:32.999Z</time></trkpt><trkpt lat="44.70716084158758" lon="10.01624389370508"><ele>541.0</ele><time>2026-04-04T08:40:35.999Z</time></trkpt><trkpt lat="44.70709403748921" lon="10.01631117366512"><ele>541.0</ele><time>2026-04-04T08:40:38.999Z</time></trkpt><trkpt lat="44.70704151350533" lon="10.016379325831634"><ele>541.0</ele><time>2026-04-04T08:40:45.999Z</time></trkpt><trkpt lat="44.706993848182314" lon="10.016466392834115"><ele>541.0</ele><time>2026-04-04T08:40:47.999Z</time></trkpt><trkpt lat="44.70691836697677" lon="10.01655319912811"><ele>541.0</ele><time>2026-04-04T08:40:49.999Z</time></trkpt><trkpt lat="44.70685879986038" lon="10.016655471149265"><ele>541.0</ele><time>2026-04-04T08:40:51.999Z</time></trkpt><trkpt lat="44.706766935539854" lon="10.016718095845023"><ele>541.0</ele><time>2026-04-04T08:40:53.999Z</time></trkpt><trkpt lat="44.7066505209896" lon="10.016712194854765"><ele>537.6666666666667</ele><time>2026-04-04T08:40:55.999Z</time></trkpt><trkpt lat="44.706569346209854" lon="10.01669911708149"><ele>534.3333333333334</ele><time>2026-04-04T08:40:56.999Z</time></trkpt><trkpt lat="44.70649660273794" lon="10.016688678795953"><ele>531.0</ele><time>2026-04-04T08:40:57.999Z</time></trkpt><trkpt lat="44.70643002278821" lon="10.016730666514132"><ele>527.6666666666666</ele><time>2026-04-04T08:40:58.999Z</time></trkpt><trkpt lat="44.70634397154799" lon="10.01677434911127"><ele>524.3333333333333</ele><time>2026-04-04T08:40:59.999Z</time></trkpt><trkpt lat="44.70628190160935" lon="10.016794957949685"><ele>521.0</ele><time>2026-04-04T08:41:00.999Z</time></trkpt><trkpt lat="44.706212815004406" lon="10.016828208604624"><ele>521.0</ele><time>2026-04-04T08:41:01.999Z</time></trkpt><trkpt lat="44.706150620026975" lon="10.01684694923892"><ele>521.0</ele><time>2026-04-04T08:41:02.999Z</time></trkpt><trkpt lat="44.706073705512544" lon="10.0168625228872"><ele>521.0</ele><time>2026-04-04T08:41:03.999Z</time></trkpt><trkpt lat="44.705953742362624" lon="10.016899546565908"><ele>521.0</ele><time>2026-04-04T08:41:05.999Z</time></trkpt><trkpt lat="44.705887396089146" lon="10.01695910285062"><ele>521.0</ele><time>2026-04-04T08:41:07.999Z</time></trkpt><trkpt lat="44.70581288124305" lon="10.017060752180594"><ele>521.0</ele><time>2026-04-04T08:41:09.999Z</time></trkpt><trkpt lat="44.705748729833424" lon="10.017142709040368"><ele>521.0</ele><time>2026-04-04T08:41:11.999Z</time></trkpt><trkpt lat="44.70565140108766" lon="10.017261339692052"><ele>521.0</ele><time>2026-04-04T08:41:13.999Z</time></trkpt><trkpt lat="44.70557730643563" lon="10.017299541450353"><ele>521.0</ele><time>2026-04-04T08:41:14.999Z</time></trkpt><trkpt lat="44.705512243877685" lon="10.017318777989676"><ele>521.0</ele><time>2026-04-04T08:41:15.999Z</time></trkpt><trkpt lat="44.705415285419875" lon="10.017341693198118"><ele>521.0</ele><time>2026-04-04T08:41:16.998Z</time></trkpt><trkpt lat="44.705316092149104" lon="10.017345303387529"><ele>521.0</ele><time>2026-04-04T08:41:17.998Z</time></trkpt><trkpt lat="44.70520503433446" lon="10.017325218343078"><ele>521.0</ele><time>2026-04-04T08:41:18.998Z</time></trkpt><trkpt lat="44.70508169573921" lon="10.017290560193931"><ele>521.0</ele><time>2026-04-04T08:41:19.998Z</time></trkpt><trkpt lat="44.70498284379761" lon="10.017250610819296"><ele>521.0</ele><time>2026-04-04T08:41:20.998Z</time></trkpt><trkpt lat="44.70488186056391" lon="10.017250536755402"><ele>521.0</ele><time>2026-04-04T08:41:21.998Z</time></trkpt><trkpt lat="44.704778659886344" lon="10.017306958854066"><ele>521.0</ele><time>2026-04-04T08:41:22.998Z</time></trkpt><trkpt lat="44.704679116465876" lon="10.017349541709597"><ele>521.0</ele><time>2026-04-04T08:41:23.998Z</time></trkpt><trkpt lat="44.7045713824754" lon="10.017371579766214"><ele>521.0</ele><time>2026-04-04T08:41:24.998Z</time></trkpt><trkpt lat="44.70447265621824" lon="10.017396847970554"><ele>521.0</ele><time>2026-04-04T08:41:25.998Z</time></trkpt><trkpt lat="44.704376654168456" lon="10.017403576359245"><ele>521.0</ele><time>2026-04-04T08:41:26.998Z</time></trkpt><trkpt lat="44.70429369726575" lon="10.017405108735742"><ele>519.6</ele><time>2026-04-04T08:41:27.998Z</time></trkpt><trkpt lat="44.70420651808663" lon="10.017393087856389"><ele>518.2</ele><time>2026-04-04T08:41:28.998Z</time></trkpt><trkpt lat="44.70414342152221" lon="10.01739460429048"><ele>516.8</ele><time>2026-04-04T08:41:29.998Z</time></trkpt><trkpt lat="44.70400770365684" lon="10.017490572323986"><ele>515.4</ele><time>2026-04-04T08:41:31.998Z</time></trkpt><trkpt lat="44.703947461869866" lon="10.017539268847584"><ele>514.0</ele><time>2026-04-04T08:41:32.998Z</time></trkpt><trkpt lat="44.70386362663128" lon="10.0175679618775"><ele>510.6666666666667</ele><time>2026-04-04T08:41:33.998Z</time></trkpt><trkpt lat="44.70379043407742" lon="10.017586599521241"><ele>507.33333333333337</ele><time>2026-04-04T08:41:34.998Z</time></trkpt><trkpt lat="44.703709988325976" lon="10.017642793081746"><ele>504.0</ele><time>2026-04-04T08:41:35.998Z</time></trkpt><trkpt lat="44.703618903419176" lon="10.017677660174272"><ele>500.66666666666663</ele><time>2026-04-04T08:41:36.998Z</time></trkpt><trkpt lat="44.70353569701632" lon="10.017708925466632"><ele>497.3333333333333</ele><time>2026-04-04T08:41:37.998Z</time></trkpt><trkpt lat="44.70346414976557" lon="10.017714685270114"><ele>494.0</ele><time>2026-04-04T08:41:38.998Z</time></trkpt><trkpt lat="44.70338242893527" lon="10.017632808295986"><ele>491.6</ele><time>2026-04-04T08:41:41Z</time></trkpt><trkpt lat="44.70329206452543" lon="10.017635014652313"><ele>489.2</ele><time>2026-04-04T08:41:43Z</time></trkpt><trkpt lat="44.70324622000852" lon="10.017747879211209"><ele>486.80000000000007</ele><time>2026-04-04T08:41:45Z</time></trkpt><trkpt lat="44.7032124829539" lon="10.017874334095202"><ele>484.40000000000003</ele><time>2026-04-04T08:41:47Z</time></trkpt><trkpt lat="44.70312208147174" lon="10.01796311247704"><ele>482.0</ele><time>2026-04-04T08:41:49Z</time></trkpt><trkpt lat="44.703061494576374" lon="10.017999735550518"><ele>482.0</ele><time>2026-04-04T08:41:50Z</time></trkpt><trkpt lat="44.70298304463631" lon="10.018124452841764"><ele>482.00000000000006</ele><time>2026-04-04T08:41:52Z</time></trkpt><trkpt lat="44.70292797244475" lon="10.018174349414682"><ele>482.00000000000006</ele><time>2026-04-04T08:41:53Z</time></trkpt><trkpt lat="44.70282148805142" lon="10.018262437641015"><ele>482.0</ele><time>2026-04-04T08:41:55Z</time></trkpt><trkpt lat="44.70270139632463" lon="10.018305073914712"><ele>482.0</ele><time>2026-04-04T08:41:57Z</time></trkpt><trkpt lat="44.70261914338081" lon="10.018308226344926"><ele>479.42857142857144</ele><time>2026-04-04T08:41:58Z</time></trkpt><trkpt lat="44.70254769941904" lon="10.0183041410411"><ele>476.8571428571429</ele><time>2026-04-04T08:41:59Z</time></trkpt><trkpt lat="44.70246766983162" lon="10.018289216095411"><ele>474.28571428571433</ele><time>2026-04-04T08:42:00Z</time></trkpt><trkpt lat="44.70240001831998" lon="10.018275199812951"><ele>471.7142857142858</ele><time>2026-04-04T08:42:01Z</time></trkpt><trkpt lat="44.70232681569893" lon="10.018258288476668"><ele>469.14285714285717</ele><time>2026-04-04T08:42:02Z</time></trkpt><trkpt lat="44.70226007622919" lon="10.01827705607419"><ele>466.57142857142867</ele><time>2026-04-04T08:42:03Z</time></trkpt><trkpt lat="44.70219450811469" lon="10.01834340497158"><ele>464.00000000000006</ele><time>2026-04-04T08:42:04Z</time></trkpt><trkpt lat="44.70213428123923" lon="10.01845456541881"><ele>462.2</ele><time>2026-04-04T08:42:05Z</time></trkpt><trkpt lat="44.70210173471969" lon="10.018578358312556"><ele>460.4</ele><time>2026-04-04T08:42:06Z</time></trkpt><trkpt lat="44.70205951406543" lon="10.018696053912363"><ele>458.6</ele><time>2026-04-04T08:42:07Z</time></trkpt><trkpt lat="44.70198574688923" lon="10.018803462415471"><ele>456.8</ele><time>2026-04-04T08:42:08Z</time></trkpt><trkpt lat="44.70191305030638" lon="10.01889579622701"><ele>455.0</ele><time>2026-04-04T08:42:09Z</time></trkpt><trkpt lat="44.701832585966855" lon="10.019003951021203"><ele>451.66666666666663</ele><time>2026-04-04T08:42:10Z</time></trkpt><trkpt lat="44.701764043790234" lon="10.01908836909058"><ele>448.3333333333333</ele><time>2026-04-04T08:42:11Z</time></trkpt><trkpt lat="44.70169142927487" lon="10.019171609120948"><ele>445.0</ele><time>2026-04-04T08:42:12Z</time></trkpt><trkpt lat="44.701629554995925" lon="10.019218186863053"><ele>441.66666666666663</ele><time>2026-04-04T08:42:13Z</time></trkpt><trkpt lat="44.70156162781951" lon="10.019242438143042"><ele>438.3333333333333</ele><time>2026-04-04T08:42:14Z</time></trkpt><trkpt lat="44.70147856993308" lon="10.019241448683138"><ele>435.0</ele><time>2026-04-04T08:42:15Z</time></trkpt><trkpt lat="44.70140168480856" lon="10.019216347592105"><ele>435.0</ele><time>2026-04-04T08:42:16Z</time></trkpt><trkpt lat="44.7013348977337" lon="10.019153396254872"><ele>435.0</ele><time>2026-04-04T08:42:17Z</time></trkpt><trkpt lat="44.70128250907385" lon="10.019077486348127"><ele>435.0</ele><time>2026-04-04T08:42:18Z</time></trkpt><trkpt lat="44.701233971042136" lon="10.018982525159785"><ele>435.0</ele><time>2026-04-04T08:42:19Z</time></trkpt><trkpt lat="44.701200384180254" lon="10.018892319654347"><ele>435.0</ele><time>2026-04-04T08:42:20Z</time></trkpt><trkpt lat="44.70119723330199" lon="10.018802448053838"><ele>435.0</ele><time>2026-04-04T08:42:21Z</time></trkpt><trkpt lat="44.70115020840389" lon="10.018682034957783"><ele>430.4</ele><time>2026-04-04T08:42:23Z</time></trkpt><trkpt lat="44.70105749805254" lon="10.018638257463476"><ele>425.8</ele><time>2026-04-04T08:42:25Z</time></trkpt><trkpt lat="44.70095084304948" lon="10.018700663278004"><ele>421.20000000000005</ele><time>2026-04-04T08:42:27Z</time></trkpt><trkpt lat="44.70087275613305" lon="10.018772654841968"><ele>416.6</ele><time>2026-04-04T08:42:28Z</time></trkpt><trkpt lat="44.70080676245289" lon="10.018849628053859"><ele>412.0</ele><time>2026-04-04T08:42:29Z</time></trkpt><trkpt lat="44.70074910715957" lon="10.018920148355715"><ele>412.0</ele><time>2026-04-04T08:42:30Z</time></trkpt><trkpt lat="44.700684116317376" lon="10.018994417271948"><ele>412.0</ele><time>2026-04-04T08:42:31Z</time></trkpt><trkpt lat="44.70062808969632" lon="10.019075165737032"><ele>412.0</ele><time>2026-04-04T08:42:31.999Z</time></trkpt><trkpt lat="44.70053094388359" lon="10.01917112217698"><ele>412.0</ele><time>2026-04-04T08:42:33.999Z</time></trkpt><trkpt lat="44.70041255622099" lon="10.019185786120717"><ele>412.0</ele><time>2026-04-04T08:42:35.999Z</time></trkpt><trkpt lat="44.70033785883347" lon="10.01916513460182"><ele>411.99999999999994</ele><time>2026-04-04T08:42:37.999Z</time></trkpt><trkpt lat="44.700273916437936" lon="10.019150467456765"><ele>412.0</ele><time>2026-04-04T08:42:40.999Z</time></trkpt><trkpt lat="44.70020384911573" lon="10.01913982478698"><ele>412.0</ele><time>2026-04-04T08:42:43.999Z</time></trkpt><trkpt lat="44.700139929880116" lon="10.019119212953298"><ele>412.0</ele><time>2026-04-04T08:42:46.999Z</time></trkpt><trkpt lat="44.7000786306249" lon="10.019092592043544"><ele>412.0</ele><time>2026-04-04T08:42:49.999Z</time></trkpt><trkpt lat="44.70000995239357" lon="10.019073178092883"><ele>411.99999999999994</ele><time>2026-04-04T08:42:51.999Z</time></trkpt><trkpt lat="44.69990157568153" lon="10.01903963320096"><ele>412.0</ele><time>2026-04-04T08:42:53.999Z</time></trkpt><trkpt lat="44.69983554444578" lon="10.01903244086348"><ele>409.71428571428567</ele><time>2026-04-04T08:42:54.999Z</time></trkpt><trkpt lat="44.699739573628236" lon="10.019022220924843"><ele>407.42857142857144</ele><time>2026-04-04T08:42:55.999Z</time></trkpt><trkpt lat="44.69966505373066" lon="10.019025285937882"><ele>405.1428571428571</ele><time>2026-04-04T08:42:56.999Z</time></trkpt><trkpt lat="44.69959959808013" lon="10.01904543911645"><ele>402.85714285714283</ele><time>2026-04-04T08:42:57.999Z</time></trkpt><trkpt lat="44.69954499372641" lon="10.019090354821255"><ele>400.57142857142856</ele><time>2026-04-04T08:42:58.999Z</time></trkpt><trkpt lat="44.69948580504597" lon="10.01914565971973"><ele>398.2857142857143</ele><time>2026-04-04T08:42:59.999Z</time></trkpt><trkpt lat="44.699433051281396" lon="10.019200181924665"><ele>396.0</ele><time>2026-04-04T08:43:00.999Z</time></trkpt><trkpt lat="44.69932645660029" lon="10.019333834357427"><ele>392.8333333333333</ele><time>2026-04-04T08:43:02.999Z</time></trkpt><trkpt lat="44.69928094236634" lon="10.019417964927722"><ele>389.6666666666667</ele><time>2026-04-04T08:43:03.999Z</time></trkpt><trkpt lat="44.699242268622704" lon="10.019508868880298"><ele>386.5</ele><time>2026-04-04T08:43:04.999Z</time></trkpt><trkpt lat="44.6991977845131" lon="10.019617915771668"><ele>383.33333333333337</ele><time>2026-04-04T08:43:05.999Z</time></trkpt><trkpt lat="44.69915444270473" lon="10.019690241980422"><ele>380.1666666666667</ele><time>2026-04-04T08:43:06.999Z</time></trkpt><trkpt lat="44.699096960713625" lon="10.019730099041276"><ele>377.0</ele><time>2026-04-04T08:43:07.999Z</time></trkpt><trkpt lat="44.69900181977302" lon="10.01973608244214"><ele>377.0</ele><time>2026-04-04T08:43:08.999Z</time></trkpt><trkpt lat="44.69890483139223" lon="10.019740320114996"><ele>377.0</ele><time>2026-04-04T08:43:09.999Z</time></trkpt><trkpt lat="44.69880607831885" lon="10.019794305525751"><ele>377.0</ele><time>2026-04-04T08:43:10.999Z</time></trkpt><trkpt lat="44.69873532136157" lon="10.019865317899233"><ele>377.0</ele><time>2026-04-04T08:43:11.999Z</time></trkpt><trkpt lat="44.698646716320205" lon="10.01995222125951"><ele>377.0</ele><time>2026-04-04T08:43:12.999Z</time></trkpt><trkpt lat="44.69858111254431" lon="10.020042334306904"><ele>374.5</ele><time>2026-04-04T08:43:13.999Z</time></trkpt><trkpt lat="44.69852724065375" lon="10.020132076095436"><ele>372.0</ele><time>2026-04-04T08:43:14.999Z</time></trkpt><trkpt lat="44.69848546900834" lon="10.020232003462473"><ele>369.5</ele><time>2026-04-04T08:43:15.999Z</time></trkpt><trkpt lat="44.698467124930595" lon="10.02033948153004"><ele>367.0</ele><time>2026-04-04T08:43:16.999Z</time></trkpt><trkpt lat="44.69845699683835" lon="10.020461266048168"><ele>364.5</ele><time>2026-04-04T08:43:17.999Z</time></trkpt><trkpt lat="44.69844713563148" lon="10.020555858277163"><ele>362.0</ele><time>2026-04-04T08:43:18.999Z</time></trkpt><trkpt lat="44.69834698236279" lon="10.020708858972524"><ele>362.0</ele><time>2026-04-04T08:43:20.999Z</time></trkpt><trkpt lat="44.69826363972421" lon="10.020788354218361"><ele>362.0</ele><time>2026-04-04T08:43:21.999Z</time></trkpt><trkpt lat="44.69817334863246" lon="10.020850771477898"><ele>362.0</ele><time>2026-04-04T08:43:22.999Z</time></trkpt><trkpt lat="44.69808805276422" lon="10.020925192569152"><ele>362.0</ele><time>2026-04-04T08:43:23.999Z</time></trkpt><trkpt lat="44.69800465519584" lon="10.021040849703626"><ele>362.0</ele><time>2026-04-04T08:43:24.999Z</time></trkpt><trkpt lat="44.69793260185006" lon="10.021148024515215"><ele>360.8</ele><time>2026-04-04T08:43:25.999Z</time></trkpt><trkpt lat="44.69787412646257" lon="10.021230348913747"><ele>359.6</ele><time>2026-04-04T08:43:26.999Z</time></trkpt><trkpt lat="44.697791002236464" lon="10.021307707957293"><ele>358.40000000000003</ele><time>2026-04-04T08:43:27.999Z</time></trkpt><trkpt lat="44.69769207192169" lon="10.0213670004771"><ele>357.20000000000005</ele><time>2026-04-04T08:43:28.999Z</time></trkpt><trkpt lat="44.69759634266276" lon="10.021400594448973"><ele>356.0</ele><time>2026-04-04T08:43:29.999Z</time></trkpt><trkpt lat="44.69750803976418" lon="10.021429587239544"><ele>354.0</ele><time>2026-04-04T08:43:30.999Z</time></trkpt><trkpt lat="44.69740600648044" lon="10.021468250866299"><ele>352.0</ele><time>2026-04-04T08:43:31.999Z</time></trkpt><trkpt lat="44.69730364080842" lon="10.021541518227206"><ele>350.0</ele><time>2026-04-04T08:43:32.998Z</time></trkpt><trkpt lat="44.697224135040855" lon="10.021643246259956"><ele>348.0</ele><time>2026-04-04T08:43:33.998Z</time></trkpt><trkpt lat="44.69714386441129" lon="10.021779325044635"><ele>347.25</ele><time>2026-04-04T08:43:34.998Z</time></trkpt><trkpt lat="44.69706140655213" lon="10.021934666025214"><ele>346.5</ele><time>2026-04-04T08:43:35.998Z</time></trkpt><trkpt lat="44.69699154061462" lon="10.022070531772092"><ele>345.75</ele><time>2026-04-04T08:43:36.998Z</time></trkpt><trkpt lat="44.69691401861101" lon="10.022182496474057"><ele>345.0</ele><time>2026-04-04T08:43:37.998Z</time></trkpt><trkpt lat="44.696838188096336" lon="10.022282555379231"><ele>342.25</ele><time>2026-04-04T08:43:38.998Z</time></trkpt><trkpt lat="44.696751410689046" lon="10.02239409933092"><ele>339.5</ele><time>2026-04-04T08:43:39.998Z</time></trkpt><trkpt lat="44.69665733235342" lon="10.022516315860466"><ele>336.75</ele><time>2026-04-04T08:43:40.998Z</time></trkpt><trkpt lat="44.69656541598861" lon="10.022635094334152"><ele>334.0</ele><time>2026-04-04T08:43:41.998Z</time></trkpt><trkpt lat="44.6964760226037" lon="10.022734603725471"><ele>333.75</ele><time>2026-04-04T08:43:42.998Z</time></trkpt><trkpt lat="44.6963854185741" lon="10.022842768510035"><ele>333.5</ele><time>2026-04-04T08:43:43.998Z</time></trkpt><trkpt lat="44.69629914745301" lon="10.022944671978264"><ele>333.25</ele><time>2026-04-04T08:43:44.998Z</time></trkpt><trkpt lat="44.69621692100044" lon="10.023028634946412"><ele>333.0</ele><time>2026-04-04T08:43:46.001Z</time></trkpt><trkpt lat="44.6961163606581" lon="10.023132308159033"><ele>331.25</ele><time>2026-04-04T08:43:47.001Z</time></trkpt><trkpt lat="44.69601639715532" lon="10.023237515161016"><ele>329.5</ele><time>2026-04-04T08:43:48.001Z</time></trkpt><trkpt lat="44.69592032752515" lon="10.023325436122269"><ele>327.75</ele><time>2026-04-04T08:43:49.001Z</time></trkpt><trkpt lat="44.695816047217164" lon="10.023418717117666"><ele>326.0</ele><time>2026-04-04T08:43:50.001Z</time></trkpt><trkpt lat="44.6957010587261" lon="10.023496662439234"><ele>325.25</ele><time>2026-04-04T08:43:51.001Z</time></trkpt><trkpt lat="44.69558286485798" lon="10.02356720031997"><ele>324.5</ele><time>2026-04-04T08:43:52.001Z</time></trkpt><trkpt lat="44.69546048917042" lon="10.02363728479762"><ele>323.75</ele><time>2026-04-04T08:43:53.001Z</time></trkpt><trkpt lat="44.69535766730787" lon="10.023690983384839"><ele>323.0</ele><time>2026-04-04T08:43:54.001Z</time></trkpt><trkpt lat="44.69524119054121" lon="10.023729442275044"><ele>321.75</ele><time>2026-04-04T08:43:55.001Z</time></trkpt><trkpt lat="44.69512140052514" lon="10.023737279671014"><ele>320.5</ele><time>2026-04-04T08:43:56.001Z</time></trkpt><trkpt lat="44.694982756834804" lon="10.023717238905471"><ele>319.25</ele><time>2026-04-04T08:43:57.001Z</time></trkpt><trkpt lat="44.69484378521942" lon="10.023702298832353"><ele>318.0</ele><time>2026-04-04T08:43:58.001Z</time></trkpt><trkpt lat="44.694718196407955" lon="10.023699735931213"><ele>318.0</ele><time>2026-04-04T08:43:59.001Z</time></trkpt><trkpt lat="44.69461730821258" lon="10.023713858889922"><ele>318.0</ele><time>2026-04-04T08:44:00.001Z</time></trkpt><trkpt lat="44.694520337973664" lon="10.023739788035419"><ele>318.0</ele><time>2026-04-04T08:44:01.001Z</time></trkpt><trkpt lat="44.69443380594543" lon="10.023750539386926"><ele>318.0</ele><time>2026-04-04T08:44:02Z</time></trkpt><trkpt lat="44.694335307148734" lon="10.023754584352643"><ele>318.0</ele><time>2026-04-04T08:44:03Z</time></trkpt><trkpt lat="44.69422598282899" lon="10.02375368954946"><ele>316.6</ele><time>2026-04-04T08:44:04Z</time></trkpt><trkpt lat="44.694104560908066" lon="10.02374972315371"><ele>315.20000000000005</ele><time>2026-04-04T08:44:05Z</time></trkpt><trkpt lat="44.693996005954325" lon="10.023747404707334"><ele>313.8</ele><time>2026-04-04T08:44:06Z</time></trkpt><trkpt lat="44.69389000029928" lon="10.023741799174"><ele>312.40000000000003</ele><time>2026-04-04T08:44:07Z</time></trkpt><trkpt lat="44.69378951758784" lon="10.023750175628177"><ele>311.0</ele><time>2026-04-04T08:44:08Z</time></trkpt><trkpt lat="44.69370256842285" lon="10.023790985040431"><ele>311.0</ele><time>2026-04-04T08:44:09Z</time></trkpt><trkpt lat="44.69361890511785" lon="10.023825739110093"><ele>311.0</ele><time>2026-04-04T08:44:10Z</time></trkpt><trkpt lat="44.69354054741551" lon="10.023840924902304"><ele>311.0</ele><time>2026-04-04T08:44:11Z</time></trkpt><trkpt lat="44.69346698090331" lon="10.023840953124163"><ele>311.0</ele><time>2026-04-04T08:44:12Z</time></trkpt><trkpt lat="44.693340681969126" lon="10.023773113313839"><ele>311.0</ele><time>2026-04-04T08:44:14Z</time></trkpt><trkpt lat="44.69326248678292" lon="10.023697060334513"><ele>309.33333333333337</ele><time>2026-04-04T08:44:15Z</time></trkpt><trkpt lat="44.69316892800862" lon="10.02362035510019"><ele>307.6666666666667</ele><time>2026-04-04T08:44:16Z</time></trkpt><trkpt lat="44.69309421756932" lon="10.023583183231008"><ele>306.0</ele><time>2026-04-04T08:44:17Z</time></trkpt><trkpt lat="44.69300292168114" lon="10.023547447086063"><ele>304.3333333333333</ele><time>2026-04-04T08:44:18Z</time></trkpt><trkpt lat="44.692936607238614" lon="10.02350276084252"><ele>302.66666666666663</ele><time>2026-04-04T08:44:19Z</time></trkpt><trkpt lat="44.69289200359953" lon="10.023429836495964"><ele>301.0</ele><time>2026-04-04T08:44:20Z</time></trkpt><trkpt lat="44.692855400483076" lon="10.023324527249867"><ele>299.66666666666663</ele><time>2026-04-04T08:44:21Z</time></trkpt><trkpt lat="44.692815682841854" lon="10.023198236318366"><ele>298.3333333333333</ele><time>2026-04-04T08:44:22Z</time></trkpt><trkpt lat="44.69277346071351" lon="10.02308801317291"><ele>297.0</ele><time>2026-04-04T08:44:23Z</time></trkpt><trkpt lat="44.69273015005995" lon="10.022987855500205"><ele>295.6666666666667</ele><time>2026-04-04T08:44:24Z</time></trkpt><trkpt lat="44.69268110046686" lon="10.022888533560247"><ele>294.33333333333337</ele><time>2026-04-04T08:44:25Z</time></trkpt><trkpt lat="44.69263523418345" lon="10.022811220661143"><ele>293.0</ele><time>2026-04-04T08:44:26Z</time></trkpt><trkpt lat="44.69258616417495" lon="10.02274778210427"><ele>292.6666666666667</ele><time>2026-04-04T08:44:27Z</time></trkpt><trkpt lat="44.69254750199325" lon="10.022673745665665"><ele>292.33333333333337</ele><time>2026-04-04T08:44:28Z</time></trkpt><trkpt lat="44.6924983261282" lon="10.022548289818834"><ele>292.0</ele><time>2026-04-04T08:44:30Z</time></trkpt><trkpt lat="44.6925131973904" lon="10.022449737189694"><ele>291.6666666666667</ele><time>2026-04-04T08:44:31Z</time></trkpt><trkpt lat="44.69255789164162" lon="10.022346574983175"><ele>291.3333333333333</ele><time>2026-04-04T08:44:32Z</time></trkpt><trkpt lat="44.692598271424785" lon="10.022261102218875"><ele>291.0</ele><time>2026-04-04T08:44:33Z</time></trkpt><trkpt lat="44.69260660194001" lon="10.022155710040225"><ele>290.2857142857143</ele><time>2026-04-04T08:44:34Z</time></trkpt><trkpt lat="44.69261785492577" lon="10.022035544638431"><ele>289.57142857142856</ele><time>2026-04-04T08:44:35Z</time></trkpt><trkpt lat="44.69260780851055" lon="10.021945601713709"><ele>288.85714285714283</ele><time>2026-04-04T08:44:36Z</time></trkpt><trkpt lat="44.692557629643694" lon="10.02186695777955"><ele>288.1428571428571</ele><time>2026-04-04T08:44:38Z</time></trkpt><trkpt lat="44.69246668521802" lon="10.021884397975539"><ele>287.42857142857144</ele><time>2026-04-04T08:44:40Z</time></trkpt><trkpt lat="44.69240612596003" lon="10.021909127110384"><ele>286.71428571428567</ele><time>2026-04-04T08:44:41Z</time></trkpt><trkpt lat="44.6923404253631" lon="10.021935840596571"><ele>286.0</ele><time>2026-04-04T08:44:42Z</time></trkpt><trkpt lat="44.69220490761984" lon="10.021910827933489"><ele>286.0</ele><time>2026-04-04T08:44:43.999Z</time></trkpt><trkpt lat="44.692140585512604" lon="10.021907451301248"><ele>286.0</ele><time>2026-04-04T08:44:44.999Z</time></trkpt><trkpt lat="44.69204936086755" lon="10.021987175800605"><ele>286.0</ele><time>2026-04-04T08:44:46.999Z</time></trkpt><trkpt lat="44.692008426806474" lon="10.0220664245925"><ele>286.0</ele><time>2026-04-04T08:44:47.999Z</time></trkpt><trkpt lat="44.691983600561215" lon="10.022152362694799"><ele>286.0</ele><time>2026-04-04T08:44:48.999Z</time></trkpt><trkpt lat="44.69188851305406" lon="10.02222384303714"><ele>286.0</ele><time>2026-04-04T08:44:50.999Z</time></trkpt><trkpt lat="44.691819711194505" lon="10.022100915271153"><ele>285.0</ele><time>2026-04-04T08:44:52.999Z</time></trkpt><trkpt lat="44.69181548212781" lon="10.02198428856295"><ele>284.0</ele><time>2026-04-04T08:44:53.999Z</time></trkpt><trkpt lat="44.6917916141065" lon="10.021878499462552"><ele>283.0</ele><time>2026-04-04T08:44:54.999Z</time></trkpt><trkpt lat="44.691739015487244" lon="10.021795664968028"><ele>282.0</ele><time>2026-04-04T08:44:55.999Z</time></trkpt><trkpt lat="44.69166863635483" lon="10.021753764665304"><ele>281.0</ele><time>2026-04-04T08:44:56.999Z</time></trkpt><trkpt lat="44.69156892225043" lon="10.021726410334441"><ele>280.0</ele><time>2026-04-04T08:44:57.999Z</time></trkpt><trkpt lat="44.69146575959413" lon="10.021688948360158"><ele>278.8</ele><time>2026-04-04T08:44:58.999Z</time></trkpt><trkpt lat="44.69137137063975" lon="10.02163086523464"><ele>277.6</ele><time>2026-04-04T08:44:59.999Z</time></trkpt><trkpt lat="44.691293018387036" lon="10.021545297532327"><ele>276.4</ele><time>2026-04-04T08:45:00.999Z</time></trkpt><trkpt lat="44.69123304457147" lon="10.021436796539279"><ele>275.2</ele><time>2026-04-04T08:45:01.999Z</time></trkpt><trkpt lat="44.69117538542733" lon="10.021335809007116"><ele>274.0</ele><time>2026-04-04T08:45:02.999Z</time></trkpt><trkpt lat="44.69112542327575" lon="10.021233708407456"><ele>270.4</ele><time>2026-04-04T08:45:03.999Z</time></trkpt><trkpt lat="44.6910764398069" lon="10.021112836407985"><ele>266.79999999999995</ele><time>2026-04-04T08:45:04.999Z</time></trkpt><trkpt lat="44.69102853711181" lon="10.020989202875812"><ele>263.20000000000005</ele><time>2026-04-04T08:45:05.999Z</time></trkpt><trkpt lat="44.69097759957043" lon="10.020857059686671"><ele>259.6</ele><time>2026-04-04T08:45:06.999Z</time></trkpt><trkpt lat="44.69092458072204" lon="10.02071789713976"><ele>256.0</ele><time>2026-04-04T08:45:07.999Z</time></trkpt><trkpt lat="44.690869323989126" lon="10.020584667137872"><ele>254.4</ele><time>2026-04-04T08:45:08.999Z</time></trkpt><trkpt lat="44.69080813879473" lon="10.020471841845072"><ele>252.8</ele><time>2026-04-04T08:45:09.999Z</time></trkpt><trkpt lat="44.690741519764636" lon="10.02038088150208"><ele>251.20000000000002</ele><time>2026-04-04T08:45:10.999Z</time></trkpt><trkpt lat="44.69067885010082" lon="10.020298180447991"><ele>249.60000000000002</ele><time>2026-04-04T08:45:11.999Z</time></trkpt><trkpt lat="44.690619892862586" lon="10.020210617928361"><ele>248.0</ele><time>2026-04-04T08:45:12.999Z</time></trkpt><trkpt lat="44.690588010107746" lon="10.020100941709972"><ele>246.00000000000003</ele><time>2026-04-04T08:45:13.999Z</time></trkpt><trkpt lat="44.690588036669794" lon="10.019969026047757"><ele>244.0</ele><time>2026-04-04T08:45:14.999Z</time></trkpt><trkpt lat="44.690628722532615" lon="10.01983966270611"><ele>242.0</ele><time>2026-04-04T08:45:15.999Z</time></trkpt><trkpt lat="44.690675486093895" lon="10.019712749382126"><ele>240.0</ele><time>2026-04-04T08:45:16.999Z</time></trkpt><trkpt lat="44.6906976104605" lon="10.019607863929089"><ele>238.00000000000003</ele><time>2026-04-04T08:45:17.999Z</time></trkpt><trkpt lat="44.690682779048046" lon="10.019505299302232"><ele>236.0</ele><time>2026-04-04T08:45:18.999Z</time></trkpt><trkpt lat="44.690630379472964" lon="10.019436737022486"><ele>236.0</ele><time>2026-04-04T08:45:19.999Z</time></trkpt><trkpt lat="44.69056081797121" lon="10.019417533404646"><ele>236.00000000000003</ele><time>2026-04-04T08:45:20.999Z</time></trkpt><trkpt lat="44.69047137226793" lon="10.019427038156305"><ele>236.00000000000003</ele><time>2026-04-04T08:45:21.999Z</time></trkpt><trkpt lat="44.690366251214314" lon="10.019448490491191"><ele>236.0</ele><time>2026-04-04T08:45:22.999Z</time></trkpt><trkpt lat="44.690227795631586" lon="10.019413873549569"><ele>236.0</ele><time>2026-04-04T08:45:23.999Z</time></trkpt><trkpt lat="44.69011561043005" lon="10.019431560152322"><ele>233.83333333333334</ele><time>2026-04-04T08:45:24.999Z</time></trkpt><trkpt lat="44.69001821917633" lon="10.019445407072187"><ele>231.66666666666669</ele><time>2026-04-04T08:45:25.999Z</time></trkpt><trkpt lat="44.6899264319685" lon="10.019458457220573"><ele>229.5</ele><time>2026-04-04T08:45:26.999Z</time></trkpt><trkpt lat="44.689845943302664" lon="10.019477631259656"><ele>227.33333333333331</ele><time>2026-04-04T08:45:27.999Z</time></trkpt><trkpt lat="44.689779624999254" lon="10.019494869002784"><ele>225.16666666666666</ele><time>2026-04-04T08:45:28.999Z</time></trkpt><trkpt lat="44.689717540586415" lon="10.019514483490228"><ele>223.0</ele><time>2026-04-04T08:45:29.999Z</time></trkpt><trkpt lat="44.689674743867954" lon="10.019442705075205"><ele>223.0</ele><time>2026-04-04T08:45:30.999Z</time></trkpt><trkpt lat="44.68965543704693" lon="10.0193211120103"><ele>223.0</ele><time>2026-04-04T08:45:31.999Z</time></trkpt><trkpt lat="44.6896458156865" lon="10.019171676829105"><ele>223.0</ele><time>2026-04-04T08:45:32.999Z</time></trkpt><trkpt lat="44.68963094218231" lon="10.019015269921582"><ele>223.0</ele><time>2026-04-04T08:45:33.999Z</time></trkpt><trkpt lat="44.68959828172461" lon="10.018842746365953"><ele>223.0</ele><time>2026-04-04T08:45:34.999Z</time></trkpt><trkpt lat="44.68955367700627" lon="10.018709209454103"><ele>221.8</ele><time>2026-04-04T08:45:35.999Z</time></trkpt><trkpt lat="44.68949344649711" lon="10.018592933504856"><ele>220.60000000000002</ele><time>2026-04-04T08:45:36.998Z</time></trkpt><trkpt lat="44.68943593234318" lon="10.018473902933794"><ele>219.39999999999998</ele><time>2026-04-04T08:45:37.998Z</time></trkpt><trkpt lat="44.689392215912406" lon="10.01833555345306"><ele>218.2</ele><time>2026-04-04T08:45:38.998Z</time></trkpt><trkpt lat="44.68935689660986" lon="10.018174455391726"><ele>217.0</ele><time>2026-04-04T08:45:39.998Z</time></trkpt><trkpt lat="44.68933654916772" lon="10.017999371048399"><ele>215.2</ele><time>2026-04-04T08:45:40.998Z</time></trkpt><trkpt lat="44.68932912625555" lon="10.017838950480863"><ele>213.39999999999998</ele><time>2026-04-04T08:45:41.998Z</time></trkpt><trkpt lat="44.68932522822988" lon="10.017681682850688"><ele>211.60000000000002</ele><time>2026-04-04T08:45:42.998Z</time></trkpt><trkpt lat="44.689319701751714" lon="10.017532898378052"><ele>209.8</ele><time>2026-04-04T08:45:43.998Z</time></trkpt><trkpt lat="44.689304439063626" lon="10.017392332363682"><ele>208.0</ele><time>2026-04-04T08:45:44.998Z</time></trkpt><trkpt lat="44.68928755974112" lon="10.017264346592002"><ele>208.0</ele><time>2026-04-04T08:45:45.998Z</time></trkpt><trkpt lat="44.68923122940269" lon="10.01714952278058"><ele>208.0</ele><time>2026-04-04T08:45:46.998Z</time></trkpt><trkpt lat="44.68914485287995" lon="10.017073957842802"><ele>208.0</ele><time>2026-04-04T08:45:47.998Z</time></trkpt><trkpt lat="44.689070398522794" lon="10.017016979843172"><ele>208.0</ele><time>2026-04-04T08:45:48.998Z</time></trkpt><trkpt lat="44.68895755465016" lon="10.016938690556142"><ele>208.0</ele><time>2026-04-04T08:45:50.998Z</time></trkpt><trkpt lat="44.68885510943478" lon="10.016869534662538"><ele>208.0</ele><time>2026-04-04T08:45:53.001Z</time></trkpt><trkpt lat="44.68877675823123" lon="10.016829395918895"><ele>208.0</ele><time>2026-04-04T08:45:54.001Z</time></trkpt><trkpt lat="44.68868532587161" lon="10.01681075753737"><ele>208.0</ele><time>2026-04-04T08:45:55.001Z</time></trkpt><trkpt lat="44.68858899076359" lon="10.01675653643964"><ele>208.0</ele><time>2026-04-04T08:45:56.001Z</time></trkpt><trkpt lat="44.688492040392696" lon="10.016702131018226"><ele>208.0</ele><time>2026-04-04T08:45:57.001Z</time></trkpt><trkpt lat="44.68840065992662" lon="10.016656161296897"><ele>206.99999999999997</ele><time>2026-04-04T08:45:58.001Z</time></trkpt><trkpt lat="44.68831613446759" lon="10.016615362021334"><ele>206.0</ele><time>2026-04-04T08:45:59.001Z</time></trkpt><trkpt lat="44.688234525939954" lon="10.016571918965077"><ele>205.0</ele><time>2026-04-04T08:46:00.001Z</time></trkpt><trkpt lat="44.68815760939146" lon="10.016534326116114"><ele>204.0</ele><time>2026-04-04T08:46:01.001Z</time></trkpt><trkpt lat="44.68808327918245" lon="10.01649762422922"><ele>202.99999999999997</ele><time>2026-04-04T08:46:02.001Z</time></trkpt><trkpt lat="44.68801399218732" lon="10.016462519983254"><ele>202.0</ele><time>2026-04-04T08:46:03.001Z</time></trkpt><trkpt lat="44.68794162355032" lon="10.016428059179274"><ele>202.0</ele><time>2026-04-04T08:46:04.001Z</time></trkpt><trkpt lat="44.68786837347924" lon="10.01639218849645"><ele>202.0</ele><time>2026-04-04T08:46:05.001Z</time></trkpt><trkpt lat="44.68780261075508" lon="10.01635997095924"><ele>202.0</ele><time>2026-04-04T08:46:06.001Z</time></trkpt><trkpt lat="44.68774745782075" lon="10.01631116008657"><ele>202.0</ele><time>2026-04-04T08:46:07.001Z</time></trkpt><trkpt lat="44.68768323219074" lon="10.016301091995967"><ele>202.0</ele><time>2026-04-04T08:46:08Z</time></trkpt><trkpt lat="44.68761100252926" lon="10.016259970462619"><ele>202.0</ele><time>2026-04-04T08:46:09Z</time></trkpt><trkpt lat="44.68753552831919" lon="10.016215358786118"><ele>202.0</ele><time>2026-04-04T08:46:10Z</time></trkpt><trkpt lat="44.68746185533997" lon="10.016178064324945"><ele>200.99999999999997</ele><time>2026-04-04T08:46:11Z</time></trkpt><trkpt lat="44.68738840922025" lon="10.016141469767174"><ele>200.0</ele><time>2026-04-04T08:46:12Z</time></trkpt><trkpt lat="44.68731398602426" lon="10.016106163992944"><ele>199.0</ele><time>2026-04-04T08:46:13Z</time></trkpt><trkpt lat="44.687239655366135" lon="10.016068236460198"><ele>198.0</ele><time>2026-04-04T08:46:14Z</time></trkpt><trkpt lat="44.68716685607329" lon="10.016035552744821"><ele>196.99999999999997</ele><time>2026-04-04T08:46:15Z</time></trkpt><trkpt lat="44.68710149582738" lon="10.016002123385084"><ele>196.0</ele><time>2026-04-04T08:46:16Z</time></trkpt><trkpt lat="44.687030983565485" lon="10.015970607559858"><ele>196.0</ele><time>2026-04-04T08:46:17Z</time></trkpt><trkpt lat="44.686969704820825" lon="10.015915326199769"><ele>196.0</ele><time>2026-04-04T08:46:18Z</time></trkpt><trkpt lat="44.68690834988299" lon="10.015884648727027"><ele>196.0</ele><time>2026-04-04T08:46:19Z</time></trkpt><trkpt lat="44.686835399981085" lon="10.015866976876985"><ele>196.0</ele><time>2026-04-04T08:46:20Z</time></trkpt><trkpt lat="44.68677409703884" lon="10.015808305762121"><ele>196.0</ele><time>2026-04-04T08:46:21Z</time></trkpt><trkpt lat="44.68673412703062" lon="10.015734713403019"><ele>196.0</ele><time>2026-04-04T08:46:22Z</time></trkpt><trkpt lat="44.68671923384494" lon="10.015645255543783"><ele>196.0</ele><time>2026-04-04T08:46:23Z</time></trkpt><trkpt lat="44.68671430716195" lon="10.015552762336194"><ele>194.99999999999997</ele><time>2026-04-04T08:46:24Z</time></trkpt><trkpt lat="44.6867279464076" lon="10.015392509726992"><ele>194.0</ele><time>2026-04-04T08:46:26Z</time></trkpt><trkpt lat="44.68672463601273" lon="10.015297371430309"><ele>193.0</ele><time>2026-04-04T08:46:30Z</time></trkpt><trkpt lat="44.686728946734114" lon="10.015204525070498"><ele>192.0</ele><time>2026-04-04T08:46:36Z</time></trkpt><trkpt lat="44.68664952714752" lon="10.015149968447641"><ele>191.0</ele><time>2026-04-04T08:46:43Z</time></trkpt><trkpt lat="44.686552054486235" lon="10.015161251963534"><ele>190.0</ele><time>2026-04-04T08:46:45Z</time></trkpt><trkpt lat="44.686442468509654" lon="10.015209538698755"><ele>190.0</ele><time>2026-04-04T08:46:46.999Z</time></trkpt><trkpt lat="44.68636389309463" lon="10.015223907154871"><ele>190.0</ele><time>2026-04-04T08:46:47.999Z</time></trkpt><trkpt lat="44.68627407838899" lon="10.015245592300467"><ele>190.0</ele><time>2026-04-04T08:46:48.999Z</time></trkpt><trkpt lat="44.68619386176185" lon="10.015242121863743"><ele>190.0</ele><time>2026-04-04T08:46:49.999Z</time></trkpt><trkpt lat="44.68612123125594" lon="10.015264561863749"><ele>190.0</ele><time>2026-04-04T08:46:50.999Z</time></trkpt><trkpt lat="44.68605610565385" lon="10.015295437117155"><ele>190.0</ele><time>2026-04-04T08:46:51.999Z</time></trkpt><trkpt lat="44.68598341984009" lon="10.015339580877344"><ele>188.8</ele><time>2026-04-04T08:46:53.999Z</time></trkpt><trkpt lat="44.68592527397989" lon="10.015548889579973"><ele>187.6</ele><time>2026-04-04T08:46:56.999Z</time></trkpt><trkpt lat="44.68591973306844" lon="10.01563816245482"><ele>186.39999999999998</ele><time>2026-04-04T08:46:57.999Z</time></trkpt><trkpt lat="44.68590693240824" lon="10.015744938816654"><ele>185.2</ele><time>2026-04-04T08:46:58.999Z</time></trkpt><trkpt lat="44.685897727245" lon="10.015878027811517"><ele>184.0</ele><time>2026-04-04T08:46:59.999Z</time></trkpt><trkpt lat="44.68586441132793" lon="10.016041694905903"><ele>184.0</ele><time>2026-04-04T08:47:00.999Z</time></trkpt><trkpt lat="44.68583464662289" lon="10.016193614975402"><ele>184.0</ele><time>2026-04-04T08:47:01.999Z</time></trkpt><trkpt lat="44.68580093069522" lon="10.016311192182187"><ele>184.0</ele><time>2026-04-04T08:47:02.999Z</time></trkpt><trkpt lat="44.68574617827135" lon="10.016377700742606"><ele>184.0</ele><time>2026-04-04T08:47:03.999Z</time></trkpt><trkpt lat="44.68567265624796" lon="10.016380706157795"><ele>184.0</ele><time>2026-04-04T08:47:04.999Z</time></trkpt><trkpt lat="44.68557879740155" lon="10.016351143190715"><ele>184.0</ele><time>2026-04-04T08:47:05.999Z</time></trkpt><trkpt lat="44.685459496890374" lon="10.016310095141685"><ele>184.0</ele><time>2026-04-04T08:47:06.999Z</time></trkpt><trkpt lat="44.68532111024294" lon="10.01631340299141"><ele>184.0</ele><time>2026-04-04T08:47:07.999Z</time></trkpt><trkpt lat="44.68517976428848" lon="10.016316781574911"><ele>184.0</ele><time>2026-04-04T08:47:08.999Z</time></trkpt><trkpt lat="44.68503010908434" lon="10.016321762199405"><ele>184.0</ele><time>2026-04-04T08:47:09.999Z</time></trkpt><trkpt lat="44.68487008403563" lon="10.01632721886137"><ele>184.33333333333334</ele><time>2026-04-04T08:47:10.999Z</time></trkpt><trkpt lat="44.68471230584943" lon="10.016332598910003"><ele>184.66666666666666</ele><time>2026-04-04T08:47:11.999Z</time></trkpt><trkpt lat="44.684561962164345" lon="10.016338963855135"><ele>185.0</ele><time>2026-04-04T08:47:12.999Z</time></trkpt><trkpt lat="44.684417375232634" lon="10.016344852805132"><ele>185.0</ele><time>2026-04-04T08:47:13.999Z</time></trkpt><trkpt lat="44.6842899054109" lon="10.01635004458445"><ele>185.0</ele><time>2026-04-04T08:47:14.999Z</time></trkpt><trkpt lat="44.684167367492385" lon="10.016356210462053"><ele>185.0</ele><time>2026-04-04T08:47:15.999Z</time></trkpt><trkpt lat="44.68405289102679" lon="10.016360873940636"><ele>185.0</ele><time>2026-04-04T08:47:16.999Z</time></trkpt><trkpt lat="44.68395064939275" lon="10.016364251037981"><ele>185.0</ele><time>2026-04-04T08:47:17.999Z</time></trkpt><trkpt lat="44.68385456453987" lon="10.016368083048071"><ele>185.0</ele><time>2026-04-04T08:47:18.999Z</time></trkpt><trkpt lat="44.683767693070365" lon="10.016373474839797"><ele>185.0</ele><time>2026-04-04T08:47:19.999Z</time></trkpt><trkpt lat="44.683687243318474" lon="10.016397282477065"><ele>185.0</ele><time>2026-04-04T08:47:20.999Z</time></trkpt><trkpt lat="44.68360228422221" lon="10.016404756064807"><ele>185.0</ele><time>2026-04-04T08:47:21.999Z</time></trkpt><trkpt lat="44.683522158108524" lon="10.01638431915743"><ele>185.0</ele><time>2026-04-04T08:47:22.999Z</time></trkpt><trkpt lat="44.683439478120526" lon="10.01640547700213"><ele>183.4</ele><time>2026-04-04T08:47:23.999Z</time></trkpt><trkpt lat="44.6833538048612" lon="10.01640213257499"><ele>181.8</ele><time>2026-04-04T08:47:24.999Z</time></trkpt><trkpt lat="44.683268240203354" lon="10.01641062291363"><ele>180.2</ele><time>2026-04-04T08:47:25.999Z</time></trkpt><trkpt lat="44.683178269933585" lon="10.016412423215378"><ele>178.6</ele><time>2026-04-04T08:47:26.999Z</time></trkpt><trkpt lat="44.68308464578946" lon="10.016411237804613"><ele>177.0</ele><time>2026-04-04T08:47:27.999Z</time></trkpt><trkpt lat="44.68298954068213" lon="10.016414387245494"><ele>177.0</ele><time>2026-04-04T08:47:28.999Z</time></trkpt><trkpt lat="44.682900366785276" lon="10.016420946665102"><ele>177.0</ele><time>2026-04-04T08:47:29.999Z</time></trkpt><trkpt lat="44.68280362128438" lon="10.016419441838487"><ele>177.0</ele><time>2026-04-04T08:47:30.999Z</time></trkpt><trkpt lat="44.682703466636866" lon="10.01642760041143"><ele>177.0</ele><time>2026-04-04T08:47:31.999Z</time></trkpt><trkpt lat="44.68260579176999" lon="10.01643507278604"><ele>177.0</ele><time>2026-04-04T08:47:32.999Z</time></trkpt><trkpt lat="44.682503127119894" lon="10.016437606733282"><ele>176.8</ele><time>2026-04-04T08:47:33.999Z</time></trkpt><trkpt lat="44.68240282928083" lon="10.016438203254381"><ele>176.6</ele><time>2026-04-04T08:47:34.998Z</time></trkpt><trkpt lat="44.682303545450324" lon="10.01644240735999"><ele>176.4</ele><time>2026-04-04T08:47:35.998Z</time></trkpt><trkpt lat="44.68220495066281" lon="10.01644319870107"><ele>176.20000000000002</ele><time>2026-04-04T08:47:36.998Z</time></trkpt><trkpt lat="44.68211089005242" lon="10.016429534418181"><ele>176.0</ele><time>2026-04-04T08:47:37.998Z</time></trkpt><trkpt lat="44.68202174128256" lon="10.01645642554396"><ele>176.0</ele><time>2026-04-04T08:47:38.998Z</time></trkpt><trkpt lat="44.68193328505012" lon="10.016456306287742"><ele>176.0</ele><time>2026-04-04T08:47:39.998Z</time></trkpt><trkpt lat="44.68184859481376" lon="10.016461752172738"><ele>176.0</ele><time>2026-04-04T08:47:40.998Z</time></trkpt><trkpt lat="44.6817644280986" lon="10.016470228798731"><ele>176.0</ele><time>2026-04-04T08:47:41.998Z</time></trkpt><trkpt lat="44.68168251741743" lon="10.016461960869902"><ele>176.0</ele><time>2026-04-04T08:47:42.998Z</time></trkpt><trkpt lat="44.68157608662528" lon="10.016460926427664"><ele>176.0</ele><time>2026-04-04T08:47:44.998Z</time></trkpt><trkpt lat="44.68149320253113" lon="10.016406314424295"><ele>176.16666666666666</ele><time>2026-04-04T08:47:46.998Z</time></trkpt><trkpt lat="44.68147882200267" lon="10.016206498552382"><ele>176.33333333333331</ele><time>2026-04-04T08:47:49.998Z</time></trkpt><trkpt lat="44.681502305376895" lon="10.016106060565832"><ele>176.5</ele><time>2026-04-04T08:47:50.998Z</time></trkpt><trkpt lat="44.68152656523515" lon="10.016008287425901"><ele>176.66666666666666</ele><time>2026-04-04T08:47:51.998Z</time></trkpt><trkpt lat="44.68154869727044" lon="10.015911139732127"><ele>176.83333333333334</ele><time>2026-04-04T08:47:52.998Z</time></trkpt><trkpt lat="44.68156227647685" lon="10.015806145244209"><ele>177.0</ele><time>2026-04-04T08:47:53.998Z</time></trkpt><trkpt lat="44.68159254304472" lon="10.015728266735872"><ele>177.0</ele><time>2026-04-04T08:47:54.998Z</time></trkpt><trkpt lat="44.681556450816224" lon="10.015567877764761"><ele>177.0</ele><time>2026-04-04T08:47:56.998Z</time></trkpt><trkpt lat="44.6815270092212" lon="10.015460001173071"><ele>177.0</ele><time>2026-04-04T08:47:58.001Z</time></trkpt><trkpt lat="44.681502410664436" lon="10.015343833484431"><ele>177.0</ele><time>2026-04-04T08:47:59.001Z</time></trkpt><trkpt lat="44.68147164170012" lon="10.01521686458629"><ele>177.0</ele><time>2026-04-04T08:48:00.001Z</time></trkpt><trkpt lat="44.68143597980171" lon="10.015072864218187"><ele>177.0</ele><time>2026-04-04T08:48:01.001Z</time></trkpt><trkpt lat="44.68139648259165" lon="10.014913377105149"><ele>177.0</ele><time>2026-04-04T08:48:02.001Z</time></trkpt><trkpt lat="44.68135532906427" lon="10.014751165104165"><ele>177.0</ele><time>2026-04-04T08:48:03Z</time></trkpt><trkpt lat="44.681307802507845" lon="10.0145856284761"><ele>177.0</ele><time>2026-04-04T08:48:04Z</time></trkpt><trkpt lat="44.68128774462864" lon="10.014433688380688"><ele>177.0</ele><time>2026-04-04T08:48:05Z</time></trkpt><trkpt lat="44.68128655571922" lon="10.014296269152103"><ele>177.0</ele><time>2026-04-04T08:48:06Z</time></trkpt><trkpt lat="44.68137132762544" lon="10.014195820786327"><ele>177.0</ele><time>2026-04-04T08:48:07Z</time></trkpt><trkpt lat="44.68136542482674" lon="10.014058039199861"><ele>177.0</ele><time>2026-04-04T08:48:09Z</time></trkpt><trkpt lat="44.68135590770015" lon="10.0139703958524"><ele>177.0</ele><time>2026-04-04T08:48:11Z</time></trkpt><trkpt lat="44.68134377301473" lon="10.013858647265264"><ele>177.0</ele><time>2026-04-04T08:48:14Z</time></trkpt><trkpt lat="44.68129784109234" lon="10.013757994098997"><ele>177.0</ele><time>2026-04-04T08:48:15Z</time></trkpt><trkpt lat="44.68126873663074" lon="10.013622478271254"><ele>177.0</ele><time>2026-04-04T08:48:16Z</time></trkpt><trkpt lat="44.681239773059175" lon="10.013483972220286"><ele>177.0</ele><time>2026-04-04T08:48:17Z</time></trkpt><trkpt lat="44.68122310111585" lon="10.013333314568502"><ele>177.0</ele><time>2026-04-04T08:48:18Z</time></trkpt><trkpt lat="44.68119266528533" lon="10.013183555641456"><ele>177.0</ele><time>2026-04-04T08:48:19Z</time></trkpt><trkpt lat="44.68116567511561" lon="10.013050751015175"><ele>177.0</ele><time>2026-04-04T08:48:20Z</time></trkpt><trkpt lat="44.681142586643084" lon="10.012937144600562"><ele>177.0</ele><time>2026-04-04T08:48:21Z</time></trkpt><trkpt lat="44.68109760324352" lon="10.012800952289096"><ele>177.0</ele><time>2026-04-04T08:48:22Z</time></trkpt><trkpt lat="44.68107674482211" lon="10.012665783935967"><ele>177.0</ele><time>2026-04-04T08:48:23Z</time></trkpt><trkpt lat="44.68104731978925" lon="10.012522860200061"><ele>177.6</ele><time>2026-04-04T08:48:24Z</time></trkpt><trkpt lat="44.681015252459474" lon="10.012386573538656"><ele>178.2</ele><time>2026-04-04T08:48:25Z</time></trkpt><trkpt lat="44.68100277939757" lon="10.012237240936955"><ele>178.8</ele><time>2026-04-04T08:48:26Z</time></trkpt><trkpt lat="44.680979106729396" lon="10.012113446727238"><ele>179.4</ele><time>2026-04-04T08:48:27Z</time></trkpt><trkpt lat="44.68095474125022" lon="10.011986029504788"><ele>180.0</ele><time>2026-04-04T08:48:28Z</time></trkpt><trkpt lat="44.68093372650106" lon="10.011876134622323"><ele>180.0</ele><time>2026-04-04T08:48:29Z</time></trkpt><trkpt lat="44.68091420135091" lon="10.011774029575587"><ele>180.0</ele><time>2026-04-04T08:48:30Z</time></trkpt><trkpt lat="44.68089397797037" lon="10.011668273031306"><ele>180.0</ele><time>2026-04-04T08:48:31Z</time></trkpt><trkpt lat="44.680866818031475" lon="10.011586387172526"><ele>180.0</ele><time>2026-04-04T08:48:32Z</time></trkpt><trkpt lat="44.68084859091008" lon="10.01149182644462"><ele>180.0</ele><time>2026-04-04T08:48:33Z</time></trkpt><trkpt lat="44.680816074273075" lon="10.011311977040002"><ele>180.0</ele><time>2026-04-04T08:48:35Z</time></trkpt><trkpt lat="44.68079645714883" lon="10.011210014640556"><ele>180.2</ele><time>2026-04-04T08:48:36Z</time></trkpt><trkpt lat="44.68077164812803" lon="10.011097830199912"><ele>180.4</ele><time>2026-04-04T08:48:37Z</time></trkpt><trkpt lat="44.680761087623154" lon="10.010955913773849"><ele>180.60000000000002</ele><time>2026-04-04T08:48:38Z</time></trkpt><trkpt lat="44.680717579604725" lon="10.01081277513225"><ele>180.8</ele><time>2026-04-04T08:48:39Z</time></trkpt><trkpt lat="44.68069241294755" lon="10.010647753320859"><ele>181.0</ele><time>2026-04-04T08:48:40Z</time></trkpt><trkpt lat="44.68066806472403" lon="10.010508257424817"><ele>181.20000000000002</ele><time>2026-04-04T08:48:41Z</time></trkpt><trkpt lat="44.68064280123238" lon="10.010379555082467"><ele>181.4</ele><time>2026-04-04T08:48:42Z</time></trkpt><trkpt lat="44.68062326616796" lon="10.010257629425956"><ele>181.6</ele><time>2026-04-04T08:48:43Z</time></trkpt><trkpt lat="44.680595651656496" lon="10.010108565748551"><ele>181.8</ele><time>2026-04-04T08:48:44Z</time></trkpt><trkpt lat="44.68058087474124" lon="10.009938169015593"><ele>182.0</ele><time>2026-04-04T08:48:44.999Z</time></trkpt><trkpt lat="44.680555248967806" lon="10.009775776262718"><ele>182.0</ele><time>2026-04-04T08:48:45.999Z</time></trkpt><trkpt lat="44.68053082474424" lon="10.00960675465458"><ele>182.0</ele><time>2026-04-04T08:48:46.999Z</time></trkpt><trkpt lat="44.680495595393005" lon="10.009456507223074"><ele>182.0</ele><time>2026-04-04T08:48:47.999Z</time></trkpt><trkpt lat="44.68048424208115" lon="10.009320325694933"><ele>182.0</ele><time>2026-04-04T08:48:48.999Z</time></trkpt><trkpt lat="44.68046550551311" lon="10.00916487452438"><ele>182.0</ele><time>2026-04-04T08:48:49.999Z</time></trkpt><trkpt lat="44.68045020253504" lon="10.008997988813428"><ele>182.2</ele><time>2026-04-04T08:48:50.999Z</time></trkpt><trkpt lat="44.68043496674718" lon="10.008845347679717"><ele>182.39999999999998</ele><time>2026-04-04T08:48:51.999Z</time></trkpt><trkpt lat="44.680423606846766" lon="10.008715422472362"><ele>182.60000000000002</ele><time>2026-04-04T08:48:52.999Z</time></trkpt><trkpt lat="44.680411955094485" lon="10.008576343505847"><ele>182.8</ele><time>2026-04-04T08:48:53.999Z</time></trkpt><trkpt lat="44.68041464014234" lon="10.008451036090674"><ele>183.0</ele><time>2026-04-04T08:48:54.999Z</time></trkpt><trkpt lat="44.68039948403331" lon="10.00832696480854"><ele>183.0</ele><time>2026-04-04T08:48:55.999Z</time></trkpt><trkpt lat="44.68038028080258" lon="10.008219268883941"><ele>183.0</ele><time>2026-04-04T08:48:56.999Z</time></trkpt><trkpt lat="44.680360399716385" lon="10.008115901683231"><ele>183.0</ele><time>2026-04-04T08:48:57.999Z</time></trkpt><trkpt lat="44.680345166416394" lon="10.008010069150833"><ele>183.0</ele><time>2026-04-04T08:48:58.999Z</time></trkpt><trkpt lat="44.68034104736881" lon="10.007889783037252"><ele>183.0</ele><time>2026-04-04T08:48:59.999Z</time></trkpt><trkpt lat="44.68034829812522" lon="10.007748895180608"><ele>183.0</ele><time>2026-04-04T08:49:00.999Z</time></trkpt><trkpt lat="44.680358903369594" lon="10.007590926273497"><ele>182.8</ele><time>2026-04-04T08:49:01.999Z</time></trkpt><trkpt lat="44.680350960202695" lon="10.007437458140473"><ele>182.60000000000002</ele><time>2026-04-04T08:49:02.999Z</time></trkpt><trkpt lat="44.680357677637026" lon="10.007318210070917"><ele>182.39999999999998</ele><time>2026-04-04T08:49:03.999Z</time></trkpt><trkpt lat="44.68034891870051" lon="10.007198144848612"><ele>182.2</ele><time>2026-04-04T08:49:04.999Z</time></trkpt><trkpt lat="44.68031750916745" lon="10.007061275135722"><ele>182.0</ele><time>2026-04-04T08:49:05.999Z</time></trkpt><trkpt lat="44.68027688576829" lon="10.006917288744436"><ele>184.0</ele><time>2026-04-04T08:49:06.999Z</time></trkpt><trkpt lat="44.68023346918785" lon="10.006761055028907"><ele>186.0</ele><time>2026-04-04T08:49:07.999Z</time></trkpt><trkpt lat="44.68020412048638" lon="10.00659381862604"><ele>188.0</ele><time>2026-04-04T08:49:08.999Z</time></trkpt><trkpt lat="44.68015317558884" lon="10.006428507845326"><ele>190.0</ele><time>2026-04-04T08:49:09.999Z</time></trkpt><trkpt lat="44.680143643447266" lon="10.006246187275755"><ele>190.0</ele><time>2026-04-04T08:49:10.999Z</time></trkpt><trkpt lat="44.68011199650239" lon="10.006082690695537"><ele>190.0</ele><time>2026-04-04T08:49:11.999Z</time></trkpt><trkpt lat="44.68009470599793" lon="10.005939969796255"><ele>190.0</ele><time>2026-04-04T08:49:12.999Z</time></trkpt><trkpt lat="44.68007039713513" lon="10.005812991484582"><ele>190.0</ele><time>2026-04-04T08:49:13.999Z</time></trkpt><trkpt lat="44.68002595074277" lon="10.005663664998492"><ele>190.0</ele><time>2026-04-04T08:49:14.999Z</time></trkpt><trkpt lat="44.67999468781305" lon="10.005504489823611"><ele>189.25</ele><time>2026-04-04T08:49:15.999Z</time></trkpt><trkpt lat="44.67995421376102" lon="10.00532754189853"><ele>188.5</ele><time>2026-04-04T08:49:16.999Z</time></trkpt><trkpt lat="44.67992655008411" lon="10.005152354209985"><ele>187.75</ele><time>2026-04-04T08:49:17.999Z</time></trkpt><trkpt lat="44.67992290050227" lon="10.004993614525288"><ele>187.0</ele><time>2026-04-04T08:49:18.999Z</time></trkpt><trkpt lat="44.67991170197797" lon="10.004820338218334"><ele>186.75</ele><time>2026-04-04T08:49:19.999Z</time></trkpt><trkpt lat="44.6799034415394" lon="10.004640072676473"><ele>186.5</ele><time>2026-04-04T08:49:20.999Z</time></trkpt><trkpt lat="44.67989740876898" lon="10.004464300776569"><ele>186.25</ele><time>2026-04-04T08:49:21.999Z</time></trkpt><trkpt lat="44.67989310615835" lon="10.004307674386972"><ele>186.0</ele><time>2026-04-04T08:49:22.999Z</time></trkpt><trkpt lat="44.67987409592485" lon="10.004152919042303"><ele>186.0</ele><time>2026-04-04T08:49:23.999Z</time></trkpt><trkpt lat="44.67987694409818" lon="10.004000664631082"><ele>186.0</ele><time>2026-04-04T08:49:24.999Z</time></trkpt><trkpt lat="44.679879181023786" lon="10.003845418632368"><ele>186.0</ele><time>2026-04-04T08:49:25.999Z</time></trkpt><trkpt lat="44.67988380353392" lon="10.00369791392741"><ele>186.0</ele><time>2026-04-04T08:49:26.999Z</time></trkpt><trkpt lat="44.67989679201404" lon="10.003532460695853"><ele>186.0</ele><time>2026-04-04T08:49:27.999Z</time></trkpt><trkpt lat="44.67990702029609" lon="10.003363730311039"><ele>186.25</ele><time>2026-04-04T08:49:28.999Z</time></trkpt><trkpt lat="44.679917295720536" lon="10.003219735895863"><ele>186.5</ele><time>2026-04-04T08:49:29.998Z</time></trkpt><trkpt lat="44.67991875790047" lon="10.003067609601606"><ele>186.75</ele><time>2026-04-04T08:49:30.998Z</time></trkpt><trkpt lat="44.679949402789596" lon="10.00290350294663"><ele>187.0</ele><time>2026-04-04T08:49:31.998Z</time></trkpt><trkpt lat="44.67993083853006" lon="10.002737745015505"><ele>187.0</ele><time>2026-04-04T08:49:32.998Z</time></trkpt><trkpt lat="44.67991801703599" lon="10.002577288294594"><ele>187.0</ele><time>2026-04-04T08:49:33.998Z</time></trkpt><trkpt lat="44.6798920089" lon="10.002455985443214"><ele>187.0</ele><time>2026-04-04T08:49:34.998Z</time></trkpt><trkpt lat="44.679867604107976" lon="10.00235765591907"><ele>187.0</ele><time>2026-04-04T08:49:35.998Z</time></trkpt><trkpt lat="44.67984035532594" lon="10.002213666852342"><ele>187.0</ele><time>2026-04-04T08:49:36.998Z</time></trkpt><trkpt lat="44.68018590210018" lon="10.001704465413678"><ele>186.75</ele><time>2026-04-04T08:49:38.998Z</time></trkpt><trkpt lat="44.68023592948067" lon="10.001531542950952"><ele>186.5</ele><time>2026-04-04T08:49:39.998Z</time></trkpt><trkpt lat="44.68029915244717" lon="10.001340731112675"><ele>186.25</ele><time>2026-04-04T08:49:40.998Z</time></trkpt><trkpt lat="44.68036161260807" lon="10.001144865844283"><ele>186.0</ele><time>2026-04-04T08:49:41.998Z</time></trkpt><trkpt lat="44.68040980114417" lon="10.00096136807414"><ele>186.20000000000002</ele><time>2026-04-04T08:49:42.998Z</time></trkpt><trkpt lat="44.6804482261948" lon="10.000803214090281"><ele>186.4</ele><time>2026-04-04T08:49:43.998Z</time></trkpt><trkpt lat="44.68046229618701" lon="10.000679852403923"><ele>186.6</ele><time>2026-04-04T08:49:44.998Z</time></trkpt><trkpt lat="44.68045926088746" lon="10.000580569926594"><ele>186.8</ele><time>2026-04-04T08:49:45.998Z</time></trkpt><trkpt lat="44.68042534611728" lon="10.000432786789137"><ele>187.0</ele><time>2026-04-04T08:49:47.998Z</time></trkpt><trkpt lat="44.68038247426599" lon="10.000341458130578"><ele>187.0</ele><time>2026-04-04T08:49:48.998Z</time></trkpt><trkpt lat="44.68032640861561" lon="10.000203615098167"><ele>187.0</ele><time>2026-04-04T08:49:49.998Z</time></trkpt><trkpt lat="44.68028555101239" lon="10.000124637560479"><ele>187.0</ele><time>2026-04-04T08:49:50.998Z</time></trkpt><trkpt lat="44.68022969315555" lon="10.000071240614592"><ele>187.0</ele><time>2026-04-04T08:49:51.998Z</time></trkpt><trkpt lat="44.680157337067904" lon="10.000027421447328"><ele>187.0</ele><time>2026-04-04T08:49:52.998Z</time></trkpt><trkpt lat="44.68007860481207" lon="10.000005545431744"><ele>187.0</ele><time>2026-04-04T08:49:53.998Z</time></trkpt><trkpt lat="44.67997811321052" lon="9.999906439666042"><ele>186.83333333333334</ele><time>2026-04-04T08:49:55.998Z</time></trkpt><trkpt lat="44.67993830005535" lon="9.999817068097322"><ele>186.66666666666669</ele><time>2026-04-04T08:49:56.998Z</time></trkpt><trkpt lat="44.67990184872107" lon="9.999707635264212"><ele>186.5</ele><time>2026-04-04T08:49:57.998Z</time></trkpt><trkpt lat="44.67985189440036" lon="9.99958543110849"><ele>186.33333333333334</ele><time>2026-04-04T08:49:58.998Z</time></trkpt><trkpt lat="44.679800916865105" lon="9.999498136466864"><ele>186.16666666666666</ele><time>2026-04-04T08:49:59.998Z</time></trkpt><trkpt lat="44.67976325480016" lon="9.999418437045158"><ele>186.0</ele><time>2026-04-04T08:50:00.998Z</time></trkpt><trkpt lat="44.67974117946516" lon="9.999327143336169"><ele>186.0</ele><time>2026-04-04T08:50:01.998Z</time></trkpt><trkpt lat="44.67973628548369" lon="9.999216088471174"><ele>186.0</ele><time>2026-04-04T08:50:02.998Z</time></trkpt><trkpt lat="44.67974113815719" lon="9.999086866842733"><ele>186.0</ele><time>2026-04-04T08:50:04Z</time></trkpt><trkpt lat="44.679745306311034" lon="9.998937732450443"><ele>186.0</ele><time>2026-04-04T08:50:05Z</time></trkpt><trkpt lat="44.67974910357226" lon="9.998797981646854"><ele>186.0</ele><time>2026-04-04T08:50:06Z</time></trkpt><trkpt lat="44.67977251304069" lon="9.998666627829706"><ele>186.4</ele><time>2026-04-04T08:50:07Z</time></trkpt><trkpt lat="44.67979595140376" lon="9.998534627974717"><ele>186.8</ele><time>2026-04-04T08:50:08Z</time></trkpt><trkpt lat="44.67982408907334" lon="9.99840899465665"><ele>187.20000000000002</ele><time>2026-04-04T08:50:09Z</time></trkpt><trkpt lat="44.67985955566649" lon="9.998270871635736"><ele>187.60000000000002</ele><time>2026-04-04T08:50:10Z</time></trkpt><trkpt lat="44.679894529059794" lon="9.998132737410765"><ele>188.0</ele><time>2026-04-04T08:50:11Z</time></trkpt><trkpt lat="44.67993032685347" lon="9.997985578177785"><ele>188.33333333333331</ele><time>2026-04-04T08:50:12Z</time></trkpt><trkpt lat="44.67996597910919" lon="9.997854503051617"><ele>188.66666666666666</ele><time>2026-04-04T08:50:13Z</time></trkpt><trkpt lat="44.68000526528228" lon="9.997751561256345"><ele>189.0</ele><time>2026-04-04T08:50:14Z</time></trkpt><trkpt lat="44.68004060599606" lon="9.99764820804291"><ele>189.33333333333334</ele><time>2026-04-04T08:50:15Z</time></trkpt><trkpt lat="44.6800666677829" lon="9.9975175787976"><ele>189.66666666666669</ele><time>2026-04-04T08:50:16Z</time></trkpt><trkpt lat="44.680068450175575" lon="9.997393406333956"><ele>190.0</ele><time>2026-04-04T08:50:17Z</time></trkpt><trkpt lat="44.680068179444866" lon="9.997255387991999"><ele>190.5</ele><time>2026-04-04T08:50:18Z</time></trkpt><trkpt lat="44.68008485063397" lon="9.997139816945383"><ele>191.0</ele><time>2026-04-04T08:50:19Z</time></trkpt><trkpt lat="44.68006258493552" lon="9.997045485712285"><ele>191.5</ele><time>2026-04-04T08:50:20Z</time></trkpt><trkpt lat="44.680028252341536" lon="9.996949631370885"><ele>192.0</ele><time>2026-04-04T08:50:21Z</time></trkpt><trkpt lat="44.679976174845336" lon="9.996841080188076"><ele>192.49999999999997</ele><time>2026-04-04T08:50:22Z</time></trkpt><trkpt lat="44.679919053526326" lon="9.99674730980157"><ele>193.0</ele><time>2026-04-04T08:50:23Z</time></trkpt><trkpt lat="44.6798495802293" lon="9.996653465014491"><ele>193.66666666666666</ele><time>2026-04-04T08:50:24Z</time></trkpt><trkpt lat="44.679777126504646" lon="9.996568261660673"><ele>194.33333333333331</ele><time>2026-04-04T08:50:25Z</time></trkpt><trkpt lat="44.6797080904183" lon="9.996484862423376"><ele>195.0</ele><time>2026-04-04T08:50:26Z</time></trkpt><trkpt lat="44.6796266767508" lon="9.996424912825566"><ele>195.66666666666669</ele><time>2026-04-04T08:50:27Z</time></trkpt><trkpt lat="44.67956822101856" lon="9.996351247239918"><ele>196.33333333333334</ele><time>2026-04-04T08:50:28Z</time></trkpt><trkpt lat="44.679511547087124" lon="9.996269577852658"><ele>197.0</ele><time>2026-04-04T08:50:29Z</time></trkpt><trkpt lat="44.6794504583037" lon="9.99618430048492"><ele>199.6</ele><time>2026-04-04T08:50:30Z</time></trkpt><trkpt lat="44.679326325843036" lon="9.99610404384356"><ele>202.2</ele><time>2026-04-04T08:50:32Z</time></trkpt><trkpt lat="44.67925808482586" lon="9.996082822946482"><ele>204.8</ele><time>2026-04-04T08:50:33Z</time></trkpt><trkpt lat="44.67917644444682" lon="9.996083072356038"><ele>207.4</ele><time>2026-04-04T08:50:34Z</time></trkpt><trkpt lat="44.67907763477563" lon="9.996100175335329"><ele>210.0</ele><time>2026-04-04T08:50:35Z</time></trkpt><trkpt lat="44.679000213020515" lon="9.99612444187267"><ele>210.0</ele><time>2026-04-04T08:50:36Z</time></trkpt><trkpt lat="44.678885331353754" lon="9.996161601920875"><ele>210.0</ele><time>2026-04-04T08:50:37Z</time></trkpt><trkpt lat="44.67878192268676" lon="9.996184971949155"><ele>210.0</ele><time>2026-04-04T08:50:38Z</time></trkpt><trkpt lat="44.678682827915786" lon="9.996211010265414"><ele>210.0</ele><time>2026-04-04T08:50:39Z</time></trkpt><trkpt lat="44.67857319240149" lon="9.996240854752495"><ele>210.0</ele><time>2026-04-04T08:50:40Z</time></trkpt><trkpt lat="44.67847987820972" lon="9.99626730471656"><ele>212.33333333333334</ele><time>2026-04-04T08:50:41Z</time></trkpt><trkpt lat="44.67838602222283" lon="9.996300610284854"><ele>214.66666666666669</ele><time>2026-04-04T08:50:42Z</time></trkpt><trkpt lat="44.67830647404164" lon="9.9963272417914"><ele>217.0</ele><time>2026-04-04T08:50:43Z</time></trkpt><trkpt lat="44.67822552075008" lon="9.996362557220083"><ele>219.33333333333334</ele><time>2026-04-04T08:50:44Z</time></trkpt><trkpt lat="44.678150706967905" lon="9.996400756913683"><ele>221.66666666666669</ele><time>2026-04-04T08:50:44.999Z</time></trkpt><trkpt lat="44.67808424694409" lon="9.996433316669114"><ele>224.0</ele><time>2026-04-04T08:50:45.999Z</time></trkpt><trkpt lat="44.678004591411835" lon="9.996447557669415"><ele>224.00000000000003</ele><time>2026-04-04T08:50:46.999Z</time></trkpt><trkpt lat="44.677926810354286" lon="9.996430523028607"><ele>224.0</ele><time>2026-04-04T08:50:47.999Z</time></trkpt><trkpt lat="44.67784702168195" lon="9.996403047569023"><ele>224.0</ele><time>2026-04-04T08:50:48.999Z</time></trkpt><trkpt lat="44.67777950900283" lon="9.996394103919007"><ele>224.0</ele><time>2026-04-04T08:50:49.999Z</time></trkpt><trkpt lat="44.67766720281742" lon="9.996394967379134"><ele>224.00000000000003</ele><time>2026-04-04T08:50:51.999Z</time></trkpt><trkpt lat="44.6776029429805" lon="9.996407767729925"><ele>224.0</ele><time>2026-04-04T08:50:52.999Z</time></trkpt><trkpt lat="44.677535905644206" lon="9.996430602160318"><ele>226.00000000000003</ele><time>2026-04-04T08:50:53.999Z</time></trkpt><trkpt lat="44.677462370863736" lon="9.996457627821792"><ele>228.0</ele><time>2026-04-04T08:50:54.999Z</time></trkpt><trkpt lat="44.67738670269042" lon="9.99648751748978"><ele>230.0</ele><time>2026-04-04T08:50:55.999Z</time></trkpt><trkpt lat="44.67731433449946" lon="9.99650990173789"><ele>232.0</ele><time>2026-04-04T08:50:56.999Z</time></trkpt><trkpt lat="44.67722087254658" lon="9.99654547304921"><ele>234.00000000000003</ele><time>2026-04-04T08:50:57.999Z</time></trkpt><trkpt lat="44.67715302744456" lon="9.99656386392793"><ele>236.0</ele><time>2026-04-04T08:50:58.999Z</time></trkpt><trkpt lat="44.677070716086355" lon="9.996563225978479"><ele>236.0</ele><time>2026-04-04T08:51:01.999Z</time></trkpt><trkpt lat="44.6770057954825" lon="9.996564448443415"><ele>236.0</ele><time>2026-04-04T08:51:02.999Z</time></trkpt><trkpt lat="44.67693376667667" lon="9.996545251643054"><ele>236.0</ele><time>2026-04-04T08:51:03.999Z</time></trkpt><trkpt lat="44.676860307051605" lon="9.996511956275787"><ele>236.0</ele><time>2026-04-04T08:51:04.999Z</time></trkpt><trkpt lat="44.67678776856965" lon="9.99648621003352"><ele>236.0</ele><time>2026-04-04T08:51:05.999Z</time></trkpt><trkpt lat="44.67672110683494" lon="9.9964999403639"><ele>236.0</ele><time>2026-04-04T08:51:06.999Z</time></trkpt><trkpt lat="44.6766503536323" lon="9.996523641069711"><ele>236.0</ele><time>2026-04-04T08:51:07.999Z</time></trkpt><trkpt lat="44.676578610663334" lon="9.996547506964726"><ele>236.8</ele><time>2026-04-04T08:51:08.999Z</time></trkpt><trkpt lat="44.6765029563738" lon="9.996587053428676"><ele>237.60000000000002</ele><time>2026-04-04T08:51:09.999Z</time></trkpt><trkpt lat="44.676375381023675" lon="9.996678837201182"><ele>238.4</ele><time>2026-04-04T08:51:11.999Z</time></trkpt><trkpt lat="44.67629609623439" lon="9.99670323555363"><ele>239.2</ele><time>2026-04-04T08:51:12.999Z</time></trkpt><trkpt lat="44.676230404501375" lon="9.996712082643478"><ele>240.0</ele><time>2026-04-04T08:51:13.999Z</time></trkpt><trkpt lat="44.676112927952545" lon="9.996708730363185"><ele>239.0</ele><time>2026-04-04T08:51:15.999Z</time></trkpt><trkpt lat="44.67604079570457" lon="9.996720414607013"><ele>238.0</ele><time>2026-04-04T08:51:16.999Z</time></trkpt><trkpt lat="44.67594452599849" lon="9.996758805050638"><ele>237.0</ele><time>2026-04-04T08:51:18.999Z</time></trkpt><trkpt lat="44.675845219140626" lon="9.99677977091818"><ele>236.0</ele><time>2026-04-04T08:51:20.999Z</time></trkpt><trkpt lat="44.67576820401449" lon="9.996820147653713"><ele>235.0</ele><time>2026-04-04T08:51:22.999Z</time></trkpt><trkpt lat="44.67567937212081" lon="9.996769554895888"><ele>234.99999999999997</ele><time>2026-04-04T08:51:24.999Z</time></trkpt><trkpt lat="44.675597730437424" lon="9.996816141654321"><ele>235.0</ele><time>2026-04-04T08:51:26.999Z</time></trkpt><trkpt lat="44.6755686434146" lon="9.99690931893798"><ele>235.0</ele><time>2026-04-04T08:51:27.999Z</time></trkpt><trkpt lat="44.67554977941733" lon="9.997033431546233"><ele>235.0</ele><time>2026-04-04T08:51:28.998Z</time></trkpt><trkpt lat="44.675520951965964" lon="9.99714745145648"><ele>234.99999999999997</ele><time>2026-04-04T08:51:29.998Z</time></trkpt><trkpt lat="44.675505122872416" lon="9.997260202847963"><ele>235.0</ele><time>2026-04-04T08:51:30.998Z</time></trkpt><trkpt lat="44.67547672870247" lon="9.997342021954424"><ele>234.99999999999997</ele><time>2026-04-04T08:51:31.998Z</time></trkpt><trkpt lat="44.6753798839546" lon="9.99738562906496"><ele>235.0</ele><time>2026-04-04T08:51:33.998Z</time></trkpt><trkpt lat="44.67530674727029" lon="9.997393301402576"><ele>235.0</ele><time>2026-04-04T08:51:35.998Z</time></trkpt><trkpt lat="44.67524382518262" lon="9.997396109597446"><ele>235.0</ele><time>2026-04-04T08:51:36.998Z</time></trkpt><trkpt lat="44.67515957755326" lon="9.997427586905856"><ele>234.99999999999997</ele><time>2026-04-04T08:51:37.998Z</time></trkpt><trkpt lat="44.67505098200775" lon="9.997497885506744"><ele>235.0</ele><time>2026-04-04T08:51:39.998Z</time></trkpt><trkpt lat="44.674942676133334" lon="9.99745249657458"><ele>236.16666666666666</ele><time>2026-04-04T08:51:41.998Z</time></trkpt><trkpt lat="44.674872836889946" lon="9.997416662403294"><ele>237.33333333333331</ele><time>2026-04-04T08:51:42.998Z</time></trkpt><trkpt lat="44.674806593865796" lon="9.997436639604572"><ele>238.5</ele><time>2026-04-04T08:51:43.998Z</time></trkpt><trkpt lat="44.67475025252779" lon="9.997498625847157"><ele>239.66666666666669</ele><time>2026-04-04T08:51:44.998Z</time></trkpt><trkpt lat="44.674697872943895" lon="9.997567414215878"><ele>240.83333333333334</ele><time>2026-04-04T08:51:45.998Z</time></trkpt><trkpt lat="44.67462397136009" lon="9.9976584073625"><ele>242.0</ele><time>2026-04-04T08:51:46.998Z</time></trkpt><trkpt lat="44.674556495421676" lon="9.997761638918673"><ele>242.00000000000003</ele><time>2026-04-04T08:51:47.998Z</time></trkpt><trkpt lat="44.67448508374219" lon="9.997831679474992"><ele>242.0</ele><time>2026-04-04T08:51:48.998Z</time></trkpt><trkpt lat="44.674427746608266" lon="9.99789130931472"><ele>242.0</ele><time>2026-04-04T08:51:49.998Z</time></trkpt><trkpt lat="44.67436408953508" lon="9.997932958166265"><ele>242.0</ele><time>2026-04-04T08:51:50.998Z</time></trkpt><trkpt lat="44.67427363381101" lon="9.997991140441332"><ele>242.00000000000003</ele><time>2026-04-04T08:51:52.998Z</time></trkpt><trkpt lat="44.67423278316698" lon="9.99805911160424"><ele>242.0</ele><time>2026-04-04T08:51:54.998Z</time></trkpt><trkpt lat="44.67419887446282" lon="9.998203427294746"><ele>245.83333333333334</ele><time>2026-04-04T08:51:57.998Z</time></trkpt><trkpt lat="44.67417428769226" lon="9.998292404408614"><ele>249.66666666666669</ele><time>2026-04-04T08:51:58.998Z</time></trkpt><trkpt lat="44.67416242466841" lon="9.998405921792031"><ele>253.5</ele><time>2026-04-04T08:51:59.998Z</time></trkpt><trkpt lat="44.67415483784044" lon="9.99849578450971"><ele>257.3333333333333</ele><time>2026-04-04T08:52:00.998Z</time></trkpt><trkpt lat="44.67410678498106" lon="9.998620062047646"><ele>261.16666666666663</ele><time>2026-04-04T08:52:02.998Z</time></trkpt><trkpt lat="44.67403430655484" lon="9.998717079668678"><ele>265.0</ele><time>2026-04-04T08:52:04.998Z</time></trkpt><trkpt lat="44.67398470251821" lon="9.99881899001618"><ele>265.16666666666663</ele><time>2026-04-04T08:52:12Z</time></trkpt><trkpt lat="44.67393499270138" lon="9.998962989757635"><ele>265.3333333333333</ele><time>2026-04-04T08:52:15Z</time></trkpt><trkpt lat="44.67387290225219" lon="9.99906019741977"><ele>265.5</ele><time>2026-04-04T08:52:17Z</time></trkpt><trkpt lat="44.67381243704054" lon="9.999128370634793"><ele>265.6666666666667</ele><time>2026-04-04T08:52:18Z</time></trkpt><trkpt lat="44.67373956786187" lon="9.999177331855515"><ele>265.83333333333337</ele><time>2026-04-04T08:52:19Z</time></trkpt><trkpt lat="44.67367959578247" lon="9.9992061143657"><ele>266.0</ele><time>2026-04-04T08:52:20Z</time></trkpt><trkpt lat="44.673601315060154" lon="9.99920322933893"><ele>267.83333333333337</ele><time>2026-04-04T08:52:21Z</time></trkpt><trkpt lat="44.67352755341341" lon="9.999200909481413"><ele>269.6666666666667</ele><time>2026-04-04T08:52:22Z</time></trkpt><trkpt lat="44.67344017464206" lon="9.99920703407538"><ele>271.5</ele><time>2026-04-04T08:52:23Z</time></trkpt><trkpt lat="44.6733729671964" lon="9.999222158915762"><ele>273.3333333333333</ele><time>2026-04-04T08:52:24Z</time></trkpt><trkpt lat="44.673244457261006" lon="9.99922822310723"><ele>275.16666666666663</ele><time>2026-04-04T08:52:26Z</time></trkpt><trkpt lat="44.673172734458326" lon="9.999215181634844"><ele>277.0</ele><time>2026-04-04T08:52:37Z</time></trkpt><trkpt lat="44.67315915519409" lon="9.999106877465074"><ele>277.0</ele><time>2026-04-04T08:52:43Z</time></trkpt><trkpt lat="44.673154253690974" lon="9.999010089065433"><ele>277.0</ele><time>2026-04-04T08:52:45Z</time></trkpt><trkpt lat="44.67314837427665" lon="9.998902327123972"><ele>277.0</ele><time>2026-04-04T08:52:47Z</time></trkpt><trkpt lat="44.673200170353326" lon="9.99879334957913"><ele>277.0</ele><time>2026-04-04T08:52:48.999Z</time></trkpt><trkpt lat="44.67327645411814" lon="9.998680931220697"><ele>277.0</ele><time>2026-04-04T08:52:50.999Z</time></trkpt><trkpt lat="44.673387568848106" lon="9.998606931036663"><ele>277.0</ele><time>2026-04-04T08:52:52.999Z</time></trkpt><trkpt lat="44.673486583666175" lon="9.998576661689027"><ele>277.0</ele><time>2026-04-04T08:52:54.999Z</time></trkpt><trkpt lat="44.67348886432344" lon="9.998486886202329"><ele>277.0</ele><time>2026-04-04T08:52:55.999Z</time></trkpt><trkpt lat="44.673411514646915" lon="9.998359807527432"><ele>277.0</ele><time>2026-04-04T08:52:57.999Z</time></trkpt><trkpt lat="44.67346722148972" lon="9.998234826885643"><ele>277.0</ele><time>2026-04-04T08:52:59.999Z</time></trkpt><trkpt lat="44.6735030673957" lon="9.998158857018144"><ele>280.5</ele><time>2026-04-04T08:53:00.999Z</time></trkpt><trkpt lat="44.673533578825634" lon="9.998063518851993"><ele>284.0</ele><time>2026-04-04T08:53:01.999Z</time></trkpt><trkpt lat="44.67353924797678" lon="9.99795343455443"><ele>287.5</ele><time>2026-04-04T08:53:03.999Z</time></trkpt><trkpt lat="44.67348728041343" lon="9.997801379596629"><ele>291.0</ele><time>2026-04-04T08:53:05.999Z</time></trkpt><trkpt lat="44.673430345033715" lon="9.997711638050086"><ele>294.5</ele><time>2026-04-04T08:53:07.999Z</time></trkpt><trkpt lat="44.67341457102616" lon="9.997621497215011"><ele>298.0</ele><time>2026-04-04T08:53:46.998Z</time></trkpt><trkpt lat="44.673414783707585" lon="9.997531886762982"><ele>299.66666666666663</ele><time>2026-04-04T08:53:48.998Z</time></trkpt><trkpt lat="44.67341138988467" lon="9.9974234840634"><ele>301.3333333333333</ele><time>2026-04-04T08:53:50.998Z</time></trkpt><trkpt lat="44.673374846911045" lon="9.99734796557562"><ele>303.0</ele><time>2026-04-04T08:53:51.998Z</time></trkpt><trkpt lat="44.6732968959697" lon="9.997232807592665"><ele>304.6666666666667</ele><time>2026-04-04T08:53:53.998Z</time></trkpt><trkpt lat="44.67325055830076" lon="9.997111490840318"><ele>306.33333333333337</ele><time>2026-04-04T08:53:55.998Z</time></trkpt><trkpt lat="44.673204650951455" lon="9.997031486154324"><ele>308.0</ele><time>2026-04-04T08:53:57.998Z</time></trkpt><trkpt lat="44.67318191862705" lon="9.996932608472262"><ele>308.0</ele><time>2026-04-04T08:53:59.998Z</time></trkpt><trkpt lat="44.673137313822224" lon="9.996870055397764"><ele>308.0</ele><time>2026-04-04T08:54:22Z</time></trkpt><trkpt lat="44.673109857613525" lon="9.996786056867403"><ele>308.0</ele><time>2026-04-04T08:54:35Z</time></trkpt><trkpt lat="44.67304638777336" lon="9.996698228494417"><ele>308.0</ele><time>2026-04-04T08:54:38Z</time></trkpt><trkpt lat="44.672991991822016" lon="9.996595580795145"><ele>308.0</ele><time>2026-04-04T08:54:42Z</time></trkpt><trkpt lat="44.6729266912377" lon="9.996538313112529"><ele>308.0</ele><time>2026-04-04T08:54:46Z</time></trkpt><trkpt lat="44.6728658109785" lon="9.996475532574102"><ele>308.42857142857144</ele><time>2026-04-04T08:54:47Z</time></trkpt><trkpt lat="44.672808675334764" lon="9.996433152141464"><ele>308.8571428571429</ele><time>2026-04-04T08:54:48Z</time></trkpt><trkpt lat="44.6727567292343" lon="9.996381653086571"><ele>309.2857142857143</ele><time>2026-04-04T08:54:54.999Z</time></trkpt><trkpt lat="44.6727092565396" lon="9.996323351128625"><ele>309.7142857142857</ele><time>2026-04-04T08:54:57.999Z</time></trkpt><trkpt lat="44.672662203245004" lon="9.996245252527446"><ele>310.14285714285717</ele><time>2026-04-04T08:55:59.998Z</time></trkpt><trkpt lat="44.67260652991567" lon="9.996149060656364"><ele>310.57142857142856</ele><time>2026-04-04T08:56:54Z</time></trkpt><trkpt lat="44.672641828517136" lon="9.996046772494356"><ele>311.0</ele><time>2026-04-04T08:56:55.999Z</time></trkpt><trkpt lat="44.67268742738134" lon="9.99595951106829"><ele>311.0</ele><time>2026-04-04T08:56:56.999Z</time></trkpt><trkpt lat="44.67279072441428" lon="9.99589075249124"><ele>311.0</ele><time>2026-04-04T08:56:58.999Z</time></trkpt><trkpt lat="44.672816476572905" lon="9.995761796498504"><ele>311.0</ele><time>2026-04-04T08:57:01.999Z</time></trkpt><trkpt lat="44.67285993458434" lon="9.995689513243248"><ele>311.0</ele><time>2026-04-04T08:57:05.999Z</time></trkpt><trkpt lat="44.67292401161365" lon="9.995729241366295"><ele>311.0</ele><time>2026-04-04T08:57:09.999Z</time></trkpt><trkpt lat="44.67300754101108" lon="9.995833173870713"><ele>311.0</ele><time>2026-04-04T08:57:11.999Z</time></trkpt><trkpt lat="44.67307095176586" lon="9.995899427056422"><ele>311.0</ele><time>2026-04-04T08:57:12.999Z</time></trkpt><trkpt lat="44.67316100936802" lon="9.995874875965258"><ele>311.0</ele><time>2026-04-04T08:57:14.999Z</time></trkpt><trkpt lat="44.67322445056067" lon="9.995835794118062"><ele>311.0</ele><time>2026-04-04T08:57:15.999Z</time></trkpt><trkpt lat="44.673292279815406" lon="9.995784961785048"><ele>311.0</ele><time>2026-04-04T08:57:16.999Z</time></trkpt><trkpt lat="44.67339461220595" lon="9.995700628163176"><ele>311.0</ele><time>2026-04-04T08:57:18.999Z</time></trkpt><trkpt lat="44.673439630106905" lon="9.995606910904625"><ele>312.5</ele><time>2026-04-04T08:57:20.999Z</time></trkpt><trkpt lat="44.67340241135689" lon="9.995460409612402"><ele>314.0</ele><time>2026-04-04T08:57:22.999Z</time></trkpt><trkpt lat="44.67337307269031" lon="9.995338822153348"><ele>315.5</ele><time>2026-04-04T08:57:23.999Z</time></trkpt><trkpt lat="44.67334127126062" lon="9.995224111169062"><ele>317.0</ele><time>2026-04-04T08:57:24.999Z</time></trkpt><trkpt lat="44.67332849381843" lon="9.995109080616977"><ele>318.5</ele><time>2026-04-04T08:57:25.999Z</time></trkpt><trkpt lat="44.67331546256081" lon="9.995016625192722"><ele>320.0</ele><time>2026-04-04T08:57:26.999Z</time></trkpt><trkpt lat="44.67331501880357" lon="9.99487246020795"><ele>322.8</ele><time>2026-04-04T08:57:28.999Z</time></trkpt><trkpt lat="44.673355811531366" lon="9.994734882163842"><ele>325.6</ele><time>2026-04-04T08:57:30.999Z</time></trkpt><trkpt lat="44.67338142570134" lon="9.994652941483428"><ele>328.4</ele><time>2026-04-04T08:57:31.999Z</time></trkpt><trkpt lat="44.67344536604378" lon="9.994503498169571"><ele>331.2</ele><time>2026-04-04T08:57:33.999Z</time></trkpt><trkpt lat="44.673477510961014" lon="9.994394548301976"><ele>334.0</ele><time>2026-04-04T08:57:34.999Z</time></trkpt><trkpt lat="44.67352336037843" lon="9.994283759280199"><ele>334.0</ele><time>2026-04-04T08:57:35.999Z</time></trkpt><trkpt lat="44.673558878051956" lon="9.994187522510064"><ele>334.0</ele><time>2026-04-04T08:57:36.999Z</time></trkpt><trkpt lat="44.67354691616865" lon="9.994042977230729"><ele>334.0</ele><time>2026-04-04T08:57:38.999Z</time></trkpt><trkpt lat="44.6735353987414" lon="9.993858048396746"><ele>334.0</ele><time>2026-04-04T08:57:40.999Z</time></trkpt><trkpt lat="44.673529018638256" lon="9.993751150644961"><ele>334.0</ele><time>2026-04-04T08:57:41.998Z</time></trkpt><trkpt lat="44.67352244839639" lon="9.993653610306291"><ele>337.0</ele><time>2026-04-04T08:57:42.998Z</time></trkpt><trkpt lat="44.673533241389684" lon="9.993565538247354"><ele>340.0</ele><time>2026-04-04T08:57:43.998Z</time></trkpt><trkpt lat="44.673527362125405" lon="9.993391866764064"><ele>343.0</ele><time>2026-04-04T08:57:45.998Z</time></trkpt><trkpt lat="44.67345079871322" lon="9.993290504254377"><ele>346.0</ele><time>2026-04-04T08:57:47.998Z</time></trkpt><trkpt lat="44.67335395580823" lon="9.993259621040206"><ele>349.0</ele><time>2026-04-04T08:57:49.998Z</time></trkpt><trkpt lat="44.67326646215768" lon="9.99328242466979"><ele>352.0</ele><time>2026-04-04T08:57:51.998Z</time></trkpt><trkpt lat="44.67320477954123" lon="9.993309761497436"><ele>355.0</ele><time>2026-04-04T08:57:52.998Z</time></trkpt><trkpt lat="44.673072866780466" lon="9.99329473269961"><ele>358.0</ele><time>2026-04-04T08:57:54.998Z</time></trkpt><trkpt lat="44.672996248642626" lon="9.99328354761677"><ele>361.0</ele><time>2026-04-04T08:57:55.998Z</time></trkpt><trkpt lat="44.6729176053794" lon="9.993287414257193"><ele>364.0</ele><time>2026-04-04T08:57:56.998Z</time></trkpt><trkpt lat="44.67280770063902" lon="9.993269241050509"><ele>364.66666666666663</ele><time>2026-04-04T08:57:58.998Z</time></trkpt><trkpt lat="44.67272786274869" lon="9.993277130426858"><ele>365.3333333333333</ele><time>2026-04-04T08:58:00.998Z</time></trkpt><trkpt lat="44.67268649313204" lon="9.993351864302852"><ele>366.0</ele><time>2026-04-04T08:58:10.998Z</time></trkpt><trkpt lat="44.67268101225438" lon="9.993459182531979"><ele>366.6666666666667</ele><time>2026-04-04T08:58:19.998Z</time></trkpt><trkpt lat="44.672594659856145" lon="9.993454320054692"><ele>367.33333333333337</ele><time>2026-04-04T08:58:24.998Z</time></trkpt><trkpt lat="44.67252616353417" lon="9.993401491065027"><ele>368.0</ele><time>2026-04-04T08:58:26.997Z</time></trkpt><trkpt lat="44.672445547556585" lon="9.993367907906862"><ele>368.0</ele><time>2026-04-04T08:58:29Z</time></trkpt><trkpt lat="44.672383469481055" lon="9.99340401394262"><ele>368.0</ele><time>2026-04-04T08:58:31Z</time></trkpt><trkpt lat="44.672267981697104" lon="9.993466854298894"><ele>368.0</ele><time>2026-04-04T08:58:33Z</time></trkpt><trkpt lat="44.67222875154652" lon="9.993552575030819"><ele>368.0</ele><time>2026-04-04T08:58:34Z</time></trkpt><trkpt lat="44.672213111094194" lon="9.99364926381857"><ele>368.0</ele><time>2026-04-04T08:58:35Z</time></trkpt><trkpt lat="44.67216681305192" lon="9.993811795799546"><ele>368.0</ele><time>2026-04-04T08:58:37Z</time></trkpt><trkpt lat="44.67212470300071" lon="9.993889549056147"><ele>368.0</ele><time>2026-04-04T08:58:38Z</time></trkpt><trkpt lat="44.67206326564131" lon="9.99392679243323"><ele>368.0</ele><time>2026-04-04T08:58:39Z</time></trkpt><trkpt lat="44.67201145665839" lon="9.993992224712247"><ele>368.0</ele><time>2026-04-04T08:58:40Z</time></trkpt><trkpt lat="44.67194522192842" lon="9.99413780083517"><ele>368.0</ele><time>2026-04-04T08:58:42Z</time></trkpt><trkpt lat="44.67184350741542" lon="9.994208530976124"><ele>368.0</ele><time>2026-04-04T08:58:44Z</time></trkpt><trkpt lat="44.67176320717231" lon="9.994232192499448"><ele>369.83333333333337</ele><time>2026-04-04T08:58:45Z</time></trkpt><trkpt lat="44.67169682885559" lon="9.994271123343951"><ele>371.6666666666667</ele><time>2026-04-04T08:58:46Z</time></trkpt><trkpt lat="44.671641951374944" lon="9.994424860621598"><ele>373.5</ele><time>2026-04-04T08:58:48Z</time></trkpt><trkpt lat="44.67161661914296" lon="9.994527794402043"><ele>375.3333333333333</ele><time>2026-04-04T08:58:49Z</time></trkpt><trkpt lat="44.671564389025086" lon="9.994607996237022"><ele>377.16666666666663</ele><time>2026-04-04T08:58:50Z</time></trkpt><trkpt lat="44.671513370832315" lon="9.994728645570529"><ele>379.0</ele><time>2026-04-04T08:58:51Z</time></trkpt><trkpt lat="44.67146677107036" lon="9.994849528494537"><ele>379.0</ele><time>2026-04-04T08:58:52Z</time></trkpt><trkpt lat="44.67142195680796" lon="9.994946576383814"><ele>379.0</ele><time>2026-04-04T08:58:53Z</time></trkpt><trkpt lat="44.67136221767069" lon="9.995042057229178"><ele>379.0</ele><time>2026-04-04T08:58:54Z</time></trkpt><trkpt lat="44.671320735680034" lon="9.995145010561178"><ele>379.0</ele><time>2026-04-04T08:58:55Z</time></trkpt><trkpt lat="44.67128505855285" lon="9.99522102171584"><ele>379.0</ele><time>2026-04-04T08:58:56Z</time></trkpt><trkpt lat="44.671233872247484" lon="9.995295957865192"><ele>379.0</ele><time>2026-04-04T08:58:57Z</time></trkpt><trkpt lat="44.67116174214928" lon="9.995346474665173"><ele>377.66666666666663</ele><time>2026-04-04T08:58:59Z</time></trkpt><trkpt lat="44.67108759443946" lon="9.995213217343315"><ele>376.3333333333333</ele><time>2026-04-04T08:59:01Z</time></trkpt><trkpt lat="44.67103545166599" lon="9.995138385838263"><ele>375.0</ele><time>2026-04-04T08:59:01.999Z</time></trkpt><trkpt lat="44.67097085287792" lon="9.995063836333383"><ele>373.6666666666667</ele><time>2026-04-04T08:59:02.999Z</time></trkpt><trkpt lat="44.67090943202215" lon="9.995002364158674"><ele>372.33333333333337</ele><time>2026-04-04T08:59:03.999Z</time></trkpt><trkpt lat="44.67085397721413" lon="9.994953695045162"><ele>371.0</ele><time>2026-04-04T08:59:04.999Z</time></trkpt><trkpt lat="44.670781575216424" lon="9.994918200006854"><ele>374.83333333333337</ele><time>2026-04-04T08:59:05.999Z</time></trkpt><trkpt lat="44.67070395228658" lon="9.994893880917306"><ele>378.6666666666667</ele><time>2026-04-04T08:59:06.999Z</time></trkpt><trkpt lat="44.670623602458306" lon="9.994850753406315"><ele>382.5</ele><time>2026-04-04T08:59:07.999Z</time></trkpt><trkpt lat="44.670533139239545" lon="9.994797344120826"><ele>386.33333333333337</ele><time>2026-04-04T08:59:08.999Z</time></trkpt><trkpt lat="44.67046084478037" lon="9.994755123213091"><ele>390.1666666666667</ele><time>2026-04-04T08:59:09.999Z</time></trkpt><trkpt lat="44.67041347484478" lon="9.994696166792082"><ele>394.0</ele><time>2026-04-04T08:59:10.999Z</time></trkpt><trkpt lat="44.67036520097075" lon="9.99462611324378"><ele>394.00000000000006</ele><time>2026-04-04T08:59:11.999Z</time></trkpt><trkpt lat="44.670287271313875" lon="9.994585741955566"><ele>394.0</ele><time>2026-04-04T08:59:14.999Z</time></trkpt><trkpt lat="44.67022113769903" lon="9.994548191287377"><ele>394.0</ele><time>2026-04-04T08:59:18.999Z</time></trkpt><trkpt lat="44.670160407639585" lon="9.99461801191062"><ele>394.0</ele><time>2026-04-04T08:59:21.999Z</time></trkpt><trkpt lat="44.670080677392725" lon="9.994674426122653"><ele>394.00000000000006</ele><time>2026-04-04T08:59:24.999Z</time></trkpt><trkpt lat="44.670008516745156" lon="9.994670389292994"><ele>394.0</ele><time>2026-04-04T08:59:26.999Z</time></trkpt><trkpt lat="44.66995078513565" lon="9.994625265103815"><ele>392.6</ele><time>2026-04-04T08:59:28.999Z</time></trkpt><trkpt lat="44.66989845479755" lon="9.994525319662111"><ele>391.2</ele><time>2026-04-04T08:59:34.999Z</time></trkpt><trkpt lat="44.66980798360916" lon="9.994495385277379"><ele>389.8</ele><time>2026-04-04T08:59:36.999Z</time></trkpt><trkpt lat="44.66971981035918" lon="9.994524141879234"><ele>388.40000000000003</ele><time>2026-04-04T08:59:38.999Z</time></trkpt><trkpt lat="44.66962894015442" lon="9.994590594633573"><ele>387.0</ele><time>2026-04-04T08:59:40.999Z</time></trkpt><trkpt lat="44.669568828106584" lon="9.994655775016437"><ele>387.0</ele><time>2026-04-04T08:59:41.999Z</time></trkpt><trkpt lat="44.66953596801151" lon="9.994769799034163"><ele>387.0</ele><time>2026-04-04T08:59:43.999Z</time></trkpt><trkpt lat="44.66953581451534" lon="9.994875855271522"><ele>387.0</ele><time>2026-04-04T08:59:45.999Z</time></trkpt><trkpt lat="44.66952351491796" lon="9.994988952140057"><ele>387.0</ele><time>2026-04-04T08:59:47.998Z</time></trkpt><trkpt lat="44.669471676877734" lon="9.99509009660911"><ele>387.0</ele><time>2026-04-04T08:59:49.998Z</time></trkpt><trkpt lat="44.66939117293582" lon="9.995153478861873"><ele>387.0</ele><time>2026-04-04T08:59:51.998Z</time></trkpt><trkpt lat="44.66934358342524" lon="9.995216109701785"><ele>383.0</ele><time>2026-04-04T08:59:52.998Z</time></trkpt><trkpt lat="44.66928497066157" lon="9.99530080952585"><ele>379.0</ele><time>2026-04-04T08:59:53.998Z</time></trkpt><trkpt lat="44.66921317630883" lon="9.995436768034725"><ele>375.0</ele><time>2026-04-04T08:59:55.998Z</time></trkpt><trkpt lat="44.66915920154591" lon="9.995507532193178"><ele>371.0</ele><time>2026-04-04T08:59:56.998Z</time></trkpt><trkpt lat="44.6691084228549" lon="9.995583715195954"><ele>367.0</ele><time>2026-04-04T08:59:57.998Z</time></trkpt><trkpt lat="44.66903599491494" lon="9.99572511002658"><ele>364.0</ele><time>2026-04-04T08:59:59.998Z</time></trkpt><trkpt lat="44.66897169247265" lon="9.995867230793207"><ele>361.0</ele><time>2026-04-04T09:00:01.998Z</time></trkpt><trkpt lat="44.66893437300767" lon="9.996005511543462"><ele>358.0</ele><time>2026-04-04T09:00:03.998Z</time></trkpt><trkpt lat="44.66894980974395" lon="9.996172219113566"><ele>355.0</ele><time>2026-04-04T09:00:05.998Z</time></trkpt><trkpt lat="44.66893933848409" lon="9.996315134882641"><ele>352.0</ele><time>2026-04-04T09:00:07.998Z</time></trkpt><trkpt lat="44.66892094888242" lon="9.99643421923396"><ele>352.0</ele><time>2026-04-04T09:00:09.998Z</time></trkpt><trkpt lat="44.66887244050145" lon="9.996524645234608"><ele>352.0</ele><time>2026-04-04T09:00:12.998Z</time></trkpt><trkpt lat="44.66879145000929" lon="9.996620584852682"><ele>352.0</ele><time>2026-04-04T09:00:18.998Z</time></trkpt><trkpt lat="44.66874137667556" lon="9.996676618208978"><ele>352.0</ele><time>2026-04-04T09:00:19.998Z</time></trkpt><trkpt lat="44.66867950989512" lon="9.996755893727531"><ele>352.0</ele><time>2026-04-04T09:00:21.998Z</time></trkpt><trkpt lat="44.668659600818735" lon="9.996868921997201"><ele>352.0</ele><time>2026-04-04T09:00:23.998Z</time></trkpt><trkpt lat="44.668657737961745" lon="9.997022525418412"><ele>350.20000000000005</ele><time>2026-04-04T09:00:25.998Z</time></trkpt><trkpt lat="44.66860594497152" lon="9.997097144586768"><ele>348.4</ele><time>2026-04-04T09:00:34Z</time></trkpt><trkpt lat="44.66849808071122" lon="9.99704638075906"><ele>346.6</ele><time>2026-04-04T09:00:36Z</time></trkpt><trkpt lat="44.668408819766505" lon="9.997021699017484"><ele>344.79999999999995</ele><time>2026-04-04T09:00:37Z</time></trkpt><trkpt lat="44.6683193586213" lon="9.996995781901235"><ele>343.0</ele><time>2026-04-04T09:00:38Z</time></trkpt><trkpt lat="44.668230716407024" lon="9.996995253271988"><ele>343.0</ele><time>2026-04-04T09:00:40Z</time></trkpt><trkpt lat="44.668158773807974" lon="9.996972469751558"><ele>343.0</ele><time>2026-04-04T09:00:43Z</time></trkpt><trkpt lat="44.668115241977226" lon="9.996854847175687"><ele>343.0</ele><time>2026-04-04T09:00:45Z</time></trkpt><trkpt lat="44.66810196882211" lon="9.996756271274945"><ele>343.0</ele><time>2026-04-04T09:00:46Z</time></trkpt><trkpt lat="44.66810215083672" lon="9.996626518133771"><ele>343.0</ele><time>2026-04-04T09:00:47Z</time></trkpt><trkpt lat="44.66811496305354" lon="9.996459117636396"><ele>345.0</ele><time>2026-04-04T09:00:48Z</time></trkpt><trkpt lat="44.66814165274033" lon="9.996318868571693"><ele>347.0</ele><time>2026-04-04T09:00:49Z</time></trkpt><trkpt lat="44.66814283443702" lon="9.996189614428923"><ele>349.0</ele><time>2026-04-04T09:00:50Z</time></trkpt><trkpt lat="44.66808593680726" lon="9.996080858682515"><ele>351.0</ele><time>2026-04-04T09:00:51Z</time></trkpt><trkpt lat="44.668005553154536" lon="9.995919015866749"><ele>353.0</ele><time>2026-04-04T09:00:52Z</time></trkpt><trkpt lat="44.66795751677121" lon="9.99571661895811"><ele>354.6666666666667</ele><time>2026-04-04T09:00:53Z</time></trkpt><trkpt lat="44.66791523558698" lon="9.995496580831746"><ele>356.3333333333333</ele><time>2026-04-04T09:00:54Z</time></trkpt><trkpt lat="44.6678539250178" lon="9.995270949693072"><ele>358.0</ele><time>2026-04-04T09:00:55Z</time></trkpt><trkpt lat="44.66780470598559" lon="9.995034632732269"><ele>357.0</ele><time>2026-04-04T09:00:56Z</time></trkpt><trkpt lat="44.6677576454951" lon="9.994833098093672"><ele>356.0</ele><time>2026-04-04T09:00:57Z</time></trkpt><trkpt lat="44.66771858441503" lon="9.99465967101261"><ele>355.0</ele><time>2026-04-04T09:00:58Z</time></trkpt><trkpt lat="44.66768186681845" lon="9.994511009489889"><ele>354.0</ele><time>2026-04-04T09:00:59Z</time></trkpt><trkpt lat="44.66763941791358" lon="9.994396714053496"><ele>354.0</ele><time>2026-04-04T09:01:00Z</time></trkpt><trkpt lat="44.66759070354256" lon="9.994303754308918"><ele>354.0</ele><time>2026-04-04T09:01:01Z</time></trkpt><trkpt lat="44.66748933169526" lon="9.994281243414012"><ele>354.0</ele><time>2026-04-04T09:01:02Z</time></trkpt><trkpt lat="44.66736609647254" lon="9.994344176174302"><ele>354.0</ele><time>2026-04-04T09:01:03Z</time></trkpt><trkpt lat="44.667254349984184" lon="9.994413471843648"><ele>354.0</ele><time>2026-04-04T09:01:04Z</time></trkpt><trkpt lat="44.6671374008476" lon="9.994482728296864"><ele>354.0</ele><time>2026-04-04T09:01:05Z</time></trkpt><trkpt lat="44.66701783138902" lon="9.994544795303856"><ele>354.0</ele><time>2026-04-04T09:01:06Z</time></trkpt><trkpt lat="44.666894773748226" lon="9.99456734943913"><ele>354.0</ele><time>2026-04-04T09:01:07Z</time></trkpt><trkpt lat="44.66679492156707" lon="9.994555203931343"><ele>354.0</ele><time>2026-04-04T09:01:07.999Z</time></trkpt><trkpt lat="44.66669787594881" lon="9.994535890720341"><ele>356.2</ele><time>2026-04-04T09:01:08.999Z</time></trkpt><trkpt lat="44.66660248134733" lon="9.994507065387381"><ele>358.4</ele><time>2026-04-04T09:01:09.999Z</time></trkpt><trkpt lat="44.66650385691473" lon="9.994458143611546"><ele>360.6</ele><time>2026-04-04T09:01:10.999Z</time></trkpt><trkpt lat="44.66641320403172" lon="9.994421189887806"><ele>362.8</ele><time>2026-04-04T09:01:11.999Z</time></trkpt><trkpt lat="44.66631208898561" lon="9.99442510966147"><ele>365.0</ele><time>2026-04-04T09:01:12.999Z</time></trkpt><trkpt lat="44.66623438437919" lon="9.994503737409385"><ele>365.0</ele><time>2026-04-04T09:01:13.999Z</time></trkpt><trkpt lat="44.66619179336608" lon="9.994633645302779"><ele>365.0</ele><time>2026-04-04T09:01:14.999Z</time></trkpt><trkpt lat="44.66615683379984" lon="9.994725912103132"><ele>365.0</ele><time>2026-04-04T09:01:15.999Z</time></trkpt><trkpt lat="44.666075005697195" lon="9.99482483097821"><ele>365.0</ele><time>2026-04-04T09:01:17.999Z</time></trkpt><trkpt lat="44.66598227026316" lon="9.994787761762318"><ele>365.0</ele><time>2026-04-04T09:01:19.999Z</time></trkpt><trkpt lat="44.665884969808985" lon="9.99467352349848"><ele>368.4</ele><time>2026-04-04T09:01:21.999Z</time></trkpt><trkpt lat="44.665836198190284" lon="9.994597450269488"><ele>371.8</ele><time>2026-04-04T09:01:22.999Z</time></trkpt><trkpt lat="44.66578710329813" lon="9.99450649780512"><ele>375.20000000000005</ele><time>2026-04-04T09:01:23.999Z</time></trkpt><trkpt lat="44.66571058667398" lon="9.994457246040703"><ele>378.6</ele><time>2026-04-04T09:01:24.999Z</time></trkpt><trkpt lat="44.66562831820811" lon="9.994324199798868"><ele>382.0</ele><time>2026-04-04T09:01:26.999Z</time></trkpt><trkpt lat="44.665653436429665" lon="9.99415592899322"><ele>384.0</ele><time>2026-04-04T09:01:28.999Z</time></trkpt><trkpt lat="44.665700315927744" lon="9.994074823312895"><ele>386.0</ele><time>2026-04-04T09:01:29.999Z</time></trkpt><trkpt lat="44.66572009595589" lon="9.993977331380654"><ele>388.0</ele><time>2026-04-04T09:01:30.999Z</time></trkpt><trkpt lat="44.66571009494793" lon="9.993878841188494"><ele>390.0</ele><time>2026-04-04T09:01:31.999Z</time></trkpt><trkpt lat="44.66564684216175" lon="9.993828680811685"><ele>392.0</ele><time>2026-04-04T09:01:32.999Z</time></trkpt><trkpt lat="44.6656017689173" lon="9.993754322341019"><ele>394.0</ele><time>2026-04-04T09:01:33.999Z</time></trkpt><trkpt lat="44.665560566409276" lon="9.993672866240853"><ele>396.0</ele><time>2026-04-04T09:01:34.999Z</time></trkpt><trkpt lat="44.66553612015387" lon="9.993553439920413"><ele>396.0</ele><time>2026-04-04T09:01:35.999Z</time></trkpt><trkpt lat="44.66549397028652" lon="9.993446052346338"><ele>396.0</ele><time>2026-04-04T09:01:36.999Z</time></trkpt><trkpt lat="44.66546838584446" lon="9.993348228470184"><ele>396.0</ele><time>2026-04-04T09:01:37.999Z</time></trkpt><trkpt lat="44.66542921091342" lon="9.993212455533428"><ele>396.0</ele><time>2026-04-04T09:01:38.999Z</time></trkpt><trkpt lat="44.66539256696082" lon="9.993080735419015"><ele>396.0</ele><time>2026-04-04T09:01:39.999Z</time></trkpt><trkpt lat="44.66534854507275" lon="9.992993431885866"><ele>396.0</ele><time>2026-04-04T09:01:40.999Z</time></trkpt><trkpt lat="44.66529022892806" lon="9.992915281741622"><ele>398.1666666666667</ele><time>2026-04-04T09:01:41.999Z</time></trkpt><trkpt lat="44.66523128481058" lon="9.992822411774794"><ele>400.33333333333337</ele><time>2026-04-04T09:01:42.999Z</time></trkpt><trkpt lat="44.66517696458482" lon="9.99272529893903"><ele>402.5</ele><time>2026-04-04T09:01:43.999Z</time></trkpt><trkpt lat="44.6651154969301" lon="9.992675347262226"><ele>404.6666666666667</ele><time>2026-04-04T09:01:44.999Z</time></trkpt><trkpt lat="44.66500946544278" lon="9.992616440595773"><ele>406.83333333333337</ele><time>2026-04-04T09:01:46.999Z</time></trkpt><trkpt lat="44.66494969547093" lon="9.992586994173452"><ele>409.0</ele><time>2026-04-04T09:01:47.999Z</time></trkpt><trkpt lat="44.66485405648521" lon="9.99260318676789"><ele>409.00000000000006</ele><time>2026-04-04T09:01:48.999Z</time></trkpt><trkpt lat="44.664768087725065" lon="9.99261388827608"><ele>409.0</ele><time>2026-04-04T09:01:49.999Z</time></trkpt><trkpt lat="44.6646856332967" lon="9.992616872384971"><ele>409.0</ele><time>2026-04-04T09:01:50.999Z</time></trkpt><trkpt lat="44.66461247540666" lon="9.992606779880068"><ele>409.0</ele><time>2026-04-04T09:01:51.999Z</time></trkpt><trkpt lat="44.66453511458458" lon="9.992582290210946"><ele>409.00000000000006</ele><time>2026-04-04T09:01:52.999Z</time></trkpt><trkpt lat="44.66446767253633" lon="9.992548809726053"><ele>409.0</ele><time>2026-04-04T09:01:53.999Z</time></trkpt><trkpt lat="44.66439157313528" lon="9.992507521056398"><ele>410.83333333333337</ele><time>2026-04-04T09:01:54.998Z</time></trkpt><trkpt lat="44.664317456600344" lon="9.9924614880172"><ele>412.6666666666667</ele><time>2026-04-04T09:01:55.998Z</time></trkpt><trkpt lat="44.66424277846334" lon="9.992403055600406"><ele>414.5</ele><time>2026-04-04T09:01:56.998Z</time></trkpt><trkpt lat="44.66419076263185" lon="9.992342121535328"><ele>416.33333333333337</ele><time>2026-04-04T09:01:57.998Z</time></trkpt><trkpt lat="44.66414353304273" lon="9.992262867608542"><ele>418.1666666666667</ele><time>2026-04-04T09:01:58.998Z</time></trkpt><trkpt lat="44.66410699409337" lon="9.992159029697953"><ele>420.0</ele><time>2026-04-04T09:01:59.998Z</time></trkpt><trkpt lat="44.66408453615234" lon="9.992035323247537"><ele>420.0</ele><time>2026-04-04T09:02:00.998Z</time></trkpt><trkpt lat="44.664041794501024" lon="9.991938641460084"><ele>420.0</ele><time>2026-04-04T09:02:01.998Z</time></trkpt><trkpt lat="44.66399742030774" lon="9.991871403792908"><ele>420.0</ele><time>2026-04-04T09:02:02.998Z</time></trkpt><trkpt lat="44.66393963321457" lon="9.991803858734448"><ele>420.0</ele><time>2026-04-04T09:02:05.998Z</time></trkpt><trkpt lat="44.66397246469863" lon="9.991601742366003"><ele>420.0</ele><time>2026-04-04T09:02:08.998Z</time></trkpt><trkpt lat="44.663953605459255" lon="9.991513469343966"><ele>420.0</ele><time>2026-04-04T09:02:09.998Z</time></trkpt><trkpt lat="44.66395754344909" lon="9.99142081306432"><ele>419.1666666666667</ele><time>2026-04-04T09:02:10.998Z</time></trkpt><trkpt lat="44.66396117595686" lon="9.991320245412602"><ele>418.33333333333337</ele><time>2026-04-04T09:02:11.998Z</time></trkpt><trkpt lat="44.66394870446764" lon="9.991213722621199"><ele>417.5</ele><time>2026-04-04T09:02:12.998Z</time></trkpt><trkpt lat="44.66395221165355" lon="9.991095848725475"><ele>416.6666666666667</ele><time>2026-04-04T09:02:13.998Z</time></trkpt><trkpt lat="44.663911471891666" lon="9.990977378876456"><ele>415.83333333333337</ele><time>2026-04-04T09:02:14.998Z</time></trkpt><trkpt lat="44.663868176358136" lon="9.990850613863644"><ele>415.0</ele><time>2026-04-04T09:02:15.998Z</time></trkpt><trkpt lat="44.66383333658479" lon="9.9907246151062"><ele>413.6</ele><time>2026-04-04T09:02:16.998Z</time></trkpt><trkpt lat="44.66378938732251" lon="9.990605266510459"><ele>412.2</ele><time>2026-04-04T09:02:17.998Z</time></trkpt><trkpt lat="44.66376444767769" lon="9.990470537293932"><ele>410.79999999999995</ele><time>2026-04-04T09:02:18.998Z</time></trkpt><trkpt lat="44.66375477989059" lon="9.990344147606601"><ele>409.4</ele><time>2026-04-04T09:02:19.998Z</time></trkpt><trkpt lat="44.663714519236876" lon="9.990235735914816"><ele>408.0</ele><time>2026-04-04T09:02:20.998Z</time></trkpt><trkpt lat="44.66365381157916" lon="9.990143946023995"><ele>408.1666666666667</ele><time>2026-04-04T09:02:21.998Z</time></trkpt><trkpt lat="44.66357241359723" lon="9.990079034606588"><ele>408.33333333333337</ele><time>2026-04-04T09:02:22.998Z</time></trkpt><trkpt lat="44.6635367247274" lon="9.989961555465023"><ele>408.5</ele><time>2026-04-04T09:02:23.998Z</time></trkpt><trkpt lat="44.66353983239825" lon="9.98985288847937"><ele>408.6666666666667</ele><time>2026-04-04T09:02:24.998Z</time></trkpt><trkpt lat="44.66354793204516" lon="9.989748621249602"><ele>408.83333333333337</ele><time>2026-04-04T09:02:25.998Z</time></trkpt><trkpt lat="44.66356690275254" lon="9.989634862462887"><ele>409.0</ele><time>2026-04-04T09:02:26.998Z</time></trkpt><trkpt lat="44.6636223779527" lon="9.989519809375436"><ele>409.0</ele><time>2026-04-04T09:02:27.998Z</time></trkpt><trkpt lat="44.663686583038" lon="9.989407935318718"><ele>409.0</ele><time>2026-04-04T09:02:28.998Z</time></trkpt><trkpt lat="44.66375997223724" lon="9.989320789779981"><ele>409.0</ele><time>2026-04-04T09:02:29.998Z</time></trkpt><trkpt lat="44.663829128909256" lon="9.989272030724026"><ele>409.0</ele><time>2026-04-04T09:02:30.998Z</time></trkpt><trkpt lat="44.66391484141574" lon="9.989263568492722"><ele>409.0</ele><time>2026-04-04T09:02:31.998Z</time></trkpt><trkpt lat="44.66400078267445" lon="9.98922576249826"><ele>409.0</ele><time>2026-04-04T09:02:32.998Z</time></trkpt><trkpt lat="44.66409236856506" lon="9.989198191001824"><ele>409.0</ele><time>2026-04-04T09:02:33.998Z</time></trkpt><trkpt lat="44.664187354256796" lon="9.989175619056859"><ele>409.0</ele><time>2026-04-04T09:02:34.998Z</time></trkpt><trkpt lat="44.664283297721795" lon="9.989153227762685"><ele>409.0</ele><time>2026-04-04T09:02:35.998Z</time></trkpt><trkpt lat="44.66437576881752" lon="9.989130717185223"><ele>409.0</ele><time>2026-04-04T09:02:36.998Z</time></trkpt><trkpt lat="44.664472505063536" lon="9.989119060374628"><ele>409.83333333333337</ele><time>2026-04-04T09:02:37.998Z</time></trkpt><trkpt lat="44.664570682110984" lon="9.989147191249243"><ele>410.6666666666667</ele><time>2026-04-04T09:02:38.998Z</time></trkpt><trkpt lat="44.66467315435457" lon="9.989173018245706"><ele>411.5</ele><time>2026-04-04T09:02:40Z</time></trkpt><trkpt lat="44.66475121776831" lon="9.989245062195964"><ele>412.33333333333337</ele><time>2026-04-04T09:02:41Z</time></trkpt><trkpt lat="44.664824292198574" lon="9.989289319407082"><ele>413.1666666666667</ele><time>2026-04-04T09:02:42Z</time></trkpt><trkpt lat="44.664886421440706" lon="9.989338161755962"><ele>414.0</ele><time>2026-04-04T09:02:43Z</time></trkpt><trkpt lat="44.664960925730966" lon="9.989361229164551"><ele>414.0</ele><time>2026-04-04T09:02:44Z</time></trkpt><trkpt lat="44.66507939376401" lon="9.989356999689985"><ele>414.0</ele><time>2026-04-04T09:02:46Z</time></trkpt><trkpt lat="44.665137179346075" lon="9.989295997684062"><ele>414.0</ele><time>2026-04-04T09:02:47Z</time></trkpt><trkpt lat="44.66519615126888" lon="9.989242691524964"><ele>414.0</ele><time>2026-04-04T09:02:48Z</time></trkpt><trkpt lat="44.66526300641062" lon="9.98919411444916"><ele>414.0</ele><time>2026-04-04T09:02:49Z</time></trkpt><trkpt lat="44.665319180108476" lon="9.989131713042314"><ele>414.0</ele><time>2026-04-04T09:02:50Z</time></trkpt><trkpt lat="44.66539533348584" lon="9.98909560242209"><ele>416.0</ele><time>2026-04-04T09:02:51Z</time></trkpt><trkpt lat="44.66545466043968" lon="9.989035615912773"><ele>418.0</ele><time>2026-04-04T09:02:52Z</time></trkpt><trkpt lat="44.665520625346645" lon="9.988992657953402"><ele>420.0</ele><time>2026-04-04T09:02:53Z</time></trkpt><trkpt lat="44.665592913312025" lon="9.988945949033143"><ele>422.0</ele><time>2026-04-04T09:02:54Z</time></trkpt><trkpt lat="44.66564790021196" lon="9.988900088820118"><ele>424.0</ele><time>2026-04-04T09:02:55Z</time></trkpt><trkpt lat="44.66574383745177" lon="9.988768200400795"><ele>426.0</ele><time>2026-04-04T09:02:57Z</time></trkpt><trkpt lat="44.665788124432595" lon="9.988663854780556"><ele>426.0</ele><time>2026-04-04T09:02:58Z</time></trkpt><trkpt lat="44.665824991048545" lon="9.988560326329651"><ele>426.0</ele><time>2026-04-04T09:02:59Z</time></trkpt><trkpt lat="44.665843676596936" lon="9.988426253235003"><ele>426.0</ele><time>2026-04-04T09:03:00Z</time></trkpt><trkpt lat="44.665864898835316" lon="9.988305013351564"><ele>426.0</ele><time>2026-04-04T09:03:01Z</time></trkpt><trkpt lat="44.66588625656819" lon="9.988172292449615"><ele>426.0</ele><time>2026-04-04T09:03:02Z</time></trkpt><trkpt lat="44.66591270452336" lon="9.988030998886025"><ele>428.75</ele><time>2026-04-04T09:03:03Z</time></trkpt><trkpt lat="44.6659412184047" lon="9.98788390967662"><ele>431.5</ele><time>2026-04-04T09:03:04Z</time></trkpt><trkpt lat="44.665969489656476" lon="9.987728893936541"><ele>434.25</ele><time>2026-04-04T09:03:05Z</time></trkpt><trkpt lat="44.66599577484504" lon="9.987570488513517"><ele>437.0</ele><time>2026-04-04T09:03:06Z</time></trkpt><trkpt lat="44.66601830307433" lon="9.987415730923674"><ele>437.0</ele><time>2026-04-04T09:03:07Z</time></trkpt><trkpt lat="44.666052049872285" lon="9.987247516481364"><ele>437.0</ele><time>2026-04-04T09:03:08Z</time></trkpt><trkpt lat="44.666083585800564" lon="9.987060947231853"><ele>437.0</ele><time>2026-04-04T09:03:09Z</time></trkpt><trkpt lat="44.666131679419614" lon="9.98688976919334"><ele>437.0</ele><time>2026-04-04T09:03:10Z</time></trkpt><trkpt lat="44.6661673470931" lon="9.9867180945303"><ele>434.8</ele><time>2026-04-04T09:03:11Z</time></trkpt><trkpt lat="44.666185159861314" lon="9.986563246801236"><ele>432.6</ele><time>2026-04-04T09:03:12Z</time></trkpt><trkpt lat="44.66621423119034" lon="9.986428797038544"><ele>430.40000000000003</ele><time>2026-04-04T09:03:13Z</time></trkpt><trkpt lat="44.66625455527338" lon="9.986301854466381"><ele>428.20000000000005</ele><time>2026-04-04T09:03:14Z</time></trkpt><trkpt lat="44.66628571046559" lon="9.986153774423409"><ele>426.0</ele><time>2026-04-04T09:03:15Z</time></trkpt><trkpt lat="44.666308595403535" lon="9.985982469280337"><ele>426.25</ele><time>2026-04-04T09:03:15.999Z</time></trkpt><trkpt lat="44.66635854568365" lon="9.985792517071351"><ele>426.5</ele><time>2026-04-04T09:03:16.999Z</time></trkpt><trkpt lat="44.66638486996333" lon="9.985578837463795"><ele>426.75</ele><time>2026-04-04T09:03:17.999Z</time></trkpt><trkpt lat="44.66642094048754" lon="9.985398255556444"><ele>427.0</ele><time>2026-04-04T09:03:18.999Z</time></trkpt><trkpt lat="44.66644813499194" lon="9.985243146723649"><ele>427.0</ele><time>2026-04-04T09:03:19.999Z</time></trkpt><trkpt lat="44.66647047968464" lon="9.985106902740801"><ele>427.00000000000006</ele><time>2026-04-04T09:03:20.999Z</time></trkpt><trkpt lat="44.66651023076426" lon="9.984996659580599"><ele>427.00000000000006</ele><time>2026-04-04T09:03:21.999Z</time></trkpt><trkpt lat="44.666550060696515" lon="9.984905554765175"><ele>427.0</ele><time>2026-04-04T09:03:22.999Z</time></trkpt><trkpt lat="44.666612823544845" lon="9.984828373487709"><ele>427.0</ele><time>2026-04-04T09:03:23.999Z</time></trkpt><trkpt lat="44.66671350698758" lon="9.984780610594429"><ele>427.0</ele><time>2026-04-04T09:03:24.999Z</time></trkpt><trkpt lat="44.66681690444874" lon="9.984731658101024"><ele>427.00000000000006</ele><time>2026-04-04T09:03:25.999Z</time></trkpt><trkpt lat="44.666900184911356" lon="9.98466668305864"><ele>427.00000000000006</ele><time>2026-04-04T09:03:26.999Z</time></trkpt><trkpt lat="44.66695268011198" lon="9.984605692354123"><ele>427.0</ele><time>2026-04-04T09:03:27.999Z</time></trkpt><trkpt lat="44.66702154961469" lon="9.984509470588032"><ele>427.0</ele><time>2026-04-04T09:03:31.999Z</time></trkpt><trkpt lat="44.66711323835161" lon="9.984363426674056"><ele>428.0</ele><time>2026-04-04T09:03:33.999Z</time></trkpt><trkpt lat="44.66716561131955" lon="9.98425359045074"><ele>429.0</ele><time>2026-04-04T09:03:35.999Z</time></trkpt><trkpt lat="44.666942715865034" lon="9.983816876917212"><ele>425.0</ele><time>2026-04-04T09:03:36.999Z</time></trkpt><trkpt lat="44.666952244412165" lon="9.98368047403918"><ele>421.0</ele><time>2026-04-04T09:03:37.999Z</time></trkpt><trkpt lat="44.66697798223757" lon="9.983525410691268"><ele>417.0</ele><time>2026-04-04T09:03:38.999Z</time></trkpt><trkpt lat="44.66700144799653" lon="9.98338585355821"><ele>413.0</ele><time>2026-04-04T09:03:39.999Z</time></trkpt><trkpt lat="44.66701535431046" lon="9.983268043082425"><ele>409.0</ele><time>2026-04-04T09:03:40.999Z</time></trkpt><trkpt lat="44.667040185701694" lon="9.983152582136883"><ele>408.83333333333337</ele><time>2026-04-04T09:03:41.999Z</time></trkpt><trkpt lat="44.66705722660545" lon="9.983028654236113"><ele>408.6666666666667</ele><time>2026-04-04T09:03:42.999Z</time></trkpt><trkpt lat="44.66708203549897" lon="9.982922061356517"><ele>408.5</ele><time>2026-04-04T09:03:43.999Z</time></trkpt><trkpt lat="44.66709478943932" lon="9.982818503959313"><ele>408.33333333333337</ele><time>2026-04-04T09:03:44.999Z</time></trkpt><trkpt lat="44.6671040242774" lon="9.982696079288411"><ele>408.1666666666667</ele><time>2026-04-04T09:03:45.999Z</time></trkpt><trkpt lat="44.667121159650684" lon="9.982589663491087"><ele>408.0</ele><time>2026-04-04T09:03:46.999Z</time></trkpt><trkpt lat="44.66713948529375" lon="9.982493145092986"><ele>409.0</ele><time>2026-04-04T09:03:47.999Z</time></trkpt><trkpt lat="44.66715653519888" lon="9.982379136068358"><ele>410.0</ele><time>2026-04-04T09:03:48.999Z</time></trkpt><trkpt lat="44.66720381663951" lon="9.982234063919908"><ele>411.0</ele><time>2026-04-04T09:03:50.999Z</time></trkpt><trkpt lat="44.66727225777469" lon="9.982128478746024"><ele>412.0</ele><time>2026-04-04T09:03:52.999Z</time></trkpt><trkpt lat="44.6673804711563" lon="9.982128880016031"><ele>413.0</ele><time>2026-04-04T09:03:54.999Z</time></trkpt><trkpt lat="44.667489850491705" lon="9.98216264639622"><ele>412.99999999999994</ele><time>2026-04-04T09:03:56.999Z</time></trkpt><trkpt lat="44.66754741368026" lon="9.982205821186042"><ele>413.0</ele><time>2026-04-04T09:03:57.999Z</time></trkpt><trkpt lat="44.66760195585082" lon="9.98225672141338"><ele>413.0</ele><time>2026-04-04T09:03:58.999Z</time></trkpt><trkpt lat="44.66766547293622" lon="9.982305542932787"><ele>413.0</ele><time>2026-04-04T09:03:59.999Z</time></trkpt><trkpt lat="44.66776197034833" lon="9.982392739876737"><ele>412.99999999999994</ele><time>2026-04-04T09:04:01.999Z</time></trkpt><trkpt lat="44.66783972009073" lon="9.982418293688232"><ele>413.0</ele><time>2026-04-04T09:04:03.998Z</time></trkpt><trkpt lat="44.667920305460484" lon="9.982363175616504"><ele>409.49999999999994</ele><time>2026-04-04T09:04:06.998Z</time></trkpt><trkpt lat="44.66797351648832" lon="9.982289386919911"><ele>406.0</ele><time>2026-04-04T09:04:10.998Z</time></trkpt><trkpt lat="44.6680030033524" lon="9.982206797086254"><ele>402.5</ele><time>2026-04-04T09:04:13.998Z</time></trkpt><trkpt lat="44.66803549400601" lon="9.98209811640589"><ele>399.0</ele><time>2026-04-04T09:04:15.998Z</time></trkpt><trkpt lat="44.66806347032576" lon="9.9819644248518"><ele>395.49999999999994</ele><time>2026-04-04T09:04:17.998Z</time></trkpt><trkpt lat="44.66809711734803" lon="9.981841366458644"><ele>392.0</ele><time>2026-04-04T09:04:19.998Z</time></trkpt><trkpt lat="44.66810415361455" lon="9.981719255173795"><ele>391.8</ele><time>2026-04-04T09:04:21.998Z</time></trkpt><trkpt lat="44.66809679936581" lon="9.981584724480879"><ele>391.6</ele><time>2026-04-04T09:04:23.998Z</time></trkpt><trkpt lat="44.668117041391405" lon="9.981451563155721"><ele>391.40000000000003</ele><time>2026-04-04T09:04:25.998Z</time></trkpt><trkpt lat="44.66822508964663" lon="9.981348733618367"><ele>391.20000000000005</ele><time>2026-04-04T09:04:27.998Z</time></trkpt><trkpt lat="44.66828264395891" lon="9.98128748848007"><ele>391.0</ele><time>2026-04-04T09:04:28.998Z</time></trkpt><trkpt lat="44.66832505961918" lon="9.981218517781219"><ele>391.00000000000006</ele><time>2026-04-04T09:04:29.998Z</time></trkpt><trkpt lat="44.66836798076574" lon="9.981115273030229"><ele>391.0</ele><time>2026-04-04T09:04:30.998Z</time></trkpt><trkpt lat="44.66841027744165" lon="9.981023332733999"><ele>391.0</ele><time>2026-04-04T09:04:31.998Z</time></trkpt><trkpt lat="44.6684605749977" lon="9.980906120889166"><ele>391.0</ele><time>2026-04-04T09:04:32.998Z</time></trkpt><trkpt lat="44.66848698293681" lon="9.98081087325363"><ele>391.00000000000006</ele><time>2026-04-04T09:04:33.998Z</time></trkpt><trkpt lat="44.66851010425858" lon="9.980710498428092"><ele>391.0</ele><time>2026-04-04T09:04:34.998Z</time></trkpt><trkpt lat="44.66855377080318" lon="9.980633835166106"><ele>390.1666666666667</ele><time>2026-04-04T09:04:35.998Z</time></trkpt><trkpt lat="44.66858353750687" lon="9.980534808566377"><ele>389.33333333333337</ele><time>2026-04-04T09:04:36.998Z</time></trkpt><trkpt lat="44.66860082394454" lon="9.980449184955377"><ele>388.5</ele><time>2026-04-04T09:04:37.998Z</time></trkpt><trkpt lat="44.66862973936602" lon="9.980355638553114"><ele>387.66666666666663</ele><time>2026-04-04T09:04:38.998Z</time></trkpt><trkpt lat="44.66866195947411" lon="9.980243862485054"><ele>386.8333333333333</ele><time>2026-04-04T09:04:40.998Z</time></trkpt><trkpt lat="44.66861426949171" lon="9.980149671108592"><ele>386.0</ele><time>2026-04-04T09:04:49Z</time></trkpt><trkpt lat="44.66857454545968" lon="9.980044249634785"><ele>383.4</ele><time>2026-04-04T09:04:52Z</time></trkpt><trkpt lat="44.668484422138015" lon="9.97995926802766"><ele>380.8</ele><time>2026-04-04T09:04:55Z</time></trkpt><trkpt lat="44.66840598702639" lon="9.979871203805526"><ele>378.2</ele><time>2026-04-04T09:04:57Z</time></trkpt><trkpt lat="44.66835179954755" lon="9.97973188675302"><ele>375.59999999999997</ele><time>2026-04-04T09:04:59Z</time></trkpt><trkpt lat="44.668296626814914" lon="9.979626365441295"><ele>373.0</ele><time>2026-04-04T09:05:01Z</time></trkpt><trkpt lat="44.668213699604394" lon="9.979555588380125"><ele>373.0</ele><time>2026-04-04T09:05:03Z</time></trkpt><trkpt lat="44.668116909743844" lon="9.979515370743922"><ele>373.0</ele><time>2026-04-04T09:05:05Z</time></trkpt><trkpt lat="44.66803298672956" lon="9.979585980359806"><ele>373.0</ele><time>2026-04-04T09:05:07Z</time></trkpt><trkpt lat="44.6679771061053" lon="9.979667719527608"><ele>373.0</ele><time>2026-04-04T09:05:08Z</time></trkpt><trkpt lat="44.66788507872051" lon="9.979763434411845"><ele>373.0</ele><time>2026-04-04T09:05:10Z</time></trkpt><trkpt lat="44.66778994001036" lon="9.979751418441088"><ele>373.0</ele><time>2026-04-04T09:05:12Z</time></trkpt><trkpt lat="44.667726497201976" lon="9.97968289225181"><ele>373.0</ele><time>2026-04-04T09:05:14Z</time></trkpt><trkpt lat="44.66768753897122" lon="9.979554083794"><ele>373.0</ele><time>2026-04-04T09:05:16Z</time></trkpt><trkpt lat="44.667664802403245" lon="9.979438633367955"><ele>373.0</ele><time>2026-04-04T09:05:18Z</time></trkpt><trkpt lat="44.667749460725815" lon="9.979323976145892"><ele>373.0</ele><time>2026-04-04T09:05:20Z</time></trkpt><trkpt lat="44.66783379485396" lon="9.979257630794178"><ele>373.0</ele><time>2026-04-04T09:05:21Z</time></trkpt><trkpt lat="44.667912806080295" lon="9.979195239045408"><ele>373.0</ele><time>2026-04-04T09:05:22Z</time></trkpt><trkpt lat="44.66795746866436" lon="9.979132400877695"><ele>373.0</ele><time>2026-04-04T09:05:22.999Z</time></trkpt><trkpt lat="44.66798398456874" lon="9.978979311255358"><ele>373.0</ele><time>2026-04-04T09:05:24.999Z</time></trkpt><trkpt lat="44.66799081498948" lon="9.978882855523905"><ele>373.0</ele><time>2026-04-04T09:05:25.999Z</time></trkpt><trkpt lat="44.6679735188446" lon="9.978766620159256"><ele>373.0</ele><time>2026-04-04T09:05:26.999Z</time></trkpt><trkpt lat="44.66792830499895" lon="9.978673274825322"><ele>370.59999999999997</ele><time>2026-04-04T09:05:27.999Z</time></trkpt><trkpt lat="44.66789067657476" lon="9.978568761487407"><ele>368.2</ele><time>2026-04-04T09:05:28.999Z</time></trkpt><trkpt lat="44.66782655772528" lon="9.978472500309334"><ele>365.8</ele><time>2026-04-04T09:05:29.999Z</time></trkpt><trkpt lat="44.66779017094726" lon="9.978355586249183"><ele>363.4</ele><time>2026-04-04T09:05:30.999Z</time></trkpt><trkpt lat="44.66773974002251" lon="9.978216841461489"><ele>361.0</ele><time>2026-04-04T09:05:31.999Z</time></trkpt><trkpt lat="44.66770454723087" lon="9.978127470442166"><ele>354.8</ele><time>2026-04-04T09:05:32.999Z</time></trkpt><trkpt lat="44.667702731955764" lon="9.978017637425577"><ele>348.6</ele><time>2026-04-04T09:05:37.999Z</time></trkpt><trkpt lat="44.667672682363175" lon="9.977834394768925"><ele>342.4</ele><time>2026-04-04T09:05:39.999Z</time></trkpt><trkpt lat="44.66762391846359" lon="9.9777217296354"><ele>336.2</ele><time>2026-04-04T09:05:41.999Z</time></trkpt><trkpt lat="44.667552622928994" lon="9.97767118567628"><ele>330.0</ele><time>2026-04-04T09:05:42.999Z</time></trkpt><trkpt lat="44.66748411595127" lon="9.977637151413376"><ele>330.0</ele><time>2026-04-04T09:05:43.999Z</time></trkpt><trkpt lat="44.66742831409176" lon="9.97758169333433"><ele>330.0</ele><time>2026-04-04T09:05:44.999Z</time></trkpt><trkpt lat="44.66739311192411" lon="9.977490149294752"><ele>330.0</ele><time>2026-04-04T09:05:45.999Z</time></trkpt><trkpt lat="44.66737578329794" lon="9.97740016571033"><ele>330.0</ele><time>2026-04-04T09:05:46.999Z</time></trkpt><trkpt lat="44.66738549509958" lon="9.977266488295124"><ele>330.0</ele><time>2026-04-04T09:05:48.999Z</time></trkpt><trkpt lat="44.66745686133565" lon="9.977153996926978"><ele>330.0</ele><time>2026-04-04T09:05:50.999Z</time></trkpt><trkpt lat="44.66750755957457" lon="9.977035710779592"><ele>328.0</ele><time>2026-04-04T09:05:52.999Z</time></trkpt><trkpt lat="44.667488604217645" lon="9.97689982528588"><ele>326.0</ele><time>2026-04-04T09:05:54.999Z</time></trkpt><trkpt lat="44.66745106585935" lon="9.976750713045384"><ele>324.0</ele><time>2026-04-04T09:05:56.999Z</time></trkpt><trkpt lat="44.66743926870477" lon="9.9766002726937"><ele>322.0</ele><time>2026-04-04T09:05:58.999Z</time></trkpt><trkpt lat="44.66733033175836" lon="9.9765640978536"><ele>320.0</ele><time>2026-04-04T09:06:00.999Z</time></trkpt><trkpt lat="44.6672369892333" lon="9.976579605521618"><ele>316.0</ele><time>2026-04-04T09:06:01.999Z</time></trkpt><trkpt lat="44.66714061009195" lon="9.976601952318266"><ele>312.0</ele><time>2026-04-04T09:06:02.999Z</time></trkpt><trkpt lat="44.66706367845711" lon="9.976607915326287"><ele>308.0</ele><time>2026-04-04T09:06:03.999Z</time></trkpt><trkpt lat="44.666973164086905" lon="9.976590987845897"><ele>304.0</ele><time>2026-04-04T09:06:05.999Z</time></trkpt><trkpt lat="44.666895135105754" lon="9.976552521495556"><ele>300.0</ele><time>2026-04-04T09:06:07.999Z</time></trkpt><trkpt lat="44.66681066727347" lon="9.97647411908017"><ele>300.0</ele><time>2026-04-04T09:06:09.998Z</time></trkpt><trkpt lat="44.666761722699334" lon="9.976401580993645"><ele>300.0</ele><time>2026-04-04T09:06:11.998Z</time></trkpt><trkpt lat="44.66676495973254" lon="9.976255723346869"><ele>300.0</ele><time>2026-04-04T09:06:15.998Z</time></trkpt><trkpt lat="44.66680126907157" lon="9.97611393710369"><ele>300.0</ele><time>2026-04-04T09:06:17.998Z</time></trkpt><trkpt lat="44.66692831631893" lon="9.976033535017883"><ele>300.0</ele><time>2026-04-04T09:06:19.998Z</time></trkpt><trkpt lat="44.66700757231895" lon="9.975990649953076"><ele>299.99999999999994</ele><time>2026-04-04T09:06:20.998Z</time></trkpt><trkpt lat="44.66707879457642" lon="9.975942174691005"><ele>300.0</ele><time>2026-04-04T09:06:21.998Z</time></trkpt><trkpt lat="44.6671521662504" lon="9.9759209737916"><ele>300.0</ele><time>2026-04-04T09:06:22.998Z</time></trkpt><trkpt lat="44.66722527422357" lon="9.975900556719555"><ele>300.0</ele><time>2026-04-04T09:06:23.998Z</time></trkpt><trkpt lat="44.667285077810476" lon="9.975858224602801"><ele>300.0</ele><time>2026-04-04T09:06:24.998Z</time></trkpt><trkpt lat="44.66733780010617" lon="9.975807511256587"><ele>299.99999999999994</ele><time>2026-04-04T09:06:25.998Z</time></trkpt><trkpt lat="44.66742533893157" lon="9.975799625728492"><ele>300.0</ele><time>2026-04-04T09:06:27.998Z</time></trkpt><trkpt lat="44.66753975674487" lon="9.975746411249252"><ele>297.1666666666667</ele><time>2026-04-04T09:06:29.998Z</time></trkpt><trkpt lat="44.66759370324166" lon="9.975644516111476"><ele>294.3333333333333</ele><time>2026-04-04T09:06:31.998Z</time></trkpt><trkpt lat="44.66760490479384" lon="9.975553783059139"><ele>291.5</ele><time>2026-04-04T09:06:32.998Z</time></trkpt><trkpt lat="44.667669545419706" lon="9.975455955818065"><ele>288.66666666666663</ele><time>2026-04-04T09:06:33.998Z</time></trkpt><trkpt lat="44.66772920639824" lon="9.975386000629772"><ele>285.8333333333333</ele><time>2026-04-04T09:06:34.998Z</time></trkpt><trkpt lat="44.66780544211317" lon="9.975266813904723"><ele>283.0</ele><time>2026-04-04T09:06:36.998Z</time></trkpt><trkpt lat="44.667915613753614" lon="9.975218838190486"><ele>282.2</ele><time>2026-04-04T09:06:38.998Z</time></trkpt><trkpt lat="44.66799168693964" lon="9.975176725849764"><ele>281.4</ele><time>2026-04-04T09:06:40.998Z</time></trkpt><trkpt lat="44.66804534701288" lon="9.975008010591264"><ele>280.59999999999997</ele><time>2026-04-04T09:06:42.998Z</time></trkpt><trkpt lat="44.66803915083912" lon="9.974910616496926"><ele>279.8</ele><time>2026-04-04T09:06:43.998Z</time></trkpt><trkpt lat="44.66797901391355" lon="9.974778623067554"><ele>279.0</ele><time>2026-04-04T09:06:45.998Z</time></trkpt><trkpt lat="44.667996256908815" lon="9.97463509579427"><ele>277.4</ele><time>2026-04-04T09:06:47.998Z</time></trkpt><trkpt lat="44.668024813121335" lon="9.974541106174597"><ele>275.79999999999995</ele><time>2026-04-04T09:06:48.998Z</time></trkpt><trkpt lat="44.6680660556944" lon="9.974473646790164"><ele>274.20000000000005</ele><time>2026-04-04T09:06:49.998Z</time></trkpt><trkpt lat="44.66818021091874" lon="9.974404482396215"><ele>272.6</ele><time>2026-04-04T09:06:52Z</time></trkpt><trkpt lat="44.66828888643749" lon="9.9743498684928"><ele>271.0</ele><time>2026-04-04T09:06:54Z</time></trkpt><trkpt lat="44.66841633721163" lon="9.9743375654706"><ele>271.0</ele><time>2026-04-04T09:06:56Z</time></trkpt><trkpt lat="44.66852889176905" lon="9.974312016428005"><ele>271.0</ele><time>2026-04-04T09:06:58Z</time></trkpt><trkpt lat="44.6686245886164" lon="9.974313338042101"><ele>271.0</ele><time>2026-04-04T09:07:00Z</time></trkpt><trkpt lat="44.66870698107709" lon="9.974390449327624"><ele>271.0</ele><time>2026-04-04T09:07:02Z</time></trkpt><trkpt lat="44.668766445294715" lon="9.974523735550743"><ele>271.0</ele><time>2026-04-04T09:07:04Z</time></trkpt><trkpt lat="44.66886114385666" lon="9.974535033561295"><ele>268.85714285714283</ele><time>2026-04-04T09:07:06Z</time></trkpt><trkpt lat="44.668927932472556" lon="9.974502410682362"><ele>266.7142857142857</ele><time>2026-04-04T09:07:07Z</time></trkpt><trkpt lat="44.669006349626784" lon="9.974491823461184"><ele>264.57142857142856</ele><time>2026-04-04T09:07:08Z</time></trkpt><trkpt lat="44.66909286459487" lon="9.974503247194235"><ele>262.42857142857144</ele><time>2026-04-04T09:07:10Z</time></trkpt><trkpt lat="44.669157915649144" lon="9.974500911340805"><ele>260.2857142857143</ele><time>2026-04-04T09:07:12Z</time></trkpt><trkpt lat="44.669215866882176" lon="9.974539519345146"><ele>258.1428571428571</ele><time>2026-04-04T09:07:15Z</time></trkpt><trkpt lat="44.669267800286484" lon="9.974589554692106"><ele>256.0</ele><time>2026-04-04T09:07:34.999Z</time></trkpt><trkpt lat="44.66929765409275" lon="9.974684145559413"><ele>255.99999999999997</ele><time>2026-04-04T09:07:39.999Z</time></trkpt><trkpt lat="44.66933238121009" lon="9.974771785360234"><ele>256.0</ele><time>2026-04-04T09:07:42.999Z</time></trkpt><trkpt lat="44.669410537566776" lon="9.974860767153713"><ele>256.0</ele><time>2026-04-04T09:07:45.999Z</time></trkpt><trkpt lat="44.66947513252859" lon="9.974911983041286"><ele>256.0</ele><time>2026-04-04T09:07:47.999Z</time></trkpt><trkpt lat="44.66954136939138" lon="9.974887921654348"><ele>255.99999999999997</ele><time>2026-04-04T09:07:49.999Z</time></trkpt><trkpt lat="44.669628634008504" lon="9.974872140634524"><ele>256.0</ele><time>2026-04-04T09:07:51.999Z</time></trkpt><trkpt lat="44.669688233353575" lon="9.97490604290297"><ele>253.99999999999997</ele><time>2026-04-04T09:07:53.999Z</time></trkpt><trkpt lat="44.66974914632877" lon="9.974955806745863"><ele>252.0</ele><time>2026-04-04T09:07:55.999Z</time></trkpt><trkpt lat="44.66984148256388" lon="9.974904223321717"><ele>250.0</ele><time>2026-04-04T09:07:58.999Z</time></trkpt><trkpt lat="44.66989740207603" lon="9.974835130204086"><ele>248.0</ele><time>2026-04-04T09:08:01.999Z</time></trkpt><trkpt lat="44.66995897489484" lon="9.974798937711896"><ele>245.99999999999997</ele><time>2026-04-04T09:08:04.999Z</time></trkpt><trkpt lat="44.67002877354882" lon="9.974745543254782"><ele>244.0</ele><time>2026-04-04T09:08:07.999Z</time></trkpt><trkpt lat="44.67008584594331" lon="9.974697800768583"><ele>244.0</ele><time>2026-04-04T09:08:12.999Z</time></trkpt><trkpt lat="44.67017510138344" lon="9.974661654512051"><ele>243.99999999999997</ele><time>2026-04-04T09:09:32Z</time></trkpt><trkpt lat="44.67025209948292" lon="9.974646687156708"><ele>243.99999999999997</ele><time>2026-04-04T09:09:34.999Z</time></trkpt><trkpt lat="44.670322207220075" lon="9.974813898570961"><ele>244.0</ele><time>2026-04-04T09:09:36.999Z</time></trkpt><trkpt lat="44.670368280841565" lon="9.974946970846919"><ele>244.0</ele><time>2026-04-04T09:09:37.999Z</time></trkpt><trkpt lat="44.67042014822142" lon="9.975074594230273"><ele>241.79999999999998</ele><time>2026-04-04T09:09:38.999Z</time></trkpt><trkpt lat="44.67044335974332" lon="9.975202675002764"><ele>239.59999999999997</ele><time>2026-04-04T09:09:39.999Z</time></trkpt><trkpt lat="44.67048766421453" lon="9.975309101332359"><ele>237.4</ele><time>2026-04-04T09:09:40.999Z</time></trkpt><trkpt lat="44.67054351747644" lon="9.975429993711689"><ele>235.2</ele><time>2026-04-04T09:09:41.999Z</time></trkpt><trkpt lat="44.6706109050201" lon="9.975541970065596"><ele>233.0</ele><time>2026-04-04T09:09:42.999Z</time></trkpt><trkpt lat="44.6706948741223" lon="9.97566024778014"><ele>233.0</ele><time>2026-04-04T09:09:43.999Z</time></trkpt><trkpt lat="44.670789788944646" lon="9.975786446335533"><ele>233.0</ele><time>2026-04-04T09:09:44.999Z</time></trkpt><trkpt lat="44.670888155240625" lon="9.975890703651576"><ele>233.0</ele><time>2026-04-04T09:09:45.999Z</time></trkpt><trkpt lat="44.670973172892054" lon="9.976016140164402"><ele>233.0</ele><time>2026-04-04T09:09:46.999Z</time></trkpt><trkpt lat="44.67105404679471" lon="9.97616103044707"><ele>231.5</ele><time>2026-04-04T09:09:47.999Z</time></trkpt><trkpt lat="44.67115552428415" lon="9.976273678149273"><ele>230.0</ele><time>2026-04-04T09:09:48.999Z</time></trkpt><trkpt lat="44.67127313396429" lon="9.976353166553105"><ele>228.5</ele><time>2026-04-04T09:09:49.999Z</time></trkpt><trkpt lat="44.67139057887197" lon="9.976452050641653"><ele>227.0</ele><time>2026-04-04T09:09:50.999Z</time></trkpt><trkpt lat="44.67152559688275" lon="9.976562197988526"><ele>226.25</ele><time>2026-04-04T09:09:51.999Z</time></trkpt><trkpt lat="44.6716562305664" lon="9.976689803823989"><ele>225.5</ele><time>2026-04-04T09:09:52.999Z</time></trkpt><trkpt lat="44.671769579902474" lon="9.976828220057882"><ele>224.75</ele><time>2026-04-04T09:09:53.999Z</time></trkpt><trkpt lat="44.67187285202001" lon="9.97695637138564"><ele>224.0</ele><time>2026-04-04T09:09:54.999Z</time></trkpt><trkpt lat="44.67197267248734" lon="9.97706694773058"><ele>224.0</ele><time>2026-04-04T09:09:55.999Z</time></trkpt><trkpt lat="44.67206956701726" lon="9.977157942998675"><ele>223.99999999999997</ele><time>2026-04-04T09:09:56.999Z</time></trkpt><trkpt lat="44.67214878682337" lon="9.977253462464896"><ele>223.99999999999997</ele><time>2026-04-04T09:09:57.999Z</time></trkpt><trkpt lat="44.67223036159784" lon="9.977328661711024"><ele>224.0</ele><time>2026-04-04T09:09:58.999Z</time></trkpt><trkpt lat="44.67232332277083" lon="9.977388857659848"><ele>224.0</ele><time>2026-04-04T09:09:59.999Z</time></trkpt><trkpt lat="44.67239692627922" lon="9.977421783978857"><ele>224.0</ele><time>2026-04-04T09:10:00.999Z</time></trkpt><trkpt lat="44.672460796209535" lon="9.977434608689498"><ele>224.0</ele><time>2026-04-04T09:10:01.999Z</time></trkpt><trkpt lat="44.67254192684105" lon="9.977447677903386"><ele>224.0</ele><time>2026-04-04T09:10:03.999Z</time></trkpt><trkpt lat="44.67263094897894" lon="9.977419427428202"><ele>224.0</ele><time>2026-04-04T09:10:06.999Z</time></trkpt><trkpt lat="44.67267330036831" lon="9.977048367445937"><ele>224.00000000000003</ele><time>2026-04-04T09:10:07.999Z</time></trkpt><trkpt lat="44.67271267962174" lon="9.976970252920141"><ele>224.0</ele><time>2026-04-04T09:10:08.999Z</time></trkpt><trkpt lat="44.67274015749674" lon="9.976886032075909"><ele>224.0</ele><time>2026-04-04T09:10:09.999Z</time></trkpt><trkpt lat="44.672724868006384" lon="9.976765988476778"><ele>224.0</ele><time>2026-04-04T09:10:11.999Z</time></trkpt><trkpt lat="44.672634282284605" lon="9.97663416795795"><ele>224.00000000000003</ele><time>2026-04-04T09:10:13.999Z</time></trkpt><trkpt lat="44.67258517194699" lon="9.976518642726278"><ele>224.0</ele><time>2026-04-04T09:10:15.999Z</time></trkpt><trkpt lat="44.67262064754985" lon="9.976422220222153"><ele>222.33333333333334</ele><time>2026-04-04T09:10:17.999Z</time></trkpt><trkpt lat="44.67268530587199" lon="9.97636653337464"><ele>220.66666666666669</ele><time>2026-04-04T09:10:20.998Z</time></trkpt><trkpt lat="44.6727575452832" lon="9.976308281715136"><ele>219.0</ele><time>2026-04-04T09:10:23.998Z</time></trkpt><trkpt lat="44.67283436326619" lon="9.976261699213714"><ele>217.33333333333331</ele><time>2026-04-04T09:10:25.998Z</time></trkpt><trkpt lat="44.6729213518438" lon="9.976187961622594"><ele>215.66666666666666</ele><time>2026-04-04T09:10:27.998Z</time></trkpt><trkpt lat="44.67298276856903" lon="9.976128611138913"><ele>214.0</ele><time>2026-04-04T09:10:29.998Z</time></trkpt><trkpt lat="44.67302308237212" lon="9.976028884492786"><ele>213.71428571428572</ele><time>2026-04-04T09:10:32.998Z</time></trkpt><trkpt lat="44.673064127258854" lon="9.97595946220901"><ele>213.42857142857144</ele><time>2026-04-04T09:10:34.998Z</time></trkpt><trkpt lat="44.673123244329176" lon="9.975887790951205"><ele>213.14285714285717</ele><time>2026-04-04T09:10:36.998Z</time></trkpt><trkpt lat="44.673181755003895" lon="9.975833585506114"><ele>212.85714285714286</ele><time>2026-04-04T09:10:39.998Z</time></trkpt><trkpt lat="44.673221844191026" lon="9.975763393971778"><ele>212.57142857142856</ele><time>2026-04-04T09:10:48.998Z</time></trkpt><trkpt lat="44.67326990878009" lon="9.975685665724864"><ele>212.2857142857143</ele><time>2026-04-04T09:12:14.999Z</time></trkpt><trkpt lat="44.67329791006383" lon="9.975561778277624"><ele>212.0</ele><time>2026-04-04T09:12:19.999Z</time></trkpt><trkpt lat="44.67335376303066" lon="9.975516689472913"><ele>212.0</ele><time>2026-04-04T09:14:26.999Z</time></trkpt><trkpt lat="44.67336005780038" lon="9.97537874724174"><ele>212.0</ele><time>2026-04-04T09:14:41.998Z</time></trkpt><trkpt lat="44.67335303351891" lon="9.975247093446796"><ele>212.0</ele><time>2026-04-04T09:14:49.998Z</time></trkpt><trkpt lat="44.67345089797102" lon="9.975166702198605"><ele>212.0</ele><time>2026-04-04T09:14:51.998Z</time></trkpt><trkpt lat="44.67354654328425" lon="9.975233796768373"><ele>212.0</ele><time>2026-04-04T09:14:53.998Z</time></trkpt><trkpt lat="44.67364531605187" lon="9.975316779539721"><ele>213.39999999999998</ele><time>2026-04-04T09:14:55.998Z</time></trkpt><trkpt lat="44.67379616424402" lon="9.975317634741895"><ele>214.79999999999998</ele><time>2026-04-04T09:14:57.998Z</time></trkpt><trkpt lat="44.673884331428276" lon="9.975298196568763"><ele>216.2</ele><time>2026-04-04T09:14:58.998Z</time></trkpt><trkpt lat="44.673956920467056" lon="9.97530346987103"><ele>217.6</ele><time>2026-04-04T09:14:59.998Z</time></trkpt><trkpt lat="44.674064346509084" lon="9.975323888874152"><ele>219.0</ele><time>2026-04-04T09:15:01.998Z</time></trkpt><trkpt lat="44.67412776331978" lon="9.975380835503701"><ele>219.0</ele><time>2026-04-04T09:15:03.998Z</time></trkpt><trkpt lat="44.67421526703795" lon="9.975460740859074"><ele>218.99999999999997</ele><time>2026-04-04T09:15:05.998Z</time></trkpt><trkpt lat="44.67434005699314" lon="9.975471935340966"><ele>218.99999999999997</ele><time>2026-04-04T09:15:07.998Z</time></trkpt><trkpt lat="44.674412567383605" lon="9.975482004534243"><ele>219.0</ele><time>2026-04-04T09:15:08.998Z</time></trkpt><trkpt lat="44.67448163718646" lon="9.97562185612888"><ele>219.0</ele><time>2026-04-04T09:15:10.998Z</time></trkpt><trkpt lat="44.674528972509854" lon="9.975680375409379"><ele>220.79999999999998</ele><time>2026-04-04T09:15:11.998Z</time></trkpt><trkpt lat="44.674603017851254" lon="9.975662092967799"><ele>222.59999999999997</ele><time>2026-04-04T09:15:13.998Z</time></trkpt><trkpt lat="44.674680975012365" lon="9.975691460891143"><ele>224.4</ele><time>2026-04-04T09:15:27Z</time></trkpt><trkpt lat="44.67474736700287" lon="9.975713149673409"><ele>226.2</ele><time>2026-04-04T09:15:29Z</time></trkpt><trkpt lat="44.674903666475075" lon="9.975708462151143"><ele>228.0</ele><time>2026-04-04T09:15:33Z</time></trkpt><trkpt lat="44.67489428380948" lon="9.975582698856112"><ele>228.0</ele><time>2026-04-04T09:15:35Z</time></trkpt><trkpt lat="44.67491873511391" lon="9.975456737071893"><ele>228.0</ele><time>2026-04-04T09:15:37Z</time></trkpt><trkpt lat="44.67493764837159" lon="9.97529706865391"><ele>228.0</ele><time>2026-04-04T09:15:39Z</time></trkpt><trkpt lat="44.674920213351086" lon="9.975167253859665"><ele>228.0</ele><time>2026-04-04T09:15:40Z</time></trkpt><trkpt lat="44.67489719568778" lon="9.975065041740681"><ele>228.0</ele><time>2026-04-04T09:15:41Z</time></trkpt><trkpt lat="44.67487105783576" lon="9.974936561876847"><ele>230.8</ele><time>2026-04-04T09:15:43Z</time></trkpt><trkpt lat="44.6748797078166" lon="9.974796937943069"><ele>233.60000000000002</ele><time>2026-04-04T09:15:45Z</time></trkpt><trkpt lat="44.67485071417211" lon="9.974675990777506"><ele>236.39999999999998</ele><time>2026-04-04T09:15:46Z</time></trkpt><trkpt lat="44.674828207137544" lon="9.974577243019022"><ele>239.2</ele><time>2026-04-04T09:15:48Z</time></trkpt><trkpt lat="44.674799392135704" lon="9.974359971694302"><ele>242.0</ele><time>2026-04-04T09:19:51Z</time></trkpt><trkpt lat="44.67468581652869" lon="9.974318606887431"><ele>242.8</ele><time>2026-04-04T09:19:53Z</time></trkpt><trkpt lat="44.674639718693754" lon="9.974153313263546"><ele>243.6</ele><time>2026-04-04T09:19:55Z</time></trkpt><trkpt lat="44.67465343962449" lon="9.97403313492078"><ele>244.40000000000003</ele><time>2026-04-04T09:19:57Z</time></trkpt><trkpt lat="44.67463735371323" lon="9.973888288623654"><ele>245.20000000000002</ele><time>2026-04-04T09:19:59Z</time></trkpt><trkpt lat="44.6746311425378" lon="9.973764202092248"><ele>246.0</ele><time>2026-04-04T09:20:01Z</time></trkpt><trkpt lat="44.674604751021036" lon="9.973639488549043"><ele>246.0</ele><time>2026-04-04T09:20:03Z</time></trkpt><trkpt lat="44.67456336073764" lon="9.973560430648206"><ele>246.00000000000003</ele><time>2026-04-04T09:20:03.999Z</time></trkpt><trkpt lat="44.67455265679668" lon="9.973472591367072"><ele>246.00000000000003</ele><time>2026-04-04T09:20:04.999Z</time></trkpt><trkpt lat="44.674542447987584" lon="9.973311436697752"><ele>246.0</ele><time>2026-04-04T09:20:06.999Z</time></trkpt><trkpt lat="44.674525985738526" lon="9.973177195697058"><ele>246.0</ele><time>2026-04-04T09:20:08.999Z</time></trkpt><trkpt lat="44.67449202642738" lon="9.973022107796476"><ele>245.83333333333334</ele><time>2026-04-04T09:20:10.999Z</time></trkpt><trkpt lat="44.67449702890065" lon="9.97293292005756"><ele>245.66666666666669</ele><time>2026-04-04T09:20:11.999Z</time></trkpt><trkpt lat="44.67451229670275" lon="9.972824140052063"><ele>245.5</ele><time>2026-04-04T09:20:12.999Z</time></trkpt><trkpt lat="44.67453886277166" lon="9.972716155126042"><ele>245.33333333333334</ele><time>2026-04-04T09:20:13.999Z</time></trkpt><trkpt lat="44.67455258049324" lon="9.972606129707211"><ele>245.16666666666669</ele><time>2026-04-04T09:20:14.999Z</time></trkpt><trkpt lat="44.6745331904659" lon="9.972505652249744"><ele>245.0</ele><time>2026-04-04T09:20:15.999Z</time></trkpt><trkpt lat="44.67453046804472" lon="9.972402800730986"><ele>245.0</ele><time>2026-04-04T09:20:16.999Z</time></trkpt><trkpt lat="44.67456097701782" lon="9.972302042728645"><ele>245.0</ele><time>2026-04-04T09:20:17.999Z</time></trkpt><trkpt lat="44.674539196312004" lon="9.972127675752548"><ele>245.0</ele><time>2026-04-04T09:20:19.999Z</time></trkpt><trkpt lat="44.674485943141384" lon="9.97205106411784"><ele>245.0</ele><time>2026-04-04T09:20:20.999Z</time></trkpt><trkpt lat="44.67444201894629" lon="9.971981095735893"><ele>245.0</ele><time>2026-04-04T09:20:21.999Z</time></trkpt><trkpt lat="44.67445085458189" lon="9.971826671558707"><ele>245.00000000000003</ele><time>2026-04-04T09:20:23.999Z</time></trkpt><trkpt lat="44.674467049660784" lon="9.97173768244918"><ele>245.0</ele><time>2026-04-04T09:20:24.999Z</time></trkpt><trkpt lat="44.67445103064835" lon="9.97160278589799"><ele>245.0</ele><time>2026-04-04T09:20:26.999Z</time></trkpt><trkpt lat="44.67441126518231" lon="9.971458642940098"><ele>245.0</ele><time>2026-04-04T09:20:28.999Z</time></trkpt><trkpt lat="44.674415002435474" lon="9.971310910964272"><ele>245.00000000000003</ele><time>2026-04-04T09:20:30.999Z</time></trkpt><trkpt lat="44.67442311534756" lon="9.971218511061169"><ele>245.0</ele><time>2026-04-04T09:20:31.999Z</time></trkpt><trkpt lat="44.674424515690916" lon="9.971126430984926"><ele>244.71428571428572</ele><time>2026-04-04T09:20:32.999Z</time></trkpt><trkpt lat="44.674426925430716" lon="9.971036141152572"><ele>244.42857142857144</ele><time>2026-04-04T09:20:33.999Z</time></trkpt><trkpt lat="44.67444404237154" lon="9.970944362356821"><ele>244.14285714285714</ele><time>2026-04-04T09:20:34.999Z</time></trkpt><trkpt lat="44.67447104872152" lon="9.970838892251342"><ele>243.85714285714286</ele><time>2026-04-04T09:20:35.999Z</time></trkpt><trkpt lat="44.674502759310634" lon="9.970728662213356"><ele>243.57142857142858</ele><time>2026-04-04T09:20:36.999Z</time></trkpt><trkpt lat="44.674523959439405" lon="9.970626615884703"><ele>243.28571428571428</ele><time>2026-04-04T09:20:37.999Z</time></trkpt><trkpt lat="44.67455757907144" lon="9.970540767381038"><ele>243.0</ele><time>2026-04-04T09:20:38.999Z</time></trkpt><trkpt lat="44.674598245849246" lon="9.970448097860722"><ele>243.66666666666666</ele><time>2026-04-04T09:20:39.999Z</time></trkpt><trkpt lat="44.67464109879256" lon="9.97035483022404"><ele>244.33333333333331</ele><time>2026-04-04T09:20:40.999Z</time></trkpt><trkpt lat="44.674677887666654" lon="9.97024076652079"><ele>245.0</ele><time>2026-04-04T09:20:41.999Z</time></trkpt><trkpt lat="44.67471794569804" lon="9.970140975600515"><ele>245.66666666666666</ele><time>2026-04-04T09:20:42.999Z</time></trkpt><trkpt lat="44.67474575940589" lon="9.97004738872763"><ele>246.33333333333331</ele><time>2026-04-04T09:20:43.999Z</time></trkpt><trkpt lat="44.674773790687404" lon="9.969951654953352"><ele>247.0</ele><time>2026-04-04T09:20:44.999Z</time></trkpt><trkpt lat="44.674796221634494" lon="9.969863519644079"><ele>246.99999999999997</ele><time>2026-04-04T09:20:45.999Z</time></trkpt><trkpt lat="44.67480179900405" lon="9.969767123554714"><ele>247.0</ele><time>2026-04-04T09:20:46.999Z</time></trkpt><trkpt lat="44.67480696907289" lon="9.96964931588552"><ele>247.0</ele><time>2026-04-04T09:20:47.999Z</time></trkpt><trkpt lat="44.67481866314599" lon="9.969528259501358"><ele>247.0</ele><time>2026-04-04T09:20:48.998Z</time></trkpt><trkpt lat="44.67483786853926" lon="9.96942587450633"><ele>246.99999999999997</ele><time>2026-04-04T09:20:49.998Z</time></trkpt><trkpt lat="44.67487533977825" lon="9.969324877831172"><ele>247.0</ele><time>2026-04-04T09:20:50.998Z</time></trkpt><trkpt lat="44.674906339192134" lon="9.969215758281766"><ele>247.8</ele><time>2026-04-04T09:20:51.998Z</time></trkpt><trkpt lat="44.67494421301479" lon="9.969096117421286"><ele>248.6</ele><time>2026-04-04T09:20:52.998Z</time></trkpt><trkpt lat="44.674975159803054" lon="9.968958783040119"><ele>249.40000000000003</ele><time>2026-04-04T09:20:53.998Z</time></trkpt><trkpt lat="44.67499627018045" lon="9.96881890489092"><ele>250.20000000000002</ele><time>2026-04-04T09:20:54.998Z</time></trkpt><trkpt lat="44.67500923460255" lon="9.96869189527024"><ele>251.0</ele><time>2026-04-04T09:20:55.998Z</time></trkpt><trkpt lat="44.675034745380245" lon="9.968540827884425"><ele>251.00000000000003</ele><time>2026-04-04T09:20:57.998Z</time></trkpt><trkpt lat="44.67502322900149" lon="9.968430082656315"><ele>251.0</ele><time>2026-04-04T09:20:59.998Z</time></trkpt><trkpt lat="44.67496932599905" lon="9.968381442925429"><ele>251.0</ele><time>2026-04-04T09:21:01.998Z</time></trkpt><trkpt lat="44.674933875903065" lon="9.968303884856944"><ele>251.0</ele><time>2026-04-04T09:21:03.998Z</time></trkpt><trkpt lat="44.674923475840174" lon="9.968172855961837"><ele>251.00000000000003</ele><time>2026-04-04T09:21:05.998Z</time></trkpt><trkpt lat="44.674979732377224" lon="9.968083772718282"><ele>251.0</ele><time>2026-04-04T09:21:08.998Z</time></trkpt><trkpt lat="44.67503265473428" lon="9.96800271319076"><ele>252.8</ele><time>2026-04-04T09:21:10.998Z</time></trkpt><trkpt lat="44.67508290155833" lon="9.967921455422786"><ele>254.60000000000002</ele><time>2026-04-04T09:21:17.998Z</time></trkpt><trkpt lat="44.67513188024545" lon="9.967789890488314"><ele>256.4</ele><time>2026-04-04T09:21:19.998Z</time></trkpt><trkpt lat="44.67515252385418" lon="9.967700153228932"><ele>258.2</ele><time>2026-04-04T09:21:20.998Z</time></trkpt><trkpt lat="44.675183607098" lon="9.967521159405864"><ele>260.0</ele><time>2026-04-04T09:21:22.998Z</time></trkpt><trkpt lat="44.67521316570074" lon="9.967427095502808"><ele>259.1666666666667</ele><time>2026-04-04T09:21:23.998Z</time></trkpt><trkpt lat="44.67526029364155" lon="9.967355025608171"><ele>258.33333333333337</ele><time>2026-04-04T09:21:24.998Z</time></trkpt><trkpt lat="44.67532206943327" lon="9.967295721675145"><ele>257.5</ele><time>2026-04-04T09:21:25.998Z</time></trkpt><trkpt lat="44.675379722886646" lon="9.967245268658866"><ele>256.6666666666667</ele><time>2026-04-04T09:21:26.998Z</time></trkpt><trkpt lat="44.67542671073257" lon="9.967172489660161"><ele>255.83333333333334</ele><time>2026-04-04T09:21:27.998Z</time></trkpt><trkpt lat="44.67548418996616" lon="9.967077270893181"><ele>255.0</ele><time>2026-04-04T09:21:29.998Z</time></trkpt><trkpt lat="44.67553093655651" lon="9.96693981372781"><ele>255.0</ele><time>2026-04-04T09:21:31.998Z</time></trkpt><trkpt lat="44.6755566722343" lon="9.966853337096149"><ele>255.00000000000003</ele><time>2026-04-04T09:21:32.998Z</time></trkpt><trkpt lat="44.675585489579056" lon="9.966751924503244"><ele>255.0</ele><time>2026-04-04T09:21:34Z</time></trkpt><trkpt lat="44.67560325093308" lon="9.966658469380555"><ele>255.0</ele><time>2026-04-04T09:21:35Z</time></trkpt><trkpt lat="44.67562967148737" lon="9.966571344027294"><ele>255.00000000000003</ele><time>2026-04-04T09:21:36Z</time></trkpt><trkpt lat="44.675633803680896" lon="9.966473559891051"><ele>255.0</ele><time>2026-04-04T09:21:37Z</time></trkpt><trkpt lat="44.67561917370205" lon="9.966365660453521"><ele>255.0</ele><time>2026-04-04T09:21:38Z</time></trkpt><trkpt lat="44.67564418096238" lon="9.96618693620407"><ele>257.1666666666667</ele><time>2026-04-04T09:21:40Z</time></trkpt><trkpt lat="44.675639313861154" lon="9.966087050330376"><ele>259.3333333333333</ele><time>2026-04-04T09:21:41Z</time></trkpt><trkpt lat="44.67559872118697" lon="9.965922171236025"><ele>261.5</ele><time>2026-04-04T09:21:43Z</time></trkpt><trkpt lat="44.67552976248565" lon="9.965810864212733"><ele>263.66666666666663</ele><time>2026-04-04T09:21:45Z</time></trkpt><trkpt lat="44.67551564015196" lon="9.965722945796426"><ele>265.8333333333333</ele><time>2026-04-04T09:21:46Z</time></trkpt><trkpt lat="44.67551006341064" lon="9.96562583109069"><ele>268.0</ele><time>2026-04-04T09:21:47Z</time></trkpt><trkpt lat="44.67550667013754" lon="9.965515528167213"><ele>269.66666666666663</ele><time>2026-04-04T09:21:48Z</time></trkpt><trkpt lat="44.67550740431976" lon="9.965406209615951"><ele>271.3333333333333</ele><time>2026-04-04T09:21:49Z</time></trkpt><trkpt lat="44.6755057876326" lon="9.965290632683683"><ele>273.0</ele><time>2026-04-04T09:21:50Z</time></trkpt><trkpt lat="44.675502630487735" lon="9.96519441708534"><ele>274.6666666666667</ele><time>2026-04-04T09:21:51Z</time></trkpt><trkpt lat="44.675493133992795" lon="9.9650940387068"><ele>276.33333333333337</ele><time>2026-04-04T09:21:52Z</time></trkpt><trkpt lat="44.67547474390468" lon="9.964986991896643"><ele>278.0</ele><time>2026-04-04T09:21:53Z</time></trkpt><trkpt lat="44.67543258095198" lon="9.96483532640998"><ele>278.2</ele><time>2026-04-04T09:21:55Z</time></trkpt><trkpt lat="44.67535854275163" lon="9.964723972580865"><ele>278.4</ele><time>2026-04-04T09:21:57Z</time></trkpt><trkpt lat="44.67528163575915" lon="9.964642045084412"><ele>278.59999999999997</ele><time>2026-04-04T09:21:59Z</time></trkpt><trkpt lat="44.675207061915444" lon="9.964541476522928"><ele>278.8</ele><time>2026-04-04T09:22:01Z</time></trkpt><trkpt lat="44.67521601347011" lon="9.964408292453275"><ele>279.0</ele><time>2026-04-04T09:22:03Z</time></trkpt><trkpt lat="44.67525853097965" lon="9.964329096825464"><ele>279.0</ele><time>2026-04-04T09:22:04Z</time></trkpt><trkpt lat="44.6753138427181" lon="9.964244087087401"><ele>279.0</ele><time>2026-04-04T09:22:05Z</time></trkpt><trkpt lat="44.67528110730509" lon="9.964155064387532"><ele>279.0</ele><time>2026-04-04T09:22:08Z</time></trkpt><trkpt lat="44.67515978726037" lon="9.964158603458849"><ele>279.0</ele><time>2026-04-04T09:22:09.999Z</time></trkpt><trkpt lat="44.675027074222974" lon="9.964243962237125"><ele>279.0</ele><time>2026-04-04T09:22:11.999Z</time></trkpt><trkpt lat="44.67494812323986" lon="9.964301707707621"><ele>281.8333333333333</ele><time>2026-04-04T09:22:12.999Z</time></trkpt><trkpt lat="44.67485740814695" lon="9.964345702445534"><ele>284.6666666666667</ele><time>2026-04-04T09:22:13.999Z</time></trkpt><trkpt lat="44.67478091671886" lon="9.964375273894044"><ele>287.5</ele><time>2026-04-04T09:22:14.999Z</time></trkpt><trkpt lat="44.674692689886946" lon="9.964399910991286"><ele>290.33333333333337</ele><time>2026-04-04T09:22:15.999Z</time></trkpt><trkpt lat="44.67461600037485" lon="9.96439084434597"><ele>293.1666666666667</ele><time>2026-04-04T09:22:16.999Z</time></trkpt><trkpt lat="44.674568841038834" lon="9.964264616127315"><ele>296.0</ele><time>2026-04-04T09:22:18.999Z</time></trkpt><trkpt lat="44.67457292042355" lon="9.964098016701762"><ele>296.8</ele><time>2026-04-04T09:22:20.999Z</time></trkpt><trkpt lat="44.67455890227916" lon="9.963991807291002"><ele>297.6</ele><time>2026-04-04T09:22:21.999Z</time></trkpt><trkpt lat="44.67452751686681" lon="9.96391276191567"><ele>298.4</ele><time>2026-04-04T09:22:22.999Z</time></trkpt><trkpt lat="44.67440871066734" lon="9.963838589941439"><ele>299.2</ele><time>2026-04-04T09:22:24.999Z</time></trkpt><trkpt lat="44.67434244659641" lon="9.96377747127948"><ele>300.0</ele><time>2026-04-04T09:22:25.999Z</time></trkpt><trkpt lat="44.674263317666146" lon="9.963685425916784"><ele>303.3333333333333</ele><time>2026-04-04T09:22:26.999Z</time></trkpt><trkpt lat="44.67419624629715" lon="9.963615422998332"><ele>306.6666666666667</ele><time>2026-04-04T09:22:27.999Z</time></trkpt><trkpt lat="44.67410748421049" lon="9.963602619868434"><ele>310.0</ele><time>2026-04-04T09:22:28.999Z</time></trkpt><trkpt lat="44.6740186351938" lon="9.963617210404433"><ele>313.33333333333337</ele><time>2026-04-04T09:22:29.999Z</time></trkpt><trkpt lat="44.67394229065095" lon="9.963616553114754"><ele>316.6666666666667</ele><time>2026-04-04T09:22:30.999Z</time></trkpt><trkpt lat="44.67386445165463" lon="9.963634798518225"><ele>320.0</ele><time>2026-04-04T09:22:32.999Z</time></trkpt><trkpt lat="44.673807393842544" lon="9.96378777265158"><ele>320.0</ele><time>2026-04-04T09:22:39.999Z</time></trkpt><trkpt lat="44.67375681467627" lon="9.96389270098061"><ele>320.0</ele><time>2026-04-04T09:22:41.999Z</time></trkpt><trkpt lat="44.673688456760566" lon="9.963934407669079"><ele>320.0</ele><time>2026-04-04T09:22:42.999Z</time></trkpt><trkpt lat="44.67360625037403" lon="9.963972734131573"><ele>320.0</ele><time>2026-04-04T09:22:43.999Z</time></trkpt><trkpt lat="44.673509815807954" lon="9.963990423394382"><ele>320.0</ele><time>2026-04-04T09:22:44.999Z</time></trkpt><trkpt lat="44.673441988661665" lon="9.964035581973318"><ele>320.0</ele><time>2026-04-04T09:22:45.999Z</time></trkpt><trkpt lat="44.673377063624145" lon="9.964072418823363"><ele>325.0</ele><time>2026-04-04T09:22:46.999Z</time></trkpt><trkpt lat="44.67331271084327" lon="9.964061698960382"><ele>330.0</ele><time>2026-04-04T09:22:47.999Z</time></trkpt><trkpt lat="44.673208463803356" lon="9.963991138703065"><ele>335.0</ele><time>2026-04-04T09:22:49.999Z</time></trkpt><trkpt lat="44.67310245343751" lon="9.963909845638037"><ele>340.0</ele><time>2026-04-04T09:22:51.999Z</time></trkpt><trkpt lat="44.67302189627578" lon="9.963884308811268"><ele>345.0</ele><time>2026-04-04T09:22:52.999Z</time></trkpt><trkpt lat="44.67295342143463" lon="9.96384764255782"><ele>345.0</ele><time>2026-04-04T09:22:53.999Z</time></trkpt><trkpt lat="44.67286723854051" lon="9.963790077015423"><ele>345.0</ele><time>2026-04-04T09:22:54.998Z</time></trkpt><trkpt lat="44.67277333593971" lon="9.963737808295418"><ele>345.0</ele><time>2026-04-04T09:22:55.998Z</time></trkpt><trkpt lat="44.67269918575751" lon="9.963706399873574"><ele>345.0</ele><time>2026-04-04T09:22:56.998Z</time></trkpt><trkpt lat="44.67262541447834" lon="9.963680129811241"><ele>345.0</ele><time>2026-04-04T09:22:57.998Z</time></trkpt><trkpt lat="44.67256178731066" lon="9.963683686513882"><ele>345.0</ele><time>2026-04-04T09:22:58.998Z</time></trkpt><trkpt lat="44.67249960748443" lon="9.963735107773301"><ele>350.0</ele><time>2026-04-04T09:23:01.998Z</time></trkpt><trkpt lat="44.672468215841846" lon="9.963822637962364"><ele>355.0</ele><time>2026-04-04T09:23:02.998Z</time></trkpt><trkpt lat="44.67245488730584" lon="9.963919477157086"><ele>360.0</ele><time>2026-04-04T09:23:03.998Z</time></trkpt><trkpt lat="44.672408192863294" lon="9.96406009128664"><ele>365.0</ele><time>2026-04-04T09:23:05.998Z</time></trkpt><trkpt lat="44.67245654580795" lon="9.96419852449212"><ele>370.0</ele><time>2026-04-04T09:23:08.998Z</time></trkpt><trkpt lat="44.67248435453203" lon="9.964312894462696"><ele>375.0</ele><time>2026-04-04T09:23:11.998Z</time></trkpt><trkpt lat="44.67250609013928" lon="9.964489507405098"><ele>375.8333333333333</ele><time>2026-04-04T09:25:18.998Z</time></trkpt><trkpt lat="44.672538941039136" lon="9.964617426418487"><ele>376.6666666666667</ele><time>2026-04-04T09:25:20.998Z</time></trkpt><trkpt lat="44.67257783207034" lon="9.964699867305667"><ele>377.5</ele><time>2026-04-04T09:25:22.998Z</time></trkpt><trkpt lat="44.672625915950945" lon="9.964781643776943"><ele>378.33333333333337</ele><time>2026-04-04T09:25:25.998Z</time></trkpt><trkpt lat="44.67262771802032" lon="9.964904580450725"><ele>379.1666666666667</ele><time>2026-04-04T09:25:27.998Z</time></trkpt><trkpt lat="44.67258772046677" lon="9.964997727211449"><ele>380.0</ele><time>2026-04-04T09:25:29.998Z</time></trkpt><trkpt lat="44.67255703760682" lon="9.965097737088637"><ele>380.0</ele><time>2026-04-04T09:25:31.998Z</time></trkpt><trkpt lat="44.6724896050429" lon="9.965161683317312"><ele>380.0</ele><time>2026-04-04T09:25:33.998Z</time></trkpt><trkpt lat="44.672411224223815" lon="9.965210723608065"><ele>380.0</ele><time>2026-04-04T09:25:35.998Z</time></trkpt><trkpt lat="44.672359964058124" lon="9.965293845510153"><ele>380.0</ele><time>2026-04-04T09:25:37.998Z</time></trkpt><trkpt lat="44.672287528943244" lon="9.965410824696173"><ele>380.0</ele><time>2026-04-04T09:25:39.998Z</time></trkpt><trkpt lat="44.67221311490289" lon="9.965464446964813"><ele>380.0</ele><time>2026-04-04T09:25:41.998Z</time></trkpt><trkpt lat="44.67213399051137" lon="9.96548010241501"><ele>380.0</ele><time>2026-04-04T09:25:43.998Z</time></trkpt><trkpt lat="44.672098693874695" lon="9.965598491963116"><ele>380.0</ele><time>2026-04-04T09:25:46Z</time></trkpt><trkpt lat="44.672112816453044" lon="9.965720291242015"><ele>380.0</ele><time>2026-04-04T09:25:49Z</time></trkpt><trkpt lat="44.672086786495385" lon="9.965826508352988"><ele>380.0</ele><time>2026-04-04T09:25:53Z</time></trkpt><trkpt lat="44.672086387224425" lon="9.965928382001701"><ele>380.0</ele><time>2026-04-04T09:25:56Z</time></trkpt><trkpt lat="44.67208201964412" lon="9.966027099369315"><ele>380.0</ele><time>2026-04-04T09:25:59Z</time></trkpt><trkpt lat="44.67210500210597" lon="9.966187484900242"><ele>379.0</ele><time>2026-04-04T09:26:01Z</time></trkpt><trkpt lat="44.6721120135303" lon="9.966306848332811"><ele>378.0</ele><time>2026-04-04T09:26:03Z</time></trkpt><trkpt lat="44.6721023828579" lon="9.966421689593396"><ele>377.0</ele><time>2026-04-04T09:26:05Z</time></trkpt><trkpt lat="44.67214266511234" lon="9.966561198549535"><ele>376.0</ele><time>2026-04-04T09:26:07Z</time></trkpt><trkpt lat="44.672163683697725" lon="9.96669687974733"><ele>375.0</ele><time>2026-04-04T09:26:09Z</time></trkpt><trkpt lat="44.67217056584943" lon="9.966789800719296"><ele>374.0</ele><time>2026-04-04T09:26:17Z</time></trkpt><trkpt lat="44.67217019035016" lon="9.966911689754278"><ele>371.75</ele><time>2026-04-04T09:26:19Z</time></trkpt><trkpt lat="44.672142736604755" lon="9.967085789072332"><ele>369.5</ele><time>2026-04-04T09:26:20.999Z</time></trkpt><trkpt lat="44.672087666207666" lon="9.967189079062996"><ele>367.25</ele><time>2026-04-04T09:26:22.999Z</time></trkpt><trkpt lat="44.67197432928742" lon="9.967320681852135"><ele>365.0</ele><time>2026-04-04T09:26:24.999Z</time></trkpt><trkpt lat="44.67191932690491" lon="9.96743109321461"><ele>367.6666666666667</ele><time>2026-04-04T09:26:25.999Z</time></trkpt><trkpt lat="44.67189471812794" lon="9.967520903912794"><ele>370.33333333333337</ele><time>2026-04-04T09:26:26.999Z</time></trkpt><trkpt lat="44.671821733058984" lon="9.967613153864145"><ele>373.0</ele><time>2026-04-04T09:26:28.999Z</time></trkpt><trkpt lat="44.671732039847655" lon="9.967696384623984"><ele>375.6666666666667</ele><time>2026-04-04T09:26:30.999Z</time></trkpt><trkpt lat="44.67166741022304" lon="9.967796766438966"><ele>378.3333333333333</ele><time>2026-04-04T09:26:32.999Z</time></trkpt><trkpt lat="44.67166586084687" lon="9.967889936202756"><ele>381.0</ele><time>2026-04-04T09:26:33.999Z</time></trkpt><trkpt lat="44.67164017345243" lon="9.96797848823505"><ele>381.0</ele><time>2026-04-04T09:26:34.999Z</time></trkpt><trkpt lat="44.67159727304663" lon="9.968092667020892"><ele>381.0</ele><time>2026-04-04T09:26:36.999Z</time></trkpt><trkpt lat="44.67151970663221" lon="9.9682002730756"><ele>381.0</ele><time>2026-04-04T09:28:36.999Z</time></trkpt><trkpt lat="44.67149598276386" lon="9.96828938702129"><ele>381.0</ele><time>2026-04-04T09:29:28.998Z</time></trkpt><trkpt lat="44.67146951236696" lon="9.968384817595428"><ele>381.0</ele><time>2026-04-04T09:29:32.998Z</time></trkpt><trkpt lat="44.671483208859904" lon="9.968474598231351"><ele>381.0</ele><time>2026-04-04T09:30:06Z</time></trkpt><trkpt lat="44.67144422270444" lon="9.968548372617729"><ele>376.0</ele><time>2026-04-04T09:30:09Z</time></trkpt><trkpt lat="44.671337986560935" lon="9.968546606525154"><ele>371.0</ele><time>2026-04-04T09:30:16Z</time></trkpt><trkpt lat="44.67122221036917" lon="9.968571076069695"><ele>366.0</ele><time>2026-04-04T09:30:18Z</time></trkpt><trkpt lat="44.671156942279396" lon="9.96856946847094"><ele>361.0</ele><time>2026-04-04T09:30:21Z</time></trkpt><trkpt lat="44.67106855776432" lon="9.968560158309648"><ele>356.0</ele><time>2026-04-04T09:31:28.998Z</time></trkpt><trkpt lat="44.67097720319382" lon="9.968562112055048"><ele>354.71428571428567</ele><time>2026-04-04T09:31:31.998Z</time></trkpt><trkpt lat="44.67089110264345" lon="9.96855960614772"><ele>353.42857142857144</ele><time>2026-04-04T09:31:34.998Z</time></trkpt><trkpt lat="44.670824039934054" lon="9.968557888164712"><ele>352.1428571428571</ele><time>2026-04-04T09:31:37.998Z</time></trkpt><trkpt lat="44.670764070969305" lon="9.968511297481905"><ele>350.85714285714283</ele><time>2026-04-04T09:31:41.998Z</time></trkpt><trkpt lat="44.670697367030215" lon="9.9684714455541"><ele>349.57142857142856</ele><time>2026-04-04T09:31:43.998Z</time></trkpt><trkpt lat="44.670649654790154" lon="9.968404012227454"><ele>348.2857142857143</ele><time>2026-04-04T09:31:45.998Z</time></trkpt><trkpt lat="44.67072347312987" lon="9.968415288847549"><ele>347.0</ele><time>2026-04-04T09:33:38.998Z</time></trkpt><trkpt lat="44.67076659092531" lon="9.96849810731875"><ele>347.0</ele><time>2026-04-04T09:33:54.998Z</time></trkpt><trkpt lat="44.670827811656444" lon="9.968544854993368"><ele>347.0</ele><time>2026-04-04T09:33:56.998Z</time></trkpt><trkpt lat="44.67099397816015" lon="9.968533826675507"><ele>347.0</ele><time>2026-04-04T09:34:00.998Z</time></trkpt><trkpt lat="44.67108895923336" lon="9.968528957327132"><ele>347.0</ele><time>2026-04-04T09:34:02.998Z</time></trkpt><trkpt lat="44.6711976718812" lon="9.968571660182654"><ele>347.0</ele><time>2026-04-04T09:34:04.998Z</time></trkpt><trkpt lat="44.671288425538755" lon="9.968528166939336"><ele>348.5</ele><time>2026-04-04T09:34:06.998Z</time></trkpt><trkpt lat="44.67136155240971" lon="9.968513264481864"><ele>350.0</ele><time>2026-04-04T09:34:07.998Z</time></trkpt><trkpt lat="44.6714270827907" lon="9.968528418980716"><ele>351.5</ele><time>2026-04-04T09:34:08.998Z</time></trkpt><trkpt lat="44.671445177392016" lon="9.968395935790166"><ele>353.0</ele><time>2026-04-04T09:34:12Z</time></trkpt><trkpt lat="44.67146501383675" lon="9.96830128704502"><ele>354.5</ele><time>2026-04-04T09:34:29Z</time></trkpt><trkpt lat="44.67148541937706" lon="9.968211221535245"><ele>356.0</ele><time>2026-04-04T09:35:55.998Z</time></trkpt><trkpt lat="44.67155050561857" lon="9.968143622128817"><ele>360.1666666666667</ele><time>2026-04-04T09:36:19Z</time></trkpt><trkpt lat="44.67149449930163" lon="9.96806207480007"><ele>364.33333333333337</ele><time>2026-04-04T09:36:23Z</time></trkpt><trkpt lat="44.67159084905255" lon="9.96810935410217"><ele>368.5</ele><time>2026-04-04T09:36:27Z</time></trkpt><trkpt lat="44.671633186727675" lon="9.968033283300784"><ele>372.6666666666667</ele><time>2026-04-04T09:36:48Z</time></trkpt><trkpt lat="44.67167772559928" lon="9.967958618752592"><ele>376.8333333333333</ele><time>2026-04-04T09:36:49Z</time></trkpt><trkpt lat="44.67168377475986" lon="9.967825519733724"><ele>381.0</ele><time>2026-04-04T09:36:51Z</time></trkpt><trkpt lat="44.67169408767242" lon="9.96773784829605"><ele>381.0</ele><time>2026-04-04T09:36:52Z</time></trkpt><trkpt lat="44.67177005846796" lon="9.967641580952192"><ele>381.0</ele><time>2026-04-04T09:36:53.999Z</time></trkpt><trkpt lat="44.67181930677172" lon="9.967580406642522"><ele>381.0</ele><time>2026-04-04T09:36:55.999Z</time></trkpt><trkpt lat="44.67189024710619" lon="9.967513859713511"><ele>381.0</ele><time>2026-04-04T09:36:58.999Z</time></trkpt><trkpt lat="44.67193343622319" lon="9.967419092298021"><ele>381.0</ele><time>2026-04-04T09:37:00.999Z</time></trkpt><trkpt lat="44.671998810179254" lon="9.967282713397376"><ele>379.8333333333333</ele><time>2026-04-04T09:37:02.999Z</time></trkpt><trkpt lat="44.6720479148305" lon="9.96719472581645"><ele>378.6666666666667</ele><time>2026-04-04T09:37:03.999Z</time></trkpt><trkpt lat="44.67213188840916" lon="9.967113675663338"><ele>377.5</ele><time>2026-04-04T09:37:05.999Z</time></trkpt><trkpt lat="44.67211939641502" lon="9.967018764354945"><ele>376.33333333333337</ele><time>2026-04-04T09:37:07.999Z</time></trkpt><trkpt lat="44.67214453089533" lon="9.966935291234796"><ele>375.1666666666667</ele><time>2026-04-04T09:37:08.999Z</time></trkpt><trkpt lat="44.67215225583652" lon="9.966819303725128"><ele>374.0</ele><time>2026-04-04T09:37:10.999Z</time></trkpt><trkpt lat="44.67214316684405" lon="9.966660288281844"><ele>374.0</ele><time>2026-04-04T09:37:15.999Z</time></trkpt><trkpt lat="44.67211532860438" lon="9.96653425382381"><ele>374.0</ele><time>2026-04-04T09:37:17.999Z</time></trkpt><trkpt lat="44.672083861148685" lon="9.966412793654973"><ele>374.0</ele><time>2026-04-04T09:37:20.999Z</time></trkpt><trkpt lat="44.6721054863158" lon="9.966259695814976"><ele>374.0</ele><time>2026-04-04T09:37:22.999Z</time></trkpt><trkpt lat="44.6720757010366" lon="9.966130208638358"><ele>374.0</ele><time>2026-04-04T09:37:24.999Z</time></trkpt><trkpt lat="44.67205503926897" lon="9.966017824926482"><ele>374.0</ele><time>2026-04-04T09:37:26.999Z</time></trkpt><trkpt lat="44.67206747688281" lon="9.96591476378074"><ele>374.0</ele><time>2026-04-04T09:37:31.999Z</time></trkpt><trkpt lat="44.67208283222069" lon="9.965810896079255"><ele>374.0</ele><time>2026-04-04T09:37:34.999Z</time></trkpt><trkpt lat="44.672096488977004" lon="9.96569031316465"><ele>374.0</ele><time>2026-04-04T09:37:37.999Z</time></trkpt><trkpt lat="44.672111880441065" lon="9.965588553113406"><ele>374.0</ele><time>2026-04-04T09:37:39.998Z</time></trkpt><trkpt lat="44.672177866526674" lon="9.965502081534725"><ele>374.0</ele><time>2026-04-04T09:37:41.998Z</time></trkpt><trkpt lat="44.67226764642181" lon="9.965480572048067"><ele>375.0</ele><time>2026-04-04T09:37:43.998Z</time></trkpt><trkpt lat="44.67231558284901" lon="9.965380733434623"><ele>376.0</ele><time>2026-04-04T09:37:45.998Z</time></trkpt><trkpt lat="44.6723945192959" lon="9.965248170114545"><ele>377.0</ele><time>2026-04-04T09:37:47.998Z</time></trkpt><trkpt lat="44.67247551722404" lon="9.96519231549803"><ele>378.0</ele><time>2026-04-04T09:37:49.998Z</time></trkpt><trkpt lat="44.672544791505096" lon="9.96513970734037"><ele>379.0</ele><time>2026-04-04T09:37:51.998Z</time></trkpt><trkpt lat="44.6725683771782" lon="9.965053249492955"><ele>380.0</ele><time>2026-04-04T09:38:05.998Z</time></trkpt><trkpt lat="44.67249307010239" lon="9.964999311291285"><ele>381.0</ele><time>2026-04-04T09:38:17.998Z</time></trkpt><trkpt lat="44.67239674481845" lon="9.964941903391734"><ele>382.0</ele><time>2026-04-04T09:38:20.998Z</time></trkpt><trkpt lat="44.67229939957415" lon="9.96493429748379"><ele>383.0</ele><time>2026-04-04T09:38:23Z</time></trkpt><trkpt lat="44.67220179235637" lon="9.964921497396391"><ele>384.0</ele><time>2026-04-04T09:38:25Z</time></trkpt><trkpt lat="44.67213798605" lon="9.964938829107203"><ele>385.0</ele><time>2026-04-04T09:38:26Z</time></trkpt><trkpt lat="44.67203430107644" lon="9.964948730711987"><ele>384.1666666666667</ele><time>2026-04-04T09:38:28Z</time></trkpt><trkpt lat="44.67199614975833" lon="9.96503254272433"><ele>383.33333333333337</ele><time>2026-04-04T09:38:30Z</time></trkpt><trkpt lat="44.67190188077238" lon="9.965054364118576"><ele>382.5</ele><time>2026-04-04T09:38:37Z</time></trkpt><trkpt lat="44.67183958318819" lon="9.965025959933337"><ele>381.6666666666667</ele><time>2026-04-04T09:38:39Z</time></trkpt><trkpt lat="44.6717361660381" lon="9.96508937541022"><ele>380.83333333333337</ele><time>2026-04-04T09:38:53Z</time></trkpt><trkpt lat="44.67166125152004" lon="9.965124210149256"><ele>380.0</ele><time>2026-04-04T09:38:57Z</time></trkpt><trkpt lat="44.67159709598359" lon="9.965193929496401"><ele>384.8</ele><time>2026-04-04T09:38:58Z</time></trkpt><trkpt lat="44.67154275213083" lon="9.965344844484084"><ele>389.6</ele><time>2026-04-04T09:38:59.999Z</time></trkpt><trkpt lat="44.671501349793395" lon="9.96545972986205"><ele>394.4</ele><time>2026-04-04T09:39:01.999Z</time></trkpt><trkpt lat="44.671432447047536" lon="9.965488653232672"><ele>399.2</ele><time>2026-04-04T09:39:03.999Z</time></trkpt><trkpt lat="44.67135134151633" lon="9.96550892250322"><ele>404.0</ele><time>2026-04-04T09:39:08.999Z</time></trkpt><trkpt lat="44.671288787005196" lon="9.965596558794328"><ele>404.0</ele><time>2026-04-04T09:39:11.999Z</time></trkpt><trkpt lat="44.67131772165131" lon="9.965716700731807"><ele>404.0</ele><time>2026-04-04T09:39:13.999Z</time></trkpt><trkpt lat="44.6712854833957" lon="9.965832627920028"><ele>404.0</ele><time>2026-04-04T09:39:15.999Z</time></trkpt><trkpt lat="44.67123478757032" lon="9.965891454241888"><ele>404.0</ele><time>2026-04-04T09:39:17.999Z</time></trkpt><trkpt lat="44.67115429130422" lon="9.965983399136702"><ele>404.0</ele><time>2026-04-04T09:39:21.999Z</time></trkpt><trkpt lat="44.671173041993896" lon="9.966125069004256"><ele>403.99999999999994</ele><time>2026-04-04T09:39:23.999Z</time></trkpt><trkpt lat="44.67111266662335" lon="9.966226111960657"><ele>404.0</ele><time>2026-04-04T09:39:25.999Z</time></trkpt><trkpt lat="44.67106054406284" lon="9.96633312467837"><ele>404.0</ele><time>2026-04-04T09:39:27.999Z</time></trkpt><trkpt lat="44.671033610011214" lon="9.966452004937526"><ele>404.0</ele><time>2026-04-04T09:39:29.999Z</time></trkpt><trkpt lat="44.67098843244523" lon="9.966522205367955"><ele>403.99999999999994</ele><time>2026-04-04T09:39:31.999Z</time></trkpt><trkpt lat="44.6709184693727" lon="9.966505527104687"><ele>404.0</ele><time>2026-04-04T09:39:36.999Z</time></trkpt><trkpt lat="44.670811507397495" lon="9.966454157305986"><ele>408.2</ele><time>2026-04-04T09:39:39.999Z</time></trkpt><trkpt lat="44.67072495154235" lon="9.966354307407416"><ele>412.4</ele><time>2026-04-04T09:39:41.999Z</time></trkpt><trkpt lat="44.67065043177211" lon="9.966283330157507"><ele>416.6</ele><time>2026-04-04T09:39:43.998Z</time></trkpt><trkpt lat="44.67058020934467" lon="9.966222763728421"><ele>420.8</ele><time>2026-04-04T09:39:45.998Z</time></trkpt><trkpt lat="44.67051744378718" lon="9.966137064286904"><ele>425.0</ele><time>2026-04-04T09:39:47.998Z</time></trkpt><trkpt lat="44.67043707819869" lon="9.96611860299677"><ele>424.99999999999994</ele><time>2026-04-04T09:39:49.998Z</time></trkpt><trkpt lat="44.67034876635337" lon="9.966102766245683"><ele>425.0</ele><time>2026-04-04T09:39:51.998Z</time></trkpt><trkpt lat="44.670259144412846" lon="9.966132483784147"><ele>425.0</ele><time>2026-04-04T09:39:53.998Z</time></trkpt><trkpt lat="44.67025652179189" lon="9.96602454373191"><ele>425.0</ele><time>2026-04-04T09:39:58.998Z</time></trkpt><trkpt lat="44.67028733760057" lon="9.965946742192783"><ele>424.99999999999994</ele><time>2026-04-04T09:39:59.998Z</time></trkpt><trkpt lat="44.670328869234716" lon="9.965823995306334"><ele>425.0</ele><time>2026-04-04T09:40:01.998Z</time></trkpt><trkpt lat="44.67026888521364" lon="9.965741184500567"><ele>426.49999999999994</ele><time>2026-04-04T09:40:03.998Z</time></trkpt><trkpt lat="44.67021817317654" lon="9.96566701959715"><ele>428.0</ele><time>2026-04-04T09:40:05.998Z</time></trkpt><trkpt lat="44.67016373380221" lon="9.965516309357355"><ele>429.5</ele><time>2026-04-04T09:40:07.998Z</time></trkpt><trkpt lat="44.670125059815334" lon="9.965442949836401"><ele>431.0</ele><time>2026-04-04T09:40:08.998Z</time></trkpt><trkpt lat="44.670081123152336" lon="9.96537180482144"><ele>432.49999999999994</ele><time>2026-04-04T09:40:09.998Z</time></trkpt><trkpt lat="44.66998509646309" lon="9.965292856414186"><ele>434.0</ele><time>2026-04-04T09:40:11.998Z</time></trkpt><trkpt lat="44.66991892673728" lon="9.965238234946199"><ele>433.99999999999994</ele><time>2026-04-04T09:40:13.998Z</time></trkpt><trkpt lat="44.6699441421176" lon="9.965077953515436"><ele>434.0</ele><time>2026-04-04T09:40:15.998Z</time></trkpt><trkpt lat="44.669948380036665" lon="9.964965245965853"><ele>434.0</ele><time>2026-04-04T09:40:17.998Z</time></trkpt><trkpt lat="44.669881649990806" lon="9.964862040852296"><ele>434.0</ele><time>2026-04-04T09:40:19.998Z</time></trkpt><trkpt lat="44.66986460881864" lon="9.964764917609036"><ele>433.99999999999994</ele><time>2026-04-04T09:40:26.998Z</time></trkpt><trkpt lat="44.66992492407934" lon="9.964701198108683"><ele>434.0</ele><time>2026-04-04T09:40:29Z</time></trkpt><trkpt lat="44.66996735270105" lon="9.964630242661615"><ele>437.4</ele><time>2026-04-04T09:40:30Z</time></trkpt><trkpt lat="44.670014156863026" lon="9.964475137843282"><ele>440.79999999999995</ele><time>2026-04-04T09:40:32Z</time></trkpt><trkpt lat="44.67005930748286" lon="9.96431111712583"><ele>444.20000000000005</ele><time>2026-04-04T09:40:34Z</time></trkpt><trkpt lat="44.67005733485238" lon="9.964199654129052"><ele>447.6</ele><time>2026-04-04T09:40:35Z</time></trkpt><trkpt lat="44.67006388277757" lon="9.96405736423931"><ele>451.0</ele><time>2026-04-04T09:40:37Z</time></trkpt><trkpt lat="44.67006717288252" lon="9.963966799395429"><ele>450.6666666666667</ele><time>2026-04-04T09:40:38Z</time></trkpt><trkpt lat="44.67013336638781" lon="9.963851794358884"><ele>450.33333333333337</ele><time>2026-04-04T09:40:40Z</time></trkpt><trkpt lat="44.67019900806222" lon="9.963789122635173"><ele>450.0</ele><time>2026-04-04T09:40:42Z</time></trkpt><trkpt lat="44.670251138128286" lon="9.963725709215081"><ele>449.66666666666663</ele><time>2026-04-04T09:40:47Z</time></trkpt><trkpt lat="44.67030793609388" lon="9.9636663167409"><ele>449.3333333333333</ele><time>2026-04-04T09:40:50Z</time></trkpt><trkpt lat="44.67036838945517" lon="9.963628235218367"><ele>449.0</ele><time>2026-04-04T09:40:52Z</time></trkpt><trkpt lat="44.67041251008584" lon="9.96353012484551"><ele>448.99999999999994</ele><time>2026-04-04T09:40:54Z</time></trkpt><trkpt lat="44.67040746919621" lon="9.963399495200688"><ele>449.0</ele><time>2026-04-04T09:40:57Z</time></trkpt><trkpt lat="44.67047082144659" lon="9.963274321274646"><ele>449.0</ele><time>2026-04-04T09:41:01Z</time></trkpt><trkpt lat="44.67052875256005" lon="9.963236089988426"><ele>449.0</ele><time>2026-04-04T09:41:04.999Z</time></trkpt><trkpt lat="44.67059465280141" lon="9.963223684684738"><ele>448.99999999999994</ele><time>2026-04-04T09:41:10.999Z</time></trkpt><trkpt lat="44.670627235976944" lon="9.96314112373735"><ele>449.0</ele><time>2026-04-04T09:41:18.999Z</time></trkpt><trkpt lat="44.67054866457585" lon="9.963076754165842"><ele>449.16666666666663</ele><time>2026-04-04T09:41:20.999Z</time></trkpt><trkpt lat="44.67045479205213" lon="9.96307070599708"><ele>449.3333333333333</ele><time>2026-04-04T09:41:22.999Z</time></trkpt><trkpt lat="44.67040237632119" lon="9.963008046763038"><ele>449.5</ele><time>2026-04-04T09:41:24.999Z</time></trkpt><trkpt lat="44.670317274353536" lon="9.962927744454907"><ele>449.66666666666663</ele><time>2026-04-04T09:41:26.999Z</time></trkpt><trkpt lat="44.670268303974105" lon="9.96285126637713"><ele>449.8333333333333</ele><time>2026-04-04T09:41:28.999Z</time></trkpt><trkpt lat="44.67019753774038" lon="9.962776582823722"><ele>450.0</ele><time>2026-04-04T09:41:30.999Z</time></trkpt><trkpt lat="44.670175028342065" lon="9.962674888610051"><ele>455.2</ele><time>2026-04-04T09:41:34.999Z</time></trkpt><trkpt lat="44.6701617556398" lon="9.962555615677699"><ele>460.4</ele><time>2026-04-04T09:41:36.999Z</time></trkpt><trkpt lat="44.67012573807561" lon="9.96242668377673"><ele>465.6</ele><time>2026-04-04T09:41:38.999Z</time></trkpt><trkpt lat="44.67008447780455" lon="9.96228927747888"><ele>470.8</ele><time>2026-04-04T09:41:40.999Z</time></trkpt><trkpt lat="44.67002593703974" lon="9.962184936354719"><ele>476.0</ele><time>2026-04-04T09:41:42.999Z</time></trkpt><trkpt lat="44.669953099606225" lon="9.962094760851556"><ele>476.4</ele><time>2026-04-04T09:41:44.999Z</time></trkpt><trkpt lat="44.6699141785905" lon="9.962008898195108"><ele>476.8</ele><time>2026-04-04T09:41:45.999Z</time></trkpt><trkpt lat="44.6698490146477" lon="9.961877428165234"><ele>477.19999999999993</ele><time>2026-04-04T09:41:47.999Z</time></trkpt><trkpt lat="44.66981492353076" lon="9.961743668619325"><ele>477.59999999999997</ele><time>2026-04-04T09:41:49.998Z</time></trkpt><trkpt lat="44.669792614402674" lon="9.961639604348349"><ele>478.0</ele><time>2026-04-04T09:41:50.998Z</time></trkpt><trkpt lat="44.6697313683042" lon="9.96152268236866"><ele>475.79999999999995</ele><time>2026-04-04T09:41:52.998Z</time></trkpt><trkpt lat="44.66968830426019" lon="9.961439368528417"><ele>473.59999999999997</ele><time>2026-04-04T09:42:02.998Z</time></trkpt><trkpt lat="44.66966732354013" lon="9.96134253073279"><ele>471.40000000000003</ele><time>2026-04-04T09:42:04.998Z</time></trkpt><trkpt lat="44.66958852318489" lon="9.961239089660848"><ele>469.20000000000005</ele><time>2026-04-04T09:42:06.998Z</time></trkpt><trkpt lat="44.669487558035065" lon="9.961092354033605"><ele>467.0</ele><time>2026-04-04T09:42:08.998Z</time></trkpt><trkpt lat="44.66943372685132" lon="9.96104249110059"><ele>470.3333333333333</ele><time>2026-04-04T09:42:09.998Z</time></trkpt><trkpt lat="44.66937612364832" lon="9.960994175001497"><ele>473.66666666666663</ele><time>2026-04-04T09:42:10.998Z</time></trkpt><trkpt lat="44.669320700856986" lon="9.960926042442502"><ele>477.0</ele><time>2026-04-04T09:42:11.998Z</time></trkpt><trkpt lat="44.66925810921409" lon="9.960864973509743"><ele>480.33333333333337</ele><time>2026-04-04T09:42:12.998Z</time></trkpt><trkpt lat="44.66919798073371" lon="9.960771936121573"><ele>483.6666666666667</ele><time>2026-04-04T09:42:13.998Z</time></trkpt><trkpt lat="44.66910268700538" lon="9.960690143514437"><ele>487.0</ele><time>2026-04-04T09:42:15.998Z</time></trkpt><trkpt lat="44.66908948208551" lon="9.960591190756661"><ele>487.00000000000006</ele><time>2026-04-04T09:42:20.998Z</time></trkpt><trkpt lat="44.66912117343818" lon="9.960481300974022"><ele>487.0</ele><time>2026-04-04T09:42:23.998Z</time></trkpt><trkpt lat="44.669118719579444" lon="9.960358034834238"><ele>487.0</ele><time>2026-04-04T09:42:25.998Z</time></trkpt><trkpt lat="44.66912580781053" lon="9.960255393726884"><ele>487.0</ele><time>2026-04-04T09:42:27.998Z</time></trkpt><trkpt lat="44.66910357261103" lon="9.9601715516241"><ele>487.00000000000006</ele><time>2026-04-04T09:42:28.998Z</time></trkpt><trkpt lat="44.66904997949243" lon="9.960051671698828"><ele>487.0</ele><time>2026-04-04T09:42:30.998Z</time></trkpt><trkpt lat="44.66898862932115" lon="9.9598888454802"><ele>484.0</ele><time>2026-04-04T09:42:32.998Z</time></trkpt><trkpt lat="44.66892198401612" lon="9.959730440931127"><ele>481.00000000000006</ele><time>2026-04-04T09:42:35Z</time></trkpt><trkpt lat="44.66887332660829" lon="9.95962397950764"><ele>478.00000000000006</ele><time>2026-04-04T09:42:36Z</time></trkpt><trkpt lat="44.668827210780165" lon="9.959496207640548"><ele>475.0</ele><time>2026-04-04T09:42:38Z</time></trkpt><trkpt lat="44.668806709289655" lon="9.959332938512112"><ele>472.0</ele><time>2026-04-04T09:42:40Z</time></trkpt><trkpt lat="44.66880050592366" lon="9.959235385061328"><ele>469.1666666666667</ele><time>2026-04-04T09:42:41Z</time></trkpt><trkpt lat="44.66879916950634" lon="9.95913566858662"><ele>466.33333333333337</ele><time>2026-04-04T09:42:42Z</time></trkpt><trkpt lat="44.66880371215101" lon="9.959040682460657"><ele>463.5</ele><time>2026-04-04T09:42:43Z</time></trkpt><trkpt lat="44.66877944483361" lon="9.9588888309399"><ele>460.66666666666663</ele><time>2026-04-04T09:42:45Z</time></trkpt><trkpt lat="44.66872978090156" lon="9.958777465345594"><ele>457.8333333333333</ele><time>2026-04-04T09:42:47Z</time></trkpt><trkpt lat="44.66866744359325" lon="9.958719569178808"><ele>455.0</ele><time>2026-04-04T09:42:51Z</time></trkpt><trkpt lat="44.66861496109937" lon="9.958591471486445"><ele>454.99999999999994</ele><time>2026-04-04T09:42:53Z</time></trkpt><trkpt lat="44.66864877129226" lon="9.958470700283266"><ele>455.0</ele><time>2026-04-04T09:42:55Z</time></trkpt><trkpt lat="44.66865311755195" lon="9.95835633022488"><ele>455.0</ele><time>2026-04-04T09:42:57Z</time></trkpt><trkpt lat="44.66871069726182" lon="9.95824714079021"><ele>455.0</ele><time>2026-04-04T09:43:00Z</time></trkpt><trkpt lat="44.66878054279605" lon="9.958185534466786"><ele>454.99999999999994</ele><time>2026-04-04T09:43:03Z</time></trkpt><trkpt lat="44.668814829761416" lon="9.958107350375366"><ele>455.0</ele><time>2026-04-04T09:43:06Z</time></trkpt><trkpt lat="44.66880773234586" lon="9.957980502945768"><ele>452.3333333333333</ele><time>2026-04-04T09:43:09.999Z</time></trkpt><trkpt lat="44.66879950397479" lon="9.957892041971697"><ele>449.66666666666663</ele><time>2026-04-04T09:43:11.999Z</time></trkpt><trkpt lat="44.66878957837432" lon="9.957794745878738"><ele>447.0</ele><time>2026-04-04T09:43:16.999Z</time></trkpt><trkpt lat="44.668780623246874" lon="9.957650932981693"><ele>444.33333333333337</ele><time>2026-04-04T09:43:18.999Z</time></trkpt><trkpt lat="44.66877976527262" lon="9.957546335247587"><ele>441.6666666666667</ele><time>2026-04-04T09:43:20.999Z</time></trkpt><trkpt lat="44.66876142140572" lon="9.957450713263901"><ele>439.0</ele><time>2026-04-04T09:43:22.999Z</time></trkpt><trkpt lat="44.6687639829016" lon="9.957345144444737"><ele>438.33333333333337</ele><time>2026-04-04T09:43:24.999Z</time></trkpt><trkpt lat="44.668727209791605" lon="9.957252598091628"><ele>437.6666666666667</ele><time>2026-04-04T09:43:35.999Z</time></trkpt><trkpt lat="44.66870911463571" lon="9.957130966512914"><ele>437.0</ele><time>2026-04-04T09:43:40.999Z</time></trkpt><trkpt lat="44.66871937856635" lon="9.95702131636007"><ele>436.33333333333337</ele><time>2026-04-04T09:43:42.999Z</time></trkpt><trkpt lat="44.668779013310356" lon="9.956976625684655"><ele>435.6666666666667</ele><time>2026-04-04T09:43:44.999Z</time></trkpt><trkpt lat="44.66882901135041" lon="9.95686939325428"><ele>435.0</ele><time>2026-04-04T09:43:47.999Z</time></trkpt><trkpt lat="44.668819973612294" lon="9.9567664468512"><ele>436.4</ele><time>2026-04-04T09:43:49.999Z</time></trkpt><trkpt lat="44.66881669821043" lon="9.956659952997764"><ele>437.8</ele><time>2026-04-04T09:43:57.998Z</time></trkpt><trkpt lat="44.66880992742618" lon="9.956566494404054"><ele>439.20000000000005</ele><time>2026-04-04T09:45:15.999Z</time></trkpt><trkpt lat="44.668634054869415" lon="9.956526288996697"><ele>440.6</ele><time>2026-04-04T09:45:27.999Z</time></trkpt><trkpt lat="44.668540098437376" lon="9.95655752849846"><ele>442.0</ele><time>2026-04-04T09:45:30.999Z</time></trkpt><trkpt lat="44.66847495041286" lon="9.956563859389876"><ele>446.42857142857144</ele><time>2026-04-04T09:45:33.999Z</time></trkpt><trkpt lat="44.66840151713116" lon="9.956576288735183"><ele>450.8571428571429</ele><time>2026-04-04T09:46:34.998Z</time></trkpt><trkpt lat="44.66833188691935" lon="9.95654044758462"><ele>455.28571428571433</ele><time>2026-04-04T09:46:38.998Z</time></trkpt><trkpt lat="44.668316876611826" lon="9.956443157119944"><ele>459.7142857142857</ele><time>2026-04-04T09:46:41.998Z</time></trkpt><trkpt lat="44.66837099060623" lon="9.956376553312161"><ele>464.1428571428571</ele><time>2026-04-04T09:47:43.999Z</time></trkpt><trkpt lat="44.668369831528274" lon="9.956257409829888"><ele>468.5714285714286</ele><time>2026-04-04T09:47:47.999Z</time></trkpt><trkpt lat="44.66834857808522" lon="9.956161242178014"><ele>473.0</ele><time>2026-04-04T09:47:49.999Z</time></trkpt><trkpt lat="44.66834021492024" lon="9.956028494316953"><ele>473.0</ele><time>2026-04-04T09:47:51.999Z</time></trkpt><trkpt lat="44.66836303005947" lon="9.955898426467572"><ele>472.99999999999994</ele><time>2026-04-04T09:47:53.999Z</time></trkpt><trkpt lat="44.668425215623145" lon="9.955761146593956"><ele>472.99999999999994</ele><time>2026-04-04T09:47:55.999Z</time></trkpt><trkpt lat="44.66849422729532" lon="9.95568874149338"><ele>473.0</ele><time>2026-04-04T09:47:57.999Z</time></trkpt><trkpt lat="44.66855535541746" lon="9.955602519775507"><ele>473.0</ele><time>2026-04-04T09:47:59.999Z</time></trkpt><trkpt lat="44.6686271259925" lon="9.95553113607974"><ele>472.99999999999994</ele><time>2026-04-04T09:48:01.999Z</time></trkpt><trkpt lat="44.66869603000073" lon="9.955463836803654"><ele>473.0</ele><time>2026-04-04T09:48:03.999Z</time></trkpt><trkpt lat="44.668729888177545" lon="9.955359277151272"><ele>473.0</ele><time>2026-04-04T09:48:05.999Z</time></trkpt><trkpt lat="44.66870620887016" lon="9.955251290000065"><ele>473.0</ele><time>2026-04-04T09:48:07.998Z</time></trkpt><trkpt lat="44.66870535532308" lon="9.955135491406585"><ele>472.99999999999994</ele><time>2026-04-04T09:48:09.998Z</time></trkpt><trkpt lat="44.668758546609354" lon="9.954992915806436"><ele>473.0</ele><time>2026-04-04T09:48:11.998Z</time></trkpt><trkpt lat="44.668776469478296" lon="9.954882549861951"><ele>472.99999999999994</ele><time>2026-04-04T09:48:12.998Z</time></trkpt><trkpt lat="44.66877725643173" lon="9.95479029610361"><ele>473.0</ele><time>2026-04-04T09:48:13.998Z</time></trkpt><trkpt lat="44.668772794415034" lon="9.954665132368891"><ele>473.0</ele><time>2026-04-04T09:48:15.998Z</time></trkpt><trkpt lat="44.668746662264475" lon="9.954505970442106"><ele>473.0</ele><time>2026-04-04T09:48:17.998Z</time></trkpt><trkpt lat="44.66874564587575" lon="9.954413537862468"><ele>472.99999999999994</ele><time>2026-04-04T09:48:18.998Z</time></trkpt><trkpt lat="44.66874166727271" lon="9.954270251640615"><ele>473.0</ele><time>2026-04-04T09:48:20.998Z</time></trkpt><trkpt lat="44.66869523925529" lon="9.95418479838836"><ele>472.99999999999994</ele><time>2026-04-04T09:48:22.998Z</time></trkpt><trkpt lat="44.66864480990708" lon="9.95411875226817"><ele>473.0</ele><time>2026-04-04T09:48:24.998Z</time></trkpt><trkpt lat="44.66860445193219" lon="9.954031742415367"><ele>473.0</ele><time>2026-04-04T09:48:26.998Z</time></trkpt><trkpt lat="44.6686045922478" lon="9.953925051343985"><ele>473.0</ele><time>2026-04-04T09:48:28.998Z</time></trkpt><trkpt lat="44.66864556224957" lon="9.953755769948568"><ele>472.99999999999994</ele><time>2026-04-04T09:48:30.998Z</time></trkpt><trkpt lat="44.668672729949996" lon="9.953674307305619"><ele>473.0</ele><time>2026-04-04T09:48:31.998Z</time></trkpt><trkpt lat="44.66873030323411" lon="9.953545389941068"><ele>472.99999999999994</ele><time>2026-04-04T09:48:33.998Z</time></trkpt><trkpt lat="44.66881861988668" lon="9.953455382135248"><ele>473.0</ele><time>2026-04-04T09:48:35.998Z</time></trkpt><trkpt lat="44.668893972409265" lon="9.95337173804178"><ele>473.0</ele><time>2026-04-04T09:48:37.998Z</time></trkpt><trkpt lat="44.66897634013977" lon="9.953323368764746"><ele>473.0</ele><time>2026-04-04T09:48:40.998Z</time></trkpt><trkpt lat="44.66901983176187" lon="9.953256352001185"><ele>472.99999999999994</ele><time>2026-04-04T09:48:42.998Z</time></trkpt><trkpt lat="44.669012887382884" lon="9.953148036436255"><ele>473.0</ele><time>2026-04-04T09:48:44.998Z</time></trkpt><trkpt lat="44.66898094150806" lon="9.953056433124772"><ele>472.2</ele><time>2026-04-04T09:48:46.998Z</time></trkpt><trkpt lat="44.66894553369981" lon="9.952941249005859"><ele>471.4</ele><time>2026-04-04T09:48:48.998Z</time></trkpt><trkpt lat="44.668913692760626" lon="9.952829055610511"><ele>470.59999999999997</ele><time>2026-04-04T09:48:50.998Z</time></trkpt><trkpt lat="44.66886823613216" lon="9.95273059624005"><ele>469.79999999999995</ele><time>2026-04-04T09:48:53Z</time></trkpt><trkpt lat="44.668850211169406" lon="9.95257368445226"><ele>469.0</ele><time>2026-04-04T09:48:55Z</time></trkpt><trkpt lat="44.668853697958205" lon="9.952453407608672"><ele>467.4</ele><time>2026-04-04T09:48:57Z</time></trkpt><trkpt lat="44.66883057900728" lon="9.952343283206238"><ele>465.79999999999995</ele><time>2026-04-04T09:48:59Z</time></trkpt><trkpt lat="44.66882477093841" lon="9.952217674077707"><ele>464.20000000000005</ele><time>2026-04-04T09:49:01Z</time></trkpt><trkpt lat="44.668870737299514" lon="9.95206574816288"><ele>462.6</ele><time>2026-04-04T09:49:03Z</time></trkpt><trkpt lat="44.66891048976078" lon="9.9519300809491"><ele>461.0</ele><time>2026-04-04T09:49:05Z</time></trkpt><trkpt lat="44.66894335288239" lon="9.951845997227613"><ele>461.0</ele><time>2026-04-04T09:49:07Z</time></trkpt><trkpt lat="44.668921262589485" lon="9.951759420939641"><ele>461.00000000000006</ele><time>2026-04-04T09:49:42.999Z</time></trkpt><trkpt lat="44.66888135319595" lon="9.951690062909156"><ele>461.0</ele><time>2026-04-04T09:49:47.999Z</time></trkpt><trkpt lat="44.668828590533" lon="9.951629066577508"><ele>461.0</ele><time>2026-04-04T09:49:55.999Z</time></trkpt><trkpt lat="44.66879291724284" lon="9.951547664083257"><ele>461.00000000000006</ele><time>2026-04-04T09:49:59.999Z</time></trkpt><trkpt lat="44.66873470773697" lon="9.9514880426515"><ele>461.0</ele><time>2026-04-04T09:50:14.998Z</time></trkpt><trkpt lat="44.66867471509155" lon="9.951370190947651"><ele>461.0</ele><time>2026-04-04T09:53:16Z</time></trkpt><trkpt lat="44.66866646837121" lon="9.951277032386821"><ele>459.66666666666663</ele><time>2026-04-04T09:53:28Z</time></trkpt><trkpt lat="44.66864092765694" lon="9.951181939432637"><ele>458.3333333333333</ele><time>2026-04-04T09:53:54.999Z</time></trkpt><trkpt lat="44.668579914666935" lon="9.951103116724155"><ele>457.0</ele><time>2026-04-04T09:53:58.999Z</time></trkpt><trkpt lat="44.668528424934664" lon="9.951013281151283"><ele>455.66666666666663</ele><time>2026-04-04T09:54:01.999Z</time></trkpt><trkpt lat="44.66849020742574" lon="9.950921494988386"><ele>454.3333333333333</ele><time>2026-04-04T09:54:04.999Z</time></trkpt><trkpt lat="44.66851841960595" lon="9.950820785784305"><ele>453.0</ele><time>2026-04-04T09:54:12.999Z</time></trkpt><trkpt lat="44.66853673975146" lon="9.950735335700347"><ele>449.2</ele><time>2026-04-04T09:55:05.998Z</time></trkpt><trkpt lat="44.66855769828601" lon="9.950609531887995"><ele>445.4</ele><time>2026-04-04T09:55:08.998Z</time></trkpt><trkpt lat="44.668569528772124" lon="9.950490501904834"><ele>441.59999999999997</ele><time>2026-04-04T09:55:11Z</time></trkpt><trkpt lat="44.6685645724434" lon="9.950362215681123"><ele>437.79999999999995</ele><time>2026-04-04T09:55:14Z</time></trkpt><trkpt lat="44.668560819195385" lon="9.950223746095311"><ele>434.0</ele><time>2026-04-04T09:55:16Z</time></trkpt><trkpt lat="44.66856428359743" lon="9.950107937149102"><ele>432.3333333333333</ele><time>2026-04-04T09:55:18Z</time></trkpt><trkpt lat="44.66857215907173" lon="9.95000579404415"><ele>430.66666666666663</ele><time>2026-04-04T09:55:20Z</time></trkpt><trkpt lat="44.66859014814439" lon="9.949872527852504"><ele>429.0</ele><time>2026-04-04T09:55:22Z</time></trkpt><trkpt lat="44.66859182793008" lon="9.949762170518422"><ele>427.33333333333337</ele><time>2026-04-04T09:55:24Z</time></trkpt><trkpt lat="44.66859712263404" lon="9.94966632481271"><ele>425.6666666666667</ele><time>2026-04-04T09:55:26Z</time></trkpt><trkpt lat="44.66853389850196" lon="9.949574350622182"><ele>424.0</ele><time>2026-04-04T09:55:29Z</time></trkpt><trkpt lat="44.66846821450343" lon="9.949494576348076"><ele>424.00000000000006</ele><time>2026-04-04T09:55:32Z</time></trkpt><trkpt lat="44.66846618571995" lon="9.949402209430094"><ele>424.0</ele><time>2026-04-04T09:55:34Z</time></trkpt><trkpt lat="44.66846297842016" lon="9.949289958197483"><ele>424.0</ele><time>2026-04-04T10:02:22.999Z</time></trkpt><trkpt lat="44.668439387322536" lon="9.949183453388795"><ele>424.0</ele><time>2026-04-04T10:02:24.999Z</time></trkpt><trkpt lat="44.668411330722435" lon="9.949063341153325"><ele>424.00000000000006</ele><time>2026-04-04T10:02:26.999Z</time></trkpt><trkpt lat="44.66841347613856" lon="9.948941741277759"><ele>424.0</ele><time>2026-04-04T10:02:29.999Z</time></trkpt><trkpt lat="44.668446638041445" lon="9.948858358480479"><ele>423.79999999999995</ele><time>2026-04-04T10:02:31.999Z</time></trkpt><trkpt lat="44.66851080782256" lon="9.948763299334301"><ele>423.59999999999997</ele><time>2026-04-04T10:02:33.999Z</time></trkpt><trkpt lat="44.66860059890706" lon="9.948668169806092"><ele>423.4</ele><time>2026-04-04T10:02:36.999Z</time></trkpt><trkpt lat="44.66866166947344" lon="9.948569025204767"><ele>423.2</ele><time>2026-04-04T10:02:38.999Z</time></trkpt><trkpt lat="44.668696924676695" lon="9.948441438892907"><ele>423.0</ele><time>2026-04-04T10:02:40.999Z</time></trkpt><trkpt lat="44.66871568253548" lon="9.948329362691775"><ele>424.2</ele><time>2026-04-04T10:02:42.999Z</time></trkpt><trkpt lat="44.66872080012837" lon="9.948201923775475"><ele>425.4</ele><time>2026-04-04T10:02:44.999Z</time></trkpt><trkpt lat="44.668694063192845" lon="9.948088974893988"><ele>426.59999999999997</ele><time>2026-04-04T10:02:46.999Z</time></trkpt><trkpt lat="44.6686071541644" lon="9.948048109901205"><ele>427.79999999999995</ele><time>2026-04-04T10:02:48.998Z</time></trkpt><trkpt lat="44.66853460098764" lon="9.94804372117148"><ele>429.0</ele><time>2026-04-04T10:02:50.998Z</time></trkpt><trkpt lat="44.668423871621286" lon="9.948006048120336"><ele>429.0</ele><time>2026-04-04T10:02:52.998Z</time></trkpt><trkpt lat="44.66831330154671" lon="9.947943087125552"><ele>429.0</ele><time>2026-04-04T10:02:53.998Z</time></trkpt><trkpt lat="44.66821024581098" lon="9.947856139342848"><ele>429.0</ele><time>2026-04-04T10:02:54.998Z</time></trkpt><trkpt lat="44.66812483584178" lon="9.947778440336478"><ele>429.0</ele><time>2026-04-04T10:02:55.998Z</time></trkpt><trkpt lat="44.66805097881076" lon="9.947708627223408"><ele>429.0</ele><time>2026-04-04T10:02:56.998Z</time></trkpt><trkpt lat="44.6680029531727" lon="9.947645244548529"><ele>428.5</ele><time>2026-04-04T10:02:57.998Z</time></trkpt><trkpt lat="44.66794764430708" lon="9.947530241671837"><ele>428.0</ele><time>2026-04-04T10:02:59.998Z</time></trkpt><trkpt lat="44.66799669989793" lon="9.947411670856729"><ele>427.5</ele><time>2026-04-04T10:03:01.998Z</time></trkpt><trkpt lat="44.668058300865695" lon="9.947381170966427"><ele>427.0</ele><time>2026-04-04T10:03:02.998Z</time></trkpt><trkpt lat="44.66813220561266" lon="9.94738416194929"><ele>426.5</ele><time>2026-04-04T10:03:03.998Z</time></trkpt><trkpt lat="44.66821507236946" lon="9.94733991803942"><ele>426.0</ele><time>2026-04-04T10:03:04.998Z</time></trkpt><trkpt lat="44.66827453735909" lon="9.947275289747015"><ele>426.0</ele><time>2026-04-04T10:03:05.998Z</time></trkpt><trkpt lat="44.668353648152916" lon="9.947177973471446"><ele>426.0</ele><time>2026-04-04T10:03:06.998Z</time></trkpt><trkpt lat="44.668412412888735" lon="9.947107606668087"><ele>426.0</ele><time>2026-04-04T10:03:07.998Z</time></trkpt><trkpt lat="44.66849640063099" lon="9.94695011756683"><ele>426.0</ele><time>2026-04-04T10:03:09.998Z</time></trkpt><trkpt lat="44.66852590058473" lon="9.946829645804131"><ele>426.0</ele><time>2026-04-04T10:03:10.998Z</time></trkpt><trkpt lat="44.66854306908266" lon="9.94670604775876"><ele>426.6</ele><time>2026-04-04T10:03:11.998Z</time></trkpt><trkpt lat="44.66852164359338" lon="9.946571885337233"><ele>427.20000000000005</ele><time>2026-04-04T10:03:12.998Z</time></trkpt><trkpt lat="44.66851707255632" lon="9.946441557180403"><ele>427.79999999999995</ele><time>2026-04-04T10:03:13.998Z</time></trkpt><trkpt lat="44.668505330691175" lon="9.94632320536061"><ele>428.4</ele><time>2026-04-04T10:03:14.998Z</time></trkpt><trkpt lat="44.668479967726334" lon="9.946166842892577"><ele>429.0</ele><time>2026-04-04T10:03:15.998Z</time></trkpt><trkpt lat="44.66843867840041" lon="9.945992147984152"><ele>429.4</ele><time>2026-04-04T10:03:16.998Z</time></trkpt><trkpt lat="44.668421847036676" lon="9.945837327309631"><ele>429.79999999999995</ele><time>2026-04-04T10:03:17.998Z</time></trkpt><trkpt lat="44.668427909688496" lon="9.945679595654257"><ele>430.20000000000005</ele><time>2026-04-04T10:03:18.998Z</time></trkpt><trkpt lat="44.66844214393755" lon="9.945560973319827"><ele>430.6</ele><time>2026-04-04T10:03:19.998Z</time></trkpt><trkpt lat="44.668436444901985" lon="9.945444479449531"><ele>431.0</ele><time>2026-04-04T10:03:20.998Z</time></trkpt><trkpt lat="44.66843064278341" lon="9.94533790668197"><ele>431.0</ele><time>2026-04-04T10:03:21.998Z</time></trkpt><trkpt lat="44.66841101063147" lon="9.945215454148725"><ele>431.0</ele><time>2026-04-04T10:03:22.998Z</time></trkpt><trkpt lat="44.6683720534244" lon="9.945093372264187"><ele>431.0</ele><time>2026-04-04T10:03:23.998Z</time></trkpt><trkpt lat="44.66831742940409" lon="9.944994364675935"><ele>431.0</ele><time>2026-04-04T10:03:24.998Z</time></trkpt><trkpt lat="44.668262986569694" lon="9.944906477714927"><ele>431.0</ele><time>2026-04-04T10:03:25.998Z</time></trkpt><trkpt lat="44.66816541082488" lon="9.944855945689122"><ele>430.6</ele><time>2026-04-04T10:03:27.998Z</time></trkpt><trkpt lat="44.668019650302526" lon="9.944867921856765"><ele>430.20000000000005</ele><time>2026-04-04T10:03:29.998Z</time></trkpt><trkpt lat="44.667950071357886" lon="9.944854382524252"><ele>429.79999999999995</ele><time>2026-04-04T10:03:30.998Z</time></trkpt><trkpt lat="44.667896164953035" lon="9.944697756303727"><ele>429.4</ele><time>2026-04-04T10:03:32.998Z</time></trkpt><trkpt lat="44.667931272544806" lon="9.944612235612658"><ele>429.0</ele><time>2026-04-04T10:03:34Z</time></trkpt><trkpt lat="44.66798040607265" lon="9.944526258234914"><ele>429.0</ele><time>2026-04-04T10:03:35Z</time></trkpt><trkpt lat="44.66801160337886" lon="9.944439476862994"><ele>429.0</ele><time>2026-04-04T10:03:36Z</time></trkpt><trkpt lat="44.6680094769116" lon="9.944317441881175"><ele>429.0</ele><time>2026-04-04T10:03:37Z</time></trkpt><trkpt lat="44.66801507933863" lon="9.944155236968294"><ele>429.0</ele><time>2026-04-04T10:03:38Z</time></trkpt><trkpt lat="44.668017543352626" lon="9.943968825719502"><ele>429.0</ele><time>2026-04-04T10:03:39Z</time></trkpt><trkpt lat="44.668007990050604" lon="9.943771608152156"><ele>429.0</ele><time>2026-04-04T10:03:40Z</time></trkpt><trkpt lat="44.667972534383345" lon="9.943604751117002"><ele>429.0</ele><time>2026-04-04T10:03:41Z</time></trkpt><trkpt lat="44.66793423383056" lon="9.943488011700017"><ele>429.0</ele><time>2026-04-04T10:03:42Z</time></trkpt><trkpt lat="44.66791012476176" lon="9.943389727615076"><ele>429.0</ele><time>2026-04-04T10:03:43Z</time></trkpt><trkpt lat="44.667886495253875" lon="9.943292775621417"><ele>429.0</ele><time>2026-04-04T10:03:44Z</time></trkpt><trkpt lat="44.66786041822673" lon="9.943164010636469"><ele>429.0</ele><time>2026-04-04T10:03:45Z</time></trkpt><trkpt lat="44.6678268899174" lon="9.943017626233209"><ele>429.0</ele><time>2026-04-04T10:03:46Z</time></trkpt><trkpt lat="44.66778959005759" lon="9.942848258442003"><ele>429.0</ele><time>2026-04-04T10:03:47Z</time></trkpt><trkpt lat="44.66774539799863" lon="9.942660163454327"><ele>429.0</ele><time>2026-04-04T10:03:48Z</time></trkpt><trkpt lat="44.667693919158275" lon="9.942456027201871"><ele>437.25</ele><time>2026-04-04T10:03:49Z</time></trkpt><trkpt lat="44.667654208111706" lon="9.94225543731726"><ele>445.5</ele><time>2026-04-04T10:03:50Z</time></trkpt><trkpt lat="44.66763048688231" lon="9.942107209812367"><ele>453.75</ele><time>2026-04-04T10:03:51Z</time></trkpt><trkpt lat="44.66759365815192" lon="9.941966602232753"><ele>462.0</ele><time>2026-04-04T10:03:52Z</time></trkpt><trkpt lat="44.66756361356454" lon="9.94183141458303"><ele>461.0</ele><time>2026-04-04T10:03:53Z</time></trkpt><trkpt lat="44.667535127410524" lon="9.941706031435697"><ele>460.00000000000006</ele><time>2026-04-04T10:03:54Z</time></trkpt><trkpt lat="44.667509202259865" lon="9.941582817248989"><ele>459.00000000000006</ele><time>2026-04-04T10:03:55Z</time></trkpt><trkpt lat="44.66748345947836" lon="9.941453736114358"><ele>458.0</ele><time>2026-04-04T10:03:56Z</time></trkpt><trkpt lat="44.667458621660366" lon="9.941323405185118"><ele>457.0</ele><time>2026-04-04T10:03:57Z</time></trkpt><trkpt lat="44.66743348195224" lon="9.941191927030925"><ele>457.0</ele><time>2026-04-04T10:03:58Z</time></trkpt><trkpt lat="44.66740440704885" lon="9.941056695751724"><ele>457.00000000000006</ele><time>2026-04-04T10:03:59Z</time></trkpt><trkpt lat="44.66738093639853" lon="9.94091881321402"><ele>457.00000000000006</ele><time>2026-04-04T10:04:00Z</time></trkpt><trkpt lat="44.66735562967907" lon="9.940778782296439"><ele>457.0</ele><time>2026-04-04T10:04:01Z</time></trkpt><trkpt lat="44.66732277908842" lon="9.94063771705092"><ele>457.0</ele><time>2026-04-04T10:04:02Z</time></trkpt><trkpt lat="44.667300174104945" lon="9.940547054345064"><ele>457.0</ele><time>2026-04-04T10:04:03Z</time></trkpt><trkpt lat="44.66728029720111" lon="9.940400692134933"><ele>457.00000000000006</ele><time>2026-04-04T10:04:10.999Z</time></trkpt><trkpt lat="44.667238621412075" lon="9.940236733784188"><ele>457.00000000000006</ele><time>2026-04-04T10:04:12.999Z</time></trkpt><trkpt lat="44.667204703749285" lon="9.940143776211773"><ele>457.0</ele><time>2026-04-04T10:04:13.999Z</time></trkpt><trkpt lat="44.66715951591039" lon="9.940056609441152"><ele>457.0</ele><time>2026-04-04T10:04:14.999Z</time></trkpt><trkpt lat="44.66707616815736" lon="9.939967163984571"><ele>456.6666666666667</ele><time>2026-04-04T10:04:15.999Z</time></trkpt><trkpt lat="44.66697704389159" lon="9.939932623941157"><ele>456.33333333333337</ele><time>2026-04-04T10:04:16.999Z</time></trkpt><trkpt lat="44.666911467661684" lon="9.939915836406067"><ele>456.0</ele><time>2026-04-04T10:04:17.999Z</time></trkpt><trkpt lat="44.666841673428024" lon="9.939902529271922"><ele>455.66666666666663</ele><time>2026-04-04T10:04:18.999Z</time></trkpt><trkpt lat="44.66676374825498" lon="9.939890211443602"><ele>455.3333333333333</ele><time>2026-04-04T10:04:20.999Z</time></trkpt><trkpt lat="44.666673078126074" lon="9.93987587904348"><ele>455.0</ele><time>2026-04-04T10:04:22.999Z</time></trkpt><trkpt lat="44.66658780263607" lon="9.939874597046442"><ele>470.0</ele><time>2026-04-04T10:04:24.999Z</time></trkpt><trkpt lat="44.6665223975769" lon="9.940395023525937"><ele>485.0</ele><time>2026-04-04T10:04:25.999Z</time></trkpt><trkpt lat="44.666481437068754" lon="9.940490419106087"><ele>485.0</ele><time>2026-04-04T10:04:26.999Z</time></trkpt><trkpt lat="44.666427448845795" lon="9.940574583663828"><ele>485.0</ele><time>2026-04-04T10:04:30.999Z</time></trkpt><trkpt lat="44.666357254460614" lon="9.940688437473325"><ele>485.0</ele><time>2026-04-04T10:04:32.999Z</time></trkpt><trkpt lat="44.66627886491417" lon="9.94080700957234"><ele>485.0</ele><time>2026-04-04T10:04:34.999Z</time></trkpt><trkpt lat="44.666186494936355" lon="9.940899100335416"><ele>485.0</ele><time>2026-04-04T10:04:36.999Z</time></trkpt><trkpt lat="44.66612233480191" lon="9.94095713448175"><ele>486.66666666666663</ele><time>2026-04-04T10:04:37.999Z</time></trkpt><trkpt lat="44.6660470025583" lon="9.9410064966012"><ele>488.3333333333333</ele><time>2026-04-04T10:04:38.999Z</time></trkpt><trkpt lat="44.66598546310177" lon="9.941046009542138"><ele>490.0</ele><time>2026-04-04T10:04:39.999Z</time></trkpt><trkpt lat="44.66590945156006" lon="9.941090783235943"><ele>491.66666666666663</ele><time>2026-04-04T10:04:41.999Z</time></trkpt><trkpt lat="44.66583217803834" lon="9.941077375867224"><ele>493.3333333333333</ele><time>2026-04-04T10:04:43.999Z</time></trkpt><trkpt lat="44.66576775687667" lon="9.941062892379119"><ele>495.0</ele><time>2026-04-04T10:04:45.999Z</time></trkpt><trkpt lat="44.66569272623381" lon="9.941099932443048"><ele>495.0</ele><time>2026-04-04T10:04:48.999Z</time></trkpt><trkpt lat="44.66561212253222" lon="9.941152210993874"><ele>495.0</ele><time>2026-04-04T10:04:50.999Z</time></trkpt><trkpt lat="44.66555044877339" lon="9.94122500709326"><ele>495.0</ele><time>2026-04-04T10:04:52.999Z</time></trkpt><trkpt lat="44.6654809899244" lon="9.941239547514456"><ele>495.0</ele><time>2026-04-04T10:04:54.998Z</time></trkpt><trkpt lat="44.665424024345675" lon="9.941104614814103"><ele>495.0</ele><time>2026-04-04T10:04:56.998Z</time></trkpt><trkpt lat="44.665396584911626" lon="9.941015991340844"><ele>495.0</ele><time>2026-04-04T10:04:57.998Z</time></trkpt><trkpt lat="44.66535011665225" lon="9.940914963339356"><ele>494.6</ele><time>2026-04-04T10:04:58.998Z</time></trkpt><trkpt lat="44.66530804752366" lon="9.940763853600066"><ele>494.2</ele><time>2026-04-04T10:04:59.998Z</time></trkpt><trkpt lat="44.66524619317368" lon="9.940629597323069"><ele>493.79999999999995</ele><time>2026-04-04T10:05:00.998Z</time></trkpt><trkpt lat="44.66519011188766" lon="9.940509689073304"><ele>493.4</ele><time>2026-04-04T10:05:01.998Z</time></trkpt><trkpt lat="44.665139497850305" lon="9.940408906930442"><ele>493.0</ele><time>2026-04-04T10:05:02.998Z</time></trkpt><trkpt lat="44.66509440907976" lon="9.940325779447889"><ele>493.83333333333337</ele><time>2026-04-04T10:05:03.998Z</time></trkpt><trkpt lat="44.66505952101071" lon="9.940229934326371"><ele>494.6666666666667</ele><time>2026-04-04T10:05:04.998Z</time></trkpt><trkpt lat="44.66504996714271" lon="9.94010127458995"><ele>495.5</ele><time>2026-04-04T10:05:06.998Z</time></trkpt><trkpt lat="44.665115899644114" lon="9.939952393556187"><ele>496.33333333333337</ele><time>2026-04-04T10:05:08.998Z</time></trkpt><trkpt lat="44.66517029941448" lon="9.939882564133892"><ele>497.1666666666667</ele><time>2026-04-04T10:05:09.998Z</time></trkpt><trkpt lat="44.66521373117247" lon="9.939803260575887"><ele>498.0</ele><time>2026-04-04T10:05:10.998Z</time></trkpt><trkpt lat="44.665267785236715" lon="9.939705158719187"><ele>496.4</ele><time>2026-04-04T10:05:11.998Z</time></trkpt><trkpt lat="44.66530605313564" lon="9.939587916820882"><ele>494.79999999999995</ele><time>2026-04-04T10:05:12.998Z</time></trkpt><trkpt lat="44.66533749468416" lon="9.939460707594657"><ele>493.2</ele><time>2026-04-04T10:05:13.998Z</time></trkpt><trkpt lat="44.66534303516462" lon="9.939275908784754"><ele>491.6</ele><time>2026-04-04T10:05:14.998Z</time></trkpt><trkpt lat="44.6653272110498" lon="9.939147188676655"><ele>490.0</ele><time>2026-04-04T10:05:15.998Z</time></trkpt><trkpt lat="44.66531584060348" lon="9.939049961760333"><ele>489.6666666666667</ele><time>2026-04-04T10:05:16.998Z</time></trkpt><trkpt lat="44.66530273192451" lon="9.938933294552227"><ele>489.33333333333337</ele><time>2026-04-04T10:05:17.998Z</time></trkpt><trkpt lat="44.66529211723455" lon="9.938829716362877"><ele>489.0</ele><time>2026-04-04T10:05:18.998Z</time></trkpt><trkpt lat="44.66527848653821" lon="9.938692786991826"><ele>488.66666666666663</ele><time>2026-04-04T10:05:19.998Z</time></trkpt><trkpt lat="44.66526851964341" lon="9.938592663195113"><ele>488.3333333333333</ele><time>2026-04-04T10:05:20.998Z</time></trkpt><trkpt lat="44.66525582977888" lon="9.938465185431792"><ele>488.0</ele><time>2026-04-04T10:05:22.998Z</time></trkpt><trkpt lat="44.66492106685647" lon="9.938429196300156"><ele>493.59999999999997</ele><time>2026-04-04T10:05:24.998Z</time></trkpt><trkpt lat="44.664876614064774" lon="9.938499645426752"><ele>499.19999999999993</ele><time>2026-04-04T10:05:37.998Z</time></trkpt><trkpt lat="44.66495025123581" lon="9.93867851089072"><ele>504.8</ele><time>2026-04-04T10:05:41Z</time></trkpt><trkpt lat="44.66498366564498" lon="9.938825507129694"><ele>510.4</ele><time>2026-04-04T10:05:43Z</time></trkpt><trkpt lat="44.664936075861384" lon="9.938979143651588"><ele>516.0</ele><time>2026-04-04T10:05:45Z</time></trkpt><trkpt lat="44.66487183928377" lon="9.939125145143421"><ele>516.0</ele><time>2026-04-04T10:05:47Z</time></trkpt><trkpt lat="44.66483614864654" lon="9.939214406960337"><ele>516.0</ele><time>2026-04-04T10:05:48Z</time></trkpt><trkpt lat="44.66480012704171" lon="9.939295174614147"><ele>516.0</ele><time>2026-04-04T10:05:49Z</time></trkpt><trkpt lat="44.664705142758194" lon="9.939425693759386"><ele>516.0</ele><time>2026-04-04T10:05:51Z</time></trkpt><trkpt lat="44.664660069523585" lon="9.939490169630908"><ele>516.0</ele><time>2026-04-04T10:05:52Z</time></trkpt><trkpt lat="44.664616575491465" lon="9.93957245867567"><ele>516.0</ele><time>2026-04-04T10:05:53Z</time></trkpt><trkpt lat="44.66453767505923" lon="9.939721794584681"><ele>515.2857142857142</ele><time>2026-04-04T10:05:55Z</time></trkpt><trkpt lat="44.66448117918147" lon="9.939763107706431"><ele>514.5714285714286</ele><time>2026-04-04T10:05:56Z</time></trkpt><trkpt lat="44.66441365629843" lon="9.939797586236644"><ele>513.8571428571429</ele><time>2026-04-04T10:05:57Z</time></trkpt><trkpt lat="44.664350278528055" lon="9.939809788002874"><ele>513.1428571428571</ele><time>2026-04-04T10:05:58Z</time></trkpt><trkpt lat="44.66427889774755" lon="9.939752588250043"><ele>512.4285714285714</ele><time>2026-04-04T10:06:00Z</time></trkpt><trkpt lat="44.66425508832544" lon="9.93965559286474"><ele>511.7142857142857</ele><time>2026-04-04T10:06:01Z</time></trkpt><trkpt lat="44.66424539757633" lon="9.939551887812339"><ele>511.0</ele><time>2026-04-04T10:06:02Z</time></trkpt><trkpt lat="44.66423836970459" lon="9.939415915343613"><ele>516.2</ele><time>2026-04-04T10:06:03Z</time></trkpt><trkpt lat="44.66421439299426" lon="9.939312131637294"><ele>521.4000000000001</ele><time>2026-04-04T10:06:04Z</time></trkpt><trkpt lat="44.664181875629446" lon="9.93922131760955"><ele>526.6</ele><time>2026-04-04T10:06:05Z</time></trkpt><trkpt lat="44.66411214078436" lon="9.939058655070625"><ele>531.8000000000001</ele><time>2026-04-04T10:06:07Z</time></trkpt><trkpt lat="44.664067762909795" lon="9.938918437649468"><ele>537.0</ele><time>2026-04-04T10:06:09Z</time></trkpt><trkpt lat="44.66397528349564" lon="9.938797563958596"><ele>539.4</ele><time>2026-04-04T10:06:11Z</time></trkpt><trkpt lat="44.663934992000314" lon="9.938717096217893"><ele>541.8000000000001</ele><time>2026-04-04T10:06:13Z</time></trkpt><trkpt lat="44.663857939666286" lon="9.938643970201754"><ele>544.2</ele><time>2026-04-04T10:06:15Z</time></trkpt><trkpt lat="44.66378157903629" lon="9.938587331917338"><ele>546.6</ele><time>2026-04-04T10:06:16.999Z</time></trkpt><trkpt lat="44.663668095129495" lon="9.938644053390952"><ele>549.0</ele><time>2026-04-04T10:06:18.999Z</time></trkpt><trkpt lat="44.66358924854705" lon="9.93866629445428"><ele>550.8333333333334</ele><time>2026-04-04T10:06:20.999Z</time></trkpt><trkpt lat="44.66352854392864" lon="9.938735417860824"><ele>552.6666666666666</ele><time>2026-04-04T10:06:23.999Z</time></trkpt><trkpt lat="44.66345687305365" lon="9.938684883817281"><ele>554.5</ele><time>2026-04-04T10:06:25.999Z</time></trkpt><trkpt lat="44.66337562372641" lon="9.938584103267994"><ele>556.3333333333333</ele><time>2026-04-04T10:06:27.999Z</time></trkpt><trkpt lat="44.663274402402344" lon="9.93851496995077"><ele>558.1666666666666</ele><time>2026-04-04T10:06:29.999Z</time></trkpt><trkpt lat="44.66323088980678" lon="9.938442682141359"><ele>560.0</ele><time>2026-04-04T10:06:30.999Z</time></trkpt><trkpt lat="44.6631369568496" lon="9.938385501417894"><ele>560.0</ele><time>2026-04-04T10:06:32.999Z</time></trkpt><trkpt lat="44.66306610001864" lon="9.938405330930058"><ele>560.0</ele><time>2026-04-04T10:06:35.999Z</time></trkpt><trkpt lat="44.662991816560314" lon="9.938533003128875"><ele>560.0</ele><time>2026-04-04T10:06:37.999Z</time></trkpt><trkpt lat="44.662899604809745" lon="9.938590715733406"><ele>560.0</ele><time>2026-04-04T10:06:39.999Z</time></trkpt><trkpt lat="44.66284053008787" lon="9.938642319606663"><ele>560.0</ele><time>2026-04-04T10:06:40.999Z</time></trkpt><trkpt lat="44.66277832849697" lon="9.938699842576025"><ele>560.0</ele><time>2026-04-04T10:06:41.999Z</time></trkpt><trkpt lat="44.66267441242143" lon="9.938753963800051"><ele>561.6666666666666</ele><time>2026-04-04T10:06:43.999Z</time></trkpt><trkpt lat="44.662598805641345" lon="9.938863598078903"><ele>563.3333333333333</ele><time>2026-04-04T10:06:45.999Z</time></trkpt><trkpt lat="44.66249634771072" lon="9.938927333434595"><ele>565.0</ele><time>2026-04-04T10:06:47.999Z</time></trkpt><trkpt lat="44.66241549416921" lon="9.938957928166083"><ele>566.6666666666666</ele><time>2026-04-04T10:06:49.999Z</time></trkpt><trkpt lat="44.66236944055221" lon="9.939024732666223"><ele>568.3333333333334</ele><time>2026-04-04T10:06:54.999Z</time></trkpt><trkpt lat="44.66230054563847" lon="9.939037038255844"><ele>570.0</ele><time>2026-04-04T10:06:59.999Z</time></trkpt><trkpt lat="44.66222601726385" lon="9.939011789619268"><ele>570.0</ele><time>2026-04-04T10:07:02.998Z</time></trkpt><trkpt lat="44.66212904608224" lon="9.938994632031918"><ele>570.0</ele><time>2026-04-04T10:07:08.998Z</time></trkpt><trkpt lat="44.66207058118976" lon="9.939069320336744"><ele>570.0</ele><time>2026-04-04T10:07:09.998Z</time></trkpt><trkpt lat="44.66202092002136" lon="9.93914946709138"><ele>570.0</ele><time>2026-04-04T10:07:10.998Z</time></trkpt><trkpt lat="44.66194976350287" lon="9.939239879350657"><ele>570.0</ele><time>2026-04-04T10:07:12.998Z</time></trkpt><trkpt lat="44.66185139967856" lon="9.939148779433031"><ele>571.8</ele><time>2026-04-04T10:07:14.998Z</time></trkpt><trkpt lat="44.66178456827777" lon="9.939117538348404"><ele>573.6</ele><time>2026-04-04T10:07:15.998Z</time></trkpt><trkpt lat="44.66166411089893" lon="9.939081496522396"><ele>575.4</ele><time>2026-04-04T10:07:17.998Z</time></trkpt><trkpt lat="44.661599832959276" lon="9.939056391855338"><ele>577.2</ele><time>2026-04-04T10:07:18.998Z</time></trkpt><trkpt lat="44.661533262168646" lon="9.939044950639362"><ele>579.0</ele><time>2026-04-04T10:07:19.998Z</time></trkpt><trkpt lat="44.66141113750125" lon="9.939010966267489"><ele>579.0</ele><time>2026-04-04T10:07:21.998Z</time></trkpt><trkpt lat="44.661345694654244" lon="9.939087781722312"><ele>579.0</ele><time>2026-04-04T10:07:23.998Z</time></trkpt><trkpt lat="44.66127685013548" lon="9.939134517076644"><ele>579.0</ele><time>2026-04-04T10:07:24.998Z</time></trkpt><trkpt lat="44.6611537579202" lon="9.939172276173068"><ele>579.0</ele><time>2026-04-04T10:07:26.998Z</time></trkpt><trkpt lat="44.66109405428503" lon="9.93923699977377"><ele>579.0</ele><time>2026-04-04T10:07:28.998Z</time></trkpt><trkpt lat="44.661008444650705" lon="9.939290162648378"><ele>579.8</ele><time>2026-04-04T10:07:30.998Z</time></trkpt><trkpt lat="44.66093525381749" lon="9.939335411458279"><ele>580.5999999999999</ele><time>2026-04-04T10:07:31.998Z</time></trkpt><trkpt lat="44.66083939359981" lon="9.93944750815297"><ele>581.4</ele><time>2026-04-04T10:07:33.998Z</time></trkpt><trkpt lat="44.66075526797704" lon="9.939518950297106"><ele>582.1999999999999</ele><time>2026-04-04T10:07:34.998Z</time></trkpt><trkpt lat="44.6606770549309" lon="9.939554173843455"><ele>583.0</ele><time>2026-04-04T10:07:35.998Z</time></trkpt><trkpt lat="44.660608448758545" lon="9.939591701095638"><ele>583.0</ele><time>2026-04-04T10:07:36.998Z</time></trkpt><trkpt lat="44.66053386618274" lon="9.939673025017633"><ele>583.0</ele><time>2026-04-04T10:07:38.998Z</time></trkpt><trkpt lat="44.66053617928395" lon="9.939768010236143"><ele>583.0</ele><time>2026-04-04T10:07:46Z</time></trkpt><trkpt lat="44.66057170437417" lon="9.939945100218546"><ele>583.0</ele><time>2026-04-04T10:07:48Z</time></trkpt><trkpt lat="44.66059474459512" lon="9.940056389561443"><ele>583.0</ele><time>2026-04-04T10:07:49Z</time></trkpt><trkpt lat="44.660625113550914" lon="9.940183141000086"><ele>583.8333333333334</ele><time>2026-04-04T10:07:50Z</time></trkpt><trkpt lat="44.66067683452606" lon="9.940299613535151"><ele>584.6666666666667</ele><time>2026-04-04T10:07:51Z</time></trkpt><trkpt lat="44.66071395066198" lon="9.94041339203392"><ele>585.5</ele><time>2026-04-04T10:07:52Z</time></trkpt><trkpt lat="44.66076846336016" lon="9.940479299471656"><ele>586.3333333333334</ele><time>2026-04-04T10:07:53Z</time></trkpt><trkpt lat="44.660839054524025" lon="9.940514217904099"><ele>587.1666666666666</ele><time>2026-04-04T10:07:54Z</time></trkpt><trkpt lat="44.66092374913485" lon="9.940546644767629"><ele>588.0</ele><time>2026-04-04T10:07:55Z</time></trkpt><trkpt lat="44.66099831123954" lon="9.940627204015884"><ele>588.0</ele><time>2026-04-04T10:07:56Z</time></trkpt><trkpt lat="44.66105862249999" lon="9.940744375287546"><ele>588.0</ele><time>2026-04-04T10:07:57Z</time></trkpt><trkpt lat="44.66109373520074" lon="9.940856210986837"><ele>588.0</ele><time>2026-04-04T10:07:58Z</time></trkpt><trkpt lat="44.6611470457209" lon="9.940943507040515"><ele>588.0</ele><time>2026-04-04T10:07:59Z</time></trkpt><trkpt lat="44.66114966216086" lon="9.94104542720609"><ele>588.0</ele><time>2026-04-04T10:08:00Z</time></trkpt><trkpt lat="44.66116537123532" lon="9.94114166999513"><ele>588.0</ele><time>2026-04-04T10:08:01Z</time></trkpt><trkpt lat="44.66117735862852" lon="9.941276089956915"><ele>587.1666666666666</ele><time>2026-04-04T10:08:02Z</time></trkpt><trkpt lat="44.66118765441176" lon="9.941393978128042"><ele>586.3333333333334</ele><time>2026-04-04T10:08:03Z</time></trkpt><trkpt lat="44.66124564592801" lon="9.94151031345029"><ele>585.5</ele><time>2026-04-04T10:08:05Z</time></trkpt><trkpt lat="44.66129404245338" lon="9.941572948602252"><ele>584.6666666666667</ele><time>2026-04-04T10:08:06Z</time></trkpt><trkpt lat="44.66135266534825" lon="9.941667736173589"><ele>583.8333333333334</ele><time>2026-04-04T10:08:07Z</time></trkpt><trkpt lat="44.66139733241212" lon="9.941802927902918"><ele>583.0</ele><time>2026-04-04T10:08:08Z</time></trkpt><trkpt lat="44.661444134447066" lon="9.941906302032223"><ele>583.0</ele><time>2026-04-04T10:08:09Z</time></trkpt><trkpt lat="44.66151599928555" lon="9.941975750977628"><ele>583.0</ele><time>2026-04-04T10:08:10Z</time></trkpt><trkpt lat="44.66159612220628" lon="9.942023295222572"><ele>583.0</ele><time>2026-04-04T10:08:11Z</time></trkpt><trkpt lat="44.661681738578544" lon="9.94208475580417"><ele>583.0</ele><time>2026-04-04T10:08:12Z</time></trkpt><trkpt lat="44.66171615687782" lon="9.942168220659855"><ele>583.0</ele><time>2026-04-04T10:08:13Z</time></trkpt><trkpt lat="44.66173326763175" lon="9.942288179579238"><ele>583.0</ele><time>2026-04-04T10:08:14Z</time></trkpt><trkpt lat="44.6617256177873" lon="9.942412589969441"><ele>583.0</ele><time>2026-04-04T10:08:15Z</time></trkpt><trkpt lat="44.66170050379571" lon="9.942536009118673"><ele>583.0</ele><time>2026-04-04T10:08:16Z</time></trkpt><trkpt lat="44.66168030031953" lon="9.94263357527572"><ele>583.0</ele><time>2026-04-04T10:08:17Z</time></trkpt><trkpt lat="44.66171840241165" lon="9.942738987201043"><ele>583.0</ele><time>2026-04-04T10:08:18Z</time></trkpt><trkpt lat="44.66172313537916" lon="9.942848927362974"><ele>583.0</ele><time>2026-04-04T10:08:19Z</time></trkpt><trkpt lat="44.66172144938999" lon="9.942981923089453"><ele>583.0</ele><time>2026-04-04T10:08:20Z</time></trkpt><trkpt lat="44.6616961976282" lon="9.94311992956988"><ele>582.4</ele><time>2026-04-04T10:08:21Z</time></trkpt><trkpt lat="44.66165990081773" lon="9.943264574068253"><ele>581.8</ele><time>2026-04-04T10:08:21.999Z</time></trkpt><trkpt lat="44.6616500757352" lon="9.943397203782855"><ele>581.2</ele><time>2026-04-04T10:08:22.999Z</time></trkpt><trkpt lat="44.661633222785746" lon="9.943510907383589"><ele>580.6</ele><time>2026-04-04T10:08:23.999Z</time></trkpt><trkpt lat="44.66161338547146" lon="9.943618761394456"><ele>580.0</ele><time>2026-04-04T10:08:24.999Z</time></trkpt><trkpt lat="44.66158605999221" lon="9.943744993192299"><ele>577.1666666666667</ele><time>2026-04-04T10:08:25.999Z</time></trkpt><trkpt lat="44.66156873245199" lon="9.943849619855676"><ele>574.3333333333334</ele><time>2026-04-04T10:08:26.999Z</time></trkpt><trkpt lat="44.66155194127379" lon="9.943940145719804"><ele>571.5</ele><time>2026-04-04T10:08:27.999Z</time></trkpt><trkpt lat="44.6615633153111" lon="9.944089794934564"><ele>568.6666666666666</ele><time>2026-04-04T10:08:29.999Z</time></trkpt><trkpt lat="44.661614739146586" lon="9.944240355032166"><ele>565.8333333333333</ele><time>2026-04-04T10:08:31.999Z</time></trkpt><trkpt lat="44.6616236366547" lon="9.944331060654502"><ele>563.0</ele><time>2026-04-04T10:08:32.999Z</time></trkpt><trkpt lat="44.66161552530338" lon="9.94448289094652"><ele>560.3333333333333</ele><time>2026-04-04T10:08:34.999Z</time></trkpt><trkpt lat="44.66159310102375" lon="9.944641443974328"><ele>557.6666666666666</ele><time>2026-04-04T10:08:36.999Z</time></trkpt><trkpt lat="44.66155605189555" lon="9.944780549393103"><ele>555.0</ele><time>2026-04-04T10:08:38.999Z</time></trkpt><trkpt lat="44.66152909310142" lon="9.944866886873708"><ele>552.3333333333334</ele><time>2026-04-04T10:08:39.999Z</time></trkpt><trkpt lat="44.661507850676855" lon="9.944966205000359"><ele>549.6666666666667</ele><time>2026-04-04T10:08:40.999Z</time></trkpt><trkpt lat="44.6614981440052" lon="9.945065791191524"><ele>547.0</ele><time>2026-04-04T10:08:41.999Z</time></trkpt><trkpt lat="44.661501295289604" lon="9.945168926058079"><ele>545.3333333333334</ele><time>2026-04-04T10:08:42.999Z</time></trkpt><trkpt lat="44.66150506079093" lon="9.945295856225789"><ele>543.6666666666667</ele><time>2026-04-04T10:08:43.999Z</time></trkpt><trkpt lat="44.66152321168136" lon="9.945425160113064"><ele>542.0</ele><time>2026-04-04T10:08:44.999Z</time></trkpt><trkpt lat="44.66153104771057" lon="9.94553235110245"><ele>540.3333333333334</ele><time>2026-04-04T10:08:45.999Z</time></trkpt><trkpt lat="44.66153513738526" lon="9.945646788426572"><ele>538.6666666666666</ele><time>2026-04-04T10:08:46.999Z</time></trkpt><trkpt lat="44.66156939008399" lon="9.94574896736356"><ele>537.0</ele><time>2026-04-04T10:08:47.999Z</time></trkpt><trkpt lat="44.661587584361854" lon="9.945874661357893"><ele>538.0</ele><time>2026-04-04T10:08:48.999Z</time></trkpt><trkpt lat="44.66161564803376" lon="9.945978667741162"><ele>539.0</ele><time>2026-04-04T10:08:49.999Z</time></trkpt><trkpt lat="44.66161188160626" lon="9.946144607419797"><ele>540.0</ele><time>2026-04-04T10:08:51.999Z</time></trkpt><trkpt lat="44.66155963199111" lon="9.94626408118424"><ele>541.0</ele><time>2026-04-04T10:08:53.999Z</time></trkpt><trkpt lat="44.66153571364079" lon="9.946381476590062"><ele>542.0</ele><time>2026-04-04T10:08:54.999Z</time></trkpt><trkpt lat="44.66150624619137" lon="9.94653818512134"><ele>545.0</ele><time>2026-04-04T10:08:55.999Z</time></trkpt><trkpt lat="44.66148245338045" lon="9.946757488862149"><ele>548.0</ele><time>2026-04-04T10:08:56.999Z</time></trkpt><trkpt lat="44.66147652318558" lon="9.946978700505221"><ele>551.0</ele><time>2026-04-04T10:08:57.999Z</time></trkpt><trkpt lat="44.661457526714386" lon="9.947212591604933"><ele>551.0</ele><time>2026-04-04T10:08:58.999Z</time></trkpt><trkpt lat="44.661422013502545" lon="9.947429939698456"><ele>551.0</ele><time>2026-04-04T10:08:59.999Z</time></trkpt><trkpt lat="44.66137509725104" lon="9.947663227560943"><ele>551.0</ele><time>2026-04-04T10:09:00.999Z</time></trkpt><trkpt lat="44.661347713481774" lon="9.947859183349022"><ele>550.4</ele><time>2026-04-04T10:09:01.999Z</time></trkpt><trkpt lat="44.66133438485123" lon="9.94800370915987"><ele>549.8</ele><time>2026-04-04T10:09:02.999Z</time></trkpt><trkpt lat="44.6613301480258" lon="9.948144234798036"><ele>549.1999999999999</ele><time>2026-04-04T10:09:04.999Z</time></trkpt><trkpt lat="44.66130228000739" lon="9.948251301441157"><ele>548.6</ele><time>2026-04-04T10:09:06.998Z</time></trkpt><trkpt lat="44.66119999092009" lon="9.948291818700085"><ele>548.0</ele><time>2026-04-04T10:09:07.998Z</time></trkpt><trkpt lat="44.66113402645509" lon="9.948325013914934"><ele>548.0</ele><time>2026-04-04T10:09:08.998Z</time></trkpt><trkpt lat="44.66107445681453" lon="9.948357788228769"><ele>542.0</ele><time>2026-04-04T10:09:09.998Z</time></trkpt><trkpt lat="44.66098127081462" lon="9.94839421186463"><ele>536.0</ele><time>2026-04-04T10:09:11.998Z</time></trkpt><trkpt lat="44.66090871629037" lon="9.9484328341145"><ele>536.0</ele><time>2026-04-04T10:09:13.998Z</time></trkpt><trkpt lat="44.66083849273964" lon="9.948480342654298"><ele>536.0</ele><time>2026-04-04T10:09:16.998Z</time></trkpt><trkpt lat="44.660890594157806" lon="9.948423885472524"><ele>536.0</ele><time>2026-04-04T10:14:49.999Z</time></trkpt></trkseg><trkseg><trkpt lat="44.660856253509095" lon="9.948396636182395"><ele>536.0</ele><time>2026-04-04T11:40:15.76Z</time></trkpt><trkpt lat="44.6608647192313" lon="9.948505684742656"><ele>536.0</ele><time>2026-04-04T11:40:16.761Z</time></trkpt><trkpt lat="44.66078844391244" lon="9.948562765503254"><ele>536.0</ele><time>2026-04-04T11:40:17.763Z</time></trkpt><trkpt lat="44.66085298456686" lon="9.948503002533641"><ele>536.0</ele><time>2026-04-04T11:40:20.989Z</time></trkpt><trkpt lat="44.66089993827218" lon="9.94841040744571"><ele>536.0</ele><time>2026-04-04T11:45:48.999Z</time></trkpt><trkpt lat="44.660983510451146" lon="9.94835908733878"><ele>536.0</ele><time>2026-04-04T11:45:50.999Z</time></trkpt><trkpt lat="44.66107138314124" lon="9.94833226149741"><ele>538.4</ele><time>2026-04-04T11:45:52.999Z</time></trkpt><trkpt lat="44.66116848253754" lon="9.948285247158463"><ele>540.8</ele><time>2026-04-04T11:45:54.998Z</time></trkpt><trkpt lat="44.661256428375495" lon="9.948245680287895"><ele>543.1999999999999</ele><time>2026-04-04T11:45:56.998Z</time></trkpt><trkpt lat="44.661326801057434" lon="9.9481460617047"><ele>545.6</ele><time>2026-04-04T11:45:58.998Z</time></trkpt><trkpt lat="44.66134903928119" lon="9.9480035652715"><ele>548.0</ele><time>2026-04-04T11:46:00.998Z</time></trkpt><trkpt lat="44.66136595759449" lon="9.947854938056985"><ele>548.0</ele><time>2026-04-04T11:46:02.998Z</time></trkpt><trkpt lat="44.661386162745934" lon="9.947690955777484"><ele>548.0</ele><time>2026-04-04T11:46:04.998Z</time></trkpt><trkpt lat="44.661417313623545" lon="9.94749985246727"><ele>548.0</ele><time>2026-04-04T11:46:06.998Z</time></trkpt><trkpt lat="44.66144172938688" lon="9.9473923796175"><ele>548.0</ele><time>2026-04-04T11:46:07.998Z</time></trkpt><trkpt lat="44.6614592962971" lon="9.947291612776484"><ele>548.0</ele><time>2026-04-04T11:46:08.998Z</time></trkpt><trkpt lat="44.66147354765556" lon="9.947180693130383"><ele>548.4285714285714</ele><time>2026-04-04T11:46:09.998Z</time></trkpt><trkpt lat="44.66149066614179" lon="9.947081371035289"><ele>548.8571428571429</ele><time>2026-04-04T11:46:10.998Z</time></trkpt><trkpt lat="44.66149551013236" lon="9.946971855586531"><ele>549.2857142857142</ele><time>2026-04-04T11:46:11.998Z</time></trkpt><trkpt lat="44.66149702675335" lon="9.946867031609287"><ele>549.7142857142858</ele><time>2026-04-04T11:46:12.998Z</time></trkpt><trkpt lat="44.661515054567644" lon="9.946770873660732"><ele>550.1428571428571</ele><time>2026-04-04T11:46:13.998Z</time></trkpt><trkpt lat="44.661522518815296" lon="9.946668371924156"><ele>550.5714285714286</ele><time>2026-04-04T11:46:14.998Z</time></trkpt><trkpt lat="44.661535610694834" lon="9.946571181965533"><ele>551.0</ele><time>2026-04-04T11:46:15.998Z</time></trkpt><trkpt lat="44.66156680167077" lon="9.946399245170447"><ele>549.2</ele><time>2026-04-04T11:46:17.998Z</time></trkpt><trkpt lat="44.66156973731886" lon="9.946301394597176"><ele>547.4000000000001</ele><time>2026-04-04T11:46:18.998Z</time></trkpt><trkpt lat="44.66162069641906" lon="9.946155083383909"><ele>545.6</ele><time>2026-04-04T11:46:20.998Z</time></trkpt><trkpt lat="44.66164429432675" lon="9.946071860210694"><ele>543.8000000000001</ele><time>2026-04-04T11:46:21.998Z</time></trkpt><trkpt lat="44.661701561652954" lon="9.94592356818928"><ele>542.0</ele><time>2026-04-04T11:46:23.998Z</time></trkpt><trkpt lat="44.66143662314797" lon="9.945839421417434"><ele>540.3333333333333</ele><time>2026-04-04T11:46:25.998Z</time></trkpt><trkpt lat="44.66137214432391" lon="9.94580116655387"><ele>538.6666666666666</ele><time>2026-04-04T11:46:27.998Z</time></trkpt><trkpt lat="44.66148880331159" lon="9.945386761403048"><ele>537.0</ele><time>2026-04-04T11:46:28.998Z</time></trkpt><trkpt lat="44.661482819698385" lon="9.945266902965802"><ele>537.0</ele><time>2026-04-04T11:46:29.998Z</time></trkpt><trkpt lat="44.66147931062889" lon="9.945148659642205"><ele>537.0</ele><time>2026-04-04T11:46:30.998Z</time></trkpt><trkpt lat="44.6614690711389" lon="9.945037821154502"><ele>537.0</ele><time>2026-04-04T11:46:31.998Z</time></trkpt><trkpt lat="44.6614870322853" lon="9.94492527178181"><ele>537.0</ele><time>2026-04-04T11:46:32.998Z</time></trkpt><trkpt lat="44.66151145522047" lon="9.944827735646564"><ele>537.0</ele><time>2026-04-04T11:46:33.998Z</time></trkpt><trkpt lat="44.661529208626305" lon="9.944735987880039"><ele>537.0</ele><time>2026-04-04T11:46:34.998Z</time></trkpt><trkpt lat="44.66156319477887" lon="9.944635332602179"><ele>539.0</ele><time>2026-04-04T11:46:35.998Z</time></trkpt><trkpt lat="44.661594346983776" lon="9.944549153495958"><ele>541.0</ele><time>2026-04-04T11:46:36.998Z</time></trkpt><trkpt lat="44.661609318010036" lon="9.944399487746086"><ele>543.0</ele><time>2026-04-04T11:46:39Z</time></trkpt><trkpt lat="44.66160684426162" lon="9.944233701877067"><ele>545.0</ele><time>2026-04-04T11:46:41Z</time></trkpt><trkpt lat="44.6615684745657" lon="9.944105534935373"><ele>547.0</ele><time>2026-04-04T11:46:43Z</time></trkpt><trkpt lat="44.66154368344957" lon="9.943955871130246"><ele>550.2</ele><time>2026-04-04T11:46:45Z</time></trkpt><trkpt lat="44.66156486340499" lon="9.94377173953206"><ele>553.4000000000001</ele><time>2026-04-04T11:46:47Z</time></trkpt><trkpt lat="44.66158309777142" lon="9.943672254465397"><ele>556.5999999999999</ele><time>2026-04-04T11:46:48Z</time></trkpt><trkpt lat="44.66160657995298" lon="9.943558731449144"><ele>559.8</ele><time>2026-04-04T11:46:49Z</time></trkpt><trkpt lat="44.661631866253536" lon="9.943439508553691"><ele>563.0</ele><time>2026-04-04T11:46:50Z</time></trkpt><trkpt lat="44.661644838203735" lon="9.943306955423518"><ele>565.8333333333333</ele><time>2026-04-04T11:46:51Z</time></trkpt><trkpt lat="44.66166311613315" lon="9.943170605049913"><ele>568.6666666666666</ele><time>2026-04-04T11:46:52Z</time></trkpt><trkpt lat="44.6616816969227" lon="9.943045394546095"><ele>571.5</ele><time>2026-04-04T11:46:53Z</time></trkpt><trkpt lat="44.66169045609759" lon="9.942932316326461"><ele>574.3333333333334</ele><time>2026-04-04T11:46:54Z</time></trkpt><trkpt lat="44.66169892307365" lon="9.942806710009831"><ele>577.1666666666667</ele><time>2026-04-04T11:46:55Z</time></trkpt><trkpt lat="44.661695349359604" lon="9.94269842276238"><ele>580.0</ele><time>2026-04-04T11:46:56Z</time></trkpt><trkpt lat="44.66167217700572" lon="9.942610410169921"><ele>580.5</ele><time>2026-04-04T11:46:57Z</time></trkpt><trkpt lat="44.661670249246505" lon="9.942485617774969"><ele>581.0</ele><time>2026-04-04T11:46:58Z</time></trkpt><trkpt lat="44.66170171200497" lon="9.94238460575013"><ele>581.5</ele><time>2026-04-04T11:46:59Z</time></trkpt><trkpt lat="44.661708483783165" lon="9.94228540178851"><ele>582.0</ele><time>2026-04-04T11:47:00Z</time></trkpt><trkpt lat="44.66169233489676" lon="9.942174452125288"><ele>582.5</ele><time>2026-04-04T11:47:01Z</time></trkpt><trkpt lat="44.66165153557762" lon="9.942083349803665"><ele>583.0</ele><time>2026-04-04T11:47:02Z</time></trkpt><trkpt lat="44.66159210371827" lon="9.942013428062689"><ele>583.0</ele><time>2026-04-04T11:47:03Z</time></trkpt><trkpt lat="44.66151360851094" lon="9.941973584907842"><ele>583.0</ele><time>2026-04-04T11:47:04Z</time></trkpt><trkpt lat="44.66143482511528" lon="9.941919057617492"><ele>583.0</ele><time>2026-04-04T11:47:05Z</time></trkpt><trkpt lat="44.66138090831969" lon="9.941853369756778"><ele>583.0</ele><time>2026-04-04T11:47:06Z</time></trkpt><trkpt lat="44.66132912907477" lon="9.941754125590043"><ele>583.0</ele><time>2026-04-04T11:47:07Z</time></trkpt><trkpt lat="44.66130456973842" lon="9.94163723920684"><ele>583.0</ele><time>2026-04-04T11:47:08Z</time></trkpt><trkpt lat="44.661273860451324" lon="9.94154363278247"><ele>581.0</ele><time>2026-04-04T11:47:09Z</time></trkpt><trkpt lat="44.66121848092402" lon="9.94147921081546"><ele>579.0</ele><time>2026-04-04T11:47:10Z</time></trkpt><trkpt lat="44.66116701680467" lon="9.941411944792677"><ele>577.0</ele><time>2026-04-04T11:47:11Z</time></trkpt><trkpt lat="44.66114059382097" lon="9.941233320931127"><ele>575.0</ele><time>2026-04-04T11:47:13Z</time></trkpt><trkpt lat="44.661137183616106" lon="9.941118302557644"><ele>573.0</ele><time>2026-04-04T11:47:14Z</time></trkpt><trkpt lat="44.661116905783715" lon="9.940990126747199"><ele>571.0</ele><time>2026-04-04T11:47:15Z</time></trkpt><trkpt lat="44.66108641911476" lon="9.940885349872213"><ele>573.8333333333334</ele><time>2026-04-04T11:47:15.999Z</time></trkpt><trkpt lat="44.66105580403741" lon="9.940794956090421"><ele>576.6666666666667</ele><time>2026-04-04T11:47:16.999Z</time></trkpt><trkpt lat="44.661019013277745" lon="9.940701167197009"><ele>579.5</ele><time>2026-04-04T11:47:17.999Z</time></trkpt><trkpt lat="44.66095277561279" lon="9.940610921754663"><ele>582.3333333333334</ele><time>2026-04-04T11:47:18.999Z</time></trkpt><trkpt lat="44.660879796931326" lon="9.940530659759292"><ele>585.1666666666666</ele><time>2026-04-04T11:47:19.999Z</time></trkpt><trkpt lat="44.660810390771374" lon="9.940484093386678"><ele>588.0</ele><time>2026-04-04T11:47:20.999Z</time></trkpt><trkpt lat="44.66073754929143" lon="9.94043140827011"><ele>588.0</ele><time>2026-04-04T11:47:21.999Z</time></trkpt><trkpt lat="44.660670190786014" lon="9.940376613829079"><ele>588.0</ele><time>2026-04-04T11:47:22.999Z</time></trkpt><trkpt lat="44.660635820246554" lon="9.940286929861717"><ele>588.0</ele><time>2026-04-04T11:47:23.999Z</time></trkpt><trkpt lat="44.6606066298393" lon="9.94016530408321"><ele>588.0</ele><time>2026-04-04T11:47:24.999Z</time></trkpt><trkpt lat="44.66057266833799" lon="9.940039165887216"><ele>588.0</ele><time>2026-04-04T11:47:25.999Z</time></trkpt><trkpt lat="44.66055512265833" lon="9.939937286452892"><ele>588.0</ele><time>2026-04-04T11:47:26.999Z</time></trkpt><trkpt lat="44.66054005540061" lon="9.939849378798355"><ele>587.0</ele><time>2026-04-04T11:47:27.999Z</time></trkpt><trkpt lat="44.660507363043614" lon="9.939703240571466"><ele>586.0</ele><time>2026-04-04T11:47:29.999Z</time></trkpt><trkpt lat="44.660435911815235" lon="9.939651505316304"><ele>585.0</ele><time>2026-04-04T11:47:39.999Z</time></trkpt><trkpt lat="44.660356535207825" lon="9.939543835297487"><ele>584.0</ele><time>2026-04-04T11:47:42.999Z</time></trkpt><trkpt lat="44.66031639342263" lon="9.939472120247531"><ele>583.0</ele><time>2026-04-04T11:47:43.999Z</time></trkpt><trkpt lat="44.66025497584375" lon="9.939329336120368"><ele>583.4</ele><time>2026-04-04T11:47:45.999Z</time></trkpt><trkpt lat="44.6601961100677" lon="9.939238083758426"><ele>583.8</ele><time>2026-04-04T11:47:47.999Z</time></trkpt><trkpt lat="44.6601083696815" lon="9.93913862449421"><ele>584.2</ele><time>2026-04-04T11:47:49.999Z</time></trkpt><trkpt lat="44.66004059201679" lon="9.939004165436353"><ele>584.6</ele><time>2026-04-04T11:47:51.999Z</time></trkpt><trkpt lat="44.660001523644866" lon="9.938920071212605"><ele>585.0</ele><time>2026-04-04T11:47:52.999Z</time></trkpt><trkpt lat="44.65995163859772" lon="9.93885053086744"><ele>585.0</ele><time>2026-04-04T11:47:53.999Z</time></trkpt><trkpt lat="44.659887556410474" lon="9.93878194421252"><ele>585.0</ele><time>2026-04-04T11:47:54.999Z</time></trkpt><trkpt lat="44.65982840658792" lon="9.938697034801757"><ele>585.0</ele><time>2026-04-04T11:47:55.999Z</time></trkpt><trkpt lat="44.659779840665266" lon="9.938599203391874"><ele>585.0</ele><time>2026-04-04T11:47:56.999Z</time></trkpt><trkpt lat="44.659743092246245" lon="9.938496838271801"><ele>585.0</ele><time>2026-04-04T11:47:57.999Z</time></trkpt><trkpt lat="44.659679735321276" lon="9.938384580836724"><ele>585.0</ele><time>2026-04-04T11:47:59.999Z</time></trkpt><trkpt lat="44.65964220775142" lon="9.938312125155978"><ele>586.0</ele><time>2026-04-04T11:48:00.998Z</time></trkpt><trkpt lat="44.65959902173225" lon="9.938219450883228"><ele>587.0</ele><time>2026-04-04T11:48:01.998Z</time></trkpt><trkpt lat="44.659553596082375" lon="9.938150963007493"><ele>588.0</ele><time>2026-04-04T11:48:02.998Z</time></trkpt><trkpt lat="44.65950436722716" lon="9.938088926400322"><ele>589.0</ele><time>2026-04-04T11:48:03.998Z</time></trkpt><trkpt lat="44.659444987886175" lon="9.938017984861252"><ele>590.0</ele><time>2026-04-04T11:48:04.998Z</time></trkpt><trkpt lat="44.65933753468784" lon="9.937939710328237"><ele>591.0</ele><time>2026-04-04T11:48:06.998Z</time></trkpt><trkpt lat="44.659238267051926" lon="9.937937201214144"><ele>591.0</ele><time>2026-04-04T11:48:08.998Z</time></trkpt><trkpt lat="44.65916674670748" lon="9.937918264418382"><ele>591.0</ele><time>2026-04-04T11:48:09.998Z</time></trkpt><trkpt lat="44.659083027778415" lon="9.937874414821737"><ele>591.0</ele><time>2026-04-04T11:48:10.998Z</time></trkpt><trkpt lat="44.65901045332323" lon="9.937811263086504"><ele>591.0</ele><time>2026-04-04T11:48:11.998Z</time></trkpt><trkpt lat="44.65893985109541" lon="9.937723444084206"><ele>591.0</ele><time>2026-04-04T11:48:12.998Z</time></trkpt><trkpt lat="44.65887535576646" lon="9.937655316986788"><ele>591.0</ele><time>2026-04-04T11:48:13.998Z</time></trkpt><trkpt lat="44.6588187631733" lon="9.937615621819598"><ele>591.0</ele><time>2026-04-04T11:48:14.998Z</time></trkpt><trkpt lat="44.65874561312122" lon="9.937567645097253"><ele>591.0</ele><time>2026-04-04T11:48:15.998Z</time></trkpt><trkpt lat="44.658654449705224" lon="9.937510273178782"><ele>591.0</ele><time>2026-04-04T11:48:16.998Z</time></trkpt><trkpt lat="44.6585698079744" lon="9.937433206499575"><ele>591.0</ele><time>2026-04-04T11:48:17.998Z</time></trkpt><trkpt lat="44.65848319521236" lon="9.9373476326463"><ele>591.0</ele><time>2026-04-04T11:48:18.998Z</time></trkpt><trkpt lat="44.65840743319066" lon="9.937269241012844"><ele>591.0</ele><time>2026-04-04T11:48:19.998Z</time></trkpt><trkpt lat="44.658340254747294" lon="9.937194736144"><ele>591.0</ele><time>2026-04-04T11:48:20.998Z</time></trkpt><trkpt lat="44.65828537921132" lon="9.937119071366968"><ele>591.0</ele><time>2026-04-04T11:48:21.998Z</time></trkpt><trkpt lat="44.65823053920919" lon="9.937010789115433"><ele>591.0</ele><time>2026-04-04T11:48:22.998Z</time></trkpt><trkpt lat="44.65816390285954" lon="9.936894930545183"><ele>591.0</ele><time>2026-04-04T11:48:23.998Z</time></trkpt><trkpt lat="44.65809900401542" lon="9.93676338624969"><ele>591.0</ele><time>2026-04-04T11:48:24.998Z</time></trkpt><trkpt lat="44.65803960209899" lon="9.936624133186957"><ele>591.0</ele><time>2026-04-04T11:48:25.998Z</time></trkpt><trkpt lat="44.6579931086243" lon="9.936485884523949"><ele>591.0</ele><time>2026-04-04T11:48:26.998Z</time></trkpt><trkpt lat="44.657962760954995" lon="9.93637915643715"><ele>591.0</ele><time>2026-04-04T11:48:27.998Z</time></trkpt><trkpt lat="44.657930247138324" lon="9.936299828656905"><ele>591.0</ele><time>2026-04-04T11:48:28.998Z</time></trkpt><trkpt lat="44.65788132699109" lon="9.936238858107313"><ele>591.0</ele><time>2026-04-04T11:48:29.998Z</time></trkpt><trkpt lat="44.65782632186892" lon="9.936186056831096"><ele>593.2</ele><time>2026-04-04T11:48:30.998Z</time></trkpt><trkpt lat="44.65776196241205" lon="9.93611102674897"><ele>595.4000000000001</ele><time>2026-04-04T11:48:31.998Z</time></trkpt><trkpt lat="44.657694403422674" lon="9.936033945537826"><ele>597.6</ele><time>2026-04-04T11:48:32.998Z</time></trkpt><trkpt lat="44.65761409004102" lon="9.93592812812963"><ele>599.8000000000001</ele><time>2026-04-04T11:48:34.998Z</time></trkpt><trkpt lat="44.6575636435218" lon="9.935796849166179"><ele>602.0</ele><time>2026-04-04T11:48:36.998Z</time></trkpt><trkpt lat="44.657557923881036" lon="9.93563578611058"><ele>601.1666666666666</ele><time>2026-04-04T11:48:38.998Z</time></trkpt><trkpt lat="44.657614113771196" lon="9.935470939433893"><ele>600.3333333333333</ele><time>2026-04-04T11:48:40.998Z</time></trkpt><trkpt lat="44.65765978018325" lon="9.935400345753024"><ele>599.5</ele><time>2026-04-04T11:48:41.998Z</time></trkpt><trkpt lat="44.6577076799038" lon="9.935334541243252"><ele>598.6666666666666</ele><time>2026-04-04T11:48:42.998Z</time></trkpt><trkpt lat="44.657765091496344" lon="9.93527301503347"><ele>597.8333333333334</ele><time>2026-04-04T11:48:43.998Z</time></trkpt><trkpt lat="44.657819896204636" lon="9.935193263284926"><ele>597.0</ele><time>2026-04-04T11:48:45Z</time></trkpt><trkpt lat="44.657856040524635" lon="9.935037297309284"><ele>598.8333333333334</ele><time>2026-04-04T11:48:47Z</time></trkpt><trkpt lat="44.65785081862348" lon="9.934905655679652"><ele>600.6666666666666</ele><time>2026-04-04T11:48:49Z</time></trkpt><trkpt lat="44.65781990489546" lon="9.934802913394773"><ele>602.5</ele><time>2026-04-04T11:48:51Z</time></trkpt><trkpt lat="44.65779945330645" lon="9.934643983677859"><ele>604.3333333333333</ele><time>2026-04-04T11:48:53Z</time></trkpt><trkpt lat="44.65776507662968" lon="9.934549961615886"><ele>606.1666666666666</ele><time>2026-04-04T11:48:54Z</time></trkpt><trkpt lat="44.65773712254078" lon="9.934452446007262"><ele>608.0</ele><time>2026-04-04T11:48:55Z</time></trkpt><trkpt lat="44.657712398484804" lon="9.934327494505494"><ele>610.5714285714286</ele><time>2026-04-04T11:48:57Z</time></trkpt><trkpt lat="44.657710601308196" lon="9.934216627226553"><ele>613.1428571428572</ele><time>2026-04-04T11:48:59Z</time></trkpt><trkpt lat="44.65771700036497" lon="9.934113158845172"><ele>615.7142857142858</ele><time>2026-04-04T11:49:01Z</time></trkpt><trkpt lat="44.6577210722663" lon="9.934003859692332"><ele>618.2857142857142</ele><time>2026-04-04T11:49:03Z</time></trkpt><trkpt lat="44.657727538390034" lon="9.93390913052185"><ele>620.8571428571429</ele><time>2026-04-04T11:49:06Z</time></trkpt><trkpt lat="44.65773431917671" lon="9.933818034305249"><ele>623.4285714285714</ele><time>2026-04-04T11:49:08Z</time></trkpt><trkpt lat="44.657737166436014" lon="9.933722410252653"><ele>626.0</ele><time>2026-04-04T11:49:10Z</time></trkpt><trkpt lat="44.657715844315284" lon="9.933578034809056"><ele>626.0</ele><time>2026-04-04T11:49:12Z</time></trkpt><trkpt lat="44.65770857484564" lon="9.933414461871838"><ele>626.0</ele><time>2026-04-04T11:49:14Z</time></trkpt><trkpt lat="44.65771546444498" lon="9.93325495750291"><ele>626.0</ele><time>2026-04-04T11:49:16Z</time></trkpt><trkpt lat="44.657736333253325" lon="9.933154673821278"><ele>626.0</ele><time>2026-04-04T11:49:17Z</time></trkpt><trkpt lat="44.6577309730511" lon="9.93305992632888"><ele>626.0</ele><time>2026-04-04T11:49:18Z</time></trkpt><trkpt lat="44.65771442815472" lon="9.932966014704135"><ele>626.0</ele><time>2026-04-04T11:49:19Z</time></trkpt><trkpt lat="44.65769941712106" lon="9.93285517628371"><ele>627.0</ele><time>2026-04-04T11:49:20Z</time></trkpt><trkpt lat="44.65768818662388" lon="9.932763177647635"><ele>628.0</ele><time>2026-04-04T11:49:20.999Z</time></trkpt><trkpt lat="44.657656730385746" lon="9.932638175331094"><ele>629.0</ele><time>2026-04-04T11:49:22.999Z</time></trkpt><trkpt lat="44.65759549683834" lon="9.932541567336802"><ele>630.0</ele><time>2026-04-04T11:49:24.999Z</time></trkpt><trkpt lat="44.65755700438595" lon="9.932468226441868"><ele>631.0</ele><time>2026-04-04T11:49:26.999Z</time></trkpt><trkpt lat="44.65753447504916" lon="9.932374759351411"><ele>632.0</ele><time>2026-04-04T11:49:30.999Z</time></trkpt><trkpt lat="44.65749737409701" lon="9.932291820787418"><ele>633.2</ele><time>2026-04-04T11:49:32.999Z</time></trkpt><trkpt lat="44.65749181021459" lon="9.932126123086231"><ele>634.4000000000001</ele><time>2026-04-04T11:49:34.999Z</time></trkpt><trkpt lat="44.65753172213726" lon="9.932011263266325"><ele>635.5999999999999</ele><time>2026-04-04T11:49:36.999Z</time></trkpt><trkpt lat="44.65761012686568" lon="9.931900072648126"><ele>636.8</ele><time>2026-04-04T11:49:38.999Z</time></trkpt><trkpt lat="44.65767439627367" lon="9.931808361278392"><ele>638.0</ele><time>2026-04-04T11:49:39.999Z</time></trkpt><trkpt lat="44.65772848801304" lon="9.931744762610133"><ele>638.0</ele><time>2026-04-04T11:49:40.999Z</time></trkpt><trkpt lat="44.65778469283211" lon="9.931689821456565"><ele>638.0</ele><time>2026-04-04T11:49:41.999Z</time></trkpt><trkpt lat="44.65784128539787" lon="9.931645638099415"><ele>638.0</ele><time>2026-04-04T11:49:42.999Z</time></trkpt><trkpt lat="44.65790796663642" lon="9.931624761725129"><ele>638.0</ele><time>2026-04-04T11:49:43.999Z</time></trkpt><trkpt lat="44.65796335069454" lon="9.931539855807674"><ele>638.0</ele><time>2026-04-04T11:49:45.999Z</time></trkpt><trkpt lat="44.65799992138629" lon="9.931365718652087"><ele>638.0</ele><time>2026-04-04T11:49:47.999Z</time></trkpt><trkpt lat="44.65804117265313" lon="9.931274363237636"><ele>638.0</ele><time>2026-04-04T11:49:50.999Z</time></trkpt><trkpt lat="44.658112351389775" lon="9.931382340663985"><ele>638.0</ele><time>2026-04-04T11:49:53.999Z</time></trkpt><trkpt lat="44.65817487787635" lon="9.931443110098074"><ele>638.0</ele><time>2026-04-04T11:49:55.999Z</time></trkpt><trkpt lat="44.6582366033929" lon="9.931490305120839"><ele>638.0</ele><time>2026-04-04T11:49:58.999Z</time></trkpt><trkpt lat="44.65832689044352" lon="9.931573846300985"><ele>638.0</ele><time>2026-04-04T11:50:00.999Z</time></trkpt><trkpt lat="44.658427993773515" lon="9.93165810207202"><ele>635.0</ele><time>2026-04-04T11:50:02.999Z</time></trkpt><trkpt lat="44.65852395264371" lon="9.931743560771116"><ele>632.0</ele><time>2026-04-04T11:50:04.999Z</time></trkpt><trkpt lat="44.65859136152635" lon="9.931807810805667"><ele>629.0</ele><time>2026-04-04T11:50:05.998Z</time></trkpt><trkpt lat="44.65870252397381" lon="9.931905145003968"><ele>626.0</ele><time>2026-04-04T11:50:07.998Z</time></trkpt><trkpt lat="44.65875688765297" lon="9.931949931640213"><ele>623.0</ele><time>2026-04-04T11:50:08.998Z</time></trkpt><trkpt lat="44.65884633317963" lon="9.932043088894146"><ele>622.1999999999999</ele><time>2026-04-04T11:50:10.998Z</time></trkpt><trkpt lat="44.65891414390256" lon="9.932145502642795"><ele>621.4</ele><time>2026-04-04T11:50:12.998Z</time></trkpt><trkpt lat="44.658993319430024" lon="9.932225829048772"><ele>620.5999999999999</ele><time>2026-04-04T11:50:14.998Z</time></trkpt><trkpt lat="44.65907053632376" lon="9.932295863926042"><ele>619.8</ele><time>2026-04-04T11:50:16.998Z</time></trkpt><trkpt lat="44.65916769232683" lon="9.932372186168374"><ele>619.0</ele><time>2026-04-04T11:50:18.998Z</time></trkpt><trkpt lat="44.65926028985651" lon="9.9324020910199"><ele>619.0</ele><time>2026-04-04T11:50:20.998Z</time></trkpt><trkpt lat="44.65937087061054" lon="9.932433340179548"><ele>619.0</ele><time>2026-04-04T11:50:22.998Z</time></trkpt><trkpt lat="44.659480727619226" lon="9.93248329877102"><ele>619.0</ele><time>2026-04-04T11:50:24.998Z</time></trkpt><trkpt lat="44.65954192417816" lon="9.932518660872326"><ele>619.0</ele><time>2026-04-04T11:50:25.998Z</time></trkpt><trkpt lat="44.65960189289483" lon="9.932545781698302"><ele>619.0</ele><time>2026-04-04T11:50:26.998Z</time></trkpt><trkpt lat="44.6596718054338" lon="9.932564240098428"><ele>619.0</ele><time>2026-04-04T11:50:27.998Z</time></trkpt><trkpt lat="44.65973758804567" lon="9.932583252270208"><ele>614.5</ele><time>2026-04-04T11:50:28.998Z</time></trkpt><trkpt lat="44.65980784911389" lon="9.9326047569346"><ele>610.0</ele><time>2026-04-04T11:50:29.998Z</time></trkpt><trkpt lat="44.65987197330297" lon="9.932640908708413"><ele>605.5</ele><time>2026-04-04T11:50:30.998Z</time></trkpt><trkpt lat="44.659931239228186" lon="9.932697169280368"><ele>601.0</ele><time>2026-04-04T11:50:31.998Z</time></trkpt><trkpt lat="44.65998617327718" lon="9.93275692395171"><ele>596.5</ele><time>2026-04-04T11:50:32.998Z</time></trkpt><trkpt lat="44.660032894850254" lon="9.932818225897174"><ele>592.0</ele><time>2026-04-04T11:50:33.998Z</time></trkpt><trkpt lat="44.66009941902637" lon="9.932942847869361"><ele>592.0</ele><time>2026-04-04T11:50:35.998Z</time></trkpt><trkpt lat="44.6601307424964" lon="9.93303795106965"><ele>592.0</ele><time>2026-04-04T11:50:36.998Z</time></trkpt><trkpt lat="44.660127534927376" lon="9.933126808615127"><ele>592.0</ele><time>2026-04-04T11:50:37.998Z</time></trkpt><trkpt lat="44.660115978288815" lon="9.933230693963614"><ele>592.0</ele><time>2026-04-04T11:50:38.998Z</time></trkpt><trkpt lat="44.660109947994506" lon="9.933341253164953"><ele>592.0</ele><time>2026-04-04T11:50:39.998Z</time></trkpt><trkpt lat="44.660155283005274" lon="9.933482278696351"><ele>592.0</ele><time>2026-04-04T11:50:41.998Z</time></trkpt><trkpt lat="44.660230147223075" lon="9.933547623051576"><ele>587.4</ele><time>2026-04-04T11:50:43.998Z</time></trkpt><trkpt lat="44.66028883902747" lon="9.933603240199135"><ele>582.8000000000001</ele><time>2026-04-04T11:50:45.998Z</time></trkpt><trkpt lat="44.66038251908519" lon="9.933594542234262"><ele>578.2</ele><time>2026-04-04T11:50:47.998Z</time></trkpt><trkpt lat="44.660474295790664" lon="9.933588252429129"><ele>573.6</ele><time>2026-04-04T11:50:49.998Z</time></trkpt><trkpt lat="44.66058117985728" lon="9.933606595189971"><ele>569.0</ele><time>2026-04-04T11:50:52Z</time></trkpt><trkpt lat="44.6606948261216" lon="9.933613845558417"><ele>569.0</ele><time>2026-04-04T11:50:54Z</time></trkpt><trkpt lat="44.66076194645628" lon="9.933610958906726"><ele>569.0</ele><time>2026-04-04T11:50:55Z</time></trkpt><trkpt lat="44.66083782348478" lon="9.93361927333693"><ele>569.0</ele><time>2026-04-04T11:50:56Z</time></trkpt><trkpt lat="44.66091521493758" lon="9.933619305441589"><ele>569.0</ele><time>2026-04-04T11:50:57Z</time></trkpt><trkpt lat="44.66097953597282" lon="9.933623267097218"><ele>569.0</ele><time>2026-04-04T11:50:58Z</time></trkpt><trkpt lat="44.66109862364313" lon="9.933648209342607"><ele>569.0</ele><time>2026-04-04T11:51:00Z</time></trkpt><trkpt lat="44.661196161950045" lon="9.933669360243044"><ele>567.6</ele><time>2026-04-04T11:51:02Z</time></trkpt><trkpt lat="44.66130807988867" lon="9.933698634678212"><ele>566.2</ele><time>2026-04-04T11:51:04Z</time></trkpt><trkpt lat="44.66141885587715" lon="9.933714640608686"><ele>564.8000000000001</ele><time>2026-04-04T11:51:06Z</time></trkpt><trkpt lat="44.661513901822275" lon="9.93372654776679"><ele>563.4</ele><time>2026-04-04T11:51:08Z</time></trkpt><trkpt lat="44.661582027829645" lon="9.933717436900166"><ele>562.0</ele><time>2026-04-04T11:51:10Z</time></trkpt><trkpt lat="44.66164680670589" lon="9.933721764771752"><ele>562.0</ele><time>2026-04-04T11:51:14Z</time></trkpt><trkpt lat="44.66171641366267" lon="9.933725995621652"><ele>562.0</ele><time>2026-04-04T11:51:17Z</time></trkpt><trkpt lat="44.66179478155779" lon="9.933729983045216"><ele>562.0</ele><time>2026-04-04T11:51:19Z</time></trkpt><trkpt lat="44.661916881269555" lon="9.93369798708631"><ele>562.0</ele><time>2026-04-04T11:51:21Z</time></trkpt><trkpt lat="44.662013017829594" lon="9.933667358446968"><ele>562.0</ele><time>2026-04-04T11:51:23Z</time></trkpt><trkpt lat="44.662104905147515" lon="9.933635535777597"><ele>560.0</ele><time>2026-04-04T11:51:25Z</time></trkpt><trkpt lat="44.66223300787625" lon="9.933651409453072"><ele>558.0</ele><time>2026-04-04T11:51:27Z</time></trkpt><trkpt lat="44.66231605570689" lon="9.933708344695026"><ele>556.0</ele><time>2026-04-04T11:51:27.999Z</time></trkpt><trkpt lat="44.66239845941533" lon="9.933768515528193"><ele>554.0</ele><time>2026-04-04T11:51:28.999Z</time></trkpt><trkpt lat="44.66246159225697" lon="9.933812462771355"><ele>552.0</ele><time>2026-04-04T11:51:29.999Z</time></trkpt><trkpt lat="44.66253186448373" lon="9.933855528795593"><ele>552.0</ele><time>2026-04-04T11:51:30.999Z</time></trkpt><trkpt lat="44.66262006181984" lon="9.933914828808886"><ele>552.0</ele><time>2026-04-04T11:51:31.999Z</time></trkpt><trkpt lat="44.662698500427005" lon="9.933980864410707"><ele>552.0</ele><time>2026-04-04T11:51:32.999Z</time></trkpt><trkpt lat="44.66276131809501" lon="9.934049839717732"><ele>552.0</ele><time>2026-04-04T11:51:33.999Z</time></trkpt><trkpt lat="44.662826851183716" lon="9.93414329704577"><ele>552.0</ele><time>2026-04-04T11:51:35.999Z</time></trkpt><trkpt lat="44.662748289046824" lon="9.934183116933497"><ele>552.0</ele><time>2026-04-04T11:51:56.999Z</time></trkpt><trkpt lat="44.66274410082078" lon="9.934287799573948"><ele>550.1666666666666</ele><time>2026-04-04T11:51:58.999Z</time></trkpt><trkpt lat="44.66277341607065" lon="9.934377221059211"><ele>548.3333333333334</ele><time>2026-04-04T11:52:00.999Z</time></trkpt><trkpt lat="44.66280882423601" lon="9.934457549521387"><ele>546.5</ele><time>2026-04-04T11:52:02.999Z</time></trkpt><trkpt lat="44.66276717362918" lon="9.934557278446094"><ele>544.6666666666667</ele><time>2026-04-04T11:52:04.999Z</time></trkpt><trkpt lat="44.66268813672232" lon="9.934647648210225"><ele>542.8333333333334</ele><time>2026-04-04T11:52:06.999Z</time></trkpt><trkpt lat="44.66261856143608" lon="9.9347280393845"><ele>541.0</ele><time>2026-04-04T11:52:08.999Z</time></trkpt><trkpt lat="44.66259569814054" lon="9.93483602873335"><ele>541.0</ele><time>2026-04-04T11:52:10.999Z</time></trkpt><trkpt lat="44.66267538777183" lon="9.934893658230411"><ele>541.0</ele><time>2026-04-04T11:52:12.998Z</time></trkpt><trkpt lat="44.66278613381355" lon="9.934849412289887"><ele>541.0</ele><time>2026-04-04T11:52:14.998Z</time></trkpt><trkpt lat="44.66289187204368" lon="9.934827387846298"><ele>541.0</ele><time>2026-04-04T11:52:16.998Z</time></trkpt><trkpt lat="44.66300534461522" lon="9.934810174883168"><ele>541.0</ele><time>2026-04-04T11:52:18.998Z</time></trkpt><trkpt lat="44.66311531625137" lon="9.934746848018039"><ele>538.3333333333334</ele><time>2026-04-04T11:52:20.998Z</time></trkpt><trkpt lat="44.663229664740804" lon="9.9346676981729"><ele>535.6666666666667</ele><time>2026-04-04T11:52:22.998Z</time></trkpt><trkpt lat="44.66332890652518" lon="9.934664105806851"><ele>533.0</ele><time>2026-04-04T11:52:24.998Z</time></trkpt><trkpt lat="44.66339507183791" lon="9.934699154733064"><ele>530.3333333333334</ele><time>2026-04-04T11:52:25.998Z</time></trkpt><trkpt lat="44.663430065205105" lon="9.9347801698944"><ele>527.6666666666666</ele><time>2026-04-04T11:52:26.998Z</time></trkpt><trkpt lat="44.66343794090538" lon="9.93486942725451"><ele>525.0</ele><time>2026-04-04T11:52:27.998Z</time></trkpt><trkpt lat="44.663427992249595" lon="9.934968617683356"><ele>526.1666666666666</ele><time>2026-04-04T11:52:28.998Z</time></trkpt><trkpt lat="44.663418214131454" lon="9.935063367921094"><ele>527.3333333333334</ele><time>2026-04-04T11:52:29.998Z</time></trkpt><trkpt lat="44.663415770501345" lon="9.935162170606901"><ele>528.5</ele><time>2026-04-04T11:52:30.998Z</time></trkpt><trkpt lat="44.66339102164601" lon="9.935317850491087"><ele>529.6666666666667</ele><time>2026-04-04T11:52:32.998Z</time></trkpt><trkpt lat="44.66335711537143" lon="9.935393985134573"><ele>530.8333333333334</ele><time>2026-04-04T11:52:33.998Z</time></trkpt><trkpt lat="44.66327160013342" lon="9.93549680218742"><ele>532.0</ele><time>2026-04-04T11:52:35.998Z</time></trkpt><trkpt lat="44.663289802364304" lon="9.935603811646333"><ele>532.0</ele><time>2026-04-04T11:52:37.998Z</time></trkpt><trkpt lat="44.6633887102794" lon="9.935655165941354"><ele>532.0</ele><time>2026-04-04T11:52:39.998Z</time></trkpt><trkpt lat="44.66345570482111" lon="9.935665562217421"><ele>532.0</ele><time>2026-04-04T11:52:40.998Z</time></trkpt><trkpt lat="44.66353283375304" lon="9.9356560262442"><ele>532.0</ele><time>2026-04-04T11:52:41.998Z</time></trkpt><trkpt lat="44.663629231808216" lon="9.935633712278028"><ele>532.0</ele><time>2026-04-04T11:52:42.998Z</time></trkpt><trkpt lat="44.66371790436798" lon="9.935624585056834"><ele>532.0</ele><time>2026-04-04T11:52:43.998Z</time></trkpt><trkpt lat="44.66381742140226" lon="9.935620240177016"><ele>531.1666666666667</ele><time>2026-04-04T11:52:44.998Z</time></trkpt><trkpt lat="44.663907195871765" lon="9.93559694126709"><ele>530.3333333333334</ele><time>2026-04-04T11:52:45.998Z</time></trkpt><trkpt lat="44.6639742248019" lon="9.935580236137715"><ele>529.5</ele><time>2026-04-04T11:52:46.998Z</time></trkpt><trkpt lat="44.664073376904376" lon="9.935621177728567"><ele>528.6666666666666</ele><time>2026-04-04T11:52:48.998Z</time></trkpt><trkpt lat="44.66414085135828" lon="9.935654355086282"><ele>527.8333333333333</ele><time>2026-04-04T11:52:49.998Z</time></trkpt><trkpt lat="44.66421085373402" lon="9.935684748734005"><ele>527.0</ele><time>2026-04-04T11:52:50.998Z</time></trkpt><trkpt lat="44.6642938656192" lon="9.935694060060685"><ele>527.0</ele><time>2026-04-04T11:52:51.998Z</time></trkpt><trkpt lat="44.664382414540725" lon="9.935693210248713"><ele>527.0</ele><time>2026-04-04T11:52:52.998Z</time></trkpt><trkpt lat="44.664465077063205" lon="9.935719315446047"><ele>527.0</ele><time>2026-04-04T11:52:53.998Z</time></trkpt><trkpt lat="44.66452913494913" lon="9.935774042399586"><ele>527.0</ele><time>2026-04-04T11:52:54.998Z</time></trkpt><trkpt lat="44.66458753895821" lon="9.935856746427874"><ele>527.0</ele><time>2026-04-04T11:52:55.998Z</time></trkpt><trkpt lat="44.66464753196966" lon="9.935946518950285"><ele>527.0</ele><time>2026-04-04T11:52:57Z</time></trkpt><trkpt lat="44.66470122058274" lon="9.936049494611256"><ele>525.3333333333333</ele><time>2026-04-04T11:52:58Z</time></trkpt><trkpt lat="44.664731877492216" lon="9.93614003799105"><ele>523.6666666666666</ele><time>2026-04-04T11:52:59Z</time></trkpt><trkpt lat="44.664767726521205" lon="9.936259327391525"><ele>522.0</ele><time>2026-04-04T11:53:00Z</time></trkpt><trkpt lat="44.66478510319415" lon="9.936378734256808"><ele>520.3333333333334</ele><time>2026-04-04T11:53:01Z</time></trkpt><trkpt lat="44.66479414970747" lon="9.93646704603434"><ele>518.6666666666667</ele><time>2026-04-04T11:53:02Z</time></trkpt><trkpt lat="44.664783291823305" lon="9.936634461298048"><ele>517.0</ele><time>2026-04-04T11:53:04Z</time></trkpt><trkpt lat="44.66475154582484" lon="9.936797029069734"><ele>515.4</ele><time>2026-04-04T11:53:06Z</time></trkpt><trkpt lat="44.66469469494643" lon="9.936969434689484"><ele>513.8000000000001</ele><time>2026-04-04T11:53:08Z</time></trkpt><trkpt lat="44.664654546117234" lon="9.937096381278787"><ele>512.2</ele><time>2026-04-04T11:53:09Z</time></trkpt><trkpt lat="44.66462189595653" lon="9.93721464443123"><ele>510.6</ele><time>2026-04-04T11:53:10Z</time></trkpt><trkpt lat="44.664597329234816" lon="9.937346121499964"><ele>509.0</ele><time>2026-04-04T11:53:11Z</time></trkpt><trkpt lat="44.66456929718988" lon="9.93745455517824"><ele>508.79999999999995</ele><time>2026-04-04T11:53:12Z</time></trkpt><trkpt lat="44.66454496985176" lon="9.937561954261692"><ele>508.59999999999997</ele><time>2026-04-04T11:53:13Z</time></trkpt><trkpt lat="44.664546572417336" lon="9.937663231840029"><ele>508.4</ele><time>2026-04-04T11:53:14Z</time></trkpt><trkpt lat="44.664573526313674" lon="9.937775487184092"><ele>508.2</ele><time>2026-04-04T11:53:15Z</time></trkpt><trkpt lat="44.664625155147775" lon="9.93792063456497"><ele>508.0</ele><time>2026-04-04T11:53:16Z</time></trkpt><trkpt lat="44.66466608363041" lon="9.938046442442811"><ele>508.0</ele><time>2026-04-04T11:53:17Z</time></trkpt><trkpt lat="44.66472303723816" lon="9.938147547725313"><ele>507.99999999999994</ele><time>2026-04-04T11:53:18Z</time></trkpt><trkpt lat="44.664796772754926" lon="9.93824176540754"><ele>507.99999999999994</ele><time>2026-04-04T11:53:19Z</time></trkpt><trkpt lat="44.66486053086079" lon="9.938325837171657"><ele>508.0</ele><time>2026-04-04T11:53:20Z</time></trkpt><trkpt lat="44.66491081054501" lon="9.93838229192579"><ele>508.0</ele><time>2026-04-04T11:53:21Z</time></trkpt><trkpt lat="44.66501327604315" lon="9.938465094048322"><ele>509.33333333333337</ele><time>2026-04-04T11:53:23Z</time></trkpt><trkpt lat="44.665071290426944" lon="9.938542602514941"><ele>510.6666666666667</ele><time>2026-04-04T11:53:24Z</time></trkpt><trkpt lat="44.66511629212125" lon="9.93862701306113"><ele>512.0</ele><time>2026-04-04T11:53:25Z</time></trkpt><trkpt lat="44.66513984784024" lon="9.938713292146243"><ele>513.3333333333334</ele><time>2026-04-04T11:53:26Z</time></trkpt><trkpt lat="44.66516773384181" lon="9.938841221365733"><ele>514.6666666666666</ele><time>2026-04-04T11:53:27Z</time></trkpt><trkpt lat="44.66517637322312" lon="9.938987083805385"><ele>516.0</ele><time>2026-04-04T11:53:28Z</time></trkpt><trkpt lat="44.665185732502934" lon="9.93912120035715"><ele>515.2857142857142</ele><time>2026-04-04T11:53:29Z</time></trkpt><trkpt lat="44.66519464273297" lon="9.93923343570601"><ele>514.5714285714286</ele><time>2026-04-04T11:53:30Z</time></trkpt><trkpt lat="44.66521651106613" lon="9.939340835902856"><ele>513.8571428571429</ele><time>2026-04-04T11:53:31Z</time></trkpt><trkpt lat="44.665242313515996" lon="9.939440362916285"><ele>513.1428571428571</ele><time>2026-04-04T11:53:32Z</time></trkpt><trkpt lat="44.665255513741315" lon="9.939536496769637"><ele>512.4285714285714</ele><time>2026-04-04T11:53:33Z</time></trkpt><trkpt lat="44.6652473121563" lon="9.939630794181308"><ele>511.7142857142857</ele><time>2026-04-04T11:53:33.999Z</time></trkpt><trkpt lat="44.665233505696605" lon="9.939723432052661"><ele>511.0</ele><time>2026-04-04T11:53:34.999Z</time></trkpt><trkpt lat="44.66519000427488" lon="9.93985645727176"><ele>511.00000000000006</ele><time>2026-04-04T11:53:36.999Z</time></trkpt><trkpt lat="44.66512071207449" lon="9.939889864397863"><ele>511.0</ele><time>2026-04-04T11:53:42.999Z</time></trkpt><trkpt lat="44.66506364397892" lon="9.93995412497884"><ele>511.0</ele><time>2026-04-04T11:53:45.999Z</time></trkpt><trkpt lat="44.66499526697594" lon="9.940051381010736"><ele>511.0</ele><time>2026-04-04T11:53:47.999Z</time></trkpt><trkpt lat="44.66506249796422" lon="9.93992645152394"><ele>511.00000000000006</ele><time>2026-04-04T11:54:06.999Z</time></trkpt><trkpt lat="44.66511199242089" lon="9.93986183453915"><ele>511.0</ele><time>2026-04-04T11:54:07.999Z</time></trkpt><trkpt lat="44.66511408065761" lon="9.9399649767979"><ele>508.4</ele><time>2026-04-04T11:54:14.999Z</time></trkpt><trkpt lat="44.665063681396205" lon="9.940058850151898"><ele>505.8</ele><time>2026-04-04T11:54:16.999Z</time></trkpt><trkpt lat="44.66503623048105" lon="9.94018609871726"><ele>503.19999999999993</ele><time>2026-04-04T11:54:18.998Z</time></trkpt><trkpt lat="44.66508980800676" lon="9.94034142570526"><ele>500.59999999999997</ele><time>2026-04-04T11:54:20.998Z</time></trkpt><trkpt lat="44.665144218374586" lon="9.940422097576398"><ele>498.0</ele><time>2026-04-04T11:54:21.998Z</time></trkpt><trkpt lat="44.66520624876349" lon="9.940534701465804"><ele>498.0</ele><time>2026-04-04T11:54:22.998Z</time></trkpt><trkpt lat="44.66525954429431" lon="9.940636911640274"><ele>498.0</ele><time>2026-04-04T11:54:23.998Z</time></trkpt><trkpt lat="44.66530479058676" lon="9.940737373065005"><ele>498.0</ele><time>2026-04-04T11:54:24.998Z</time></trkpt><trkpt lat="44.66535081213552" lon="9.940833037395267"><ele>498.0</ele><time>2026-04-04T11:54:25.998Z</time></trkpt><trkpt lat="44.66538139243444" lon="9.940917744957959"><ele>498.0</ele><time>2026-04-04T11:54:26.998Z</time></trkpt><trkpt lat="44.66541779478759" lon="9.941004528097313"><ele>498.0</ele><time>2026-04-04T11:54:27.998Z</time></trkpt><trkpt lat="44.66545266183893" lon="9.94109210225849"><ele>497.5</ele><time>2026-04-04T11:54:28.998Z</time></trkpt><trkpt lat="44.66546570709163" lon="9.94119218257306"><ele>497.0</ele><time>2026-04-04T11:54:31.998Z</time></trkpt><trkpt lat="44.665528185822126" lon="9.94122437349053"><ele>496.5</ele><time>2026-04-04T11:54:39.998Z</time></trkpt><trkpt lat="44.66560537595256" lon="9.941130672875513"><ele>496.0</ele><time>2026-04-04T11:55:07Z</time></trkpt><trkpt lat="44.66567646287743" lon="9.941070683524302"><ele>495.5</ele><time>2026-04-04T11:55:09Z</time></trkpt><trkpt lat="44.66579254953648" lon="9.941057273719245"><ele>495.0</ele><time>2026-04-04T11:55:11Z</time></trkpt><trkpt lat="44.66585755124729" lon="9.941050031773322"><ele>495.0</ele><time>2026-04-04T11:55:12Z</time></trkpt><trkpt lat="44.665932320903366" lon="9.941087514994733"><ele>495.0</ele><time>2026-04-04T11:55:14Z</time></trkpt><trkpt lat="44.665999924027474" lon="9.941085407139544"><ele>495.0</ele><time>2026-04-04T11:55:16Z</time></trkpt><trkpt lat="44.6660921166776" lon="9.940949421749671"><ele>495.0</ele><time>2026-04-04T11:55:18Z</time></trkpt><trkpt lat="44.666196876459225" lon="9.940871008086864"><ele>495.0</ele><time>2026-04-04T11:55:20Z</time></trkpt><trkpt lat="44.66624823016752" lon="9.940815827539836"><ele>493.3333333333333</ele><time>2026-04-04T11:55:21Z</time></trkpt><trkpt lat="44.66629699376448" lon="9.94075652362247"><ele>491.66666666666663</ele><time>2026-04-04T11:55:22Z</time></trkpt><trkpt lat="44.66635387374907" lon="9.940649747759764"><ele>490.0</ele><time>2026-04-04T11:55:24Z</time></trkpt><trkpt lat="44.666420087036435" lon="9.94053500429286"><ele>488.3333333333333</ele><time>2026-04-04T11:55:26Z</time></trkpt><trkpt lat="44.66647246883288" lon="9.940436994890172"><ele>486.66666666666663</ele><time>2026-04-04T11:55:28Z</time></trkpt><trkpt lat="44.66652196067105" lon="9.940363378881777"><ele>485.0</ele><time>2026-04-04T11:55:30Z</time></trkpt><trkpt lat="44.66656418836124" lon="9.940273910597945"><ele>485.0</ele><time>2026-04-04T11:55:32Z</time></trkpt><trkpt lat="44.66664410899061" lon="9.940197170740586"><ele>485.0</ele><time>2026-04-04T11:55:34Z</time></trkpt><trkpt lat="44.666749417835554" lon="9.940119032405619"><ele>485.0</ele><time>2026-04-04T11:55:36Z</time></trkpt><trkpt lat="44.666851129401735" lon="9.940048127191554"><ele>485.0</ele><time>2026-04-04T11:55:38Z</time></trkpt><trkpt lat="44.66693813082195" lon="9.94006449704141"><ele>485.0</ele><time>2026-04-04T11:55:39.999Z</time></trkpt><trkpt lat="44.66705845439117" lon="9.94010289853049"><ele>479.4</ele><time>2026-04-04T11:55:41.999Z</time></trkpt><trkpt lat="44.667111985642116" lon="9.94015114469903"><ele>473.8</ele><time>2026-04-04T11:55:42.999Z</time></trkpt><trkpt lat="44.6671649913235" lon="9.940270243868483"><ele>468.20000000000005</ele><time>2026-04-04T11:55:44.999Z</time></trkpt><trkpt lat="44.66723958123056" lon="9.9403971904755"><ele>462.6</ele><time>2026-04-04T11:55:46.999Z</time></trkpt><trkpt lat="44.66730244285945" lon="9.94052117787049"><ele>457.0</ele><time>2026-04-04T11:55:48.999Z</time></trkpt><trkpt lat="44.66733405142614" lon="9.940673974064175"><ele>457.0</ele><time>2026-04-04T11:55:49.999Z</time></trkpt><trkpt lat="44.667362906990014" lon="9.940828670750767"><ele>457.00000000000006</ele><time>2026-04-04T11:55:50.999Z</time></trkpt><trkpt lat="44.66739137229583" lon="9.940994629606665"><ele>457.00000000000006</ele><time>2026-04-04T11:55:51.999Z</time></trkpt><trkpt lat="44.66741931042624" lon="9.941143824778814"><ele>457.0</ele><time>2026-04-04T11:55:52.999Z</time></trkpt><trkpt lat="44.667447847333484" lon="9.941283151721265"><ele>457.0</ele><time>2026-04-04T11:55:53.999Z</time></trkpt><trkpt lat="44.66747676850407" lon="9.941433283386806"><ele>457.0</ele><time>2026-04-04T11:55:54.999Z</time></trkpt><trkpt lat="44.667514330017376" lon="9.941589713341866"><ele>457.0</ele><time>2026-04-04T11:55:55.999Z</time></trkpt><trkpt lat="44.66755050469281" lon="9.9417507963792"><ele>457.0</ele><time>2026-04-04T11:55:56.999Z</time></trkpt><trkpt lat="44.66758791993163" lon="9.941917206564575"><ele>457.0</ele><time>2026-04-04T11:55:57.999Z</time></trkpt><trkpt lat="44.667614759162625" lon="9.942080050604352"><ele>458.25</ele><time>2026-04-04T11:55:58.999Z</time></trkpt><trkpt lat="44.66765622099354" lon="9.942236258176461"><ele>459.5</ele><time>2026-04-04T11:55:59.999Z</time></trkpt><trkpt lat="44.66770097512839" lon="9.942399512031223"><ele>460.75</ele><time>2026-04-04T11:56:00.999Z</time></trkpt><trkpt lat="44.667731837432235" lon="9.942571039899262"><ele>462.0</ele><time>2026-04-04T11:56:01.999Z</time></trkpt><trkpt lat="44.66777212366903" lon="9.942759215170407"><ele>453.75</ele><time>2026-04-04T11:56:02.999Z</time></trkpt><trkpt lat="44.6678103412251" lon="9.94294701825492"><ele>445.5</ele><time>2026-04-04T11:56:03.999Z</time></trkpt><trkpt lat="44.66785307743246" lon="9.943126402242385"><ele>437.25</ele><time>2026-04-04T11:56:04.999Z</time></trkpt><trkpt lat="44.66785335112377" lon="9.943311821684633"><ele>429.0</ele><time>2026-04-04T11:56:05.999Z</time></trkpt><trkpt lat="44.66789397357224" lon="9.943473796351347"><ele>428.6</ele><time>2026-04-04T11:56:06.999Z</time></trkpt><trkpt lat="44.66793038853992" lon="9.943629882555209"><ele>428.2</ele><time>2026-04-04T11:56:07.999Z</time></trkpt><trkpt lat="44.667956828363096" lon="9.943774820150564"><ele>427.80000000000007</ele><time>2026-04-04T11:56:08.999Z</time></trkpt><trkpt lat="44.66797495070213" lon="9.943901303567724"><ele>427.40000000000003</ele><time>2026-04-04T11:56:09.999Z</time></trkpt><trkpt lat="44.66798064937801" lon="9.944018215513747"><ele>427.0</ele><time>2026-04-04T11:56:10.999Z</time></trkpt><trkpt lat="44.667974995550715" lon="9.94411700780484"><ele>427.33333333333337</ele><time>2026-04-04T11:56:11.999Z</time></trkpt><trkpt lat="44.66797510619014" lon="9.944255174362777"><ele>427.6666666666667</ele><time>2026-04-04T11:56:13.999Z</time></trkpt><trkpt lat="44.6679713741737" lon="9.944349212304461"><ele>428.0</ele><time>2026-04-04T11:56:15.999Z</time></trkpt><trkpt lat="44.667997282269596" lon="9.944478940419907"><ele>428.33333333333337</ele><time>2026-04-04T11:56:17.999Z</time></trkpt><trkpt lat="44.6680009296976" lon="9.944602864697808"><ele>428.6666666666667</ele><time>2026-04-04T11:56:19.999Z</time></trkpt><trkpt lat="44.668090757751365" lon="9.94454206886761"><ele>429.0</ele><time>2026-04-04T11:56:21.999Z</time></trkpt><trkpt lat="44.66838904799241" lon="9.945123914001872"><ele>429.3333333333333</ele><time>2026-04-04T11:56:30.998Z</time></trkpt><trkpt lat="44.668425978325075" lon="9.945220320524943"><ele>429.66666666666663</ele><time>2026-04-04T11:56:31.998Z</time></trkpt><trkpt lat="44.668449301768185" lon="9.945319615588502"><ele>430.0</ele><time>2026-04-04T11:56:32.998Z</time></trkpt><trkpt lat="44.668440618318655" lon="9.94541639635308"><ele>430.3333333333333</ele><time>2026-04-04T11:56:33.998Z</time></trkpt><trkpt lat="44.66844732543055" lon="9.945524257835201"><ele>430.66666666666663</ele><time>2026-04-04T11:56:34.998Z</time></trkpt><trkpt lat="44.66844155545035" lon="9.94563013511446"><ele>431.0</ele><time>2026-04-04T11:56:35.998Z</time></trkpt><trkpt lat="44.66844130519308" lon="9.945747901377368"><ele>431.0</ele><time>2026-04-04T11:56:36.998Z</time></trkpt><trkpt lat="44.66844701991855" lon="9.945874506070437"><ele>431.0</ele><time>2026-04-04T11:56:37.998Z</time></trkpt><trkpt lat="44.66844820126419" lon="9.945987558663159"><ele>431.0</ele><time>2026-04-04T11:56:38.998Z</time></trkpt><trkpt lat="44.66846551584271" lon="9.946120689633862"><ele>431.0</ele><time>2026-04-04T11:56:39.998Z</time></trkpt><trkpt lat="44.66849496919307" lon="9.946254994555424"><ele>431.0</ele><time>2026-04-04T11:56:40.998Z</time></trkpt><trkpt lat="44.6685264151342" lon="9.946384348190067"><ele>430.66666666666663</ele><time>2026-04-04T11:56:41.998Z</time></trkpt><trkpt lat="44.66854101588168" lon="9.946517741300614"><ele>430.3333333333333</ele><time>2026-04-04T11:56:42.998Z</time></trkpt><trkpt lat="44.66854721407304" lon="9.946650728201044"><ele>430.0</ele><time>2026-04-04T11:56:43.998Z</time></trkpt><trkpt lat="44.66853704443832" lon="9.946775837952108"><ele>429.66666666666663</ele><time>2026-04-04T11:56:44.998Z</time></trkpt><trkpt lat="44.66851835779309" lon="9.946885584634181"><ele>429.3333333333333</ele><time>2026-04-04T11:56:45.998Z</time></trkpt><trkpt lat="44.668474617765874" lon="9.946985435026528"><ele>429.0</ele><time>2026-04-04T11:56:46.998Z</time></trkpt><trkpt lat="44.66843084498515" lon="9.94707547230828"><ele>428.5</ele><time>2026-04-04T11:56:47.998Z</time></trkpt><trkpt lat="44.66836759759027" lon="9.947149536362243"><ele>428.0</ele><time>2026-04-04T11:56:48.998Z</time></trkpt><trkpt lat="44.668297205633515" lon="9.947214529215252"><ele>427.5</ele><time>2026-04-04T11:56:49.998Z</time></trkpt><trkpt lat="44.66821781761112" lon="9.947285460418703"><ele>427.0</ele><time>2026-04-04T11:56:50.998Z</time></trkpt><trkpt lat="44.668150686909215" lon="9.94734424023926"><ele>426.5</ele><time>2026-04-04T11:56:51.998Z</time></trkpt><trkpt lat="44.668078344214486" lon="9.947381044422759"><ele>426.0</ele><time>2026-04-04T11:56:52.998Z</time></trkpt><trkpt lat="44.6679744253678" lon="9.947404305721262"><ele>426.0</ele><time>2026-04-04T11:56:54.998Z</time></trkpt><trkpt lat="44.66795229700096" lon="9.947522528432222"><ele>426.0</ele><time>2026-04-04T11:56:56.998Z</time></trkpt><trkpt lat="44.66801122045" lon="9.947593560949642"><ele>426.0</ele><time>2026-04-04T11:56:57.998Z</time></trkpt><trkpt lat="44.66807463279875" lon="9.94766677110726"><ele>426.0</ele><time>2026-04-04T11:56:58.998Z</time></trkpt><trkpt lat="44.66815331111921" lon="9.947746728617716"><ele>426.0</ele><time>2026-04-04T11:56:59.998Z</time></trkpt><trkpt lat="44.66825562034933" lon="9.947823722434922"><ele>426.5</ele><time>2026-04-04T11:57:00.998Z</time></trkpt><trkpt lat="44.66834048089942" lon="9.947883228422231"><ele>427.0</ele><time>2026-04-04T11:57:01.998Z</time></trkpt><trkpt lat="44.66842516954027" lon="9.947940725203473"><ele>427.5</ele><time>2026-04-04T11:57:02.998Z</time></trkpt><trkpt lat="44.668504794901885" lon="9.947971553330065"><ele>428.0</ele><time>2026-04-04T11:57:03.998Z</time></trkpt><trkpt lat="44.66857317583485" lon="9.947976980174078"><ele>428.5</ele><time>2026-04-04T11:57:05.998Z</time></trkpt><trkpt lat="44.66864788784076" lon="9.948012168774648"><ele>429.0</ele><time>2026-04-04T11:57:11Z</time></trkpt><trkpt lat="44.66872253419139" lon="9.948019877195179"><ele>424.0</ele><time>2026-04-04T11:57:14Z</time></trkpt><trkpt lat="44.66880209409465" lon="9.948009812007271"><ele>419.0</ele><time>2026-04-04T11:57:17Z</time></trkpt><trkpt lat="44.668880530014064" lon="9.948018570068818"><ele>414.0</ele><time>2026-04-04T11:57:20Z</time></trkpt><trkpt lat="44.668971538038214" lon="9.94802782137936"><ele>409.0</ele><time>2026-04-04T11:57:23Z</time></trkpt><trkpt lat="44.6690399352771" lon="9.948033334809796"><ele>404.0</ele><time>2026-04-04T11:57:25Z</time></trkpt><trkpt lat="44.669114679117754" lon="9.9480414473502"><ele>399.0</ele><time>2026-04-04T11:57:27Z</time></trkpt><trkpt lat="44.669201867319096" lon="9.948062201709977"><ele>399.0</ele><time>2026-04-04T11:57:29Z</time></trkpt><trkpt lat="44.66928143516732" lon="9.948155531907764"><ele>399.0</ele><time>2026-04-04T11:57:31Z</time></trkpt><trkpt lat="44.669353259750565" lon="9.948245313371581"><ele>399.0</ele><time>2026-04-04T11:57:33Z</time></trkpt><trkpt lat="44.66944496509408" lon="9.948302378654438"><ele>399.0</ele><time>2026-04-04T11:57:35Z</time></trkpt><trkpt lat="44.669527749983935" lon="9.948370860005655"><ele>399.0</ele><time>2026-04-04T11:57:37Z</time></trkpt><trkpt lat="44.669578904283554" lon="9.948466967118366"><ele>397.6666666666667</ele><time>2026-04-04T11:57:39Z</time></trkpt><trkpt lat="44.66964100915756" lon="9.948562772038821"><ele>396.33333333333337</ele><time>2026-04-04T11:57:41Z</time></trkpt><trkpt lat="44.669711840759085" lon="9.94850412171154"><ele>395.0</ele><time>2026-04-04T11:57:43Z</time></trkpt><trkpt lat="44.66974958820944" lon="9.948426198030203"><ele>393.6666666666667</ele><time>2026-04-04T11:57:44Z</time></trkpt><trkpt lat="44.66978386867053" lon="9.948340398324516"><ele>392.33333333333337</ele><time>2026-04-04T11:57:44.999Z</time></trkpt><trkpt lat="44.66983074393054" lon="9.948180618829213"><ele>391.0</ele><time>2026-04-04T11:57:46.999Z</time></trkpt><trkpt lat="44.66983142677674" lon="9.948013098029659"><ele>388.50000000000006</ele><time>2026-04-04T11:57:48.999Z</time></trkpt><trkpt lat="44.66976509804609" lon="9.947893317006319"><ele>386.0</ele><time>2026-04-04T11:57:50.999Z</time></trkpt><trkpt lat="44.66970029681067" lon="9.94781932920544"><ele>383.5</ele><time>2026-04-04T11:57:51.999Z</time></trkpt><trkpt lat="44.66963828735945" lon="9.947740320722678"><ele>381.0</ele><time>2026-04-04T11:57:52.999Z</time></trkpt><trkpt lat="44.66958631271618" lon="9.947665009030569"><ele>378.5</ele><time>2026-04-04T11:57:53.999Z</time></trkpt><trkpt lat="44.66956785318715" lon="9.947551368907174"><ele>376.0</ele><time>2026-04-04T11:57:55.999Z</time></trkpt><trkpt lat="44.66963377672001" lon="9.947469730379565"><ele>376.0</ele><time>2026-04-04T11:57:57.999Z</time></trkpt><trkpt lat="44.669705633657095" lon="9.947358069436735"><ele>376.0</ele><time>2026-04-04T11:57:59.999Z</time></trkpt><trkpt lat="44.66973677748336" lon="9.947201640616594"><ele>376.0</ele><time>2026-04-04T11:58:01.999Z</time></trkpt><trkpt lat="44.66976428274306" lon="9.947095780486498"><ele>376.0</ele><time>2026-04-04T11:58:02.999Z</time></trkpt><trkpt lat="44.66979630335714" lon="9.946999302761505"><ele>376.0</ele><time>2026-04-04T11:58:03.999Z</time></trkpt><trkpt lat="44.66984137610422" lon="9.946922624234917"><ele>376.0</ele><time>2026-04-04T11:58:04.999Z</time></trkpt><trkpt lat="44.66989677173392" lon="9.946849583311732"><ele>376.0</ele><time>2026-04-04T11:58:05.999Z</time></trkpt><trkpt lat="44.66995667154181" lon="9.946756705709777"><ele>376.0</ele><time>2026-04-04T11:58:06.999Z</time></trkpt><trkpt lat="44.67000773942761" lon="9.946680134445362"><ele>376.0</ele><time>2026-04-04T11:58:07.999Z</time></trkpt><trkpt lat="44.670055304046286" lon="9.946523739398206"><ele>376.0</ele><time>2026-04-04T11:58:09.999Z</time></trkpt><trkpt lat="44.67006060192598" lon="9.946418749381166"><ele>376.0</ele><time>2026-04-04T11:58:10.999Z</time></trkpt><trkpt lat="44.6700708101357" lon="9.946312075326965"><ele>376.0</ele><time>2026-04-04T11:58:11.999Z</time></trkpt><trkpt lat="44.67008699137904" lon="9.946204488126439"><ele>377.66666666666663</ele><time>2026-04-04T11:58:12.999Z</time></trkpt><trkpt lat="44.67005785640169" lon="9.946103560293126"><ele>379.3333333333333</ele><time>2026-04-04T11:58:13.999Z</time></trkpt><trkpt lat="44.67004719102416" lon="9.945948888778442"><ele>381.0</ele><time>2026-04-04T11:58:15.999Z</time></trkpt><trkpt lat="44.67000997142399" lon="9.945865344011429"><ele>382.66666666666663</ele><time>2026-04-04T11:58:16.999Z</time></trkpt><trkpt lat="44.66998308922422" lon="9.945754546327416"><ele>384.3333333333333</ele><time>2026-04-04T11:58:17.999Z</time></trkpt><trkpt lat="44.669961643883596" lon="9.945647304661668"><ele>386.0</ele><time>2026-04-04T11:58:18.999Z</time></trkpt><trkpt lat="44.66995215838164" lon="9.945535798772159"><ele>386.99999999999994</ele><time>2026-04-04T11:58:19.999Z</time></trkpt><trkpt lat="44.66994050516026" lon="9.945424681369781"><ele>388.0</ele><time>2026-04-04T11:58:20.999Z</time></trkpt><trkpt lat="44.6699182677948" lon="9.945319720283747"><ele>389.0</ele><time>2026-04-04T11:58:21.999Z</time></trkpt><trkpt lat="44.66989085110634" lon="9.945197755812847"><ele>390.0</ele><time>2026-04-04T11:58:22.999Z</time></trkpt><trkpt lat="44.66988247727382" lon="9.945084482221272"><ele>390.99999999999994</ele><time>2026-04-04T11:58:23.999Z</time></trkpt><trkpt lat="44.669864540043726" lon="9.944951732946917"><ele>392.0</ele><time>2026-04-04T11:58:25.999Z</time></trkpt><trkpt lat="44.66988691082009" lon="9.944847114584793"><ele>392.6</ele><time>2026-04-04T11:58:27.999Z</time></trkpt><trkpt lat="44.66995723881748" lon="9.94481081539564"><ele>393.20000000000005</ele><time>2026-04-04T11:58:29.998Z</time></trkpt><trkpt lat="44.6700646084659" lon="9.944725414516016"><ele>393.8</ele><time>2026-04-04T11:58:31.998Z</time></trkpt><trkpt lat="44.67014477113753" lon="9.94465977842236"><ele>394.4</ele><time>2026-04-04T11:58:32.998Z</time></trkpt><trkpt lat="44.670224066773265" lon="9.944580067427399"><ele>395.0</ele><time>2026-04-04T11:58:33.998Z</time></trkpt><trkpt lat="44.6702729166068" lon="9.944453149948535"><ele>391.8</ele><time>2026-04-04T11:58:34.998Z</time></trkpt><trkpt lat="44.67030814994449" lon="9.944367906746066"><ele>388.6</ele><time>2026-04-04T11:58:35.998Z</time></trkpt><trkpt lat="44.67033896635396" lon="9.944245737842042"><ele>385.4</ele><time>2026-04-04T11:58:36.998Z</time></trkpt><trkpt lat="44.67036070368511" lon="9.944093701271049"><ele>382.2</ele><time>2026-04-04T11:58:37.998Z</time></trkpt><trkpt lat="44.670381395960995" lon="9.94395040371603"><ele>379.0</ele><time>2026-04-04T11:58:38.998Z</time></trkpt><trkpt lat="44.6703797346788" lon="9.943813075281776"><ele>379.0</ele><time>2026-04-04T11:58:39.998Z</time></trkpt><trkpt lat="44.67038111497025" lon="9.943663977407592"><ele>379.0</ele><time>2026-04-04T11:58:40.998Z</time></trkpt><trkpt lat="44.67039889211981" lon="9.943571818868493"><ele>379.0</ele><time>2026-04-04T11:58:41.998Z</time></trkpt><trkpt lat="44.67043192092248" lon="9.943485774590203"><ele>379.0</ele><time>2026-04-04T11:58:42.998Z</time></trkpt><trkpt lat="44.67047329154495" lon="9.943408358955972"><ele>379.0</ele><time>2026-04-04T11:58:44.998Z</time></trkpt><trkpt lat="44.670532035660216" lon="9.943344190399502"><ele>379.0</ele><time>2026-04-04T11:58:49.998Z</time></trkpt><trkpt lat="44.670631743883064" lon="9.943383998705599"><ele>379.0</ele><time>2026-04-04T11:58:51.998Z</time></trkpt><trkpt lat="44.67074081009139" lon="9.943390443504564"><ele>379.0</ele><time>2026-04-04T11:58:53.998Z</time></trkpt><trkpt lat="44.670826218446194" lon="9.943375440897823"><ele>379.0</ele><time>2026-04-04T11:58:55.998Z</time></trkpt><trkpt lat="44.67086664447036" lon="9.94326659279207"><ele>379.0</ele><time>2026-04-04T11:58:58.998Z</time></trkpt><trkpt lat="44.670918102332955" lon="9.943207133304774"><ele>379.0</ele><time>2026-04-04T11:59:00.998Z</time></trkpt><trkpt lat="44.67097579418662" lon="9.943142325941084"><ele>379.0</ele><time>2026-04-04T11:59:02.998Z</time></trkpt><trkpt lat="44.671023283357535" lon="9.943074479851106"><ele>380.0</ele><time>2026-04-04T11:59:04.998Z</time></trkpt><trkpt lat="44.671098661937805" lon="9.943008322279285"><ele>381.0</ele><time>2026-04-04T11:59:06.998Z</time></trkpt><trkpt lat="44.67117233128148" lon="9.942970504812363"><ele>382.0</ele><time>2026-04-04T11:59:08.998Z</time></trkpt><trkpt lat="44.671262296789784" lon="9.942955839888652"><ele>383.0</ele><time>2026-04-04T11:59:10.998Z</time></trkpt><trkpt lat="44.67138281906037" lon="9.942963904841257"><ele>384.0</ele><time>2026-04-04T11:59:12.998Z</time></trkpt><trkpt lat="44.67148889543434" lon="9.942998166454446"><ele>378.0</ele><time>2026-04-04T11:59:15Z</time></trkpt><trkpt lat="44.67158071819944" lon="9.943013550484492"><ele>372.0</ele><time>2026-04-04T11:59:18Z</time></trkpt><trkpt lat="44.67163246394892" lon="9.942939047570773"><ele>366.0</ele><time>2026-04-04T11:59:20Z</time></trkpt><trkpt lat="44.6717003083424" lon="9.942810589231811"><ele>360.0</ele><time>2026-04-04T11:59:22Z</time></trkpt><trkpt lat="44.67176924524867" lon="9.942710894410903"><ele>354.0</ele><time>2026-04-04T11:59:24Z</time></trkpt><trkpt lat="44.671850219451244" lon="9.942659445197986"><ele>354.0</ele><time>2026-04-04T11:59:26Z</time></trkpt><trkpt lat="44.671910646572925" lon="9.94259807724061"><ele>354.0</ele><time>2026-04-04T11:59:29Z</time></trkpt><trkpt lat="44.67191770542423" lon="9.942713033723306"><ele>354.0</ele><time>2026-04-04T11:59:32Z</time></trkpt><trkpt lat="44.67188079617095" lon="9.942792007320449"><ele>354.0</ele><time>2026-04-04T11:59:34Z</time></trkpt><trkpt lat="44.67186495559781" lon="9.942883742248727"><ele>354.0</ele><time>2026-04-04T11:59:36Z</time></trkpt><trkpt lat="44.6718897588708" lon="9.943040443252386"><ele>354.0</ele><time>2026-04-04T11:59:38Z</time></trkpt><trkpt lat="44.671931293858115" lon="9.943117441532912"><ele>351.79999999999995</ele><time>2026-04-04T11:59:39Z</time></trkpt><trkpt lat="44.6719860050011" lon="9.943188778637348"><ele>349.59999999999997</ele><time>2026-04-04T11:59:40Z</time></trkpt><trkpt lat="44.672021667993185" lon="9.943322221517441"><ele>347.4</ele><time>2026-04-04T11:59:42Z</time></trkpt><trkpt lat="44.6719926530559" lon="9.943485709386"><ele>345.2</ele><time>2026-04-04T11:59:44Z</time></trkpt><trkpt lat="44.67190618286636" lon="9.943612032290158"><ele>343.0</ele><time>2026-04-04T11:59:46Z</time></trkpt><trkpt lat="44.671855871050454" lon="9.94368883790187"><ele>343.0</ele><time>2026-04-04T11:59:48Z</time></trkpt><trkpt lat="44.671813886837455" lon="9.943582603791327"><ele>343.0</ele><time>2026-04-04T11:59:53.999Z</time></trkpt><trkpt lat="44.671877463644726" lon="9.943546265363315"><ele>343.0</ele><time>2026-04-04T11:59:55.999Z</time></trkpt><trkpt lat="44.67194249422638" lon="9.943597879879203"><ele>343.0</ele><time>2026-04-04T11:59:58.999Z</time></trkpt><trkpt lat="44.6719671236695" lon="9.943688875932883"><ele>343.0</ele><time>2026-04-04T12:00:00.999Z</time></trkpt><trkpt lat="44.67199079026746" lon="9.943840893229254"><ele>343.0</ele><time>2026-04-04T12:00:02.999Z</time></trkpt><trkpt lat="44.671974764389105" lon="9.943988080765047"><ele>339.59999999999997</ele><time>2026-04-04T12:00:04.999Z</time></trkpt><trkpt lat="44.67198682042564" lon="9.944158945920657"><ele>336.2</ele><time>2026-04-04T12:00:06.999Z</time></trkpt><trkpt lat="44.671989659000786" lon="9.94426800192735"><ele>332.8</ele><time>2026-04-04T12:00:07.999Z</time></trkpt><trkpt lat="44.67204151673373" lon="9.94438683909041"><ele>329.4</ele><time>2026-04-04T12:00:09.999Z</time></trkpt><trkpt lat="44.672164249718186" lon="9.944467913724992"><ele>326.0</ele><time>2026-04-04T12:00:11.999Z</time></trkpt><trkpt lat="44.672255721937944" lon="9.944502226072524"><ele>325.33333333333337</ele><time>2026-04-04T12:00:12.999Z</time></trkpt><trkpt lat="44.67233404510761" lon="9.944501717086533"><ele>324.6666666666667</ele><time>2026-04-04T12:00:13.999Z</time></trkpt><trkpt lat="44.67242663443767" lon="9.94448586788634"><ele>324.0</ele><time>2026-04-04T12:00:14.999Z</time></trkpt><trkpt lat="44.67251543807427" lon="9.944477578366758"><ele>323.3333333333333</ele><time>2026-04-04T12:00:15.999Z</time></trkpt><trkpt lat="44.67260246215984" lon="9.944478981003453"><ele>322.66666666666663</ele><time>2026-04-04T12:00:16.999Z</time></trkpt><trkpt lat="44.67267457905747" lon="9.944491143066069"><ele>322.0</ele><time>2026-04-04T12:00:17.999Z</time></trkpt><trkpt lat="44.67275410870214" lon="9.944505715867994"><ele>320.5</ele><time>2026-04-04T12:00:18.999Z</time></trkpt><trkpt lat="44.672826810356156" lon="9.944526227878224"><ele>319.0</ele><time>2026-04-04T12:00:19.999Z</time></trkpt><trkpt lat="44.672908510634066" lon="9.94456367102381"><ele>317.5</ele><time>2026-04-04T12:00:20.999Z</time></trkpt><trkpt lat="44.6729919058177" lon="9.944603224563771"><ele>316.0</ele><time>2026-04-04T12:00:21.999Z</time></trkpt><trkpt lat="44.67307509129458" lon="9.944656254597312"><ele>314.5</ele><time>2026-04-04T12:00:22.999Z</time></trkpt><trkpt lat="44.67315583807082" lon="9.94471545479431"><ele>313.0</ele><time>2026-04-04T12:00:23.999Z</time></trkpt><trkpt lat="44.67323158378285" lon="9.944772489213499"><ele>313.0</ele><time>2026-04-04T12:00:24.999Z</time></trkpt><trkpt lat="44.67330437433553" lon="9.944843746539"><ele>313.0</ele><time>2026-04-04T12:00:25.999Z</time></trkpt><trkpt lat="44.67336652013183" lon="9.944920134474172"><ele>313.0</ele><time>2026-04-04T12:00:26.999Z</time></trkpt><trkpt lat="44.67343278519972" lon="9.944990577998697"><ele>313.0</ele><time>2026-04-04T12:00:27.999Z</time></trkpt><trkpt lat="44.673496876210535" lon="9.945049663638875"><ele>313.0</ele><time>2026-04-04T12:00:28.999Z</time></trkpt><trkpt lat="44.67355869184001" lon="9.945114700805378"><ele>313.0</ele><time>2026-04-04T12:00:29.999Z</time></trkpt><trkpt lat="44.67361237351655" lon="9.945163010688503"><ele>310.0</ele><time>2026-04-04T12:00:30.999Z</time></trkpt><trkpt lat="44.673674158818535" lon="9.945193833655825"><ele>307.0</ele><time>2026-04-04T12:00:31.999Z</time></trkpt><trkpt lat="44.67374885967141" lon="9.945213878628191"><ele>304.0</ele><time>2026-04-04T12:00:32.999Z</time></trkpt><trkpt lat="44.67383264583716" lon="9.94523356207227"><ele>301.0</ele><time>2026-04-04T12:00:33.999Z</time></trkpt><trkpt lat="44.67391283284911" lon="9.945249522145229"><ele>298.0</ele><time>2026-04-04T12:00:34.998Z</time></trkpt><trkpt lat="44.67403656460275" lon="9.945268370773453"><ele>295.0</ele><time>2026-04-04T12:00:36.998Z</time></trkpt><trkpt lat="44.67413587676726" lon="9.945219339858268"><ele>295.0</ele><time>2026-04-04T12:00:38.998Z</time></trkpt><trkpt lat="44.674243417466734" lon="9.945160660713922"><ele>295.0</ele><time>2026-04-04T12:00:40.998Z</time></trkpt><trkpt lat="44.67435392106905" lon="9.945134718440961"><ele>295.0</ele><time>2026-04-04T12:00:42.998Z</time></trkpt><trkpt lat="44.67447185690107" lon="9.945151827582167"><ele>295.0</ele><time>2026-04-04T12:00:44.998Z</time></trkpt><trkpt lat="44.67453983335668" lon="9.945149834166754"><ele>295.0</ele><time>2026-04-04T12:00:45.998Z</time></trkpt><trkpt lat="44.67462162490545" lon="9.945142720383997"><ele>292.42857142857144</ele><time>2026-04-04T12:00:46.998Z</time></trkpt><trkpt lat="44.67468648614816" lon="9.94514453039745"><ele>289.8571428571429</ele><time>2026-04-04T12:00:47.998Z</time></trkpt><trkpt lat="44.67475240983414" lon="9.945135612895994"><ele>287.2857142857143</ele><time>2026-04-04T12:00:48.998Z</time></trkpt><trkpt lat="44.67481684966143" lon="9.945136505053348"><ele>284.7142857142857</ele><time>2026-04-04T12:00:49.998Z</time></trkpt><trkpt lat="44.67492347554611" lon="9.945117621261028"><ele>282.1428571428571</ele><time>2026-04-04T12:00:51.998Z</time></trkpt><trkpt lat="44.67498858170788" lon="9.94510539262965"><ele>279.57142857142856</ele><time>2026-04-04T12:00:52.998Z</time></trkpt><trkpt lat="44.675055748136614" lon="9.94509436193928"><ele>277.0</ele><time>2026-04-04T12:00:53.998Z</time></trkpt><trkpt lat="44.67512063971133" lon="9.945083918937472"><ele>277.0</ele><time>2026-04-04T12:00:54.998Z</time></trkpt><trkpt lat="44.67523120587137" lon="9.94505310540271"><ele>277.0</ele><time>2026-04-04T12:00:56.998Z</time></trkpt><trkpt lat="44.6753115803929" lon="9.945016149120901"><ele>277.0</ele><time>2026-04-04T12:00:58.998Z</time></trkpt><trkpt lat="44.675306178023106" lon="9.944872269197743"><ele>277.0</ele><time>2026-04-04T12:01:00.998Z</time></trkpt><trkpt lat="44.67529288151854" lon="9.944753046496466"><ele>277.0</ele><time>2026-04-04T12:01:01.998Z</time></trkpt><trkpt lat="44.67529175137128" lon="9.944607931490964"><ele>275.16666666666663</ele><time>2026-04-04T12:01:02.998Z</time></trkpt><trkpt lat="44.67532095777437" lon="9.944492155959233"><ele>273.3333333333333</ele><time>2026-04-04T12:01:03.998Z</time></trkpt><trkpt lat="44.6753637596619" lon="9.944399594589132"><ele>271.5</ele><time>2026-04-04T12:01:04.998Z</time></trkpt><trkpt lat="44.67541345227949" lon="9.94431079706433"><ele>269.6666666666667</ele><time>2026-04-04T12:01:05.998Z</time></trkpt><trkpt lat="44.67545673994733" lon="9.944223749993895"><ele>267.83333333333337</ele><time>2026-04-04T12:01:06.998Z</time></trkpt><trkpt lat="44.675512441640834" lon="9.94411682905859"><ele>266.0</ele><time>2026-04-04T12:01:07.998Z</time></trkpt><trkpt lat="44.67555254335861" lon="9.944038170968296"><ele>266.0</ele><time>2026-04-04T12:01:08.998Z</time></trkpt><trkpt lat="44.67561172422418" lon="9.943962130559692"><ele>266.0</ele><time>2026-04-04T12:01:10.998Z</time></trkpt><trkpt lat="44.67568143069685" lon="9.943895865525368"><ele>266.0</ele><time>2026-04-04T12:01:12.998Z</time></trkpt><trkpt lat="44.67573331244419" lon="9.94374417702718"><ele>266.0</ele><time>2026-04-04T12:01:14.998Z</time></trkpt><trkpt lat="44.675719347325504" lon="9.943657700338361"><ele>266.0</ele><time>2026-04-04T12:01:15.998Z</time></trkpt><trkpt lat="44.67570963870058" lon="9.943512943927617"><ele>265.6</ele><time>2026-04-04T12:01:16.998Z</time></trkpt><trkpt lat="44.675703946747674" lon="9.943343663446369"><ele>265.20000000000005</ele><time>2026-04-04T12:01:17.998Z</time></trkpt><trkpt lat="44.67573329503905" lon="9.943213879184876"><ele>264.79999999999995</ele><time>2026-04-04T12:01:18.998Z</time></trkpt><trkpt lat="44.67576759950147" lon="9.943087451558783"><ele>264.4</ele><time>2026-04-04T12:01:19.997Z</time></trkpt><trkpt lat="44.67577551341795" lon="9.94295529336617"><ele>264.0</ele><time>2026-04-04T12:01:21Z</time></trkpt><trkpt lat="44.675777356725916" lon="9.942818459121334"><ele>264.0</ele><time>2026-04-04T12:01:22Z</time></trkpt><trkpt lat="44.675776113600264" lon="9.942690704156993"><ele>264.0</ele><time>2026-04-04T12:01:23Z</time></trkpt><trkpt lat="44.67575537565981" lon="9.942605539234608"><ele>264.0</ele><time>2026-04-04T12:01:24Z</time></trkpt><trkpt lat="44.67570603415531" lon="9.94252029449866"><ele>264.0</ele><time>2026-04-04T12:01:25Z</time></trkpt><trkpt lat="44.67564275443875" lon="9.942404975043619"><ele>264.0</ele><time>2026-04-04T12:01:26Z</time></trkpt><trkpt lat="44.675583306262226" lon="9.942279801381552"><ele>264.0</ele><time>2026-04-04T12:01:27Z</time></trkpt><trkpt lat="44.675551893974095" lon="9.942166260643306"><ele>264.5</ele><time>2026-04-04T12:01:28Z</time></trkpt><trkpt lat="44.67555369092097" lon="9.941974525570286"><ele>265.0</ele><time>2026-04-04T12:01:30Z</time></trkpt><trkpt lat="44.67557549164421" lon="9.941849189626184"><ele>265.5</ele><time>2026-04-04T12:01:31Z</time></trkpt><trkpt lat="44.67558969985206" lon="9.941687105238882"><ele>266.0</ele><time>2026-04-04T12:01:32Z</time></trkpt><trkpt lat="44.67561382153147" lon="9.941541112404844"><ele>266.83333333333337</ele><time>2026-04-04T12:01:33Z</time></trkpt><trkpt lat="44.67564880811757" lon="9.941430343396624"><ele>267.6666666666667</ele><time>2026-04-04T12:01:34Z</time></trkpt><trkpt lat="44.675675911426936" lon="9.94134882072215"><ele>268.5</ele><time>2026-04-04T12:01:35Z</time></trkpt><trkpt lat="44.67569551905579" lon="9.941224652338878"><ele>269.3333333333333</ele><time>2026-04-04T12:01:36Z</time></trkpt><trkpt lat="44.67572215227989" lon="9.941068986670418"><ele>270.16666666666663</ele><time>2026-04-04T12:01:37Z</time></trkpt><trkpt lat="44.67574643547644" lon="9.940941336457744"><ele>271.0</ele><time>2026-04-04T12:01:38Z</time></trkpt><trkpt lat="44.675788029128896" lon="9.940829676288674"><ele>271.8333333333333</ele><time>2026-04-04T12:01:39Z</time></trkpt><trkpt lat="44.67582972536506" lon="9.940695668385521"><ele>272.66666666666663</ele><time>2026-04-04T12:01:40Z</time></trkpt><trkpt lat="44.67585018074759" lon="9.94060076510285"><ele>273.5</ele><time>2026-04-04T12:01:41Z</time></trkpt><trkpt lat="44.675865054141376" lon="9.940494388146075"><ele>274.3333333333333</ele><time>2026-04-04T12:01:42Z</time></trkpt><trkpt lat="44.67586748761429" lon="9.940383821630503"><ele>275.1666666666667</ele><time>2026-04-04T12:01:43Z</time></trkpt><trkpt lat="44.67585625528986" lon="9.940264169011945"><ele>276.0</ele><time>2026-04-04T12:01:44Z</time></trkpt><trkpt lat="44.67584511539209" lon="9.94012045435487"><ele>276.2</ele><time>2026-04-04T12:01:45Z</time></trkpt><trkpt lat="44.675828642441424" lon="9.939983925865473"><ele>276.40000000000003</ele><time>2026-04-04T12:01:46Z</time></trkpt><trkpt lat="44.675817278383576" lon="9.939829641897719"><ele>276.6</ele><time>2026-04-04T12:01:47Z</time></trkpt><trkpt lat="44.67579959262514" lon="9.93967756776349"><ele>276.8</ele><time>2026-04-04T12:01:48Z</time></trkpt><trkpt lat="44.67577730792162" lon="9.939518181959416"><ele>277.0</ele><time>2026-04-04T12:01:49Z</time></trkpt><trkpt lat="44.675774927219955" lon="9.939388864959968"><ele>277.0</ele><time>2026-04-04T12:01:50Z</time></trkpt><trkpt lat="44.67577527207348" lon="9.939255915126166"><ele>277.0</ele><time>2026-04-04T12:01:51Z</time></trkpt><trkpt lat="44.67577330625798" lon="9.939116017460771"><ele>277.0</ele><time>2026-04-04T12:01:52Z</time></trkpt><trkpt lat="44.67576541560363" lon="9.938951257869267"><ele>277.0</ele><time>2026-04-04T12:01:53Z</time></trkpt><trkpt lat="44.675755588120666" lon="9.938811607555758"><ele>277.0</ele><time>2026-04-04T12:01:54Z</time></trkpt><trkpt lat="44.67574671554182" lon="9.938698565899392"><ele>276.25</ele><time>2026-04-04T12:01:55Z</time></trkpt><trkpt lat="44.67571013803128" lon="9.93860172072063"><ele>275.5</ele><time>2026-04-04T12:01:57Z</time></trkpt><trkpt lat="44.675587535567715" lon="9.93864435711236"><ele>274.75</ele><time>2026-04-04T12:01:58.999Z</time></trkpt><trkpt lat="44.675468146555396" lon="9.938692567035556"><ele>274.0</ele><time>2026-04-04T12:01:59.999Z</time></trkpt><trkpt lat="44.675327252622196" lon="9.938759493462264"><ele>273.66666666666663</ele><time>2026-04-04T12:02:00.999Z</time></trkpt><trkpt lat="44.675229023292246" lon="9.93881009857421"><ele>273.3333333333333</ele><time>2026-04-04T12:02:01.999Z</time></trkpt><trkpt lat="44.67516201066221" lon="9.93884326136193"><ele>273.0</ele><time>2026-04-04T12:02:03.999Z</time></trkpt><trkpt lat="44.675152247643496" lon="9.938727766120843"><ele>272.6666666666667</ele><time>2026-04-04T12:02:05.999Z</time></trkpt><trkpt lat="44.675165484322775" lon="9.938633875475471"><ele>272.33333333333337</ele><time>2026-04-04T12:02:06.999Z</time></trkpt><trkpt lat="44.67520710677424" lon="9.938498780207096"><ele>272.0</ele><time>2026-04-04T12:02:07.999Z</time></trkpt><trkpt lat="44.67528409168509" lon="9.938335070307332"><ele>272.0</ele><time>2026-04-04T12:02:08.999Z</time></trkpt><trkpt lat="44.675379672207264" lon="9.938161630227842"><ele>272.0</ele><time>2026-04-04T12:02:09.999Z</time></trkpt><trkpt lat="44.67547449467035" lon="9.93803872017509"><ele>272.0</ele><time>2026-04-04T12:02:10.999Z</time></trkpt><trkpt lat="44.67556674507437" lon="9.937937404182854"><ele>272.0</ele><time>2026-04-04T12:02:11.999Z</time></trkpt><trkpt lat="44.67564095547694" lon="9.937845158785585"><ele>272.0</ele><time>2026-04-04T12:02:12.999Z</time></trkpt><trkpt lat="44.675699872133265" lon="9.937768164637436"><ele>272.0</ele><time>2026-04-04T12:02:13.999Z</time></trkpt><trkpt lat="44.67576641516783" lon="9.937710367231091"><ele>272.0</ele><time>2026-04-04T12:02:14.999Z</time></trkpt><trkpt lat="44.67585063606448" lon="9.937708041883427"><ele>272.0</ele><time>2026-04-04T12:02:15.999Z</time></trkpt><trkpt lat="44.67594595162879" lon="9.93775050585581"><ele>272.0</ele><time>2026-04-04T12:02:16.999Z</time></trkpt><trkpt lat="44.676051242269374" lon="9.937805361929703"><ele>269.6</ele><time>2026-04-04T12:02:17.999Z</time></trkpt><trkpt lat="44.67615399860251" lon="9.937825270410054"><ele>267.2</ele><time>2026-04-04T12:02:18.999Z</time></trkpt><trkpt lat="44.676250856954425" lon="9.937867747267152"><ele>264.8</ele><time>2026-04-04T12:02:19.999Z</time></trkpt><trkpt lat="44.67633892641924" lon="9.937927126591049"><ele>262.4</ele><time>2026-04-04T12:02:20.999Z</time></trkpt><trkpt lat="44.67641126866851" lon="9.93802896448173"><ele>260.0</ele><time>2026-04-04T12:02:21.999Z</time></trkpt><trkpt lat="44.67648188828981" lon="9.938153971289013"><ele>260.0</ele><time>2026-04-04T12:02:22.999Z</time></trkpt><trkpt lat="44.67655612486853" lon="9.938285134330593"><ele>260.0</ele><time>2026-04-04T12:02:23.999Z</time></trkpt><trkpt lat="44.67660636783361" lon="9.938414887849776"><ele>260.0</ele><time>2026-04-04T12:02:24.999Z</time></trkpt><trkpt lat="44.676635304638495" lon="9.938546063840958"><ele>260.0</ele><time>2026-04-04T12:02:25.999Z</time></trkpt><trkpt lat="44.67665206162168" lon="9.938692544594558"><ele>260.0</ele><time>2026-04-04T12:02:26.999Z</time></trkpt><trkpt lat="44.67667133891813" lon="9.938840634578654"><ele>260.75</ele><time>2026-04-04T12:02:27.999Z</time></trkpt><trkpt lat="44.67673363210217" lon="9.938976701785384"><ele>261.5</ele><time>2026-04-04T12:02:28.999Z</time></trkpt><trkpt lat="44.67681948023796" lon="9.939076697272835"><ele>262.25</ele><time>2026-04-04T12:02:29.999Z</time></trkpt><trkpt lat="44.67689951936495" lon="9.93919050198664"><ele>263.0</ele><time>2026-04-04T12:02:30.999Z</time></trkpt><trkpt lat="44.67700746145328" lon="9.93927349882209"><ele>260.0</ele><time>2026-04-04T12:02:31.999Z</time></trkpt><trkpt lat="44.677105532038794" lon="9.939349553690834"><ele>257.0</ele><time>2026-04-04T12:02:32.999Z</time></trkpt><trkpt lat="44.6771932066853" lon="9.939425797233577"><ele>254.0</ele><time>2026-04-04T12:02:33.999Z</time></trkpt><trkpt lat="44.67726726258321" lon="9.939531237139594"><ele>251.0</ele><time>2026-04-04T12:02:34.999Z</time></trkpt><trkpt lat="44.67731318214378" lon="9.93966776005143"><ele>248.0</ele><time>2026-04-04T12:02:35.999Z</time></trkpt><trkpt lat="44.67735262069573" lon="9.939816778662845"><ele>248.0</ele><time>2026-04-04T12:02:36.999Z</time></trkpt><trkpt lat="44.67739251167407" lon="9.939970978033676"><ele>248.0</ele><time>2026-04-04T12:02:37.999Z</time></trkpt><trkpt lat="44.6774307523926" lon="9.940119934272476"><ele>248.0</ele><time>2026-04-04T12:02:38.999Z</time></trkpt><trkpt lat="44.677465864500626" lon="9.940268106853727"><ele>248.0</ele><time>2026-04-04T12:02:39.999Z</time></trkpt><trkpt lat="44.677508288039846" lon="9.940396896934638"><ele>248.0</ele><time>2026-04-04T12:02:40.999Z</time></trkpt><trkpt lat="44.67751966981934" lon="9.940519652542502"><ele>247.60000000000002</ele><time>2026-04-04T12:02:41.999Z</time></trkpt><trkpt lat="44.67752954290389" lon="9.940652871489027"><ele>247.20000000000002</ele><time>2026-04-04T12:02:42.998Z</time></trkpt><trkpt lat="44.677514534551854" lon="9.94080752665687"><ele>246.8</ele><time>2026-04-04T12:02:43.998Z</time></trkpt><trkpt lat="44.67750938710222" lon="9.940961749919182"><ele>246.4</ele><time>2026-04-04T12:02:44.998Z</time></trkpt><trkpt lat="44.67748280050363" lon="9.941091740832746"><ele>246.0</ele><time>2026-04-04T12:02:45.998Z</time></trkpt><trkpt lat="44.67746175937662" lon="9.941227415197556"><ele>245.20000000000002</ele><time>2026-04-04T12:02:46.998Z</time></trkpt><trkpt lat="44.677443221889376" lon="9.941357152809202"><ele>244.40000000000003</ele><time>2026-04-04T12:02:47.998Z</time></trkpt><trkpt lat="44.67745462236098" lon="9.941539335491704"><ele>243.6</ele><time>2026-04-04T12:02:49.998Z</time></trkpt><trkpt lat="44.6775263501583" lon="9.94159955781786"><ele>242.8</ele><time>2026-04-04T12:02:50.998Z</time></trkpt><trkpt lat="44.67761465763881" lon="9.941575930173272"><ele>242.0</ele><time>2026-04-04T12:02:51.998Z</time></trkpt><trkpt lat="44.67767909925553" lon="9.941450690648194"><ele>242.0</ele><time>2026-04-04T12:02:52.998Z</time></trkpt><trkpt lat="44.67773120628258" lon="9.941326193837984"><ele>242.0</ele><time>2026-04-04T12:02:53.998Z</time></trkpt><trkpt lat="44.677811335933626" lon="9.941197337312373"><ele>242.0</ele><time>2026-04-04T12:02:54.998Z</time></trkpt><trkpt lat="44.67788631710675" lon="9.941069030390505"><ele>242.0</ele><time>2026-04-04T12:02:55.998Z</time></trkpt><trkpt lat="44.67796241142216" lon="9.9409561281387"><ele>239.8</ele><time>2026-04-04T12:02:56.998Z</time></trkpt><trkpt lat="44.67804815390948" lon="9.940846471106967"><ele>237.6</ele><time>2026-04-04T12:02:57.998Z</time></trkpt><trkpt lat="44.67812657319493" lon="9.940740639889222"><ele>235.40000000000003</ele><time>2026-04-04T12:02:58.998Z</time></trkpt><trkpt lat="44.678202095802696" lon="9.940654798144633"><ele>233.20000000000002</ele><time>2026-04-04T12:02:59.998Z</time></trkpt><trkpt lat="44.67826922653679" lon="9.940567874029933"><ele>231.0</ele><time>2026-04-04T12:03:00.998Z</time></trkpt><trkpt lat="44.678309636083696" lon="9.940453461330174"><ele>231.0</ele><time>2026-04-04T12:03:01.998Z</time></trkpt><trkpt lat="44.67832555494171" lon="9.940321852023938"><ele>231.00000000000003</ele><time>2026-04-04T12:03:02.998Z</time></trkpt><trkpt lat="44.67836187654588" lon="9.940183391867112"><ele>231.00000000000003</ele><time>2026-04-04T12:03:03.998Z</time></trkpt><trkpt lat="44.67844370529903" lon="9.940097894049714"><ele>231.0</ele><time>2026-04-04T12:03:04.998Z</time></trkpt><trkpt lat="44.67853383976217" lon="9.940044403522442"><ele>231.0</ele><time>2026-04-04T12:03:05.998Z</time></trkpt><trkpt lat="44.67862282036335" lon="9.939983220599537"><ele>230.20000000000002</ele><time>2026-04-04T12:03:06.998Z</time></trkpt><trkpt lat="44.67871145743778" lon="9.939924559867578"><ele>229.40000000000003</ele><time>2026-04-04T12:03:07.998Z</time></trkpt><trkpt lat="44.67880887051956" lon="9.93986056738845"><ele>228.6</ele><time>2026-04-04T12:03:08.998Z</time></trkpt><trkpt lat="44.67890904876808" lon="9.939794758433845"><ele>227.8</ele><time>2026-04-04T12:03:09.998Z</time></trkpt><trkpt lat="44.67901350036237" lon="9.939726142230425"><ele>227.0</ele><time>2026-04-04T12:03:10.998Z</time></trkpt><trkpt lat="44.67912018201899" lon="9.93965504523056"><ele>227.0</ele><time>2026-04-04T12:03:11.998Z</time></trkpt><trkpt lat="44.67922820449925" lon="9.93958233433355"><ele>227.0</ele><time>2026-04-04T12:03:12.998Z</time></trkpt><trkpt lat="44.67933057140843" lon="9.93951425277488"><ele>227.0</ele><time>2026-04-04T12:03:13.998Z</time></trkpt><trkpt lat="44.67941603784333" lon="9.939460642267383"><ele>227.0</ele><time>2026-04-04T12:03:14.998Z</time></trkpt><trkpt lat="44.67948440133285" lon="9.93939696109357"><ele>227.0</ele><time>2026-04-04T12:03:15.998Z</time></trkpt><trkpt lat="44.679592053920935" lon="9.93936030986111"><ele>229.8</ele><time>2026-04-04T12:03:17.998Z</time></trkpt><trkpt lat="44.67966469253188" lon="9.939355776917067"><ele>232.6</ele><time>2026-04-04T12:03:19.998Z</time></trkpt><trkpt lat="44.67972060981486" lon="9.939121785900767"><ele>235.40000000000003</ele><time>2026-04-04T12:03:21.998Z</time></trkpt><trkpt lat="44.67972255365607" lon="9.938999974572887"><ele>238.20000000000002</ele><time>2026-04-04T12:03:22.998Z</time></trkpt><trkpt lat="44.67971520858853" lon="9.938891593297084"><ele>241.0</ele><time>2026-04-04T12:03:23.998Z</time></trkpt><trkpt lat="44.67971172274718" lon="9.938774152832364"><ele>241.4</ele><time>2026-04-04T12:03:24.998Z</time></trkpt><trkpt lat="44.67970647386843" lon="9.938631077613296"><ele>241.8</ele><time>2026-04-04T12:03:25.998Z</time></trkpt><trkpt lat="44.679703397134105" lon="9.938507710278754"><ele>242.20000000000002</ele><time>2026-04-04T12:03:27Z</time></trkpt><trkpt lat="44.67969721940009" lon="9.938385283216007"><ele>242.60000000000002</ele><time>2026-04-04T12:03:28Z</time></trkpt><trkpt lat="44.6796902238462" lon="9.93825326450116"><ele>243.0</ele><time>2026-04-04T12:03:29Z</time></trkpt><trkpt lat="44.67967959341371" lon="9.93810995581038"><ele>241.4</ele><time>2026-04-04T12:03:30Z</time></trkpt><trkpt lat="44.679675694181505" lon="9.937941616485737"><ele>239.8</ele><time>2026-04-04T12:03:31Z</time></trkpt><trkpt lat="44.67966993222899" lon="9.937788376036146"><ele>238.2</ele><time>2026-04-04T12:03:32Z</time></trkpt><trkpt lat="44.67965633627473" lon="9.937672887572868"><ele>236.6</ele><time>2026-04-04T12:03:33Z</time></trkpt><trkpt lat="44.67965117893525" lon="9.937571606143425"><ele>235.0</ele><time>2026-04-04T12:03:34Z</time></trkpt><trkpt lat="44.67964900893764" lon="9.937210192682741"><ele>235.0</ele><time>2026-04-04T12:03:35Z</time></trkpt><trkpt lat="44.67964724800181" lon="9.937023436532385"><ele>235.0</ele><time>2026-04-04T12:03:36Z</time></trkpt><trkpt lat="44.679643113793475" lon="9.936843492657331"><ele>235.0</ele><time>2026-04-04T12:03:37Z</time></trkpt><trkpt lat="44.67963515699103" lon="9.93666239870511"><ele>235.0</ele><time>2026-04-04T12:03:38Z</time></trkpt><trkpt lat="44.67962925707214" lon="9.93648122800018"><ele>238.5</ele><time>2026-04-04T12:03:39Z</time></trkpt><trkpt lat="44.679622475781734" lon="9.93629776673803"><ele>242.0</ele><time>2026-04-04T12:03:40Z</time></trkpt><trkpt lat="44.67961671850844" lon="9.936130501116628"><ele>245.5</ele><time>2026-04-04T12:03:41Z</time></trkpt><trkpt lat="44.679611335380024" lon="9.935959833753707"><ele>249.0</ele><time>2026-04-04T12:03:42Z</time></trkpt><trkpt lat="44.679606107744625" lon="9.935781900121762"><ele>252.0</ele><time>2026-04-04T12:03:43Z</time></trkpt><trkpt lat="44.67960238133763" lon="9.935605194053409"><ele>255.0</ele><time>2026-04-04T12:03:44Z</time></trkpt><trkpt lat="44.67959573231035" lon="9.935427484465679"><ele>258.0</ele><time>2026-04-04T12:03:45Z</time></trkpt><trkpt lat="44.67959063702075" lon="9.935247713138926"><ele>261.0</ele><time>2026-04-04T12:03:46Z</time></trkpt><trkpt lat="44.67958315551599" lon="9.935064656629415"><ele>262.75</ele><time>2026-04-04T12:03:47Z</time></trkpt><trkpt lat="44.67957733180266" lon="9.934869824196577"><ele>264.5</ele><time>2026-04-04T12:03:48Z</time></trkpt><trkpt lat="44.67956677525136" lon="9.934685779137292"><ele>266.25</ele><time>2026-04-04T12:03:49Z</time></trkpt><trkpt lat="44.67956413473772" lon="9.934497178977038"><ele>268.0</ele><time>2026-04-04T12:03:50Z</time></trkpt><trkpt lat="44.679555739276694" lon="9.934301818778819"><ele>266.25</ele><time>2026-04-04T12:03:51Z</time></trkpt><trkpt lat="44.679548943099284" lon="9.934122227014967"><ele>264.5</ele><time>2026-04-04T12:03:52Z</time></trkpt><trkpt lat="44.67955090951928" lon="9.93394345733896"><ele>262.75</ele><time>2026-04-04T12:03:53Z</time></trkpt><trkpt lat="44.67959630332445" lon="9.93377375847883"><ele>261.0</ele><time>2026-04-04T12:03:54Z</time></trkpt><trkpt lat="44.67965494077226" lon="9.933609872642364"><ele>261.0</ele><time>2026-04-04T12:03:55Z</time></trkpt><trkpt lat="44.679730416195994" lon="9.93345862448107"><ele>261.0</ele><time>2026-04-04T12:03:56Z</time></trkpt><trkpt lat="44.679816378165626" lon="9.933301425348006"><ele>261.0</ele><time>2026-04-04T12:03:57Z</time></trkpt><trkpt lat="44.67990795629097" lon="9.933122685185774"><ele>261.0</ele><time>2026-04-04T12:03:58Z</time></trkpt><trkpt lat="44.67999863677367" lon="9.932955757458416"><ele>256.0</ele><time>2026-04-04T12:03:59Z</time></trkpt><trkpt lat="44.68008183850669" lon="9.93277798680752"><ele>251.0</ele><time>2026-04-04T12:04:00Z</time></trkpt><trkpt lat="44.680120780601705" lon="9.932528952782578"><ele>246.0</ele><time>2026-04-04T12:04:01Z</time></trkpt><trkpt lat="44.68015377134539" lon="9.93230441545524"><ele>242.0</ele><time>2026-04-04T12:04:02Z</time></trkpt><trkpt lat="44.68017701184589" lon="9.932082694401132"><ele>238.0</ele><time>2026-04-04T12:04:02.999Z</time></trkpt><trkpt lat="44.68022273734635" lon="9.931875629280025"><ele>234.0</ele><time>2026-04-04T12:04:03.999Z</time></trkpt><trkpt lat="44.68025390704422" lon="9.931670910741552"><ele>236.33333333333331</ele><time>2026-04-04T12:04:04.999Z</time></trkpt><trkpt lat="44.68028690323166" lon="9.931465536766977"><ele>238.66666666666666</ele><time>2026-04-04T12:04:05.999Z</time></trkpt><trkpt lat="44.680311498918854" lon="9.9312410991824"><ele>241.0</ele><time>2026-04-04T12:04:06.999Z</time></trkpt><trkpt lat="44.68035433727488" lon="9.931021771261717"><ele>240.66666666666666</ele><time>2026-04-04T12:04:07.999Z</time></trkpt><trkpt lat="44.68039066497178" lon="9.930812713932243"><ele>240.33333333333331</ele><time>2026-04-04T12:04:08.999Z</time></trkpt><trkpt lat="44.68042907775526" lon="9.930597868575823"><ele>240.0</ele><time>2026-04-04T12:04:09.999Z</time></trkpt><trkpt lat="44.680467631520024" lon="9.930396531911956"><ele>240.0</ele><time>2026-04-04T12:04:10.999Z</time></trkpt><trkpt lat="44.68051213576361" lon="9.930176126876278"><ele>240.0</ele><time>2026-04-04T12:04:11.999Z</time></trkpt><trkpt lat="44.68055430453253" lon="9.929951089882858"><ele>240.0</ele><time>2026-04-04T12:04:12.999Z</time></trkpt><trkpt lat="44.680591883989855" lon="9.929735152598917"><ele>239.66666666666669</ele><time>2026-04-04T12:04:13.999Z</time></trkpt><trkpt lat="44.68063820783544" lon="9.929508744225641"><ele>239.33333333333334</ele><time>2026-04-04T12:04:14.999Z</time></trkpt><trkpt lat="44.68067830088844" lon="9.929301544500126"><ele>239.0</ele><time>2026-04-04T12:04:15.999Z</time></trkpt><trkpt lat="44.6807263472225" lon="9.929086278644021"><ele>237.66666666666669</ele><time>2026-04-04T12:04:16.999Z</time></trkpt><trkpt lat="44.680760517937024" lon="9.928885023745988"><ele>236.33333333333331</ele><time>2026-04-04T12:04:17.999Z</time></trkpt><trkpt lat="44.6807942222416" lon="9.928655886468224"><ele>235.0</ele><time>2026-04-04T12:04:18.999Z</time></trkpt><trkpt lat="44.68082997674406" lon="9.928433970973641"><ele>234.66666666666666</ele><time>2026-04-04T12:04:19.999Z</time></trkpt><trkpt lat="44.68085910954045" lon="9.928203607894432"><ele>234.33333333333331</ele><time>2026-04-04T12:04:20.999Z</time></trkpt><trkpt lat="44.68087488456427" lon="9.927975029833865"><ele>234.0</ele><time>2026-04-04T12:04:21.999Z</time></trkpt><trkpt lat="44.68088258303851" lon="9.927745840704016"><ele>234.33333333333331</ele><time>2026-04-04T12:04:22.999Z</time></trkpt><trkpt lat="44.6808861991657" lon="9.92752710554606"><ele>234.66666666666666</ele><time>2026-04-04T12:04:23.999Z</time></trkpt><trkpt lat="44.680877439033175" lon="9.927312223122396"><ele>235.0</ele><time>2026-04-04T12:04:24.999Z</time></trkpt><trkpt lat="44.68085162480848" lon="9.927105730449663"><ele>235.0</ele><time>2026-04-04T12:04:25.999Z</time></trkpt><trkpt lat="44.680821203918136" lon="9.926898543676346"><ele>235.0</ele><time>2026-04-04T12:04:26.999Z</time></trkpt><trkpt lat="44.68078940275078" lon="9.926707135556507"><ele>235.0</ele><time>2026-04-04T12:04:27.999Z</time></trkpt><trkpt lat="44.680756689940154" lon="9.92651215528012"><ele>235.0</ele><time>2026-04-04T12:04:28.999Z</time></trkpt><trkpt lat="44.680722113227425" lon="9.926325032406382"><ele>235.2</ele><time>2026-04-04T12:04:29.999Z</time></trkpt><trkpt lat="44.68069305213321" lon="9.926165813064182"><ele>235.4</ele><time>2026-04-04T12:04:30.999Z</time></trkpt><trkpt lat="44.68066297184391" lon="9.926020495817536"><ele>235.60000000000002</ele><time>2026-04-04T12:04:31.999Z</time></trkpt><trkpt lat="44.680638825621436" lon="9.92587299950318"><ele>235.8</ele><time>2026-04-04T12:04:32.999Z</time></trkpt><trkpt lat="44.68061849639612" lon="9.925741387506894"><ele>236.0</ele><time>2026-04-04T12:04:33.999Z</time></trkpt><trkpt lat="44.680594612126164" lon="9.925606051158617"><ele>236.0</ele><time>2026-04-04T12:04:34.999Z</time></trkpt><trkpt lat="44.68056593699927" lon="9.925473712607475"><ele>236.00000000000003</ele><time>2026-04-04T12:04:35.999Z</time></trkpt><trkpt lat="44.68054198456462" lon="9.925342443675264"><ele>236.00000000000003</ele><time>2026-04-04T12:04:36.999Z</time></trkpt><trkpt lat="44.680520954117576" lon="9.925227886871156"><ele>236.0</ele><time>2026-04-04T12:04:37.999Z</time></trkpt><trkpt lat="44.680496956701646" lon="9.925126075920064"><ele>236.0</ele><time>2026-04-04T12:04:38.999Z</time></trkpt><trkpt lat="44.68047343913541" lon="9.924994789641037"><ele>236.0</ele><time>2026-04-04T12:04:40.999Z</time></trkpt><trkpt lat="44.68046031918272" lon="9.924904855501447"><ele>236.00000000000003</ele><time>2026-04-04T12:04:42.999Z</time></trkpt><trkpt lat="44.680312038453444" lon="9.924832614961602"><ele>236.00000000000003</ele><time>2026-04-04T12:04:45.999Z</time></trkpt><trkpt lat="44.68025923828206" lon="9.92474060769429"><ele>236.0</ele><time>2026-04-04T12:04:49.998Z</time></trkpt><trkpt lat="44.68034808196059" lon="9.924695558235186"><ele>236.0</ele><time>2026-04-04T12:12:12Z</time></trkpt><trkpt lat="44.68039733400566" lon="9.924838170251105"><ele>236.00000000000003</ele><time>2026-04-04T12:12:14Z</time></trkpt><trkpt lat="44.680437187043694" lon="9.924916212440364"><ele>236.0</ele><time>2026-04-04T12:12:15Z</time></trkpt><trkpt lat="44.68047212444988" lon="9.924994791849764"><ele>236.0</ele><time>2026-04-04T12:12:16Z</time></trkpt><trkpt lat="44.68046045427728" lon="9.92509887626235"><ele>236.0</ele><time>2026-04-04T12:12:17Z</time></trkpt><trkpt lat="44.680481453312495" lon="9.925217159894897"><ele>236.00000000000003</ele><time>2026-04-04T12:12:18Z</time></trkpt><trkpt lat="44.68053006285899" lon="9.92533165156641"><ele>236.0</ele><time>2026-04-04T12:12:19Z</time></trkpt><trkpt lat="44.68054798591216" lon="9.925446426828547"><ele>236.0</ele><time>2026-04-04T12:12:20Z</time></trkpt><trkpt lat="44.68054632773204" lon="9.92558258529797"><ele>236.00000000000003</ele><time>2026-04-04T12:12:21Z</time></trkpt><trkpt lat="44.68057123986904" lon="9.92572291083108"><ele>236.00000000000003</ele><time>2026-04-04T12:12:22Z</time></trkpt><trkpt lat="44.680597261244756" lon="9.925871248259101"><ele>236.0</ele><time>2026-04-04T12:12:23Z</time></trkpt><trkpt lat="44.680622403765014" lon="9.926014733165093"><ele>236.0</ele><time>2026-04-04T12:12:24Z</time></trkpt><trkpt lat="44.68066468818917" lon="9.926159561356624"><ele>236.0</ele><time>2026-04-04T12:12:25Z</time></trkpt><trkpt lat="44.68068964659597" lon="9.9263033046048"><ele>236.0</ele><time>2026-04-04T12:12:26Z</time></trkpt><trkpt lat="44.68071682578168" lon="9.926460786437417"><ele>236.0</ele><time>2026-04-04T12:12:26.999Z</time></trkpt><trkpt lat="44.68074457111054" lon="9.92663646835538"><ele>236.0</ele><time>2026-04-04T12:12:27.999Z</time></trkpt><trkpt lat="44.68077378529994" lon="9.926809001372552"><ele>235.75</ele><time>2026-04-04T12:12:28.999Z</time></trkpt><trkpt lat="44.68080283203782" lon="9.926985806259689"><ele>235.5</ele><time>2026-04-04T12:12:29.999Z</time></trkpt><trkpt lat="44.68082568841543" lon="9.927170019578673"><ele>235.25</ele><time>2026-04-04T12:12:30.999Z</time></trkpt><trkpt lat="44.680845214603174" lon="9.927351071327163"><ele>235.0</ele><time>2026-04-04T12:12:31.999Z</time></trkpt><trkpt lat="44.68085575667299" lon="9.92753490905722"><ele>234.75</ele><time>2026-04-04T12:12:32.999Z</time></trkpt><trkpt lat="44.680860998377" lon="9.927729437285025"><ele>234.5</ele><time>2026-04-04T12:12:33.999Z</time></trkpt><trkpt lat="44.680851585350595" lon="9.927927974306161"><ele>234.25</ele><time>2026-04-04T12:12:34.999Z</time></trkpt><trkpt lat="44.680841153306744" lon="9.928135835498974"><ele>234.0</ele><time>2026-04-04T12:12:35.999Z</time></trkpt><trkpt lat="44.68082214969136" lon="9.92833777393658"><ele>234.25</ele><time>2026-04-04T12:12:36.999Z</time></trkpt><trkpt lat="44.680794631493136" lon="9.928508848454609"><ele>234.5</ele><time>2026-04-04T12:12:37.999Z</time></trkpt><trkpt lat="44.680773789102034" lon="9.928670728177009"><ele>234.75</ele><time>2026-04-04T12:12:38.999Z</time></trkpt><trkpt lat="44.680743498520165" lon="9.928837845008372"><ele>235.0</ele><time>2026-04-04T12:12:39.999Z</time></trkpt><trkpt lat="44.68071269373801" lon="9.92901469431637"><ele>235.0</ele><time>2026-04-04T12:12:40.999Z</time></trkpt><trkpt lat="44.680680584697875" lon="9.929194888219524"><ele>235.0</ele><time>2026-04-04T12:12:41.999Z</time></trkpt><trkpt lat="44.680645898199074" lon="9.929351431019017"><ele>235.0</ele><time>2026-04-04T12:12:42.999Z</time></trkpt><trkpt lat="44.68061708871208" lon="9.929485344812532"><ele>235.0</ele><time>2026-04-04T12:12:43.999Z</time></trkpt><trkpt lat="44.68059611996772" lon="9.929619610373432"><ele>235.0</ele><time>2026-04-04T12:12:44.999Z</time></trkpt><trkpt lat="44.680567285981226" lon="9.929761921509582"><ele>236.0</ele><time>2026-04-04T12:12:45.999Z</time></trkpt><trkpt lat="44.680539192416994" lon="9.929920626878713"><ele>237.0</ele><time>2026-04-04T12:12:46.999Z</time></trkpt><trkpt lat="44.680509937565134" lon="9.930098155595179"><ele>238.0</ele><time>2026-04-04T12:12:47.999Z</time></trkpt><trkpt lat="44.680471757950095" lon="9.930286553154824"><ele>239.0</ele><time>2026-04-04T12:12:48.999Z</time></trkpt><trkpt lat="44.68043944908098" lon="9.930462630887579"><ele>239.2</ele><time>2026-04-04T12:12:49.999Z</time></trkpt><trkpt lat="44.68040710437476" lon="9.930617745119896"><ele>239.39999999999998</ele><time>2026-04-04T12:12:50.999Z</time></trkpt><trkpt lat="44.68038126150773" lon="9.930768686087713"><ele>239.6</ele><time>2026-04-04T12:12:51.999Z</time></trkpt><trkpt lat="44.68035436095899" lon="9.930896030651239"><ele>239.8</ele><time>2026-04-04T12:12:52.999Z</time></trkpt><trkpt lat="44.68033685654676" lon="9.930991964319478"><ele>240.0</ele><time>2026-04-04T12:12:53.999Z</time></trkpt><trkpt lat="44.680306549181125" lon="9.931148090884289"><ele>240.2</ele><time>2026-04-04T12:12:55.999Z</time></trkpt><trkpt lat="44.680288034734474" lon="9.931247758173102"><ele>240.4</ele><time>2026-04-04T12:12:57.999Z</time></trkpt><trkpt lat="44.6802743431585" lon="9.931345375390661"><ele>240.60000000000002</ele><time>2026-04-04T12:12:59.999Z</time></trkpt><trkpt lat="44.68027024109503" lon="9.931436168910261"><ele>240.8</ele><time>2026-04-04T12:13:01.999Z</time></trkpt><trkpt lat="44.680252033748786" lon="9.931534514307778"><ele>241.0</ele><time>2026-04-04T12:13:04.999Z</time></trkpt><trkpt lat="44.68057211058755" lon="9.931590973494687"><ele>241.0</ele><time>2026-04-04T12:13:07.999Z</time></trkpt><trkpt lat="44.6806408434701" lon="9.931603045160122"><ele>241.00000000000003</ele><time>2026-04-04T12:13:08.999Z</time></trkpt><trkpt lat="44.68076809105032" lon="9.931656670035107"><ele>241.00000000000003</ele><time>2026-04-04T12:13:10.999Z</time></trkpt><trkpt lat="44.6808493138504" lon="9.93169529261925"><ele>241.0</ele><time>2026-04-04T12:13:11.998Z</time></trkpt><trkpt lat="44.680932421649736" lon="9.931746476651556"><ele>241.0</ele><time>2026-04-04T12:13:12.998Z</time></trkpt><trkpt lat="44.681019553874904" lon="9.931796971915585"><ele>242.20000000000002</ele><time>2026-04-04T12:13:13.998Z</time></trkpt><trkpt lat="44.68108917326743" lon="9.931846294190054"><ele>243.40000000000003</ele><time>2026-04-04T12:13:14.998Z</time></trkpt><trkpt lat="44.68118759392535" lon="9.931949081911599"><ele>244.6</ele><time>2026-04-04T12:13:16.998Z</time></trkpt><trkpt lat="44.68123961832044" lon="9.932020860098604"><ele>245.8</ele><time>2026-04-04T12:13:17.998Z</time></trkpt><trkpt lat="44.681337168846355" lon="9.932080738648867"><ele>247.0</ele><time>2026-04-04T12:13:19.998Z</time></trkpt><trkpt lat="44.68143756870369" lon="9.932111234600713"><ele>250.8</ele><time>2026-04-04T12:13:21.998Z</time></trkpt><trkpt lat="44.681528840176846" lon="9.93216954936898"><ele>254.6</ele><time>2026-04-04T12:13:23.998Z</time></trkpt><trkpt lat="44.68162586620743" lon="9.932277679504224"><ele>258.40000000000003</ele><time>2026-04-04T12:13:25.998Z</time></trkpt><trkpt lat="44.68170364212363" lon="9.932388411574648"><ele>262.2</ele><time>2026-04-04T12:13:27.998Z</time></trkpt><trkpt lat="44.68175875426406" lon="9.932478714345674"><ele>266.0</ele><time>2026-04-04T12:13:29.998Z</time></trkpt><trkpt lat="44.68182904239901" lon="9.932606615798546"><ele>268.0</ele><time>2026-04-04T12:13:31.998Z</time></trkpt><trkpt lat="44.681880079167115" lon="9.932737199651145"><ele>270.0</ele><time>2026-04-04T12:13:33.998Z</time></trkpt><trkpt lat="44.681927425567004" lon="9.93290535892996"><ele>272.0</ele><time>2026-04-04T12:13:35.998Z</time></trkpt><trkpt lat="44.681979915465455" lon="9.932961891759474"><ele>274.0</ele><time>2026-04-04T12:13:37.998Z</time></trkpt><trkpt lat="44.6820739512809" lon="9.932975187787985"><ele>276.0</ele><time>2026-04-04T12:13:39.998Z</time></trkpt><trkpt lat="44.68213806613201" lon="9.932902174675734"><ele>279.0</ele><time>2026-04-04T12:13:41.998Z</time></trkpt><trkpt lat="44.682202900432074" lon="9.93281767691176"><ele>282.0</ele><time>2026-04-04T12:13:43.998Z</time></trkpt><trkpt lat="44.68229645523187" lon="9.932774550206581"><ele>285.0</ele><time>2026-04-04T12:13:45.998Z</time></trkpt><trkpt lat="44.68237943621684" lon="9.932807739653914"><ele>288.0</ele><time>2026-04-04T12:13:47.998Z</time></trkpt><trkpt lat="44.68244063710319" lon="9.932831677369563"><ele>291.0</ele><time>2026-04-04T12:13:48.998Z</time></trkpt><trkpt lat="44.6825528417403" lon="9.932878406692833"><ele>291.0</ele><time>2026-04-04T12:13:50.998Z</time></trkpt><trkpt lat="44.682668857278244" lon="9.932917555156195"><ele>291.0</ele><time>2026-04-04T12:13:52.998Z</time></trkpt><trkpt lat="44.68273990237077" lon="9.932942528184912"><ele>291.0</ele><time>2026-04-04T12:13:53.998Z</time></trkpt><trkpt lat="44.682820763119885" lon="9.932968092985002"><ele>291.0</ele><time>2026-04-04T12:13:54.998Z</time></trkpt><trkpt lat="44.68291219552485" lon="9.933003930171603"><ele>291.0</ele><time>2026-04-04T12:13:55.998Z</time></trkpt><trkpt lat="44.68297813215485" lon="9.933053942668483"><ele>291.0</ele><time>2026-04-04T12:13:57Z</time></trkpt><trkpt lat="44.683030153403685" lon="9.933121333032423"><ele>293.5</ele><time>2026-04-04T12:13:58Z</time></trkpt><trkpt lat="44.68309228061366" lon="9.93319947356994"><ele>296.0</ele><time>2026-04-04T12:13:59Z</time></trkpt><trkpt lat="44.68316298053263" lon="9.933286733669794"><ele>298.5</ele><time>2026-04-04T12:14:00Z</time></trkpt><trkpt lat="44.68322351760166" lon="9.933375864876128"><ele>301.0</ele><time>2026-04-04T12:14:01Z</time></trkpt><trkpt lat="44.683278006803775" lon="9.933462179418768"><ele>303.5</ele><time>2026-04-04T12:14:02Z</time></trkpt><trkpt lat="44.683351501320786" lon="9.93355255331174"><ele>306.0</ele><time>2026-04-04T12:14:04Z</time></trkpt><trkpt lat="44.68342260288537" lon="9.933592926177754"><ele>306.8333333333333</ele><time>2026-04-04T12:14:06Z</time></trkpt><trkpt lat="44.68351201623088" lon="9.933647003736128"><ele>307.6666666666667</ele><time>2026-04-04T12:14:08Z</time></trkpt><trkpt lat="44.68356011921945" lon="9.933728250574584"><ele>308.5</ele><time>2026-04-04T12:14:10Z</time></trkpt><trkpt lat="44.683519318982256" lon="9.93382069122757"><ele>309.33333333333337</ele><time>2026-04-04T12:14:12Z</time></trkpt><trkpt lat="44.68347410849816" lon="9.933895558084519"><ele>310.1666666666667</ele><time>2026-04-04T12:14:13Z</time></trkpt><trkpt lat="44.683427177488866" lon="9.93398116736022"><ele>311.0</ele><time>2026-04-04T12:14:14Z</time></trkpt><trkpt lat="44.68339299817801" lon="9.934080231830277"><ele>311.2</ele><time>2026-04-04T12:14:15Z</time></trkpt><trkpt lat="44.68336435801243" lon="9.93422783414177"><ele>311.40000000000003</ele><time>2026-04-04T12:14:17Z</time></trkpt><trkpt lat="44.68343422588579" lon="9.934341860658867"><ele>311.6</ele><time>2026-04-04T12:14:19Z</time></trkpt><trkpt lat="44.683546531182174" lon="9.934403797800671"><ele>311.8</ele><time>2026-04-04T12:14:21Z</time></trkpt><trkpt lat="44.683600614870784" lon="9.934474038259921"><ele>312.0</ele><time>2026-04-04T12:14:24Z</time></trkpt><trkpt lat="44.68368175944063" lon="9.934458745099578"><ele>312.0</ele><time>2026-04-04T12:14:27Z</time></trkpt><trkpt lat="44.68372271624494" lon="9.934364288375594"><ele>312.0</ele><time>2026-04-04T12:15:10.999Z</time></trkpt><trkpt lat="44.68378264184435" lon="9.934219880408763"><ele>312.0</ele><time>2026-04-04T12:15:12.999Z</time></trkpt><trkpt lat="44.68383174893528" lon="9.934133453404444"><ele>312.0</ele><time>2026-04-04T12:15:13.999Z</time></trkpt><trkpt lat="44.68388345923452" lon="9.934041937559629"><ele>312.0</ele><time>2026-04-04T12:15:14.999Z</time></trkpt><trkpt lat="44.68395699630664" lon="9.933981532832865"><ele>312.0</ele><time>2026-04-04T12:15:15.999Z</time></trkpt><trkpt lat="44.68398845466857" lon="9.933899061910097"><ele>313.5</ele><time>2026-04-04T12:15:16.999Z</time></trkpt><trkpt lat="44.68400496751919" lon="9.933800988930987"><ele>315.0</ele><time>2026-04-04T12:15:17.999Z</time></trkpt><trkpt lat="44.68406322253555" lon="9.933709526419486"><ele>316.5</ele><time>2026-04-04T12:15:18.998Z</time></trkpt><trkpt lat="44.68415225446134" lon="9.933654896871507"><ele>318.0</ele><time>2026-04-04T12:15:19.998Z</time></trkpt><trkpt lat="44.684214582728636" lon="9.93358239849704"><ele>319.5</ele><time>2026-04-04T12:15:20.998Z</time></trkpt><trkpt lat="44.68427734389706" lon="9.933512126941627"><ele>321.0</ele><time>2026-04-04T12:15:21.998Z</time></trkpt><trkpt lat="44.68433285730572" lon="9.933452007974951"><ele>322.0</ele><time>2026-04-04T12:15:22.998Z</time></trkpt><trkpt lat="44.68441244108797" lon="9.933331967078933"><ele>323.0</ele><time>2026-04-04T12:15:24.998Z</time></trkpt><trkpt lat="44.68444118201564" lon="9.933227223875074"><ele>324.0</ele><time>2026-04-04T12:15:25.998Z</time></trkpt><trkpt lat="44.68446549605326" lon="9.933118871894239"><ele>325.0</ele><time>2026-04-04T12:15:26.998Z</time></trkpt><trkpt lat="44.684478334420994" lon="9.932999230963814"><ele>326.0</ele><time>2026-04-04T12:15:27.998Z</time></trkpt><trkpt lat="44.68447870947979" lon="9.932886796920627"><ele>327.0</ele><time>2026-04-04T12:15:28.998Z</time></trkpt><trkpt lat="44.68447868057852" lon="9.932782649411227"><ele>328.3333333333333</ele><time>2026-04-04T12:15:29.998Z</time></trkpt><trkpt lat="44.68447811245547" lon="9.932671354496048"><ele>329.6666666666667</ele><time>2026-04-04T12:15:30.998Z</time></trkpt><trkpt lat="44.68447804691928" lon="9.932555227857089"><ele>331.0</ele><time>2026-04-04T12:15:31.998Z</time></trkpt><trkpt lat="44.68447848940849" lon="9.932444105551044"><ele>332.33333333333337</ele><time>2026-04-04T12:15:32.998Z</time></trkpt><trkpt lat="44.68448223550069" lon="9.932319476144098"><ele>333.6666666666667</ele><time>2026-04-04T12:15:33.998Z</time></trkpt><trkpt lat="44.6845040828503" lon="9.932168881203335"><ele>335.0</ele><time>2026-04-04T12:15:35.998Z</time></trkpt><trkpt lat="44.68456038482965" lon="9.93212319987571"><ele>339.4</ele><time>2026-04-04T12:15:37.998Z</time></trkpt><trkpt lat="44.68465449367839" lon="9.932143052656222"><ele>343.8</ele><time>2026-04-04T12:15:39.998Z</time></trkpt><trkpt lat="44.68472827316863" lon="9.932166613297703"><ele>348.20000000000005</ele><time>2026-04-04T12:15:40.998Z</time></trkpt><trkpt lat="44.684808766682174" lon="9.932168660455376"><ele>352.6</ele><time>2026-04-04T12:15:41.998Z</time></trkpt><trkpt lat="44.684882436528135" lon="9.932154583519425"><ele>357.0</ele><time>2026-04-04T12:15:42.998Z</time></trkpt><trkpt lat="44.68500163428847" lon="9.932056505722205"><ele>357.0</ele><time>2026-04-04T12:15:44.998Z</time></trkpt><trkpt lat="44.68506098567369" lon="9.93198640546694"><ele>357.0</ele><time>2026-04-04T12:15:45.998Z</time></trkpt><trkpt lat="44.685104358136876" lon="9.93191667643665"><ele>357.0</ele><time>2026-04-04T12:15:46.998Z</time></trkpt><trkpt lat="44.68515627569894" lon="9.931850905015121"><ele>357.0</ele><time>2026-04-04T12:15:47.998Z</time></trkpt><trkpt lat="44.68522589277747" lon="9.931806931218158"><ele>357.0</ele><time>2026-04-04T12:15:48.998Z</time></trkpt><trkpt lat="44.68528540596134" lon="9.931757766850392"><ele>357.0</ele><time>2026-04-04T12:15:49.998Z</time></trkpt><trkpt lat="44.68535241829873" lon="9.931693610616517"><ele>357.0</ele><time>2026-04-04T12:15:50.998Z</time></trkpt><trkpt lat="44.68541177168299" lon="9.931623020901956"><ele>360.5</ele><time>2026-04-04T12:15:51.998Z</time></trkpt><trkpt lat="44.68544215789483" lon="9.931530321590916"><ele>364.0</ele><time>2026-04-04T12:15:52.998Z</time></trkpt><trkpt lat="44.685504270216974" lon="9.931455255909038"><ele>367.5</ele><time>2026-04-04T12:15:53.998Z</time></trkpt><trkpt lat="44.68554852525708" lon="9.931374945114843"><ele>371.0</ele><time>2026-04-04T12:15:54.998Z</time></trkpt><trkpt lat="44.6855916135938" lon="9.931299045613958"><ele>374.5</ele><time>2026-04-04T12:15:55.998Z</time></trkpt><trkpt lat="44.68563317758239" lon="9.931225831227774"><ele>378.0</ele><time>2026-04-04T12:15:56.998Z</time></trkpt><trkpt lat="44.68579257283294" lon="9.93126865752372"><ele>378.0</ele><time>2026-04-04T12:15:57.998Z</time></trkpt><trkpt lat="44.6858482315061" lon="9.931163244588053"><ele>378.0</ele><time>2026-04-04T12:15:59.998Z</time></trkpt><trkpt lat="44.68583806963773" lon="9.931020329782877"><ele>378.0</ele><time>2026-04-04T12:16:01.998Z</time></trkpt><trkpt lat="44.68583034477549" lon="9.93092938332033"><ele>378.0</ele><time>2026-04-04T12:16:03Z</time></trkpt><trkpt lat="44.68584407949278" lon="9.930823418193507"><ele>378.0</ele><time>2026-04-04T12:16:04Z</time></trkpt><trkpt lat="44.68592087480242" lon="9.93068348693723"><ele>380.6666666666667</ele><time>2026-04-04T12:16:06Z</time></trkpt><trkpt lat="44.685973001138265" lon="9.930614047075546"><ele>383.33333333333337</ele><time>2026-04-04T12:16:07Z</time></trkpt><trkpt lat="44.68603536940187" lon="9.930444184679706"><ele>386.0</ele><time>2026-04-04T12:16:09Z</time></trkpt><trkpt lat="44.6860751615028" lon="9.930347000230444"><ele>388.6666666666667</ele><time>2026-04-04T12:16:10Z</time></trkpt><trkpt lat="44.6861142354836" lon="9.930271648735662"><ele>391.33333333333337</ele><time>2026-04-04T12:16:11Z</time></trkpt><trkpt lat="44.68615033452552" lon="9.93018067779181"><ele>394.0</ele><time>2026-04-04T12:16:12Z</time></trkpt><trkpt lat="44.686194452355366" lon="9.93009202341458"><ele>398.4</ele><time>2026-04-04T12:16:13Z</time></trkpt><trkpt lat="44.68624968999619" lon="9.930008334535202"><ele>402.79999999999995</ele><time>2026-04-04T12:16:14Z</time></trkpt><trkpt lat="44.68630081091065" lon="9.929894818353677"><ele>407.20000000000005</ele><time>2026-04-04T12:16:15Z</time></trkpt><trkpt lat="44.68634953630852" lon="9.929765725273787"><ele>411.6</ele><time>2026-04-04T12:16:16Z</time></trkpt><trkpt lat="44.68639865834472" lon="9.929632192645368"><ele>416.0</ele><time>2026-04-04T12:16:17Z</time></trkpt><trkpt lat="44.686447867086336" lon="9.929496536907445"><ele>416.0</ele><time>2026-04-04T12:16:18Z</time></trkpt><trkpt lat="44.68649293861983" lon="9.929381013264788"><ele>416.0</ele><time>2026-04-04T12:16:19Z</time></trkpt><trkpt lat="44.686540506664635" lon="9.929267295218775"><ele>416.0</ele><time>2026-04-04T12:16:20Z</time></trkpt><trkpt lat="44.686585357596584" lon="9.929149990485021"><ele>416.0</ele><time>2026-04-04T12:16:21Z</time></trkpt><trkpt lat="44.68662204302383" lon="9.929030465544214"><ele>416.0</ele><time>2026-04-04T12:16:22Z</time></trkpt><trkpt lat="44.686672926362974" lon="9.928907767908248"><ele>416.16666666666663</ele><time>2026-04-04T12:16:23Z</time></trkpt><trkpt lat="44.686726906244324" lon="9.928802733534981"><ele>416.3333333333333</ele><time>2026-04-04T12:16:24Z</time></trkpt><trkpt lat="44.68677229391536" lon="9.928740374802475"><ele>416.5</ele><time>2026-04-04T12:16:25Z</time></trkpt><trkpt lat="44.686825282450684" lon="9.92867051430561"><ele>416.66666666666663</ele><time>2026-04-04T12:16:26Z</time></trkpt><trkpt lat="44.68687792104771" lon="9.92860022683089"><ele>416.8333333333333</ele><time>2026-04-04T12:16:27Z</time></trkpt><trkpt lat="44.68693423348605" lon="9.928533517371532"><ele>417.0</ele><time>2026-04-04T12:16:28Z</time></trkpt><trkpt lat="44.68699147762817" lon="9.928464896382206"><ele>418.20000000000005</ele><time>2026-04-04T12:16:29Z</time></trkpt><trkpt lat="44.68703961228616" lon="9.928391300849325"><ele>419.4</ele><time>2026-04-04T12:16:30Z</time></trkpt><trkpt lat="44.687154809023774" lon="9.928272305641082"><ele>420.6</ele><time>2026-04-04T12:16:32Z</time></trkpt><trkpt lat="44.68723652590996" lon="9.928201788625852"><ele>421.79999999999995</ele><time>2026-04-04T12:16:33Z</time></trkpt><trkpt lat="44.687295995918056" lon="9.928138644457755"><ele>423.0</ele><time>2026-04-04T12:16:34Z</time></trkpt><trkpt lat="44.687359783410635" lon="9.928115822500251"><ele>423.0</ele><time>2026-04-04T12:16:35Z</time></trkpt><trkpt lat="44.68742486164672" lon="9.928127046446958"><ele>423.0</ele><time>2026-04-04T12:16:36Z</time></trkpt><trkpt lat="44.68752247933535" lon="9.928154884711107"><ele>423.0</ele><time>2026-04-04T12:16:37Z</time></trkpt><trkpt lat="44.687612116043205" lon="9.928175234706176"><ele>423.0</ele><time>2026-04-04T12:16:38Z</time></trkpt><trkpt lat="44.687702201801436" lon="9.928196639604806"><ele>423.0</ele><time>2026-04-04T12:16:38.999Z</time></trkpt><trkpt lat="44.687791169427165" lon="9.92819994374282"><ele>423.0</ele><time>2026-04-04T12:16:39.999Z</time></trkpt><trkpt lat="44.68789163385548" lon="9.928199064977585"><ele>421.4</ele><time>2026-04-04T12:16:40.999Z</time></trkpt><trkpt lat="44.687995012635454" lon="9.928199140006383"><ele>419.79999999999995</ele><time>2026-04-04T12:16:41.999Z</time></trkpt><trkpt lat="44.688102908567814" lon="9.928184608062859"><ele>418.2</ele><time>2026-04-04T12:16:42.999Z</time></trkpt><trkpt lat="44.68821193689101" lon="9.92816520767395"><ele>416.6</ele><time>2026-04-04T12:16:43.999Z</time></trkpt><trkpt lat="44.68832685912635" lon="9.92814949348913"><ele>415.0</ele><time>2026-04-04T12:16:44.999Z</time></trkpt><trkpt lat="44.68843281423259" lon="9.928127149228924"><ele>415.0</ele><time>2026-04-04T12:16:45.999Z</time></trkpt><trkpt lat="44.68853554674355" lon="9.92809998589541"><ele>415.0</ele><time>2026-04-04T12:16:46.999Z</time></trkpt><trkpt lat="44.68862597453497" lon="9.928062645544252"><ele>415.0</ele><time>2026-04-04T12:16:47.999Z</time></trkpt><trkpt lat="44.688713382802256" lon="9.928028904707352"><ele>415.0</ele><time>2026-04-04T12:16:48.999Z</time></trkpt><trkpt lat="44.68880859041022" lon="9.928005477255164"><ele>415.0</ele><time>2026-04-04T12:16:49.999Z</time></trkpt><trkpt lat="44.68889996627115" lon="9.928015459880504"><ele>416.33333333333337</ele><time>2026-04-04T12:16:50.999Z</time></trkpt><trkpt lat="44.68899912992587" lon="9.928050049384728"><ele>417.6666666666667</ele><time>2026-04-04T12:16:51.999Z</time></trkpt><trkpt lat="44.689081724243735" lon="9.928098109772613"><ele>419.0</ele><time>2026-04-04T12:16:52.999Z</time></trkpt><trkpt lat="44.68914455451271" lon="9.928152426366623"><ele>420.33333333333337</ele><time>2026-04-04T12:16:53.999Z</time></trkpt><trkpt lat="44.68920372178511" lon="9.928219420435257"><ele>421.6666666666667</ele><time>2026-04-04T12:16:54.999Z</time></trkpt><trkpt lat="44.68925812406755" lon="9.92828834766882"><ele>423.0</ele><time>2026-04-04T12:16:55.999Z</time></trkpt><trkpt lat="44.68933106623446" lon="9.928373646013409"><ele>421.2</ele><time>2026-04-04T12:16:56.999Z</time></trkpt><trkpt lat="44.689412552215295" lon="9.928443506673934"><ele>419.4</ele><time>2026-04-04T12:16:57.999Z</time></trkpt><trkpt lat="44.68950248232644" lon="9.928474407721328"><ele>417.59999999999997</ele><time>2026-04-04T12:16:58.999Z</time></trkpt><trkpt lat="44.68959427071281" lon="9.928473467818073"><ele>415.79999999999995</ele><time>2026-04-04T12:16:59.999Z</time></trkpt><trkpt lat="44.68969730567942" lon="9.928456356533886"><ele>414.0</ele><time>2026-04-04T12:17:00.999Z</time></trkpt><trkpt lat="44.689800189407386" lon="9.928432900033256"><ele>414.0</ele><time>2026-04-04T12:17:01.999Z</time></trkpt><trkpt lat="44.689888726534825" lon="9.928411369235171"><ele>414.0</ele><time>2026-04-04T12:17:02.999Z</time></trkpt><trkpt lat="44.689963706096385" lon="9.928376665502569"><ele>414.0</ele><time>2026-04-04T12:17:03.999Z</time></trkpt><trkpt lat="44.690047958535004" lon="9.928341564000602"><ele>414.0</ele><time>2026-04-04T12:17:04.999Z</time></trkpt><trkpt lat="44.690127194040265" lon="9.928319764591246"><ele>414.0</ele><time>2026-04-04T12:17:05.999Z</time></trkpt><trkpt lat="44.690205676959174" lon="9.92830260198792"><ele>414.0</ele><time>2026-04-04T12:17:06.999Z</time></trkpt><trkpt lat="44.6902779249296" lon="9.92826521941792"><ele>415.79999999999995</ele><time>2026-04-04T12:17:07.999Z</time></trkpt><trkpt lat="44.690350429964866" lon="9.928214296362931"><ele>417.59999999999997</ele><time>2026-04-04T12:17:08.999Z</time></trkpt><trkpt lat="44.69041546799299" lon="9.928129975545"><ele>419.4</ele><time>2026-04-04T12:17:09.999Z</time></trkpt><trkpt lat="44.69048694165361" lon="9.928032653875286"><ele>421.2</ele><time>2026-04-04T12:17:10.999Z</time></trkpt><trkpt lat="44.69055999181299" lon="9.927944866299956"><ele>423.0</ele><time>2026-04-04T12:17:11.999Z</time></trkpt><trkpt lat="44.69064026875805" lon="9.92786197178359"><ele>423.0</ele><time>2026-04-04T12:17:12.999Z</time></trkpt><trkpt lat="44.69071868692403" lon="9.927776371757512"><ele>423.0</ele><time>2026-04-04T12:17:13.999Z</time></trkpt><trkpt lat="44.69079838409017" lon="9.92768211591485"><ele>423.0</ele><time>2026-04-04T12:17:14.999Z</time></trkpt><trkpt lat="44.69086785393723" lon="9.927587171689426"><ele>423.0</ele><time>2026-04-04T12:17:15.999Z</time></trkpt><trkpt lat="44.69093863415234" lon="9.927509835045065"><ele>423.0</ele><time>2026-04-04T12:17:16.999Z</time></trkpt><trkpt lat="44.69100521636486" lon="9.927459081115785"><ele>425.2</ele><time>2026-04-04T12:17:17.999Z</time></trkpt><trkpt lat="44.69108536350531" lon="9.927408358532936"><ele>427.4</ele><time>2026-04-04T12:17:18.999Z</time></trkpt><trkpt lat="44.691163418715774" lon="9.92736251040629"><ele>429.59999999999997</ele><time>2026-04-04T12:17:19.999Z</time></trkpt><trkpt lat="44.69124193467977" lon="9.92731901725261"><ele>431.79999999999995</ele><time>2026-04-04T12:17:20.999Z</time></trkpt><trkpt lat="44.69134000279703" lon="9.927267357233793"><ele>434.0</ele><time>2026-04-04T12:17:21.999Z</time></trkpt><trkpt lat="44.69143396158416" lon="9.927208645995709"><ele>434.0</ele><time>2026-04-04T12:17:22.998Z</time></trkpt><trkpt lat="44.69152753275505" lon="9.927146894187581"><ele>434.0</ele><time>2026-04-04T12:17:23.998Z</time></trkpt><trkpt lat="44.691596895545345" lon="9.927084730497995"><ele>434.0</ele><time>2026-04-04T12:17:24.998Z</time></trkpt><trkpt lat="44.691674657858556" lon="9.927017602208382"><ele>434.0</ele><time>2026-04-04T12:17:25.998Z</time></trkpt><trkpt lat="44.69174094963932" lon="9.926986114031049"><ele>434.0</ele><time>2026-04-04T12:17:26.998Z</time></trkpt><trkpt lat="44.69185630812517" lon="9.926990412468626"><ele>434.66666666666663</ele><time>2026-04-04T12:17:28.998Z</time></trkpt><trkpt lat="44.69195413603013" lon="9.926992940867056"><ele>435.3333333333333</ele><time>2026-04-04T12:17:29.998Z</time></trkpt><trkpt lat="44.69206221138998" lon="9.926975560710929"><ele>436.0</ele><time>2026-04-04T12:17:30.998Z</time></trkpt><trkpt lat="44.692147131438276" lon="9.926947042480933"><ele>436.66666666666663</ele><time>2026-04-04T12:17:31.998Z</time></trkpt><trkpt lat="44.692218879529506" lon="9.926910533287707"><ele>437.3333333333333</ele><time>2026-04-04T12:17:32.998Z</time></trkpt><trkpt lat="44.69228708126232" lon="9.926870046332452"><ele>438.0</ele><time>2026-04-04T12:17:33.998Z</time></trkpt><trkpt lat="44.69237755917748" lon="9.926720436346342"><ele>438.0</ele><time>2026-04-04T12:17:35.998Z</time></trkpt><trkpt lat="44.69244808128013" lon="9.926585287303325"><ele>437.99999999999994</ele><time>2026-04-04T12:17:36.998Z</time></trkpt><trkpt lat="44.69252627669451" lon="9.926443696885883"><ele>437.99999999999994</ele><time>2026-04-04T12:17:37.998Z</time></trkpt><trkpt lat="44.692583735251894" lon="9.926324530126173"><ele>438.0</ele><time>2026-04-04T12:17:38.998Z</time></trkpt><trkpt lat="44.6926344988292" lon="9.926227713586064"><ele>438.0</ele><time>2026-04-04T12:17:39.998Z</time></trkpt><trkpt lat="44.69267915031432" lon="9.926123273855733"><ele>438.0</ele><time>2026-04-04T12:17:40.998Z</time></trkpt><trkpt lat="44.692726376926345" lon="9.926025236804481"><ele>438.0</ele><time>2026-04-04T12:17:41.998Z</time></trkpt><trkpt lat="44.69278450693311" lon="9.925940374908663"><ele>438.0</ele><time>2026-04-04T12:17:42.998Z</time></trkpt><trkpt lat="44.692854312741986" lon="9.925870254697292"><ele>438.0</ele><time>2026-04-04T12:17:43.998Z</time></trkpt><trkpt lat="44.69293998231782" lon="9.925838387373165"><ele>438.0</ele><time>2026-04-04T12:17:44.998Z</time></trkpt><trkpt lat="44.69301277739607" lon="9.925780355262473"><ele>438.0</ele><time>2026-04-04T12:17:45.998Z</time></trkpt><trkpt lat="44.69308931747559" lon="9.925729432617041"><ele>439.6666666666667</ele><time>2026-04-04T12:17:46.998Z</time></trkpt><trkpt lat="44.69316130186581" lon="9.925693113630976"><ele>441.33333333333337</ele><time>2026-04-04T12:17:47.998Z</time></trkpt><trkpt lat="44.69323547191238" lon="9.925684915982144"><ele>443.0</ele><time>2026-04-04T12:17:48.998Z</time></trkpt><trkpt lat="44.69330960288112" lon="9.925666946959536"><ele>444.6666666666667</ele><time>2026-04-04T12:17:49.998Z</time></trkpt><trkpt lat="44.69336027276311" lon="9.925612615019269"><ele>446.33333333333337</ele><time>2026-04-04T12:17:50.998Z</time></trkpt><trkpt lat="44.69342218183327" lon="9.925566889502619"><ele>448.0</ele><time>2026-04-04T12:17:51.998Z</time></trkpt><trkpt lat="44.69349878754186" lon="9.925488974336295"><ele>448.00000000000006</ele><time>2026-04-04T12:17:52.998Z</time></trkpt><trkpt lat="44.69357956683837" lon="9.925420771175226"><ele>448.0</ele><time>2026-04-04T12:17:53.998Z</time></trkpt><trkpt lat="44.693664336155706" lon="9.925391559256957"><ele>448.0</ele><time>2026-04-04T12:17:54.998Z</time></trkpt><trkpt lat="44.69374459452575" lon="9.925375957275453"><ele>448.0</ele><time>2026-04-04T12:17:55.998Z</time></trkpt><trkpt lat="44.693810499929825" lon="9.925331600528205"><ele>448.00000000000006</ele><time>2026-04-04T12:17:56.998Z</time></trkpt><trkpt lat="44.69388755785247" lon="9.925241547682003"><ele>448.0</ele><time>2026-04-04T12:17:58.998Z</time></trkpt><trkpt lat="44.693968590330975" lon="9.925194189645213"><ele>448.59999999999997</ele><time>2026-04-04T12:18:00.998Z</time></trkpt><trkpt lat="44.694049497254625" lon="9.92514424592003"><ele>449.19999999999993</ele><time>2026-04-04T12:18:01.998Z</time></trkpt><trkpt lat="44.69413163394175" lon="9.9250895601741"><ele>449.8</ele><time>2026-04-04T12:18:02.998Z</time></trkpt><trkpt lat="44.69420384263576" lon="9.925037694674355"><ele>450.4</ele><time>2026-04-04T12:18:03.998Z</time></trkpt><trkpt lat="44.69429341227831" lon="9.924968446478898"><ele>451.0</ele><time>2026-04-04T12:18:04.998Z</time></trkpt><trkpt lat="44.694364326265664" lon="9.924894858554408"><ele>456.6666666666667</ele><time>2026-04-04T12:18:05.998Z</time></trkpt><trkpt lat="44.69443028417609" lon="9.924822530126272"><ele>462.33333333333337</ele><time>2026-04-04T12:18:06.998Z</time></trkpt><trkpt lat="44.694591793334254" lon="9.924944554383035"><ele>468.0</ele><time>2026-04-04T12:18:07.997Z</time></trkpt><trkpt lat="44.69454875837865" lon="9.924652597186904"><ele>468.0</ele><time>2026-04-04T12:18:09Z</time></trkpt><trkpt lat="44.694619813509924" lon="9.924560697094662"><ele>468.0</ele><time>2026-04-04T12:18:10Z</time></trkpt><trkpt lat="44.69469147247299" lon="9.924491561870502"><ele>468.0</ele><time>2026-04-04T12:18:11Z</time></trkpt><trkpt lat="44.69474955902737" lon="9.924411559031206"><ele>468.0</ele><time>2026-04-04T12:18:12Z</time></trkpt><trkpt lat="44.694813896701696" lon="9.924325747998536"><ele>468.0</ele><time>2026-04-04T12:18:13Z</time></trkpt><trkpt lat="44.694871295933986" lon="9.924255486427686"><ele>468.0</ele><time>2026-04-04T12:18:14Z</time></trkpt><trkpt lat="44.694926773648504" lon="9.924197226220967"><ele>470.0</ele><time>2026-04-04T12:18:15Z</time></trkpt><trkpt lat="44.69499351351701" lon="9.924145292927832"><ele>472.0</ele><time>2026-04-04T12:18:16Z</time></trkpt><trkpt lat="44.69504901541984" lon="9.924077757040948"><ele>474.0</ele><time>2026-04-04T12:18:17Z</time></trkpt><trkpt lat="44.69509618565294" lon="9.923983329593801"><ele>476.0</ele><time>2026-04-04T12:18:18Z</time></trkpt><trkpt lat="44.695151248926365" lon="9.923898493219793"><ele>478.0</ele><time>2026-04-04T12:18:19Z</time></trkpt><trkpt lat="44.6951991450604" lon="9.92381997500198"><ele>480.0</ele><time>2026-04-04T12:18:20Z</time></trkpt><trkpt lat="44.69524214466074" lon="9.92374215860509"><ele>481.14285714285717</ele><time>2026-04-04T12:18:21Z</time></trkpt><trkpt lat="44.69529464674453" lon="9.923656231572753"><ele>482.2857142857142</ele><time>2026-04-04T12:18:22Z</time></trkpt><trkpt lat="44.695340703720724" lon="9.923567882966486"><ele>483.4285714285714</ele><time>2026-04-04T12:18:23Z</time></trkpt><trkpt lat="44.69538337378605" lon="9.923479833271596"><ele>484.57142857142856</ele><time>2026-04-04T12:18:24Z</time></trkpt><trkpt lat="44.69542006534599" lon="9.923402292439132"><ele>485.71428571428567</ele><time>2026-04-04T12:18:25Z</time></trkpt><trkpt lat="44.69545676412417" lon="9.923320424957938"><ele>486.8571428571428</ele><time>2026-04-04T12:18:26Z</time></trkpt><trkpt lat="44.695499398217535" lon="9.923238490723815"><ele>487.99999999999994</ele><time>2026-04-04T12:18:27Z</time></trkpt><trkpt lat="44.69554520675549" lon="9.923158957560995"><ele>490.59999999999997</ele><time>2026-04-04T12:18:28Z</time></trkpt><trkpt lat="44.69560352878153" lon="9.923087340457489"><ele>493.19999999999993</ele><time>2026-04-04T12:18:29Z</time></trkpt><trkpt lat="44.695662823395715" lon="9.923048570926884"><ele>495.8</ele><time>2026-04-04T12:18:30Z</time></trkpt><trkpt lat="44.695774173018826" lon="9.923007279743407"><ele>498.4</ele><time>2026-04-04T12:18:32Z</time></trkpt><trkpt lat="44.69590195875365" lon="9.922975342350629"><ele>501.0</ele><time>2026-04-04T12:18:34Z</time></trkpt><trkpt lat="44.695967709025304" lon="9.922943318151123"><ele>502.6</ele><time>2026-04-04T12:18:35Z</time></trkpt><trkpt lat="44.69608670631184" lon="9.922930947390737"><ele>504.20000000000005</ele><time>2026-04-04T12:18:37Z</time></trkpt><trkpt lat="44.696184564967425" lon="9.92291238377561"><ele>505.79999999999995</ele><time>2026-04-04T12:18:39Z</time></trkpt><trkpt lat="44.69627902183036" lon="9.922820414131094"><ele>507.4</ele><time>2026-04-04T12:18:41Z</time></trkpt><trkpt lat="44.696340447510686" lon="9.922783376000512"><ele>509.0</ele><time>2026-04-04T12:18:42Z</time></trkpt><trkpt lat="44.69640623251387" lon="9.92274791940009"><ele>508.99999999999994</ele><time>2026-04-04T12:18:43Z</time></trkpt><trkpt lat="44.69646194422474" lon="9.92270502885665"><ele>509.0</ele><time>2026-04-04T12:18:44Z</time></trkpt><trkpt lat="44.696500333486405" lon="9.922599309816926"><ele>509.0</ele><time>2026-04-04T12:18:45.999Z</time></trkpt><trkpt lat="44.696574417176045" lon="9.922483362399444"><ele>509.0</ele><time>2026-04-04T12:18:47.999Z</time></trkpt><trkpt lat="44.69662310778908" lon="9.922416664811827"><ele>508.99999999999994</ele><time>2026-04-04T12:18:48.999Z</time></trkpt><trkpt lat="44.696677748184555" lon="9.922327402773572"><ele>509.0</ele><time>2026-04-04T12:18:49.999Z</time></trkpt><trkpt lat="44.69673460729238" lon="9.92222870663128"><ele>509.49999999999994</ele><time>2026-04-04T12:18:50.999Z</time></trkpt><trkpt lat="44.696800185411455" lon="9.922128625203133"><ele>510.0</ele><time>2026-04-04T12:18:51.999Z</time></trkpt><trkpt lat="44.69686997747782" lon="9.922036552844773"><ele>510.5</ele><time>2026-04-04T12:18:52.999Z</time></trkpt><trkpt lat="44.696927957437026" lon="9.921964625245735"><ele>511.0</ele><time>2026-04-04T12:18:53.999Z</time></trkpt><trkpt lat="44.696991130699914" lon="9.921904229614888"><ele>511.49999999999994</ele><time>2026-04-04T12:18:54.999Z</time></trkpt><trkpt lat="44.697064029175394" lon="9.92185153300521"><ele>512.0</ele><time>2026-04-04T12:18:55.999Z</time></trkpt><trkpt lat="44.697124094074" lon="9.921803847236035"><ele>512.0</ele><time>2026-04-04T12:18:56.999Z</time></trkpt><trkpt lat="44.69717511988972" lon="9.921749483874958"><ele>511.99999999999994</ele><time>2026-04-04T12:18:57.999Z</time></trkpt><trkpt lat="44.697229109863464" lon="9.921666220500095"><ele>512.0</ele><time>2026-04-04T12:18:58.999Z</time></trkpt><trkpt lat="44.69725574357951" lon="9.921585009575209"><ele>512.0</ele><time>2026-04-04T12:18:59.999Z</time></trkpt><trkpt lat="44.69728568577052" lon="9.921506610067748"><ele>511.99999999999994</ele><time>2026-04-04T12:19:00.999Z</time></trkpt><trkpt lat="44.697337430546966" lon="9.921432496094148"><ele>512.0</ele><time>2026-04-04T12:19:01.999Z</time></trkpt><trkpt lat="44.697385786973456" lon="9.921351764812897"><ele>512.0</ele><time>2026-04-04T12:19:02.999Z</time></trkpt><trkpt lat="44.69742468920883" lon="9.921251977190991"><ele>515.6</ele><time>2026-04-04T12:19:03.999Z</time></trkpt><trkpt lat="44.697452153345814" lon="9.921151910483255"><ele>519.2</ele><time>2026-04-04T12:19:04.999Z</time></trkpt><trkpt lat="44.69747310040738" lon="9.921058301144415"><ele>522.8</ele><time>2026-04-04T12:19:05.999Z</time></trkpt><trkpt lat="44.69751030435678" lon="9.920897180365024"><ele>526.4</ele><time>2026-04-04T12:19:07.999Z</time></trkpt><trkpt lat="44.69751809400242" lon="9.920701791549835"><ele>530.0</ele><time>2026-04-04T12:19:09.999Z</time></trkpt><trkpt lat="44.69751821405686" lon="9.92059929268855"><ele>532.2</ele><time>2026-04-04T12:19:10.999Z</time></trkpt><trkpt lat="44.697526919840065" lon="9.920495538796395"><ele>534.4</ele><time>2026-04-04T12:19:11.999Z</time></trkpt><trkpt lat="44.69754442306438" lon="9.920306709682004"><ele>536.6</ele><time>2026-04-04T12:19:13.999Z</time></trkpt><trkpt lat="44.69755178154979" lon="9.920201373075342"><ele>538.8</ele><time>2026-04-04T12:19:14.999Z</time></trkpt><trkpt lat="44.69760941539156" lon="9.9200240255474"><ele>541.0</ele><time>2026-04-04T12:19:16.999Z</time></trkpt><trkpt lat="44.69764672209165" lon="9.919937521065586"><ele>543.2</ele><time>2026-04-04T12:19:17.999Z</time></trkpt><trkpt lat="44.69770605548954" lon="9.919816600061623"><ele>545.4000000000001</ele><time>2026-04-04T12:19:19.999Z</time></trkpt><trkpt lat="44.69780377155222" lon="9.91968844502706"><ele>547.6</ele><time>2026-04-04T12:19:21.999Z</time></trkpt><trkpt lat="44.69786385727784" lon="9.919590564238645"><ele>549.8000000000001</ele><time>2026-04-04T12:19:22.999Z</time></trkpt><trkpt lat="44.697916813478706" lon="9.919520666967818"><ele>552.0</ele><time>2026-04-04T12:19:23.999Z</time></trkpt><trkpt lat="44.698018931453895" lon="9.919442615715885"><ele>552.6666666666666</ele><time>2026-04-04T12:19:25.999Z</time></trkpt><trkpt lat="44.698084104786226" lon="9.919385413224665"><ele>553.3333333333334</ele><time>2026-04-04T12:19:26.999Z</time></trkpt><trkpt lat="44.69816562846965" lon="9.919318544090249"><ele>554.0</ele><time>2026-04-04T12:19:27.999Z</time></trkpt><trkpt lat="44.698240648852334" lon="9.919254183826416"><ele>554.6666666666667</ele><time>2026-04-04T12:19:28.999Z</time></trkpt><trkpt lat="44.698293223959446" lon="9.91920490865068"><ele>555.3333333333334</ele><time>2026-04-04T12:19:29.998Z</time></trkpt><trkpt lat="44.698354206398044" lon="9.91916278372093"><ele>556.0</ele><time>2026-04-04T12:19:30.998Z</time></trkpt><trkpt lat="44.698420739180506" lon="9.919125978204068"><ele>558.1666666666667</ele><time>2026-04-04T12:19:31.998Z</time></trkpt><trkpt lat="44.69847611752986" lon="9.919070184668435"><ele>560.3333333333334</ele><time>2026-04-04T12:19:32.998Z</time></trkpt><trkpt lat="44.69851824003891" lon="9.918993010821872"><ele>562.5</ele><time>2026-04-04T12:19:33.998Z</time></trkpt><trkpt lat="44.69856393674834" lon="9.91881004076601"><ele>564.6666666666666</ele><time>2026-04-04T12:19:35.998Z</time></trkpt><trkpt lat="44.6985876182944" lon="9.918688154896879"><ele>566.8333333333333</ele><time>2026-04-04T12:19:36.998Z</time></trkpt><trkpt lat="44.69860692694012" lon="9.918595202409852"><ele>569.0</ele><time>2026-04-04T12:19:37.998Z</time></trkpt><trkpt lat="44.69864915866639" lon="9.918466923333451"><ele>573.0</ele><time>2026-04-04T12:19:39.998Z</time></trkpt><trkpt lat="44.69867435841015" lon="9.918312658412496"><ele>577.0</ele><time>2026-04-04T12:19:41.998Z</time></trkpt><trkpt lat="44.698692590739576" lon="9.91821346822594"><ele>581.0</ele><time>2026-04-04T12:19:42.998Z</time></trkpt><trkpt lat="44.69871291664802" lon="9.918114671772274"><ele>585.0</ele><time>2026-04-04T12:19:43.998Z</time></trkpt><trkpt lat="44.69877773503766" lon="9.918006865995967"><ele>589.0</ele><time>2026-04-04T12:19:45.998Z</time></trkpt><trkpt lat="44.69887274545112" lon="9.91795087133954"><ele>589.0</ele><time>2026-04-04T12:19:47.998Z</time></trkpt><trkpt lat="44.698937439168304" lon="9.917938413155868"><ele>589.0</ele><time>2026-04-04T12:19:48.998Z</time></trkpt><trkpt lat="44.69905427460375" lon="9.917900830873496"><ele>589.0</ele><time>2026-04-04T12:19:50.998Z</time></trkpt><trkpt lat="44.69912936649786" lon="9.917892815739043"><ele>589.0</ele><time>2026-04-04T12:19:51.998Z</time></trkpt><trkpt lat="44.699216093191964" lon="9.917882709252194"><ele>589.0</ele><time>2026-04-04T12:19:52.998Z</time></trkpt><trkpt lat="44.69929502982386" lon="9.91789136722595"><ele>589.0</ele><time>2026-04-04T12:19:53.998Z</time></trkpt><trkpt lat="44.699386164211795" lon="9.917858755508298"><ele>592.0</ele><time>2026-04-04T12:19:55.998Z</time></trkpt><trkpt lat="44.69949496496532" lon="9.917793085827528"><ele>595.0</ele><time>2026-04-04T12:19:57.998Z</time></trkpt><trkpt lat="44.69957040202552" lon="9.917742009141703"><ele>598.0</ele><time>2026-04-04T12:19:58.998Z</time></trkpt><trkpt lat="44.699641631202326" lon="9.917708321102554"><ele>601.0</ele><time>2026-04-04T12:19:59.998Z</time></trkpt><trkpt lat="44.6997499482782" lon="9.917749337402054"><ele>604.0</ele><time>2026-04-04T12:20:01.998Z</time></trkpt><trkpt lat="44.69987150032114" lon="9.91776465823404"><ele>604.0</ele><time>2026-04-04T12:20:03.998Z</time></trkpt><trkpt lat="44.69993464412115" lon="9.917752440764886"><ele>604.0</ele><time>2026-04-04T12:20:04.998Z</time></trkpt><trkpt lat="44.70004082323943" lon="9.917774527100594"><ele>604.0</ele><time>2026-04-04T12:20:06.998Z</time></trkpt><trkpt lat="44.70008345014006" lon="9.917677203016682"><ele>604.0</ele><time>2026-04-04T12:20:17Z</time></trkpt><trkpt lat="44.700089507407206" lon="9.917563604093091"><ele>604.0</ele><time>2026-04-04T12:20:21Z</time></trkpt><trkpt lat="44.700031583393255" lon="9.917432783800106"><ele>604.0</ele><time>2026-04-04T12:20:23Z</time></trkpt><trkpt lat="44.69998966032215" lon="9.917279561443028"><ele>607.3333333333334</ele><time>2026-04-04T12:20:25Z</time></trkpt><trkpt lat="44.699952293719356" lon="9.917207808769152"><ele>610.6666666666667</ele><time>2026-04-04T12:20:26Z</time></trkpt><trkpt lat="44.699930730755675" lon="9.917122156371986"><ele>614.0</ele><time>2026-04-04T12:20:27Z</time></trkpt><trkpt lat="44.699941157030395" lon="9.91703229099944"><ele>617.3333333333334</ele><time>2026-04-04T12:20:28Z</time></trkpt><trkpt lat="44.699938326145215" lon="9.916887593881082"><ele>620.6666666666666</ele><time>2026-04-04T12:20:30Z</time></trkpt><trkpt lat="44.69992693999594" lon="9.916766099902949"><ele>624.0</ele><time>2026-04-04T12:20:32Z</time></trkpt><trkpt lat="44.69995057996625" lon="9.916597993158508"><ele>626.1666666666666</ele><time>2026-04-04T12:20:34Z</time></trkpt><trkpt lat="44.69996073663404" lon="9.916503184623227"><ele>628.3333333333334</ele><time>2026-04-04T12:20:35Z</time></trkpt><trkpt lat="44.70001248428256" lon="9.916354686432186"><ele>630.5</ele><time>2026-04-04T12:20:37Z</time></trkpt><trkpt lat="44.700060240459585" lon="9.91629306658042"><ele>632.6666666666667</ele><time>2026-04-04T12:20:38Z</time></trkpt><trkpt lat="44.70012892799151" lon="9.916239656910522"><ele>634.8333333333334</ele><time>2026-04-04T12:20:39Z</time></trkpt><trkpt lat="44.70018881337926" lon="9.91611292832765"><ele>637.0</ele><time>2026-04-04T12:20:41Z</time></trkpt><trkpt lat="44.70015900650878" lon="9.91602111521345"><ele>637.0</ele><time>2026-04-04T12:20:42Z</time></trkpt><trkpt lat="44.70012892626496" lon="9.915924861337405"><ele>637.0</ele><time>2026-04-04T12:20:43Z</time></trkpt><trkpt lat="44.70008685044683" lon="9.91575864576708"><ele>637.0</ele><time>2026-04-04T12:20:45Z</time></trkpt><trkpt lat="44.70006937187769" lon="9.915594879779103"><ele>637.0</ele><time>2026-04-04T12:20:47Z</time></trkpt><trkpt lat="44.7000550398551" lon="9.915460895454254"><ele>637.0</ele><time>2026-04-04T12:20:49Z</time></trkpt><trkpt lat="44.70002383698391" lon="9.915262669304648"><ele>638.2</ele><time>2026-04-04T12:20:51Z</time></trkpt><trkpt lat="44.700025859755115" lon="9.91512749646751"><ele>639.4000000000001</ele><time>2026-04-04T12:20:51.999Z</time></trkpt><trkpt lat="44.70003402616318" lon="9.915031898745953"><ele>640.5999999999999</ele><time>2026-04-04T12:20:52.999Z</time></trkpt><trkpt lat="44.70002823288355" lon="9.914905022472917"><ele>641.8</ele><time>2026-04-04T12:20:53.999Z</time></trkpt><trkpt lat="44.70004413001543" lon="9.914811364389525"><ele>643.0</ele><time>2026-04-04T12:20:54.999Z</time></trkpt><trkpt lat="44.7000916552828" lon="9.914644891516122"><ele>644.0</ele><time>2026-04-04T12:20:56.999Z</time></trkpt><trkpt lat="44.70010880142922" lon="9.914558204050987"><ele>645.0</ele><time>2026-04-04T12:20:57.999Z</time></trkpt><trkpt lat="44.7001274596528" lon="9.914464888204861"><ele>646.0</ele><time>2026-04-04T12:20:58.999Z</time></trkpt><trkpt lat="44.70013459801482" lon="9.914368278875637"><ele>647.0</ele><time>2026-04-04T12:20:59.999Z</time></trkpt><trkpt lat="44.70013176794456" lon="9.91419131764832"><ele>648.0</ele><time>2026-04-04T12:21:01.999Z</time></trkpt><trkpt lat="44.700179265610515" lon="9.914070100305603"><ele>649.0</ele><time>2026-04-04T12:21:03.999Z</time></trkpt><trkpt lat="44.700224099299795" lon="9.913900645062105"><ele>651.0</ele><time>2026-04-04T12:21:05.999Z</time></trkpt><trkpt lat="44.7002386823994" lon="9.91381425475952"><ele>653.0</ele><time>2026-04-04T12:21:06.999Z</time></trkpt><trkpt lat="44.70030167052699" lon="9.913712379932043"><ele>655.0</ele><time>2026-04-04T12:21:08.999Z</time></trkpt><trkpt lat="44.700346614350075" lon="9.913598582132408"><ele>657.0</ele><time>2026-04-04T12:21:10.999Z</time></trkpt><trkpt lat="44.700376836927575" lon="9.91342423385501"><ele>659.0</ele><time>2026-04-04T12:21:12.999Z</time></trkpt><trkpt lat="44.700405652054734" lon="9.913334207109997"><ele>661.0</ele><time>2026-04-04T12:21:13.999Z</time></trkpt><trkpt lat="44.70044945668815" lon="9.913246145670495"><ele>663.6666666666667</ele><time>2026-04-04T12:21:14.999Z</time></trkpt><trkpt lat="44.700521141415436" lon="9.91319574825553"><ele>666.3333333333334</ele><time>2026-04-04T12:21:15.999Z</time></trkpt><trkpt lat="44.7006060596656" lon="9.913136131837776"><ele>669.0</ele><time>2026-04-04T12:21:16.999Z</time></trkpt><trkpt lat="44.70070158044001" lon="9.913064303713702"><ele>671.6666666666666</ele><time>2026-04-04T12:21:17.999Z</time></trkpt><trkpt lat="44.70078294170003" lon="9.91301105824569"><ele>674.3333333333333</ele><time>2026-04-04T12:21:18.999Z</time></trkpt><trkpt lat="44.70084662649572" lon="9.91296789328808"><ele>677.0</ele><time>2026-04-04T12:21:19.999Z</time></trkpt><trkpt lat="44.70091447322696" lon="9.912920290579098"><ele>677.0</ele><time>2026-04-04T12:21:20.999Z</time></trkpt><trkpt lat="44.70098767630415" lon="9.91287669294459"><ele>677.0</ele><time>2026-04-04T12:21:21.999Z</time></trkpt><trkpt lat="44.701073376818705" lon="9.912843631427993"><ele>677.0</ele><time>2026-04-04T12:21:22.999Z</time></trkpt><trkpt lat="44.7011685468423" lon="9.912797938532451"><ele>677.0</ele><time>2026-04-04T12:21:23.999Z</time></trkpt><trkpt lat="44.7012615398821" lon="9.912744892864776"><ele>677.0</ele><time>2026-04-04T12:21:24.999Z</time></trkpt><trkpt lat="44.70136279775705" lon="9.912676964093722"><ele>679.6</ele><time>2026-04-04T12:21:25.999Z</time></trkpt><trkpt lat="44.701476186791545" lon="9.912596108140152"><ele>682.2</ele><time>2026-04-04T12:21:26.999Z</time></trkpt><trkpt lat="44.70158969638705" lon="9.912514187693485"><ele>684.8</ele><time>2026-04-04T12:21:27.999Z</time></trkpt><trkpt lat="44.701679590867336" lon="9.912445353683909"><ele>687.4</ele><time>2026-04-04T12:21:28.999Z</time></trkpt><trkpt lat="44.7017550375881" lon="9.912375544475772"><ele>690.0</ele><time>2026-04-04T12:21:29.999Z</time></trkpt><trkpt lat="44.701842775941586" lon="9.912267798755058"><ele>693.0</ele><time>2026-04-04T12:21:31.999Z</time></trkpt><trkpt lat="44.70193261867411" lon="9.912219338165789"><ele>696.0</ele><time>2026-04-04T12:21:33.999Z</time></trkpt><trkpt lat="44.701987486081926" lon="9.912302112674979"><ele>699.0</ele><time>2026-04-04T12:21:35.999Z</time></trkpt><trkpt lat="44.7020479706215" lon="9.91245234136153"><ele>702.0</ele><time>2026-04-04T12:21:37.998Z</time></trkpt><trkpt lat="44.702087317960526" lon="9.912538493843275"><ele>705.0</ele><time>2026-04-04T12:22:57Z</time></trkpt><trkpt lat="44.70213588661381" lon="9.912670118449057"><ele>704.9999999999999</ele><time>2026-04-04T12:22:58.999Z</time></trkpt><trkpt lat="44.70217202739455" lon="9.91274348975852"><ele>705.0</ele><time>2026-04-04T12:22:59.999Z</time></trkpt><trkpt lat="44.702209873148384" lon="9.912820322344599"><ele>705.0</ele><time>2026-04-04T12:23:00.999Z</time></trkpt><trkpt lat="44.70224876669569" lon="9.912899282104155"><ele>705.0</ele><time>2026-04-04T12:23:01.999Z</time></trkpt><trkpt lat="44.702307420125564" lon="9.912977786551544"><ele>705.0</ele><time>2026-04-04T12:23:02.999Z</time></trkpt><trkpt lat="44.70234641072962" lon="9.913068264085005"><ele>704.9999999999999</ele><time>2026-04-04T12:23:03.999Z</time></trkpt><trkpt lat="44.702374509564756" lon="9.913154559855897"><ele>705.0</ele><time>2026-04-04T12:23:04.999Z</time></trkpt><trkpt lat="44.70250564309592" lon="9.913239754808473"><ele>705.0</ele><time>2026-04-04T12:23:06.999Z</time></trkpt><trkpt lat="44.70257601045037" lon="9.913291144046086"><ele>705.0</ele><time>2026-04-04T12:23:07.999Z</time></trkpt><trkpt lat="44.70265438749145" lon="9.913349213779286"><ele>705.0</ele><time>2026-04-04T12:23:08.999Z</time></trkpt><trkpt lat="44.702706326945425" lon="9.913413213803402"><ele>705.0</ele><time>2026-04-04T12:23:09.999Z</time></trkpt><trkpt lat="44.702769826775125" lon="9.913482630983061"><ele>705.0</ele><time>2026-04-04T12:23:10.999Z</time></trkpt><trkpt lat="44.70282631088699" lon="9.91354832487394"><ele>705.0</ele><time>2026-04-04T12:23:11.999Z</time></trkpt><trkpt lat="44.702889621781985" lon="9.913606190001284"><ele>707.0</ele><time>2026-04-04T12:23:12.999Z</time></trkpt><trkpt lat="44.702963989915474" lon="9.913664128175322"><ele>709.0</ele><time>2026-04-04T12:23:13.999Z</time></trkpt><trkpt lat="44.70303922947376" lon="9.91372970241286"><ele>711.0</ele><time>2026-04-04T12:23:14.999Z</time></trkpt><trkpt lat="44.703101359765114" lon="9.91378534037809"><ele>713.0</ele><time>2026-04-04T12:23:15.999Z</time></trkpt><trkpt lat="44.70322988346553" lon="9.913861705663415"><ele>715.0</ele><time>2026-04-04T12:23:17.999Z</time></trkpt><trkpt lat="44.70330370554416" lon="9.913908834426724"><ele>715.0</ele><time>2026-04-04T12:23:18.999Z</time></trkpt><trkpt lat="44.703378967524316" lon="9.913976703804764"><ele>715.0</ele><time>2026-04-04T12:23:19.999Z</time></trkpt><trkpt lat="44.70344083602693" lon="9.914061921326232"><ele>715.0</ele><time>2026-04-04T12:23:20.999Z</time></trkpt><trkpt lat="44.703493677284996" lon="9.91413902759153"><ele>715.0</ele><time>2026-04-04T12:23:21.999Z</time></trkpt><trkpt lat="44.703619580681" lon="9.914196818258132"><ele>715.0</ele><time>2026-04-04T12:23:23.999Z</time></trkpt><trkpt lat="44.70369919161691" lon="9.914222881851172"><ele>716.6666666666667</ele><time>2026-04-04T12:23:24.999Z</time></trkpt><trkpt lat="44.703755312387045" lon="9.914298067132451"><ele>718.3333333333334</ele><time>2026-04-04T12:23:25.999Z</time></trkpt><trkpt lat="44.70380368416599" lon="9.914395538325456"><ele>720.0</ele><time>2026-04-04T12:23:26.999Z</time></trkpt><trkpt lat="44.70385365489815" lon="9.914494722533764"><ele>721.6666666666666</ele><time>2026-04-04T12:23:27.999Z</time></trkpt><trkpt lat="44.703906506514315" lon="9.914602964508255"><ele>723.3333333333333</ele><time>2026-04-04T12:23:28.999Z</time></trkpt><trkpt lat="44.70394783807342" lon="9.914692768845542"><ele>725.0</ele><time>2026-04-04T12:23:29.999Z</time></trkpt><trkpt lat="44.704001742730924" lon="9.91479265838437"><ele>725.0</ele><time>2026-04-04T12:23:30.999Z</time></trkpt><trkpt lat="44.704047877333764" lon="9.91489400029499"><ele>725.0</ele><time>2026-04-04T12:23:31.999Z</time></trkpt><trkpt lat="44.70412642794863" lon="9.914999760269701"><ele>725.0</ele><time>2026-04-04T12:23:33.999Z</time></trkpt><trkpt lat="44.7042255559173" lon="9.915123727841744"><ele>725.0</ele><time>2026-04-04T12:23:35.999Z</time></trkpt><trkpt lat="44.704303687237115" lon="9.915171183343176"><ele>725.0</ele><time>2026-04-04T12:23:36.999Z</time></trkpt><trkpt lat="44.70438134029622" lon="9.915197773349304"><ele>724.8333333333333</ele><time>2026-04-04T12:23:37.999Z</time></trkpt><trkpt lat="44.7044445187494" lon="9.915212320863892"><ele>724.6666666666666</ele><time>2026-04-04T12:23:38.999Z</time></trkpt><trkpt lat="44.70452173325673" lon="9.915218870458643"><ele>724.5</ele><time>2026-04-04T12:23:39.999Z</time></trkpt><trkpt lat="44.70459907028773" lon="9.915274650250284"><ele>724.3333333333334</ele><time>2026-04-04T12:23:40.999Z</time></trkpt><trkpt lat="44.70468269517303" lon="9.915352957365727"><ele>724.1666666666667</ele><time>2026-04-04T12:23:41.998Z</time></trkpt><trkpt lat="44.70473272782713" lon="9.91543180527953"><ele>724.0</ele><time>2026-04-04T12:23:42.998Z</time></trkpt><trkpt lat="44.70477793767469" lon="9.915576530091137"><ele>724.0</ele><time>2026-04-04T12:23:44.998Z</time></trkpt><trkpt lat="44.70481150108654" lon="9.915652944679856"><ele>724.0</ele><time>2026-04-04T12:23:45.998Z</time></trkpt><trkpt lat="44.704941545117194" lon="9.915706249246437"><ele>724.0</ele><time>2026-04-04T12:23:47.998Z</time></trkpt><trkpt lat="44.70502341618489" lon="9.91572396934124"><ele>724.0</ele><time>2026-04-04T12:23:48.998Z</time></trkpt><trkpt lat="44.705111317240224" lon="9.915752883538767"><ele>724.0</ele><time>2026-04-04T12:23:49.998Z</time></trkpt><trkpt lat="44.705235351668094" lon="9.915836794415787"><ele>723.5714285714286</ele><time>2026-04-04T12:23:51.998Z</time></trkpt><trkpt lat="44.705303018133066" lon="9.915915869174222"><ele>723.1428571428571</ele><time>2026-04-04T12:23:53.998Z</time></trkpt><trkpt lat="44.70536062070303" lon="9.915975591497313"><ele>722.7142857142858</ele><time>2026-04-04T12:23:55.998Z</time></trkpt><trkpt lat="44.70542019809284" lon="9.916023303168732"><ele>722.2857142857142</ele><time>2026-04-04T12:23:57.998Z</time></trkpt><trkpt lat="44.70547857123524" lon="9.916067745042307"><ele>721.8571428571429</ele><time>2026-04-04T12:23:58.998Z</time></trkpt><trkpt lat="44.7055371239767" lon="9.916114851942568"><ele>721.4285714285714</ele><time>2026-04-04T12:23:59.998Z</time></trkpt><trkpt lat="44.70560918176839" lon="9.916154349493855"><ele>721.0</ele><time>2026-04-04T12:24:00.998Z</time></trkpt><trkpt lat="44.70566828714411" lon="9.91619674060167"><ele>721.0</ele><time>2026-04-04T12:24:01.998Z</time></trkpt><trkpt lat="44.70570271205617" lon="9.916332162068803"><ele>721.0</ele><time>2026-04-04T12:24:03.998Z</time></trkpt><trkpt lat="44.70575698075863" lon="9.916516499613287"><ele>721.0</ele><time>2026-04-04T12:24:05.998Z</time></trkpt><trkpt lat="44.70579755263678" lon="9.916643651257376"><ele>721.0</ele><time>2026-04-04T12:24:06.998Z</time></trkpt><trkpt lat="44.70585942635916" lon="9.916769391733249"><ele>719.8</ele><time>2026-04-04T12:24:07.998Z</time></trkpt><trkpt lat="44.70591972575329" lon="9.916882312046551"><ele>718.5999999999999</ele><time>2026-04-04T12:24:08.998Z</time></trkpt><trkpt lat="44.70598613281722" lon="9.91701119513039"><ele>717.4</ele><time>2026-04-04T12:24:09.998Z</time></trkpt><trkpt lat="44.7060412120174" lon="9.917127482311349"><ele>716.2</ele><time>2026-04-04T12:24:10.998Z</time></trkpt><trkpt lat="44.7060746023949" lon="9.917211194151916"><ele>715.0</ele><time>2026-04-04T12:24:11.998Z</time></trkpt><trkpt lat="44.70610726051897" lon="9.917303046523879"><ele>715.3333333333334</ele><time>2026-04-04T12:24:12.998Z</time></trkpt><trkpt lat="44.70616036844483" lon="9.917416190585202"><ele>715.6666666666667</ele><time>2026-04-04T12:24:13.998Z</time></trkpt><trkpt lat="44.70622087581538" lon="9.917526169010006"><ele>716.0</ele><time>2026-04-04T12:24:14.998Z</time></trkpt><trkpt lat="44.706277463669736" lon="9.917607728746345"><ele>716.3333333333334</ele><time>2026-04-04T12:24:15.998Z</time></trkpt><trkpt lat="44.706323609370315" lon="9.917679581430495"><ele>716.6666666666666</ele><time>2026-04-04T12:24:16.998Z</time></trkpt><trkpt lat="44.706361542051134" lon="9.917765675128326"><ele>717.0</ele><time>2026-04-04T12:24:17.998Z</time></trkpt><trkpt lat="44.706392424564264" lon="9.917887422045755"><ele>717.0</ele><time>2026-04-04T12:24:18.998Z</time></trkpt><trkpt lat="44.70641635669463" lon="9.918032929813723"><ele>717.0</ele><time>2026-04-04T12:24:19.998Z</time></trkpt><trkpt lat="44.70643854098779" lon="9.918181343483152"><ele>717.0</ele><time>2026-04-04T12:24:20.998Z</time></trkpt><trkpt lat="44.70646518142339" lon="9.918299438033305"><ele>717.0</ele><time>2026-04-04T12:24:21.998Z</time></trkpt><trkpt lat="44.706498015600054" lon="9.918433323488907"><ele>717.0</ele><time>2026-04-04T12:24:22.998Z</time></trkpt><trkpt lat="44.70653273143796" lon="9.918571834071917"><ele>716.0</ele><time>2026-04-04T12:24:23.998Z</time></trkpt><trkpt lat="44.706568180620536" lon="9.918687126930195"><ele>715.0</ele><time>2026-04-04T12:24:24.998Z</time></trkpt><trkpt lat="44.706586666709605" lon="9.918799720746211"><ele>714.0</ele><time>2026-04-04T12:24:25.998Z</time></trkpt><trkpt lat="44.70660554396621" lon="9.91891273723578"><ele>713.0</ele><time>2026-04-04T12:24:27Z</time></trkpt><trkpt lat="44.706629398548905" lon="9.91900131155895"><ele>712.0</ele><time>2026-04-04T12:24:28Z</time></trkpt><trkpt lat="44.706691263428226" lon="9.91917386758984"><ele>712.0</ele><time>2026-04-04T12:24:30Z</time></trkpt><trkpt lat="44.70671505394651" lon="9.919272930311157"><ele>712.0</ele><time>2026-04-04T12:24:31Z</time></trkpt><trkpt lat="44.70674156004859" lon="9.919361442221765"><ele>712.0</ele><time>2026-04-04T12:24:32Z</time></trkpt><trkpt lat="44.706765817169895" lon="9.919454274679795"><ele>712.0</ele><time>2026-04-04T12:24:33Z</time></trkpt><trkpt lat="44.70683986998422" lon="9.919575375320132"><ele>712.0</ele><time>2026-04-04T12:24:35Z</time></trkpt><trkpt lat="44.70691798980146" lon="9.919600255997672"><ele>712.0</ele><time>2026-04-04T12:24:36Z</time></trkpt><trkpt lat="44.707007385909286" lon="9.919612427320033"><ele>712.6</ele><time>2026-04-04T12:24:37Z</time></trkpt><trkpt lat="44.7070954467888" lon="9.919627490279138"><ele>713.2</ele><time>2026-04-04T12:24:38Z</time></trkpt><trkpt lat="44.70717941119566" lon="9.919663450630052"><ele>713.8</ele><time>2026-04-04T12:24:39Z</time></trkpt><trkpt lat="44.707268043669046" lon="9.919707758868874"><ele>714.4</ele><time>2026-04-04T12:24:40Z</time></trkpt><trkpt lat="44.70735058053536" lon="9.919772199860235"><ele>715.0</ele><time>2026-04-04T12:24:41Z</time></trkpt><trkpt lat="44.70741748300298" lon="9.919862042445507"><ele>715.0</ele><time>2026-04-04T12:24:42Z</time></trkpt><trkpt lat="44.707446721572836" lon="9.919951018007973"><ele>715.0</ele><time>2026-04-04T12:24:43Z</time></trkpt><trkpt lat="44.70747396870397" lon="9.920034048786016"><ele>715.0</ele><time>2026-04-04T12:24:44Z</time></trkpt><trkpt lat="44.70751789022205" lon="9.92011856050898"><ele>715.0</ele><time>2026-04-04T12:24:45Z</time></trkpt><trkpt lat="44.70757047403634" lon="9.9202111742856"><ele>715.0</ele><time>2026-04-04T12:24:46Z</time></trkpt><trkpt lat="44.70762558183371" lon="9.920275662447114"><ele>715.0</ele><time>2026-04-04T12:24:47Z</time></trkpt><trkpt lat="44.70768594983894" lon="9.920318059122536"><ele>715.0</ele><time>2026-04-04T12:24:48Z</time></trkpt><trkpt lat="44.70774557040217" lon="9.920362061004983"><ele>713.6</ele><time>2026-04-04T12:24:49Z</time></trkpt><trkpt lat="44.707871377185946" lon="9.920422313230366"><ele>712.2</ele><time>2026-04-04T12:24:51Z</time></trkpt><trkpt lat="44.70795958496909" lon="9.920460847043746"><ele>710.8</ele><time>2026-04-04T12:24:52Z</time></trkpt><trkpt lat="44.70804243238802" lon="9.920577246639791"><ele>709.4</ele><time>2026-04-04T12:24:54Z</time></trkpt><trkpt lat="44.708055930712746" lon="9.920665737760343"><ele>708.0</ele><time>2026-04-04T12:24:55Z</time></trkpt><trkpt lat="44.7080920157759" lon="9.920842195139455"><ele>706.3333333333334</ele><time>2026-04-04T12:24:57Z</time></trkpt><trkpt lat="44.70812776327228" lon="9.920928464583021"><ele>704.6666666666666</ele><time>2026-04-04T12:24:58Z</time></trkpt><trkpt lat="44.70817150512827" lon="9.921007211526904"><ele>703.0</ele><time>2026-04-04T12:24:59Z</time></trkpt><trkpt lat="44.70822760335165" lon="9.921092675899617"><ele>701.3333333333333</ele><time>2026-04-04T12:25:00Z</time></trkpt><trkpt lat="44.70827053100578" lon="9.92117174177323"><ele>699.6666666666666</ele><time>2026-04-04T12:25:01Z</time></trkpt><trkpt lat="44.708289580792126" lon="9.921296632446877"><ele>698.0</ele><time>2026-04-04T12:25:02Z</time></trkpt><trkpt lat="44.70830269274114" lon="9.921440424604262"><ele>698.0</ele><time>2026-04-04T12:25:02.999Z</time></trkpt><trkpt lat="44.70831636461324" lon="9.92156915529602"><ele>698.0</ele><time>2026-04-04T12:25:03.999Z</time></trkpt><trkpt lat="44.708338885321425" lon="9.92168761212828"><ele>698.0</ele><time>2026-04-04T12:25:04.999Z</time></trkpt><trkpt lat="44.70836045605135" lon="9.921774884504423"><ele>698.0</ele><time>2026-04-04T12:25:05.999Z</time></trkpt><trkpt lat="44.708381408911116" lon="9.92186969424941"><ele>698.0</ele><time>2026-04-04T12:25:06.999Z</time></trkpt><trkpt lat="44.70841447527376" lon="9.921993715798445"><ele>698.0</ele><time>2026-04-04T12:25:07.999Z</time></trkpt><trkpt lat="44.70845786351299" lon="9.922105478656661"><ele>696.8333333333333</ele><time>2026-04-04T12:25:08.999Z</time></trkpt><trkpt lat="44.70850279563869" lon="9.922230136935012"><ele>695.6666666666666</ele><time>2026-04-04T12:25:09.999Z</time></trkpt><trkpt lat="44.70852842947056" lon="9.922339270434696"><ele>694.5</ele><time>2026-04-04T12:25:10.999Z</time></trkpt><trkpt lat="44.708554506907895" lon="9.922441100541832"><ele>693.3333333333334</ele><time>2026-04-04T12:25:11.999Z</time></trkpt><trkpt lat="44.708566780313014" lon="9.922535259917238"><ele>692.1666666666667</ele><time>2026-04-04T12:25:12.999Z</time></trkpt><trkpt lat="44.70857810990269" lon="9.922643419790566"><ele>691.0</ele><time>2026-04-04T12:25:13.999Z</time></trkpt><trkpt lat="44.70859412646041" lon="9.9227584505531"><ele>690.6666666666667</ele><time>2026-04-04T12:25:14.999Z</time></trkpt><trkpt lat="44.70859519258622" lon="9.922869945463114"><ele>690.3333333333334</ele><time>2026-04-04T12:25:15.999Z</time></trkpt><trkpt lat="44.70858104800882" lon="9.922997408592662"><ele>690.0</ele><time>2026-04-04T12:25:16.999Z</time></trkpt><trkpt lat="44.708545970473445" lon="9.923129278301648"><ele>689.6666666666666</ele><time>2026-04-04T12:25:17.999Z</time></trkpt><trkpt lat="44.708512145494936" lon="9.923243298640536"><ele>689.3333333333333</ele><time>2026-04-04T12:25:18.999Z</time></trkpt><trkpt lat="44.708491319478824" lon="9.923358161656564"><ele>689.0</ele><time>2026-04-04T12:25:19.999Z</time></trkpt><trkpt lat="44.708483803028216" lon="9.92354976462003"><ele>687.5</ele><time>2026-04-04T12:25:21.999Z</time></trkpt><trkpt lat="44.70849434388369" lon="9.923689462916746"><ele>686.0</ele><time>2026-04-04T12:25:22.999Z</time></trkpt><trkpt lat="44.70851261556736" lon="9.923851142120775"><ele>684.5</ele><time>2026-04-04T12:25:23.999Z</time></trkpt><trkpt lat="44.708531677294886" lon="9.924032062683356"><ele>683.0</ele><time>2026-04-04T12:25:24.999Z</time></trkpt><trkpt lat="44.7085464447815" lon="9.92418224478865"><ele>681.8</ele><time>2026-04-04T12:25:25.999Z</time></trkpt><trkpt lat="44.70856102609501" lon="9.924322553183872"><ele>680.5999999999999</ele><time>2026-04-04T12:25:26.999Z</time></trkpt><trkpt lat="44.70857550593832" lon="9.924462562973918"><ele>679.4000000000001</ele><time>2026-04-04T12:25:27.999Z</time></trkpt><trkpt lat="44.70859010248235" lon="9.92458674196854"><ele>678.2</ele><time>2026-04-04T12:25:28.999Z</time></trkpt><trkpt lat="44.7086120583223" lon="9.924716310707476"><ele>677.0</ele><time>2026-04-04T12:25:29.999Z</time></trkpt><trkpt lat="44.708635365282895" lon="9.924845381286973"><ele>676.8</ele><time>2026-04-04T12:25:30.999Z</time></trkpt><trkpt lat="44.708644860116046" lon="9.924963338521955"><ele>676.6</ele><time>2026-04-04T12:25:31.999Z</time></trkpt><trkpt lat="44.70862876740801" lon="9.925077723221893"><ele>676.4</ele><time>2026-04-04T12:25:32.999Z</time></trkpt><trkpt lat="44.708582174791346" lon="9.925204289683629"><ele>676.1999999999999</ele><time>2026-04-04T12:25:33.999Z</time></trkpt><trkpt lat="44.70852466951789" lon="9.925330451920663"><ele>676.0</ele><time>2026-04-04T12:25:34.999Z</time></trkpt><trkpt lat="44.70847910532598" lon="9.92544895902576"><ele>675.8</ele><time>2026-04-04T12:25:35.999Z</time></trkpt><trkpt lat="44.70845837143411" lon="9.925580525314338"><ele>675.5999999999999</ele><time>2026-04-04T12:25:36.999Z</time></trkpt><trkpt lat="44.708446324741494" lon="9.925713314248826"><ele>675.4</ele><time>2026-04-04T12:25:37.999Z</time></trkpt><trkpt lat="44.70843662755607" lon="9.925851603922084"><ele>675.2</ele><time>2026-04-04T12:25:38.999Z</time></trkpt><trkpt lat="44.70842364227068" lon="9.925968780072196"><ele>675.0</ele><time>2026-04-04T12:25:39.999Z</time></trkpt><trkpt lat="44.70839137015728" lon="9.926124135479084"><ele>673.8</ele><time>2026-04-04T12:25:40.999Z</time></trkpt><trkpt lat="44.708364123219155" lon="9.926260413537308"><ele>672.6</ele><time>2026-04-04T12:25:41.999Z</time></trkpt><trkpt lat="44.7083599880128" lon="9.926386181339028"><ele>671.4000000000001</ele><time>2026-04-04T12:25:42.999Z</time></trkpt><trkpt lat="44.70839008666017" lon="9.926514244924595"><ele>670.2</ele><time>2026-04-04T12:25:43.999Z</time></trkpt><trkpt lat="44.70843325303926" lon="9.926647470379297"><ele>669.0</ele><time>2026-04-04T12:25:44.999Z</time></trkpt><trkpt lat="44.70847745573644" lon="9.926781474197128"><ele>667.0</ele><time>2026-04-04T12:25:45.999Z</time></trkpt><trkpt lat="44.70850969674933" lon="9.926900258562716"><ele>665.0</ele><time>2026-04-04T12:25:46.999Z</time></trkpt><trkpt lat="44.70852888144196" lon="9.927009464939742"><ele>663.0</ele><time>2026-04-04T12:25:47.998Z</time></trkpt><trkpt lat="44.70854391563164" lon="9.927124450135853"><ele>661.0</ele><time>2026-04-04T12:25:48.998Z</time></trkpt><trkpt lat="44.70855405011322" lon="9.927260423421828"><ele>659.0</ele><time>2026-04-04T12:25:49.998Z</time></trkpt><trkpt lat="44.70854839180227" lon="9.927411186659006"><ele>658.4000000000001</ele><time>2026-04-04T12:25:50.998Z</time></trkpt><trkpt lat="44.708531980718526" lon="9.92757822876877"><ele>657.8</ele><time>2026-04-04T12:25:51.998Z</time></trkpt><trkpt lat="44.70851119790226" lon="9.927735074996747"><ele>657.2</ele><time>2026-04-04T12:25:52.998Z</time></trkpt><trkpt lat="44.70849473195005" lon="9.927871306580371"><ele>656.5999999999999</ele><time>2026-04-04T12:25:53.998Z</time></trkpt><trkpt lat="44.708485457562304" lon="9.92800270018478"><ele>656.0</ele><time>2026-04-04T12:25:54.998Z</time></trkpt><trkpt lat="44.70849470078302" lon="9.928139410797831"><ele>656.0</ele><time>2026-04-04T12:25:55.998Z</time></trkpt><trkpt lat="44.708528262356474" lon="9.92828408733611"><ele>656.0</ele><time>2026-04-04T12:25:56.998Z</time></trkpt><trkpt lat="44.70856739586036" lon="9.928420689048911"><ele>656.0</ele><time>2026-04-04T12:25:57.998Z</time></trkpt><trkpt lat="44.708600680929266" lon="9.928552666116488"><ele>656.0</ele><time>2026-04-04T12:25:58.998Z</time></trkpt><trkpt lat="44.70863463973317" lon="9.928656406464428"><ele>656.0</ele><time>2026-04-04T12:25:59.998Z</time></trkpt><trkpt lat="44.70867672282729" lon="9.928736328070814"><ele>654.4</ele><time>2026-04-04T12:26:00.998Z</time></trkpt><trkpt lat="44.70875298871021" lon="9.928871765322539"><ele>652.8</ele><time>2026-04-04T12:26:02.998Z</time></trkpt><trkpt lat="44.70877152374456" lon="9.929022710300966"><ele>651.1999999999999</ele><time>2026-04-04T12:26:04.998Z</time></trkpt><trkpt lat="44.708754526256264" lon="9.929120723752394"><ele>649.5999999999999</ele><time>2026-04-04T12:26:05.998Z</time></trkpt><trkpt lat="44.708736345304594" lon="9.92926173878065"><ele>648.0</ele><time>2026-04-04T12:26:06.998Z</time></trkpt><trkpt lat="44.70871564555914" lon="9.929397645851491"><ele>645.8</ele><time>2026-04-04T12:26:07.998Z</time></trkpt><trkpt lat="44.7086973956403" lon="9.9295391838657"><ele>643.5999999999999</ele><time>2026-04-04T12:26:08.998Z</time></trkpt><trkpt lat="44.70868329771568" lon="9.929652785578298"><ele>641.4000000000001</ele><time>2026-04-04T12:26:09.998Z</time></trkpt><trkpt lat="44.70866026141371" lon="9.929782689124316"><ele>639.2</ele><time>2026-04-04T12:26:10.998Z</time></trkpt><trkpt lat="44.70864083918902" lon="9.929913331097529"><ele>637.0</ele><time>2026-04-04T12:26:11.998Z</time></trkpt><trkpt lat="44.708618987572194" lon="9.930056310364932"><ele>636.8000000000001</ele><time>2026-04-04T12:26:12.998Z</time></trkpt><trkpt lat="44.708592008605564" lon="9.930200513795874"><ele>636.6</ele><time>2026-04-04T12:26:13.998Z</time></trkpt><trkpt lat="44.70857573159961" lon="9.930338786294183"><ele>636.4000000000001</ele><time>2026-04-04T12:26:14.998Z</time></trkpt><trkpt lat="44.708556571118606" lon="9.930489661511885"><ele>636.2</ele><time>2026-04-04T12:26:15.998Z</time></trkpt><trkpt lat="44.708542866294884" lon="9.930638575054553"><ele>636.0</ele><time>2026-04-04T12:26:16.998Z</time></trkpt><trkpt lat="44.708530402921326" lon="9.930769559981648"><ele>636.1666666666666</ele><time>2026-04-04T12:26:17.998Z</time></trkpt><trkpt lat="44.70852632692171" lon="9.930891229285287"><ele>636.3333333333334</ele><time>2026-04-04T12:26:18.998Z</time></trkpt><trkpt lat="44.70853009972392" lon="9.93100483368227"><ele>636.5</ele><time>2026-04-04T12:26:19.998Z</time></trkpt><trkpt lat="44.708552602230895" lon="9.931103701113175"><ele>636.6666666666667</ele><time>2026-04-04T12:26:20.998Z</time></trkpt><trkpt lat="44.70859106127898" lon="9.931196241842724"><ele>636.8333333333334</ele><time>2026-04-04T12:26:21.998Z</time></trkpt><trkpt lat="44.70865758968861" lon="9.93131364348017"><ele>637.0</ele><time>2026-04-04T12:26:22.998Z</time></trkpt><trkpt lat="44.708719703283954" lon="9.931425664039775"><ele>635.4</ele><time>2026-04-04T12:26:23.998Z</time></trkpt><trkpt lat="44.708777246052755" lon="9.931549047784918"><ele>633.8000000000001</ele><time>2026-04-04T12:26:24.998Z</time></trkpt><trkpt lat="44.7088400137019" lon="9.931672766148608"><ele>632.2</ele><time>2026-04-04T12:26:25.998Z</time></trkpt><trkpt lat="44.70890129850627" lon="9.931781249974259"><ele>630.6</ele><time>2026-04-04T12:26:26.998Z</time></trkpt><trkpt lat="44.708960334261995" lon="9.931869855806152"><ele>629.0</ele><time>2026-04-04T12:26:27.998Z</time></trkpt><trkpt lat="44.7090238920558" lon="9.931983776864284"><ele>628.25</ele><time>2026-04-04T12:26:28.998Z</time></trkpt><trkpt lat="44.70906786544978" lon="9.932119831045766"><ele>627.5</ele><time>2026-04-04T12:26:29.998Z</time></trkpt><trkpt lat="44.70909559694677" lon="9.932292208066452"><ele>626.75</ele><time>2026-04-04T12:26:30.998Z</time></trkpt><trkpt lat="44.70910806838022" lon="9.932466119858809"><ele>626.0</ele><time>2026-04-04T12:26:31.997Z</time></trkpt><trkpt lat="44.70912122137998" lon="9.932611874504548"><ele>625.0</ele><time>2026-04-04T12:26:33Z</time></trkpt><trkpt lat="44.709144902793795" lon="9.932751906210456"><ele>624.0</ele><time>2026-04-04T12:26:34Z</time></trkpt><trkpt lat="44.709169413289665" lon="9.93286759413457"><ele>623.0</ele><time>2026-04-04T12:26:35Z</time></trkpt><trkpt lat="44.70916962180573" lon="9.932967064943066"><ele>622.0</ele><time>2026-04-04T12:26:36Z</time></trkpt><trkpt lat="44.709153039111555" lon="9.93308243513457"><ele>621.0</ele><time>2026-04-04T12:26:37Z</time></trkpt><trkpt lat="44.70910950779565" lon="9.933208285382115"><ele>620.0</ele><time>2026-04-04T12:26:38Z</time></trkpt><trkpt lat="44.7090817014959" lon="9.933347465438597"><ele>618.5</ele><time>2026-04-04T12:26:39Z</time></trkpt><trkpt lat="44.70907295543128" lon="9.933485225756929"><ele>617.0</ele><time>2026-04-04T12:26:40Z</time></trkpt><trkpt lat="44.70908319731704" lon="9.933639134520396"><ele>615.5</ele><time>2026-04-04T12:26:41Z</time></trkpt><trkpt lat="44.709117233889394" lon="9.933813370545387"><ele>614.0</ele><time>2026-04-04T12:26:42Z</time></trkpt><trkpt lat="44.70913917060745" lon="9.93399464404431"><ele>614.0</ele><time>2026-04-04T12:26:43Z</time></trkpt><trkpt lat="44.709139666391664" lon="9.934163989425773"><ele>614.0</ele><time>2026-04-04T12:26:44Z</time></trkpt><trkpt lat="44.709147765298624" lon="9.934323610748361"><ele>614.0</ele><time>2026-04-04T12:26:45Z</time></trkpt><trkpt lat="44.70917228016373" lon="9.934461225087338"><ele>614.0</ele><time>2026-04-04T12:26:46Z</time></trkpt><trkpt lat="44.70919719781064" lon="9.934584409515915"><ele>614.0</ele><time>2026-04-04T12:26:47Z</time></trkpt><trkpt lat="44.70922620985655" lon="9.934694144447699"><ele>613.6</ele><time>2026-04-04T12:26:48Z</time></trkpt><trkpt lat="44.70926962184543" lon="9.934800862281547"><ele>613.2</ele><time>2026-04-04T12:26:49Z</time></trkpt><trkpt lat="44.70932970269955" lon="9.934914755483158"><ele>612.8000000000001</ele><time>2026-04-04T12:26:50Z</time></trkpt><trkpt lat="44.70939106097489" lon="9.935047501873632"><ele>612.4</ele><time>2026-04-04T12:26:51Z</time></trkpt><trkpt lat="44.70946464426996" lon="9.935182237749617"><ele>612.0</ele><time>2026-04-04T12:26:52Z</time></trkpt><trkpt lat="44.7095529160536" lon="9.93532033784887"><ele>612.0</ele><time>2026-04-04T12:26:53Z</time></trkpt><trkpt lat="44.709639742268955" lon="9.935451662528804"><ele>612.0</ele><time>2026-04-04T12:26:54Z</time></trkpt><trkpt lat="44.709720773558175" lon="9.935569060320448"><ele>612.0</ele><time>2026-04-04T12:26:55Z</time></trkpt><trkpt lat="44.70979930162975" lon="9.935679522771867"><ele>612.0</ele><time>2026-04-04T12:26:56Z</time></trkpt><trkpt lat="44.70986998288151" lon="9.935786650369604"><ele>610.5</ele><time>2026-04-04T12:26:57Z</time></trkpt><trkpt lat="44.709923637488245" lon="9.935892915701075"><ele>609.0</ele><time>2026-04-04T12:26:58Z</time></trkpt><trkpt lat="44.709966657604" lon="9.935992765506176"><ele>607.5</ele><time>2026-04-04T12:26:59Z</time></trkpt><trkpt lat="44.71000448773743" lon="9.936093205661697"><ele>606.0</ele><time>2026-04-04T12:27:00Z</time></trkpt><trkpt lat="44.710045648464195" lon="9.936212410201746"><ele>604.5</ele><time>2026-04-04T12:27:01Z</time></trkpt><trkpt lat="44.71008077178973" lon="9.936324089486519"><ele>603.0</ele><time>2026-04-04T12:27:02Z</time></trkpt><trkpt lat="44.71011038762789" lon="9.936443453530895"><ele>603.0</ele><time>2026-04-04T12:27:03Z</time></trkpt><trkpt lat="44.71013688713191" lon="9.936543913944476"><ele>603.0</ele><time>2026-04-04T12:27:04Z</time></trkpt><trkpt lat="44.71017739928363" lon="9.936646696279553"><ele>603.0</ele><time>2026-04-04T12:27:05Z</time></trkpt><trkpt lat="44.71023322597593" lon="9.936764545594016"><ele>603.0</ele><time>2026-04-04T12:27:06Z</time></trkpt><trkpt lat="44.710292235860756" lon="9.936882118069509"><ele>603.0</ele><time>2026-04-04T12:27:07Z</time></trkpt><trkpt lat="44.71034963420725" lon="9.936997401810089"><ele>602.5</ele><time>2026-04-04T12:27:08Z</time></trkpt><trkpt lat="44.71040191092232" lon="9.937108423843751"><ele>602.0</ele><time>2026-04-04T12:27:08.999Z</time></trkpt><trkpt lat="44.71044875146998" lon="9.937215236433829"><ele>601.5</ele><time>2026-04-04T12:27:09.999Z</time></trkpt><trkpt lat="44.71048872021986" lon="9.937330761484574"><ele>601.0</ele><time>2026-04-04T12:27:10.999Z</time></trkpt><trkpt lat="44.71052095301096" lon="9.937443500244523"><ele>600.5</ele><time>2026-04-04T12:27:11.999Z</time></trkpt><trkpt lat="44.71055067714023" lon="9.937546027309285"><ele>600.0</ele><time>2026-04-04T12:27:12.999Z</time></trkpt><trkpt lat="44.71058266017898" lon="9.937643804461407"><ele>600.0</ele><time>2026-04-04T12:27:13.999Z</time></trkpt><trkpt lat="44.71061522830362" lon="9.937733337824266"><ele>600.0</ele><time>2026-04-04T12:27:14.999Z</time></trkpt><trkpt lat="44.71065786990689" lon="9.93784282873133"><ele>600.0</ele><time>2026-04-04T12:27:15.999Z</time></trkpt><trkpt lat="44.710718362295175" lon="9.937948397269174"><ele>600.0</ele><time>2026-04-04T12:27:16.999Z</time></trkpt><trkpt lat="44.71080489630459" lon="9.938013459408275"><ele>600.0</ele><time>2026-04-04T12:27:17.999Z</time></trkpt><trkpt lat="44.710898624214266" lon="9.938055360884075"><ele>600.0</ele><time>2026-04-04T12:27:18.999Z</time></trkpt><trkpt lat="44.71099442287362" lon="9.938076910308446"><ele>600.0</ele><time>2026-04-04T12:27:19.999Z</time></trkpt><trkpt lat="44.71110129926387" lon="9.938084987059785"><ele>600.0</ele><time>2026-04-04T12:27:20.999Z</time></trkpt><trkpt lat="44.711212880615946" lon="9.938077065069102"><ele>600.0</ele><time>2026-04-04T12:27:21.999Z</time></trkpt><trkpt lat="44.711330193112" lon="9.938056260967786"><ele>600.0</ele><time>2026-04-04T12:27:22.999Z</time></trkpt><trkpt lat="44.71145242694123" lon="9.938037681349797"><ele>599.5</ele><time>2026-04-04T12:27:23.999Z</time></trkpt><trkpt lat="44.71156907772947" lon="9.938018153563025"><ele>599.0</ele><time>2026-04-04T12:27:24.999Z</time></trkpt><trkpt lat="44.711682238132546" lon="9.938003122733853"><ele>598.5</ele><time>2026-04-04T12:27:25.999Z</time></trkpt><trkpt lat="44.711793082788446" lon="9.93799056966556"><ele>598.0</ele><time>2026-04-04T12:27:26.999Z</time></trkpt><trkpt lat="44.711900746905194" lon="9.937981247197111"><ele>596.25</ele><time>2026-04-04T12:27:27.999Z</time></trkpt><trkpt lat="44.71201863209598" lon="9.937978635350373"><ele>594.5</ele><time>2026-04-04T12:27:28.999Z</time></trkpt><trkpt lat="44.7121481076561" lon="9.937977454282004"><ele>592.75</ele><time>2026-04-04T12:27:29.999Z</time></trkpt><trkpt lat="44.712276311850566" lon="9.937967941509386"><ele>591.0</ele><time>2026-04-04T12:27:30.999Z</time></trkpt><trkpt lat="44.71240035973524" lon="9.937948687470707"><ele>591.0</ele><time>2026-04-04T12:27:31.999Z</time></trkpt><trkpt lat="44.71251509200559" lon="9.937926691983138"><ele>591.0</ele><time>2026-04-04T12:27:32.999Z</time></trkpt><trkpt lat="44.71262391473709" lon="9.937909989039046"><ele>591.0</ele><time>2026-04-04T12:27:33.999Z</time></trkpt><trkpt lat="44.712715765808284" lon="9.937899965667697"><ele>591.0</ele><time>2026-04-04T12:27:34.999Z</time></trkpt><trkpt lat="44.71279655724837" lon="9.937913706443512"><ele>591.0</ele><time>2026-04-04T12:27:35.999Z</time></trkpt><trkpt lat="44.71286662960195" lon="9.937960711759551"><ele>589.2</ele><time>2026-04-04T12:27:36.999Z</time></trkpt><trkpt lat="44.71293932685874" lon="9.938041392817214"><ele>587.4000000000001</ele><time>2026-04-04T12:27:37.999Z</time></trkpt><trkpt lat="44.71301746567351" lon="9.938137642222316"><ele>585.6</ele><time>2026-04-04T12:27:38.999Z</time></trkpt><trkpt lat="44.713101228813315" lon="9.938235135713025"><ele>583.8000000000001</ele><time>2026-04-04T12:27:39.999Z</time></trkpt><trkpt lat="44.713186498185" lon="9.938331816724686"><ele>582.0</ele><time>2026-04-04T12:27:40.999Z</time></trkpt><trkpt lat="44.71326774130882" lon="9.938428461493482"><ele>581.4</ele><time>2026-04-04T12:27:41.999Z</time></trkpt><trkpt lat="44.71334239258483" lon="9.938527557473208"><ele>580.8000000000001</ele><time>2026-04-04T12:27:42.999Z</time></trkpt><trkpt lat="44.713413665479365" lon="9.93863586880699"><ele>580.2</ele><time>2026-04-04T12:27:43.999Z</time></trkpt><trkpt lat="44.71348663374727" lon="9.93876079163138"><ele>579.6</ele><time>2026-04-04T12:27:44.999Z</time></trkpt><trkpt lat="44.713553618873924" lon="9.938883869838955"><ele>579.0</ele><time>2026-04-04T12:27:45.999Z</time></trkpt><trkpt lat="44.71361086566605" lon="9.938997221170496"><ele>577.2</ele><time>2026-04-04T12:27:46.999Z</time></trkpt><trkpt lat="44.7136685199982" lon="9.939090929978036"><ele>575.4</ele><time>2026-04-04T12:27:47.999Z</time></trkpt><trkpt lat="44.71373779102371" lon="9.939171110365631"><ele>573.6</ele><time>2026-04-04T12:27:48.999Z</time></trkpt><trkpt lat="44.71382456790196" lon="9.93924883159524"><ele>571.8</ele><time>2026-04-04T12:27:49.999Z</time></trkpt><trkpt lat="44.713920660478635" lon="9.939321934090577"><ele>570.0</ele><time>2026-04-04T12:27:50.999Z</time></trkpt><trkpt lat="44.71401533690797" lon="9.939397298163893"><ele>568.0</ele><time>2026-04-04T12:27:51.999Z</time></trkpt><trkpt lat="44.71411089554057" lon="9.939463727399426"><ele>566.0</ele><time>2026-04-04T12:27:52.999Z</time></trkpt><trkpt lat="44.71421531245558" lon="9.939525357365115"><ele>564.0</ele><time>2026-04-04T12:27:53.998Z</time></trkpt><trkpt lat="44.714325114238854" lon="9.939595701459556"><ele>562.0</ele><time>2026-04-04T12:27:54.998Z</time></trkpt><trkpt lat="44.714434422181164" lon="9.939669044215426"><ele>561.0</ele><time>2026-04-04T12:27:55.998Z</time></trkpt><trkpt lat="44.71453862847379" lon="9.939747573976222"><ele>560.0</ele><time>2026-04-04T12:27:56.998Z</time></trkpt><trkpt lat="44.71464763548476" lon="9.939838462113073"><ele>559.0</ele><time>2026-04-04T12:27:57.998Z</time></trkpt><trkpt lat="44.71476292069524" lon="9.939919426681207"><ele>558.0</ele><time>2026-04-04T12:27:58.998Z</time></trkpt><trkpt lat="44.71487514989051" lon="9.939994828524362"><ele>558.0</ele><time>2026-04-04T12:27:59.998Z</time></trkpt><trkpt lat="44.71498131824224" lon="9.940058427224733"><ele>558.0</ele><time>2026-04-04T12:28:00.998Z</time></trkpt><trkpt lat="44.7150824929353" lon="9.94011253266015"><ele>558.0</ele><time>2026-04-04T12:28:01.998Z</time></trkpt><trkpt lat="44.71518495778027" lon="9.94017122042939"><ele>558.0</ele><time>2026-04-04T12:28:02.998Z</time></trkpt><trkpt lat="44.715288851783455" lon="9.940231339996876"><ele>558.0</ele><time>2026-04-04T12:28:03.998Z</time></trkpt><trkpt lat="44.71540363522519" lon="9.940247982717697"><ele>558.0</ele><time>2026-04-04T12:28:04.998Z</time></trkpt><trkpt lat="44.7155083990767" lon="9.940226882924733"><ele>558.0</ele><time>2026-04-04T12:28:05.998Z</time></trkpt><trkpt lat="44.71560918572775" lon="9.940224691051448"><ele>558.0</ele><time>2026-04-04T12:28:06.998Z</time></trkpt><trkpt lat="44.71572170167792" lon="9.940202477823954"><ele>558.0</ele><time>2026-04-04T12:28:07.998Z</time></trkpt><trkpt lat="44.71584117656057" lon="9.940178144293508"><ele>558.0</ele><time>2026-04-04T12:28:08.998Z</time></trkpt><trkpt lat="44.715966971204786" lon="9.940151839789396"><ele>557.1999999999999</ele><time>2026-04-04T12:28:09.998Z</time></trkpt><trkpt lat="44.716081436752376" lon="9.940127904280697"><ele>556.4</ele><time>2026-04-04T12:28:10.998Z</time></trkpt><trkpt lat="44.71618831986318" lon="9.940105554297123"><ele>555.5999999999999</ele><time>2026-04-04T12:28:11.998Z</time></trkpt><trkpt lat="44.716290579397125" lon="9.940094428137478"><ele>554.8</ele><time>2026-04-04T12:28:12.998Z</time></trkpt><trkpt lat="44.716388383033646" lon="9.94009010319379"><ele>554.0</ele><time>2026-04-04T12:28:13.998Z</time></trkpt><trkpt lat="44.71648151300816" lon="9.940140821772133"><ele>554.0</ele><time>2026-04-04T12:28:14.998Z</time></trkpt><trkpt lat="44.71657121259505" lon="9.940214961810485"><ele>554.0</ele><time>2026-04-04T12:28:15.998Z</time></trkpt><trkpt lat="44.716617186342425" lon="9.940364779434224"><ele>554.0</ele><time>2026-04-04T12:28:16.998Z</time></trkpt><trkpt lat="44.716662096127784" lon="9.940496174963549"><ele>554.0</ele><time>2026-04-04T12:28:17.998Z</time></trkpt><trkpt lat="44.71670001452928" lon="9.940632922356237"><ele>554.0</ele><time>2026-04-04T12:28:18.998Z</time></trkpt><trkpt lat="44.7167307359485" lon="9.9407729227367"><ele>552.6</ele><time>2026-04-04T12:28:19.998Z</time></trkpt><trkpt lat="44.71675513090489" lon="9.94091258373866"><ele>551.2</ele><time>2026-04-04T12:28:20.998Z</time></trkpt><trkpt lat="44.716787351344394" lon="9.941048878257266"><ele>549.8000000000001</ele><time>2026-04-04T12:28:21.998Z</time></trkpt><trkpt lat="44.7168317433314" lon="9.941182515771379"><ele>548.4</ele><time>2026-04-04T12:28:22.998Z</time></trkpt><trkpt lat="44.71688450050684" lon="9.941322708717594"><ele>547.0</ele><time>2026-04-04T12:28:23.998Z</time></trkpt><trkpt lat="44.71692783041674" lon="9.94146092625738"><ele>544.6666666666667</ele><time>2026-04-04T12:28:24.998Z</time></trkpt><trkpt lat="44.71694803346648" lon="9.941598083508422"><ele>542.3333333333334</ele><time>2026-04-04T12:28:25.998Z</time></trkpt><trkpt lat="44.71694475517745" lon="9.94171871965225"><ele>540.0</ele><time>2026-04-04T12:28:26.998Z</time></trkpt><trkpt lat="44.71690259593776" lon="9.941810965056685"><ele>537.6666666666666</ele><time>2026-04-04T12:28:27.998Z</time></trkpt><trkpt lat="44.71683942553162" lon="9.94186014742086"><ele>535.3333333333333</ele><time>2026-04-04T12:28:28.998Z</time></trkpt><trkpt lat="44.716760211961244" lon="9.941837612935887"><ele>533.0</ele><time>2026-04-04T12:28:29.998Z</time></trkpt><trkpt lat="44.71669604449244" lon="9.941861378823242"><ele>533.0</ele><time>2026-04-04T12:28:30.998Z</time></trkpt><trkpt lat="44.716640257025034" lon="9.94192080020418"><ele>533.0</ele><time>2026-04-04T12:28:31.998Z</time></trkpt><trkpt lat="44.71661108294253" lon="9.942002044417508"><ele>533.0</ele><time>2026-04-04T12:28:32.998Z</time></trkpt><trkpt lat="44.716610334031124" lon="9.942098185325847"><ele>533.0</ele><time>2026-04-04T12:28:33.998Z</time></trkpt><trkpt lat="44.716646949190284" lon="9.942191321421994"><ele>533.0</ele><time>2026-04-04T12:28:34.998Z</time></trkpt><trkpt lat="44.716728267328754" lon="9.942230872416593"><ele>533.0</ele><time>2026-04-04T12:28:35.998Z</time></trkpt><trkpt lat="44.71681730523936" lon="9.94223905418187"><ele>531.1999999999999</ele><time>2026-04-04T12:28:36.998Z</time></trkpt><trkpt lat="44.71691843328362" lon="9.942243017687778"><ele>529.4</ele><time>2026-04-04T12:28:37.997Z</time></trkpt><trkpt lat="44.71700991592637" lon="9.94227126001929"><ele>527.5999999999999</ele><time>2026-04-04T12:28:39Z</time></trkpt><trkpt lat="44.717098890897915" lon="9.94231171987152"><ele>525.8</ele><time>2026-04-04T12:28:40Z</time></trkpt><trkpt lat="44.71720097503968" lon="9.942380898456642"><ele>524.0</ele><time>2026-04-04T12:28:41Z</time></trkpt><trkpt lat="44.71729006794336" lon="9.942482491984475"><ele>519.25</ele><time>2026-04-04T12:28:42Z</time></trkpt><trkpt lat="44.71739216055185" lon="9.942552703479617"><ele>514.5</ele><time>2026-04-04T12:28:43Z</time></trkpt><trkpt lat="44.71749044844135" lon="9.942617979147345"><ele>509.75</ele><time>2026-04-04T12:28:44Z</time></trkpt><trkpt lat="44.717591196237805" lon="9.942695724774183"><ele>505.0</ele><time>2026-04-04T12:28:45Z</time></trkpt><trkpt lat="44.71769734581229" lon="9.942749334033302"><ele>504.4</ele><time>2026-04-04T12:28:46Z</time></trkpt><trkpt lat="44.71780824345038" lon="9.942818801781321"><ele>503.8</ele><time>2026-04-04T12:28:47Z</time></trkpt><trkpt lat="44.71791397016483" lon="9.942874249190746"><ele>503.20000000000005</ele><time>2026-04-04T12:28:48Z</time></trkpt><trkpt lat="44.71800389700354" lon="9.942927540136097"><ele>502.6</ele><time>2026-04-04T12:28:49Z</time></trkpt><trkpt lat="44.718092686774675" lon="9.942982058382785"><ele>502.0</ele><time>2026-04-04T12:28:50Z</time></trkpt><trkpt lat="44.71818055080193" lon="9.94303404753001"><ele>502.0</ele><time>2026-04-04T12:28:51Z</time></trkpt><trkpt lat="44.71826468175829" lon="9.943109416169092"><ele>502.0</ele><time>2026-04-04T12:28:52Z</time></trkpt><trkpt lat="44.71837110475253" lon="9.943188971764558"><ele>502.0</ele><time>2026-04-04T12:28:53Z</time></trkpt><trkpt lat="44.71848371415046" lon="9.943246675736779"><ele>502.0</ele><time>2026-04-04T12:28:54Z</time></trkpt><trkpt lat="44.718584987020975" lon="9.94332309113142"><ele>498.8</ele><time>2026-04-04T12:28:55Z</time></trkpt><trkpt lat="44.71869118873374" lon="9.943391743221879"><ele>495.6</ele><time>2026-04-04T12:28:56Z</time></trkpt><trkpt lat="44.71878485200485" lon="9.943479462663268"><ele>492.40000000000003</ele><time>2026-04-04T12:28:57Z</time></trkpt><trkpt lat="44.71888115448459" lon="9.943541213418616"><ele>489.20000000000005</ele><time>2026-04-04T12:28:58Z</time></trkpt><trkpt lat="44.71897517579631" lon="9.9435752058905"><ele>486.0</ele><time>2026-04-04T12:28:59Z</time></trkpt><trkpt lat="44.71906148982692" lon="9.94363372789517"><ele>486.0</ele><time>2026-04-04T12:29:00Z</time></trkpt><trkpt lat="44.719144636050736" lon="9.943689722343066"><ele>486.0</ele><time>2026-04-04T12:29:01Z</time></trkpt><trkpt lat="44.71923073613738" lon="9.943735707001114"><ele>486.0</ele><time>2026-04-04T12:29:02Z</time></trkpt><trkpt lat="44.71931148058041" lon="9.943781699430172"><ele>486.0</ele><time>2026-04-04T12:29:03Z</time></trkpt><trkpt lat="44.71938697838688" lon="9.943826016742303"><ele>486.0</ele><time>2026-04-04T12:29:04Z</time></trkpt><trkpt lat="44.71947315984461" lon="9.943868734934414"><ele>486.0</ele><time>2026-04-04T12:29:05Z</time></trkpt><trkpt lat="44.719567268795814" lon="9.943922467531383"><ele>486.6</ele><time>2026-04-04T12:29:06Z</time></trkpt><trkpt lat="44.71967172606678" lon="9.943981338224901"><ele>487.20000000000005</ele><time>2026-04-04T12:29:07Z</time></trkpt><trkpt lat="44.71978147773344" lon="9.94404150125807"><ele>487.79999999999995</ele><time>2026-04-04T12:29:08Z</time></trkpt><trkpt lat="44.71988595097481" lon="9.94407971768629"><ele>488.4</ele><time>2026-04-04T12:29:09Z</time></trkpt><trkpt lat="44.71997744971342" lon="9.94411466976963"><ele>489.0</ele><time>2026-04-04T12:29:10Z</time></trkpt><trkpt lat="44.720058039736955" lon="9.944154793099043"><ele>489.0</ele><time>2026-04-04T12:29:11Z</time></trkpt><trkpt lat="44.72014295754602" lon="9.944196752537506"><ele>489.0</ele><time>2026-04-04T12:29:12Z</time></trkpt><trkpt lat="44.720232276902586" lon="9.94427693357932"><ele>489.0</ele><time>2026-04-04T12:29:13Z</time></trkpt><trkpt lat="44.72031306987045" lon="9.944387364774002"><ele>489.0</ele><time>2026-04-04T12:29:14Z</time></trkpt><trkpt lat="44.720365058319445" lon="9.94452713083993"><ele>489.0</ele><time>2026-04-04T12:29:14.999Z</time></trkpt><trkpt lat="44.72043413778998" lon="9.944650466215288"><ele>488.79999999999995</ele><time>2026-04-04T12:29:15.999Z</time></trkpt><trkpt lat="44.72051437315188" lon="9.944769333558055"><ele>488.59999999999997</ele><time>2026-04-04T12:29:16.999Z</time></trkpt><trkpt lat="44.72059322163254" lon="9.944867116285463"><ele>488.4</ele><time>2026-04-04T12:29:17.999Z</time></trkpt><trkpt lat="44.720675914387726" lon="9.944936185871848"><ele>488.2</ele><time>2026-04-04T12:29:18.999Z</time></trkpt><trkpt lat="44.720725950355174" lon="9.94505017323928"><ele>488.0</ele><time>2026-04-04T12:29:19.999Z</time></trkpt><trkpt lat="44.72081074985565" lon="9.945155814883561"><ele>489.5</ele><time>2026-04-04T12:29:20.999Z</time></trkpt><trkpt lat="44.720880094478346" lon="9.945301667605642"><ele>491.0</ele><time>2026-04-04T12:29:21.999Z</time></trkpt><trkpt lat="44.72101835821175" lon="9.945357894193911"><ele>492.5</ele><time>2026-04-04T12:29:22.999Z</time></trkpt><trkpt lat="44.721109332098344" lon="9.94544070756573"><ele>494.0</ele><time>2026-04-04T12:29:23.999Z</time></trkpt><trkpt lat="44.72117435758529" lon="9.945517451620544"><ele>493.99999999999994</ele><time>2026-04-04T12:29:24.999Z</time></trkpt><trkpt lat="44.721230829494814" lon="9.945566035068405"><ele>494.0</ele><time>2026-04-04T12:29:25.999Z</time></trkpt><trkpt lat="44.721306515776064" lon="9.94564017345581"><ele>494.0</ele><time>2026-04-04T12:29:27.999Z</time></trkpt><trkpt lat="44.72136109500704" lon="9.94571712653436"><ele>494.0</ele><time>2026-04-04T12:29:28.999Z</time></trkpt><trkpt lat="44.72140858566586" lon="9.94583717682075"><ele>493.99999999999994</ele><time>2026-04-04T12:29:29.999Z</time></trkpt><trkpt lat="44.72147866440398" lon="9.945940616984403"><ele>494.0</ele><time>2026-04-04T12:29:30.999Z</time></trkpt><trkpt lat="44.721522655670555" lon="9.94607903407233"><ele>493.99999999999994</ele><time>2026-04-04T12:29:31.999Z</time></trkpt><trkpt lat="44.72156638672553" lon="9.946221423318654"><ele>494.0</ele><time>2026-04-04T12:29:32.999Z</time></trkpt><trkpt lat="44.721610186301035" lon="9.946345322817308"><ele>494.0</ele><time>2026-04-04T12:29:33.999Z</time></trkpt><trkpt lat="44.72164670802598" lon="9.946434607227305"><ele>494.0</ele><time>2026-04-04T12:29:34.999Z</time></trkpt><trkpt lat="44.721696034879656" lon="9.946515730957696"><ele>493.99999999999994</ele><time>2026-04-04T12:29:35.999Z</time></trkpt><trkpt lat="44.72176021463306" lon="9.946585437435168"><ele>494.0</ele><time>2026-04-04T12:29:36.999Z</time></trkpt><trkpt lat="44.7218208030171" lon="9.946674702191306"><ele>492.99999999999994</ele><time>2026-04-04T12:29:37.999Z</time></trkpt><trkpt lat="44.72188941790068" lon="9.94671842074018"><ele>492.0</ele><time>2026-04-04T12:29:38.999Z</time></trkpt><trkpt lat="44.72195858621709" lon="9.946772645336251"><ele>491.0</ele><time>2026-04-04T12:29:39.999Z</time></trkpt><trkpt lat="44.722020396349166" lon="9.946872380098116"><ele>490.0</ele><time>2026-04-04T12:29:40.999Z</time></trkpt><trkpt lat="44.72208641038645" lon="9.946969331366203"><ele>488.99999999999994</ele><time>2026-04-04T12:29:41.999Z</time></trkpt><trkpt lat="44.72216925700163" lon="9.947019604196212"><ele>488.0</ele><time>2026-04-04T12:29:42.999Z</time></trkpt><trkpt lat="44.72223722168275" lon="9.94708795297732"><ele>490.66666666666663</ele><time>2026-04-04T12:29:43.999Z</time></trkpt><trkpt lat="44.722315743712194" lon="9.947115794411763"><ele>493.3333333333333</ele><time>2026-04-04T12:29:44.999Z</time></trkpt><trkpt lat="44.72239695084571" lon="9.947124986454567"><ele>496.0</ele><time>2026-04-04T12:29:45.999Z</time></trkpt><trkpt lat="44.722475593598986" lon="9.947170594711771"><ele>498.66666666666663</ele><time>2026-04-04T12:29:46.999Z</time></trkpt><trkpt lat="44.722570182769225" lon="9.947200860014842"><ele>501.3333333333333</ele><time>2026-04-04T12:29:47.999Z</time></trkpt><trkpt lat="44.72265524508317" lon="9.947250858765436"><ele>504.0</ele><time>2026-04-04T12:29:48.999Z</time></trkpt><trkpt lat="44.722722267140874" lon="9.947317565176322"><ele>507.0</ele><time>2026-04-04T12:29:49.999Z</time></trkpt><trkpt lat="44.72279193976029" lon="9.947398272306636"><ele>510.0</ele><time>2026-04-04T12:29:50.999Z</time></trkpt><trkpt lat="44.72285916695501" lon="9.947484911628978"><ele>513.0</ele><time>2026-04-04T12:29:51.999Z</time></trkpt><trkpt lat="44.722931513830744" lon="9.947586714572347"><ele>516.0</ele><time>2026-04-04T12:29:52.999Z</time></trkpt><trkpt lat="44.72301124014267" lon="9.947706936040811"><ele>519.0</ele><time>2026-04-04T12:29:53.999Z</time></trkpt><trkpt lat="44.723080441217625" lon="9.94781225720664"><ele>519.8333333333334</ele><time>2026-04-04T12:29:54.999Z</time></trkpt><trkpt lat="44.72315637080815" lon="9.947899868053076"><ele>520.6666666666666</ele><time>2026-04-04T12:29:55.999Z</time></trkpt><trkpt lat="44.72320937716207" lon="9.947981954699188"><ele>521.5</ele><time>2026-04-04T12:29:56.999Z</time></trkpt><trkpt lat="44.72325775747375" lon="9.948068080762413"><ele>522.3333333333333</ele><time>2026-04-04T12:29:57.999Z</time></trkpt><trkpt lat="44.72331095886637" lon="9.948166455791343"><ele>523.1666666666666</ele><time>2026-04-04T12:29:58.999Z</time></trkpt><trkpt lat="44.72337184076469" lon="9.948225755078894"><ele>524.0</ele><time>2026-04-04T12:29:59.998Z</time></trkpt><trkpt lat="44.72347002400412" lon="9.948341964188392"><ele>523.6666666666666</ele><time>2026-04-04T12:30:01.998Z</time></trkpt><trkpt lat="44.72353362804101" lon="9.948395421882188"><ele>523.3333333333333</ele><time>2026-04-04T12:30:02.998Z</time></trkpt><trkpt lat="44.72359757045246" lon="9.948445635646461"><ele>523.0</ele><time>2026-04-04T12:30:03.998Z</time></trkpt><trkpt lat="44.7236790964001" lon="9.948437054900017"><ele>522.6666666666666</ele><time>2026-04-04T12:30:04.998Z</time></trkpt><trkpt lat="44.723763620230535" lon="9.948444018494682"><ele>522.3333333333334</ele><time>2026-04-04T12:30:05.998Z</time></trkpt><trkpt lat="44.72385065409054" lon="9.94839056760537"><ele>522.0</ele><time>2026-04-04T12:30:06.998Z</time></trkpt><trkpt lat="44.72393738167664" lon="9.948337283817558"><ele>524.3333333333334</ele><time>2026-04-04T12:30:07.998Z</time></trkpt><trkpt lat="44.72403166756123" lon="9.948292674853464"><ele>526.6666666666666</ele><time>2026-04-04T12:30:08.998Z</time></trkpt><trkpt lat="44.72411804423562" lon="9.948266349660173"><ele>529.0</ele><time>2026-04-04T12:30:09.998Z</time></trkpt><trkpt lat="44.72420358310047" lon="9.948248871518722"><ele>531.3333333333333</ele><time>2026-04-04T12:30:10.998Z</time></trkpt><trkpt lat="44.72428469433755" lon="9.948247449000585"><ele>533.6666666666666</ele><time>2026-04-04T12:30:11.998Z</time></trkpt><trkpt lat="44.72436917839799" lon="9.948259480835654"><ele>536.0</ele><time>2026-04-04T12:30:12.998Z</time></trkpt><trkpt lat="44.724451213148654" lon="9.948288532063055"><ele>537.4</ele><time>2026-04-04T12:30:13.998Z</time></trkpt><trkpt lat="44.72452982008978" lon="9.948337978701378"><ele>538.8</ele><time>2026-04-04T12:30:14.998Z</time></trkpt><trkpt lat="44.724612128786326" lon="9.94839330970462"><ele>540.1999999999999</ele><time>2026-04-04T12:30:15.998Z</time></trkpt><trkpt lat="44.72469442966917" lon="9.948448635455385"><ele>541.6</ele><time>2026-04-04T12:30:16.998Z</time></trkpt><trkpt lat="44.724780835007486" lon="9.948501718797829"><ele>543.0</ele><time>2026-04-04T12:30:17.998Z</time></trkpt><trkpt lat="44.724871555943295" lon="9.948544223789408"><ele>544.6</ele><time>2026-04-04T12:30:18.998Z</time></trkpt><trkpt lat="44.724963313140904" lon="9.948582226757175"><ele>546.1999999999999</ele><time>2026-04-04T12:30:19.998Z</time></trkpt><trkpt lat="44.7250589716588" lon="9.94862184554083"><ele>547.8</ele><time>2026-04-04T12:30:20.998Z</time></trkpt><trkpt lat="44.72514617154768" lon="9.948645745955664"><ele>549.4</ele><time>2026-04-04T12:30:21.998Z</time></trkpt><trkpt lat="44.725226686810906" lon="9.948714439484238"><ele>551.0</ele><time>2026-04-04T12:30:22.998Z</time></trkpt><trkpt lat="44.72531122199544" lon="9.948784120324119"><ele>551.1666666666666</ele><time>2026-04-04T12:30:23.998Z</time></trkpt><trkpt lat="44.725393245057056" lon="9.948856253572663"><ele>551.3333333333333</ele><time>2026-04-04T12:30:24.998Z</time></trkpt><trkpt lat="44.725461495576674" lon="9.948917212650775"><ele>551.5</ele><time>2026-04-04T12:30:25.998Z</time></trkpt><trkpt lat="44.725517559395435" lon="9.948968764807185"><ele>551.6666666666666</ele><time>2026-04-04T12:30:26.998Z</time></trkpt><trkpt lat="44.7256160526921" lon="9.949049225994658"><ele>551.8333333333334</ele><time>2026-04-04T12:30:28.998Z</time></trkpt><trkpt lat="44.725668508587916" lon="9.949099127710948"><ele>552.0</ele><time>2026-04-04T12:30:29.998Z</time></trkpt><trkpt lat="44.72572642090626" lon="9.94914349147168"><ele>552.0</ele><time>2026-04-04T12:30:30.998Z</time></trkpt><trkpt lat="44.725793806125736" lon="9.949188400957937"><ele>552.0</ele><time>2026-04-04T12:30:31.998Z</time></trkpt><trkpt lat="44.725855560513324" lon="9.949251986573273"><ele>552.0</ele><time>2026-04-04T12:30:32.998Z</time></trkpt><trkpt lat="44.72592068812368" lon="9.949322291323654"><ele>552.0</ele><time>2026-04-04T12:30:33.998Z</time></trkpt><trkpt lat="44.725986110180145" lon="9.949386652272592"><ele>552.0</ele><time>2026-04-04T12:30:34.998Z</time></trkpt><trkpt lat="44.726043185711994" lon="9.949440524519881"><ele>552.0</ele><time>2026-04-04T12:30:35.998Z</time></trkpt><trkpt lat="44.72610375742519" lon="9.949496313467401"><ele>550.8333333333334</ele><time>2026-04-04T12:30:36.998Z</time></trkpt><trkpt lat="44.72613045083497" lon="9.949582708947347"><ele>549.6666666666666</ele><time>2026-04-04T12:30:37.998Z</time></trkpt><trkpt lat="44.72610771248956" lon="9.949689903901309"><ele>548.5</ele><time>2026-04-04T12:30:38.998Z</time></trkpt><trkpt lat="44.726109849740354" lon="9.94982079970608"><ele>547.3333333333333</ele><time>2026-04-04T12:30:39.998Z</time></trkpt><trkpt lat="44.72612629906505" lon="9.949936021423056"><ele>546.1666666666666</ele><time>2026-04-04T12:30:40.998Z</time></trkpt><trkpt lat="44.726127673625335" lon="9.950084455473569"><ele>545.0</ele><time>2026-04-04T12:30:41.998Z</time></trkpt><trkpt lat="44.726130266968866" lon="9.950200320321292"><ele>545.0</ele><time>2026-04-04T12:30:42.998Z</time></trkpt><trkpt lat="44.726127710125596" lon="9.950324009489144"><ele>545.0</ele><time>2026-04-04T12:30:43.997Z</time></trkpt><trkpt lat="44.72614689226199" lon="9.950428339884756"><ele>545.0</ele><time>2026-04-04T12:30:45Z</time></trkpt><trkpt lat="44.72620321243667" lon="9.950525083511435"><ele>545.0</ele><time>2026-04-04T12:30:46Z</time></trkpt><trkpt lat="44.72628368372731" lon="9.9506137037497"><ele>545.0</ele><time>2026-04-04T12:30:47Z</time></trkpt><trkpt lat="44.72637394498715" lon="9.950681408114384"><ele>545.0</ele><time>2026-04-04T12:30:48Z</time></trkpt><trkpt lat="44.726465597574105" lon="9.950722587547869"><ele>545.0</ele><time>2026-04-04T12:30:49Z</time></trkpt><trkpt lat="44.72656718878275" lon="9.950737918537246"><ele>545.0</ele><time>2026-04-04T12:30:50Z</time></trkpt><trkpt lat="44.72666467696211" lon="9.950752261745503"><ele>545.0</ele><time>2026-04-04T12:30:51Z</time></trkpt><trkpt lat="44.72677844556742" lon="9.950771048917154"><ele>545.0</ele><time>2026-04-04T12:30:52Z</time></trkpt><trkpt lat="44.726889481337714" lon="9.950798632335701"><ele>547.6</ele><time>2026-04-04T12:30:53Z</time></trkpt><trkpt lat="44.726966196537255" lon="9.950822029530975"><ele>550.2</ele><time>2026-04-04T12:30:54Z</time></trkpt><trkpt lat="44.72707625052949" lon="9.950718196796087"><ele>552.8</ele><time>2026-04-04T12:30:56Z</time></trkpt><trkpt lat="44.72712023410548" lon="9.950598129796454"><ele>555.4</ele><time>2026-04-04T12:30:57Z</time></trkpt><trkpt lat="44.72717341064164" lon="9.950473356182856"><ele>558.0</ele><time>2026-04-04T12:30:58Z</time></trkpt><trkpt lat="44.72722254897594" lon="9.950368184958835"><ele>558.0</ele><time>2026-04-04T12:30:59Z</time></trkpt><trkpt lat="44.72727403124459" lon="9.950271660737975"><ele>558.0</ele><time>2026-04-04T12:31:00Z</time></trkpt><trkpt lat="44.72734528396541" lon="9.950177723770189"><ele>558.0</ele><time>2026-04-04T12:31:01Z</time></trkpt><trkpt lat="44.72741051852204" lon="9.950125163699548"><ele>558.0</ele><time>2026-04-04T12:31:02Z</time></trkpt><trkpt lat="44.72747527555754" lon="9.950066624800426"><ele>558.0</ele><time>2026-04-04T12:31:03Z</time></trkpt><trkpt lat="44.72755338909361" lon="9.950066931061114"><ele>558.0</ele><time>2026-04-04T12:31:04Z</time></trkpt><trkpt lat="44.727620518320265" lon="9.950121110077593"><ele>558.0</ele><time>2026-04-04T12:31:05Z</time></trkpt><trkpt lat="44.72767856827791" lon="9.950162805225274"><ele>558.0</ele><time>2026-04-04T12:31:06Z</time></trkpt><trkpt lat="44.727762583719255" lon="9.950313253676029"><ele>558.0</ele><time>2026-04-04T12:31:08Z</time></trkpt><trkpt lat="44.72778434775978" lon="9.950421084363988"><ele>558.0</ele><time>2026-04-04T12:31:09Z</time></trkpt><trkpt lat="44.727790848572646" lon="9.950534751591828"><ele>558.0</ele><time>2026-04-04T12:31:10Z</time></trkpt><trkpt lat="44.72779324888298" lon="9.950663660131243"><ele>556.8</ele><time>2026-04-04T12:31:11Z</time></trkpt><trkpt lat="44.72780444147743" lon="9.950788275216405"><ele>555.5999999999999</ele><time>2026-04-04T12:31:12Z</time></trkpt><trkpt lat="44.72782721808433" lon="9.950931981158304"><ele>554.4000000000001</ele><time>2026-04-04T12:31:13Z</time></trkpt><trkpt lat="44.72786391338802" lon="9.951067459390009"><ele>553.2</ele><time>2026-04-04T12:31:14Z</time></trkpt><trkpt lat="44.727968992609256" lon="9.951132199625079"><ele>552.0</ele><time>2026-04-04T12:31:15Z</time></trkpt><trkpt lat="44.728015608492484" lon="9.951220344820294"><ele>554.8000000000001</ele><time>2026-04-04T12:31:16Z</time></trkpt><trkpt lat="44.72808590890144" lon="9.951319794928807"><ele>557.6</ele><time>2026-04-04T12:31:17Z</time></trkpt><trkpt lat="44.72817289247515" lon="9.951417756369766"><ele>560.4000000000001</ele><time>2026-04-04T12:31:18Z</time></trkpt><trkpt lat="44.72825706939509" lon="9.951491138095294"><ele>563.2</ele><time>2026-04-04T12:31:19Z</time></trkpt><trkpt lat="44.72833903263794" lon="9.951551346318963"><ele>566.0</ele><time>2026-04-04T12:31:20Z</time></trkpt><trkpt lat="44.72841568043262" lon="9.951614338498365"><ele>566.0</ele><time>2026-04-04T12:31:20.999Z</time></trkpt><trkpt lat="44.72849697667568" lon="9.951682081614004"><ele>566.0</ele><time>2026-04-04T12:31:21.999Z</time></trkpt><trkpt lat="44.72857879617433" lon="9.951752734823463"><ele>566.0</ele><time>2026-04-04T12:31:22.999Z</time></trkpt><trkpt lat="44.728658074698366" lon="9.951846341337411"><ele>566.0</ele><time>2026-04-04T12:31:23.999Z</time></trkpt><trkpt lat="44.72872294671665" lon="9.95193065351425"><ele>566.0</ele><time>2026-04-04T12:31:24.999Z</time></trkpt><trkpt lat="44.728780752219365" lon="9.95198897210216"><ele>567.1666666666666</ele><time>2026-04-04T12:31:25.999Z</time></trkpt><trkpt lat="44.72884888983043" lon="9.952045245178507"><ele>568.3333333333333</ele><time>2026-04-04T12:31:26.999Z</time></trkpt><trkpt lat="44.72892616273386" lon="9.95208838386884"><ele>569.5</ele><time>2026-04-04T12:31:27.999Z</time></trkpt><trkpt lat="44.72900434766901" lon="9.952140962618744"><ele>570.6666666666666</ele><time>2026-04-04T12:31:28.999Z</time></trkpt><trkpt lat="44.7290842396705" lon="9.95220578755524"><ele>571.8333333333334</ele><time>2026-04-04T12:31:29.999Z</time></trkpt><trkpt lat="44.72916328753039" lon="9.952267345431062"><ele>573.0</ele><time>2026-04-04T12:31:30.999Z</time></trkpt><trkpt lat="44.729257130629556" lon="9.952309528959821"><ele>573.0</ele><time>2026-04-04T12:31:31.999Z</time></trkpt><trkpt lat="44.729359360342634" lon="9.952341170358789"><ele>573.0</ele><time>2026-04-04T12:31:32.999Z</time></trkpt><trkpt lat="44.72945557888866" lon="9.952344593040628"><ele>573.0</ele><time>2026-04-04T12:31:33.999Z</time></trkpt><trkpt lat="44.729544985473396" lon="9.952339462511466"><ele>573.0</ele><time>2026-04-04T12:31:34.999Z</time></trkpt><trkpt lat="44.72960946096814" lon="9.95236603960936"><ele>573.0</ele><time>2026-04-04T12:31:35.999Z</time></trkpt><trkpt lat="44.729643331304075" lon="9.952455681380286"><ele>573.0</ele><time>2026-04-04T12:31:37.999Z</time></trkpt><trkpt lat="44.729596980220904" lon="9.952619722229802"><ele>576.0</ele><time>2026-04-04T12:31:39.999Z</time></trkpt><trkpt lat="44.729589346210666" lon="9.952734832619837"><ele>579.0</ele><time>2026-04-04T12:31:40.999Z</time></trkpt><trkpt lat="44.7295978324775" lon="9.952822642708998"><ele>582.0</ele><time>2026-04-04T12:31:41.999Z</time></trkpt><trkpt lat="44.729637953917624" lon="9.952928999019433"><ele>585.0</ele><time>2026-04-04T12:31:43.999Z</time></trkpt><trkpt lat="44.72972553253671" lon="9.952993671303862"><ele>588.0</ele><time>2026-04-04T12:31:46.999Z</time></trkpt><trkpt lat="44.729829222475985" lon="9.953055656892749"><ele>591.0</ele><time>2026-04-04T12:31:48.999Z</time></trkpt><trkpt lat="44.72988027062899" lon="9.953135964839587"><ele>591.0</ele><time>2026-04-04T12:31:49.999Z</time></trkpt><trkpt lat="44.72992757778397" lon="9.953255645991925"><ele>591.0</ele><time>2026-04-04T12:31:50.999Z</time></trkpt><trkpt lat="44.729956053132085" lon="9.953387430909151"><ele>591.0</ele><time>2026-04-04T12:31:51.999Z</time></trkpt><trkpt lat="44.72998381540927" lon="9.9535123813617"><ele>591.0</ele><time>2026-04-04T12:31:52.999Z</time></trkpt><trkpt lat="44.7300170649655" lon="9.953680160529547"><ele>591.0</ele><time>2026-04-04T12:31:53.999Z</time></trkpt><trkpt lat="44.73005485191301" lon="9.95383576517954"><ele>591.6</ele><time>2026-04-04T12:31:54.999Z</time></trkpt><trkpt lat="44.730099111018376" lon="9.953943112767652"><ele>592.2</ele><time>2026-04-04T12:31:55.999Z</time></trkpt><trkpt lat="44.73015943440278" lon="9.954037817327059"><ele>592.8</ele><time>2026-04-04T12:31:56.999Z</time></trkpt><trkpt lat="44.73022681410754" lon="9.954125036400944"><ele>593.4</ele><time>2026-04-04T12:31:57.999Z</time></trkpt><trkpt lat="44.730289007211525" lon="9.954223781468773"><ele>594.0</ele><time>2026-04-04T12:31:58.999Z</time></trkpt><trkpt lat="44.73033516515864" lon="9.954331940234024"><ele>598.8</ele><time>2026-04-04T12:31:59.999Z</time></trkpt><trkpt lat="44.730378697929496" lon="9.954456448984356"><ele>603.5999999999999</ele><time>2026-04-04T12:32:00.999Z</time></trkpt><trkpt lat="44.730422650718836" lon="9.954584018207763"><ele>608.4</ele><time>2026-04-04T12:32:01.999Z</time></trkpt><trkpt lat="44.73047203630047" lon="9.954713192046794"><ele>613.1999999999999</ele><time>2026-04-04T12:32:02.999Z</time></trkpt><trkpt lat="44.73051635842762" lon="9.9548473390314"><ele>618.0</ele><time>2026-04-04T12:32:03.999Z</time></trkpt><trkpt lat="44.73054207634593" lon="9.954991575275237"><ele>619.0</ele><time>2026-04-04T12:32:04.998Z</time></trkpt><trkpt lat="44.730549440569334" lon="9.955144252412854"><ele>620.0</ele><time>2026-04-04T12:32:05.998Z</time></trkpt><trkpt lat="44.730550393221485" lon="9.955286969339893"><ele>621.0</ele><time>2026-04-04T12:32:06.998Z</time></trkpt><trkpt lat="44.730559918927796" lon="9.95542709020227"><ele>622.0</ele><time>2026-04-04T12:32:07.998Z</time></trkpt><trkpt lat="44.730576805714946" lon="9.95556726729626"><ele>623.0</ele><time>2026-04-04T12:32:08.998Z</time></trkpt><trkpt lat="44.73056970912435" lon="9.955712048066708"><ele>623.0</ele><time>2026-04-04T12:32:09.998Z</time></trkpt><trkpt lat="44.73058789777101" lon="9.955842318701693"><ele>623.0</ele><time>2026-04-04T12:32:10.998Z</time></trkpt><trkpt lat="44.73060496664806" lon="9.955972370885654"><ele>623.0</ele><time>2026-04-04T12:32:11.998Z</time></trkpt><trkpt lat="44.73061819632973" lon="9.956091603108765"><ele>623.0</ele><time>2026-04-04T12:32:12.998Z</time></trkpt><trkpt lat="44.73062931794301" lon="9.956215581306207"><ele>623.0</ele><time>2026-04-04T12:32:13.998Z</time></trkpt><trkpt lat="44.73062807133768" lon="9.9563387307121"><ele>624.4</ele><time>2026-04-04T12:32:14.998Z</time></trkpt><trkpt lat="44.73061964919424" lon="9.956471533873271"><ele>625.8</ele><time>2026-04-04T12:32:15.998Z</time></trkpt><trkpt lat="44.73060390565843" lon="9.956602920121261"><ele>627.2</ele><time>2026-04-04T12:32:16.998Z</time></trkpt><trkpt lat="44.730579151994924" lon="9.956737700475832"><ele>628.6</ele><time>2026-04-04T12:32:17.998Z</time></trkpt><trkpt lat="44.730546111516844" lon="9.95687791459377"><ele>630.0</ele><time>2026-04-04T12:32:18.998Z</time></trkpt><trkpt lat="44.730506803922744" lon="9.95702186313025"><ele>632.2</ele><time>2026-04-04T12:32:19.998Z</time></trkpt><trkpt lat="44.73046168277802" lon="9.957158834296392"><ele>634.4</ele><time>2026-04-04T12:32:20.998Z</time></trkpt><trkpt lat="44.73043569957099" lon="9.957314829058282"><ele>636.5999999999999</ele><time>2026-04-04T12:32:21.998Z</time></trkpt><trkpt lat="44.73041599570616" lon="9.957455305744846"><ele>638.8</ele><time>2026-04-04T12:32:22.998Z</time></trkpt><trkpt lat="44.73039305775736" lon="9.957600061126124"><ele>641.0</ele><time>2026-04-04T12:32:23.998Z</time></trkpt><trkpt lat="44.73039157684996" lon="9.957761045105586"><ele>642.5999999999999</ele><time>2026-04-04T12:32:24.998Z</time></trkpt><trkpt lat="44.7304029580436" lon="9.957911860106378"><ele>644.2</ele><time>2026-04-04T12:32:25.998Z</time></trkpt><trkpt lat="44.73039177562555" lon="9.958063333709399"><ele>645.8</ele><time>2026-04-04T12:32:26.998Z</time></trkpt><trkpt lat="44.73038767280893" lon="9.958223045416497"><ele>647.4000000000001</ele><time>2026-04-04T12:32:27.998Z</time></trkpt><trkpt lat="44.73037589059176" lon="9.958389353507863"><ele>649.0</ele><time>2026-04-04T12:32:28.998Z</time></trkpt><trkpt lat="44.73037669246777" lon="9.958554889926077"><ele>649.6</ele><time>2026-04-04T12:32:29.998Z</time></trkpt><trkpt lat="44.73037296660976" lon="9.95870853854723"><ele>650.2</ele><time>2026-04-04T12:32:30.998Z</time></trkpt><trkpt lat="44.73037509362256" lon="9.958859709876878"><ele>650.8000000000001</ele><time>2026-04-04T12:32:31.998Z</time></trkpt><trkpt lat="44.73038152569963" lon="9.959013676477"><ele>651.4000000000001</ele><time>2026-04-04T12:32:32.998Z</time></trkpt><trkpt lat="44.73038387080888" lon="9.959171995637256"><ele>652.0</ele><time>2026-04-04T12:32:33.998Z</time></trkpt><trkpt lat="44.73038311073201" lon="9.959332102739392"><ele>652.0</ele><time>2026-04-04T12:32:34.998Z</time></trkpt><trkpt lat="44.730382324875485" lon="9.959491742939512"><ele>652.0</ele><time>2026-04-04T12:32:35.998Z</time></trkpt><trkpt lat="44.730398470758125" lon="9.959652282125266"><ele>652.0</ele><time>2026-04-04T12:32:36.998Z</time></trkpt><trkpt lat="44.73041118086011" lon="9.9598129508574"><ele>652.0</ele><time>2026-04-04T12:32:37.998Z</time></trkpt><trkpt lat="44.73042369123606" lon="9.959954188084163"><ele>652.0</ele><time>2026-04-04T12:32:38.998Z</time></trkpt><trkpt lat="44.73042322923576" lon="9.960071648669842"><ele>650.75</ele><time>2026-04-04T12:32:39.998Z</time></trkpt><trkpt lat="44.73045413212961" lon="9.960202294748303"><ele>649.5</ele><time>2026-04-04T12:32:40.998Z</time></trkpt><trkpt lat="44.73050285418628" lon="9.960349043615972"><ele>648.25</ele><time>2026-04-04T12:32:41.998Z</time></trkpt><trkpt lat="44.7305552208071" lon="9.960502210921838"><ele>647.0</ele><time>2026-04-04T12:32:42.998Z</time></trkpt><trkpt lat="44.73061275851001" lon="9.96065707589244"><ele>647.0</ele><time>2026-04-04T12:32:43.998Z</time></trkpt><trkpt lat="44.730658026404214" lon="9.960788800643897"><ele>647.0</ele><time>2026-04-04T12:32:44.998Z</time></trkpt><trkpt lat="44.73069924536451" lon="9.960888440421101"><ele>647.0</ele><time>2026-04-04T12:32:45.998Z</time></trkpt><trkpt lat="44.73072805525534" lon="9.960981621774412"><ele>647.0</ele><time>2026-04-04T12:32:46.998Z</time></trkpt><trkpt lat="44.73076594761948" lon="9.961124587110996"><ele>647.0</ele><time>2026-04-04T12:32:48.998Z</time></trkpt><trkpt lat="44.730816879684326" lon="9.961236074804013"><ele>646.8</ele><time>2026-04-04T12:32:51Z</time></trkpt><trkpt lat="44.7307473288748" lon="9.96132398576092"><ele>646.6</ele><time>2026-04-04T12:32:53Z</time></trkpt><trkpt lat="44.7307186251257" lon="9.961407363989164"><ele>646.4</ele><time>2026-04-04T12:32:54Z</time></trkpt><trkpt lat="44.73065478659362" lon="9.961542227257414"><ele>646.1999999999999</ele><time>2026-04-04T12:32:56Z</time></trkpt><trkpt lat="44.73058948804146" lon="9.961650586805444"><ele>646.0</ele><time>2026-04-04T12:32:58Z</time></trkpt><trkpt lat="44.73052938333923" lon="9.961798489372422"><ele>645.1999999999999</ele><time>2026-04-04T12:33:00Z</time></trkpt><trkpt lat="44.730470532031035" lon="9.96194851808439"><ele>644.4</ele><time>2026-04-04T12:33:02Z</time></trkpt><trkpt lat="44.73042542690264" lon="9.962075819794995"><ele>643.6</ele><time>2026-04-04T12:33:04Z</time></trkpt><trkpt lat="44.730415657858664" lon="9.962166390769303"><ele>642.8</ele><time>2026-04-04T12:33:05Z</time></trkpt><trkpt lat="44.73038945153302" lon="9.962317781044026"><ele>642.0</ele><time>2026-04-04T12:33:07Z</time></trkpt><trkpt lat="44.730365319391105" lon="9.962475408668627"><ele>643.2</ele><time>2026-04-04T12:33:09Z</time></trkpt><trkpt lat="44.730345448994235" lon="9.962634472386306"><ele>644.4000000000001</ele><time>2026-04-04T12:33:11Z</time></trkpt><trkpt lat="44.73033114024176" lon="9.962782959737186"><ele>645.5999999999999</ele><time>2026-04-04T12:33:13Z</time></trkpt><trkpt lat="44.73030139236177" lon="9.96291438891742"><ele>646.8</ele><time>2026-04-04T12:33:15Z</time></trkpt><trkpt lat="44.730275132329155" lon="9.962997080428613"><ele>648.0</ele><time>2026-04-04T12:33:16Z</time></trkpt><trkpt lat="44.73025034109623" lon="9.963093540522662"><ele>648.0</ele><time>2026-04-04T12:33:18Z</time></trkpt><trkpt lat="44.730252282088884" lon="9.963233372203579"><ele>648.0</ele><time>2026-04-04T12:33:20Z</time></trkpt><trkpt lat="44.73024441451063" lon="9.963399973754434"><ele>648.0</ele><time>2026-04-04T12:33:22Z</time></trkpt><trkpt lat="44.73024485924073" lon="9.963508299595357"><ele>648.0</ele><time>2026-04-04T12:33:23Z</time></trkpt><trkpt lat="44.730236890033744" lon="9.963624911596488"><ele>648.0</ele><time>2026-04-04T12:33:24Z</time></trkpt><trkpt lat="44.73021639326507" lon="9.963763998201655"><ele>640.1999999999999</ele><time>2026-04-04T12:33:26Z</time></trkpt><trkpt lat="44.73020403380131" lon="9.963884476811604"><ele>632.4</ele><time>2026-04-04T12:33:27.999Z</time></trkpt><trkpt lat="44.730176572615534" lon="9.964021403691481"><ele>624.5999999999999</ele><time>2026-04-04T12:33:29.999Z</time></trkpt><trkpt lat="44.730166185222" lon="9.96417112860907"><ele>616.8</ele><time>2026-04-04T12:33:31.999Z</time></trkpt><trkpt lat="44.73016693089605" lon="9.964276647941388"><ele>609.0</ele><time>2026-04-04T12:33:33.999Z</time></trkpt><trkpt lat="44.7301911287009" lon="9.964425712505316"><ele>611.6</ele><time>2026-04-04T12:33:35.999Z</time></trkpt><trkpt lat="44.73020023082433" lon="9.96456373571334"><ele>614.2</ele><time>2026-04-04T12:33:37.999Z</time></trkpt><trkpt lat="44.73018973943033" lon="9.964703118200749"><ele>616.8000000000001</ele><time>2026-04-04T12:33:39.999Z</time></trkpt><trkpt lat="44.73021565073697" lon="9.964856022132366"><ele>619.4</ele><time>2026-04-04T12:33:41.999Z</time></trkpt><trkpt lat="44.73022722122066" lon="9.964945656206629"><ele>622.0</ele><time>2026-04-04T12:33:42.999Z</time></trkpt><trkpt lat="44.730257076984955" lon="9.965044224835717"><ele>616.0</ele><time>2026-04-04T12:33:43.999Z</time></trkpt><trkpt lat="44.73031086859339" lon="9.965152430034792"><ele>610.0</ele><time>2026-04-04T12:33:44.999Z</time></trkpt><trkpt lat="44.730381127136226" lon="9.965277479768684"><ele>604.0</ele><time>2026-04-04T12:33:45.999Z</time></trkpt><trkpt lat="44.730456286383856" lon="9.965386772364816"><ele>598.0</ele><time>2026-04-04T12:33:46.999Z</time></trkpt><trkpt lat="44.7305316543369" lon="9.965524781694427"><ele>592.0</ele><time>2026-04-04T12:33:47.999Z</time></trkpt><trkpt lat="44.73058909645659" lon="9.96564276449346"><ele>592.0</ele><time>2026-04-04T12:33:48.999Z</time></trkpt><trkpt lat="44.730635553381525" lon="9.965748535103794"><ele>592.0</ele><time>2026-04-04T12:33:49.999Z</time></trkpt><trkpt lat="44.73067120341059" lon="9.96584403990323"><ele>592.0</ele><time>2026-04-04T12:33:50.999Z</time></trkpt><trkpt lat="44.73068062430401" lon="9.965938137385086"><ele>592.0</ele><time>2026-04-04T12:33:51.999Z</time></trkpt><trkpt lat="44.7306598235325" lon="9.96604656179914"><ele>592.0</ele><time>2026-04-04T12:33:52.999Z</time></trkpt><trkpt lat="44.730605256680846" lon="9.966176047687217"><ele>592.0</ele><time>2026-04-04T12:33:53.999Z</time></trkpt><trkpt lat="44.73053460663342" lon="9.966325889433085"><ele>588.0</ele><time>2026-04-04T12:33:54.999Z</time></trkpt><trkpt lat="44.73047460703091" lon="9.966480420919108"><ele>584.0</ele><time>2026-04-04T12:33:55.999Z</time></trkpt><trkpt lat="44.73043489768342" lon="9.966620601616036"><ele>580.0</ele><time>2026-04-04T12:33:56.999Z</time></trkpt><trkpt lat="44.73039602569618" lon="9.966735948618473"><ele>576.0</ele><time>2026-04-04T12:33:57.999Z</time></trkpt><trkpt lat="44.73034289942184" lon="9.966828498168734"><ele>572.0</ele><time>2026-04-04T12:33:58.999Z</time></trkpt><trkpt lat="44.7303009169916" lon="9.966920781345728"><ele>570.1666666666666</ele><time>2026-04-04T12:33:59.999Z</time></trkpt><trkpt lat="44.73028665808379" lon="9.967030252182541"><ele>568.3333333333333</ele><time>2026-04-04T12:34:00.999Z</time></trkpt><trkpt lat="44.73030258256602" lon="9.967149024045886"><ele>566.5</ele><time>2026-04-04T12:34:01.999Z</time></trkpt><trkpt lat="44.73032355864869" lon="9.967264913050744"><ele>564.6666666666666</ele><time>2026-04-04T12:34:02.999Z</time></trkpt><trkpt lat="44.730336598220596" lon="9.967383987444384"><ele>562.8333333333334</ele><time>2026-04-04T12:34:03.999Z</time></trkpt><trkpt lat="44.73030930854653" lon="9.967503541979104"><ele>561.0</ele><time>2026-04-04T12:34:04.999Z</time></trkpt><trkpt lat="44.730289892352204" lon="9.9676212178509"><ele>561.6</ele><time>2026-04-04T12:34:05.999Z</time></trkpt><trkpt lat="44.7302495180285" lon="9.967747663680962"><ele>562.2</ele><time>2026-04-04T12:34:06.999Z</time></trkpt><trkpt lat="44.73018776095204" lon="9.967884027926727"><ele>562.8</ele><time>2026-04-04T12:34:07.999Z</time></trkpt><trkpt lat="44.73012377068859" lon="9.968025057256408"><ele>563.4</ele><time>2026-04-04T12:34:08.999Z</time></trkpt><trkpt lat="44.73005880030196" lon="9.968158376200762"><ele>564.0</ele><time>2026-04-04T12:34:09.999Z</time></trkpt><trkpt lat="44.729984764319305" lon="9.968262393203835"><ele>564.0</ele><time>2026-04-04T12:34:10.999Z</time></trkpt><trkpt lat="44.7299122208114" lon="9.968319924094985"><ele>564.0</ele><time>2026-04-04T12:34:11.999Z</time></trkpt><trkpt lat="44.72984255503666" lon="9.968343777991914"><ele>564.0</ele><time>2026-04-04T12:34:12.998Z</time></trkpt><trkpt lat="44.72972874191256" lon="9.968343333708372"><ele>564.0</ele><time>2026-04-04T12:34:14.998Z</time></trkpt><trkpt lat="44.72966360956083" lon="9.968537742981335"><ele>564.0</ele><time>2026-04-04T12:34:16.998Z</time></trkpt><trkpt lat="44.72965684281377" lon="9.968756171352776"><ele>562.6</ele><time>2026-04-04T12:34:18.998Z</time></trkpt><trkpt lat="44.7296231413043" lon="9.968890286077414"><ele>561.2</ele><time>2026-04-04T12:34:19.998Z</time></trkpt><trkpt lat="44.72956556528298" lon="9.96901178070199"><ele>559.8000000000001</ele><time>2026-04-04T12:34:20.998Z</time></trkpt><trkpt lat="44.72951246314911" lon="9.969130508924385"><ele>558.4</ele><time>2026-04-04T12:34:21.998Z</time></trkpt><trkpt lat="44.729457368208934" lon="9.96925277087983"><ele>557.0</ele><time>2026-04-04T12:34:22.998Z</time></trkpt><trkpt lat="44.72940628156415" lon="9.96937408432183"><ele>556.8000000000001</ele><time>2026-04-04T12:34:23.998Z</time></trkpt><trkpt lat="44.729364410993654" lon="9.969492390951212"><ele>556.6</ele><time>2026-04-04T12:34:24.998Z</time></trkpt><trkpt lat="44.72934027523927" lon="9.969606982776268"><ele>556.4000000000001</ele><time>2026-04-04T12:34:25.998Z</time></trkpt><trkpt lat="44.729327210550665" lon="9.96972551396293"><ele>556.2</ele><time>2026-04-04T12:34:26.998Z</time></trkpt><trkpt lat="44.729357355866846" lon="9.969845780941316"><ele>556.0</ele><time>2026-04-04T12:34:27.998Z</time></trkpt><trkpt lat="44.729361306488414" lon="9.969992433625801"><ele>555.2</ele><time>2026-04-04T12:34:28.998Z</time></trkpt><trkpt lat="44.72940400126563" lon="9.970125198238565"><ele>554.4000000000001</ele><time>2026-04-04T12:34:29.998Z</time></trkpt><trkpt lat="44.72943180500836" lon="9.97023849086803"><ele>553.6</ele><time>2026-04-04T12:34:30.998Z</time></trkpt><trkpt lat="44.72946687139064" lon="9.970352267460498"><ele>552.8000000000001</ele><time>2026-04-04T12:34:32.998Z</time></trkpt><trkpt lat="44.72949962892029" lon="9.970433678015066"><ele>552.0</ele><time>2026-04-04T12:34:33.998Z</time></trkpt><trkpt lat="44.72955617296719" lon="9.970574198524009"><ele>552.0</ele><time>2026-04-04T12:34:35.998Z</time></trkpt><trkpt lat="44.72960983208267" lon="9.970707548976884"><ele>552.0</ele><time>2026-04-04T12:34:37.998Z</time></trkpt><trkpt lat="44.729774001799356" lon="9.970665034764512"><ele>552.0</ele><time>2026-04-04T12:34:38.998Z</time></trkpt><trkpt lat="44.72978768536574" lon="9.970757741447535"><ele>552.0</ele><time>2026-04-04T12:34:39.998Z</time></trkpt><trkpt lat="44.72981361881229" lon="9.970873610111957"><ele>552.0</ele><time>2026-04-04T12:34:40.998Z</time></trkpt><trkpt lat="44.729853706067324" lon="9.970964278704411"><ele>550.2</ele><time>2026-04-04T12:34:41.998Z</time></trkpt><trkpt lat="44.72992215851973" lon="9.971099680517046"><ele>548.4000000000001</ele><time>2026-04-04T12:34:43.998Z</time></trkpt><trkpt lat="44.729941247254914" lon="9.971255370763048"><ele>546.5999999999999</ele><time>2026-04-04T12:34:45.998Z</time></trkpt><trkpt lat="44.72997082283677" lon="9.971416587905384"><ele>544.8</ele><time>2026-04-04T12:34:47.998Z</time></trkpt><trkpt lat="44.72995999320634" lon="9.971531550773191"><ele>543.0</ele><time>2026-04-04T12:34:48.998Z</time></trkpt><trkpt lat="44.7299310577118" lon="9.971632641861524"><ele>541.0</ele><time>2026-04-04T12:34:49.998Z</time></trkpt><trkpt lat="44.72990626743763" lon="9.971735110787598"><ele>539.0</ele><time>2026-04-04T12:34:50.998Z</time></trkpt><trkpt lat="44.72988681596596" lon="9.971832459691443"><ele>537.0</ele><time>2026-04-04T12:34:51.998Z</time></trkpt><trkpt lat="44.72986577397755" lon="9.971917078021944"><ele>535.0</ele><time>2026-04-04T12:34:52.998Z</time></trkpt><trkpt lat="44.72983345077181" lon="9.972076895962857"><ele>533.0</ele><time>2026-04-04T12:34:54.998Z</time></trkpt><trkpt lat="44.72974961808309" lon="9.972174979002887"><ele>531.0</ele><time>2026-04-04T12:34:57Z</time></trkpt><trkpt lat="44.72966267211568" lon="9.972291032649732"><ele>531.0</ele><time>2026-04-04T12:34:59Z</time></trkpt><trkpt lat="44.72960687807641" lon="9.972356385285813"><ele>531.0</ele><time>2026-04-04T12:35:00Z</time></trkpt><trkpt lat="44.72955476007534" lon="9.972497396924282"><ele>531.0</ele><time>2026-04-04T12:35:01Z</time></trkpt><trkpt lat="44.72950672040275" lon="9.972686938126968"><ele>531.0</ele><time>2026-04-04T12:35:02Z</time></trkpt><trkpt lat="44.72945515080737" lon="9.972863084206947"><ele>531.0</ele><time>2026-04-04T12:35:03Z</time></trkpt><trkpt lat="44.72939487883485" lon="9.973037591695054"><ele>531.0</ele><time>2026-04-04T12:35:04Z</time></trkpt><trkpt lat="44.72932963438503" lon="9.97318383044514"><ele>531.0</ele><time>2026-04-04T12:35:05Z</time></trkpt><trkpt lat="44.7292561781989" lon="9.973310734322187"><ele>531.0</ele><time>2026-04-04T12:35:06Z</time></trkpt><trkpt lat="44.72917220703795" lon="9.973411874522313"><ele>530.6</ele><time>2026-04-04T12:35:07Z</time></trkpt><trkpt lat="44.72907495155246" lon="9.97348058864576"><ele>530.2</ele><time>2026-04-04T12:35:08Z</time></trkpt><trkpt lat="44.72898975469888" lon="9.973578910286472"><ele>529.8</ele><time>2026-04-04T12:35:09Z</time></trkpt><trkpt lat="44.728937015822346" lon="9.9737192729129"><ele>529.4</ele><time>2026-04-04T12:35:10Z</time></trkpt><trkpt lat="44.728916651318364" lon="9.97387959752302"><ele>529.0</ele><time>2026-04-04T12:35:11Z</time></trkpt><trkpt lat="44.72892197807452" lon="9.974047991336734"><ele>527.25</ele><time>2026-04-04T12:35:12Z</time></trkpt><trkpt lat="44.728915010080996" lon="9.974203287273282"><ele>525.5</ele><time>2026-04-04T12:35:13Z</time></trkpt><trkpt lat="44.72888371834018" lon="9.97435007826017"><ele>523.75</ele><time>2026-04-04T12:35:14Z</time></trkpt><trkpt lat="44.728795502599354" lon="9.974466883692019"><ele>522.0</ele><time>2026-04-04T12:35:15Z</time></trkpt><trkpt lat="44.72871030285242" lon="9.974582281383457"><ele>522.0</ele><time>2026-04-04T12:35:16Z</time></trkpt><trkpt lat="44.728615536280394" lon="9.974719328131593"><ele>522.0</ele><time>2026-04-04T12:35:17Z</time></trkpt><trkpt lat="44.728543113716235" lon="9.974884415103073"><ele>522.0</ele><time>2026-04-04T12:35:18Z</time></trkpt><trkpt lat="44.7284735304752" lon="9.975047234530557"><ele>522.0</ele><time>2026-04-04T12:35:19Z</time></trkpt><trkpt lat="44.72841678567349" lon="9.97522052895886"><ele>523.6666666666666</ele><time>2026-04-04T12:35:20Z</time></trkpt><trkpt lat="44.728346563424736" lon="9.975395022604088"><ele>525.3333333333333</ele><time>2026-04-04T12:35:21Z</time></trkpt><trkpt lat="44.72830512342253" lon="9.975610514916529"><ele>527.0</ele><time>2026-04-04T12:35:22Z</time></trkpt><trkpt lat="44.72826790440437" lon="9.975816906882839"><ele>525.75</ele><time>2026-04-04T12:35:23Z</time></trkpt><trkpt lat="44.72824979518655" lon="9.97600667061096"><ele>524.5</ele><time>2026-04-04T12:35:24Z</time></trkpt><trkpt lat="44.72823852779819" lon="9.976188626322829"><ele>523.25</ele><time>2026-04-04T12:35:25Z</time></trkpt><trkpt lat="44.7282226536693" lon="9.976352100536953"><ele>522.0</ele><time>2026-04-04T12:35:26Z</time></trkpt><trkpt lat="44.72825959527748" lon="9.976521019815571"><ele>522.0</ele><time>2026-04-04T12:35:27Z</time></trkpt><trkpt lat="44.72830132366054" lon="9.976680659276635"><ele>522.0</ele><time>2026-04-04T12:35:28Z</time></trkpt><trkpt lat="44.72834680835974" lon="9.976815257799373"><ele>522.0</ele><time>2026-04-04T12:35:29Z</time></trkpt><trkpt lat="44.728359617890824" lon="9.97693853639901"><ele>522.0</ele><time>2026-04-04T12:35:30Z</time></trkpt><trkpt lat="44.72838249421892" lon="9.977062650534632"><ele>522.0</ele><time>2026-04-04T12:35:31Z</time></trkpt><trkpt lat="44.728329838772574" lon="9.977180556910836"><ele>520.6</ele><time>2026-04-04T12:35:32Z</time></trkpt><trkpt lat="44.72826679446898" lon="9.977266771953461"><ele>519.2</ele><time>2026-04-04T12:35:33Z</time></trkpt><trkpt lat="44.7281796250302" lon="9.977322589703844"><ele>517.8</ele><time>2026-04-04T12:35:34Z</time></trkpt><trkpt lat="44.728079256620774" lon="9.97738250730821"><ele>516.4</ele><time>2026-04-04T12:35:34.999Z</time></trkpt><trkpt lat="44.727968306850045" lon="9.977448865720287"><ele>515.0</ele><time>2026-04-04T12:35:35.999Z</time></trkpt><trkpt lat="44.72785914087504" lon="9.977514340247566"><ele>514.2</ele><time>2026-04-04T12:35:36.999Z</time></trkpt><trkpt lat="44.72775685912197" lon="9.977564702470431"><ele>513.4</ele><time>2026-04-04T12:35:37.999Z</time></trkpt><trkpt lat="44.72766038673334" lon="9.977591527943659"><ele>512.6</ele><time>2026-04-04T12:35:38.999Z</time></trkpt><trkpt lat="44.72756310219234" lon="9.977563428483647"><ele>511.8</ele><time>2026-04-04T12:35:39.999Z</time></trkpt><trkpt lat="44.72746899343025" lon="9.977475802277567"><ele>511.0</ele><time>2026-04-04T12:35:40.999Z</time></trkpt><trkpt lat="44.72736113580549" lon="9.977374915710731"><ele>511.0</ele><time>2026-04-04T12:35:41.999Z</time></trkpt><trkpt lat="44.727235588439264" lon="9.977300532652606"><ele>511.0</ele><time>2026-04-04T12:35:42.999Z</time></trkpt><trkpt lat="44.7271061462734" lon="9.977217495414223"><ele>511.0</ele><time>2026-04-04T12:35:43.999Z</time></trkpt><trkpt lat="44.72696048631409" lon="9.977188165018733"><ele>511.0</ele><time>2026-04-04T12:35:44.999Z</time></trkpt><trkpt lat="44.726808382100046" lon="9.977161145703887"><ele>508.75</ele><time>2026-04-04T12:35:45.999Z</time></trkpt><trkpt lat="44.726654986385206" lon="9.977136013640786"><ele>506.5</ele><time>2026-04-04T12:35:46.999Z</time></trkpt><trkpt lat="44.72652018695306" lon="9.977121988752481"><ele>504.25</ele><time>2026-04-04T12:35:47.999Z</time></trkpt><trkpt lat="44.72639912640225" lon="9.977138586578942"><ele>502.0</ele><time>2026-04-04T12:35:48.999Z</time></trkpt><trkpt lat="44.726284208085474" lon="9.977149557547044"><ele>502.0</ele><time>2026-04-04T12:35:49.999Z</time></trkpt><trkpt lat="44.726162458448385" lon="9.977163504094678"><ele>502.0</ele><time>2026-04-04T12:35:50.999Z</time></trkpt><trkpt lat="44.72603605912829" lon="9.977152014738216"><ele>502.0</ele><time>2026-04-04T12:35:51.999Z</time></trkpt><trkpt lat="44.725917679286084" lon="9.9770957101848"><ele>502.0</ele><time>2026-04-04T12:35:52.999Z</time></trkpt><trkpt lat="44.7258220549259" lon="9.976995052017802"><ele>501.8</ele><time>2026-04-04T12:35:53.999Z</time></trkpt><trkpt lat="44.725727410071016" lon="9.976887670121263"><ele>501.6</ele><time>2026-04-04T12:35:54.999Z</time></trkpt><trkpt lat="44.725641702468984" lon="9.9767835161533"><ele>501.40000000000003</ele><time>2026-04-04T12:35:55.999Z</time></trkpt><trkpt lat="44.72555473556209" lon="9.976689831666837"><ele>501.20000000000005</ele><time>2026-04-04T12:35:56.999Z</time></trkpt><trkpt lat="44.72546790611481" lon="9.976609570799924"><ele>501.0</ele><time>2026-04-04T12:35:57.999Z</time></trkpt><trkpt lat="44.72537159683935" lon="9.976548398850328"><ele>501.0</ele><time>2026-04-04T12:35:58.999Z</time></trkpt><trkpt lat="44.72528183974008" lon="9.976546112571999"><ele>501.0</ele><time>2026-04-04T12:35:59.999Z</time></trkpt><trkpt lat="44.72519439867142" lon="9.976593810219844"><ele>501.0</ele><time>2026-04-04T12:36:00.999Z</time></trkpt><trkpt lat="44.72512606829043" lon="9.97668420592956"><ele>501.0</ele><time>2026-04-04T12:36:01.999Z</time></trkpt><trkpt lat="44.72508439298044" lon="9.976813723466702"><ele>501.0</ele><time>2026-04-04T12:36:02.999Z</time></trkpt><trkpt lat="44.725055867658554" lon="9.976966052371687"><ele>497.75</ele><time>2026-04-04T12:36:03.999Z</time></trkpt><trkpt lat="44.725018056519964" lon="9.977127762389339"><ele>494.5</ele><time>2026-04-04T12:36:04.999Z</time></trkpt><trkpt lat="44.724987935622735" lon="9.977287812946825"><ele>491.25</ele><time>2026-04-04T12:36:05.999Z</time></trkpt><trkpt lat="44.72496029083309" lon="9.977439989333726"><ele>488.0</ele><time>2026-04-04T12:36:06.999Z</time></trkpt><trkpt lat="44.72493437734204" lon="9.977582635599983"><ele>487.5</ele><time>2026-04-04T12:36:07.999Z</time></trkpt><trkpt lat="44.72490791226604" lon="9.977720503809783"><ele>487.0</ele><time>2026-04-04T12:36:08.999Z</time></trkpt><trkpt lat="44.72487323152979" lon="9.977861550602443"><ele>486.5</ele><time>2026-04-04T12:36:09.999Z</time></trkpt><trkpt lat="44.724818315647745" lon="9.978013013356339"><ele>486.0</ele><time>2026-04-04T12:36:10.999Z</time></trkpt><trkpt lat="44.72474382967252" lon="9.97815344247724"><ele>486.0</ele><time>2026-04-04T12:36:11.999Z</time></trkpt><trkpt lat="44.724652001980445" lon="9.978281165185155"><ele>486.0</ele><time>2026-04-04T12:36:12.999Z</time></trkpt><trkpt lat="44.72455231092085" lon="9.978403374896196"><ele>486.0</ele><time>2026-04-04T12:36:13.999Z</time></trkpt><trkpt lat="44.72446041496166" lon="9.97850882943261"><ele>486.0</ele><time>2026-04-04T12:36:14.999Z</time></trkpt><trkpt lat="44.72436748236225" lon="9.978615466229712"><ele>484.20000000000005</ele><time>2026-04-04T12:36:15.999Z</time></trkpt><trkpt lat="44.72429296398022" lon="9.978732889712402"><ele>482.40000000000003</ele><time>2026-04-04T12:36:16.999Z</time></trkpt><trkpt lat="44.724203586055154" lon="9.978813086089195"><ele>480.6</ele><time>2026-04-04T12:36:17.999Z</time></trkpt><trkpt lat="44.724144590406254" lon="9.97892042670655"><ele>478.8</ele><time>2026-04-04T12:36:18.998Z</time></trkpt><trkpt lat="44.72407945430346" lon="9.979007336218935"><ele>477.0</ele><time>2026-04-04T12:36:19.998Z</time></trkpt><trkpt lat="44.724010593363836" lon="9.979084039304551"><ele>477.0</ele><time>2026-04-04T12:36:20.998Z</time></trkpt><trkpt lat="44.723959458086405" lon="9.979181531932882"><ele>477.0</ele><time>2026-04-04T12:36:21.998Z</time></trkpt><trkpt lat="44.72391233470193" lon="9.979256326863522"><ele>477.0</ele><time>2026-04-04T12:36:22.998Z</time></trkpt><trkpt lat="44.723838617613936" lon="9.979337504870404"><ele>477.0</ele><time>2026-04-04T12:36:24.998Z</time></trkpt><trkpt lat="44.72397739638556" lon="9.979587697068562"><ele>476.0</ele><time>2026-04-04T12:36:27.998Z</time></trkpt><trkpt lat="44.724033545469524" lon="9.979692741954748"><ele>475.00000000000006</ele><time>2026-04-04T12:36:28.998Z</time></trkpt><trkpt lat="44.72409589492423" lon="9.979822283275285"><ele>474.00000000000006</ele><time>2026-04-04T12:36:29.998Z</time></trkpt><trkpt lat="44.724165184820805" lon="9.979969465570688"><ele>473.0</ele><time>2026-04-04T12:36:30.998Z</time></trkpt><trkpt lat="44.72422819064943" lon="9.980094868914804"><ele>472.0</ele><time>2026-04-04T12:36:31.998Z</time></trkpt><trkpt lat="44.72429189277119" lon="9.980221783702625"><ele>471.6</ele><time>2026-04-04T12:36:32.998Z</time></trkpt><trkpt lat="44.72435217465714" lon="9.980335855344379"><ele>471.20000000000005</ele><time>2026-04-04T12:36:33.998Z</time></trkpt><trkpt lat="44.72442511254979" lon="9.980466762145019"><ele>470.8</ele><time>2026-04-04T12:36:34.998Z</time></trkpt><trkpt lat="44.72449695449452" lon="9.98058974409808"><ele>470.4</ele><time>2026-04-04T12:36:35.998Z</time></trkpt><trkpt lat="44.724563780158284" lon="9.980721290060089"><ele>470.0</ele><time>2026-04-04T12:36:36.998Z</time></trkpt><trkpt lat="44.72463861827934" lon="9.980850062859123"><ele>468.5</ele><time>2026-04-04T12:36:37.998Z</time></trkpt><trkpt lat="44.72471876199421" lon="9.980986804910378"><ele>467.0</ele><time>2026-04-04T12:36:38.998Z</time></trkpt><trkpt lat="44.72479779947387" lon="9.981116024122732"><ele>465.5</ele><time>2026-04-04T12:36:39.998Z</time></trkpt><trkpt lat="44.72487133148658" lon="9.981239093290585"><ele>464.0</ele><time>2026-04-04T12:36:40.998Z</time></trkpt><trkpt lat="44.72493309354414" lon="9.981349685509965"><ele>463.99999999999994</ele><time>2026-04-04T12:36:41.998Z</time></trkpt><trkpt lat="44.72499086866811" lon="9.981466203681247"><ele>464.0</ele><time>2026-04-04T12:36:42.998Z</time></trkpt><trkpt lat="44.72504058134421" lon="9.981571113653127"><ele>464.0</ele><time>2026-04-04T12:36:43.998Z</time></trkpt><trkpt lat="44.7250712886477" lon="9.981653108846125"><ele>464.0</ele><time>2026-04-04T12:36:44.998Z</time></trkpt><trkpt lat="44.7250714871234" lon="9.981744167310211"><ele>463.99999999999994</ele><time>2026-04-04T12:36:45.998Z</time></trkpt><trkpt lat="44.72504609678864" lon="9.98185718111985"><ele>464.0</ele><time>2026-04-04T12:36:46.998Z</time></trkpt><trkpt lat="44.725003143401246" lon="9.981994584920239"><ele>463.0</ele><time>2026-04-04T12:36:47.998Z</time></trkpt><trkpt lat="44.724970272098375" lon="9.982136586362582"><ele>462.0</ele><time>2026-04-04T12:36:48.998Z</time></trkpt><trkpt lat="44.724950238971466" lon="9.982272707867434"><ele>461.0</ele><time>2026-04-04T12:36:49.998Z</time></trkpt><trkpt lat="44.72492982243658" lon="9.982399446249088"><ele>460.0</ele><time>2026-04-04T12:36:50.998Z</time></trkpt><trkpt lat="44.72490670120931" lon="9.982520391635465"><ele>459.0</ele><time>2026-04-04T12:36:51.998Z</time></trkpt><trkpt lat="44.724891567114845" lon="9.982637628139523"><ele>458.2</ele><time>2026-04-04T12:36:52.998Z</time></trkpt><trkpt lat="44.72488192580848" lon="9.982771317648782"><ele>457.4</ele><time>2026-04-04T12:36:53.998Z</time></trkpt><trkpt lat="44.72488483037507" lon="9.982921040330323"><ele>456.6</ele><time>2026-04-04T12:36:54.998Z</time></trkpt><trkpt lat="44.72491066414387" lon="9.983081138593063"><ele>455.8</ele><time>2026-04-04T12:36:55.998Z</time></trkpt><trkpt lat="44.72493520149445" lon="9.983225591634987"><ele>455.0</ele><time>2026-04-04T12:36:56.998Z</time></trkpt><trkpt lat="44.72496744752425" lon="9.983350361319797"><ele>453.75</ele><time>2026-04-04T12:36:57.998Z</time></trkpt><trkpt lat="44.725031187376636" lon="9.983462091940707"><ele>452.5</ele><time>2026-04-04T12:36:58.998Z</time></trkpt><trkpt lat="44.725123615352125" lon="9.98357705076666"><ele>451.25</ele><time>2026-04-04T12:36:59.998Z</time></trkpt><trkpt lat="44.72522407710754" lon="9.983703095800864"><ele>450.0</ele><time>2026-04-04T12:37:00.998Z</time></trkpt><trkpt lat="44.72530261328284" lon="9.983823450949922"><ele>450.0</ele><time>2026-04-04T12:37:01.998Z</time></trkpt><trkpt lat="44.72536520938875" lon="9.983927175355229"><ele>450.0</ele><time>2026-04-04T12:37:03Z</time></trkpt><trkpt lat="44.72541456050477" lon="9.984035617693326"><ele>450.0</ele><time>2026-04-04T12:37:04Z</time></trkpt><trkpt lat="44.72544896122514" lon="9.984140908311101"><ele>450.0</ele><time>2026-04-04T12:37:05Z</time></trkpt><trkpt lat="44.72546741133702" lon="9.984264505269675"><ele>450.0</ele><time>2026-04-04T12:37:06Z</time></trkpt><trkpt lat="44.72547288981653" lon="9.984410701240343"><ele>450.0</ele><time>2026-04-04T12:37:07Z</time></trkpt><trkpt lat="44.72545457193321" lon="9.984543500739303"><ele>450.0</ele><time>2026-04-04T12:37:08Z</time></trkpt><trkpt lat="44.72541612398227" lon="9.984675924439236"><ele>450.0</ele><time>2026-04-04T12:37:09Z</time></trkpt><trkpt lat="44.725354479469345" lon="9.984803999416144"><ele>450.0</ele><time>2026-04-04T12:37:10Z</time></trkpt><trkpt lat="44.72529188912374" lon="9.984921789678344"><ele>450.0</ele><time>2026-04-04T12:37:11Z</time></trkpt><trkpt lat="44.725258664308534" lon="9.98507130925304"><ele>451.2</ele><time>2026-04-04T12:37:12Z</time></trkpt><trkpt lat="44.725234888171826" lon="9.985228960530971"><ele>452.4</ele><time>2026-04-04T12:37:13Z</time></trkpt><trkpt lat="44.72522189675106" lon="9.985370396505155"><ele>453.6</ele><time>2026-04-04T12:37:14Z</time></trkpt><trkpt lat="44.725210320780356" lon="9.985517188422097"><ele>454.8</ele><time>2026-04-04T12:37:15Z</time></trkpt><trkpt lat="44.72520425724731" lon="9.985673969822017"><ele>456.0</ele><time>2026-04-04T12:37:16Z</time></trkpt><trkpt lat="44.72520003089274" lon="9.985841545196255"><ele>455.6666666666667</ele><time>2026-04-04T12:37:17Z</time></trkpt><trkpt lat="44.72519582232008" lon="9.985991738323252"><ele>455.33333333333337</ele><time>2026-04-04T12:37:18Z</time></trkpt><trkpt lat="44.72520216355495" lon="9.986135836591462"><ele>455.0</ele><time>2026-04-04T12:37:19Z</time></trkpt><trkpt lat="44.72521683072222" lon="9.986267384487133"><ele>454.6666666666667</ele><time>2026-04-04T12:37:20Z</time></trkpt><trkpt lat="44.72524234390994" lon="9.986364983788006"><ele>454.33333333333337</ele><time>2026-04-04T12:37:21Z</time></trkpt><trkpt lat="44.72528162204457" lon="9.986443859364003"><ele>454.0</ele><time>2026-04-04T12:37:22Z</time></trkpt><trkpt lat="44.72529661051617" lon="9.986538688932173"><ele>454.0</ele><time>2026-04-04T12:37:23Z</time></trkpt><trkpt lat="44.72527691215365" lon="9.986626366695386"><ele>454.00000000000006</ele><time>2026-04-04T12:37:24Z</time></trkpt><trkpt lat="44.725277730600766" lon="9.986723257578841"><ele>454.0</ele><time>2026-04-04T12:37:27Z</time></trkpt><trkpt lat="44.72525688118466" lon="9.986809955697202"><ele>454.0</ele><time>2026-04-04T12:37:29Z</time></trkpt><trkpt lat="44.7252435973201" lon="9.986918802952987"><ele>454.00000000000006</ele><time>2026-04-04T12:37:30Z</time></trkpt><trkpt lat="44.725224736223616" lon="9.987047128117558"><ele>454.0</ele><time>2026-04-04T12:37:31Z</time></trkpt><trkpt lat="44.72521514074957" lon="9.987143396440459"><ele>454.0</ele><time>2026-04-04T12:37:32Z</time></trkpt><trkpt lat="44.7252202399793" lon="9.987251463859506"><ele>453.83333333333337</ele><time>2026-04-04T12:37:33Z</time></trkpt><trkpt lat="44.725234928487914" lon="9.987361342557005"><ele>453.6666666666667</ele><time>2026-04-04T12:37:34Z</time></trkpt><trkpt lat="44.72525285253552" lon="9.987484815753026"><ele>453.5</ele><time>2026-04-04T12:37:35Z</time></trkpt><trkpt lat="44.72527451279846" lon="9.98761508177008"><ele>453.33333333333337</ele><time>2026-04-04T12:37:36Z</time></trkpt><trkpt lat="44.725303779669105" lon="9.987732553723466"><ele>453.1666666666667</ele><time>2026-04-04T12:37:37Z</time></trkpt><trkpt lat="44.725339686420696" lon="9.987851921299585"><ele>453.0</ele><time>2026-04-04T12:37:38Z</time></trkpt><trkpt lat="44.72538119975222" lon="9.987962443391512"><ele>453.0</ele><time>2026-04-04T12:37:39Z</time></trkpt><trkpt lat="44.725428754256335" lon="9.98805392058194"><ele>453.0</ele><time>2026-04-04T12:37:39.999Z</time></trkpt><trkpt lat="44.7254805466495" lon="9.988144728587741"><ele>453.0</ele><time>2026-04-04T12:37:40.999Z</time></trkpt><trkpt lat="44.72553287153129" lon="9.988233643771524"><ele>453.0</ele><time>2026-04-04T12:37:41.999Z</time></trkpt><trkpt lat="44.725592196686215" lon="9.988326467436929"><ele>453.0</ele><time>2026-04-04T12:37:42.999Z</time></trkpt><trkpt lat="44.725641304027754" lon="9.988419604909684"><ele>453.0</ele><time>2026-04-04T12:37:43.999Z</time></trkpt><trkpt lat="44.72567494162017" lon="9.988530493906898"><ele>453.2</ele><time>2026-04-04T12:37:44.999Z</time></trkpt><trkpt lat="44.72568269849227" lon="9.988640319467306"><ele>453.4</ele><time>2026-04-04T12:37:45.999Z</time></trkpt><trkpt lat="44.72568841442113" lon="9.988816537379615"><ele>453.59999999999997</ele><time>2026-04-04T12:37:47.999Z</time></trkpt><trkpt lat="44.72571156732031" lon="9.988936515698978"><ele>453.79999999999995</ele><time>2026-04-04T12:37:48.999Z</time></trkpt><trkpt lat="44.72574304933858" lon="9.989044985747833"><ele>454.0</ele><time>2026-04-04T12:37:49.999Z</time></trkpt><trkpt lat="44.725777949638676" lon="9.989140485455994"><ele>453.6</ele><time>2026-04-04T12:37:50.999Z</time></trkpt><trkpt lat="44.72580954617173" lon="9.989222751484212"><ele>453.2</ele><time>2026-04-04T12:37:51.999Z</time></trkpt><trkpt lat="44.72586549302495" lon="9.989394817630677"><ele>452.80000000000007</ele><time>2026-04-04T12:37:53.999Z</time></trkpt><trkpt lat="44.725920543778734" lon="9.989470516475732"><ele>452.40000000000003</ele><time>2026-04-04T12:37:54.999Z</time></trkpt><trkpt lat="44.72599426298406" lon="9.989527975505457"><ele>452.0</ele><time>2026-04-04T12:37:55.999Z</time></trkpt><trkpt lat="44.72607184921677" lon="9.989591421932769"><ele>453.0</ele><time>2026-04-04T12:37:56.999Z</time></trkpt><trkpt lat="44.72614213075456" lon="9.98967056699378"><ele>454.00000000000006</ele><time>2026-04-04T12:37:57.999Z</time></trkpt><trkpt lat="44.72620210153558" lon="9.989776417106789"><ele>455.00000000000006</ele><time>2026-04-04T12:37:58.999Z</time></trkpt><trkpt lat="44.726255297155326" lon="9.989898145768406"><ele>456.0</ele><time>2026-04-04T12:37:59.999Z</time></trkpt><trkpt lat="44.72628903237846" lon="9.990008741571717"><ele>457.0</ele><time>2026-04-04T12:38:00.999Z</time></trkpt><trkpt lat="44.7263309704118" lon="9.990110109897312"><ele>457.6666666666667</ele><time>2026-04-04T12:38:01.999Z</time></trkpt><trkpt lat="44.726398944356234" lon="9.990204402485057"><ele>458.33333333333337</ele><time>2026-04-04T12:38:02.999Z</time></trkpt><trkpt lat="44.72647088126955" lon="9.99030270685788"><ele>459.0</ele><time>2026-04-04T12:38:03.999Z</time></trkpt><trkpt lat="44.726533015809" lon="9.99040195747823"><ele>459.66666666666663</ele><time>2026-04-04T12:38:04.999Z</time></trkpt><trkpt lat="44.72656730201937" lon="9.990496888174906"><ele>460.3333333333333</ele><time>2026-04-04T12:38:05.999Z</time></trkpt><trkpt lat="44.726582034332644" lon="9.990603479753561"><ele>461.0</ele><time>2026-04-04T12:38:06.999Z</time></trkpt><trkpt lat="44.72658004597018" lon="9.990716962916812"><ele>460.99999999999994</ele><time>2026-04-04T12:38:07.999Z</time></trkpt><trkpt lat="44.72659067425209" lon="9.990838945978373"><ele>461.0</ele><time>2026-04-04T12:38:08.999Z</time></trkpt><trkpt lat="44.72663421038369" lon="9.990948542418009"><ele>461.0</ele><time>2026-04-04T12:38:09.999Z</time></trkpt><trkpt lat="44.72669096982398" lon="9.99105086423745"><ele>461.0</ele><time>2026-04-04T12:38:10.999Z</time></trkpt><trkpt lat="44.726746395384154" lon="9.99114579383747"><ele>460.99999999999994</ele><time>2026-04-04T12:38:11.999Z</time></trkpt><trkpt lat="44.72678771073584" lon="9.99123758268519"><ele>461.0</ele><time>2026-04-04T12:38:12.999Z</time></trkpt><trkpt lat="44.726824067456825" lon="9.991331440436475"><ele>460.66666666666663</ele><time>2026-04-04T12:38:13.999Z</time></trkpt><trkpt lat="44.72685718307492" lon="9.99142696986462"><ele>460.3333333333333</ele><time>2026-04-04T12:38:14.999Z</time></trkpt><trkpt lat="44.72686214377109" lon="9.991544695618925"><ele>460.0</ele><time>2026-04-04T12:38:15.999Z</time></trkpt><trkpt lat="44.726846966866425" lon="9.991655181228309"><ele>459.66666666666663</ele><time>2026-04-04T12:38:16.999Z</time></trkpt><trkpt lat="44.72681234735738" lon="9.991767177365404"><ele>459.3333333333333</ele><time>2026-04-04T12:38:17.999Z</time></trkpt><trkpt lat="44.726771080854064" lon="9.991891707757125"><ele>459.0</ele><time>2026-04-04T12:38:18.999Z</time></trkpt><trkpt lat="44.72674601791667" lon="9.99202904164755"><ele>460.2</ele><time>2026-04-04T12:38:19.999Z</time></trkpt><trkpt lat="44.7267396379843" lon="9.992161698429104"><ele>461.4</ele><time>2026-04-04T12:38:20.999Z</time></trkpt><trkpt lat="44.7267428993781" lon="9.992291159335378"><ele>462.6</ele><time>2026-04-04T12:38:21.999Z</time></trkpt><trkpt lat="44.726761911423935" lon="9.992416515745056"><ele>463.8</ele><time>2026-04-04T12:38:22.999Z</time></trkpt><trkpt lat="44.72680713363816" lon="9.992523998034134"><ele>465.0</ele><time>2026-04-04T12:38:23.998Z</time></trkpt><trkpt lat="44.726876722535394" lon="9.992613069898217"><ele>466.4</ele><time>2026-04-04T12:38:24.998Z</time></trkpt><trkpt lat="44.72693694405424" lon="9.992696363374403"><ele>467.8</ele><time>2026-04-04T12:38:25.998Z</time></trkpt><trkpt lat="44.726995482068624" lon="9.992814859542744"><ele>469.20000000000005</ele><time>2026-04-04T12:38:26.998Z</time></trkpt><trkpt lat="44.727047141510305" lon="9.99294535264415"><ele>470.6</ele><time>2026-04-04T12:38:27.998Z</time></trkpt><trkpt lat="44.72709917331913" lon="9.993085121701057"><ele>472.0</ele><time>2026-04-04T12:38:28.998Z</time></trkpt><trkpt lat="44.72713626054588" lon="9.99321061087335"><ele>472.0</ele><time>2026-04-04T12:38:29.998Z</time></trkpt><trkpt lat="44.72717613405393" lon="9.993332493395243"><ele>472.00000000000006</ele><time>2026-04-04T12:38:30.998Z</time></trkpt><trkpt lat="44.72721885519984" lon="9.99345507089893"><ele>472.00000000000006</ele><time>2026-04-04T12:38:31.998Z</time></trkpt><trkpt lat="44.72724521878766" lon="9.99356637663613"><ele>472.0</ele><time>2026-04-04T12:38:32.998Z</time></trkpt><trkpt lat="44.72724697681576" lon="9.993696076760092"><ele>472.0</ele><time>2026-04-04T12:38:33.998Z</time></trkpt><trkpt lat="44.727245446474164" lon="9.993836833991306"><ele>473.8</ele><time>2026-04-04T12:38:34.998Z</time></trkpt><trkpt lat="44.727233037480254" lon="9.993964715200871"><ele>475.6</ele><time>2026-04-04T12:38:35.998Z</time></trkpt><trkpt lat="44.727224838174955" lon="9.994103666596786"><ele>477.40000000000003</ele><time>2026-04-04T12:38:36.998Z</time></trkpt><trkpt lat="44.727202285068046" lon="9.994271103183967"><ele>479.20000000000005</ele><time>2026-04-04T12:38:37.998Z</time></trkpt><trkpt lat="44.72719537161135" lon="9.99443582594783"><ele>481.0</ele><time>2026-04-04T12:38:38.998Z</time></trkpt><trkpt lat="44.727205400966966" lon="9.99458712944034"><ele>481.42857142857133</ele><time>2026-04-04T12:38:39.998Z</time></trkpt><trkpt lat="44.72721215625361" lon="9.994693901146164"><ele>481.85714285714283</ele><time>2026-04-04T12:38:40.998Z</time></trkpt><trkpt lat="44.72718071863626" lon="9.994773644921388"><ele>482.2857142857142</ele><time>2026-04-04T12:38:41.998Z</time></trkpt><trkpt lat="44.7271370384583" lon="9.994839082198977"><ele>482.71428571428567</ele><time>2026-04-04T12:38:42.998Z</time></trkpt><trkpt lat="44.72710589748361" lon="9.994922640850604"><ele>483.1428571428571</ele><time>2026-04-04T12:38:43.998Z</time></trkpt><trkpt lat="44.727105129002034" lon="9.99502184347017"><ele>483.57142857142856</ele><time>2026-04-04T12:38:44.998Z</time></trkpt><trkpt lat="44.72712422076161" lon="9.995120591707797"><ele>484.0</ele><time>2026-04-04T12:38:45.998Z</time></trkpt><trkpt lat="44.72715383219103" lon="9.995221095863386"><ele>486.50000000000006</ele><time>2026-04-04T12:38:46.998Z</time></trkpt><trkpt lat="44.727200801390005" lon="9.995314276237574"><ele>489.0</ele><time>2026-04-04T12:38:47.998Z</time></trkpt><trkpt lat="44.72725416495806" lon="9.995406956873019"><ele>491.5</ele><time>2026-04-04T12:38:48.998Z</time></trkpt><trkpt lat="44.727282585397546" lon="9.995509039901167"><ele>494.0</ele><time>2026-04-04T12:38:49.998Z</time></trkpt><trkpt lat="44.72726530047318" lon="9.9956668956836"><ele>496.50000000000006</ele><time>2026-04-04T12:38:51.998Z</time></trkpt><trkpt lat="44.72723457235866" lon="9.9957775473818"><ele>499.0</ele><time>2026-04-04T12:38:52.998Z</time></trkpt><trkpt lat="44.727202641669464" lon="9.995881905860898"><ele>501.00000000000006</ele><time>2026-04-04T12:38:53.998Z</time></trkpt><trkpt lat="44.727177901980816" lon="9.995983443780768"><ele>503.0</ele><time>2026-04-04T12:38:54.998Z</time></trkpt><trkpt lat="44.72715818401747" lon="9.99608799630037"><ele>505.0</ele><time>2026-04-04T12:38:55.998Z</time></trkpt><trkpt lat="44.72713968866496" lon="9.99622106286541"><ele>507.0</ele><time>2026-04-04T12:38:56.998Z</time></trkpt><trkpt lat="44.72710289877509" lon="9.996333867771897"><ele>509.00000000000006</ele><time>2026-04-04T12:38:57.998Z</time></trkpt><trkpt lat="44.72705153042006" lon="9.996436191688744"><ele>511.0</ele><time>2026-04-04T12:38:58.998Z</time></trkpt><trkpt lat="44.72701390092973" lon="9.99653500224263"><ele>511.00000000000006</ele><time>2026-04-04T12:38:59.998Z</time></trkpt><trkpt lat="44.72697387861031" lon="9.996638285457436"><ele>511.0</ele><time>2026-04-04T12:39:00.998Z</time></trkpt><trkpt lat="44.72691643701525" lon="9.996735957357751"><ele>511.0</ele><time>2026-04-04T12:39:01.998Z</time></trkpt><trkpt lat="44.72684684072262" lon="9.996818443185226"><ele>511.0</ele><time>2026-04-04T12:39:02.998Z</time></trkpt><trkpt lat="44.72679347774749" lon="9.996901160693383"><ele>511.00000000000006</ele><time>2026-04-04T12:39:03.998Z</time></trkpt><trkpt lat="44.726752424829144" lon="9.996993871971487"><ele>511.0</ele><time>2026-04-04T12:39:04.998Z</time></trkpt><trkpt lat="44.72671742705933" lon="9.997100942406824"><ele>508.6</ele><time>2026-04-04T12:39:05.998Z</time></trkpt><trkpt lat="44.7266624822871" lon="9.997233155597176"><ele>506.20000000000005</ele><time>2026-04-04T12:39:06.998Z</time></trkpt><trkpt lat="44.7265906240979" lon="9.997334170993682"><ele>503.79999999999995</ele><time>2026-04-04T12:39:07.998Z</time></trkpt><trkpt lat="44.72650909493955" lon="9.997425438506658"><ele>501.4</ele><time>2026-04-04T12:39:09Z</time></trkpt><trkpt lat="44.726434003676836" lon="9.997504744685209"><ele>499.0</ele><time>2026-04-04T12:39:10Z</time></trkpt><trkpt lat="44.726370229968886" lon="9.997592377104032"><ele>497.57142857142867</ele><time>2026-04-04T12:39:11Z</time></trkpt><trkpt lat="44.726315714428644" lon="9.997662088579817"><ele>496.14285714285717</ele><time>2026-04-04T12:39:12Z</time></trkpt><trkpt lat="44.7262539568229" lon="9.997709283562672"><ele>494.7142857142858</ele><time>2026-04-04T12:39:13Z</time></trkpt><trkpt lat="44.726193126458654" lon="9.997782294322398"><ele>493.28571428571433</ele><time>2026-04-04T12:39:14Z</time></trkpt><trkpt lat="44.72613485387578" lon="9.997863757738754"><ele>491.8571428571429</ele><time>2026-04-04T12:39:15Z</time></trkpt><trkpt lat="44.72608769013278" lon="9.997932145744333"><ele>490.42857142857144</ele><time>2026-04-04T12:39:16Z</time></trkpt><trkpt lat="44.72604241313724" lon="9.998002963050123"><ele>489.0</ele><time>2026-04-04T12:39:17Z</time></trkpt><trkpt lat="44.72599701868811" lon="9.99807616726282"><ele>489.0</ele><time>2026-04-04T12:39:18Z</time></trkpt><trkpt lat="44.72593692496558" lon="9.998179560157666"><ele>489.0</ele><time>2026-04-04T12:39:19Z</time></trkpt><trkpt lat="44.7258642310423" lon="9.998288094203582"><ele>489.0</ele><time>2026-04-04T12:39:20Z</time></trkpt><trkpt lat="44.725778428956744" lon="9.998392220476752"><ele>489.0</ele><time>2026-04-04T12:39:21Z</time></trkpt><trkpt lat="44.72568933025724" lon="9.998483209109567"><ele>489.0</ele><time>2026-04-04T12:39:22Z</time></trkpt><trkpt lat="44.725613650018396" lon="9.998565251126394"><ele>488.0</ele><time>2026-04-04T12:39:23Z</time></trkpt><trkpt lat="44.725549158817735" lon="9.998642824057033"><ele>487.0</ele><time>2026-04-04T12:39:24Z</time></trkpt><trkpt lat="44.72548876877724" lon="9.998738496164217"><ele>486.0</ele><time>2026-04-04T12:39:25Z</time></trkpt><trkpt lat="44.72542697749762" lon="9.998838468099652"><ele>485.0</ele><time>2026-04-04T12:39:26Z</time></trkpt><trkpt lat="44.72536984209227" lon="9.998918785817743"><ele>484.0</ele><time>2026-04-04T12:39:27Z</time></trkpt><trkpt lat="44.72534104134232" lon="9.999094148646458"><ele>483.33333333333337</ele><time>2026-04-04T12:39:29Z</time></trkpt><trkpt lat="44.72535178131137" lon="9.99921348947867"><ele>482.6666666666667</ele><time>2026-04-04T12:39:30Z</time></trkpt><trkpt lat="44.72535431368706" lon="9.999336977326521"><ele>482.0</ele><time>2026-04-04T12:39:31Z</time></trkpt><trkpt lat="44.72534619907805" lon="9.99944006854034"><ele>481.33333333333337</ele><time>2026-04-04T12:39:32Z</time></trkpt><trkpt lat="44.72533541163745" lon="9.999534468050118"><ele>480.6666666666667</ele><time>2026-04-04T12:39:33Z</time></trkpt><trkpt lat="44.72532518812192" lon="9.999636283856809"><ele>480.0</ele><time>2026-04-04T12:39:34Z</time></trkpt><trkpt lat="44.72530616658876" lon="9.999749778871404"><ele>480.0</ele><time>2026-04-04T12:39:35Z</time></trkpt><trkpt lat="44.72527951346962" lon="9.999852796988288"><ele>480.0</ele><time>2026-04-04T12:39:36Z</time></trkpt><trkpt lat="44.725260379837444" lon="9.999972406238463"><ele>480.0</ele><time>2026-04-04T12:39:37Z</time></trkpt><trkpt lat="44.72524624676594" lon="10.000081524565665"><ele>480.0</ele><time>2026-04-04T12:39:38Z</time></trkpt><trkpt lat="44.72523930388989" lon="10.000184856188573"><ele>480.0</ele><time>2026-04-04T12:39:39Z</time></trkpt><trkpt lat="44.725251469593836" lon="10.00028336376215"><ele>480.0</ele><time>2026-04-04T12:39:41Z</time></trkpt><trkpt lat="44.7253278944507" lon="10.000326079688787"><ele>480.0</ele><time>2026-04-04T12:39:44Z</time></trkpt><trkpt lat="44.725434683000785" lon="10.00025513052375"><ele>480.0</ele><time>2026-04-04T12:39:45.999Z</time></trkpt><trkpt lat="44.72548662628646" lon="10.0001930630857"><ele>480.0</ele><time>2026-04-04T12:39:46.999Z</time></trkpt><trkpt lat="44.72553655330799" lon="10.000124929053271"><ele>480.0</ele><time>2026-04-04T12:39:47.999Z</time></trkpt><trkpt lat="44.725583181744376" lon="10.000034983339477"><ele>480.0</ele><time>2026-04-04T12:39:48.999Z</time></trkpt><trkpt lat="44.72562659733657" lon="9.99992622951576"><ele>480.0</ele><time>2026-04-04T12:39:49.999Z</time></trkpt><trkpt lat="44.725666167888" lon="9.99981610865353"><ele>480.0</ele><time>2026-04-04T12:39:50.999Z</time></trkpt><trkpt lat="44.72569350461589" lon="9.999721740946672"><ele>480.0</ele><time>2026-04-04T12:39:51.999Z</time></trkpt><trkpt lat="44.72570171295337" lon="9.999619032939574"><ele>480.0</ele><time>2026-04-04T12:39:52.999Z</time></trkpt><trkpt lat="44.72572069190262" lon="9.999480347408921"><ele>480.0</ele><time>2026-04-04T12:39:53.999Z</time></trkpt><trkpt lat="44.72576548402193" lon="9.999339271918636"><ele>480.0</ele><time>2026-04-04T12:39:54.999Z</time></trkpt><trkpt lat="44.72581126706438" lon="9.99919805933399"><ele>480.6666666666667</ele><time>2026-04-04T12:39:55.999Z</time></trkpt><trkpt lat="44.72586072622424" lon="9.999090961825884"><ele>481.33333333333337</ele><time>2026-04-04T12:39:56.999Z</time></trkpt><trkpt lat="44.72590550901976" lon="9.999028290947882"><ele>482.0</ele><time>2026-04-04T12:39:57.999Z</time></trkpt><trkpt lat="44.72600475367314" lon="9.998927045229193"><ele>482.6666666666667</ele><time>2026-04-04T12:39:59.999Z</time></trkpt><trkpt lat="44.72606132641208" lon="9.998873459498858"><ele>483.33333333333337</ele><time>2026-04-04T12:40:00.999Z</time></trkpt><trkpt lat="44.726119782581726" lon="9.998818142408204"><ele>484.0</ele><time>2026-04-04T12:40:01.999Z</time></trkpt><trkpt lat="44.72618856267663" lon="9.99875004814389"><ele>481.4</ele><time>2026-04-04T12:40:02.999Z</time></trkpt><trkpt lat="44.72626389539726" lon="9.998671382466613"><ele>478.79999999999995</ele><time>2026-04-04T12:40:03.999Z</time></trkpt><trkpt lat="44.72631818367007" lon="9.998599745602366"><ele>476.20000000000005</ele><time>2026-04-04T12:40:04.999Z</time></trkpt><trkpt lat="44.72636985250777" lon="9.998528653895265"><ele>473.6</ele><time>2026-04-04T12:40:05.999Z</time></trkpt><trkpt lat="44.726482157362994" lon="9.998461052237648"><ele>471.0</ele><time>2026-04-04T12:40:07.999Z</time></trkpt><trkpt lat="44.726592408915074" lon="9.998446505513064"><ele>471.0</ele><time>2026-04-04T12:40:09.999Z</time></trkpt><trkpt lat="44.7267099875749" lon="9.998503757019515"><ele>471.0</ele><time>2026-04-04T12:40:11.999Z</time></trkpt><trkpt lat="44.726767371918754" lon="9.998586900852079"><ele>471.0</ele><time>2026-04-04T12:40:12.999Z</time></trkpt><trkpt lat="44.72683003346271" lon="9.998662693672085"><ele>471.0</ele><time>2026-04-04T12:40:13.999Z</time></trkpt><trkpt lat="44.72689474908168" lon="9.99874769749156"><ele>471.0</ele><time>2026-04-04T12:40:14.999Z</time></trkpt><trkpt lat="44.72695400124048" lon="9.998840674558869"><ele>470.6666666666667</ele><time>2026-04-04T12:40:15.999Z</time></trkpt><trkpt lat="44.72700540066046" lon="9.998918173775147"><ele>470.33333333333337</ele><time>2026-04-04T12:40:16.999Z</time></trkpt><trkpt lat="44.72706098452147" lon="9.998975365225194"><ele>470.0</ele><time>2026-04-04T12:40:17.999Z</time></trkpt><trkpt lat="44.727110738545974" lon="9.999057913693843"><ele>469.6666666666667</ele><time>2026-04-04T12:40:18.999Z</time></trkpt><trkpt lat="44.72716096647837" lon="9.999125735666748"><ele>469.33333333333337</ele><time>2026-04-04T12:40:19.999Z</time></trkpt><trkpt lat="44.727260353668555" lon="9.999179540677698"><ele>469.0</ele><time>2026-04-04T12:40:21.999Z</time></trkpt><trkpt lat="44.72735110112979" lon="9.999153765967236"><ele>469.0</ele><time>2026-04-04T12:40:23.999Z</time></trkpt><trkpt lat="44.72742845763631" lon="9.999150345428077"><ele>469.0</ele><time>2026-04-04T12:40:24.999Z</time></trkpt><trkpt lat="44.72749767073833" lon="9.999121128527909"><ele>469.0</ele><time>2026-04-04T12:40:25.999Z</time></trkpt><trkpt lat="44.727558057647144" lon="9.999083976694942"><ele>469.0</ele><time>2026-04-04T12:40:26.999Z</time></trkpt><trkpt lat="44.72762031561243" lon="9.999035878264788"><ele>469.0</ele><time>2026-04-04T12:40:27.999Z</time></trkpt><trkpt lat="44.72767752634706" lon="9.998984950985514"><ele>469.0</ele><time>2026-04-04T12:40:28.999Z</time></trkpt><trkpt lat="44.727734277034266" lon="9.998926238831872"><ele>469.0</ele><time>2026-04-04T12:40:29.998Z</time></trkpt><trkpt lat="44.72778948442673" lon="9.998879366055398"><ele>467.1666666666667</ele><time>2026-04-04T12:40:30.998Z</time></trkpt><trkpt lat="44.72786720377043" lon="9.998834903528918"><ele>465.33333333333337</ele><time>2026-04-04T12:40:31.998Z</time></trkpt><trkpt lat="44.727952256362876" lon="9.998842906165947"><ele>463.5</ele><time>2026-04-04T12:40:32.998Z</time></trkpt><trkpt lat="44.728030481843405" lon="9.998865452766625"><ele>461.66666666666663</ele><time>2026-04-04T12:40:33.998Z</time></trkpt><trkpt lat="44.72809924411749" lon="9.998887471253928"><ele>459.8333333333333</ele><time>2026-04-04T12:40:34.998Z</time></trkpt><trkpt lat="44.72818219517386" lon="9.998894031812757"><ele>458.0</ele><time>2026-04-04T12:40:35.998Z</time></trkpt><trkpt lat="44.72826134832562" lon="9.998916725717828"><ele>458.0</ele><time>2026-04-04T12:40:36.998Z</time></trkpt><trkpt lat="44.728328215423296" lon="9.998948853629702"><ele>458.0</ele><time>2026-04-04T12:40:37.998Z</time></trkpt><trkpt lat="44.72839824513523" lon="9.998959030348502"><ele>458.0</ele><time>2026-04-04T12:40:38.998Z</time></trkpt><trkpt lat="44.72847734228691" lon="9.99897351735748"><ele>458.0</ele><time>2026-04-04T12:40:39.998Z</time></trkpt><trkpt lat="44.72855302151569" lon="9.998995323181672"><ele>458.0</ele><time>2026-04-04T12:40:40.998Z</time></trkpt><trkpt lat="44.728619064624866" lon="9.999043235579919"><ele>458.0</ele><time>2026-04-04T12:40:41.998Z</time></trkpt><trkpt lat="44.72868383510915" lon="9.999081146944642"><ele>458.0</ele><time>2026-04-04T12:40:42.998Z</time></trkpt><trkpt lat="44.728723938102725" lon="9.999173693807982"><ele>454.99999999999994</ele><time>2026-04-04T12:40:43.998Z</time></trkpt><trkpt lat="44.72879055846081" lon="9.999236919019417"><ele>452.0</ele><time>2026-04-04T12:40:44.998Z</time></trkpt><trkpt lat="44.72885463493741" lon="9.999284605123508"><ele>449.0</ele><time>2026-04-04T12:40:45.998Z</time></trkpt><trkpt lat="44.72894045446569" lon="9.99931418983051"><ele>446.0</ele><time>2026-04-04T12:40:46.998Z</time></trkpt><trkpt lat="44.72901511173151" lon="9.999308699300547"><ele>442.99999999999994</ele><time>2026-04-04T12:40:47.998Z</time></trkpt><trkpt lat="44.72907977920689" lon="9.999339587198394"><ele>440.0</ele><time>2026-04-04T12:40:48.998Z</time></trkpt><trkpt lat="44.72915713048697" lon="9.999398931303467"><ele>439.99999999999994</ele><time>2026-04-04T12:40:49.998Z</time></trkpt><trkpt lat="44.72922121890391" lon="9.99947449742611"><ele>440.0</ele><time>2026-04-04T12:40:50.998Z</time></trkpt><trkpt lat="44.729280180110884" lon="9.99954407280004"><ele>440.0</ele><time>2026-04-04T12:40:51.998Z</time></trkpt><trkpt lat="44.72933737816314" lon="9.999608198469149"><ele>440.0</ele><time>2026-04-04T12:40:52.998Z</time></trkpt><trkpt lat="44.729387136057426" lon="9.999667048231977"><ele>439.99999999999994</ele><time>2026-04-04T12:40:53.998Z</time></trkpt><trkpt lat="44.729450755354655" lon="9.9997131006699"><ele>440.0</ele><time>2026-04-04T12:40:54.998Z</time></trkpt><trkpt lat="44.72955307382451" lon="9.99971931873393"><ele>439.8333333333333</ele><time>2026-04-04T12:40:56.998Z</time></trkpt><trkpt lat="44.72963462128559" lon="9.999678420340292"><ele>439.66666666666663</ele><time>2026-04-04T12:40:58.998Z</time></trkpt><trkpt lat="44.729732640209704" lon="9.999659590539137"><ele>439.5</ele><time>2026-04-04T12:41:00.998Z</time></trkpt><trkpt lat="44.72980074093843" lon="9.999665459738203"><ele>439.33333333333337</ele><time>2026-04-04T12:41:01.998Z</time></trkpt><trkpt lat="44.72986352714475" lon="9.999678852118178"><ele>439.1666666666667</ele><time>2026-04-04T12:41:02.998Z</time></trkpt><trkpt lat="44.729964485753804" lon="9.999574249412273"><ele>439.0</ele><time>2026-04-04T12:41:04.998Z</time></trkpt><trkpt lat="44.73002014289898" lon="9.99942414062648"><ele>439.00000000000006</ele><time>2026-04-04T12:41:06.998Z</time></trkpt><trkpt lat="44.73003150794655" lon="9.99930698481269"><ele>439.0</ele><time>2026-04-04T12:41:07.998Z</time></trkpt><trkpt lat="44.73006254621029" lon="9.999193888073835"><ele>439.0</ele><time>2026-04-04T12:41:08.998Z</time></trkpt><trkpt lat="44.73009652953514" lon="9.999100779649249"><ele>439.0</ele><time>2026-04-04T12:41:09.998Z</time></trkpt><trkpt lat="44.73014379565363" lon="9.999029659155145"><ele>439.00000000000006</ele><time>2026-04-04T12:41:10.998Z</time></trkpt><trkpt lat="44.73020217699704" lon="9.998961040825268"><ele>439.0</ele><time>2026-04-04T12:41:11.998Z</time></trkpt><trkpt lat="44.73028155417426" lon="9.998916143365443"><ele>438.0</ele><time>2026-04-04T12:41:12.998Z</time></trkpt><trkpt lat="44.73039303873885" lon="9.998865801619418"><ele>437.0</ele><time>2026-04-04T12:41:13.998Z</time></trkpt><trkpt lat="44.73050554705693" lon="9.998798425274073"><ele>436.0</ele><time>2026-04-04T12:41:15Z</time></trkpt><trkpt lat="44.730606261545944" lon="9.998749623154946"><ele>435.0</ele><time>2026-04-04T12:41:16Z</time></trkpt><trkpt lat="44.73069054544667" lon="9.998697244518786"><ele>434.0</ele><time>2026-04-04T12:41:17Z</time></trkpt><trkpt lat="44.730783217110215" lon="9.998634389345407"><ele>434.0</ele><time>2026-04-04T12:41:18Z</time></trkpt><trkpt lat="44.730870435746645" lon="9.998582756710231"><ele>434.0</ele><time>2026-04-04T12:41:19Z</time></trkpt><trkpt lat="44.73095596492436" lon="9.998511077327477"><ele>434.0</ele><time>2026-04-04T12:41:20Z</time></trkpt><trkpt lat="44.731049327185744" lon="9.9984460836717"><ele>434.0</ele><time>2026-04-04T12:41:21Z</time></trkpt><trkpt lat="44.73111617229127" lon="9.998371289419891"><ele>434.0</ele><time>2026-04-04T12:41:22Z</time></trkpt><trkpt lat="44.73120902162503" lon="9.998317406336573"><ele>432.0</ele><time>2026-04-04T12:41:23Z</time></trkpt><trkpt lat="44.7313066342556" lon="9.998247932534591"><ele>430.0</ele><time>2026-04-04T12:41:24Z</time></trkpt><trkpt lat="44.73138037187413" lon="9.998183381557178"><ele>428.0</ele><time>2026-04-04T12:41:25Z</time></trkpt><trkpt lat="44.731478041445364" lon="9.998145409688329"><ele>426.0</ele><time>2026-04-04T12:41:26Z</time></trkpt><trkpt lat="44.7315751288557" lon="9.998110917424432"><ele>424.0</ele><time>2026-04-04T12:41:27Z</time></trkpt><trkpt lat="44.73167062245559" lon="9.998099852035242"><ele>424.0</ele><time>2026-04-04T12:41:28Z</time></trkpt><trkpt lat="44.73177524948164" lon="9.998112862499028"><ele>424.0</ele><time>2026-04-04T12:41:29Z</time></trkpt><trkpt lat="44.731865843854905" lon="9.998170749700865"><ele>424.0</ele><time>2026-04-04T12:41:30Z</time></trkpt><trkpt lat="44.73196875130592" lon="9.998186082814314"><ele>424.0</ele><time>2026-04-04T12:41:31Z</time></trkpt><trkpt lat="44.73205460009353" lon="9.998236518757347"><ele>424.0</ele><time>2026-04-04T12:41:32Z</time></trkpt><trkpt lat="44.73214499713016" lon="9.998271651699648"><ele>422.4</ele><time>2026-04-04T12:41:33Z</time></trkpt><trkpt lat="44.73224719394298" lon="9.998273501663832"><ele>420.79999999999995</ele><time>2026-04-04T12:41:34Z</time></trkpt><trkpt lat="44.732345679057815" lon="9.998260784196505"><ele>419.20000000000005</ele><time>2026-04-04T12:41:35Z</time></trkpt><trkpt lat="44.73243870938294" lon="9.998247594583413"><ele>417.6</ele><time>2026-04-04T12:41:36Z</time></trkpt><trkpt lat="44.73253153081157" lon="9.998276400064904"><ele>416.0</ele><time>2026-04-04T12:41:37Z</time></trkpt><trkpt lat="44.732616947688584" lon="9.998263054174643"><ele>415.99999999999994</ele><time>2026-04-04T12:41:38Z</time></trkpt><trkpt lat="44.732703900672654" lon="9.99825304943549"><ele>416.0</ele><time>2026-04-04T12:41:39Z</time></trkpt><trkpt lat="44.73277445026591" lon="9.998202265980623"><ele>416.0</ele><time>2026-04-04T12:41:40Z</time></trkpt><trkpt lat="44.732830928321356" lon="9.998152881464149"><ele>416.0</ele><time>2026-04-04T12:41:41Z</time></trkpt><trkpt lat="44.73289864806808" lon="9.998082569119216"><ele>415.99999999999994</ele><time>2026-04-04T12:41:43Z</time></trkpt><trkpt lat="44.73295599109842" lon="9.998021853370819"><ele>416.0</ele><time>2026-04-04T12:41:44Z</time></trkpt><trkpt lat="44.73310978117512" lon="9.998040160764939"><ele>413.0</ele><time>2026-04-04T12:41:46Z</time></trkpt><trkpt lat="44.73317117198075" lon="9.998069774029041"><ele>410.0</ele><time>2026-04-04T12:41:47Z</time></trkpt><trkpt lat="44.73322594723718" lon="9.998125348733183"><ele>407.0</ele><time>2026-04-04T12:41:48Z</time></trkpt><trkpt lat="44.73316936398623" lon="9.998433348071167"><ele>404.0</ele><time>2026-04-04T12:41:50Z</time></trkpt><trkpt lat="44.73325101409091" lon="9.998552152517394"><ele>401.5</ele><time>2026-04-04T12:41:50.999Z</time></trkpt><trkpt lat="44.73332867714694" lon="9.99859747292336"><ele>399.0</ele><time>2026-04-04T12:41:51.999Z</time></trkpt><trkpt lat="44.73344046580763" lon="9.998600626179842"><ele>396.5</ele><time>2026-04-04T12:41:52.999Z</time></trkpt><trkpt lat="44.73351700490178" lon="9.998581153396318"><ele>394.0</ele><time>2026-04-04T12:41:53.999Z</time></trkpt><trkpt lat="44.73359063099947" lon="9.998039353403835"><ele>392.25</ele><time>2026-04-04T12:41:54.999Z</time></trkpt><trkpt lat="44.733724897983834" lon="9.998311730554246"><ele>390.5</ele><time>2026-04-04T12:41:55.999Z</time></trkpt><trkpt lat="44.73377856470402" lon="9.998391836681277"><ele>388.75</ele><time>2026-04-04T12:41:56.999Z</time></trkpt><trkpt lat="44.733834209872555" lon="9.998455722678901"><ele>387.0</ele><time>2026-04-04T12:41:57.999Z</time></trkpt><trkpt lat="44.733891937311775" lon="9.998545284485598"><ele>387.0</ele><time>2026-04-04T12:41:58.999Z</time></trkpt><trkpt lat="44.73397564605194" lon="9.998621729848415"><ele>387.0</ele><time>2026-04-04T12:41:59.999Z</time></trkpt><trkpt lat="44.73408174304652" lon="9.998695855668295"><ele>387.0</ele><time>2026-04-04T12:42:00.999Z</time></trkpt><trkpt lat="44.73417987994101" lon="9.998777536997382"><ele>387.0</ele><time>2026-04-04T12:42:01.999Z</time></trkpt><trkpt lat="44.734284367291096" lon="9.998836790609568"><ele>387.0</ele><time>2026-04-04T12:42:02.999Z</time></trkpt><trkpt lat="44.734381630474644" lon="9.99889576586863"><ele>386.6</ele><time>2026-04-04T12:42:03.999Z</time></trkpt><trkpt lat="44.734477317035406" lon="9.998955087644422"><ele>386.20000000000005</ele><time>2026-04-04T12:42:04.999Z</time></trkpt><trkpt lat="44.73456634529434" lon="9.999005533871998"><ele>385.8</ele><time>2026-04-04T12:42:05.999Z</time></trkpt><trkpt lat="44.73464885753841" lon="9.999082086378058"><ele>385.4</ele><time>2026-04-04T12:42:06.999Z</time></trkpt><trkpt lat="44.73474651975924" lon="9.999141947103706"><ele>385.0</ele><time>2026-04-04T12:42:07.999Z</time></trkpt><trkpt lat="44.73484912320239" lon="9.999180570174635"><ele>384.4</ele><time>2026-04-04T12:42:08.999Z</time></trkpt><trkpt lat="44.734952834432306" lon="9.99924277163514"><ele>383.8</ele><time>2026-04-04T12:42:09.999Z</time></trkpt><trkpt lat="44.735052991204235" lon="9.99930297627504"><ele>383.20000000000005</ele><time>2026-04-04T12:42:10.999Z</time></trkpt><trkpt lat="44.73513978107257" lon="9.999350647251124"><ele>382.6</ele><time>2026-04-04T12:42:11.999Z</time></trkpt><trkpt lat="44.73522563722215" lon="9.999416015276587"><ele>382.0</ele><time>2026-04-04T12:42:12.999Z</time></trkpt><trkpt lat="44.73531213564703" lon="9.999485975201855"><ele>382.0</ele><time>2026-04-04T12:42:13.999Z</time></trkpt><trkpt lat="44.73538131550787" lon="9.99956343968093"><ele>382.0</ele><time>2026-04-04T12:42:14.999Z</time></trkpt><trkpt lat="44.73544552432587" lon="9.999655617203267"><ele>382.0</ele><time>2026-04-04T12:42:15.999Z</time></trkpt><trkpt lat="44.73549452271859" lon="9.999747102348216"><ele>382.0</ele><time>2026-04-04T12:42:16.999Z</time></trkpt><trkpt lat="44.73554128581655" lon="9.999868406827602"><ele>382.0</ele><time>2026-04-04T12:42:17.999Z</time></trkpt><trkpt lat="44.73555930960446" lon="10.000012705692482"><ele>382.0</ele><time>2026-04-04T12:42:18.999Z</time></trkpt><trkpt lat="44.73557548662008" lon="10.00018230242162"><ele>382.0</ele><time>2026-04-04T12:42:19.999Z</time></trkpt><trkpt lat="44.73558529466347" lon="10.000326333554316"><ele>382.0</ele><time>2026-04-04T12:42:20.999Z</time></trkpt><trkpt lat="44.73561030257518" lon="10.000451025285125"><ele>382.0</ele><time>2026-04-04T12:42:21.999Z</time></trkpt><trkpt lat="44.735616486437415" lon="10.000584229725533"><ele>382.0</ele><time>2026-04-04T12:42:22.999Z</time></trkpt><trkpt lat="44.73562401142198" lon="10.000700408566889"><ele>382.0</ele><time>2026-04-04T12:42:23.999Z</time></trkpt><trkpt lat="44.73563481988909" lon="10.00080845719803"><ele>382.0</ele><time>2026-04-04T12:42:24.999Z</time></trkpt><trkpt lat="44.73564774296456" lon="10.00091933478996"><ele>382.0</ele><time>2026-04-04T12:42:25.999Z</time></trkpt><trkpt lat="44.73567282509671" lon="10.001047650447775"><ele>382.0</ele><time>2026-04-04T12:42:26.999Z</time></trkpt><trkpt lat="44.735704398921165" lon="10.001192852290634"><ele>382.0</ele><time>2026-04-04T12:42:27.999Z</time></trkpt><trkpt lat="44.73574797945261" lon="10.001335896836"><ele>381.6</ele><time>2026-04-04T12:42:28.999Z</time></trkpt><trkpt lat="44.73578467450585" lon="10.001465006298295"><ele>381.20000000000005</ele><time>2026-04-04T12:42:29.999Z</time></trkpt><trkpt lat="44.73581916161558" lon="10.001583415537048"><ele>380.8</ele><time>2026-04-04T12:42:30.999Z</time></trkpt><trkpt lat="44.73585986169285" lon="10.001696410718827"><ele>380.4</ele><time>2026-04-04T12:42:31.999Z</time></trkpt><trkpt lat="44.73591720826558" lon="10.001807874797665"><ele>380.0</ele><time>2026-04-04T12:42:32.999Z</time></trkpt><trkpt lat="44.73599404431202" lon="10.00189875049451"><ele>377.2</ele><time>2026-04-04T12:42:33.999Z</time></trkpt><trkpt lat="44.73608006485509" lon="10.001954246128207"><ele>374.4</ele><time>2026-04-04T12:42:34.998Z</time></trkpt><trkpt lat="44.73617020196846" lon="10.001979039078483"><ele>371.6</ele><time>2026-04-04T12:42:35.998Z</time></trkpt><trkpt lat="44.73626990095842" lon="10.001988756015585"><ele>368.8</ele><time>2026-04-04T12:42:36.998Z</time></trkpt><trkpt lat="44.7363623790823" lon="10.002049015156182"><ele>366.0</ele><time>2026-04-04T12:42:37.998Z</time></trkpt><trkpt lat="44.7364373971782" lon="10.00211230901018"><ele>366.0</ele><time>2026-04-04T12:42:38.998Z</time></trkpt><trkpt lat="44.73650194370595" lon="10.002193739829895"><ele>366.0</ele><time>2026-04-04T12:42:39.998Z</time></trkpt><trkpt lat="44.736553865657626" lon="10.002284133239526"><ele>366.0</ele><time>2026-04-04T12:42:40.998Z</time></trkpt><trkpt lat="44.73658841883984" lon="10.00238562776848"><ele>366.0</ele><time>2026-04-04T12:42:41.998Z</time></trkpt><trkpt lat="44.736612285951" lon="10.002509968336097"><ele>366.0</ele><time>2026-04-04T12:42:42.998Z</time></trkpt><trkpt lat="44.73662744037805" lon="10.002630341018683"><ele>366.0</ele><time>2026-04-04T12:42:43.998Z</time></trkpt><trkpt lat="44.736636770826" lon="10.00275175802454"><ele>366.4</ele><time>2026-04-04T12:42:44.998Z</time></trkpt><trkpt lat="44.7366528348648" lon="10.002868676579146"><ele>366.8</ele><time>2026-04-04T12:42:45.998Z</time></trkpt><trkpt lat="44.7366859654967" lon="10.002994466911657"><ele>367.2</ele><time>2026-04-04T12:42:46.998Z</time></trkpt><trkpt lat="44.73669498979986" lon="10.003130581942866"><ele>367.59999999999997</ele><time>2026-04-04T12:42:47.998Z</time></trkpt><trkpt lat="44.736735064403476" lon="10.00323142152484"><ele>368.0</ele><time>2026-04-04T12:42:48.998Z</time></trkpt><trkpt lat="44.73675786570207" lon="10.003366944243382"><ele>366.79999999999995</ele><time>2026-04-04T12:42:49.998Z</time></trkpt><trkpt lat="44.736799911480716" lon="10.003493238394041"><ele>365.6</ele><time>2026-04-04T12:42:50.998Z</time></trkpt><trkpt lat="44.73681297461004" lon="10.00362533238721"><ele>364.4</ele><time>2026-04-04T12:42:51.998Z</time></trkpt><trkpt lat="44.736845028578564" lon="10.003734523177748"><ele>363.20000000000005</ele><time>2026-04-04T12:42:52.998Z</time></trkpt><trkpt lat="44.736862169972184" lon="10.003842339993735"><ele>362.0</ele><time>2026-04-04T12:42:53.998Z</time></trkpt><trkpt lat="44.736880651661" lon="10.00397320235143"><ele>360.40000000000003</ele><time>2026-04-04T12:42:54.998Z</time></trkpt><trkpt lat="44.73692099397392" lon="10.004109924111853"><ele>358.8</ele><time>2026-04-04T12:42:55.998Z</time></trkpt><trkpt lat="44.736974757430914" lon="10.004244510322607"><ele>357.2</ele><time>2026-04-04T12:42:56.998Z</time></trkpt><trkpt lat="44.73702981624871" lon="10.004367665454792"><ele>355.6</ele><time>2026-04-04T12:42:57.998Z</time></trkpt><trkpt lat="44.737077037821074" lon="10.004474337788718"><ele>354.0</ele><time>2026-04-04T12:42:58.998Z</time></trkpt><trkpt lat="44.73711775636612" lon="10.004583643382727"><ele>354.0</ele><time>2026-04-04T12:42:59.998Z</time></trkpt><trkpt lat="44.73715763569849" lon="10.004699721228514"><ele>354.0</ele><time>2026-04-04T12:43:00.998Z</time></trkpt><trkpt lat="44.73719497672756" lon="10.004800808517839"><ele>354.0</ele><time>2026-04-04T12:43:01.998Z</time></trkpt><trkpt lat="44.737225379213996" lon="10.00488709625186"><ele>354.0</ele><time>2026-04-04T12:43:02.998Z</time></trkpt><trkpt lat="44.73723607531722" lon="10.004983841509187"><ele>354.0</ele><time>2026-04-04T12:43:03.998Z</time></trkpt><trkpt lat="44.73722974917805" lon="10.005072632392476"><ele>354.0</ele><time>2026-04-04T12:43:04.998Z</time></trkpt><trkpt lat="44.737195963788565" lon="10.005165269995963"><ele>354.0</ele><time>2026-04-04T12:43:05.998Z</time></trkpt><trkpt lat="44.737108387695486" lon="10.005194838661772"><ele>353.2</ele><time>2026-04-04T12:43:06.998Z</time></trkpt><trkpt lat="44.737038441342335" lon="10.005280297742264"><ele>352.4</ele><time>2026-04-04T12:43:07.998Z</time></trkpt><trkpt lat="44.73696146435275" lon="10.005374346657124"><ele>351.6</ele><time>2026-04-04T12:43:08.998Z</time></trkpt><trkpt lat="44.73688042329018" lon="10.005467655881368"><ele>350.8</ele><time>2026-04-04T12:43:09.998Z</time></trkpt><trkpt lat="44.7368011121427" lon="10.005551586018383"><ele>350.0</ele><time>2026-04-04T12:43:10.998Z</time></trkpt><trkpt lat="44.73671674761797" lon="10.005633502691804"><ele>350.0</ele><time>2026-04-04T12:43:11.998Z</time></trkpt><trkpt lat="44.73663450029809" lon="10.00570960210365"><ele>350.0</ele><time>2026-04-04T12:43:12.998Z</time></trkpt><trkpt lat="44.73654819552211" lon="10.005781603606335"><ele>350.0</ele><time>2026-04-04T12:43:13.998Z</time></trkpt><trkpt lat="44.73646220025108" lon="10.005845082473392"><ele>350.0</ele><time>2026-04-04T12:43:14.998Z</time></trkpt><trkpt lat="44.73638349820705" lon="10.005898697319688"><ele>350.0</ele><time>2026-04-04T12:43:15.998Z</time></trkpt><trkpt lat="44.73628938428968" lon="10.00596019464578"><ele>349.2</ele><time>2026-04-04T12:43:16.998Z</time></trkpt><trkpt lat="44.73621473180393" lon="10.006016741797819"><ele>348.4</ele><time>2026-04-04T12:43:17.998Z</time></trkpt><trkpt lat="44.73613722311634" lon="10.00610408078142"><ele>347.6</ele><time>2026-04-04T12:43:18.998Z</time></trkpt><trkpt lat="44.73607239535863" lon="10.006203017348998"><ele>346.8</ele><time>2026-04-04T12:43:19.998Z</time></trkpt><trkpt lat="44.736014438389304" lon="10.00630986655634"><ele>346.0</ele><time>2026-04-04T12:43:21Z</time></trkpt><trkpt lat="44.735967984925594" lon="10.006405496580548"><ele>343.3333333333333</ele><time>2026-04-04T12:43:22Z</time></trkpt><trkpt lat="44.73592655484663" lon="10.006497737274362"><ele>340.66666666666663</ele><time>2026-04-04T12:43:23Z</time></trkpt><trkpt lat="44.73588385088535" lon="10.006601267617446"><ele>338.0</ele><time>2026-04-04T12:43:24Z</time></trkpt><trkpt lat="44.735846436141564" lon="10.006717763685215"><ele>335.3333333333333</ele><time>2026-04-04T12:43:25Z</time></trkpt><trkpt lat="44.735821930922874" lon="10.006838125848844"><ele>332.6666666666667</ele><time>2026-04-04T12:43:26Z</time></trkpt><trkpt lat="44.73581898977884" lon="10.006963003808126"><ele>330.0</ele><time>2026-04-04T12:43:27Z</time></trkpt><trkpt lat="44.735787276488054" lon="10.007077948784362"><ele>330.0</ele><time>2026-04-04T12:43:28Z</time></trkpt><trkpt lat="44.73577980819992" lon="10.007196733961388"><ele>330.0</ele><time>2026-04-04T12:43:29Z</time></trkpt><trkpt lat="44.73575981565459" lon="10.007307264872237"><ele>330.0</ele><time>2026-04-04T12:43:30Z</time></trkpt><trkpt lat="44.735713067225504" lon="10.007404876447893"><ele>330.0</ele><time>2026-04-04T12:43:31Z</time></trkpt><trkpt lat="44.73567931007063" lon="10.007534707688146"><ele>330.0</ele><time>2026-04-04T12:43:32Z</time></trkpt><trkpt lat="44.735647082125894" lon="10.007678517766308"><ele>329.4</ele><time>2026-04-04T12:43:33Z</time></trkpt><trkpt lat="44.735640088902954" lon="10.007832083844301"><ele>328.8</ele><time>2026-04-04T12:43:34Z</time></trkpt><trkpt lat="44.73560055198037" lon="10.007979035990422"><ele>328.20000000000005</ele><time>2026-04-04T12:43:35Z</time></trkpt><trkpt lat="44.73557727010461" lon="10.008126448655924"><ele>327.6</ele><time>2026-04-04T12:43:36Z</time></trkpt><trkpt lat="44.735555219684436" lon="10.008273403955677"><ele>327.0</ele><time>2026-04-04T12:43:37Z</time></trkpt><trkpt lat="44.73553607339107" lon="10.008418728422804"><ele>325.6</ele><time>2026-04-04T12:43:38Z</time></trkpt><trkpt lat="44.73552193280566" lon="10.00856044848568"><ele>324.20000000000005</ele><time>2026-04-04T12:43:39Z</time></trkpt><trkpt lat="44.73550989678286" lon="10.008703819749186"><ele>322.8</ele><time>2026-04-04T12:43:40Z</time></trkpt><trkpt lat="44.735512518440714" lon="10.008820775350095"><ele>321.4</ele><time>2026-04-04T12:43:41Z</time></trkpt><trkpt lat="44.73549688608826" lon="10.008980474447123"><ele>320.0</ele><time>2026-04-04T12:43:42Z</time></trkpt><trkpt lat="44.73549021295472" lon="10.009109978350683"><ele>319.83333333333337</ele><time>2026-04-04T12:43:43Z</time></trkpt><trkpt lat="44.735471426581114" lon="10.009229543545132"><ele>319.6666666666667</ele><time>2026-04-04T12:43:44Z</time></trkpt><trkpt lat="44.73547387228872" lon="10.009337012751587"><ele>319.5</ele><time>2026-04-04T12:43:45Z</time></trkpt><trkpt lat="44.73548908665055" lon="10.009446660705246"><ele>319.3333333333333</ele><time>2026-04-04T12:43:46Z</time></trkpt><trkpt lat="44.73551666067392" lon="10.009561969405837"><ele>319.16666666666663</ele><time>2026-04-04T12:43:47Z</time></trkpt><trkpt lat="44.73555706651609" lon="10.009678452559385"><ele>319.0</ele><time>2026-04-04T12:43:48Z</time></trkpt><trkpt lat="44.735615776757996" lon="10.009772042022412"><ele>319.0</ele><time>2026-04-04T12:43:49Z</time></trkpt><trkpt lat="44.73567789317334" lon="10.009846203415156"><ele>319.0</ele><time>2026-04-04T12:43:50Z</time></trkpt><trkpt lat="44.7357320741561" lon="10.00994057244166"><ele>319.0</ele><time>2026-04-04T12:43:51Z</time></trkpt><trkpt lat="44.73579092103247" lon="10.010046967381134"><ele>319.0</ele><time>2026-04-04T12:43:52Z</time></trkpt><trkpt lat="44.73586583153405" lon="10.010161930506717"><ele>319.0</ele><time>2026-04-04T12:43:53Z</time></trkpt><trkpt lat="44.735941028897585" lon="10.0102497055164"><ele>317.0</ele><time>2026-04-04T12:43:54Z</time></trkpt><trkpt lat="44.73601566542908" lon="10.010332296475893"><ele>315.0</ele><time>2026-04-04T12:43:55Z</time></trkpt><trkpt lat="44.73608356035755" lon="10.010427228925218"><ele>313.0</ele><time>2026-04-04T12:43:56Z</time></trkpt><trkpt lat="44.73613753882331" lon="10.010528694978696"><ele>311.0</ele><time>2026-04-04T12:43:56.999Z</time></trkpt><trkpt lat="44.7361809967451" lon="10.010642573269907"><ele>309.0</ele><time>2026-04-04T12:43:57.999Z</time></trkpt><trkpt lat="44.736213543837366" lon="10.010763130028174"><ele>311.0</ele><time>2026-04-04T12:43:58.999Z</time></trkpt><trkpt lat="44.73624237968891" lon="10.010915283600774"><ele>313.0</ele><time>2026-04-04T12:43:59.999Z</time></trkpt><trkpt lat="44.73626262667519" lon="10.011057202420082"><ele>315.0</ele><time>2026-04-04T12:44:00.999Z</time></trkpt><trkpt lat="44.73629524719935" lon="10.011184980939888"><ele>317.0</ele><time>2026-04-04T12:44:01.999Z</time></trkpt><trkpt lat="44.7363326856366" lon="10.011297280124731"><ele>319.0</ele><time>2026-04-04T12:44:02.999Z</time></trkpt><trkpt lat="44.73637655724859" lon="10.011414387865566"><ele>319.0</ele><time>2026-04-04T12:44:03.999Z</time></trkpt><trkpt lat="44.73642119247572" lon="10.011522503538684"><ele>319.0</ele><time>2026-04-04T12:44:04.999Z</time></trkpt><trkpt lat="44.736466419175784" lon="10.011628290425593"><ele>319.0</ele><time>2026-04-04T12:44:05.999Z</time></trkpt><trkpt lat="44.73651059100833" lon="10.011756689743654"><ele>319.0</ele><time>2026-04-04T12:44:06.999Z</time></trkpt><trkpt lat="44.736525870816926" lon="10.011889455763313"><ele>319.0</ele><time>2026-04-04T12:44:07.999Z</time></trkpt><trkpt lat="44.73654622426245" lon="10.0120163442657"><ele>315.8333333333333</ele><time>2026-04-04T12:44:08.999Z</time></trkpt><trkpt lat="44.73655145305744" lon="10.012140835983809"><ele>312.66666666666663</ele><time>2026-04-04T12:44:09.999Z</time></trkpt><trkpt lat="44.73654555996315" lon="10.012271775990234"><ele>309.5</ele><time>2026-04-04T12:44:10.999Z</time></trkpt><trkpt lat="44.7365275752329" lon="10.012398105459976"><ele>306.3333333333333</ele><time>2026-04-04T12:44:11.999Z</time></trkpt><trkpt lat="44.73651835682414" lon="10.012522948194917"><ele>303.1666666666667</ele><time>2026-04-04T12:44:12.999Z</time></trkpt><trkpt lat="44.73651096972384" lon="10.012644461214771"><ele>300.0</ele><time>2026-04-04T12:44:13.999Z</time></trkpt><trkpt lat="44.736519715651575" lon="10.012780762248745"><ele>297.4</ele><time>2026-04-04T12:44:14.999Z</time></trkpt><trkpt lat="44.73654220956697" lon="10.012914476278185"><ele>294.8</ele><time>2026-04-04T12:44:15.999Z</time></trkpt><trkpt lat="44.736585489829764" lon="10.013041091683778"><ele>292.2</ele><time>2026-04-04T12:44:16.999Z</time></trkpt><trkpt lat="44.73662123402074" lon="10.01315004871238"><ele>289.6</ele><time>2026-04-04T12:44:17.999Z</time></trkpt><trkpt lat="44.73665529767935" lon="10.013258289487931"><ele>287.0</ele><time>2026-04-04T12:44:18.999Z</time></trkpt><trkpt lat="44.73670071338109" lon="10.01336645268916"><ele>286.0</ele><time>2026-04-04T12:44:19.999Z</time></trkpt><trkpt lat="44.73674558006709" lon="10.01346456126624"><ele>285.0</ele><time>2026-04-04T12:44:20.999Z</time></trkpt><trkpt lat="44.73681569106263" lon="10.013625092432475"><ele>284.0</ele><time>2026-04-04T12:44:22.999Z</time></trkpt><trkpt lat="44.7368736886073" lon="10.013762369697176"><ele>283.0</ele><time>2026-04-04T12:44:24.999Z</time></trkpt><trkpt lat="44.7368898028527" lon="10.013881771383826"><ele>282.0</ele><time>2026-04-04T12:44:25.999Z</time></trkpt><trkpt lat="44.73692393490023" lon="10.014032650327282"><ele>281.1666666666667</ele><time>2026-04-04T12:44:26.999Z</time></trkpt><trkpt lat="44.736953916032235" lon="10.014195271748324"><ele>280.3333333333333</ele><time>2026-04-04T12:44:27.999Z</time></trkpt><trkpt lat="44.736975692051786" lon="10.014329894630178"><ele>279.5</ele><time>2026-04-04T12:44:28.999Z</time></trkpt><trkpt lat="44.73699666940833" lon="10.014436653877647"><ele>278.66666666666663</ele><time>2026-04-04T12:44:29.999Z</time></trkpt><trkpt lat="44.737014288340525" lon="10.014537363878091"><ele>277.8333333333333</ele><time>2026-04-04T12:44:30.999Z</time></trkpt><trkpt lat="44.7370270341724" lon="10.01463094721562"><ele>277.0</ele><time>2026-04-04T12:44:31.999Z</time></trkpt><trkpt lat="44.73705001497427" lon="10.014760347109862"><ele>277.0</ele><time>2026-04-04T12:44:33.999Z</time></trkpt><trkpt lat="44.737081510172096" lon="10.014897348597682"><ele>277.0</ele><time>2026-04-04T12:44:35.999Z</time></trkpt><trkpt lat="44.73711726583079" lon="10.015014472736286"><ele>277.0</ele><time>2026-04-04T12:44:37.999Z</time></trkpt><trkpt lat="44.7371308811722" lon="10.015116575045095"><ele>277.0</ele><time>2026-04-04T12:44:41.998Z</time></trkpt><trkpt lat="44.73719639092222" lon="10.01521878268809"><ele>277.0</ele><time>2026-04-04T12:45:55Z</time></trkpt><trkpt lat="44.7372256456907" lon="10.015305483435624"><ele>277.0</ele><time>2026-04-04T12:45:56Z</time></trkpt><trkpt lat="44.73726713011907" lon="10.015396523329215"><ele>277.2</ele><time>2026-04-04T12:45:57Z</time></trkpt><trkpt lat="44.737316480051426" lon="10.015512901225414"><ele>277.4</ele><time>2026-04-04T12:45:58Z</time></trkpt><trkpt lat="44.73736329669776" lon="10.01561629708908"><ele>277.6</ele><time>2026-04-04T12:45:59Z</time></trkpt><trkpt lat="44.7374129925952" lon="10.01573517692006"><ele>277.8</ele><time>2026-04-04T12:46:00Z</time></trkpt><trkpt lat="44.737459228597864" lon="10.015854519297733"><ele>278.0</ele><time>2026-04-04T12:46:01Z</time></trkpt><trkpt lat="44.73750753542561" lon="10.01598204467817"><ele>277.5</ele><time>2026-04-04T12:46:02Z</time></trkpt><trkpt lat="44.73755604936624" lon="10.01611098387008"><ele>277.0</ele><time>2026-04-04T12:46:02.999Z</time></trkpt><trkpt lat="44.73760244287167" lon="10.016245394187798"><ele>276.5</ele><time>2026-04-04T12:46:03.999Z</time></trkpt><trkpt lat="44.73764680530675" lon="10.01640372800415"><ele>276.0</ele><time>2026-04-04T12:46:04.999Z</time></trkpt><trkpt lat="44.737710417102285" lon="10.016545763149251"><ele>277.40000000000003</ele><time>2026-04-04T12:46:05.999Z</time></trkpt><trkpt lat="44.73775755008606" lon="10.01667796001281"><ele>278.8</ele><time>2026-04-04T12:46:06.999Z</time></trkpt><trkpt lat="44.73780602643645" lon="10.016809055281252"><ele>280.20000000000005</ele><time>2026-04-04T12:46:07.999Z</time></trkpt><trkpt lat="44.737864819226026" lon="10.016934142543233"><ele>281.6</ele><time>2026-04-04T12:46:08.999Z</time></trkpt><trkpt lat="44.737937719366016" lon="10.017040985637133"><ele>283.0</ele><time>2026-04-04T12:46:09.999Z</time></trkpt><trkpt lat="44.73801483891691" lon="10.017136798775407"><ele>283.0</ele><time>2026-04-04T12:46:10.999Z</time></trkpt><trkpt lat="44.738099242271794" lon="10.017242772165979"><ele>283.0</ele><time>2026-04-04T12:46:11.999Z</time></trkpt><trkpt lat="44.73813769058414" lon="10.017381160155734"><ele>283.0</ele><time>2026-04-04T12:46:12.999Z</time></trkpt><trkpt lat="44.738146107194254" lon="10.01751937207319"><ele>283.0</ele><time>2026-04-04T12:46:13.999Z</time></trkpt><trkpt lat="44.73812739071229" lon="10.017662340350357"><ele>283.0</ele><time>2026-04-04T12:46:14.999Z</time></trkpt><trkpt lat="44.73814002651324" lon="10.017821180656066"><ele>282.6</ele><time>2026-04-04T12:46:15.999Z</time></trkpt><trkpt lat="44.73814237642104" lon="10.017963375023514"><ele>282.20000000000005</ele><time>2026-04-04T12:46:16.999Z</time></trkpt><trkpt lat="44.738168840998235" lon="10.018093113739365"><ele>281.8</ele><time>2026-04-04T12:46:17.999Z</time></trkpt><trkpt lat="44.73819458335324" lon="10.018223693948395"><ele>281.40000000000003</ele><time>2026-04-04T12:46:18.999Z</time></trkpt><trkpt lat="44.73823813477352" lon="10.018334196761593"><ele>281.0</ele><time>2026-04-04T12:46:19.999Z</time></trkpt><trkpt lat="44.73830027814209" lon="10.01843545799038"><ele>281.0</ele><time>2026-04-04T12:46:20.999Z</time></trkpt><trkpt lat="44.73838997807378" lon="10.018507779415721"><ele>281.0</ele><time>2026-04-04T12:46:21.999Z</time></trkpt><trkpt lat="44.73846011529649" lon="10.018611921448738"><ele>281.0</ele><time>2026-04-04T12:46:22.999Z</time></trkpt><trkpt lat="44.73848623043022" lon="10.018745719074367"><ele>281.0</ele><time>2026-04-04T12:46:23.999Z</time></trkpt><trkpt lat="44.73854045602935" lon="10.01885753357889"><ele>281.0</ele><time>2026-04-04T12:46:24.999Z</time></trkpt><trkpt lat="44.73861400985679" lon="10.018946779342787"><ele>282.2</ele><time>2026-04-04T12:46:25.999Z</time></trkpt><trkpt lat="44.73869089146367" lon="10.019032989609368"><ele>283.40000000000003</ele><time>2026-04-04T12:46:26.999Z</time></trkpt><trkpt lat="44.73875562460732" lon="10.019127689187165"><ele>284.6</ele><time>2026-04-04T12:46:27.999Z</time></trkpt><trkpt lat="44.73883753207347" lon="10.019219829126893"><ele>285.8</ele><time>2026-04-04T12:46:28.999Z</time></trkpt><trkpt lat="44.73892000265889" lon="10.019312602491894"><ele>287.0</ele><time>2026-04-04T12:46:29.999Z</time></trkpt><trkpt lat="44.73901347052454" lon="10.019384689421447"><ele>287.0</ele><time>2026-04-04T12:46:30.999Z</time></trkpt><trkpt lat="44.7390844491476" lon="10.01944697189809"><ele>287.0</ele><time>2026-04-04T12:46:31.999Z</time></trkpt><trkpt lat="44.73914976541725" lon="10.01949649584394"><ele>287.0</ele><time>2026-04-04T12:46:32.999Z</time></trkpt><trkpt lat="44.73922504030698" lon="10.019546011609402"><ele>287.0</ele><time>2026-04-04T12:46:33.999Z</time></trkpt><trkpt lat="44.73930410032801" lon="10.019610405601412"><ele>287.0</ele><time>2026-04-04T12:46:34.999Z</time></trkpt><trkpt lat="44.73936335197773" lon="10.01969175041574"><ele>287.0</ele><time>2026-04-04T12:46:35.999Z</time></trkpt><trkpt lat="44.73940073964589" lon="10.019790606920923"><ele>288.1666666666667</ele><time>2026-04-04T12:46:36.999Z</time></trkpt><trkpt lat="44.73943731175146" lon="10.019888858531365"><ele>289.33333333333337</ele><time>2026-04-04T12:46:37.999Z</time></trkpt><trkpt lat="44.73948120871705" lon="10.019979989171265"><ele>290.5</ele><time>2026-04-04T12:46:38.999Z</time></trkpt><trkpt lat="44.7395453028904" lon="10.020068944824216"><ele>291.6666666666667</ele><time>2026-04-04T12:46:39.999Z</time></trkpt><trkpt lat="44.73960450425633" lon="10.020145246993941"><ele>292.8333333333333</ele><time>2026-04-04T12:46:40.999Z</time></trkpt><trkpt lat="44.73966175993984" lon="10.020237116057784"><ele>294.0</ele><time>2026-04-04T12:46:41.999Z</time></trkpt><trkpt lat="44.73971426611298" lon="10.020323325372363"><ele>294.0</ele><time>2026-04-04T12:46:42.999Z</time></trkpt><trkpt lat="44.73976588843012" lon="10.020397456713148"><ele>294.0</ele><time>2026-04-04T12:46:43.999Z</time></trkpt><trkpt lat="44.73982439416578" lon="10.020475006423942"><ele>294.0</ele><time>2026-04-04T12:46:45.999Z</time></trkpt><trkpt lat="44.73989034488504" lon="10.020540187356136"><ele>294.0</ele><time>2026-04-04T12:47:12.998Z</time></trkpt><trkpt lat="44.739996105322405" lon="10.02043902032344"><ele>294.0</ele><time>2026-04-04T12:47:15.998Z</time></trkpt><trkpt lat="44.740031481573546" lon="10.020357178738893"><ele>294.0</ele><time>2026-04-04T12:47:16.998Z</time></trkpt><trkpt lat="44.74007538263313" lon="10.020253134494236"><ele>294.0</ele><time>2026-04-04T12:47:17.998Z</time></trkpt><trkpt lat="44.74010285367561" lon="10.020146997337909"><ele>294.0</ele><time>2026-04-04T12:47:18.998Z</time></trkpt><trkpt lat="44.74015019228628" lon="10.020025049478836"><ele>294.0</ele><time>2026-04-04T12:47:19.998Z</time></trkpt><trkpt lat="44.740195746946696" lon="10.019904354264723"><ele>294.0</ele><time>2026-04-04T12:47:20.998Z</time></trkpt><trkpt lat="44.74023818480825" lon="10.019791032873375"><ele>294.0</ele><time>2026-04-04T12:47:21.998Z</time></trkpt><trkpt lat="44.74027480486358" lon="10.019693246192546"><ele>294.0</ele><time>2026-04-04T12:47:22.998Z</time></trkpt><trkpt lat="44.74030697014551" lon="10.019605844881948"><ele>296.59999999999997</ele><time>2026-04-04T12:47:23.998Z</time></trkpt><trkpt lat="44.740342299797334" lon="10.019507722507441"><ele>299.2</ele><time>2026-04-04T12:47:24.998Z</time></trkpt><trkpt lat="44.74041101142746" lon="10.019333708222387"><ele>301.79999999999995</ele><time>2026-04-04T12:47:26.998Z</time></trkpt><trkpt lat="44.740437953617935" lon="10.01920352927172"><ele>304.4</ele><time>2026-04-04T12:47:27.998Z</time></trkpt><trkpt lat="44.74048769201469" lon="10.019092107634929"><ele>307.0</ele><time>2026-04-04T12:47:28.998Z</time></trkpt><trkpt lat="44.74055391657632" lon="10.018982326721439"><ele>307.0</ele><time>2026-04-04T12:47:29.998Z</time></trkpt><trkpt lat="44.74063333333813" lon="10.01887332061174"><ele>307.0</ele><time>2026-04-04T12:47:30.998Z</time></trkpt><trkpt lat="44.740705310484174" lon="10.018764330447869"><ele>307.0</ele><time>2026-04-04T12:47:31.997Z</time></trkpt><trkpt lat="44.74076743856072" lon="10.018634613106464"><ele>307.0</ele><time>2026-04-04T12:47:33Z</time></trkpt><trkpt lat="44.74084753905465" lon="10.01852989013584"><ele>307.0</ele><time>2026-04-04T12:47:34Z</time></trkpt><trkpt lat="44.740925325676976" lon="10.018422764439864"><ele>307.0</ele><time>2026-04-04T12:47:35Z</time></trkpt><trkpt lat="44.74098699421862" lon="10.018328503950329"><ele>307.0</ele><time>2026-04-04T12:47:36Z</time></trkpt><trkpt lat="44.74104620567095" lon="10.01822392296714"><ele>307.0</ele><time>2026-04-04T12:47:37Z</time></trkpt><trkpt lat="44.74109929188506" lon="10.018082378048108"><ele>307.0</ele><time>2026-04-04T12:47:38Z</time></trkpt><trkpt lat="44.74114781222352" lon="10.01794326581813"><ele>307.0</ele><time>2026-04-04T12:47:39Z</time></trkpt><trkpt lat="44.74119426871177" lon="10.01782302362594"><ele>309.0</ele><time>2026-04-04T12:47:40Z</time></trkpt><trkpt lat="44.741249210724924" lon="10.017710399377279"><ele>311.0</ele><time>2026-04-04T12:47:41Z</time></trkpt><trkpt lat="44.741315398676015" lon="10.017612511246853"><ele>313.0</ele><time>2026-04-04T12:47:42Z</time></trkpt><trkpt lat="44.74139270132979" lon="10.017500974206483"><ele>315.0</ele><time>2026-04-04T12:47:43Z</time></trkpt><trkpt lat="44.74145468512601" lon="10.017385131355827"><ele>317.0</ele><time>2026-04-04T12:47:44Z</time></trkpt><trkpt lat="44.74152152309624" lon="10.017267119543957"><ele>317.0</ele><time>2026-04-04T12:47:45Z</time></trkpt><trkpt lat="44.741550278805136" lon="10.01712602181935"><ele>317.0</ele><time>2026-04-04T12:47:46Z</time></trkpt><trkpt lat="44.74158823543084" lon="10.017007744130998"><ele>317.0</ele><time>2026-04-04T12:47:47Z</time></trkpt><trkpt lat="44.74156512407546" lon="10.016905235395551"><ele>317.0</ele><time>2026-04-04T12:47:48Z</time></trkpt><trkpt lat="44.74146719220986" lon="10.016707566343088"><ele>317.0</ele><time>2026-04-04T12:47:49Z</time></trkpt><trkpt lat="44.74151597226063" lon="10.016568829023942"><ele>318.5</ele><time>2026-04-04T12:47:50Z</time></trkpt><trkpt lat="44.74156793810863" lon="10.016481754699965"><ele>320.0</ele><time>2026-04-04T12:47:52Z</time></trkpt><trkpt lat="44.742050666229105" lon="10.016720841429887"><ele>322.0</ele><time>2026-04-04T12:47:54Z</time></trkpt><trkpt lat="44.74211300952152" lon="10.016748893868597"><ele>324.0</ele><time>2026-04-04T12:47:55Z</time></trkpt><trkpt lat="44.742196619541836" lon="10.01679516151465"><ele>326.0</ele><time>2026-04-04T12:47:57Z</time></trkpt><trkpt lat="44.742264088998475" lon="10.016709962171937"><ele>328.0</ele><time>2026-04-04T12:48:06Z</time></trkpt><trkpt lat="44.74236279042872" lon="10.016616269839123"><ele>330.0</ele><time>2026-04-04T12:48:08Z</time></trkpt><trkpt lat="44.74241169821595" lon="10.016547251652607"><ele>332.0</ele><time>2026-04-04T12:48:08.999Z</time></trkpt><trkpt lat="44.74247014356732" lon="10.016471053555808"><ele>332.0</ele><time>2026-04-04T12:48:09.999Z</time></trkpt><trkpt lat="44.74254119250111" lon="10.016372142273102"><ele>332.0</ele><time>2026-04-04T12:48:10.999Z</time></trkpt><trkpt lat="44.74259157534382" lon="10.016289874785476"><ele>332.0</ele><time>2026-04-04T12:48:11.999Z</time></trkpt><trkpt lat="44.74263698391792" lon="10.016216714082365"><ele>332.0</ele><time>2026-04-04T12:48:12.999Z</time></trkpt><trkpt lat="44.742669911406765" lon="10.016129437368473"><ele>332.0</ele><time>2026-04-04T12:48:13.999Z</time></trkpt><trkpt lat="44.74272663211403" lon="10.016049688149536"><ele>332.0</ele><time>2026-04-04T12:48:14.999Z</time></trkpt><trkpt lat="44.74279336080366" lon="10.015975184463473"><ele>335.6666666666667</ele><time>2026-04-04T12:48:15.999Z</time></trkpt><trkpt lat="44.742867681840075" lon="10.015908523939833"><ele>339.33333333333337</ele><time>2026-04-04T12:48:16.999Z</time></trkpt><trkpt lat="44.742932694684626" lon="10.015838192348193"><ele>343.0</ele><time>2026-04-04T12:48:17.999Z</time></trkpt><trkpt lat="44.742985731413334" lon="10.015770407374005"><ele>346.6666666666667</ele><time>2026-04-04T12:48:18.999Z</time></trkpt><trkpt lat="44.74302816292471" lon="10.01587707010721"><ele>350.3333333333333</ele><time>2026-04-04T12:48:22.999Z</time></trkpt><trkpt lat="44.74302220137037" lon="10.015965422486305"><ele>354.0</ele><time>2026-04-04T12:48:23.999Z</time></trkpt><trkpt lat="44.74301327963023" lon="10.016059297873502"><ele>356.0</ele><time>2026-04-04T12:48:24.999Z</time></trkpt><trkpt lat="44.7430331226127" lon="10.01615394452782"><ele>358.0</ele><time>2026-04-04T12:48:25.999Z</time></trkpt><trkpt lat="44.74304829294704" lon="10.016365861090012"><ele>360.0</ele><time>2026-04-04T12:48:27.999Z</time></trkpt><trkpt lat="44.74305788475816" lon="10.016482548025817"><ele>362.0</ele><time>2026-04-04T12:48:28.999Z</time></trkpt><trkpt lat="44.74308381297499" lon="10.016569618647857"><ele>364.0</ele><time>2026-04-04T12:48:29.999Z</time></trkpt><trkpt lat="44.7430996590154" lon="10.016694289186411"><ele>365.6</ele><time>2026-04-04T12:48:30.999Z</time></trkpt><trkpt lat="44.743100175668104" lon="10.01681355155968"><ele>367.2</ele><time>2026-04-04T12:48:31.999Z</time></trkpt><trkpt lat="44.743068795235" lon="10.016968483027641"><ele>368.8</ele><time>2026-04-04T12:48:33.999Z</time></trkpt><trkpt lat="44.7430814305422" lon="10.017083934768017"><ele>370.40000000000003</ele><time>2026-04-04T12:48:35.999Z</time></trkpt><trkpt lat="44.7431672146321" lon="10.017227060627208"><ele>372.0</ele><time>2026-04-04T12:48:37.999Z</time></trkpt><trkpt lat="44.74324198339479" lon="10.017332299640273"><ele>373.20000000000005</ele><time>2026-04-04T12:48:39.999Z</time></trkpt><trkpt lat="44.74325287152221" lon="10.017506008522579"><ele>374.4</ele><time>2026-04-04T12:48:41.999Z</time></trkpt><trkpt lat="44.74324837500459" lon="10.017618831086738"><ele>375.6</ele><time>2026-04-04T12:48:42.999Z</time></trkpt><trkpt lat="44.74323769625345" lon="10.017744527941417"><ele>376.79999999999995</ele><time>2026-04-04T12:48:43.999Z</time></trkpt><trkpt lat="44.74325279170813" lon="10.017872576702947"><ele>378.0</ele><time>2026-04-04T12:48:44.999Z</time></trkpt><trkpt lat="44.74327125795059" lon="10.01799507602402"><ele>378.0</ele><time>2026-04-04T12:48:45.999Z</time></trkpt><trkpt lat="44.74331659765598" lon="10.01814707208972"><ele>378.0</ele><time>2026-04-04T12:48:47.999Z</time></trkpt><trkpt lat="44.743370336405754" lon="10.01821207228662"><ele>378.0</ele><time>2026-04-04T12:48:49.999Z</time></trkpt><trkpt lat="44.74343823011232" lon="10.01810392120464"><ele>378.0</ele><time>2026-04-04T12:48:51.999Z</time></trkpt><trkpt lat="44.743467713284225" lon="10.018009687160875"><ele>378.0</ele><time>2026-04-04T12:48:52.999Z</time></trkpt><trkpt lat="44.74351439263469" lon="10.017909284148525"><ele>378.0</ele><time>2026-04-04T12:48:53.998Z</time></trkpt><trkpt lat="44.74356309206953" lon="10.017802449661803"><ele>378.79999999999995</ele><time>2026-04-04T12:48:54.998Z</time></trkpt><trkpt lat="44.743604118298194" lon="10.0176904026863"><ele>379.6</ele><time>2026-04-04T12:48:55.998Z</time></trkpt><trkpt lat="44.74366683950168" lon="10.017579785468662"><ele>380.4</ele><time>2026-04-04T12:48:56.998Z</time></trkpt><trkpt lat="44.743733322050275" lon="10.0175279508972"><ele>381.20000000000005</ele><time>2026-04-04T12:48:57.998Z</time></trkpt><trkpt lat="44.743814283594716" lon="10.017477520395897"><ele>382.0</ele><time>2026-04-04T12:48:58.998Z</time></trkpt><trkpt lat="44.74391048432091" lon="10.017357038366985"><ele>385.6</ele><time>2026-04-04T12:49:00.998Z</time></trkpt><trkpt lat="44.74397603979247" lon="10.017206549255402"><ele>389.20000000000005</ele><time>2026-04-04T12:49:02.998Z</time></trkpt><trkpt lat="44.74401890335856" lon="10.01710878050857"><ele>392.8</ele><time>2026-04-04T12:49:03.998Z</time></trkpt><trkpt lat="44.74407570111274" lon="10.01701689512334"><ele>396.4</ele><time>2026-04-04T12:49:04.998Z</time></trkpt><trkpt lat="44.74411040838071" lon="10.016916455601457"><ele>400.0</ele><time>2026-04-04T12:49:05.998Z</time></trkpt><trkpt lat="44.74417075370302" lon="10.016805660194034"><ele>400.00000000000006</ele><time>2026-04-04T12:49:06.998Z</time></trkpt><trkpt lat="44.744222073939575" lon="10.016710741568149"><ele>400.0</ele><time>2026-04-04T12:49:07.998Z</time></trkpt><trkpt lat="44.74426367222924" lon="10.016546407046022"><ele>400.0</ele><time>2026-04-04T12:49:09.998Z</time></trkpt><trkpt lat="44.74430987360811" lon="10.016477800030401"><ele>400.0</ele><time>2026-04-04T12:49:10.998Z</time></trkpt><trkpt lat="44.744349548459276" lon="10.016398583336702"><ele>400.00000000000006</ele><time>2026-04-04T12:49:11.998Z</time></trkpt><trkpt lat="44.74439509521161" lon="10.016314746339438"><ele>400.0</ele><time>2026-04-04T12:49:12.998Z</time></trkpt><trkpt lat="44.74445031972421" lon="10.016245194185641"><ele>402.00000000000006</ele><time>2026-04-04T12:49:13.998Z</time></trkpt><trkpt lat="44.74451482482583" lon="10.016168755878136"><ele>404.0</ele><time>2026-04-04T12:49:14.998Z</time></trkpt><trkpt lat="44.74457103832589" lon="10.016094276262894"><ele>406.0</ele><time>2026-04-04T12:49:15.998Z</time></trkpt><trkpt lat="44.74461414381091" lon="10.016026722724167"><ele>408.0</ele><time>2026-04-04T12:49:16.998Z</time></trkpt><trkpt lat="44.74464994445033" lon="10.015933595570251"><ele>410.00000000000006</ele><time>2026-04-04T12:49:17.998Z</time></trkpt><trkpt lat="44.744692113611116" lon="10.015830497315484"><ele>412.0</ele><time>2026-04-04T12:49:18.998Z</time></trkpt><trkpt lat="44.74473009106253" lon="10.015733277229774"><ele>412.00000000000006</ele><time>2026-04-04T12:49:19.998Z</time></trkpt><trkpt lat="44.74481546885316" lon="10.015615682686331"><ele>412.0</ele><time>2026-04-04T12:49:21.998Z</time></trkpt><trkpt lat="44.744884938468964" lon="10.01556269991724"><ele>412.0</ele><time>2026-04-04T12:49:22.998Z</time></trkpt><trkpt lat="44.744965078005656" lon="10.015529425077727"><ele>412.0</ele><time>2026-04-04T12:49:23.998Z</time></trkpt><trkpt lat="44.74501976911507" lon="10.015475990726483"><ele>412.00000000000006</ele><time>2026-04-04T12:49:24.998Z</time></trkpt><trkpt lat="44.74506718193784" lon="10.015407515709303"><ele>412.0</ele><time>2026-04-04T12:49:25.998Z</time></trkpt><trkpt lat="44.745107663991774" lon="10.015328647877116"><ele>412.0</ele><time>2026-04-04T12:49:26.998Z</time></trkpt><trkpt lat="44.74514977366822" lon="10.01524034582337"><ele>412.0</ele><time>2026-04-04T12:49:27.998Z</time></trkpt><trkpt lat="44.74521358580958" lon="10.015144853809348"><ele>412.0</ele><time>2026-04-04T12:49:28.998Z</time></trkpt><trkpt lat="44.745267203296436" lon="10.015043622791604"><ele>412.0</ele><time>2026-04-04T12:49:29.998Z</time></trkpt><trkpt lat="44.745309448207976" lon="10.014953176570257"><ele>412.0</ele><time>2026-04-04T12:49:30.998Z</time></trkpt><trkpt lat="44.74532373550176" lon="10.01476725687857"><ele>415.50000000000006</ele><time>2026-04-04T12:49:32.998Z</time></trkpt><trkpt lat="44.74535996711694" lon="10.014676473430615"><ele>419.0</ele><time>2026-04-04T12:49:33.998Z</time></trkpt><trkpt lat="44.74540452582387" lon="10.014597378726982"><ele>422.5</ele><time>2026-04-04T12:49:34.998Z</time></trkpt><trkpt lat="44.745445643319776" lon="10.014517487337626"><ele>426.0</ele><time>2026-04-04T12:49:35.998Z</time></trkpt><trkpt lat="44.74548274166166" lon="10.01441842845658"><ele>429.50000000000006</ele><time>2026-04-04T12:49:36.998Z</time></trkpt><trkpt lat="44.7455192881293" lon="10.014313079689645"><ele>433.0</ele><time>2026-04-04T12:49:37.998Z</time></trkpt><trkpt lat="44.745554481284074" lon="10.014200783473232"><ele>435.00000000000006</ele><time>2026-04-04T12:49:39Z</time></trkpt><trkpt lat="44.74559188295152" lon="10.014086962085264"><ele>437.0</ele><time>2026-04-04T12:49:40Z</time></trkpt><trkpt lat="44.74564437136912" lon="10.013996738915715"><ele>439.0</ele><time>2026-04-04T12:49:41Z</time></trkpt><trkpt lat="44.74569678955485" lon="10.013897106543139"><ele>441.0</ele><time>2026-04-04T12:49:42Z</time></trkpt><trkpt lat="44.74575577557025" lon="10.013806469127953"><ele>443.00000000000006</ele><time>2026-04-04T12:49:43Z</time></trkpt><trkpt lat="44.74581940672791" lon="10.013715176578371"><ele>445.0</ele><time>2026-04-04T12:49:44Z</time></trkpt><trkpt lat="44.74588584679414" lon="10.01362850953357"><ele>445.0</ele><time>2026-04-04T12:49:45Z</time></trkpt><trkpt lat="44.74596580003267" lon="10.01353191325484"><ele>445.0</ele><time>2026-04-04T12:49:46Z</time></trkpt><trkpt lat="44.74605411150929" lon="10.013427434674668"><ele>445.0</ele><time>2026-04-04T12:49:47Z</time></trkpt><trkpt lat="44.74614124954171" lon="10.013315944592199"><ele>445.0</ele><time>2026-04-04T12:49:48Z</time></trkpt><trkpt lat="44.746238117282495" lon="10.013182839706536"><ele>448.0</ele><time>2026-04-04T12:49:49Z</time></trkpt><trkpt lat="44.74632949440119" lon="10.01303391017043"><ele>451.0</ele><time>2026-04-04T12:49:50Z</time></trkpt><trkpt lat="44.74638971304691" lon="10.012922287009543"><ele>454.0</ele><time>2026-04-04T12:49:51Z</time></trkpt><trkpt lat="44.74644559159782" lon="10.012793309314937"><ele>457.0</ele><time>2026-04-04T12:49:52Z</time></trkpt><trkpt lat="44.74649494025561" lon="10.01267033629148"><ele>460.0</ele><time>2026-04-04T12:49:53Z</time></trkpt><trkpt lat="44.74652816626089" lon="10.012570993862584"><ele>460.00000000000006</ele><time>2026-04-04T12:49:54Z</time></trkpt><trkpt lat="44.746558971620324" lon="10.012487837748456"><ele>460.0</ele><time>2026-04-04T12:49:55Z</time></trkpt><trkpt lat="44.746594873152084" lon="10.012340586302479"><ele>460.0</ele><time>2026-04-04T12:49:57Z</time></trkpt><trkpt lat="44.746606779756384" lon="10.012226586466495"><ele>460.0</ele><time>2026-04-04T12:49:58Z</time></trkpt><trkpt lat="44.74662633051484" lon="10.012103052592204"><ele>460.00000000000006</ele><time>2026-04-04T12:49:59Z</time></trkpt><trkpt lat="44.746652207164665" lon="10.011968456600707"><ele>460.0</ele><time>2026-04-04T12:50:00Z</time></trkpt><trkpt lat="44.74668461771033" lon="10.011824352368018"><ele>460.0</ele><time>2026-04-04T12:50:01Z</time></trkpt><trkpt lat="44.746709453966204" lon="10.011679666770798"><ele>460.0</ele><time>2026-04-04T12:50:02Z</time></trkpt><trkpt lat="44.74672107815081" lon="10.011546603440348"><ele>460.0</ele><time>2026-04-04T12:50:03Z</time></trkpt><trkpt lat="44.74673797420111" lon="10.011411209992604"><ele>460.0</ele><time>2026-04-04T12:50:04Z</time></trkpt><trkpt lat="44.746764149191485" lon="10.011267072882816"><ele>460.0</ele><time>2026-04-04T12:50:05Z</time></trkpt><trkpt lat="44.746798957200376" lon="10.011125796922997"><ele>458.33333333333337</ele><time>2026-04-04T12:50:06Z</time></trkpt><trkpt lat="44.746830580129874" lon="10.011009780812216"><ele>456.6666666666667</ele><time>2026-04-04T12:50:07Z</time></trkpt><trkpt lat="44.746861874159656" lon="10.010897050018672"><ele>455.0</ele><time>2026-04-04T12:50:08Z</time></trkpt><trkpt lat="44.74689641579853" lon="10.010777869118128"><ele>453.33333333333337</ele><time>2026-04-04T12:50:09Z</time></trkpt><trkpt lat="44.74692221131751" lon="10.010671792278387"><ele>451.6666666666667</ele><time>2026-04-04T12:50:10Z</time></trkpt><trkpt lat="44.746939677259384" lon="10.010558749968455"><ele>450.0</ele><time>2026-04-04T12:50:11Z</time></trkpt><trkpt lat="44.74694257486801" lon="10.01043601301577"><ele>454.4</ele><time>2026-04-04T12:50:12Z</time></trkpt><trkpt lat="44.74694027483284" lon="10.010276277532807"><ele>458.8</ele><time>2026-04-04T12:50:13Z</time></trkpt><trkpt lat="44.746937201300405" lon="10.010134436004439"><ele>463.20000000000005</ele><time>2026-04-04T12:50:13.999Z</time></trkpt><trkpt lat="44.74694944612143" lon="10.009987217023955"><ele>467.6</ele><time>2026-04-04T12:50:14.999Z</time></trkpt><trkpt lat="44.74696818544759" lon="10.0098348261873"><ele>472.0</ele><time>2026-04-04T12:50:15.999Z</time></trkpt><trkpt lat="44.7469989565271" lon="10.009692986391116"><ele>472.0</ele><time>2026-04-04T12:50:16.999Z</time></trkpt><trkpt lat="44.74702754449592" lon="10.009565653129775"><ele>472.00000000000006</ele><time>2026-04-04T12:50:17.999Z</time></trkpt><trkpt lat="44.747062444595926" lon="10.009444102570075"><ele>472.00000000000006</ele><time>2026-04-04T12:50:18.999Z</time></trkpt><trkpt lat="44.74710305703252" lon="10.009342006578105"><ele>472.0</ele><time>2026-04-04T12:50:19.999Z</time></trkpt><trkpt lat="44.74716324194763" lon="10.009240539726093"><ele>472.0</ele><time>2026-04-04T12:50:20.999Z</time></trkpt><trkpt lat="44.747222551597226" lon="10.009121092317862"><ele>470.6</ele><time>2026-04-04T12:50:21.999Z</time></trkpt><trkpt lat="44.74727964644567" lon="10.008970603568162"><ele>469.20000000000005</ele><time>2026-04-04T12:50:22.999Z</time></trkpt><trkpt lat="44.747317755349584" lon="10.008811492531095"><ele>467.8</ele><time>2026-04-04T12:50:23.999Z</time></trkpt><trkpt lat="44.747357108087506" lon="10.008673418059258"><ele>466.4</ele><time>2026-04-04T12:50:24.999Z</time></trkpt><trkpt lat="44.747383870612005" lon="10.008567205909456"><ele>465.0</ele><time>2026-04-04T12:50:25.999Z</time></trkpt><trkpt lat="44.74737321636221" lon="10.008478911163715"><ele>465.0</ele><time>2026-04-04T12:50:26.999Z</time></trkpt><trkpt lat="44.747319470809366" lon="10.008419231559177"><ele>465.0</ele><time>2026-04-04T12:50:27.999Z</time></trkpt><trkpt lat="44.74726345715581" lon="10.008366459052592"><ele>465.0</ele><time>2026-04-04T12:50:29.999Z</time></trkpt><trkpt lat="44.747318947040206" lon="10.008297447614716"><ele>465.0</ele><time>2026-04-04T12:50:41.999Z</time></trkpt><trkpt lat="44.747404751871144" lon="10.008258136474879"><ele>465.0</ele><time>2026-04-04T12:50:43.999Z</time></trkpt><trkpt lat="44.74746401848162" lon="10.008169438832198"><ele>465.0</ele><time>2026-04-04T12:50:44.999Z</time></trkpt><trkpt lat="44.74750466009156" lon="10.008086333050905"><ele>463.3333333333333</ele><time>2026-04-04T12:50:45.999Z</time></trkpt><trkpt lat="44.747538201172226" lon="10.007994887269367"><ele>461.66666666666663</ele><time>2026-04-04T12:50:46.999Z</time></trkpt><trkpt lat="44.747576486420016" lon="10.007895090956321"><ele>460.0</ele><time>2026-04-04T12:50:47.999Z</time></trkpt><trkpt lat="44.747616512905715" lon="10.007791172722762"><ele>458.3333333333333</ele><time>2026-04-04T12:50:48.999Z</time></trkpt><trkpt lat="44.74766455713631" lon="10.007713134141808"><ele>456.66666666666663</ele><time>2026-04-04T12:50:49.999Z</time></trkpt><trkpt lat="44.74771303895073" lon="10.007642477568698"><ele>455.0</ele><time>2026-04-04T12:50:50.999Z</time></trkpt><trkpt lat="44.747767520348624" lon="10.007555775550506"><ele>451.2</ele><time>2026-04-04T12:50:51.999Z</time></trkpt><trkpt lat="44.74782264572649" lon="10.007480849846797"><ele>447.4</ele><time>2026-04-04T12:50:52.999Z</time></trkpt><trkpt lat="44.74788263032809" lon="10.007401968537804"><ele>443.6</ele><time>2026-04-04T12:50:53.999Z</time></trkpt><trkpt lat="44.74794324874241" lon="10.007349641105645"><ele>439.8</ele><time>2026-04-04T12:50:54.999Z</time></trkpt><trkpt lat="44.748076937539366" lon="10.007297013328728"><ele>436.0</ele><time>2026-04-04T12:50:56.999Z</time></trkpt><trkpt lat="44.74816027491409" lon="10.00725963925448"><ele>436.00000000000006</ele><time>2026-04-04T12:50:57.999Z</time></trkpt><trkpt lat="44.74823819728966" lon="10.007229575056598"><ele>436.0</ele><time>2026-04-04T12:50:58.998Z</time></trkpt><trkpt lat="44.748317806397495" lon="10.007219835985742"><ele>436.0</ele><time>2026-04-04T12:50:59.998Z</time></trkpt><trkpt lat="44.74839819563486" lon="10.007235878219559"><ele>436.0</ele><time>2026-04-04T12:51:01.998Z</time></trkpt><trkpt lat="44.74851187133802" lon="10.007269229689168"><ele>436.00000000000006</ele><time>2026-04-04T12:51:03.998Z</time></trkpt><trkpt lat="44.748569953815185" lon="10.00731239157911"><ele>436.0</ele><time>2026-04-04T12:51:04.998Z</time></trkpt><trkpt lat="44.74858544367056" lon="10.007403906072566"><ele>435.1666666666667</ele><time>2026-04-04T12:51:05.998Z</time></trkpt><trkpt lat="44.748636031863555" lon="10.007463009670934"><ele>434.33333333333337</ele><time>2026-04-04T13:01:38.998Z</time></trkpt><trkpt lat="44.74868730565466" lon="10.007539052869573"><ele>433.5</ele><time>2026-04-04T13:01:49.998Z</time></trkpt><trkpt lat="44.74875844416148" lon="10.007611764318714"><ele>432.66666666666663</ele><time>2026-04-04T13:01:51.998Z</time></trkpt><trkpt lat="44.74882820301073" lon="10.007680704036781"><ele>431.8333333333333</ele><time>2026-04-04T13:01:53.998Z</time></trkpt><trkpt lat="44.74888968470369" lon="10.00773630935582"><ele>431.0</ele><time>2026-04-04T13:01:55.998Z</time></trkpt><trkpt lat="44.74894419350957" lon="10.007816828344021"><ele>430.99999999999994</ele><time>2026-04-04T13:01:57.998Z</time></trkpt><trkpt lat="44.74900157058235" lon="10.007875485118602"><ele>431.0</ele><time>2026-04-04T13:01:59.998Z</time></trkpt><trkpt lat="44.74905989570953" lon="10.007940977717633"><ele>431.0</ele><time>2026-04-04T13:02:01.998Z</time></trkpt><trkpt lat="44.74911581835301" lon="10.008034043522736"><ele>431.0</ele><time>2026-04-04T13:02:03.998Z</time></trkpt><trkpt lat="44.749134135477775" lon="10.008177229528929"><ele>430.99999999999994</ele><time>2026-04-04T13:02:05.998Z</time></trkpt><trkpt lat="44.74913398369204" lon="10.008296860977675"><ele>431.0</ele><time>2026-04-04T13:02:07.998Z</time></trkpt><trkpt lat="44.749117505451665" lon="10.008408963751874"><ele>432.20000000000005</ele><time>2026-04-04T13:02:09.998Z</time></trkpt><trkpt lat="44.74911422566205" lon="10.008532772503031"><ele>433.40000000000003</ele><time>2026-04-04T13:02:11.998Z</time></trkpt><trkpt lat="44.74911598578161" lon="10.008651911279033"><ele>434.6</ele><time>2026-04-04T13:02:15Z</time></trkpt><trkpt lat="44.74913885339295" lon="10.008787573566385"><ele>435.8</ele><time>2026-04-04T13:02:18Z</time></trkpt><trkpt lat="44.74916316306821" lon="10.008892209417478"><ele>437.0</ele><time>2026-04-04T13:02:20Z</time></trkpt><trkpt lat="44.74924407760846" lon="10.008981881984617"><ele>437.0</ele><time>2026-04-04T13:02:22Z</time></trkpt><trkpt lat="44.74933615347444" lon="10.009025844869312"><ele>437.00000000000006</ele><time>2026-04-04T13:02:24Z</time></trkpt><trkpt lat="44.74943065947004" lon="10.009060201891625"><ele>437.00000000000006</ele><time>2026-04-04T13:02:26Z</time></trkpt><trkpt lat="44.749491182238174" lon="10.00900573888577"><ele>437.0</ele><time>2026-04-04T13:02:28Z</time></trkpt><trkpt lat="44.749546071356065" lon="10.008887554845039"><ele>437.0</ele><time>2026-04-04T13:02:30Z</time></trkpt><trkpt lat="44.74955483084426" lon="10.008762096446844"><ele>430.16666666666663</ele><time>2026-04-04T13:02:32Z</time></trkpt><trkpt lat="44.74953893042732" lon="10.00861431340605"><ele>423.3333333333333</ele><time>2026-04-04T13:02:34Z</time></trkpt><trkpt lat="44.749558952796015" lon="10.008466869210928"><ele>416.5</ele><time>2026-04-04T13:02:36Z</time></trkpt><trkpt lat="44.749598585530556" lon="10.00839571984767"><ele>409.66666666666663</ele><time>2026-04-04T13:02:37Z</time></trkpt><trkpt lat="44.74963840248699" lon="10.008313134047018"><ele>402.8333333333333</ele><time>2026-04-04T13:02:38Z</time></trkpt><trkpt lat="44.74966668836254" lon="10.008230552159405"><ele>396.0</ele><time>2026-04-04T13:02:39Z</time></trkpt><trkpt lat="44.749712040793064" lon="10.008093873732733"><ele>396.0</ele><time>2026-04-04T13:02:41Z</time></trkpt><trkpt lat="44.74971256543819" lon="10.007958256850097"><ele>396.0</ele><time>2026-04-04T13:02:43Z</time></trkpt><trkpt lat="44.74968716770603" lon="10.00777449611907"><ele>396.0</ele><time>2026-04-04T13:02:45Z</time></trkpt><trkpt lat="44.74967097226286" lon="10.00766225235021"><ele>396.0</ele><time>2026-04-04T13:02:46Z</time></trkpt><trkpt lat="44.74965057943686" lon="10.007549235747497"><ele>396.0</ele><time>2026-04-04T13:02:47Z</time></trkpt><trkpt lat="44.74964625793208" lon="10.00741634801642"><ele>400.4</ele><time>2026-04-04T13:02:48Z</time></trkpt><trkpt lat="44.74964429866178" lon="10.007242329809102"><ele>404.8</ele><time>2026-04-04T13:02:50Z</time></trkpt><trkpt lat="44.749608808895545" lon="10.007085629597045"><ele>409.2</ele><time>2026-04-04T13:02:51.999Z</time></trkpt><trkpt lat="44.74957127592983" lon="10.006955282916659"><ele>413.59999999999997</ele><time>2026-04-04T13:02:53.999Z</time></trkpt><trkpt lat="44.749628496628326" lon="10.006843541685196"><ele>418.0</ele><time>2026-04-04T13:02:55.999Z</time></trkpt><trkpt lat="44.74976986368131" lon="10.006870638516173"><ele>418.00000000000006</ele><time>2026-04-04T13:02:57.999Z</time></trkpt><trkpt lat="44.749861615921546" lon="10.006909540003127"><ele>418.0</ele><time>2026-04-04T13:02:58.999Z</time></trkpt><trkpt lat="44.74992727766699" lon="10.006968149797748"><ele>418.0</ele><time>2026-04-04T13:02:59.999Z</time></trkpt><trkpt lat="44.749958062050965" lon="10.007054920194404"><ele>418.0</ele><time>2026-04-04T13:03:00.999Z</time></trkpt><trkpt lat="44.74996956062395" lon="10.00716486172897"><ele>418.00000000000006</ele><time>2026-04-04T13:03:01.999Z</time></trkpt><trkpt lat="44.7499863173631" lon="10.00727856374379"><ele>418.0</ele><time>2026-04-04T13:03:02.999Z</time></trkpt><trkpt lat="44.750015501709534" lon="10.007358136418562"><ele>418.0</ele><time>2026-04-04T13:03:03.999Z</time></trkpt><trkpt lat="44.750089778553004" lon="10.00743119300475"><ele>418.0</ele><time>2026-04-04T13:03:05.999Z</time></trkpt><trkpt lat="44.7502224103748" lon="10.007423064591496"><ele>418.0</ele><time>2026-04-04T13:03:07.999Z</time></trkpt><trkpt lat="44.75031713785328" lon="10.007424232844564"><ele>418.0</ele><time>2026-04-04T13:03:08.999Z</time></trkpt><trkpt lat="44.750405952983286" lon="10.00742865184203"><ele>418.0</ele><time>2026-04-04T13:03:09.999Z</time></trkpt><trkpt lat="44.75051712769096" lon="10.007374669393007"><ele>419.00000000000006</ele><time>2026-04-04T13:03:11.999Z</time></trkpt><trkpt lat="44.75057936932666" lon="10.007327020584238"><ele>420.0</ele><time>2026-04-04T13:03:12.999Z</time></trkpt><trkpt lat="44.75065873778833" lon="10.007274244305815"><ele>421.0</ele><time>2026-04-04T13:03:13.999Z</time></trkpt><trkpt lat="44.750746080858455" lon="10.007238776953887"><ele>422.0</ele><time>2026-04-04T13:03:14.999Z</time></trkpt><trkpt lat="44.75082823043259" lon="10.007207503203677"><ele>423.00000000000006</ele><time>2026-04-04T13:03:15.999Z</time></trkpt><trkpt lat="44.75092102880908" lon="10.007209265571952"><ele>424.0</ele><time>2026-04-04T13:03:16.999Z</time></trkpt><trkpt lat="44.75101629016377" lon="10.007225053293217"><ele>422.00000000000006</ele><time>2026-04-04T13:03:17.999Z</time></trkpt><trkpt lat="44.75109983099247" lon="10.007241688320375"><ele>420.0</ele><time>2026-04-04T13:03:18.999Z</time></trkpt><trkpt lat="44.75117116179243" lon="10.007234803759369"><ele>418.0</ele><time>2026-04-04T13:03:19.999Z</time></trkpt><trkpt lat="44.75124583906465" lon="10.007188928552868"><ele>416.0</ele><time>2026-04-04T13:03:20.999Z</time></trkpt><trkpt lat="44.7513097708082" lon="10.007138725263026"><ele>414.00000000000006</ele><time>2026-04-04T13:03:21.999Z</time></trkpt><trkpt lat="44.751377137550534" lon="10.007075337366974"><ele>412.0</ele><time>2026-04-04T13:03:22.999Z</time></trkpt><trkpt lat="44.75146246977145" lon="10.007013430811122"><ele>412.0</ele><time>2026-04-04T13:03:23.999Z</time></trkpt><trkpt lat="44.75155433075391" lon="10.006985439057992"><ele>412.0</ele><time>2026-04-04T13:03:24.999Z</time></trkpt><trkpt lat="44.75164948685603" lon="10.006983790052"><ele>412.0</ele><time>2026-04-04T13:03:25.999Z</time></trkpt><trkpt lat="44.75175737650509" lon="10.007004473263821"><ele>412.0</ele><time>2026-04-04T13:03:26.999Z</time></trkpt><trkpt lat="44.75184854465577" lon="10.007015040906246"><ele>412.0</ele><time>2026-04-04T13:03:27.999Z</time></trkpt><trkpt lat="44.751918364232864" lon="10.00701671741711"><ele>409.1666666666667</ele><time>2026-04-04T13:03:28.999Z</time></trkpt><trkpt lat="44.75199553032817" lon="10.006994517914864"><ele>406.33333333333337</ele><time>2026-04-04T13:03:29.999Z</time></trkpt><trkpt lat="44.7520759503153" lon="10.0069532927035"><ele>403.5</ele><time>2026-04-04T13:03:30.999Z</time></trkpt><trkpt lat="44.752144704137365" lon="10.006894619444767"><ele>400.66666666666663</ele><time>2026-04-04T13:03:31.999Z</time></trkpt><trkpt lat="44.75221605574355" lon="10.006855959938095"><ele>397.8333333333333</ele><time>2026-04-04T13:03:32.999Z</time></trkpt><trkpt lat="44.75228820721555" lon="10.006823257610678"><ele>395.0</ele><time>2026-04-04T13:03:33.999Z</time></trkpt><trkpt lat="44.75235619900232" lon="10.006825700595028"><ele>394.99999999999994</ele><time>2026-04-04T13:03:34.999Z</time></trkpt><trkpt lat="44.752436685206966" lon="10.006861542699582"><ele>395.0</ele><time>2026-04-04T13:03:35.998Z</time></trkpt><trkpt lat="44.75251519185691" lon="10.006913837429593"><ele>395.0</ele><time>2026-04-04T13:03:36.998Z</time></trkpt><trkpt lat="44.7525836189764" lon="10.006949621493337"><ele>395.0</ele><time>2026-04-04T13:03:37.998Z</time></trkpt><trkpt lat="44.75264549975596" lon="10.00697972179938"><ele>394.99999999999994</ele><time>2026-04-04T13:03:38.998Z</time></trkpt><trkpt lat="44.75272316211483" lon="10.007005690504451"><ele>395.0</ele><time>2026-04-04T13:03:39.998Z</time></trkpt><trkpt lat="44.752798963887834" lon="10.007041715441167"><ele>394.57142857142856</ele><time>2026-04-04T13:03:40.998Z</time></trkpt><trkpt lat="44.75286532233737" lon="10.007075196048744"><ele>394.14285714285717</ele><time>2026-04-04T13:03:41.998Z</time></trkpt><trkpt lat="44.752942192289034" lon="10.007103193769584"><ele>393.7142857142857</ele><time>2026-04-04T13:03:42.998Z</time></trkpt><trkpt lat="44.753009920957695" lon="10.007115186277556"><ele>393.2857142857143</ele><time>2026-04-04T13:03:43.998Z</time></trkpt><trkpt lat="44.7530753367443" lon="10.007133037399312"><ele>392.8571428571429</ele><time>2026-04-04T13:03:44.998Z</time></trkpt><trkpt lat="44.75314800412553" lon="10.00714037325697"><ele>392.42857142857144</ele><time>2026-04-04T13:03:45.998Z</time></trkpt><trkpt lat="44.753223736513554" lon="10.00713779758556"><ele>392.0</ele><time>2026-04-04T13:03:46.998Z</time></trkpt><trkpt lat="44.75329943590684" lon="10.00714051556271"><ele>391.99999999999994</ele><time>2026-04-04T13:03:47.998Z</time></trkpt><trkpt lat="44.75336400044337" lon="10.007143412541684"><ele>392.0</ele><time>2026-04-04T13:03:48.998Z</time></trkpt><trkpt lat="44.75344794492817" lon="10.00714342542002"><ele>392.0</ele><time>2026-04-04T13:03:49.998Z</time></trkpt><trkpt lat="44.75353982800862" lon="10.007143636662603"><ele>392.0</ele><time>2026-04-04T13:03:50.998Z</time></trkpt><trkpt lat="44.7536233835549" lon="10.007150441712106"><ele>391.99999999999994</ele><time>2026-04-04T13:03:51.998Z</time></trkpt><trkpt lat="44.75370546944828" lon="10.007136617686877"><ele>392.0</ele><time>2026-04-04T13:03:52.998Z</time></trkpt><trkpt lat="44.75379108442463" lon="10.007103058235293"><ele>389.66666666666663</ele><time>2026-04-04T13:03:53.998Z</time></trkpt><trkpt lat="44.75387311011941" lon="10.007060808012378"><ele>387.3333333333333</ele><time>2026-04-04T13:03:54.998Z</time></trkpt><trkpt lat="44.75395141812135" lon="10.007017023958788"><ele>385.0</ele><time>2026-04-04T13:03:55.998Z</time></trkpt><trkpt lat="44.75402250579463" lon="10.006983823518896"><ele>382.66666666666663</ele><time>2026-04-04T13:03:56.998Z</time></trkpt><trkpt lat="44.75410628166889" lon="10.006970282828307"><ele>380.3333333333333</ele><time>2026-04-04T13:03:57.998Z</time></trkpt><trkpt lat="44.75419104986992" lon="10.006997373997358"><ele>378.0</ele><time>2026-04-04T13:03:58.998Z</time></trkpt><trkpt lat="44.75426135567244" lon="10.007062187811506"><ele>378.0</ele><time>2026-04-04T13:03:59.998Z</time></trkpt><trkpt lat="44.75430164473601" lon="10.007173862739076"><ele>378.0</ele><time>2026-04-04T13:04:00.998Z</time></trkpt><trkpt lat="44.754332391833294" lon="10.007278758488544"><ele>378.0</ele><time>2026-04-04T13:04:01.998Z</time></trkpt><trkpt lat="44.75436967172339" lon="10.00737576780261"><ele>378.0</ele><time>2026-04-04T13:04:02.998Z</time></trkpt><trkpt lat="44.75441654434752" lon="10.007464822100967"><ele>378.0</ele><time>2026-04-04T13:04:03.998Z</time></trkpt><trkpt lat="44.75447448131588" lon="10.007543019245924"><ele>378.0</ele><time>2026-04-04T13:04:04.998Z</time></trkpt><trkpt lat="44.754529784465056" lon="10.007609053697315"><ele>378.0</ele><time>2026-04-04T13:04:05.998Z</time></trkpt><trkpt lat="44.7546240709787" lon="10.007698574118562"><ele>378.0</ele><time>2026-04-04T13:04:07.998Z</time></trkpt><trkpt lat="44.75469467997501" lon="10.007762079903973"><ele>378.0</ele><time>2026-04-04T13:04:09.998Z</time></trkpt><trkpt lat="44.754750253399386" lon="10.007803818288378"><ele>378.0</ele><time>2026-04-04T13:04:12.998Z</time></trkpt><trkpt lat="44.75483374397469" lon="10.007811095429645"><ele>378.0</ele><time>2026-04-04T13:04:14.998Z</time></trkpt><trkpt lat="44.75492760671475" lon="10.007830869020086"><ele>378.0</ele><time>2026-04-04T13:04:16.998Z</time></trkpt><trkpt lat="44.75503576765611" lon="10.007891709401996"><ele>378.0</ele><time>2026-04-04T13:04:18.998Z</time></trkpt><trkpt lat="44.7551500595572" lon="10.007959696053119"><ele>378.0</ele><time>2026-04-04T13:04:21Z</time></trkpt><trkpt lat="44.75525630549362" lon="10.008007477597593"><ele>378.0</ele><time>2026-04-04T13:04:23Z</time></trkpt><trkpt lat="44.75534589395219" lon="10.00806541690775"><ele>378.0</ele><time>2026-04-04T13:04:25Z</time></trkpt><trkpt lat="44.7554216419314" lon="10.008185027650065"><ele>378.0</ele><time>2026-04-04T13:04:27Z</time></trkpt><trkpt lat="44.75545056769255" lon="10.00827996816149"><ele>377.5</ele><time>2026-04-04T13:04:28Z</time></trkpt><trkpt lat="44.75549458894671" lon="10.008371542129916"><ele>377.0</ele><time>2026-04-04T13:04:29Z</time></trkpt><trkpt lat="44.7555476599888" lon="10.00845816142781"><ele>376.5</ele><time>2026-04-04T13:04:30Z</time></trkpt><trkpt lat="44.75558581871696" lon="10.008553716297095"><ele>376.0</ele><time>2026-04-04T13:04:31Z</time></trkpt><trkpt lat="44.75561475729972" lon="10.008662015103996"><ele>375.5</ele><time>2026-04-04T13:04:32Z</time></trkpt><trkpt lat="44.75566797467782" lon="10.008774919428019"><ele>375.0</ele><time>2026-04-04T13:04:33Z</time></trkpt><trkpt lat="44.75570766759576" lon="10.008905935545206"><ele>375.0</ele><time>2026-04-04T13:04:34Z</time></trkpt><trkpt lat="44.75574187316499" lon="10.009023524698083"><ele>375.0</ele><time>2026-04-04T13:04:35Z</time></trkpt><trkpt lat="44.75577639693999" lon="10.009113642361374"><ele>375.0</ele><time>2026-04-04T13:04:36Z</time></trkpt><trkpt lat="44.75580849011503" lon="10.009205749843963"><ele>375.0</ele><time>2026-04-04T13:04:37Z</time></trkpt><trkpt lat="44.75585022261815" lon="10.00929980659002"><ele>375.0</ele><time>2026-04-04T13:04:38Z</time></trkpt><trkpt lat="44.75589100260538" lon="10.009380069575375"><ele>375.0</ele><time>2026-04-04T13:04:39Z</time></trkpt><trkpt lat="44.75590284464561" lon="10.0094723771758"><ele>375.8333333333333</ele><time>2026-04-04T13:04:40Z</time></trkpt><trkpt lat="44.75592324787537" lon="10.009574293134616"><ele>376.6666666666667</ele><time>2026-04-04T13:04:41Z</time></trkpt><trkpt lat="44.755941993133334" lon="10.009681877787049"><ele>377.5</ele><time>2026-04-04T13:04:42Z</time></trkpt><trkpt lat="44.75597016540822" lon="10.009810320133766"><ele>378.33333333333337</ele><time>2026-04-04T13:04:43Z</time></trkpt><trkpt lat="44.75598946456652" lon="10.00993118695703"><ele>379.1666666666667</ele><time>2026-04-04T13:04:44Z</time></trkpt><trkpt lat="44.75600682093852" lon="10.010052061488684"><ele>380.0</ele><time>2026-04-04T13:04:45Z</time></trkpt><trkpt lat="44.75603557421545" lon="10.010155609009917"><ele>378.0</ele><time>2026-04-04T13:04:46Z</time></trkpt><trkpt lat="44.75607889438158" lon="10.010265549441803"><ele>376.0</ele><time>2026-04-04T13:04:47Z</time></trkpt><trkpt lat="44.75612725743838" lon="10.010367746630195"><ele>374.0</ele><time>2026-04-04T13:04:48Z</time></trkpt><trkpt lat="44.7561949311046" lon="10.010438719648105"><ele>372.0</ele><time>2026-04-04T13:04:49Z</time></trkpt><trkpt lat="44.756273843239576" lon="10.010505152589198"><ele>370.0</ele><time>2026-04-04T13:04:50Z</time></trkpt><trkpt lat="44.756363545525424" lon="10.010576624660654"><ele>370.0</ele><time>2026-04-04T13:04:51Z</time></trkpt><trkpt lat="44.75644235557401" lon="10.010635046518923"><ele>370.0</ele><time>2026-04-04T13:04:52Z</time></trkpt><trkpt lat="44.756526309623084" lon="10.010680310849095"><ele>370.0</ele><time>2026-04-04T13:04:53Z</time></trkpt><trkpt lat="44.75660747870619" lon="10.010732069687629"><ele>370.0</ele><time>2026-04-04T13:04:54Z</time></trkpt><trkpt lat="44.756677017138834" lon="10.010782875688724"><ele>370.0</ele><time>2026-04-04T13:04:55Z</time></trkpt><trkpt lat="44.75674597058971" lon="10.010844327257"><ele>370.0</ele><time>2026-04-04T13:04:56Z</time></trkpt><trkpt lat="44.7568119233907" lon="10.01093282129964"><ele>370.2</ele><time>2026-04-04T13:04:57Z</time></trkpt><trkpt lat="44.75687205663661" lon="10.01104246148402"><ele>370.4</ele><time>2026-04-04T13:04:57.999Z</time></trkpt><trkpt lat="44.75692909695682" lon="10.011146031247497"><ele>370.6</ele><time>2026-04-04T13:04:58.999Z</time></trkpt><trkpt lat="44.75698526465962" lon="10.011238417638396"><ele>370.8</ele><time>2026-04-04T13:04:59.999Z</time></trkpt><trkpt lat="44.75705306466592" lon="10.011344980061905"><ele>371.0</ele><time>2026-04-04T13:05:00.999Z</time></trkpt><trkpt lat="44.7571198407" lon="10.011415291245173"><ele>371.0</ele><time>2026-04-04T13:05:01.999Z</time></trkpt><trkpt lat="44.75720373288128" lon="10.011465065081676"><ele>371.0</ele><time>2026-04-04T13:05:02.999Z</time></trkpt><trkpt lat="44.75729344874485" lon="10.011519201001578"><ele>371.0</ele><time>2026-04-04T13:05:03.999Z</time></trkpt><trkpt lat="44.75738158892682" lon="10.011586808369252"><ele>371.0</ele><time>2026-04-04T13:05:04.999Z</time></trkpt><trkpt lat="44.75747277826366" lon="10.011660124136515"><ele>371.0</ele><time>2026-04-04T13:05:05.999Z</time></trkpt><trkpt lat="44.75755108750123" lon="10.011722684958274"><ele>372.14285714285717</ele><time>2026-04-04T13:05:06.999Z</time></trkpt><trkpt lat="44.75761680261203" lon="10.011775531058461"><ele>373.2857142857143</ele><time>2026-04-04T13:05:07.999Z</time></trkpt><trkpt lat="44.75767680753002" lon="10.011844217777673"><ele>374.42857142857144</ele><time>2026-04-04T13:05:08.999Z</time></trkpt><trkpt lat="44.75772634994623" lon="10.011917743974026"><ele>375.57142857142856</ele><time>2026-04-04T13:05:09.999Z</time></trkpt><trkpt lat="44.75777137432617" lon="10.011995036296502"><ele>376.7142857142857</ele><time>2026-04-04T13:05:10.999Z</time></trkpt><trkpt lat="44.7577853069315" lon="10.012095155021445"><ele>377.8571428571429</ele><time>2026-04-04T13:05:11.999Z</time></trkpt><trkpt lat="44.75782827387748" lon="10.012170720963784"><ele>379.0</ele><time>2026-04-04T13:05:12.999Z</time></trkpt><trkpt lat="44.75785749265361" lon="10.012258845735783"><ele>376.0</ele><time>2026-04-04T13:05:13.999Z</time></trkpt><trkpt lat="44.75789298008246" lon="10.012341402543653"><ele>373.0</ele><time>2026-04-04T13:05:14.999Z</time></trkpt><trkpt lat="44.75793755328319" lon="10.012502618178006"><ele>370.0</ele><time>2026-04-04T13:05:16.999Z</time></trkpt><trkpt lat="44.75796641491106" lon="10.012606327003823"><ele>367.0</ele><time>2026-04-04T13:05:17.999Z</time></trkpt><trkpt lat="44.757965050223795" lon="10.012717281029655"><ele>364.0</ele><time>2026-04-04T13:05:18.999Z</time></trkpt><trkpt lat="44.75797859317407" lon="10.012817950847971"><ele>361.0</ele><time>2026-04-04T13:05:19.999Z</time></trkpt><trkpt lat="44.758002937349566" lon="10.012906950547704"><ele>361.0</ele><time>2026-04-04T13:05:20.999Z</time></trkpt><trkpt lat="44.758032590560155" lon="10.01301912750946"><ele>361.0</ele><time>2026-04-04T13:05:21.999Z</time></trkpt><trkpt lat="44.75807496221341" lon="10.013114273900655"><ele>361.0</ele><time>2026-04-04T13:05:22.999Z</time></trkpt><trkpt lat="44.75811559594116" lon="10.013224292087704"><ele>361.0</ele><time>2026-04-04T13:05:23.999Z</time></trkpt><trkpt lat="44.75815475244639" lon="10.013337451869104"><ele>361.0</ele><time>2026-04-04T13:05:24.999Z</time></trkpt><trkpt lat="44.75819701644135" lon="10.013457508506686"><ele>361.0</ele><time>2026-04-04T13:05:25.999Z</time></trkpt><trkpt lat="44.758240574976966" lon="10.013599229654806"><ele>361.4</ele><time>2026-04-04T13:05:26.999Z</time></trkpt><trkpt lat="44.7582828057322" lon="10.013736397361487"><ele>361.8</ele><time>2026-04-04T13:05:27.999Z</time></trkpt><trkpt lat="44.75830945061474" lon="10.013863946636212"><ele>362.2</ele><time>2026-04-04T13:05:28.999Z</time></trkpt><trkpt lat="44.758349989180914" lon="10.013996168342036"><ele>362.59999999999997</ele><time>2026-04-04T13:05:29.999Z</time></trkpt><trkpt lat="44.758391113680645" lon="10.014139114751975"><ele>363.0</ele><time>2026-04-04T13:05:30.999Z</time></trkpt><trkpt lat="44.75843836965641" lon="10.014298403963393"><ele>363.6666666666667</ele><time>2026-04-04T13:05:31.999Z</time></trkpt><trkpt lat="44.75848957007189" lon="10.014434219246784"><ele>364.3333333333333</ele><time>2026-04-04T13:05:32.999Z</time></trkpt><trkpt lat="44.75854185993234" lon="10.014530357496122"><ele>365.0</ele><time>2026-04-04T13:05:33.999Z</time></trkpt><trkpt lat="44.75857649680949" lon="10.01461085401388"><ele>365.66666666666663</ele><time>2026-04-04T13:05:34.999Z</time></trkpt><trkpt lat="44.75854385334956" lon="10.01475660506223"><ele>366.3333333333333</ele><time>2026-04-04T13:05:36.999Z</time></trkpt><trkpt lat="44.7584936291054" lon="10.014815778688154"><ele>367.0</ele><time>2026-04-04T13:05:37.999Z</time></trkpt><trkpt lat="44.75842230380702" lon="10.01479456016275"><ele>367.0</ele><time>2026-04-04T13:05:38.999Z</time></trkpt><trkpt lat="44.75833889236715" lon="10.01490126167975"><ele>367.0</ele><time>2026-04-04T13:05:40.999Z</time></trkpt><trkpt lat="44.758289708863174" lon="10.014967749183096"><ele>367.0</ele><time>2026-04-04T13:05:41.999Z</time></trkpt><trkpt lat="44.75824406519812" lon="10.015029863487621"><ele>367.0</ele><time>2026-04-04T13:05:42.998Z</time></trkpt><trkpt lat="44.75819144960041" lon="10.015101466028705"><ele>367.0</ele><time>2026-04-04T13:05:43.998Z</time></trkpt><trkpt lat="44.75814591380442" lon="10.015181146083165"><ele>367.0</ele><time>2026-04-04T13:05:44.998Z</time></trkpt><trkpt lat="44.75840685075723" lon="10.015750043126346"><ele>369.66666666666663</ele><time>2026-04-04T13:05:46.998Z</time></trkpt><trkpt lat="44.75841491373785" lon="10.015847784242611"><ele>372.3333333333333</ele><time>2026-04-04T13:05:47.998Z</time></trkpt><trkpt lat="44.75839726538869" lon="10.015947650463243"><ele>375.0</ele><time>2026-04-04T13:05:48.998Z</time></trkpt><trkpt lat="44.758347145385045" lon="10.016058319258772"><ele>377.6666666666667</ele><time>2026-04-04T13:05:49.998Z</time></trkpt><trkpt lat="44.75829292069294" lon="10.01619895235236"><ele>380.33333333333337</ele><time>2026-04-04T13:05:50.998Z</time></trkpt><trkpt lat="44.758246593895514" lon="10.016291957700473"><ele>383.0</ele><time>2026-04-04T13:05:51.998Z</time></trkpt><trkpt lat="44.75817286032614" lon="10.016378630326088"><ele>383.0</ele><time>2026-04-04T13:05:52.998Z</time></trkpt><trkpt lat="44.75811051633864" lon="10.016501586781263"><ele>383.0</ele><time>2026-04-04T13:05:53.998Z</time></trkpt><trkpt lat="44.75806075182794" lon="10.016624507334662"><ele>383.0</ele><time>2026-04-04T13:05:54.998Z</time></trkpt><trkpt lat="44.75801566096183" lon="10.016732344299921"><ele>383.0</ele><time>2026-04-04T13:05:55.998Z</time></trkpt><trkpt lat="44.75799052005634" lon="10.016836715375009"><ele>383.0</ele><time>2026-04-04T13:05:56.998Z</time></trkpt><trkpt lat="44.75798075849574" lon="10.016956435214205"><ele>386.0</ele><time>2026-04-04T13:05:57.998Z</time></trkpt><trkpt lat="44.75796120741371" lon="10.017085680289622"><ele>389.0</ele><time>2026-04-04T13:05:58.998Z</time></trkpt><trkpt lat="44.75793767395615" lon="10.017218298963952"><ele>392.0</ele><time>2026-04-04T13:05:59.998Z</time></trkpt><trkpt lat="44.757902181280706" lon="10.017339930569714"><ele>395.0</ele><time>2026-04-04T13:06:00.998Z</time></trkpt><trkpt lat="44.75785083620493" lon="10.017463139399455"><ele>398.0</ele><time>2026-04-04T13:06:01.998Z</time></trkpt><trkpt lat="44.7578121091531" lon="10.017588196691142"><ele>400.59999999999997</ele><time>2026-04-04T13:06:02.998Z</time></trkpt><trkpt lat="44.75778761105124" lon="10.017682578938196"><ele>403.2</ele><time>2026-04-04T13:06:03.998Z</time></trkpt><trkpt lat="44.757744647091435" lon="10.017834059862302"><ele>405.8</ele><time>2026-04-04T13:06:05.998Z</time></trkpt><trkpt lat="44.7576942610121" lon="10.017948942375515"><ele>408.4</ele><time>2026-04-04T13:06:06.998Z</time></trkpt><trkpt lat="44.757614298545256" lon="10.01804643425834"><ele>411.0</ele><time>2026-04-04T13:06:07.998Z</time></trkpt><trkpt lat="44.757560988430164" lon="10.018149623240916"><ele>408.0</ele><time>2026-04-04T13:06:08.998Z</time></trkpt><trkpt lat="44.75750246136768" lon="10.018279946985512"><ele>405.0</ele><time>2026-04-04T13:06:09.998Z</time></trkpt><trkpt lat="44.757463024505746" lon="10.018411268320277"><ele>402.0</ele><time>2026-04-04T13:06:10.998Z</time></trkpt><trkpt lat="44.757430194270185" lon="10.018534662840722"><ele>399.0</ele><time>2026-04-04T13:06:11.998Z</time></trkpt><trkpt lat="44.75739723005815" lon="10.018636016028633"><ele>396.0</ele><time>2026-04-04T13:06:12.998Z</time></trkpt><trkpt lat="44.75735524268982" lon="10.018760527009361"><ele>396.0</ele><time>2026-04-04T13:06:13.998Z</time></trkpt><trkpt lat="44.75732428826003" lon="10.01889881967"><ele>396.0</ele><time>2026-04-04T13:06:14.998Z</time></trkpt><trkpt lat="44.757305223140264" lon="10.019022741419315"><ele>396.0</ele><time>2026-04-04T13:06:15.998Z</time></trkpt><trkpt lat="44.75727116255315" lon="10.019132348826115"><ele>396.0</ele><time>2026-04-04T13:06:16.998Z</time></trkpt><trkpt lat="44.75721793883952" lon="10.019259763834462"><ele>396.0</ele><time>2026-04-04T13:06:17.998Z</time></trkpt><trkpt lat="44.75718165857414" lon="10.019397667933816"><ele>398.1666666666667</ele><time>2026-04-04T13:06:18.998Z</time></trkpt><trkpt lat="44.75713802728437" lon="10.019533247123402"><ele>400.33333333333337</ele><time>2026-04-04T13:06:19.998Z</time></trkpt><trkpt lat="44.75710248692353" lon="10.019646733080474"><ele>402.5</ele><time>2026-04-04T13:06:20.998Z</time></trkpt><trkpt lat="44.75705319666072" lon="10.019727292175105"><ele>404.6666666666667</ele><time>2026-04-04T13:06:21.998Z</time></trkpt><trkpt lat="44.75700809003678" lon="10.01979929289211"><ele>406.83333333333337</ele><time>2026-04-04T13:06:22.998Z</time></trkpt><trkpt lat="44.757000881899124" lon="10.019899479997159"><ele>409.0</ele><time>2026-04-04T13:06:23.998Z</time></trkpt><trkpt lat="44.757000263652685" lon="10.020026451246006"><ele>409.83333333333337</ele><time>2026-04-04T13:06:24.998Z</time></trkpt><trkpt lat="44.75700663271126" lon="10.020171914736428"><ele>410.6666666666667</ele><time>2026-04-04T13:06:25.998Z</time></trkpt><trkpt lat="44.75699173072565" lon="10.020313180968666"><ele>411.5</ele><time>2026-04-04T13:06:27Z</time></trkpt><trkpt lat="44.75695820272704" lon="10.020445268595411"><ele>412.33333333333337</ele><time>2026-04-04T13:06:28Z</time></trkpt><trkpt lat="44.75694724537847" lon="10.020541812329473"><ele>413.1666666666667</ele><time>2026-04-04T13:06:29Z</time></trkpt><trkpt lat="44.75695507413029" lon="10.020634620151755"><ele>414.0</ele><time>2026-04-04T13:06:30Z</time></trkpt><trkpt lat="44.75699941627087" lon="10.02070680195853"><ele>414.0</ele><time>2026-04-04T13:06:31Z</time></trkpt><trkpt lat="44.757082781109574" lon="10.020812812862578"><ele>414.0</ele><time>2026-04-04T13:06:33Z</time></trkpt><trkpt lat="44.75713938026" lon="10.02087709021297"><ele>414.0</ele><time>2026-04-04T13:06:34Z</time></trkpt><trkpt lat="44.757213315155404" lon="10.020928684308444"><ele>414.0</ele><time>2026-04-04T13:06:35Z</time></trkpt><trkpt lat="44.75731947854677" lon="10.020972882301274"><ele>414.0</ele><time>2026-04-04T13:06:36Z</time></trkpt><trkpt lat="44.75741071231782" lon="10.02103041703666"><ele>412.0</ele><time>2026-04-04T13:06:37Z</time></trkpt><trkpt lat="44.75746293171454" lon="10.021105734898601"><ele>410.0</ele><time>2026-04-04T13:06:38Z</time></trkpt><trkpt lat="44.75748793435074" lon="10.021201901535024"><ele>408.0</ele><time>2026-04-04T13:06:39Z</time></trkpt><trkpt lat="44.75750345967426" lon="10.021308721345134"><ele>406.0</ele><time>2026-04-04T13:06:40Z</time></trkpt><trkpt lat="44.75752917239921" lon="10.02141670448352"><ele>404.0</ele><time>2026-04-04T13:06:41Z</time></trkpt><trkpt lat="44.75756187101254" lon="10.021534730708503"><ele>402.0</ele><time>2026-04-04T13:06:42Z</time></trkpt><trkpt lat="44.757584270092266" lon="10.021651114157926"><ele>399.6666666666667</ele><time>2026-04-04T13:06:43Z</time></trkpt><trkpt lat="44.75761218518734" lon="10.02175200988621"><ele>397.33333333333337</ele><time>2026-04-04T13:06:44Z</time></trkpt><trkpt lat="44.75762787691343" lon="10.021856652717197"><ele>395.0</ele><time>2026-04-04T13:06:45Z</time></trkpt><trkpt lat="44.757677147630375" lon="10.02198236592011"><ele>392.6666666666667</ele><time>2026-04-04T13:06:47Z</time></trkpt><trkpt lat="44.757753212864316" lon="10.022095197508385"><ele>390.33333333333337</ele><time>2026-04-04T13:06:49Z</time></trkpt><trkpt lat="44.7577890757882" lon="10.022176501545694"><ele>388.0</ele><time>2026-04-04T13:06:50Z</time></trkpt><trkpt lat="44.75782236540936" lon="10.022260648692303"><ele>386.4</ele><time>2026-04-04T13:06:51Z</time></trkpt><trkpt lat="44.757913327479564" lon="10.022402105577738"><ele>384.79999999999995</ele><time>2026-04-04T13:06:53Z</time></trkpt><trkpt lat="44.75797621193595" lon="10.02249947987985"><ele>383.2</ele><time>2026-04-04T13:06:54Z</time></trkpt><trkpt lat="44.758003039965686" lon="10.022598983459464"><ele>381.6</ele><time>2026-04-04T13:06:55Z</time></trkpt><trkpt lat="44.75801097661715" lon="10.022696983586627"><ele>380.0</ele><time>2026-04-04T13:06:56Z</time></trkpt><trkpt lat="44.757991869547105" lon="10.022845274477918"><ele>380.0</ele><time>2026-04-04T13:06:57Z</time></trkpt><trkpt lat="44.75796458706282" lon="10.023016345678634"><ele>380.0</ele><time>2026-04-04T13:06:58Z</time></trkpt><trkpt lat="44.75793317762146" lon="10.023164388223298"><ele>380.0</ele><time>2026-04-04T13:06:59Z</time></trkpt><trkpt lat="44.7579455917066" lon="10.023334729794007"><ele>380.0</ele><time>2026-04-04T13:07:00Z</time></trkpt><trkpt lat="44.757933618868684" lon="10.023480879471768"><ele>383.0</ele><time>2026-04-04T13:07:01Z</time></trkpt><trkpt lat="44.75790290220627" lon="10.02360650270267"><ele>386.0</ele><time>2026-04-04T13:07:02Z</time></trkpt><trkpt lat="44.75788036881256" lon="10.023753097864828"><ele>389.0</ele><time>2026-04-04T13:07:02.999Z</time></trkpt><trkpt lat="44.7578518195347" lon="10.023869563748576"><ele>392.0</ele><time>2026-04-04T13:07:03.999Z</time></trkpt><trkpt lat="44.75782309049753" lon="10.024018134567552"><ele>395.0</ele><time>2026-04-04T13:07:04.999Z</time></trkpt><trkpt lat="44.75780410431037" lon="10.024154021072068"><ele>396.4</ele><time>2026-04-04T13:07:05.999Z</time></trkpt><trkpt lat="44.757783048748124" lon="10.024272025961475"><ele>397.8</ele><time>2026-04-04T13:07:06.999Z</time></trkpt><trkpt lat="44.757742813771685" lon="10.024402176604054"><ele>399.20000000000005</ele><time>2026-04-04T13:07:07.999Z</time></trkpt><trkpt lat="44.75768377399298" lon="10.024559398657575"><ele>400.6</ele><time>2026-04-04T13:07:08.999Z</time></trkpt><trkpt lat="44.75763367669907" lon="10.02470148227252"><ele>402.0</ele><time>2026-04-04T13:07:09.999Z</time></trkpt><trkpt lat="44.75760375815493" lon="10.024816666837408"><ele>400.40000000000003</ele><time>2026-04-04T13:07:10.999Z</time></trkpt><trkpt lat="44.7575493871056" lon="10.024952361926266"><ele>398.8</ele><time>2026-04-04T13:07:11.999Z</time></trkpt><trkpt lat="44.757488150360246" lon="10.025091630664901"><ele>397.2</ele><time>2026-04-04T13:07:12.999Z</time></trkpt><trkpt lat="44.757435634804764" lon="10.025199446219876"><ele>395.6</ele><time>2026-04-04T13:07:13.999Z</time></trkpt><trkpt lat="44.75741816878685" lon="10.025288160920805"><ele>394.0</ele><time>2026-04-04T13:07:14.999Z</time></trkpt><trkpt lat="44.757438116521" lon="10.02537930652386"><ele>394.0</ele><time>2026-04-04T13:07:15.999Z</time></trkpt><trkpt lat="44.757475782561464" lon="10.025492842734176"><ele>394.0</ele><time>2026-04-04T13:07:16.999Z</time></trkpt><trkpt lat="44.75752092287729" lon="10.025580239241341"><ele>394.0</ele><time>2026-04-04T13:07:17.999Z</time></trkpt><trkpt lat="44.757619302563555" lon="10.025673027991926"><ele>394.0</ele><time>2026-04-04T13:07:19.999Z</time></trkpt><trkpt lat="44.75770785806599" lon="10.025701047068814"><ele>394.0</ele><time>2026-04-04T13:07:20.999Z</time></trkpt><trkpt lat="44.75780006339044" lon="10.025717323554744"><ele>394.83333333333337</ele><time>2026-04-04T13:07:21.999Z</time></trkpt><trkpt lat="44.757884037232884" lon="10.025752185777893"><ele>395.6666666666667</ele><time>2026-04-04T13:07:22.999Z</time></trkpt><trkpt lat="44.7579542767333" lon="10.025773240009034"><ele>396.5</ele><time>2026-04-04T13:07:23.999Z</time></trkpt><trkpt lat="44.75802446477115" lon="10.025842164778343"><ele>397.33333333333337</ele><time>2026-04-04T13:07:25.999Z</time></trkpt><trkpt lat="44.75811400469527" lon="10.02591091643614"><ele>398.1666666666667</ele><time>2026-04-04T13:07:28.999Z</time></trkpt><trkpt lat="44.75818105455795" lon="10.025960589698373"><ele>399.0</ele><time>2026-04-04T13:07:30.999Z</time></trkpt><trkpt lat="44.75826272958107" lon="10.026017588811099"><ele>399.1666666666667</ele><time>2026-04-04T13:07:32.999Z</time></trkpt><trkpt lat="44.75832419406905" lon="10.026070863862516"><ele>399.33333333333337</ele><time>2026-04-04T13:07:34.999Z</time></trkpt><trkpt lat="44.758418634623965" lon="10.026166967484366"><ele>399.5</ele><time>2026-04-04T13:07:36.999Z</time></trkpt><trkpt lat="44.75846547847096" lon="10.026265228345208"><ele>399.6666666666667</ele><time>2026-04-04T13:07:37.999Z</time></trkpt><trkpt lat="44.758510676677204" lon="10.0263413634998"><ele>399.83333333333337</ele><time>2026-04-04T13:07:38.999Z</time></trkpt><trkpt lat="44.75854708327573" lon="10.026424924658262"><ele>400.0</ele><time>2026-04-04T13:07:39.999Z</time></trkpt><trkpt lat="44.75858950781546" lon="10.026506424233895"><ele>400.28571428571433</ele><time>2026-04-04T13:07:40.999Z</time></trkpt><trkpt lat="44.7586248396206" lon="10.02658856154101"><ele>400.57142857142856</ele><time>2026-04-04T13:07:41.999Z</time></trkpt><trkpt lat="44.75864610434136" lon="10.026682550435913"><ele>400.8571428571429</ele><time>2026-04-04T13:07:42.999Z</time></trkpt><trkpt lat="44.75865769963835" lon="10.026783301864697"><ele>401.14285714285717</ele><time>2026-04-04T13:07:43.999Z</time></trkpt><trkpt lat="44.75865386735225" lon="10.026886675279183"><ele>401.42857142857144</ele><time>2026-04-04T13:07:44.999Z</time></trkpt><trkpt lat="44.7586423683304" lon="10.026992968257645"><ele>401.7142857142857</ele><time>2026-04-04T13:07:45.999Z</time></trkpt><trkpt lat="44.75861631056192" lon="10.027077363413918"><ele>402.0</ele><time>2026-04-04T13:07:46.998Z</time></trkpt><trkpt lat="44.7585832596105" lon="10.02717689099734"><ele>402.0</ele><time>2026-04-04T13:07:47.998Z</time></trkpt><trkpt lat="44.75854955166357" lon="10.027258190480241"><ele>402.0</ele><time>2026-04-04T13:07:48.998Z</time></trkpt><trkpt lat="44.758514515340956" lon="10.027346514120744"><ele>402.0</ele><time>2026-04-04T13:07:49.998Z</time></trkpt><trkpt lat="44.75848666566983" lon="10.027435754365364"><ele>402.0</ele><time>2026-04-04T13:07:50.998Z</time></trkpt><trkpt lat="44.758450600089844" lon="10.027580389938402"><ele>402.0</ele><time>2026-04-04T13:07:52.998Z</time></trkpt><trkpt lat="44.75853119553222" lon="10.027674962255"><ele>402.0</ele><time>2026-04-04T13:07:54.998Z</time></trkpt><trkpt lat="44.758652464994064" lon="10.027698266374783"><ele>400.6</ele><time>2026-04-04T13:07:56.998Z</time></trkpt><trkpt lat="44.75880306658055" lon="10.027677065003289"><ele>399.20000000000005</ele><time>2026-04-04T13:07:58.998Z</time></trkpt><trkpt lat="44.75889581539991" lon="10.027670846065904"><ele>397.8</ele><time>2026-04-04T13:07:59.998Z</time></trkpt><trkpt lat="44.75898135079278" lon="10.027670899256268"><ele>396.4</ele><time>2026-04-04T13:08:00.998Z</time></trkpt><trkpt lat="44.75904720575316" lon="10.027705207233176"><ele>395.0</ele><time>2026-04-04T13:08:01.998Z</time></trkpt><trkpt lat="44.759113421896764" lon="10.027777540892277"><ele>395.0</ele><time>2026-04-04T13:08:02.998Z</time></trkpt><trkpt lat="44.759134528563955" lon="10.027957010571306"><ele>395.0</ele><time>2026-04-04T13:08:03.998Z</time></trkpt><trkpt lat="44.7592049486928" lon="10.028082466833036"><ele>395.0</ele><time>2026-04-04T13:08:04.998Z</time></trkpt><trkpt lat="44.7592773108399" lon="10.028202416502035"><ele>395.0</ele><time>2026-04-04T13:08:05.998Z</time></trkpt><trkpt lat="44.759342081123876" lon="10.028318301352359"><ele>393.16666666666663</ele><time>2026-04-04T13:08:06.998Z</time></trkpt><trkpt lat="44.759394405339435" lon="10.028429957123512"><ele>391.3333333333333</ele><time>2026-04-04T13:08:07.998Z</time></trkpt><trkpt lat="44.75944619212103" lon="10.028524081880981"><ele>389.5</ele><time>2026-04-04T13:08:08.998Z</time></trkpt><trkpt lat="44.7594948739011" lon="10.028612973390922"><ele>387.66666666666663</ele><time>2026-04-04T13:08:09.998Z</time></trkpt><trkpt lat="44.75956065330922" lon="10.028691819032817"><ele>385.8333333333333</ele><time>2026-04-04T13:08:10.998Z</time></trkpt><trkpt lat="44.759627108042054" lon="10.028785750755382"><ele>384.0</ele><time>2026-04-04T13:08:11.998Z</time></trkpt><trkpt lat="44.759695791342914" lon="10.028888077120865"><ele>384.0</ele><time>2026-04-04T13:08:12.998Z</time></trkpt><trkpt lat="44.75971112232264" lon="10.028984261637673"><ele>384.0</ele><time>2026-04-04T13:08:13.998Z</time></trkpt><trkpt lat="44.75971786307479" lon="10.029116424650953"><ele>384.0</ele><time>2026-04-04T13:08:14.998Z</time></trkpt><trkpt lat="44.75974727072556" lon="10.029270883122152"><ele>384.0</ele><time>2026-04-04T13:08:15.998Z</time></trkpt><trkpt lat="44.759805277906125" lon="10.029406993860887"><ele>384.0</ele><time>2026-04-04T13:08:16.998Z</time></trkpt><trkpt lat="44.75985701535725" lon="10.029541332056306"><ele>382.1666666666667</ele><time>2026-04-04T13:08:17.998Z</time></trkpt><trkpt lat="44.759888357638495" lon="10.029656051425743"><ele>380.3333333333333</ele><time>2026-04-04T13:08:18.998Z</time></trkpt><trkpt lat="44.75990335101448" lon="10.029761374144394"><ele>378.5</ele><time>2026-04-04T13:08:19.998Z</time></trkpt><trkpt lat="44.759861977523244" lon="10.029926473411091"><ele>376.66666666666663</ele><time>2026-04-04T13:08:21.998Z</time></trkpt><trkpt lat="44.75983936451088" lon="10.030023909201562"><ele>374.8333333333333</ele><time>2026-04-04T13:08:22.998Z</time></trkpt><trkpt lat="44.759785539705845" lon="10.030105414083847"><ele>373.0</ele><time>2026-04-04T13:08:23.998Z</time></trkpt><trkpt lat="44.75975008086277" lon="10.030223934437293"><ele>371.59999999999997</ele><time>2026-04-04T13:08:24.998Z</time></trkpt><trkpt lat="44.75973480828359" lon="10.030365666419064"><ele>370.2</ele><time>2026-04-04T13:08:25.998Z</time></trkpt><trkpt lat="44.759733659766226" lon="10.03049312583292"><ele>368.8</ele><time>2026-04-04T13:08:26.998Z</time></trkpt><trkpt lat="44.759744237213425" lon="10.030633686761925"><ele>367.4</ele><time>2026-04-04T13:08:27.998Z</time></trkpt><trkpt lat="44.75973533065549" lon="10.030793423763072"><ele>366.0</ele><time>2026-04-04T13:08:28.998Z</time></trkpt><trkpt lat="44.75972723145509" lon="10.030939690537188"><ele>365.6</ele><time>2026-04-04T13:08:29.998Z</time></trkpt><trkpt lat="44.75972921600076" lon="10.031076855017982"><ele>365.20000000000005</ele><time>2026-04-04T13:08:30.998Z</time></trkpt><trkpt lat="44.75974978129962" lon="10.031208382318237"><ele>364.79999999999995</ele><time>2026-04-04T13:08:31.997Z</time></trkpt><trkpt lat="44.75977084913176" lon="10.031346440245494"><ele>364.4</ele><time>2026-04-04T13:08:33Z</time></trkpt><trkpt lat="44.75977805513958" lon="10.031506837598512"><ele>364.0</ele><time>2026-04-04T13:08:34Z</time></trkpt><trkpt lat="44.759795344310504" lon="10.031665684389981"><ele>363.6</ele><time>2026-04-04T13:08:35Z</time></trkpt><trkpt lat="44.759816832755874" lon="10.031800094211176"><ele>363.2</ele><time>2026-04-04T13:08:36Z</time></trkpt><trkpt lat="44.759846053537196" lon="10.031927398918778"><ele>362.8</ele><time>2026-04-04T13:08:37Z</time></trkpt><trkpt lat="44.75985679547791" lon="10.032046256467474"><ele>362.40000000000003</ele><time>2026-04-04T13:08:38Z</time></trkpt><trkpt lat="44.75989288283272" lon="10.032159669702528"><ele>362.0</ele><time>2026-04-04T13:08:39Z</time></trkpt><trkpt lat="44.759919945692836" lon="10.032290388875273"><ele>362.0</ele><time>2026-04-04T13:08:40Z</time></trkpt><trkpt lat="44.75994386037932" lon="10.03245964846289"><ele>362.0</ele><time>2026-04-04T13:08:41Z</time></trkpt><trkpt lat="44.75999482848911" lon="10.03262454825253"><ele>362.0</ele><time>2026-04-04T13:08:42Z</time></trkpt><trkpt lat="44.76005336823761" lon="10.032764979897937"><ele>362.0</ele><time>2026-04-04T13:08:43Z</time></trkpt><trkpt lat="44.76010228398479" lon="10.032916128858483"><ele>363.0</ele><time>2026-04-04T13:08:44Z</time></trkpt><trkpt lat="44.76015499331412" lon="10.033065779921019"><ele>364.0</ele><time>2026-04-04T13:08:45Z</time></trkpt><trkpt lat="44.760227423678465" lon="10.033201471252765"><ele>365.0</ele><time>2026-04-04T13:08:46Z</time></trkpt><trkpt lat="44.76031501052547" lon="10.033296628841857"><ele>366.0</ele><time>2026-04-04T13:08:47Z</time></trkpt><trkpt lat="44.76038152517477" lon="10.033405132362764"><ele>362.6666666666667</ele><time>2026-04-04T13:08:48Z</time></trkpt><trkpt lat="44.76040012374735" lon="10.033523904438473"><ele>359.3333333333333</ele><time>2026-04-04T13:08:49Z</time></trkpt><trkpt lat="44.76041868893524" lon="10.033628583743944"><ele>356.0</ele><time>2026-04-04T13:08:50Z</time></trkpt><trkpt lat="44.76044694066112" lon="10.033744433206897"><ele>352.66666666666663</ele><time>2026-04-04T13:08:51Z</time></trkpt><trkpt lat="44.760433373017946" lon="10.033842338590851"><ele>349.3333333333333</ele><time>2026-04-04T13:08:52Z</time></trkpt><trkpt lat="44.76041906198978" lon="10.033936446485743"><ele>346.0</ele><time>2026-04-04T13:08:53Z</time></trkpt><trkpt lat="44.76040579812153" lon="10.0340546105807"><ele>346.6</ele><time>2026-04-04T13:08:54Z</time></trkpt><trkpt lat="44.76039042538566" lon="10.034170061814814"><ele>347.20000000000005</ele><time>2026-04-04T13:08:55Z</time></trkpt><trkpt lat="44.76037287232011" lon="10.034273117094513"><ele>347.79999999999995</ele><time>2026-04-04T13:08:56Z</time></trkpt><trkpt lat="44.76034290609767" lon="10.034396451302666"><ele>348.4</ele><time>2026-04-04T13:08:57Z</time></trkpt><trkpt lat="44.760304181612995" lon="10.034522098309587"><ele>349.0</ele><time>2026-04-04T13:08:58Z</time></trkpt><trkpt lat="44.76026480201788" lon="10.034663447093394"><ele>349.0</ele><time>2026-04-04T13:08:59Z</time></trkpt><trkpt lat="44.760243342136725" lon="10.034804186487353"><ele>349.0</ele><time>2026-04-04T13:09:00Z</time></trkpt><trkpt lat="44.76021811083117" lon="10.034937877654404"><ele>349.0</ele><time>2026-04-04T13:09:01Z</time></trkpt><trkpt lat="44.76018813298134" lon="10.035048402001909"><ele>349.0</ele><time>2026-04-04T13:09:02Z</time></trkpt><trkpt lat="44.7601890600425" lon="10.035138129836987"><ele>349.0</ele><time>2026-04-04T13:09:03Z</time></trkpt><trkpt lat="44.76017911674735" lon="10.035254567627405"><ele>349.0</ele><time>2026-04-04T13:09:05Z</time></trkpt><trkpt lat="44.76028439894924" lon="10.035292828093102"><ele>345.8333333333333</ele><time>2026-04-04T13:09:07Z</time></trkpt><trkpt lat="44.76034214197916" lon="10.03524341635092"><ele>342.66666666666663</ele><time>2026-04-04T13:09:08Z</time></trkpt><trkpt lat="44.760392418335336" lon="10.035177659174238"><ele>339.5</ele><time>2026-04-04T13:09:09Z</time></trkpt><trkpt lat="44.760461920424405" lon="10.035105702433368"><ele>336.3333333333333</ele><time>2026-04-04T13:09:09.999Z</time></trkpt><trkpt lat="44.76053907562814" lon="10.035051882697195"><ele>333.1666666666667</ele><time>2026-04-04T13:09:10.999Z</time></trkpt><trkpt lat="44.76062053222233" lon="10.035040442845748"><ele>330.0</ele><time>2026-04-04T13:09:11.999Z</time></trkpt><trkpt lat="44.76069437062185" lon="10.03500430035262"><ele>330.0</ele><time>2026-04-04T13:09:12.999Z</time></trkpt><trkpt lat="44.760759005975494" lon="10.035030304429867"><ele>330.0</ele><time>2026-04-04T13:09:13.999Z</time></trkpt><trkpt lat="44.7608078134251" lon="10.035105338224554"><ele>330.0</ele><time>2026-04-04T13:09:14.999Z</time></trkpt><trkpt lat="44.76085043585967" lon="10.035184295447927"><ele>330.0</ele><time>2026-04-04T13:09:15.999Z</time></trkpt><trkpt lat="44.76091893445504" lon="10.035267884860442"><ele>330.0</ele><time>2026-04-04T13:09:16.999Z</time></trkpt><trkpt lat="44.76098134339737" lon="10.035378668216744"><ele>330.0</ele><time>2026-04-04T13:09:17.999Z</time></trkpt><trkpt lat="44.761046328804696" lon="10.035471984293801"><ele>329.3333333333333</ele><time>2026-04-04T13:09:18.999Z</time></trkpt><trkpt lat="44.76111438904977" lon="10.035560367181724"><ele>328.6666666666667</ele><time>2026-04-04T13:09:19.999Z</time></trkpt><trkpt lat="44.76117084090146" lon="10.035629427505988"><ele>328.0</ele><time>2026-04-04T13:09:20.999Z</time></trkpt><trkpt lat="44.76124283273472" lon="10.035700241905312"><ele>327.33333333333337</ele><time>2026-04-04T13:09:21.999Z</time></trkpt><trkpt lat="44.76131463939204" lon="10.035754884539854"><ele>326.6666666666667</ele><time>2026-04-04T13:09:22.999Z</time></trkpt><trkpt lat="44.76138390088622" lon="10.035790246113867"><ele>326.0</ele><time>2026-04-04T13:09:23.999Z</time></trkpt><trkpt lat="44.76143230370584" lon="10.035851958325209"><ele>326.0</ele><time>2026-04-04T13:09:24.999Z</time></trkpt><trkpt lat="44.761580881117716" lon="10.035818974154218"><ele>326.0</ele><time>2026-04-04T13:09:26.999Z</time></trkpt><trkpt lat="44.76170296257547" lon="10.035782145799919"><ele>326.0</ele><time>2026-04-04T13:09:27.999Z</time></trkpt><trkpt lat="44.76184177951787" lon="10.035754897294273"><ele>326.0</ele><time>2026-04-04T13:09:28.999Z</time></trkpt><trkpt lat="44.76196466693288" lon="10.035743701547554"><ele>322.83333333333337</ele><time>2026-04-04T13:09:29.999Z</time></trkpt><trkpt lat="44.76206442152581" lon="10.035737748703175"><ele>319.6666666666667</ele><time>2026-04-04T13:09:30.999Z</time></trkpt><trkpt lat="44.76213380800399" lon="10.035725418537933"><ele>316.5</ele><time>2026-04-04T13:09:31.999Z</time></trkpt><trkpt lat="44.76220022914176" lon="10.035734995972648"><ele>313.3333333333333</ele><time>2026-04-04T13:09:32.999Z</time></trkpt><trkpt lat="44.76224772526329" lon="10.035879336139102"><ele>310.16666666666663</ele><time>2026-04-04T13:09:34.999Z</time></trkpt><trkpt lat="44.7623016145235" lon="10.035975169927253"><ele>307.0</ele><time>2026-04-04T13:09:35.999Z</time></trkpt><trkpt lat="44.76237479079523" lon="10.036061102145014"><ele>307.0</ele><time>2026-04-04T13:09:36.999Z</time></trkpt><trkpt lat="44.76244296283231" lon="10.036162780040204"><ele>307.0</ele><time>2026-04-04T13:09:37.999Z</time></trkpt><trkpt lat="44.76252335398322" lon="10.036281144516927"><ele>307.0</ele><time>2026-04-04T13:09:38.999Z</time></trkpt><trkpt lat="44.76258081754813" lon="10.036420221184075"><ele>307.0</ele><time>2026-04-04T13:09:39.999Z</time></trkpt><trkpt lat="44.76263680967678" lon="10.036558562678781"><ele>307.0</ele><time>2026-04-04T13:09:40.999Z</time></trkpt><trkpt lat="44.762689365542215" lon="10.036692545726243"><ele>311.0</ele><time>2026-04-04T13:09:41.999Z</time></trkpt><trkpt lat="44.762741962348784" lon="10.036814205749904"><ele>315.0</ele><time>2026-04-04T13:09:42.999Z</time></trkpt><trkpt lat="44.762805232020426" lon="10.036916772808887"><ele>319.0</ele><time>2026-04-04T13:09:43.999Z</time></trkpt><trkpt lat="44.76286218450629" lon="10.037034211201528"><ele>323.0</ele><time>2026-04-04T13:09:44.999Z</time></trkpt><trkpt lat="44.76290481184201" lon="10.037163053110975"><ele>327.0</ele><time>2026-04-04T13:09:45.999Z</time></trkpt><trkpt lat="44.7629532219199" lon="10.037281875756294"><ele>327.0</ele><time>2026-04-04T13:09:46.999Z</time></trkpt><trkpt lat="44.76301881727168" lon="10.037346244362453"><ele>327.0</ele><time>2026-04-04T13:09:47.999Z</time></trkpt><trkpt lat="44.763116630655425" lon="10.037379844054733"><ele>327.0</ele><time>2026-04-04T13:09:49.999Z</time></trkpt><trkpt lat="44.76318863754663" lon="10.037368375717977"><ele>327.0</ele><time>2026-04-04T13:09:50.999Z</time></trkpt><trkpt lat="44.763262468149186" lon="10.037372932281126"><ele>327.0</ele><time>2026-04-04T13:09:51.999Z</time></trkpt><trkpt lat="44.76332660561091" lon="10.037393380855763"><ele>327.0</ele><time>2026-04-04T13:09:52.999Z</time></trkpt><trkpt lat="44.763398083760265" lon="10.037399072459676"><ele>327.0</ele><time>2026-04-04T13:09:53.998Z</time></trkpt><trkpt lat="44.76350534202559" lon="10.037393480454897"><ele>327.0</ele><time>2026-04-04T13:09:54.998Z</time></trkpt><trkpt lat="44.76361588455314" lon="10.037387372808345"><ele>327.0</ele><time>2026-04-04T13:09:55.998Z</time></trkpt><trkpt lat="44.76373162541959" lon="10.03737965128794"><ele>327.0</ele><time>2026-04-04T13:09:56.998Z</time></trkpt><trkpt lat="44.76383792608352" lon="10.037364202234718"><ele>327.0</ele><time>2026-04-04T13:09:57.998Z</time></trkpt><trkpt lat="44.763930769543755" lon="10.037363719574639"><ele>330.6</ele><time>2026-04-04T13:09:58.998Z</time></trkpt><trkpt lat="44.76400927573943" lon="10.03735274201165"><ele>334.20000000000005</ele><time>2026-04-04T13:09:59.998Z</time></trkpt><trkpt lat="44.76408812977115" lon="10.03734043073355"><ele>337.8</ele><time>2026-04-04T13:10:00.998Z</time></trkpt><trkpt lat="44.764184745992985" lon="10.037315898206991"><ele>341.4</ele><time>2026-04-04T13:10:01.998Z</time></trkpt><trkpt lat="44.76428089706171" lon="10.03729311660899"><ele>345.0</ele><time>2026-04-04T13:10:02.998Z</time></trkpt><trkpt lat="44.76438289902574" lon="10.037272682821733"><ele>345.1666666666667</ele><time>2026-04-04T13:10:03.998Z</time></trkpt><trkpt lat="44.7644850591418" lon="10.03724855502171"><ele>345.3333333333333</ele><time>2026-04-04T13:10:04.998Z</time></trkpt><trkpt lat="44.76458251296861" lon="10.037233049631231"><ele>345.5</ele><time>2026-04-04T13:10:05.998Z</time></trkpt><trkpt lat="44.76467856303735" lon="10.037219412547802"><ele>345.66666666666663</ele><time>2026-04-04T13:10:06.998Z</time></trkpt><trkpt lat="44.76474994202198" lon="10.037207197156823"><ele>345.8333333333333</ele><time>2026-04-04T13:10:07.998Z</time></trkpt><trkpt lat="44.76481484322382" lon="10.03720107175602"><ele>346.0</ele><time>2026-04-04T13:10:08.998Z</time></trkpt><trkpt lat="44.76488904169346" lon="10.037214951041697"><ele>346.0</ele><time>2026-04-04T13:10:09.998Z</time></trkpt><trkpt lat="44.76499818401419" lon="10.037255775164963"><ele>346.0</ele><time>2026-04-04T13:10:11.998Z</time></trkpt><trkpt lat="44.765047718171175" lon="10.037369630657087"><ele>346.0</ele><time>2026-04-04T13:10:13.998Z</time></trkpt><trkpt lat="44.76500798727272" lon="10.037532269946173"><ele>346.0</ele><time>2026-04-04T13:10:15.998Z</time></trkpt><trkpt lat="44.765003938698" lon="10.037652193190908"><ele>346.0</ele><time>2026-04-04T13:10:16.998Z</time></trkpt><trkpt lat="44.7650036533116" lon="10.037770222440962"><ele>345.6</ele><time>2026-04-04T13:10:17.998Z</time></trkpt><trkpt lat="44.76501244438328" lon="10.037898060865393"><ele>345.20000000000005</ele><time>2026-04-04T13:10:18.998Z</time></trkpt><trkpt lat="44.76503144520622" lon="10.038005126991802"><ele>344.79999999999995</ele><time>2026-04-04T13:10:19.998Z</time></trkpt><trkpt lat="44.76506847363562" lon="10.038110439290254"><ele>344.4</ele><time>2026-04-04T13:10:20.998Z</time></trkpt><trkpt lat="44.76514938919305" lon="10.03820585316114"><ele>344.0</ele><time>2026-04-04T13:10:21.998Z</time></trkpt><trkpt lat="44.765191704006156" lon="10.038331337515578"><ele>344.0</ele><time>2026-04-04T13:10:22.998Z</time></trkpt><trkpt lat="44.76525072805678" lon="10.038446917374264"><ele>344.0</ele><time>2026-04-04T13:10:23.998Z</time></trkpt><trkpt lat="44.76531124237006" lon="10.038545279311002"><ele>344.0</ele><time>2026-04-04T13:10:24.998Z</time></trkpt><trkpt lat="44.76538037469547" lon="10.038625756734609"><ele>344.0</ele><time>2026-04-04T13:10:25.998Z</time></trkpt><trkpt lat="44.765478162089465" lon="10.038679560019474"><ele>344.0</ele><time>2026-04-04T13:10:26.998Z</time></trkpt><trkpt lat="44.76557271688231" lon="10.03871020982021"><ele>344.0</ele><time>2026-04-04T13:10:27.998Z</time></trkpt><trkpt lat="44.76566650792186" lon="10.038744799564814"><ele>344.0</ele><time>2026-04-04T13:10:28.998Z</time></trkpt><trkpt lat="44.76577001618382" lon="10.03877695560121"><ele>344.0</ele><time>2026-04-04T13:10:29.998Z</time></trkpt><trkpt lat="44.765861817577665" lon="10.038804043758628"><ele>344.0</ele><time>2026-04-04T13:10:30.998Z</time></trkpt><trkpt lat="44.765930915037806" lon="10.038838093281278"><ele>344.0</ele><time>2026-04-04T13:10:31.998Z</time></trkpt><trkpt lat="44.766027408123016" lon="10.038949061549465"><ele>343.79999999999995</ele><time>2026-04-04T13:10:33.998Z</time></trkpt><trkpt lat="44.766064444610166" lon="10.03904067939401"><ele>343.59999999999997</ele><time>2026-04-04T13:10:34.998Z</time></trkpt><trkpt lat="44.76615048826724" lon="10.03912799947228"><ele>343.4</ele><time>2026-04-04T13:10:35.998Z</time></trkpt><trkpt lat="44.76624519595568" lon="10.03918292469501"><ele>343.2</ele><time>2026-04-04T13:10:36.998Z</time></trkpt><trkpt lat="44.76637227585097" lon="10.039205304604803"><ele>343.0</ele><time>2026-04-04T13:10:37.998Z</time></trkpt><trkpt lat="44.76645957265688" lon="10.039209057864616"><ele>343.0</ele><time>2026-04-04T13:10:39Z</time></trkpt><trkpt lat="44.766547238646034" lon="10.039247102064568"><ele>343.0</ele><time>2026-04-04T13:10:40Z</time></trkpt><trkpt lat="44.7666058921222" lon="10.039280955695057"><ele>343.0</ele><time>2026-04-04T13:10:41Z</time></trkpt><trkpt lat="44.76667599183259" lon="10.039308513125599"><ele>343.0</ele><time>2026-04-04T13:10:42Z</time></trkpt><trkpt lat="44.76675214287366" lon="10.039341578255206"><ele>343.0</ele><time>2026-04-04T13:10:43Z</time></trkpt><trkpt lat="44.766825376733195" lon="10.0393787101794"><ele>343.0</ele><time>2026-04-04T13:10:44Z</time></trkpt><trkpt lat="44.766920912350635" lon="10.039438684486333"><ele>338.79999999999995</ele><time>2026-04-04T13:10:45Z</time></trkpt><trkpt lat="44.76700070978394" lon="10.039523818796795"><ele>334.6</ele><time>2026-04-04T13:10:46Z</time></trkpt><trkpt lat="44.767064755787224" lon="10.03959860251809"><ele>330.4</ele><time>2026-04-04T13:10:47Z</time></trkpt><trkpt lat="44.76713366990019" lon="10.03969180279262"><ele>326.20000000000005</ele><time>2026-04-04T13:10:48Z</time></trkpt><trkpt lat="44.76721004340972" lon="10.039794763963856"><ele>322.0</ele><time>2026-04-04T13:10:49Z</time></trkpt><trkpt lat="44.76727916517299" lon="10.039896962023288"><ele>324.16666666666663</ele><time>2026-04-04T13:10:50Z</time></trkpt><trkpt lat="44.767331190638146" lon="10.039978561644762"><ele>326.3333333333333</ele><time>2026-04-04T13:10:51Z</time></trkpt><trkpt lat="44.767382569368706" lon="10.040071217760627"><ele>328.5</ele><time>2026-04-04T13:10:52Z</time></trkpt><trkpt lat="44.76742965199899" lon="10.040162544426048"><ele>330.6666666666667</ele><time>2026-04-04T13:10:53Z</time></trkpt><trkpt lat="44.76747684110366" lon="10.040261158724588"><ele>332.83333333333337</ele><time>2026-04-04T13:10:54Z</time></trkpt><trkpt lat="44.76753078341144" lon="10.0403588031146"><ele>335.0</ele><time>2026-04-04T13:10:55Z</time></trkpt><trkpt lat="44.767579524208664" lon="10.040459622514488"><ele>335.0</ele><time>2026-04-04T13:10:56Z</time></trkpt><trkpt lat="44.76761476642218" lon="10.040550280830557"><ele>335.0</ele><time>2026-04-04T13:10:57Z</time></trkpt><trkpt lat="44.76762629169335" lon="10.040668229271937"><ele>335.0</ele><time>2026-04-04T13:10:58Z</time></trkpt><trkpt lat="44.76763797612521" lon="10.040811671573133"><ele>335.0</ele><time>2026-04-04T13:10:59Z</time></trkpt><trkpt lat="44.767646713167224" lon="10.040958084797852"><ele>335.0</ele><time>2026-04-04T13:11:00Z</time></trkpt><trkpt lat="44.767677089234255" lon="10.041068698392543"><ele>335.0</ele><time>2026-04-04T13:11:01Z</time></trkpt><trkpt lat="44.76769656934026" lon="10.041200276086737"><ele>334.2</ele><time>2026-04-04T13:11:02Z</time></trkpt><trkpt lat="44.767707777609985" lon="10.04132993364643"><ele>333.4</ele><time>2026-04-04T13:11:03Z</time></trkpt><trkpt lat="44.76770623907754" lon="10.04146876127954"><ele>332.6</ele><time>2026-04-04T13:11:04Z</time></trkpt><trkpt lat="44.76771392222278" lon="10.041626257217446"><ele>331.8</ele><time>2026-04-04T13:11:05Z</time></trkpt><trkpt lat="44.767728853507464" lon="10.041775409645584"><ele>331.0</ele><time>2026-04-04T13:11:06Z</time></trkpt><trkpt lat="44.767734481492525" lon="10.041918651229079"><ele>331.0</ele><time>2026-04-04T13:11:07Z</time></trkpt><trkpt lat="44.767737511730175" lon="10.042078151888644"><ele>331.0</ele><time>2026-04-04T13:11:08Z</time></trkpt><trkpt lat="44.76774312548086" lon="10.042250509457352"><ele>331.0</ele><time>2026-04-04T13:11:09Z</time></trkpt><trkpt lat="44.76775342552416" lon="10.042431277343569"><ele>331.0</ele><time>2026-04-04T13:11:10Z</time></trkpt><trkpt lat="44.76775353747626" lon="10.042584563107326"><ele>332.25</ele><time>2026-04-04T13:11:11Z</time></trkpt><trkpt lat="44.7677456575208" lon="10.042730520979369"><ele>333.5</ele><time>2026-04-04T13:11:12Z</time></trkpt><trkpt lat="44.76773507351947" lon="10.04289544916199"><ele>334.75</ele><time>2026-04-04T13:11:13Z</time></trkpt><trkpt lat="44.76772010747535" lon="10.043057341624388"><ele>336.0</ele><time>2026-04-04T13:11:14Z</time></trkpt><trkpt lat="44.76770346500532" lon="10.043223673540037"><ele>332.0</ele><time>2026-04-04T13:11:14.999Z</time></trkpt><trkpt lat="44.76768869479072" lon="10.04339319607429"><ele>328.0</ele><time>2026-04-04T13:11:15.999Z</time></trkpt><trkpt lat="44.76767674930888" lon="10.043562463314892"><ele>324.0</ele><time>2026-04-04T13:11:16.999Z</time></trkpt><trkpt lat="44.76767206706175" lon="10.043740972242878"><ele>320.0</ele><time>2026-04-04T13:11:17.999Z</time></trkpt><trkpt lat="44.76766855155477" lon="10.043897121262695"><ele>320.0</ele><time>2026-04-04T13:11:18.999Z</time></trkpt><trkpt lat="44.76766129783013" lon="10.044032836164797"><ele>320.0</ele><time>2026-04-04T13:11:19.999Z</time></trkpt><trkpt lat="44.76765369347955" lon="10.044156895379425"><ele>320.0</ele><time>2026-04-04T13:11:20.999Z</time></trkpt><trkpt lat="44.76764461321129" lon="10.044285652171757"><ele>320.0</ele><time>2026-04-04T13:11:21.999Z</time></trkpt><trkpt lat="44.767634142069475" lon="10.044431545544695"><ele>320.0</ele><time>2026-04-04T13:11:22.999Z</time></trkpt><trkpt lat="44.76762189756841" lon="10.044566342142213"><ele>320.5</ele><time>2026-04-04T13:11:23.999Z</time></trkpt><trkpt lat="44.767607137928444" lon="10.0447247564743"><ele>321.0</ele><time>2026-04-04T13:11:24.999Z</time></trkpt><trkpt lat="44.767590686008624" lon="10.044892368182287"><ele>321.5</ele><time>2026-04-04T13:11:25.999Z</time></trkpt><trkpt lat="44.76757205523617" lon="10.045062560092129"><ele>322.0</ele><time>2026-04-04T13:11:26.999Z</time></trkpt><trkpt lat="44.76756003308275" lon="10.0452332909897"><ele>322.5</ele><time>2026-04-04T13:11:27.999Z</time></trkpt><trkpt lat="44.76757982323554" lon="10.045394024138414"><ele>323.0</ele><time>2026-04-04T13:11:28.999Z</time></trkpt><trkpt lat="44.76758583475914" lon="10.045520934191062"><ele>323.5</ele><time>2026-04-04T13:11:29.999Z</time></trkpt><trkpt lat="44.76760767217479" lon="10.045622732050028"><ele>324.0</ele><time>2026-04-04T13:11:30.999Z</time></trkpt><trkpt lat="44.7676341998449" lon="10.045717160349826"><ele>324.5</ele><time>2026-04-04T13:11:31.999Z</time></trkpt><trkpt lat="44.7676595891538" lon="10.045824373250086"><ele>325.0</ele><time>2026-04-04T13:11:32.999Z</time></trkpt><trkpt lat="44.767598672408425" lon="10.04595602418494"><ele>326.8333333333333</ele><time>2026-04-04T13:11:34.999Z</time></trkpt><trkpt lat="44.76755379597893" lon="10.046042479463289"><ele>328.66666666666663</ele><time>2026-04-04T13:11:35.999Z</time></trkpt><trkpt lat="44.76748840641247" lon="10.046127586084031"><ele>330.5</ele><time>2026-04-04T13:11:36.999Z</time></trkpt><trkpt lat="44.767416082684065" lon="10.046166104345149"><ele>332.3333333333333</ele><time>2026-04-04T13:11:37.999Z</time></trkpt><trkpt lat="44.76733416093262" lon="10.046166481781864"><ele>334.1666666666667</ele><time>2026-04-04T13:11:38.999Z</time></trkpt><trkpt lat="44.76723891820439" lon="10.046192575002989"><ele>336.0</ele><time>2026-04-04T13:11:39.999Z</time></trkpt><trkpt lat="44.76714546288685" lon="10.046216165584582"><ele>336.0</ele><time>2026-04-04T13:11:40.999Z</time></trkpt><trkpt lat="44.767050752915" lon="10.046257619943049"><ele>336.0</ele><time>2026-04-04T13:11:41.999Z</time></trkpt><trkpt lat="44.766943426692514" lon="10.046261365066654"><ele>336.0</ele><time>2026-04-04T13:11:42.999Z</time></trkpt><trkpt lat="44.76684998334117" lon="10.046302240200712"><ele>336.0</ele><time>2026-04-04T13:11:43.999Z</time></trkpt><trkpt lat="44.76674309020012" lon="10.04631871782612"><ele>336.0</ele><time>2026-04-04T13:11:44.999Z</time></trkpt><trkpt lat="44.76664527488665" lon="10.046367008972098"><ele>335.20000000000005</ele><time>2026-04-04T13:11:45.999Z</time></trkpt><trkpt lat="44.76655794067801" lon="10.046427330429333"><ele>334.40000000000003</ele><time>2026-04-04T13:11:46.999Z</time></trkpt><trkpt lat="44.76649151800795" lon="10.046507007869664"><ele>333.6</ele><time>2026-04-04T13:11:47.999Z</time></trkpt><trkpt lat="44.76642857306119" lon="10.046623035041343"><ele>332.8</ele><time>2026-04-04T13:11:48.999Z</time></trkpt><trkpt lat="44.76639549280247" lon="10.046741831159554"><ele>332.0</ele><time>2026-04-04T13:11:49.999Z</time></trkpt><trkpt lat="44.76642078656415" lon="10.046851475450541"><ele>335.8</ele><time>2026-04-04T13:11:50.999Z</time></trkpt><trkpt lat="44.76640552716246" lon="10.046966228937695"><ele>339.6</ele><time>2026-04-04T13:11:51.999Z</time></trkpt><trkpt lat="44.766395562228155" lon="10.047116650135134"><ele>343.40000000000003</ele><time>2026-04-04T13:11:52.999Z</time></trkpt><trkpt lat="44.766346446900506" lon="10.047267119508856"><ele>347.20000000000005</ele><time>2026-04-04T13:11:53.999Z</time></trkpt><trkpt lat="44.766306361582274" lon="10.047371531703625"><ele>351.0</ele><time>2026-04-04T13:11:54.999Z</time></trkpt><trkpt lat="44.76625169781793" lon="10.047464026517478"><ele>349.6</ele><time>2026-04-04T13:11:55.999Z</time></trkpt><trkpt lat="44.76619557344386" lon="10.047554040276582"><ele>348.20000000000005</ele><time>2026-04-04T13:11:56.999Z</time></trkpt><trkpt lat="44.76612522113453" lon="10.047638225962446"><ele>346.79999999999995</ele><time>2026-04-04T13:11:57.999Z</time></trkpt><trkpt lat="44.76603017874798" lon="10.047718535020476"><ele>345.4</ele><time>2026-04-04T13:11:58.998Z</time></trkpt><trkpt lat="44.76590525914692" lon="10.047752750969025"><ele>344.0</ele><time>2026-04-04T13:11:59.998Z</time></trkpt><trkpt lat="44.76582999909453" lon="10.047832662227776"><ele>344.0</ele><time>2026-04-04T13:12:00.998Z</time></trkpt><trkpt lat="44.76577916641404" lon="10.047906332228223"><ele>344.0</ele><time>2026-04-04T13:12:01.998Z</time></trkpt><trkpt lat="44.76574416243677" lon="10.048008054344255"><ele>344.0</ele><time>2026-04-04T13:12:02.998Z</time></trkpt><trkpt lat="44.76573763483264" lon="10.048135454519116"><ele>344.0</ele><time>2026-04-04T13:12:03.998Z</time></trkpt><trkpt lat="44.765772744708855" lon="10.048266457512248"><ele>344.0</ele><time>2026-04-04T13:12:04.998Z</time></trkpt><trkpt lat="44.76579770787195" lon="10.048413536416742"><ele>345.6</ele><time>2026-04-04T13:12:05.998Z</time></trkpt><trkpt lat="44.765830812903886" lon="10.04856737204078"><ele>347.2</ele><time>2026-04-04T13:12:06.998Z</time></trkpt><trkpt lat="44.765842400735735" lon="10.048713928030384"><ele>348.8</ele><time>2026-04-04T13:12:07.998Z</time></trkpt><trkpt lat="44.76583664987135" lon="10.048844703287177"><ele>350.40000000000003</ele><time>2026-04-04T13:12:08.998Z</time></trkpt><trkpt lat="44.76584497486459" lon="10.048982485050427"><ele>352.0</ele><time>2026-04-04T13:12:09.998Z</time></trkpt><trkpt lat="44.765824379646375" lon="10.049118268200589"><ele>351.3333333333333</ele><time>2026-04-04T13:12:10.998Z</time></trkpt><trkpt lat="44.76583254779885" lon="10.049277753280231"><ele>350.66666666666663</ele><time>2026-04-04T13:12:11.998Z</time></trkpt><trkpt lat="44.76583395803175" lon="10.049403046571568"><ele>350.0</ele><time>2026-04-04T13:12:12.998Z</time></trkpt><trkpt lat="44.76582485251788" lon="10.049525779338785"><ele>349.3333333333333</ele><time>2026-04-04T13:12:13.998Z</time></trkpt><trkpt lat="44.76585344547646" lon="10.049636097590792"><ele>348.6666666666667</ele><time>2026-04-04T13:12:14.998Z</time></trkpt><trkpt lat="44.765866972213004" lon="10.049732937485688"><ele>348.0</ele><time>2026-04-04T13:12:15.998Z</time></trkpt><trkpt lat="44.76592286345084" lon="10.049848651615248"><ele>346.75</ele><time>2026-04-04T13:12:16.998Z</time></trkpt><trkpt lat="44.76595010171463" lon="10.050025096462567"><ele>345.5</ele><time>2026-04-04T13:12:17.998Z</time></trkpt><trkpt lat="44.765975634297575" lon="10.050226147487813"><ele>344.25</ele><time>2026-04-04T13:12:18.998Z</time></trkpt><trkpt lat="44.765989105347614" lon="10.05041555170018"><ele>343.0</ele><time>2026-04-04T13:12:19.998Z</time></trkpt><trkpt lat="44.76600084386322" lon="10.050623485584799"><ele>341.25</ele><time>2026-04-04T13:12:20.998Z</time></trkpt><trkpt lat="44.7660193384784" lon="10.050832666184478"><ele>339.5</ele><time>2026-04-04T13:12:21.998Z</time></trkpt><trkpt lat="44.76604413221432" lon="10.051019151712833"><ele>337.75</ele><time>2026-04-04T13:12:22.998Z</time></trkpt><trkpt lat="44.76607213818023" lon="10.051191696928866"><ele>336.0</ele><time>2026-04-04T13:12:23.998Z</time></trkpt><trkpt lat="44.76609944381471" lon="10.051360313051804"><ele>336.4</ele><time>2026-04-04T13:12:24.998Z</time></trkpt><trkpt lat="44.76611712268522" lon="10.051516500537826"><ele>336.8</ele><time>2026-04-04T13:12:25.998Z</time></trkpt><trkpt lat="44.7661093074656" lon="10.051652736632883"><ele>337.2</ele><time>2026-04-04T13:12:26.998Z</time></trkpt><trkpt lat="44.76607779706873" lon="10.051758891661782"><ele>337.59999999999997</ele><time>2026-04-04T13:12:27.998Z</time></trkpt><trkpt lat="44.76602809564055" lon="10.051868005245183"><ele>338.0</ele><time>2026-04-04T13:12:28.998Z</time></trkpt><trkpt lat="44.76594751782792" lon="10.051984246554715"><ele>338.0</ele><time>2026-04-04T13:12:29.998Z</time></trkpt><trkpt lat="44.76585148583673" lon="10.052128037473354"><ele>338.0</ele><time>2026-04-04T13:12:30.998Z</time></trkpt><trkpt lat="44.7657625263434" lon="10.052263217424082"><ele>338.0</ele><time>2026-04-04T13:12:31.998Z</time></trkpt><trkpt lat="44.76567792297011" lon="10.052400217295151"><ele>338.0</ele><time>2026-04-04T13:12:32.998Z</time></trkpt><trkpt lat="44.7655941625187" lon="10.052547565164195"><ele>341.0</ele><time>2026-04-04T13:12:33.998Z</time></trkpt><trkpt lat="44.765502822689854" lon="10.052695773161119"><ele>344.0</ele><time>2026-04-04T13:12:34.998Z</time></trkpt><trkpt lat="44.765406036239625" lon="10.052831967373125"><ele>347.0</ele><time>2026-04-04T13:12:35.998Z</time></trkpt><trkpt lat="44.7653280785427" lon="10.052948735333347"><ele>350.0</ele><time>2026-04-04T13:12:36.998Z</time></trkpt><trkpt lat="44.765262124607986" lon="10.05305163451956"><ele>350.0</ele><time>2026-04-04T13:12:37.998Z</time></trkpt><trkpt lat="44.76520377866473" lon="10.053157146376867"><ele>350.0</ele><time>2026-04-04T13:12:38.998Z</time></trkpt><trkpt lat="44.765156559158676" lon="10.053276169145159"><ele>350.0</ele><time>2026-04-04T13:12:39.998Z</time></trkpt><trkpt lat="44.765133446881606" lon="10.0534279845435"><ele>350.0</ele><time>2026-04-04T13:12:40.998Z</time></trkpt><trkpt lat="44.765126790750095" lon="10.053578991679343"><ele>350.0</ele><time>2026-04-04T13:12:41.998Z</time></trkpt><trkpt lat="44.7651481332892" lon="10.053715473047484"><ele>350.5</ele><time>2026-04-04T13:12:42.998Z</time></trkpt><trkpt lat="44.76518718703391" lon="10.0538402963558"><ele>351.0</ele><time>2026-04-04T13:12:43.997Z</time></trkpt><trkpt lat="44.76526618577961" lon="10.053950715080408"><ele>351.5</ele><time>2026-04-04T13:12:45Z</time></trkpt><trkpt lat="44.76534873457642" lon="10.054082747690998"><ele>352.0</ele><time>2026-04-04T13:12:46Z</time></trkpt><trkpt lat="44.765449460733" lon="10.054245636268188"><ele>352.0</ele><time>2026-04-04T13:12:47Z</time></trkpt><trkpt lat="44.765547357935134" lon="10.054434590975173"><ele>352.0</ele><time>2026-04-04T13:12:48Z</time></trkpt><trkpt lat="44.76559494666362" lon="10.054595296544298"><ele>352.0</ele><time>2026-04-04T13:12:49Z</time></trkpt><trkpt lat="44.765636423945196" lon="10.054752046068112"><ele>352.0</ele><time>2026-04-04T13:12:50Z</time></trkpt><trkpt lat="44.7656655963631" lon="10.05490439352683"><ele>350.20000000000005</ele><time>2026-04-04T13:12:51Z</time></trkpt><trkpt lat="44.765676394302844" lon="10.055053104553258"><ele>348.4</ele><time>2026-04-04T13:12:52Z</time></trkpt><trkpt lat="44.76568874524628" lon="10.055210743479709"><ele>346.6</ele><time>2026-04-04T13:12:53Z</time></trkpt><trkpt lat="44.765698926259674" lon="10.05537477953142"><ele>344.79999999999995</ele><time>2026-04-04T13:12:54Z</time></trkpt><trkpt lat="44.76571163053204" lon="10.055530473911336"><ele>343.0</ele><time>2026-04-04T13:12:55Z</time></trkpt><trkpt lat="44.765724740566974" lon="10.055665714416769"><ele>340.25</ele><time>2026-04-04T13:12:56Z</time></trkpt><trkpt lat="44.7657402234497" lon="10.05581102850562"><ele>337.5</ele><time>2026-04-04T13:12:57Z</time></trkpt><trkpt lat="44.76576150473634" lon="10.055979239103337"><ele>334.75</ele><time>2026-04-04T13:12:58Z</time></trkpt><trkpt lat="44.76579131431521" lon="10.056143176254283"><ele>332.0</ele><time>2026-04-04T13:12:59Z</time></trkpt><trkpt lat="44.7658242324298" lon="10.05629134911929"><ele>332.0</ele><time>2026-04-04T13:13:00Z</time></trkpt><trkpt lat="44.76585836662379" lon="10.056420443446909"><ele>332.0</ele><time>2026-04-04T13:13:01Z</time></trkpt><trkpt lat="44.76590387850139" lon="10.056522051406652"><ele>332.0</ele><time>2026-04-04T13:13:02Z</time></trkpt><trkpt lat="44.76594651875716" lon="10.056642904761512"><ele>332.0</ele><time>2026-04-04T13:13:03Z</time></trkpt><trkpt lat="44.76598787750342" lon="10.056781283820284"><ele>332.0</ele><time>2026-04-04T13:13:04Z</time></trkpt><trkpt lat="44.76602264585915" lon="10.056897753984357"><ele>329.83333333333337</ele><time>2026-04-04T13:13:05Z</time></trkpt><trkpt lat="44.76604523277175" lon="10.057011479449368"><ele>327.6666666666667</ele><time>2026-04-04T13:13:06Z</time></trkpt><trkpt lat="44.76604426051916" lon="10.057135620662073"><ele>325.5</ele><time>2026-04-04T13:13:07Z</time></trkpt><trkpt lat="44.76604904772248" lon="10.057254110868728"><ele>323.3333333333333</ele><time>2026-04-04T13:13:08Z</time></trkpt><trkpt lat="44.76604944762536" lon="10.057369304503533"><ele>321.16666666666663</ele><time>2026-04-04T13:13:09Z</time></trkpt><trkpt lat="44.76604111214287" lon="10.05749107968592"><ele>319.0</ele><time>2026-04-04T13:13:10Z</time></trkpt><trkpt lat="44.76602511556019" lon="10.057585178161501"><ele>319.0</ele><time>2026-04-04T13:13:11Z</time></trkpt><trkpt lat="44.76599639289052" lon="10.057676633955408"><ele>319.0</ele><time>2026-04-04T13:13:12Z</time></trkpt><trkpt lat="44.76595596874471" lon="10.057779581924548"><ele>319.0</ele><time>2026-04-04T13:13:13Z</time></trkpt><trkpt lat="44.765894236295466" lon="10.057876956121575"><ele>319.0</ele><time>2026-04-04T13:13:14Z</time></trkpt><trkpt lat="44.76586167211991" lon="10.05797338168828"><ele>319.0</ele><time>2026-04-04T13:13:15Z</time></trkpt><trkpt lat="44.765850374503195" lon="10.058088142989495"><ele>319.0</ele><time>2026-04-04T13:13:16Z</time></trkpt><trkpt lat="44.765853704352324" lon="10.058177887693759"><ele>319.0</ele><time>2026-04-04T13:13:17Z</time></trkpt><trkpt lat="44.76592367759239" lon="10.058279592337843"><ele>319.0</ele><time>2026-04-04T13:13:18Z</time></trkpt><trkpt lat="44.766020511911485" lon="10.05834429027295"><ele>319.0</ele><time>2026-04-04T13:13:19Z</time></trkpt><trkpt lat="44.76611320696138" lon="10.058437457037707"><ele>319.0</ele><time>2026-04-04T13:13:20Z</time></trkpt><trkpt lat="44.76620021975267" lon="10.058513110415795"><ele>319.0</ele><time>2026-04-04T13:13:20.999Z</time></trkpt><trkpt lat="44.76627150473337" lon="10.058600798299228"><ele>316.7142857142857</ele><time>2026-04-04T13:13:21.999Z</time></trkpt><trkpt lat="44.76634384289543" lon="10.058677376898972"><ele>314.4285714285714</ele><time>2026-04-04T13:13:22.999Z</time></trkpt><trkpt lat="44.766403053439014" lon="10.058745950293458"><ele>312.1428571428571</ele><time>2026-04-04T13:13:23.999Z</time></trkpt><trkpt lat="44.76645330322741" lon="10.058814988575943"><ele>309.8571428571429</ele><time>2026-04-04T13:13:24.999Z</time></trkpt><trkpt lat="44.76649570361665" lon="10.058889504860819"><ele>307.57142857142856</ele><time>2026-04-04T13:13:25.999Z</time></trkpt><trkpt lat="44.76651351366767" lon="10.058982386926084"><ele>305.2857142857143</ele><time>2026-04-04T13:13:26.999Z</time></trkpt><trkpt lat="44.766518516111084" lon="10.05908087716987"><ele>303.0</ele><time>2026-04-04T13:13:27.999Z</time></trkpt><trkpt lat="44.766518640197305" lon="10.059197719268353"><ele>302.1666666666667</ele><time>2026-04-04T13:13:28.999Z</time></trkpt><trkpt lat="44.76651166264956" lon="10.05931392139762"><ele>301.3333333333333</ele><time>2026-04-04T13:13:29.999Z</time></trkpt><trkpt lat="44.76649574802297" lon="10.059432919695022"><ele>300.5</ele><time>2026-04-04T13:13:30.999Z</time></trkpt><trkpt lat="44.766476521013814" lon="10.059546341733757"><ele>299.66666666666663</ele><time>2026-04-04T13:13:31.999Z</time></trkpt><trkpt lat="44.76645552792091" lon="10.05966309851767"><ele>298.8333333333333</ele><time>2026-04-04T13:13:32.999Z</time></trkpt><trkpt lat="44.76643691906901" lon="10.059777824583236"><ele>298.0</ele><time>2026-04-04T13:13:33.999Z</time></trkpt><trkpt lat="44.76642927703234" lon="10.059888028142556"><ele>296.4</ele><time>2026-04-04T13:13:34.999Z</time></trkpt><trkpt lat="44.76644067424768" lon="10.060001057963166"><ele>294.8</ele><time>2026-04-04T13:13:35.999Z</time></trkpt><trkpt lat="44.766499199190584" lon="10.060113060005962"><ele>293.2</ele><time>2026-04-04T13:13:36.999Z</time></trkpt><trkpt lat="44.766498233874024" lon="10.060228395960431"><ele>291.6</ele><time>2026-04-04T13:13:37.999Z</time></trkpt><trkpt lat="44.766523232115105" lon="10.060355346836719"><ele>290.0</ele><time>2026-04-04T13:13:38.999Z</time></trkpt><trkpt lat="44.76656289974793" lon="10.060488570116565"><ele>290.0</ele><time>2026-04-04T13:13:39.999Z</time></trkpt><trkpt lat="44.76659840441019" lon="10.060603079997026"><ele>290.0</ele><time>2026-04-04T13:13:40.999Z</time></trkpt><trkpt lat="44.76664004487554" lon="10.06072362065548"><ele>290.0</ele><time>2026-04-04T13:13:41.999Z</time></trkpt><trkpt lat="44.76668231550624" lon="10.060848154516554"><ele>290.0</ele><time>2026-04-04T13:13:42.999Z</time></trkpt><trkpt lat="44.76672519721453" lon="10.060974489002163"><ele>290.0</ele><time>2026-04-04T13:13:43.999Z</time></trkpt><trkpt lat="44.7667666953041" lon="10.061093414500746"><ele>288.6</ele><time>2026-04-04T13:13:44.999Z</time></trkpt><trkpt lat="44.76680557313494" lon="10.06120351098601"><ele>287.2</ele><time>2026-04-04T13:13:45.999Z</time></trkpt><trkpt lat="44.76684730851962" lon="10.061311560414781"><ele>285.8</ele><time>2026-04-04T13:13:46.999Z</time></trkpt><trkpt lat="44.76690432624235" lon="10.061409880948634"><ele>284.4</ele><time>2026-04-04T13:13:47.999Z</time></trkpt><trkpt lat="44.76695621842012" lon="10.061535402747609"><ele>283.0</ele><time>2026-04-04T13:13:48.999Z</time></trkpt><trkpt lat="44.767017251763114" lon="10.061669186525519"><ele>279.75</ele><time>2026-04-04T13:13:49.999Z</time></trkpt><trkpt lat="44.76706070402831" lon="10.061825242461564"><ele>276.5</ele><time>2026-04-04T13:13:50.999Z</time></trkpt><trkpt lat="44.76711706911164" lon="10.061970338437018"><ele>273.25</ele><time>2026-04-04T13:13:51.999Z</time></trkpt><trkpt lat="44.76717773919659" lon="10.0621273393425"><ele>270.0</ele><time>2026-04-04T13:13:52.999Z</time></trkpt><trkpt lat="44.76721974831208" lon="10.062277555240854"><ele>270.0</ele><time>2026-04-04T13:13:53.999Z</time></trkpt><trkpt lat="44.76724878839677" lon="10.06244294552992"><ele>270.0</ele><time>2026-04-04T13:13:54.999Z</time></trkpt><trkpt lat="44.767283002365325" lon="10.062641162837844"><ele>270.0</ele><time>2026-04-04T13:13:55.999Z</time></trkpt><trkpt lat="44.76731961652001" lon="10.06283733852834"><ele>270.0</ele><time>2026-04-04T13:13:56.999Z</time></trkpt><trkpt lat="44.767365073092826" lon="10.063044441177514"><ele>270.5</ele><time>2026-04-04T13:13:57.999Z</time></trkpt><trkpt lat="44.76740955592367" lon="10.063240281130895"><ele>271.0</ele><time>2026-04-04T13:13:58.999Z</time></trkpt><trkpt lat="44.76745787032699" lon="10.06343252808992"><ele>271.5</ele><time>2026-04-04T13:13:59.999Z</time></trkpt><trkpt lat="44.767525643458725" lon="10.063600288619613"><ele>272.0</ele><time>2026-04-04T13:14:00.999Z</time></trkpt><trkpt lat="44.76756236477288" lon="10.063751401859696"><ele>272.25</ele><time>2026-04-04T13:14:01.999Z</time></trkpt><trkpt lat="44.76759864148431" lon="10.063900684593158"><ele>272.5</ele><time>2026-04-04T13:14:02.999Z</time></trkpt><trkpt lat="44.767647289833995" lon="10.064060634730073"><ele>272.75</ele><time>2026-04-04T13:14:03.999Z</time></trkpt><trkpt lat="44.76769083676272" lon="10.064229666265248"><ele>273.0</ele><time>2026-04-04T13:14:04.999Z</time></trkpt><trkpt lat="44.767705132812395" lon="10.0644169903728"><ele>271.8</ele><time>2026-04-04T13:14:05.998Z</time></trkpt><trkpt lat="44.767747077055205" lon="10.064587292735556"><ele>270.6</ele><time>2026-04-04T13:14:06.998Z</time></trkpt><trkpt lat="44.76778279961567" lon="10.064728440452427"><ele>269.4</ele><time>2026-04-04T13:14:07.998Z</time></trkpt><trkpt lat="44.767817374715655" lon="10.064862649565706"><ele>268.2</ele><time>2026-04-04T13:14:08.998Z</time></trkpt><trkpt lat="44.767852682265264" lon="10.064996383374812"><ele>267.0</ele><time>2026-04-04T13:14:09.998Z</time></trkpt><trkpt lat="44.76789637677077" lon="10.065155832076169"><ele>267.0</ele><time>2026-04-04T13:14:10.998Z</time></trkpt><trkpt lat="44.76793879281474" lon="10.065319564361316"><ele>267.0</ele><time>2026-04-04T13:14:11.998Z</time></trkpt><trkpt lat="44.767977547446336" lon="10.065479563632792"><ele>267.0</ele><time>2026-04-04T13:14:12.998Z</time></trkpt><trkpt lat="44.76802258147636" lon="10.065623785097618"><ele>267.0</ele><time>2026-04-04T13:14:13.998Z</time></trkpt><trkpt lat="44.76803778222544" lon="10.065792612110252"><ele>269.25</ele><time>2026-04-04T13:14:14.998Z</time></trkpt><trkpt lat="44.76804818314778" lon="10.065963374285406"><ele>271.5</ele><time>2026-04-04T13:14:15.998Z</time></trkpt><trkpt lat="44.768037650399634" lon="10.066147845917838"><ele>273.75</ele><time>2026-04-04T13:14:16.998Z</time></trkpt><trkpt lat="44.768020918442744" lon="10.066310571646545"><ele>276.0</ele><time>2026-04-04T13:14:17.998Z</time></trkpt><trkpt lat="44.76799769566374" lon="10.066470981501343"><ele>276.8</ele><time>2026-04-04T13:14:18.998Z</time></trkpt><trkpt lat="44.767966375560675" lon="10.066639861896428"><ele>277.6</ele><time>2026-04-04T13:14:19.998Z</time></trkpt><trkpt lat="44.76792266249226" lon="10.066789398221092"><ele>278.4</ele><time>2026-04-04T13:14:20.998Z</time></trkpt><trkpt lat="44.767878753747894" lon="10.066924102379646"><ele>279.2</ele><time>2026-04-04T13:14:21.998Z</time></trkpt><trkpt lat="44.76784386392574" lon="10.067049729930199"><ele>280.0</ele><time>2026-04-04T13:14:22.998Z</time></trkpt><trkpt lat="44.767819913457714" lon="10.067180428107273"><ele>280.0</ele><time>2026-04-04T13:14:23.998Z</time></trkpt><trkpt lat="44.76780822416962" lon="10.0673170369494"><ele>280.0</ele><time>2026-04-04T13:14:24.998Z</time></trkpt><trkpt lat="44.767815938831006" lon="10.067468728752235"><ele>280.0</ele><time>2026-04-04T13:14:25.998Z</time></trkpt><trkpt lat="44.76784985773356" lon="10.067605121482037"><ele>280.0</ele><time>2026-04-04T13:14:26.998Z</time></trkpt><trkpt lat="44.76790088369361" lon="10.067718385397924"><ele>280.0</ele><time>2026-04-04T13:14:27.998Z</time></trkpt><trkpt lat="44.767973488452284" lon="10.067814793905955"><ele>279.6</ele><time>2026-04-04T13:14:28.998Z</time></trkpt><trkpt lat="44.76807643641287" lon="10.067853036967282"><ele>279.2</ele><time>2026-04-04T13:14:29.998Z</time></trkpt><trkpt lat="44.76817410265783" lon="10.067873259612153"><ele>278.8</ele><time>2026-04-04T13:14:30.998Z</time></trkpt><trkpt lat="44.76826877251162" lon="10.067863098403832"><ele>278.4</ele><time>2026-04-04T13:14:31.998Z</time></trkpt><trkpt lat="44.768377788444944" lon="10.067848097206905"><ele>278.0</ele><time>2026-04-04T13:14:32.998Z</time></trkpt><trkpt lat="44.76849171709794" lon="10.06783234187194"><ele>275.75</ele><time>2026-04-04T13:14:33.998Z</time></trkpt><trkpt lat="44.76861711442013" lon="10.067823055433154"><ele>273.5</ele><time>2026-04-04T13:14:34.998Z</time></trkpt><trkpt lat="44.76874010696299" lon="10.067815032812684"><ele>271.25</ele><time>2026-04-04T13:14:35.998Z</time></trkpt><trkpt lat="44.768846303092324" lon="10.067796319604804"><ele>269.0</ele><time>2026-04-04T13:14:36.998Z</time></trkpt><trkpt lat="44.76895125377147" lon="10.067780593589822"><ele>269.0</ele><time>2026-04-04T13:14:37.998Z</time></trkpt><trkpt lat="44.769066331872494" lon="10.06776164098644"><ele>269.0</ele><time>2026-04-04T13:14:38.998Z</time></trkpt><trkpt lat="44.76918231358387" lon="10.067767300840536"><ele>269.0</ele><time>2026-04-04T13:14:39.998Z</time></trkpt><trkpt lat="44.76928737298429" lon="10.067802914449766"><ele>269.0</ele><time>2026-04-04T13:14:40.998Z</time></trkpt><trkpt lat="44.76936432374339" lon="10.06789940687017"><ele>269.0</ele><time>2026-04-04T13:14:41.998Z</time></trkpt><trkpt lat="44.769436295770404" lon="10.067999331780118"><ele>267.25</ele><time>2026-04-04T13:14:42.998Z</time></trkpt><trkpt lat="44.76951176849421" lon="10.068105658291534"><ele>265.5</ele><time>2026-04-04T13:14:43.998Z</time></trkpt><trkpt lat="44.76959193237134" lon="10.068220874441113"><ele>263.75</ele><time>2026-04-04T13:14:44.998Z</time></trkpt><trkpt lat="44.76967292744421" lon="10.068339219091728"><ele>262.0</ele><time>2026-04-04T13:14:45.998Z</time></trkpt><trkpt lat="44.76975236529076" lon="10.068460774017096"><ele>262.0</ele><time>2026-04-04T13:14:46.998Z</time></trkpt><trkpt lat="44.76981936249793" lon="10.068584252602985"><ele>262.0</ele><time>2026-04-04T13:14:47.998Z</time></trkpt><trkpt lat="44.76988500062068" lon="10.068721089938927"><ele>262.0</ele><time>2026-04-04T13:14:48.998Z</time></trkpt><trkpt lat="44.7699354274277" lon="10.06885718913485"><ele>262.0</ele><time>2026-04-04T13:14:49.997Z</time></trkpt><trkpt lat="44.769973818085475" lon="10.06900004140164"><ele>262.0</ele><time>2026-04-04T13:14:51Z</time></trkpt><trkpt lat="44.77000105826063" lon="10.06915157081575"><ele>263.0</ele><time>2026-04-04T13:14:52Z</time></trkpt><trkpt lat="44.77001699610382" lon="10.069289933105239"><ele>264.0</ele><time>2026-04-04T13:14:53Z</time></trkpt><trkpt lat="44.77002372700384" lon="10.06942532844091"><ele>265.0</ele><time>2026-04-04T13:14:54Z</time></trkpt><trkpt lat="44.77002728464939" lon="10.069570037041766"><ele>266.0</ele><time>2026-04-04T13:14:55Z</time></trkpt><trkpt lat="44.77002627354827" lon="10.06972224640073"><ele>267.0</ele><time>2026-04-04T13:14:56Z</time></trkpt><trkpt lat="44.77001278404952" lon="10.069852224115577"><ele>267.8333333333333</ele><time>2026-04-04T13:14:57Z</time></trkpt><trkpt lat="44.769992541967" lon="10.06996546598435"><ele>268.6666666666667</ele><time>2026-04-04T13:14:58Z</time></trkpt><trkpt lat="44.76996345611549" lon="10.070086195072573"><ele>269.5</ele><time>2026-04-04T13:14:59Z</time></trkpt><trkpt lat="44.769936771821385" lon="10.070188863475494"><ele>270.33333333333337</ele><time>2026-04-04T13:15:00Z</time></trkpt><trkpt lat="44.76991452403179" lon="10.070305421110298"><ele>271.1666666666667</ele><time>2026-04-04T13:15:01Z</time></trkpt><trkpt lat="44.76991096421822" lon="10.070435334248076"><ele>272.0</ele><time>2026-04-04T13:15:02Z</time></trkpt><trkpt lat="44.76994447462913" lon="10.070560532013769"><ele>272.0</ele><time>2026-04-04T13:15:03Z</time></trkpt><trkpt lat="44.770024563026944" lon="10.070640733299403"><ele>272.0</ele><time>2026-04-04T13:15:04Z</time></trkpt><trkpt lat="44.77010019050711" lon="10.070712682328866"><ele>272.0</ele><time>2026-04-04T13:15:05Z</time></trkpt><trkpt lat="44.7701792621626" lon="10.070781937276553"><ele>272.0</ele><time>2026-04-04T13:15:06Z</time></trkpt><trkpt lat="44.770261558934486" lon="10.070831790765256"><ele>272.0</ele><time>2026-04-04T13:15:07Z</time></trkpt><trkpt lat="44.77032739996804" lon="10.070892373714413"><ele>274.0</ele><time>2026-04-04T13:15:08Z</time></trkpt><trkpt lat="44.77039323316053" lon="10.070949859962626"><ele>276.0</ele><time>2026-04-04T13:15:09Z</time></trkpt><trkpt lat="44.77046282682943" lon="10.070996227423477"><ele>278.0</ele><time>2026-04-04T13:15:10Z</time></trkpt><trkpt lat="44.77055415482248" lon="10.07103877657084"><ele>280.0</ele><time>2026-04-04T13:15:11Z</time></trkpt><trkpt lat="44.77065960101" lon="10.07105707258086"><ele>282.0</ele><time>2026-04-04T13:15:12Z</time></trkpt><trkpt lat="44.77076987932885" lon="10.071076942391791"><ele>282.0</ele><time>2026-04-04T13:15:13Z</time></trkpt><trkpt lat="44.77086961294827" lon="10.071106782173151"><ele>282.0</ele><time>2026-04-04T13:15:14Z</time></trkpt><trkpt lat="44.77094875883082" lon="10.071149930028907"><ele>282.0</ele><time>2026-04-04T13:15:15Z</time></trkpt><trkpt lat="44.771011790031594" lon="10.071241359544587"><ele>282.0</ele><time>2026-04-04T13:15:16Z</time></trkpt><trkpt lat="44.77107277506565" lon="10.071337574336233"><ele>282.0</ele><time>2026-04-04T13:15:17Z</time></trkpt><trkpt lat="44.771130682915306" lon="10.071449242288695"><ele>284.8</ele><time>2026-04-04T13:15:18Z</time></trkpt><trkpt lat="44.77118277278458" lon="10.071580128062495"><ele>287.6</ele><time>2026-04-04T13:15:19Z</time></trkpt><trkpt lat="44.771220869476956" lon="10.071722106395011"><ele>290.40000000000003</ele><time>2026-04-04T13:15:20Z</time></trkpt><trkpt lat="44.77125738960798" lon="10.071876014605161"><ele>293.2</ele><time>2026-04-04T13:15:21Z</time></trkpt><trkpt lat="44.771293017375235" lon="10.072029582542136"><ele>296.0</ele><time>2026-04-04T13:15:22Z</time></trkpt><trkpt lat="44.77132139635621" lon="10.072159950539877"><ele>296.1666666666667</ele><time>2026-04-04T13:15:23Z</time></trkpt><trkpt lat="44.77134384471279" lon="10.07227825852251"><ele>296.33333333333337</ele><time>2026-04-04T13:15:24Z</time></trkpt><trkpt lat="44.77136706823554" lon="10.072414971202015"><ele>296.5</ele><time>2026-04-04T13:15:25Z</time></trkpt><trkpt lat="44.77138809583098" lon="10.07254567382126"><ele>296.6666666666667</ele><time>2026-04-04T13:15:26Z</time></trkpt><trkpt lat="44.771407487811814" lon="10.072666208552551"><ele>296.8333333333333</ele><time>2026-04-04T13:15:26.999Z</time></trkpt><trkpt lat="44.77142793496056" lon="10.072769393875825"><ele>297.0</ele><time>2026-04-04T13:15:27.999Z</time></trkpt><trkpt lat="44.7714732817276" lon="10.072860874825365"><ele>295.4</ele><time>2026-04-04T13:15:28.999Z</time></trkpt><trkpt lat="44.77156067848258" lon="10.072967800830122"><ele>293.79999999999995</ele><time>2026-04-04T13:15:30.999Z</time></trkpt><trkpt lat="44.771614772052835" lon="10.07301461439382"><ele>292.2</ele><time>2026-04-04T13:15:31.999Z</time></trkpt><trkpt lat="44.77170699540049" lon="10.072969008790192"><ele>290.59999999999997</ele><time>2026-04-04T13:15:32.999Z</time></trkpt><trkpt lat="44.77181047315209" lon="10.072909172516319"><ele>289.0</ele><time>2026-04-04T13:15:33.999Z</time></trkpt><trkpt lat="44.7719060883966" lon="10.072837841429982"><ele>288.2</ele><time>2026-04-04T13:15:34.999Z</time></trkpt><trkpt lat="44.7720011204196" lon="10.072760366740793"><ele>287.4</ele><time>2026-04-04T13:15:35.999Z</time></trkpt><trkpt lat="44.77209661725641" lon="10.07268901387551"><ele>286.6</ele><time>2026-04-04T13:15:36.999Z</time></trkpt><trkpt lat="44.772182980402974" lon="10.072631771721342"><ele>285.8</ele><time>2026-04-04T13:15:37.999Z</time></trkpt><trkpt lat="44.772268366662516" lon="10.072586315768634"><ele>285.0</ele><time>2026-04-04T13:15:38.999Z</time></trkpt><trkpt lat="44.7723578447797" lon="10.072559869356363"><ele>285.0</ele><time>2026-04-04T13:15:39.999Z</time></trkpt><trkpt lat="44.77246103992039" lon="10.072567102452595"><ele>285.0</ele><time>2026-04-04T13:15:40.999Z</time></trkpt><trkpt lat="44.77255649486701" lon="10.072607849893114"><ele>285.0</ele><time>2026-04-04T13:15:41.999Z</time></trkpt><trkpt lat="44.77264795557253" lon="10.072672090142673"><ele>285.0</ele><time>2026-04-04T13:15:42.999Z</time></trkpt><trkpt lat="44.77274376800769" lon="10.072747604538357"><ele>285.0</ele><time>2026-04-04T13:15:43.999Z</time></trkpt><trkpt lat="44.772838888170924" lon="10.072816302752305"><ele>284.0</ele><time>2026-04-04T13:15:44.999Z</time></trkpt><trkpt lat="44.77293409453287" lon="10.072858714282697"><ele>283.0</ele><time>2026-04-04T13:15:45.999Z</time></trkpt><trkpt lat="44.77303672834913" lon="10.072862904433064"><ele>282.0</ele><time>2026-04-04T13:15:46.999Z</time></trkpt><trkpt lat="44.77315126331945" lon="10.072840185184512"><ele>281.0</ele><time>2026-04-04T13:15:47.999Z</time></trkpt><trkpt lat="44.77325810888962" lon="10.072810059422444"><ele>280.0</ele><time>2026-04-04T13:15:48.999Z</time></trkpt><trkpt lat="44.773368585480384" lon="10.072817875880352"><ele>280.0</ele><time>2026-04-04T13:15:49.999Z</time></trkpt><trkpt lat="44.773470179784105" lon="10.072832356398104"><ele>280.0</ele><time>2026-04-04T13:15:50.999Z</time></trkpt><trkpt lat="44.77355130978053" lon="10.072897151703145"><ele>280.0</ele><time>2026-04-04T13:15:51.999Z</time></trkpt><trkpt lat="44.7736320024975" lon="10.072953207293207"><ele>280.0</ele><time>2026-04-04T13:15:52.999Z</time></trkpt><trkpt lat="44.77374463060215" lon="10.07300749092686"><ele>280.0</ele><time>2026-04-04T13:15:53.999Z</time></trkpt><trkpt lat="44.77386891724328" lon="10.073093810119333"><ele>280.75</ele><time>2026-04-04T13:15:54.999Z</time></trkpt><trkpt lat="44.773977622584354" lon="10.073201767870207"><ele>281.5</ele><time>2026-04-04T13:15:55.999Z</time></trkpt><trkpt lat="44.77407744004951" lon="10.073275814807158"><ele>282.25</ele><time>2026-04-04T13:15:56.999Z</time></trkpt><trkpt lat="44.774139329967674" lon="10.073411584317345"><ele>283.0</ele><time>2026-04-04T13:15:57.999Z</time></trkpt><trkpt lat="44.774184031999084" lon="10.073539532472797"><ele>283.0</ele><time>2026-04-04T13:15:58.999Z</time></trkpt><trkpt lat="44.774224636047194" lon="10.073692065334727"><ele>283.0</ele><time>2026-04-04T13:15:59.999Z</time></trkpt><trkpt lat="44.77426142094271" lon="10.073837095437481"><ele>283.0</ele><time>2026-04-04T13:16:00.999Z</time></trkpt><trkpt lat="44.77430003641843" lon="10.073994491428733"><ele>283.0</ele><time>2026-04-04T13:16:01.999Z</time></trkpt><trkpt lat="44.774338760656214" lon="10.074152330501116"><ele>287.0</ele><time>2026-04-04T13:16:02.999Z</time></trkpt><trkpt lat="44.77437538859249" lon="10.074300833749222"><ele>291.0</ele><time>2026-04-04T13:16:03.999Z</time></trkpt><trkpt lat="44.77441296750425" lon="10.074452750933505"><ele>295.0</ele><time>2026-04-04T13:16:04.999Z</time></trkpt><trkpt lat="44.77445339597667" lon="10.074611757687547"><ele>299.0</ele><time>2026-04-04T13:16:05.999Z</time></trkpt><trkpt lat="44.77449545842267" lon="10.074776442914498"><ele>299.0</ele><time>2026-04-04T13:16:06.999Z</time></trkpt><trkpt lat="44.77453608015651" lon="10.074935234299033"><ele>299.0</ele><time>2026-04-04T13:16:07.999Z</time></trkpt><trkpt lat="44.77457691304441" lon="10.075094850956441"><ele>299.0</ele><time>2026-04-04T13:16:08.999Z</time></trkpt><trkpt lat="44.77461334183809" lon="10.075237233327856"><ele>299.0</ele><time>2026-04-04T13:16:09.999Z</time></trkpt><trkpt lat="44.77464746811871" lon="10.075374469225636"><ele>298.8</ele><time>2026-04-04T13:16:10.999Z</time></trkpt><trkpt lat="44.774678526129826" lon="10.075509208299367"><ele>298.59999999999997</ele><time>2026-04-04T13:16:11.998Z</time></trkpt><trkpt lat="44.77470529833369" lon="10.07565096784367"><ele>298.4</ele><time>2026-04-04T13:16:12.998Z</time></trkpt><trkpt lat="44.7747247487632" lon="10.075797437305098"><ele>298.2</ele><time>2026-04-04T13:16:13.998Z</time></trkpt><trkpt lat="44.77473975477721" lon="10.07593823637737"><ele>298.0</ele><time>2026-04-04T13:16:14.998Z</time></trkpt><trkpt lat="44.77475395156223" lon="10.076073370190317"><ele>297.8333333333333</ele><time>2026-04-04T13:16:15.998Z</time></trkpt><trkpt lat="44.774752124486646" lon="10.076194600764275"><ele>297.66666666666663</ele><time>2026-04-04T13:16:16.998Z</time></trkpt><trkpt lat="44.77474538521835" lon="10.076305889261175"><ele>297.5</ele><time>2026-04-04T13:16:17.998Z</time></trkpt><trkpt lat="44.77473539613684" lon="10.076416833457257"><ele>297.3333333333333</ele><time>2026-04-04T13:16:18.998Z</time></trkpt><trkpt lat="44.77472542342771" lon="10.076532638191422"><ele>297.1666666666667</ele><time>2026-04-04T13:16:19.998Z</time></trkpt><trkpt lat="44.77471755885405" lon="10.076660699147101"><ele>297.0</ele><time>2026-04-04T13:16:20.998Z</time></trkpt><trkpt lat="44.774710556058515" lon="10.076780135725986"><ele>296.5</ele><time>2026-04-04T13:16:21.998Z</time></trkpt><trkpt lat="44.77471764731215" lon="10.076886842818173"><ele>296.0</ele><time>2026-04-04T13:16:22.998Z</time></trkpt><trkpt lat="44.77470570449307" lon="10.076974833964673"><ele>295.5</ele><time>2026-04-04T13:16:23.998Z</time></trkpt><trkpt lat="44.7746989689911" lon="10.077129954785617"><ele>295.0</ele><time>2026-04-04T13:16:25.998Z</time></trkpt><trkpt lat="44.77469763035815" lon="10.07722648790826"><ele>294.5</ele><time>2026-04-04T13:16:27.998Z</time></trkpt><trkpt lat="44.774704127623394" lon="10.077326349996987"><ele>294.0</ele><time>2026-04-04T13:30:04.999Z</time></trkpt><trkpt lat="44.77483582573067" lon="10.07737142994136"><ele>294.0</ele><time>2026-04-04T13:30:05.999Z</time></trkpt><trkpt lat="44.77490289041824" lon="10.077407708016116"><ele>294.0</ele><time>2026-04-04T13:30:06.999Z</time></trkpt><trkpt lat="44.774979698229934" lon="10.077453409426688"><ele>294.0</ele><time>2026-04-04T13:30:07.999Z</time></trkpt><trkpt lat="44.77505045791236" lon="10.077496363479929"><ele>294.0</ele><time>2026-04-04T13:30:08.999Z</time></trkpt><trkpt lat="44.77511567473858" lon="10.077535952823359"><ele>294.0</ele><time>2026-04-04T13:30:09.999Z</time></trkpt><trkpt lat="44.775201341622285" lon="10.07758795621279"><ele>294.0</ele><time>2026-04-04T13:30:10.999Z</time></trkpt><trkpt lat="44.775279224610856" lon="10.077636307302589"><ele>291.8333333333333</ele><time>2026-04-04T13:30:11.999Z</time></trkpt><trkpt lat="44.77535479677557" lon="10.077684950166166"><ele>289.6666666666667</ele><time>2026-04-04T13:30:12.999Z</time></trkpt><trkpt lat="44.775429098016836" lon="10.077734797592207"><ele>287.5</ele><time>2026-04-04T13:30:13.999Z</time></trkpt><trkpt lat="44.77551020187827" lon="10.077782285754953"><ele>285.33333333333337</ele><time>2026-04-04T13:30:14.999Z</time></trkpt><trkpt lat="44.7755890725895" lon="10.077783761178058"><ele>283.1666666666667</ele><time>2026-04-04T13:30:15.999Z</time></trkpt><trkpt lat="44.77568884716119" lon="10.077751179554724"><ele>281.0</ele><time>2026-04-04T13:30:17.999Z</time></trkpt><trkpt lat="44.775752015860576" lon="10.077681333910578"><ele>281.0</ele><time>2026-04-04T13:30:19.999Z</time></trkpt><trkpt lat="44.77583546720537" lon="10.077738141713995"><ele>281.0</ele><time>2026-04-04T13:30:23.999Z</time></trkpt><trkpt lat="44.77588781642534" lon="10.077795154166905"><ele>281.0</ele><time>2026-04-04T13:30:24.999Z</time></trkpt><trkpt lat="44.77593347903077" lon="10.078008650813901"><ele>281.0</ele><time>2026-04-04T13:30:25.999Z</time></trkpt><trkpt lat="44.775994462763954" lon="10.07806137680722"><ele>281.0</ele><time>2026-04-04T13:30:26.999Z</time></trkpt><trkpt lat="44.77607410240715" lon="10.078110543012972"><ele>280.1666666666667</ele><time>2026-04-04T13:30:27.999Z</time></trkpt><trkpt lat="44.77615307061308" lon="10.07815853877176"><ele>279.33333333333337</ele><time>2026-04-04T13:30:28.999Z</time></trkpt><trkpt lat="44.776231485297934" lon="10.078200189298087"><ele>278.5</ele><time>2026-04-04T13:30:29.999Z</time></trkpt><trkpt lat="44.776319552940635" lon="10.078250372174494"><ele>277.6666666666667</ele><time>2026-04-04T13:30:30.999Z</time></trkpt><trkpt lat="44.776398522568115" lon="10.07830358149699"><ele>276.8333333333333</ele><time>2026-04-04T13:30:31.999Z</time></trkpt><trkpt lat="44.77646928827467" lon="10.078351938937784"><ele>276.0</ele><time>2026-04-04T13:30:32.999Z</time></trkpt><trkpt lat="44.776539770724675" lon="10.078391640974921"><ele>276.0</ele><time>2026-04-04T13:30:33.999Z</time></trkpt><trkpt lat="44.77659715257985" lon="10.078433559357322"><ele>276.0</ele><time>2026-04-04T13:30:34.999Z</time></trkpt><trkpt lat="44.776657146397035" lon="10.078489607056667"><ele>276.0</ele><time>2026-04-04T13:30:35.999Z</time></trkpt><trkpt lat="44.776727436623084" lon="10.078624358171966"><ele>276.0</ele><time>2026-04-04T13:30:37.999Z</time></trkpt><trkpt lat="44.77676867766715" lon="10.078760370116724"><ele>276.0</ele><time>2026-04-04T13:30:39.999Z</time></trkpt><trkpt lat="44.77688345673009" lon="10.078866075083216"><ele>275.1666666666667</ele><time>2026-04-04T13:30:41.999Z</time></trkpt><trkpt lat="44.776956501806104" lon="10.07891835938609"><ele>274.3333333333333</ele><time>2026-04-04T13:30:42.999Z</time></trkpt><trkpt lat="44.77704797658667" lon="10.078995072999684"><ele>273.5</ele><time>2026-04-04T13:30:43.999Z</time></trkpt><trkpt lat="44.77713710702561" lon="10.079066724914043"><ele>272.66666666666663</ele><time>2026-04-04T13:30:44.999Z</time></trkpt><trkpt lat="44.777205701805634" lon="10.079109554372582"><ele>271.8333333333333</ele><time>2026-04-04T13:30:45.999Z</time></trkpt><trkpt lat="44.77726392327781" lon="10.07915600737533"><ele>271.0</ele><time>2026-04-04T13:30:46.999Z</time></trkpt><trkpt lat="44.77736603434125" lon="10.079246141025846"><ele>271.0</ele><time>2026-04-04T13:30:48.999Z</time></trkpt><trkpt lat="44.77744178920101" lon="10.07933194444262"><ele>271.0</ele><time>2026-04-04T13:30:50.999Z</time></trkpt><trkpt lat="44.777486729807926" lon="10.079395137488799"><ele>271.0</ele><time>2026-04-04T13:30:51.999Z</time></trkpt><trkpt lat="44.77757963236402" lon="10.07952453803152"><ele>271.0</ele><time>2026-04-04T13:30:53.999Z</time></trkpt><trkpt lat="44.77765144625966" lon="10.079603570876174"><ele>271.0</ele><time>2026-04-04T13:30:54.999Z</time></trkpt><trkpt lat="44.77772729370177" lon="10.079675889118306"><ele>270.0</ele><time>2026-04-04T13:30:55.998Z</time></trkpt><trkpt lat="44.77779516536472" lon="10.079732299977424"><ele>269.0</ele><time>2026-04-04T13:30:56.998Z</time></trkpt><trkpt lat="44.777895839070425" lon="10.079805829517975"><ele>268.0</ele><time>2026-04-04T13:30:57.998Z</time></trkpt><trkpt lat="44.7780006164746" lon="10.07986784022509"><ele>267.0</ele><time>2026-04-04T13:30:58.998Z</time></trkpt><trkpt lat="44.778086072269815" lon="10.07992069108603"><ele>266.0</ele><time>2026-04-04T13:30:59.998Z</time></trkpt><trkpt lat="44.77817276782101" lon="10.079966617176886"><ele>266.0</ele><time>2026-04-04T13:31:00.998Z</time></trkpt><trkpt lat="44.77825543601279" lon="10.080007885691476"><ele>266.0</ele><time>2026-04-04T13:31:01.998Z</time></trkpt><trkpt lat="44.77834047578646" lon="10.080046242031385"><ele>266.0</ele><time>2026-04-04T13:31:02.998Z</time></trkpt><trkpt lat="44.778438664555" lon="10.080082649885425"><ele>266.0</ele><time>2026-04-04T13:31:03.998Z</time></trkpt><trkpt lat="44.778532496723344" lon="10.080117038509659"><ele>266.0</ele><time>2026-04-04T13:31:04.998Z</time></trkpt><trkpt lat="44.7786184038366" lon="10.080149408529472"><ele>264.33333333333337</ele><time>2026-04-04T13:31:05.998Z</time></trkpt><trkpt lat="44.778700589516994" lon="10.080175374450723"><ele>262.6666666666667</ele><time>2026-04-04T13:31:06.998Z</time></trkpt><trkpt lat="44.77876752538651" lon="10.080205559850597"><ele>261.0</ele><time>2026-04-04T13:31:07.998Z</time></trkpt><trkpt lat="44.778843843052826" lon="10.080248029100298"><ele>259.3333333333333</ele><time>2026-04-04T13:31:08.998Z</time></trkpt><trkpt lat="44.77892685624662" lon="10.08029559200958"><ele>257.66666666666663</ele><time>2026-04-04T13:31:09.998Z</time></trkpt><trkpt lat="44.779007693305566" lon="10.080352185840288"><ele>256.0</ele><time>2026-04-04T13:31:10.998Z</time></trkpt><trkpt lat="44.7790879701671" lon="10.080405222593178"><ele>256.0</ele><time>2026-04-04T13:31:11.998Z</time></trkpt><trkpt lat="44.77916915147907" lon="10.080460295174786"><ele>256.0</ele><time>2026-04-04T13:31:12.998Z</time></trkpt><trkpt lat="44.7792526663449" lon="10.080530766092096"><ele>256.0</ele><time>2026-04-04T13:31:13.998Z</time></trkpt><trkpt lat="44.779334870755925" lon="10.08060803259083"><ele>256.0</ele><time>2026-04-04T13:31:14.998Z</time></trkpt><trkpt lat="44.779413160761244" lon="10.08068594637342"><ele>256.0</ele><time>2026-04-04T13:31:15.998Z</time></trkpt><trkpt lat="44.77948624343293" lon="10.080755203937144"><ele>253.4</ele><time>2026-04-04T13:31:16.998Z</time></trkpt><trkpt lat="44.77956923725051" lon="10.080823729907967"><ele>250.8</ele><time>2026-04-04T13:31:17.998Z</time></trkpt><trkpt lat="44.77965377976642" lon="10.08088756767607"><ele>248.20000000000002</ele><time>2026-04-04T13:31:18.998Z</time></trkpt><trkpt lat="44.77972269545094" lon="10.080953661640415"><ele>245.60000000000002</ele><time>2026-04-04T13:31:19.998Z</time></trkpt><trkpt lat="44.77977045030229" lon="10.08108929347993"><ele>243.0</ele><time>2026-04-04T13:31:21.998Z</time></trkpt><trkpt lat="44.77972054674284" lon="10.081257228004702"><ele>243.0</ele><time>2026-04-04T13:31:23.998Z</time></trkpt><trkpt lat="44.77966871315989" lon="10.081344534708524"><ele>243.0</ele><time>2026-04-04T13:31:24.998Z</time></trkpt><trkpt lat="44.779676686522414" lon="10.08146559935916"><ele>243.0</ele><time>2026-04-04T13:31:26.998Z</time></trkpt><trkpt lat="44.779730797977834" lon="10.081531227856416"><ele>243.0</ele><time>2026-04-04T13:31:27.998Z</time></trkpt><trkpt lat="44.77979900469683" lon="10.081587194939676"><ele>243.0</ele><time>2026-04-04T13:31:28.998Z</time></trkpt><trkpt lat="44.77988443064811" lon="10.08164098969078"><ele>243.0</ele><time>2026-04-04T13:31:29.998Z</time></trkpt><trkpt lat="44.77997925165212" lon="10.081695486335901"><ele>244.2</ele><time>2026-04-04T13:31:30.998Z</time></trkpt><trkpt lat="44.78007796700613" lon="10.081761996147083"><ele>245.4</ele><time>2026-04-04T13:31:31.998Z</time></trkpt><trkpt lat="44.78017133730202" lon="10.08183377245321"><ele>246.59999999999997</ele><time>2026-04-04T13:31:32.998Z</time></trkpt><trkpt lat="44.78026353463659" lon="10.08189962351301"><ele>247.79999999999998</ele><time>2026-04-04T13:31:33.998Z</time></trkpt><trkpt lat="44.78035652787556" lon="10.08196654606556"><ele>249.0</ele><time>2026-04-04T13:31:34.998Z</time></trkpt><trkpt lat="44.780457875690324" lon="10.082039499850673"><ele>245.0</ele><time>2026-04-04T13:31:35.998Z</time></trkpt><trkpt lat="44.780569385927954" lon="10.082118678431815"><ele>241.0</ele><time>2026-04-04T13:31:36.998Z</time></trkpt><trkpt lat="44.78068121481828" lon="10.082196276524915"><ele>237.0</ele><time>2026-04-04T13:31:37.998Z</time></trkpt><trkpt lat="44.78078227581904" lon="10.082267069327427"><ele>233.0</ele><time>2026-04-04T13:31:39Z</time></trkpt><trkpt lat="44.78092025292626" lon="10.082292604373519"><ele>233.0</ele><time>2026-04-04T13:31:40Z</time></trkpt><trkpt lat="44.780992007149806" lon="10.08242770187836"><ele>233.0</ele><time>2026-04-04T13:31:41Z</time></trkpt><trkpt lat="44.78109143366705" lon="10.082505559833967"><ele>233.0</ele><time>2026-04-04T13:31:42Z</time></trkpt><trkpt lat="44.78119185761963" lon="10.082577318107877"><ele>233.0</ele><time>2026-04-04T13:31:43Z</time></trkpt><trkpt lat="44.78129374474063" lon="10.082647870280303"><ele>232.4</ele><time>2026-04-04T13:31:44Z</time></trkpt><trkpt lat="44.781399839603054" lon="10.08271732795733"><ele>231.8</ele><time>2026-04-04T13:31:45Z</time></trkpt><trkpt lat="44.781494600117504" lon="10.082804139955444"><ele>231.2</ele><time>2026-04-04T13:31:46Z</time></trkpt><trkpt lat="44.78158394815483" lon="10.082890261399239"><ele>230.6</ele><time>2026-04-04T13:31:47Z</time></trkpt><trkpt lat="44.78166509925505" lon="10.082967133325948"><ele>230.0</ele><time>2026-04-04T13:31:48Z</time></trkpt><trkpt lat="44.78173419408525" lon="10.08304977300248"><ele>230.0</ele><time>2026-04-04T13:31:49Z</time></trkpt><trkpt lat="44.78181223885111" lon="10.083147251781623"><ele>230.0</ele><time>2026-04-04T13:31:50Z</time></trkpt><trkpt lat="44.781906356825054" lon="10.083256961295394"><ele>230.0</ele><time>2026-04-04T13:31:51Z</time></trkpt><trkpt lat="44.782013658274664" lon="10.083347368238847"><ele>230.0</ele><time>2026-04-04T13:31:52Z</time></trkpt><trkpt lat="44.782117579406076" lon="10.08339930068719"><ele>230.6</ele><time>2026-04-04T13:31:53Z</time></trkpt><trkpt lat="44.782190829188906" lon="10.083481179470546"><ele>231.2</ele><time>2026-04-04T13:31:54Z</time></trkpt><trkpt lat="44.78228123801641" lon="10.083558406264974"><ele>231.8</ele><time>2026-04-04T13:31:55Z</time></trkpt><trkpt lat="44.78237596461314" lon="10.083640950174583"><ele>232.4</ele><time>2026-04-04T13:31:56Z</time></trkpt><trkpt lat="44.78247331539924" lon="10.083730378853513"><ele>233.0</ele><time>2026-04-04T13:31:57Z</time></trkpt><trkpt lat="44.78255913599541" lon="10.083812145716475"><ele>233.0</ele><time>2026-04-04T13:31:58Z</time></trkpt><trkpt lat="44.782651051906505" lon="10.083890893912745"><ele>233.0</ele><time>2026-04-04T13:31:59Z</time></trkpt><trkpt lat="44.782752675703655" lon="10.08395989158511"><ele>233.0</ele><time>2026-04-04T13:32:00Z</time></trkpt><trkpt lat="44.78286169810185" lon="10.084019065912694"><ele>233.0</ele><time>2026-04-04T13:32:01Z</time></trkpt><trkpt lat="44.782964106807256" lon="10.084056333145798"><ele>233.0</ele><time>2026-04-04T13:32:02Z</time></trkpt><trkpt lat="44.78305581601565" lon="10.084098701954023"><ele>233.0</ele><time>2026-04-04T13:32:03Z</time></trkpt><trkpt lat="44.78316279310065" lon="10.08414983414356"><ele>233.0</ele><time>2026-04-04T13:32:04Z</time></trkpt><trkpt lat="44.78327274566755" lon="10.084198777093642"><ele>233.0</ele><time>2026-04-04T13:32:05Z</time></trkpt><trkpt lat="44.78338087095773" lon="10.08424828583943"><ele>233.0</ele><time>2026-04-04T13:32:06Z</time></trkpt><trkpt lat="44.78347633055797" lon="10.084288106770313"><ele>233.0</ele><time>2026-04-04T13:32:07Z</time></trkpt><trkpt lat="44.78357527087891" lon="10.084322204206224"><ele>231.4</ele><time>2026-04-04T13:32:08Z</time></trkpt><trkpt lat="44.78367718819241" lon="10.084344402585128"><ele>229.8</ele><time>2026-04-04T13:32:09Z</time></trkpt><trkpt lat="44.78377340931238" lon="10.084349599349295"><ele>228.2</ele><time>2026-04-04T13:32:10Z</time></trkpt><trkpt lat="44.78387099553444" lon="10.084352821579795"><ele>226.6</ele><time>2026-04-04T13:32:11Z</time></trkpt><trkpt lat="44.78396201405479" lon="10.08437326427271"><ele>225.0</ele><time>2026-04-04T13:32:12Z</time></trkpt><trkpt lat="44.78403518580847" lon="10.084389693217767"><ele>225.0</ele><time>2026-04-04T13:32:12.999Z</time></trkpt><trkpt lat="44.78409795824012" lon="10.084422016565291"><ele>225.0</ele><time>2026-04-04T13:32:13.999Z</time></trkpt><trkpt lat="44.78416802681265" lon="10.08449077207855"><ele>225.0</ele><time>2026-04-04T13:32:15.999Z</time></trkpt><trkpt lat="44.784267115116755" lon="10.084579457738998"><ele>225.0</ele><time>2026-04-04T13:32:17.999Z</time></trkpt><trkpt lat="44.78437393516686" lon="10.084598529831432"><ele>225.0</ele><time>2026-04-04T13:32:18.999Z</time></trkpt><trkpt lat="44.78445728392845" lon="10.084588674019956"><ele>224.16666666666666</ele><time>2026-04-04T13:32:19.999Z</time></trkpt><trkpt lat="44.78452538721491" lon="10.084512225653375"><ele>223.33333333333331</ele><time>2026-04-04T13:32:21.999Z</time></trkpt><trkpt lat="44.78459637018477" lon="10.08438575243717"><ele>222.5</ele><time>2026-04-04T13:32:23.999Z</time></trkpt><trkpt lat="44.78464983270173" lon="10.084297405592999"><ele>221.66666666666666</ele><time>2026-04-04T13:32:24.999Z</time></trkpt><trkpt lat="44.78471296514987" lon="10.084248847430777"><ele>220.83333333333331</ele><time>2026-04-04T13:32:25.999Z</time></trkpt><trkpt lat="44.784801600934486" lon="10.084233846212262"><ele>220.0</ele><time>2026-04-04T13:32:27.999Z</time></trkpt><trkpt lat="44.784774141325684" lon="10.084414622628307"><ele>220.0</ele><time>2026-04-04T13:32:30.999Z</time></trkpt><trkpt lat="44.784814174764506" lon="10.084660112873264"><ele>220.0</ele><time>2026-04-04T13:32:32.999Z</time></trkpt><trkpt lat="44.784819783559826" lon="10.08483818841536"><ele>220.0</ele><time>2026-04-04T13:32:33.999Z</time></trkpt><trkpt lat="44.7847038784896" lon="10.08492729799339"><ele>220.0</ele><time>2026-04-04T13:32:34.999Z</time></trkpt><trkpt lat="44.784657636597686" lon="10.08504768387929"><ele>218.6</ele><time>2026-04-04T13:32:35.999Z</time></trkpt><trkpt lat="44.78462164103456" lon="10.085141394344305"><ele>217.2</ele><time>2026-04-04T13:32:36.999Z</time></trkpt><trkpt lat="44.78464363147957" lon="10.085291763714878"><ele>215.8</ele><time>2026-04-04T13:32:38.999Z</time></trkpt><trkpt lat="44.78475722641851" lon="10.085292399721572"><ele>214.4</ele><time>2026-04-04T13:32:39.999Z</time></trkpt><trkpt lat="44.784880803966644" lon="10.085312218086111"><ele>213.0</ele><time>2026-04-04T13:32:40.999Z</time></trkpt><trkpt lat="44.78500344321903" lon="10.08534858150198"><ele>213.0</ele><time>2026-04-04T13:32:41.999Z</time></trkpt><trkpt lat="44.78512137871113" lon="10.085360161410549"><ele>213.0</ele><time>2026-04-04T13:32:42.999Z</time></trkpt><trkpt lat="44.78525476115775" lon="10.085372046537206"><ele>213.0</ele><time>2026-04-04T13:32:43.999Z</time></trkpt><trkpt lat="44.78540299772434" lon="10.085382579570856"><ele>213.0</ele><time>2026-04-04T13:32:44.999Z</time></trkpt><trkpt lat="44.78553441265931" lon="10.08538217186049"><ele>211.0</ele><time>2026-04-04T13:32:45.999Z</time></trkpt><trkpt lat="44.78565560046352" lon="10.085406738923151"><ele>209.0</ele><time>2026-04-04T13:32:46.999Z</time></trkpt><trkpt lat="44.7857729516268" lon="10.085412622437483"><ele>207.0</ele><time>2026-04-04T13:32:47.999Z</time></trkpt><trkpt lat="44.78589334007207" lon="10.085421421950617"><ele>205.0</ele><time>2026-04-04T13:32:48.999Z</time></trkpt><trkpt lat="44.78601084348666" lon="10.085428348111883"><ele>200.5</ele><time>2026-04-04T13:32:49.999Z</time></trkpt><trkpt lat="44.78613840995674" lon="10.085451916245068"><ele>196.0</ele><time>2026-04-04T13:32:50.999Z</time></trkpt><trkpt lat="44.78626118623398" lon="10.085463554134506"><ele>191.5</ele><time>2026-04-04T13:32:51.999Z</time></trkpt><trkpt lat="44.78638397772411" lon="10.085483495385587"><ele>187.0</ele><time>2026-04-04T13:32:52.999Z</time></trkpt><trkpt lat="44.786513499624064" lon="10.085470768590058"><ele>187.0</ele><time>2026-04-04T13:32:53.999Z</time></trkpt><trkpt lat="44.78659993665215" lon="10.08549281244103"><ele>187.0</ele><time>2026-04-04T13:32:54.999Z</time></trkpt><trkpt lat="44.78672025840267" lon="10.085501848414273"><ele>187.0</ele><time>2026-04-04T13:32:55.999Z</time></trkpt><trkpt lat="44.78684899636284" lon="10.085512417239643"><ele>187.0</ele><time>2026-04-04T13:32:56.999Z</time></trkpt><trkpt lat="44.78696991629174" lon="10.085523526939712"><ele>183.25</ele><time>2026-04-04T13:32:57.999Z</time></trkpt><trkpt lat="44.78707240802968" lon="10.085528339401687"><ele>179.5</ele><time>2026-04-04T13:32:58.999Z</time></trkpt><trkpt lat="44.78718417725686" lon="10.085522538176463"><ele>175.75</ele><time>2026-04-04T13:32:59.999Z</time></trkpt><trkpt lat="44.78730949033726" lon="10.085487794367086"><ele>172.0</ele><time>2026-04-04T13:33:00.999Z</time></trkpt><trkpt lat="44.78743016088535" lon="10.085422349140309"><ele>172.0</ele><time>2026-04-04T13:33:01.999Z</time></trkpt><trkpt lat="44.78755026667512" lon="10.085352840045768"><ele>172.0</ele><time>2026-04-04T13:33:02.999Z</time></trkpt><trkpt lat="44.787664272208175" lon="10.085306185596947"><ele>172.0</ele><time>2026-04-04T13:33:03.998Z</time></trkpt><trkpt lat="44.78777039371328" lon="10.085249507868076"><ele>172.0</ele><time>2026-04-04T13:33:04.998Z</time></trkpt><trkpt lat="44.78787668075147" lon="10.085192975873436"><ele>170.8</ele><time>2026-04-04T13:33:05.998Z</time></trkpt><trkpt lat="44.787982130773116" lon="10.085138095024202"><ele>169.6</ele><time>2026-04-04T13:33:06.998Z</time></trkpt><trkpt lat="44.7880842735813" lon="10.085088205765084"><ele>168.4</ele><time>2026-04-04T13:33:07.998Z</time></trkpt><trkpt lat="44.78818867098295" lon="10.085078675963175"><ele>167.20000000000002</ele><time>2026-04-04T13:33:08.998Z</time></trkpt><trkpt lat="44.78828894041465" lon="10.085111607721183"><ele>166.0</ele><time>2026-04-04T13:33:09.998Z</time></trkpt><trkpt lat="44.78838300164503" lon="10.085167664097282"><ele>166.0</ele><time>2026-04-04T13:33:10.998Z</time></trkpt><trkpt lat="44.78846640669234" lon="10.08522221046124"><ele>166.0</ele><time>2026-04-04T13:33:11.998Z</time></trkpt><trkpt lat="44.788570756428285" lon="10.085286233128611"><ele>166.0</ele><time>2026-04-04T13:33:12.998Z</time></trkpt><trkpt lat="44.788682989641394" lon="10.085342983822258"><ele>166.0</ele><time>2026-04-04T13:33:13.998Z</time></trkpt><trkpt lat="44.7888039802053" lon="10.085376701225297"><ele>166.0</ele><time>2026-04-04T13:33:14.998Z</time></trkpt><trkpt lat="44.788926677959005" lon="10.08541810639331"><ele>166.25</ele><time>2026-04-04T13:33:15.998Z</time></trkpt><trkpt lat="44.78905865113075" lon="10.085427121202285"><ele>166.5</ele><time>2026-04-04T13:33:16.998Z</time></trkpt><trkpt lat="44.789206258282455" lon="10.085433355710068"><ele>166.75</ele><time>2026-04-04T13:33:17.998Z</time></trkpt><trkpt lat="44.789351405522346" lon="10.085440041982062"><ele>167.0</ele><time>2026-04-04T13:33:18.998Z</time></trkpt><trkpt lat="44.7894948983493" lon="10.085456053822298"><ele>167.5</ele><time>2026-04-04T13:33:19.998Z</time></trkpt><trkpt lat="44.78963594059936" lon="10.085498893600121"><ele>168.0</ele><time>2026-04-04T13:33:20.998Z</time></trkpt><trkpt lat="44.78978186023914" lon="10.085533275154955"><ele>168.5</ele><time>2026-04-04T13:33:21.998Z</time></trkpt><trkpt lat="44.789918743339534" lon="10.085560107874707"><ele>169.0</ele><time>2026-04-04T13:33:22.998Z</time></trkpt><trkpt lat="44.79004516624099" lon="10.085570684127674"><ele>169.0</ele><time>2026-04-04T13:33:23.998Z</time></trkpt><trkpt lat="44.790163088379636" lon="10.085597997083136"><ele>169.0</ele><time>2026-04-04T13:33:24.998Z</time></trkpt><trkpt lat="44.790285677840174" lon="10.085622838861312"><ele>169.0</ele><time>2026-04-04T13:33:25.998Z</time></trkpt><trkpt lat="44.790420099754336" lon="10.085652787610881"><ele>169.0</ele><time>2026-04-04T13:33:26.998Z</time></trkpt><trkpt lat="44.7905531797534" lon="10.085690601945094"><ele>169.0</ele><time>2026-04-04T13:33:27.998Z</time></trkpt><trkpt lat="44.790686368459454" lon="10.085735662975017"><ele>169.0</ele><time>2026-04-04T13:33:28.998Z</time></trkpt><trkpt lat="44.79081618701776" lon="10.085779466975293"><ele>169.0</ele><time>2026-04-04T13:33:29.998Z</time></trkpt><trkpt lat="44.79093851645991" lon="10.085830867581352"><ele>169.0</ele><time>2026-04-04T13:33:30.998Z</time></trkpt><trkpt lat="44.79106831459751" lon="10.085874904706737"><ele>166.0</ele><time>2026-04-04T13:33:31.998Z</time></trkpt><trkpt lat="44.79120497202743" lon="10.085921715544897"><ele>163.0</ele><time>2026-04-04T13:33:32.998Z</time></trkpt><trkpt lat="44.791334897304395" lon="10.08595980989509"><ele>160.0</ele><time>2026-04-04T13:33:33.998Z</time></trkpt><trkpt lat="44.79146088260892" lon="10.086004883976216"><ele>157.0</ele><time>2026-04-04T13:33:34.998Z</time></trkpt><trkpt lat="44.79159143315314" lon="10.08598794456271"><ele>157.0</ele><time>2026-04-04T13:33:35.998Z</time></trkpt><trkpt lat="44.79172822854463" lon="10.085973483115547"><ele>157.0</ele><time>2026-04-04T13:33:36.998Z</time></trkpt><trkpt lat="44.791853921086755" lon="10.085946313459889"><ele>157.0</ele><time>2026-04-04T13:33:37.998Z</time></trkpt><trkpt lat="44.79198589987981" lon="10.085913930340217"><ele>157.0</ele><time>2026-04-04T13:33:38.998Z</time></trkpt><trkpt lat="44.79212149604503" lon="10.085882629646598"><ele>157.0</ele><time>2026-04-04T13:33:39.998Z</time></trkpt><trkpt lat="44.79223765301557" lon="10.08585338494568"><ele>157.0</ele><time>2026-04-04T13:33:40.998Z</time></trkpt><trkpt lat="44.792340343153384" lon="10.085836747614753"><ele>157.0</ele><time>2026-04-04T13:33:41.998Z</time></trkpt><trkpt lat="44.79243710149132" lon="10.085807768465306"><ele>157.0</ele><time>2026-04-04T13:33:42.998Z</time></trkpt><trkpt lat="44.79251287488693" lon="10.085767809496971"><ele>157.0</ele><time>2026-04-04T13:33:43.998Z</time></trkpt><trkpt lat="44.792573598793034" lon="10.085704873832402"><ele>157.0</ele><time>2026-04-04T13:33:45Z</time></trkpt><trkpt lat="44.792629983574614" lon="10.085649968858108"><ele>157.0</ele><time>2026-04-04T13:33:46Z</time></trkpt><trkpt lat="44.79273098543164" lon="10.085523100791233"><ele>157.0</ele><time>2026-04-04T13:33:48Z</time></trkpt><trkpt lat="44.79283772101623" lon="10.085549911690725"><ele>157.0</ele><time>2026-04-04T13:33:49Z</time></trkpt><trkpt lat="44.79292647095251" lon="10.085561149319364"><ele>157.0</ele><time>2026-04-04T13:33:50Z</time></trkpt><trkpt lat="44.79305000771078" lon="10.085568675560712"><ele>153.5</ele><time>2026-04-04T13:33:51Z</time></trkpt><trkpt lat="44.79317789715261" lon="10.08556720318465"><ele>150.0</ele><time>2026-04-04T13:33:52Z</time></trkpt><trkpt lat="44.793298412597245" lon="10.08556952954479"><ele>146.5</ele><time>2026-04-04T13:33:53Z</time></trkpt><trkpt lat="44.79340919544286" lon="10.0855672710951"><ele>143.0</ele><time>2026-04-04T13:33:54Z</time></trkpt><trkpt lat="44.79351805113198" lon="10.085559914383815"><ele>141.20000000000002</ele><time>2026-04-04T13:33:55Z</time></trkpt><trkpt lat="44.79362470989201" lon="10.085554791684917"><ele>139.4</ele><time>2026-04-04T13:33:56Z</time></trkpt><trkpt lat="44.79372630370868" lon="10.08556031684976"><ele>137.60000000000002</ele><time>2026-04-04T13:33:57Z</time></trkpt><trkpt lat="44.79382309307884" lon="10.085564813586517"><ele>135.8</ele><time>2026-04-04T13:33:58Z</time></trkpt><trkpt lat="44.793912856164944" lon="10.085563388845651"><ele>134.0</ele><time>2026-04-04T13:33:59Z</time></trkpt><trkpt lat="44.79399992209869" lon="10.085552444943735"><ele>134.0</ele><time>2026-04-04T13:34:00Z</time></trkpt><trkpt lat="44.794086262041" lon="10.085551761822174"><ele>134.0</ele><time>2026-04-04T13:34:01Z</time></trkpt><trkpt lat="44.79415918471597" lon="10.085558149852421"><ele>134.0</ele><time>2026-04-04T13:34:02Z</time></trkpt><trkpt lat="44.79424477213523" lon="10.085618551444163"><ele>134.0</ele><time>2026-04-04T13:34:04Z</time></trkpt><trkpt lat="44.79417821906076" lon="10.085754354985001"><ele>134.0</ele><time>2026-04-04T13:34:06Z</time></trkpt><trkpt lat="44.79415018792333" lon="10.085871701892032"><ele>134.4</ele><time>2026-04-04T13:34:07Z</time></trkpt><trkpt lat="44.79412428857757" lon="10.086003281151003"><ele>134.8</ele><time>2026-04-04T13:34:08Z</time></trkpt><trkpt lat="44.794108720594885" lon="10.086145850030348"><ele>135.2</ele><time>2026-04-04T13:34:09Z</time></trkpt><trkpt lat="44.79411496648001" lon="10.086276705837555"><ele>135.6</ele><time>2026-04-04T13:34:10Z</time></trkpt><trkpt lat="44.79414447186174" lon="10.086418982941005"><ele>136.0</ele><time>2026-04-04T13:34:11Z</time></trkpt><trkpt lat="44.794207533603426" lon="10.08655223207315"><ele>136.0</ele><time>2026-04-04T13:34:12Z</time></trkpt><trkpt lat="44.79430544288452" lon="10.08663128402335"><ele>136.0</ele><time>2026-04-04T13:34:13Z</time></trkpt><trkpt lat="44.79438185867139" lon="10.086723371356467"><ele>136.0</ele><time>2026-04-04T13:34:14Z</time></trkpt><trkpt lat="44.79445813083271" lon="10.086814529268482"><ele>136.0</ele><time>2026-04-04T13:34:15Z</time></trkpt><trkpt lat="44.794530698500864" lon="10.086910227057654"><ele>136.0</ele><time>2026-04-04T13:34:16Z</time></trkpt><trkpt lat="44.79461295734263" lon="10.08699849013538"><ele>136.0</ele><time>2026-04-04T13:34:17Z</time></trkpt><trkpt lat="44.79468469529919" lon="10.087099004530716"><ele>136.0</ele><time>2026-04-04T13:34:18Z</time></trkpt><trkpt lat="44.794756969809306" lon="10.08718653720461"><ele>136.0</ele><time>2026-04-04T13:34:19Z</time></trkpt><trkpt lat="44.794819651544266" lon="10.087267103815236"><ele>136.0</ele><time>2026-04-04T13:34:20Z</time></trkpt><trkpt lat="44.794881857029125" lon="10.087347562921677"><ele>136.0</ele><time>2026-04-04T13:34:21Z</time></trkpt><trkpt lat="44.79493715802929" lon="10.087436310651912"><ele>136.0</ele><time>2026-04-04T13:34:22Z</time></trkpt><trkpt lat="44.79497303460757" lon="10.087526164673823"><ele>136.0</ele><time>2026-04-04T13:34:23Z</time></trkpt><trkpt lat="44.795016949920075" lon="10.087606647927524"><ele>136.0</ele><time>2026-04-04T13:34:25.999Z</time></trkpt><trkpt lat="44.795095612148124" lon="10.087449333042311"><ele>136.0</ele><time>2026-04-04T13:39:06.999Z</time></trkpt><trkpt lat="44.79515570407263" lon="10.08729965039012"><ele>136.0</ele><time>2026-04-04T13:39:08.999Z</time></trkpt><trkpt lat="44.79519454224461" lon="10.087207608900208"><ele>135.66666666666669</ele><time>2026-04-04T13:39:09.999Z</time></trkpt><trkpt lat="44.79524726757283" lon="10.0871357217312"><ele>135.33333333333334</ele><time>2026-04-04T13:39:10.999Z</time></trkpt><trkpt lat="44.79530925456215" lon="10.08707885563353"><ele>135.0</ele><time>2026-04-04T13:39:11.999Z</time></trkpt><trkpt lat="44.79539029140852" lon="10.087055289709093"><ele>134.66666666666666</ele><time>2026-04-04T13:39:12.999Z</time></trkpt><trkpt lat="44.79547710279675" lon="10.087109236109837"><ele>134.33333333333331</ele><time>2026-04-04T13:39:13.999Z</time></trkpt><trkpt lat="44.795560046075835" lon="10.087177311737081"><ele>134.0</ele><time>2026-04-04T13:39:14.999Z</time></trkpt><trkpt lat="44.795662715864154" lon="10.087247246495767"><ele>134.0</ele><time>2026-04-04T13:39:15.999Z</time></trkpt><trkpt lat="44.79574916202814" lon="10.087337256330564"><ele>134.0</ele><time>2026-04-04T13:39:16.999Z</time></trkpt><trkpt lat="44.795840328359716" lon="10.087451597530963"><ele>134.0</ele><time>2026-04-04T13:39:17.999Z</time></trkpt><trkpt lat="44.79595169799113" lon="10.087535994164362"><ele>134.0</ele><time>2026-04-04T13:39:18.999Z</time></trkpt><trkpt lat="44.79604994304944" lon="10.087638039634072"><ele>133.25</ele><time>2026-04-04T13:39:19.999Z</time></trkpt><trkpt lat="44.79614700827981" lon="10.087736803468971"><ele>132.5</ele><time>2026-04-04T13:39:20.999Z</time></trkpt><trkpt lat="44.7962434861271" lon="10.087838248359539"><ele>131.75</ele><time>2026-04-04T13:39:21.999Z</time></trkpt><trkpt lat="44.79633853903897" lon="10.087939837229316"><ele>131.0</ele><time>2026-04-04T13:39:22.999Z</time></trkpt><trkpt lat="44.79642753172151" lon="10.088046451453339"><ele>131.0</ele><time>2026-04-04T13:39:23.999Z</time></trkpt><trkpt lat="44.79652206264551" lon="10.088162610620868"><ele>131.0</ele><time>2026-04-04T13:39:24.999Z</time></trkpt><trkpt lat="44.796615844965785" lon="10.088285602400854"><ele>131.0</ele><time>2026-04-04T13:39:25.999Z</time></trkpt><trkpt lat="44.79671496154984" lon="10.08840732522204"><ele>131.0</ele><time>2026-04-04T13:39:26.998Z</time></trkpt><trkpt lat="44.7968119763467" lon="10.088528901093078"><ele>130.75</ele><time>2026-04-04T13:39:27.998Z</time></trkpt><trkpt lat="44.79690434027333" lon="10.088645877391583"><ele>130.5</ele><time>2026-04-04T13:39:28.998Z</time></trkpt><trkpt lat="44.79700189791317" lon="10.088763710894328"><ele>130.25</ele><time>2026-04-04T13:39:29.998Z</time></trkpt><trkpt lat="44.79710100117797" lon="10.08886575243584"><ele>130.0</ele><time>2026-04-04T13:39:30.998Z</time></trkpt><trkpt lat="44.797207531822956" lon="10.088945432330123"><ele>130.0</ele><time>2026-04-04T13:39:31.998Z</time></trkpt><trkpt lat="44.797316257117515" lon="10.089030358077437"><ele>130.0</ele><time>2026-04-04T13:39:32.998Z</time></trkpt><trkpt lat="44.7974302090119" lon="10.089041801273563"><ele>130.0</ele><time>2026-04-04T13:39:33.998Z</time></trkpt><trkpt lat="44.79753385657552" lon="10.089041695224283"><ele>130.0</ele><time>2026-04-04T13:39:34.998Z</time></trkpt><trkpt lat="44.79764976678674" lon="10.088957432896983"><ele>128.5</ele><time>2026-04-04T13:39:35.998Z</time></trkpt><trkpt lat="44.79776631471987" lon="10.088836631735365"><ele>127.0</ele><time>2026-04-04T13:39:36.998Z</time></trkpt><trkpt lat="44.797881136649806" lon="10.088700629258053"><ele>125.5</ele><time>2026-04-04T13:39:37.998Z</time></trkpt><trkpt lat="44.79798754933954" lon="10.08856835722383"><ele>124.0</ele><time>2026-04-04T13:39:38.998Z</time></trkpt><trkpt lat="44.79808540998735" lon="10.088447345112439"><ele>124.0</ele><time>2026-04-04T13:39:39.998Z</time></trkpt><trkpt lat="44.798242632398605" lon="10.088229791734905"><ele>124.0</ele><time>2026-04-04T13:39:40.998Z</time></trkpt><trkpt lat="44.79838079037274" lon="10.088069487753359"><ele>124.0</ele><time>2026-04-04T13:39:41.998Z</time></trkpt><trkpt lat="44.798516981401335" lon="10.087899298992998"><ele>124.0</ele><time>2026-04-04T13:39:42.998Z</time></trkpt><trkpt lat="44.79865174878021" lon="10.087729749660209"><ele>124.0</ele><time>2026-04-04T13:39:43.998Z</time></trkpt><trkpt lat="44.79878504212051" lon="10.087557885736029"><ele>124.0</ele><time>2026-04-04T13:39:44.998Z</time></trkpt><trkpt lat="44.7989157642111" lon="10.08738604304708"><ele>123.0</ele><time>2026-04-04T13:39:45.998Z</time></trkpt><trkpt lat="44.799044717162054" lon="10.087213825026042"><ele>122.0</ele><time>2026-04-04T13:39:46.998Z</time></trkpt><trkpt lat="44.799177028960656" lon="10.08704181516207"><ele>121.0</ele><time>2026-04-04T13:39:47.998Z</time></trkpt><trkpt lat="44.79931015345142" lon="10.086863861753374"><ele>120.66666666666667</ele><time>2026-04-04T13:39:48.998Z</time></trkpt><trkpt lat="44.79943937650886" lon="10.086684880192545"><ele>120.33333333333334</ele><time>2026-04-04T13:39:49.998Z</time></trkpt><trkpt lat="44.799568704526315" lon="10.086498599023917"><ele>120.0</ele><time>2026-04-04T13:39:50.998Z</time></trkpt><trkpt lat="44.79969412870253" lon="10.086312003384965"><ele>120.66666666666666</ele><time>2026-04-04T13:39:51.998Z</time></trkpt><trkpt lat="44.79981751782509" lon="10.086120646299774"><ele>121.33333333333333</ele><time>2026-04-04T13:39:52.998Z</time></trkpt><trkpt lat="44.799926542991244" lon="10.085945107728156"><ele>122.0</ele><time>2026-04-04T13:39:53.998Z</time></trkpt><trkpt lat="44.80002890976899" lon="10.085779823711471"><ele>121.5</ele><time>2026-04-04T13:39:54.998Z</time></trkpt><trkpt lat="44.80013073624439" lon="10.085619395251708"><ele>121.0</ele><time>2026-04-04T13:39:55.998Z</time></trkpt><trkpt lat="44.800225351781144" lon="10.085464145939744"><ele>120.5</ele><time>2026-04-04T13:39:56.998Z</time></trkpt><trkpt lat="44.800311067560784" lon="10.0853177487845"><ele>120.0</ele><time>2026-04-04T13:39:57.998Z</time></trkpt><trkpt lat="44.80039357344733" lon="10.085185531304829"><ele>120.0</ele><time>2026-04-04T13:39:58.998Z</time></trkpt><trkpt lat="44.80047736310841" lon="10.085050694163233"><ele>120.0</ele><time>2026-04-04T13:39:59.998Z</time></trkpt><trkpt lat="44.80056142799072" lon="10.084914515782902"><ele>120.0</ele><time>2026-04-04T13:40:00.998Z</time></trkpt><trkpt lat="44.80064535388875" lon="10.084771185821845"><ele>120.0</ele><time>2026-04-04T13:40:01.998Z</time></trkpt><trkpt lat="44.80072899232089" lon="10.084630141880746"><ele>120.0</ele><time>2026-04-04T13:40:03Z</time></trkpt><trkpt lat="44.8008128149431" lon="10.084494476814989"><ele>120.0</ele><time>2026-04-04T13:40:04Z</time></trkpt><trkpt lat="44.800897418557604" lon="10.084371804777097"><ele>120.0</ele><time>2026-04-04T13:40:05Z</time></trkpt><trkpt lat="44.800967384992965" lon="10.084260409761294"><ele>120.0</ele><time>2026-04-04T13:40:06Z</time></trkpt><trkpt lat="44.801021788133724" lon="10.084160441197218"><ele>120.0</ele><time>2026-04-04T13:40:07Z</time></trkpt><trkpt lat="44.80106693193727" lon="10.084055894432446"><ele>121.25</ele><time>2026-04-04T13:40:08Z</time></trkpt><trkpt lat="44.80110928385638" lon="10.08396154009957"><ele>122.5</ele><time>2026-04-04T13:40:09Z</time></trkpt><trkpt lat="44.80113405655434" lon="10.083852121732967"><ele>123.75</ele><time>2026-04-04T13:40:10Z</time></trkpt><trkpt lat="44.800934125334784" lon="10.083668538877186"><ele>125.0</ele><time>2026-04-04T13:40:12Z</time></trkpt><trkpt lat="44.8008274593095" lon="10.083595379313655"><ele>125.5</ele><time>2026-04-04T13:40:13Z</time></trkpt><trkpt lat="44.80070857947645" lon="10.08352942107227"><ele>126.0</ele><time>2026-04-04T13:40:14Z</time></trkpt><trkpt lat="44.80058219197685" lon="10.083443705543097"><ele>126.5</ele><time>2026-04-04T13:40:15Z</time></trkpt><trkpt lat="44.80045936822092" lon="10.083343278856725"><ele>127.0</ele><time>2026-04-04T13:40:16Z</time></trkpt><trkpt lat="44.80033905094709" lon="10.083246322719646"><ele>128.66666666666669</ele><time>2026-04-04T13:40:17Z</time></trkpt><trkpt lat="44.80020987636463" lon="10.08315267277872"><ele>130.33333333333334</ele><time>2026-04-04T13:40:18Z</time></trkpt><trkpt lat="44.80007393774235" lon="10.083056731831476"><ele>132.0</ele><time>2026-04-04T13:40:19Z</time></trkpt><trkpt lat="44.7999379833175" lon="10.082950384750548"><ele>132.0</ele><time>2026-04-04T13:40:20Z</time></trkpt><trkpt lat="44.79980058477219" lon="10.082835408437164"><ele>132.0</ele><time>2026-04-04T13:40:21Z</time></trkpt><trkpt lat="44.799664042773415" lon="10.082727771842537"><ele>132.0</ele><time>2026-04-04T13:40:22Z</time></trkpt><trkpt lat="44.79952991898026" lon="10.082625527901552"><ele>132.0</ele><time>2026-04-04T13:40:23Z</time></trkpt><trkpt lat="44.79939564369845" lon="10.082520191735739"><ele>132.0</ele><time>2026-04-04T13:40:24Z</time></trkpt><trkpt lat="44.799266698152984" lon="10.082407615512412"><ele>132.0</ele><time>2026-04-04T13:40:25Z</time></trkpt><trkpt lat="44.79914404524615" lon="10.082284303893424"><ele>134.25</ele><time>2026-04-04T13:40:26Z</time></trkpt><trkpt lat="44.79902957577368" lon="10.082164160985165"><ele>136.5</ele><time>2026-04-04T13:40:27Z</time></trkpt><trkpt lat="44.79892224293054" lon="10.08202374464421"><ele>138.75</ele><time>2026-04-04T13:40:28Z</time></trkpt><trkpt lat="44.79882158853276" lon="10.081879252302866"><ele>141.0</ele><time>2026-04-04T13:40:29Z</time></trkpt><trkpt lat="44.79871736151136" lon="10.081725858162168"><ele>142.0</ele><time>2026-04-04T13:40:30Z</time></trkpt><trkpt lat="44.79860720685863" lon="10.081581081390604"><ele>143.0</ele><time>2026-04-04T13:40:31Z</time></trkpt><trkpt lat="44.798492330925036" lon="10.081442167921098"><ele>144.0</ele><time>2026-04-04T13:40:32Z</time></trkpt><trkpt lat="44.798370188642515" lon="10.081309471577217"><ele>144.0</ele><time>2026-04-04T13:40:33Z</time></trkpt><trkpt lat="44.79823812521719" lon="10.081182930226381"><ele>144.0</ele><time>2026-04-04T13:40:34Z</time></trkpt><trkpt lat="44.79810830902953" lon="10.081060883725916"><ele>144.0</ele><time>2026-04-04T13:40:35Z</time></trkpt><trkpt lat="44.79798546341192" lon="10.080913847468704"><ele>144.0</ele><time>2026-04-04T13:40:36Z</time></trkpt><trkpt lat="44.79786007885407" lon="10.080787709093048"><ele>144.0</ele><time>2026-04-04T13:40:37Z</time></trkpt><trkpt lat="44.79773006155388" lon="10.080656910120469"><ele>144.0</ele><time>2026-04-04T13:40:38Z</time></trkpt><trkpt lat="44.79760345142969" lon="10.080532301309939"><ele>142.66666666666666</ele><time>2026-04-04T13:40:39Z</time></trkpt><trkpt lat="44.797475383268086" lon="10.080419411409943"><ele>141.33333333333331</ele><time>2026-04-04T13:40:40Z</time></trkpt><trkpt lat="44.7973400490233" lon="10.080311837759522"><ele>140.0</ele><time>2026-04-04T13:40:41Z</time></trkpt><trkpt lat="44.79720482522687" lon="10.080204257976071"><ele>140.0</ele><time>2026-04-04T13:40:42Z</time></trkpt><trkpt lat="44.797077214736234" lon="10.08009594482894"><ele>140.0</ele><time>2026-04-04T13:40:43Z</time></trkpt><trkpt lat="44.79695865173276" lon="10.079971448944105"><ele>140.0</ele><time>2026-04-04T13:40:43.999Z</time></trkpt><trkpt lat="44.796851369000635" lon="10.079815279639751"><ele>139.33333333333331</ele><time>2026-04-04T13:40:44.999Z</time></trkpt><trkpt lat="44.79674580392156" lon="10.079634898110251"><ele>138.66666666666666</ele><time>2026-04-04T13:40:45.999Z</time></trkpt><trkpt lat="44.796633129466144" lon="10.07947119842617"><ele>138.0</ele><time>2026-04-04T13:40:46.999Z</time></trkpt><trkpt lat="44.79652955362465" lon="10.079290951502148"><ele>138.0</ele><time>2026-04-04T13:40:47.999Z</time></trkpt><trkpt lat="44.796426706535335" lon="10.079122476002428"><ele>138.0</ele><time>2026-04-04T13:40:48.999Z</time></trkpt><trkpt lat="44.79631464823227" lon="10.078957109370162"><ele>138.0</ele><time>2026-04-04T13:40:49.999Z</time></trkpt><trkpt lat="44.7962007817075" lon="10.078806257007448"><ele>137.66666666666666</ele><time>2026-04-04T13:40:50.999Z</time></trkpt><trkpt lat="44.79607159564417" lon="10.078668872075367"><ele>137.33333333333331</ele><time>2026-04-04T13:40:51.999Z</time></trkpt><trkpt lat="44.795945973651" lon="10.078554107726333"><ele>137.0</ele><time>2026-04-04T13:40:52.999Z</time></trkpt><trkpt lat="44.79581084705117" lon="10.078437682726033"><ele>137.0</ele><time>2026-04-04T13:40:53.999Z</time></trkpt><trkpt lat="44.79567656268246" lon="10.07832336315413"><ele>137.0</ele><time>2026-04-04T13:40:54.999Z</time></trkpt><trkpt lat="44.79555306036297" lon="10.078202128810249"><ele>137.0</ele><time>2026-04-04T13:40:55.999Z</time></trkpt><trkpt lat="44.7954313240485" lon="10.078065980685206"><ele>135.66666666666666</ele><time>2026-04-04T13:40:56.999Z</time></trkpt><trkpt lat="44.79532543712852" lon="10.0779138297931"><ele>134.33333333333334</ele><time>2026-04-04T13:40:57.999Z</time></trkpt><trkpt lat="44.79522830722816" lon="10.077739343225272"><ele>133.0</ele><time>2026-04-04T13:40:58.999Z</time></trkpt><trkpt lat="44.79514223216872" lon="10.077553044448583"><ele>136.33333333333334</ele><time>2026-04-04T13:40:59.999Z</time></trkpt><trkpt lat="44.79505900747334" lon="10.077363979845838"><ele>139.66666666666666</ele><time>2026-04-04T13:41:00.999Z</time></trkpt><trkpt lat="44.794965958953625" lon="10.077175566018484"><ele>143.0</ele><time>2026-04-04T13:41:01.999Z</time></trkpt><trkpt lat="44.79487000133025" lon="10.076994849700451"><ele>143.0</ele><time>2026-04-04T13:41:02.999Z</time></trkpt><trkpt lat="44.79477760485098" lon="10.07681378065702"><ele>143.0</ele><time>2026-04-04T13:41:03.999Z</time></trkpt><trkpt lat="44.79468533731803" lon="10.076635978865188"><ele>143.0</ele><time>2026-04-04T13:41:04.999Z</time></trkpt><trkpt lat="44.794589450652325" lon="10.07647263278103"><ele>141.33333333333331</ele><time>2026-04-04T13:41:05.999Z</time></trkpt><trkpt lat="44.79450258883856" lon="10.076291498739632"><ele>139.66666666666666</ele><time>2026-04-04T13:41:06.999Z</time></trkpt><trkpt lat="44.7944084189235" lon="10.076128112912773"><ele>138.0</ele><time>2026-04-04T13:41:07.999Z</time></trkpt><trkpt lat="44.79431217458106" lon="10.075962661672527"><ele>138.0</ele><time>2026-04-04T13:41:08.999Z</time></trkpt><trkpt lat="44.794204658321284" lon="10.075816167191547"><ele>138.0</ele><time>2026-04-04T13:41:09.999Z</time></trkpt><trkpt lat="44.7941008251339" lon="10.07566480399138"><ele>138.0</ele><time>2026-04-04T13:41:10.999Z</time></trkpt><trkpt lat="44.79399624491208" lon="10.075540729582405"><ele>138.0</ele><time>2026-04-04T13:41:11.999Z</time></trkpt><trkpt lat="44.793882176568935" lon="10.075431926076787"><ele>137.5</ele><time>2026-04-04T13:41:12.999Z</time></trkpt><trkpt lat="44.793761964214504" lon="10.075329095949405"><ele>137.0</ele><time>2026-04-04T13:41:13.999Z</time></trkpt><trkpt lat="44.79364265168271" lon="10.07522669130404"><ele>136.5</ele><time>2026-04-04T13:41:14.999Z</time></trkpt><trkpt lat="44.793539906568945" lon="10.075107137162899"><ele>136.0</ele><time>2026-04-04T13:41:15.999Z</time></trkpt><trkpt lat="44.793424460139384" lon="10.075026621863012"><ele>137.25</ele><time>2026-04-04T13:41:16.999Z</time></trkpt><trkpt lat="44.7933161984497" lon="10.074924268176705"><ele>138.5</ele><time>2026-04-04T13:41:17.999Z</time></trkpt><trkpt lat="44.793205119840856" lon="10.074809442069926"><ele>139.75</ele><time>2026-04-04T13:41:18.999Z</time></trkpt><trkpt lat="44.79309796523711" lon="10.074692104895703"><ele>141.0</ele><time>2026-04-04T13:41:19.999Z</time></trkpt><trkpt lat="44.792982638928855" lon="10.074562118369503"><ele>141.0</ele><time>2026-04-04T13:41:20.999Z</time></trkpt><trkpt lat="44.792870232499766" lon="10.074431438708991"><ele>141.0</ele><time>2026-04-04T13:41:21.999Z</time></trkpt><trkpt lat="44.79276032630609" lon="10.074297956939905"><ele>141.0</ele><time>2026-04-04T13:41:22.999Z</time></trkpt><trkpt lat="44.79265122678532" lon="10.074164582119005"><ele>141.0</ele><time>2026-04-04T13:41:23.999Z</time></trkpt><trkpt lat="44.792544405580436" lon="10.074027322194894"><ele>140.25</ele><time>2026-04-04T13:41:24.999Z</time></trkpt><trkpt lat="44.79243608477202" lon="10.073898615564115"><ele>139.5</ele><time>2026-04-04T13:41:25.999Z</time></trkpt><trkpt lat="44.79233117657129" lon="10.07376197276417"><ele>138.75</ele><time>2026-04-04T13:41:26.999Z</time></trkpt><trkpt lat="44.79223166738498" lon="10.073620507735233"><ele>138.0</ele><time>2026-04-04T13:41:27.999Z</time></trkpt><trkpt lat="44.79213993216265" lon="10.073469165248765"><ele>138.0</ele><time>2026-04-04T13:41:28.998Z</time></trkpt><trkpt lat="44.792039587702575" lon="10.07331465772695"><ele>138.0</ele><time>2026-04-04T13:41:29.998Z</time></trkpt><trkpt lat="44.79194314545962" lon="10.073162735073188"><ele>138.0</ele><time>2026-04-04T13:41:30.998Z</time></trkpt><trkpt lat="44.79184808511575" lon="10.073009016189793"><ele>138.0</ele><time>2026-04-04T13:41:31.998Z</time></trkpt><trkpt lat="44.79175106130682" lon="10.072847402075558"><ele>138.0</ele><time>2026-04-04T13:41:32.998Z</time></trkpt><trkpt lat="44.791656981492714" lon="10.072690569154556"><ele>138.0</ele><time>2026-04-04T13:41:33.998Z</time></trkpt><trkpt lat="44.791559107906465" lon="10.072536886145523"><ele>138.0</ele><time>2026-04-04T13:41:34.998Z</time></trkpt><trkpt lat="44.79146033751231" lon="10.072392518882763"><ele>138.0</ele><time>2026-04-04T13:41:35.998Z</time></trkpt><trkpt lat="44.7913603150319" lon="10.072255108799254"><ele>138.25</ele><time>2026-04-04T13:41:36.998Z</time></trkpt><trkpt lat="44.7912482070699" lon="10.072131082621665"><ele>138.5</ele><time>2026-04-04T13:41:37.998Z</time></trkpt><trkpt lat="44.79113333492204" lon="10.072010661441817"><ele>138.75</ele><time>2026-04-04T13:41:38.998Z</time></trkpt><trkpt lat="44.791009618319535" lon="10.071900480770388"><ele>139.0</ele><time>2026-04-04T13:41:39.998Z</time></trkpt><trkpt lat="44.79088766061932" lon="10.0717942108678"><ele>139.0</ele><time>2026-04-04T13:41:40.998Z</time></trkpt><trkpt lat="44.79075693737625" lon="10.071691529798999"><ele>139.0</ele><time>2026-04-04T13:41:41.998Z</time></trkpt><trkpt lat="44.79063663060321" lon="10.071590039146981"><ele>139.0</ele><time>2026-04-04T13:41:42.998Z</time></trkpt><trkpt lat="44.79051822160008" lon="10.071472532932848"><ele>139.0</ele><time>2026-04-04T13:41:43.998Z</time></trkpt><trkpt lat="44.790419787917074" lon="10.071338764079876"><ele>139.25</ele><time>2026-04-04T13:41:44.998Z</time></trkpt><trkpt lat="44.79032073428933" lon="10.071187090550689"><ele>139.5</ele><time>2026-04-04T13:41:45.998Z</time></trkpt><trkpt lat="44.790231180145106" lon="10.071029537176624"><ele>139.75</ele><time>2026-04-04T13:41:46.998Z</time></trkpt><trkpt lat="44.790140209760885" lon="10.070875451402335"><ele>140.0</ele><time>2026-04-04T13:41:47.998Z</time></trkpt><trkpt lat="44.790033124241994" lon="10.070756237439037"><ele>140.75</ele><time>2026-04-04T13:41:48.998Z</time></trkpt><trkpt lat="44.78990411177667" lon="10.070681332442026"><ele>141.5</ele><time>2026-04-04T13:41:49.998Z</time></trkpt><trkpt lat="44.789765023454095" lon="10.070624326198912"><ele>142.25</ele><time>2026-04-04T13:41:50.998Z</time></trkpt><trkpt lat="44.789625301018155" lon="10.070574830808608"><ele>143.0</ele><time>2026-04-04T13:41:51.998Z</time></trkpt><trkpt lat="44.78948691405246" lon="10.070513845701482"><ele>143.0</ele><time>2026-04-04T13:41:52.998Z</time></trkpt><trkpt lat="44.78935107874766" lon="10.070454802563107"><ele>143.0</ele><time>2026-04-04T13:41:53.998Z</time></trkpt><trkpt lat="44.78921456392715" lon="10.070400736043963"><ele>143.0</ele><time>2026-04-04T13:41:54.998Z</time></trkpt><trkpt lat="44.78907931217008" lon="10.07034924003674"><ele>143.0</ele><time>2026-04-04T13:41:55.998Z</time></trkpt><trkpt lat="44.78894965161361" lon="10.07030729373109"><ele>143.0</ele><time>2026-04-04T13:41:56.998Z</time></trkpt><trkpt lat="44.788816292172626" lon="10.070283200602692"><ele>143.0</ele><time>2026-04-04T13:41:57.998Z</time></trkpt><trkpt lat="44.78868626166991" lon="10.070254351086401"><ele>143.0</ele><time>2026-04-04T13:41:58.998Z</time></trkpt><trkpt lat="44.788553352760104" lon="10.070185832095893"><ele>143.0</ele><time>2026-04-04T13:41:59.998Z</time></trkpt><trkpt lat="44.78842484993617" lon="10.07009116492072"><ele>143.25</ele><time>2026-04-04T13:42:00.998Z</time></trkpt><trkpt lat="44.78830904707501" lon="10.069959953172738"><ele>143.5</ele><time>2026-04-04T13:42:01.998Z</time></trkpt><trkpt lat="44.788201967874436" lon="10.069818628776789"><ele>143.75</ele><time>2026-04-04T13:42:02.998Z</time></trkpt><trkpt lat="44.78809319269645" lon="10.06967532596401"><ele>144.0</ele><time>2026-04-04T13:42:03.998Z</time></trkpt><trkpt lat="44.787982873090094" lon="10.069530606016103"><ele>144.0</ele><time>2026-04-04T13:42:04.998Z</time></trkpt><trkpt lat="44.787870553034935" lon="10.069391697300347"><ele>144.0</ele><time>2026-04-04T13:42:05.998Z</time></trkpt><trkpt lat="44.78775971934702" lon="10.069252485330273"><ele>144.0</ele><time>2026-04-04T13:42:06.998Z</time></trkpt><trkpt lat="44.78765137883485" lon="10.069116341293105"><ele>144.0</ele><time>2026-04-04T13:42:07.998Z</time></trkpt><trkpt lat="44.787540046811785" lon="10.068979783480735"><ele>144.5</ele><time>2026-04-04T13:42:09Z</time></trkpt><trkpt lat="44.787433570062056" lon="10.0688492847523"><ele>145.0</ele><time>2026-04-04T13:42:10Z</time></trkpt><trkpt lat="44.78734125211843" lon="10.068741604806526"><ele>145.5</ele><time>2026-04-04T13:42:11Z</time></trkpt><trkpt lat="44.787252118687256" lon="10.068635748244763"><ele>146.0</ele><time>2026-04-04T13:42:12Z</time></trkpt><trkpt lat="44.787155598428185" lon="10.068516778210528"><ele>146.0</ele><time>2026-04-04T13:42:13Z</time></trkpt><trkpt lat="44.78706647600871" lon="10.068381952196253"><ele>146.0</ele><time>2026-04-04T13:42:14Z</time></trkpt><trkpt lat="44.78697160337189" lon="10.068261027647933"><ele>146.0</ele><time>2026-04-04T13:42:15Z</time></trkpt><trkpt lat="44.78685335500616" lon="10.068146618373255"><ele>146.0</ele><time>2026-04-04T13:42:16Z</time></trkpt><trkpt lat="44.78672794872437" lon="10.068046322801816"><ele>146.25</ele><time>2026-04-04T13:42:17Z</time></trkpt><trkpt lat="44.786598404157274" lon="10.067965771820708"><ele>146.5</ele><time>2026-04-04T13:42:18Z</time></trkpt><trkpt lat="44.78646494075736" lon="10.067885659988773"><ele>146.75</ele><time>2026-04-04T13:42:19Z</time></trkpt><trkpt lat="44.786337930762045" lon="10.067791844437602"><ele>147.0</ele><time>2026-04-04T13:42:20Z</time></trkpt><trkpt lat="44.78620154894036" lon="10.067677084607523"><ele>147.0</ele><time>2026-04-04T13:42:21Z</time></trkpt><trkpt lat="44.78607452473317" lon="10.067554705651094"><ele>147.0</ele><time>2026-04-04T13:42:22Z</time></trkpt><trkpt lat="44.78595526801968" lon="10.067422699185633"><ele>147.0</ele><time>2026-04-04T13:42:23Z</time></trkpt><trkpt lat="44.785839817337035" lon="10.06727909745079"><ele>148.0</ele><time>2026-04-04T13:42:24Z</time></trkpt><trkpt lat="44.78572779007751" lon="10.067131673861962"><ele>149.0</ele><time>2026-04-04T13:42:25Z</time></trkpt><trkpt lat="44.78561588256228" lon="10.066983456392009"><ele>150.0</ele><time>2026-04-04T13:42:26Z</time></trkpt><trkpt lat="44.78550533717018" lon="10.066841622343341"><ele>150.0</ele><time>2026-04-04T13:42:27Z</time></trkpt><trkpt lat="44.785392188966924" lon="10.066702312861418"><ele>150.0</ele><time>2026-04-04T13:42:28Z</time></trkpt><trkpt lat="44.785273822970005" lon="10.066565749258803"><ele>150.0</ele><time>2026-04-04T13:42:29Z</time></trkpt><trkpt lat="44.78515608912297" lon="10.066432313806864"><ele>151.25</ele><time>2026-04-04T13:42:30Z</time></trkpt><trkpt lat="44.785040713326396" lon="10.06631022846406"><ele>152.5</ele><time>2026-04-04T13:42:31Z</time></trkpt><trkpt lat="44.7849273319413" lon="10.06619822836279"><ele>153.75</ele><time>2026-04-04T13:42:32Z</time></trkpt><trkpt lat="44.784812390748144" lon="10.06609905918401"><ele>155.0</ele><time>2026-04-04T13:42:33Z</time></trkpt><trkpt lat="44.7846919994846" lon="10.06600448078356"><ele>155.0</ele><time>2026-04-04T13:42:34Z</time></trkpt><trkpt lat="44.784570973614386" lon="10.065909008327903"><ele>155.0</ele><time>2026-04-04T13:42:35Z</time></trkpt><trkpt lat="44.7844559836496" lon="10.065797285029612"><ele>155.0</ele><time>2026-04-04T13:42:36Z</time></trkpt><trkpt lat="44.784355593940035" lon="10.065667346901254"><ele>155.0</ele><time>2026-04-04T13:42:37Z</time></trkpt><trkpt lat="44.78427060123839" lon="10.065519264109207"><ele>155.0</ele><time>2026-04-04T13:42:38Z</time></trkpt><trkpt lat="44.784187512813666" lon="10.065361906686274"><ele>155.0</ele><time>2026-04-04T13:42:39Z</time></trkpt><trkpt lat="44.784110479036585" lon="10.065194875800433"><ele>155.0</ele><time>2026-04-04T13:42:40Z</time></trkpt><trkpt lat="44.784026571453644" lon="10.065025105599267"><ele>155.0</ele><time>2026-04-04T13:42:41Z</time></trkpt><trkpt lat="44.783936727189484" lon="10.064860299895033"><ele>157.66666666666666</ele><time>2026-04-04T13:42:42Z</time></trkpt><trkpt lat="44.78384305768606" lon="10.064687461019117"><ele>160.33333333333334</ele><time>2026-04-04T13:42:43Z</time></trkpt><trkpt lat="44.783753149448536" lon="10.064509450699124"><ele>163.0</ele><time>2026-04-04T13:42:44Z</time></trkpt><trkpt lat="44.783664482427135" lon="10.064336740593264"><ele>163.0</ele><time>2026-04-04T13:42:45Z</time></trkpt><trkpt lat="44.783566242723126" lon="10.064166727772268"><ele>163.0</ele><time>2026-04-04T13:42:46Z</time></trkpt><trkpt lat="44.783471786208" lon="10.064002771164068"><ele>163.0</ele><time>2026-04-04T13:42:47Z</time></trkpt><trkpt lat="44.78337254204347" lon="10.063845333005492"><ele>162.0</ele><time>2026-04-04T13:42:48Z</time></trkpt><trkpt lat="44.78326848714476" lon="10.063687285634414"><ele>161.0</ele><time>2026-04-04T13:42:48.999Z</time></trkpt><trkpt lat="44.783164688245876" lon="10.063526999946527"><ele>160.0</ele><time>2026-04-04T13:42:49.999Z</time></trkpt><trkpt lat="44.783057092452076" lon="10.063368269719668"><ele>164.66666666666669</ele><time>2026-04-04T13:42:50.999Z</time></trkpt><trkpt lat="44.78294820598073" lon="10.063206583273507"><ele>169.33333333333334</ele><time>2026-04-04T13:42:51.999Z</time></trkpt><trkpt lat="44.78283870570083" lon="10.063037272203633"><ele>174.0</ele><time>2026-04-04T13:42:52.999Z</time></trkpt><trkpt lat="44.782729168099415" lon="10.062864002964405"><ele>170.0</ele><time>2026-04-04T13:42:53.999Z</time></trkpt><trkpt lat="44.78263160672519" lon="10.062688063326153"><ele>166.0</ele><time>2026-04-04T13:42:54.999Z</time></trkpt><trkpt lat="44.782536873707485" lon="10.062495078282533"><ele>162.0</ele><time>2026-04-04T13:42:55.999Z</time></trkpt><trkpt lat="44.782465380812766" lon="10.062278282084026"><ele>162.0</ele><time>2026-04-04T13:42:56.999Z</time></trkpt><trkpt lat="44.78241902996113" lon="10.062068585630989"><ele>162.0</ele><time>2026-04-04T13:42:57.999Z</time></trkpt><trkpt lat="44.7823701107354" lon="10.061849129062109"><ele>162.0</ele><time>2026-04-04T13:42:58.999Z</time></trkpt><trkpt lat="44.78232754496258" lon="10.061643327835208"><ele>162.0</ele><time>2026-04-04T13:42:59.999Z</time></trkpt><trkpt lat="44.78230085149132" lon="10.06143485376713"><ele>162.0</ele><time>2026-04-04T13:43:00.999Z</time></trkpt><trkpt lat="44.78229094878804" lon="10.061215823681335"><ele>162.0</ele><time>2026-04-04T13:43:01.999Z</time></trkpt><trkpt lat="44.78228337841747" lon="10.061012004601745"><ele>162.0</ele><time>2026-04-04T13:43:02.999Z</time></trkpt><trkpt lat="44.78227136860568" lon="10.060813588526232"><ele>162.0</ele><time>2026-04-04T13:43:03.999Z</time></trkpt><trkpt lat="44.78225797927953" lon="10.060616631666676"><ele>162.0</ele><time>2026-04-04T13:43:04.999Z</time></trkpt><trkpt lat="44.78222720699682" lon="10.060422740829873"><ele>162.0</ele><time>2026-04-04T13:43:05.999Z</time></trkpt><trkpt lat="44.7821919366491" lon="10.060227179370488"><ele>162.5</ele><time>2026-04-04T13:43:06.999Z</time></trkpt><trkpt lat="44.78214244463881" lon="10.060037962537839"><ele>163.0</ele><time>2026-04-04T13:43:07.999Z</time></trkpt><trkpt lat="44.782078706287635" lon="10.05985128245073"><ele>163.5</ele><time>2026-04-04T13:43:08.999Z</time></trkpt><trkpt lat="44.7820155175674" lon="10.05966775164662"><ele>164.0</ele><time>2026-04-04T13:43:09.999Z</time></trkpt><trkpt lat="44.781959195857425" lon="10.059473815134758"><ele>163.33333333333331</ele><time>2026-04-04T13:43:10.999Z</time></trkpt><trkpt lat="44.78190349778881" lon="10.05927343340901"><ele>162.66666666666666</ele><time>2026-04-04T13:43:11.999Z</time></trkpt><trkpt lat="44.7818492558864" lon="10.059062244095859"><ele>162.0</ele><time>2026-04-04T13:43:12.999Z</time></trkpt><trkpt lat="44.781807203855394" lon="10.058846376000604"><ele>162.0</ele><time>2026-04-04T13:43:13.999Z</time></trkpt><trkpt lat="44.78177735451968" lon="10.058625129378038"><ele>162.0</ele><time>2026-04-04T13:43:14.999Z</time></trkpt><trkpt lat="44.7817560364497" lon="10.058406635872682"><ele>162.0</ele><time>2026-04-04T13:43:15.999Z</time></trkpt><trkpt lat="44.78174926320676" lon="10.058184396122446"><ele>161.33333333333334</ele><time>2026-04-04T13:43:16.999Z</time></trkpt><trkpt lat="44.78175037263162" lon="10.057958268446372"><ele>160.66666666666669</ele><time>2026-04-04T13:43:17.999Z</time></trkpt><trkpt lat="44.781749135283064" lon="10.05773016276635"><ele>160.0</ele><time>2026-04-04T13:43:18.999Z</time></trkpt><trkpt lat="44.781745448636116" lon="10.057505619008435"><ele>161.33333333333334</ele><time>2026-04-04T13:43:19.999Z</time></trkpt><trkpt lat="44.78174388390839" lon="10.057283158890359"><ele>162.66666666666666</ele><time>2026-04-04T13:43:20.999Z</time></trkpt><trkpt lat="44.78173990296751" lon="10.057064098616765"><ele>164.0</ele><time>2026-04-04T13:43:21.999Z</time></trkpt><trkpt lat="44.78173217291869" lon="10.056849929028727"><ele>164.0</ele><time>2026-04-04T13:43:22.999Z</time></trkpt><trkpt lat="44.78172909759254" lon="10.056629509883933"><ele>164.0</ele><time>2026-04-04T13:43:23.999Z</time></trkpt><trkpt lat="44.7817264217445" lon="10.056408001144174"><ele>164.0</ele><time>2026-04-04T13:43:24.999Z</time></trkpt><trkpt lat="44.78171980335295" lon="10.05618878022434"><ele>164.0</ele><time>2026-04-04T13:43:25.999Z</time></trkpt><trkpt lat="44.781707341365596" lon="10.055972459214015"><ele>164.0</ele><time>2026-04-04T13:43:26.999Z</time></trkpt><trkpt lat="44.78167708200275" lon="10.055768548600728"><ele>164.0</ele><time>2026-04-04T13:43:27.999Z</time></trkpt><trkpt lat="44.781629497089796" lon="10.055561368565714"><ele>164.33333333333331</ele><time>2026-04-04T13:43:28.999Z</time></trkpt><trkpt lat="44.781580354585465" lon="10.05534946971644"><ele>164.66666666666666</ele><time>2026-04-04T13:43:29.999Z</time></trkpt><trkpt lat="44.7815377941276" lon="10.055138670963435"><ele>165.0</ele><time>2026-04-04T13:43:30.999Z</time></trkpt><trkpt lat="44.78149155771616" lon="10.054925344190845"><ele>165.0</ele><time>2026-04-04T13:43:31.999Z</time></trkpt><trkpt lat="44.7814462769702" lon="10.054713676562116"><ele>165.0</ele><time>2026-04-04T13:43:32.998Z</time></trkpt><trkpt lat="44.781401375908764" lon="10.054497796212962"><ele>165.0</ele><time>2026-04-04T13:43:33.998Z</time></trkpt><trkpt lat="44.78135880812906" lon="10.054283655676752"><ele>165.5</ele><time>2026-04-04T13:43:34.998Z</time></trkpt><trkpt lat="44.78131977561954" lon="10.054085404418368"><ele>166.0</ele><time>2026-04-04T13:43:35.998Z</time></trkpt><trkpt lat="44.78128019805409" lon="10.053903909697512"><ele>166.5</ele><time>2026-04-04T13:43:36.998Z</time></trkpt><trkpt lat="44.78123932853863" lon="10.053724223987446"><ele>167.0</ele><time>2026-04-04T13:43:37.998Z</time></trkpt><trkpt lat="44.781196045115756" lon="10.053558568149896"><ele>167.0</ele><time>2026-04-04T13:43:38.998Z</time></trkpt><trkpt lat="44.78114494120549" lon="10.053410335467749"><ele>167.0</ele><time>2026-04-04T13:43:39.998Z</time></trkpt><trkpt lat="44.781081174066756" lon="10.05326305755053"><ele>167.0</ele><time>2026-04-04T13:43:40.998Z</time></trkpt><trkpt lat="44.78100805423866" lon="10.053123452288485"><ele>167.0</ele><time>2026-04-04T13:43:41.998Z</time></trkpt><trkpt lat="44.78093666412824" lon="10.052999108398895"><ele>166.83333333333331</ele><time>2026-04-04T13:43:42.998Z</time></trkpt><trkpt lat="44.780864008693854" lon="10.052892395553275"><ele>166.66666666666666</ele><time>2026-04-04T13:43:43.998Z</time></trkpt><trkpt lat="44.780805760355314" lon="10.05279646287352"><ele>166.5</ele><time>2026-04-04T13:43:44.998Z</time></trkpt><trkpt lat="44.78076835005231" lon="10.052707971523404"><ele>166.33333333333334</ele><time>2026-04-04T13:43:45.998Z</time></trkpt><trkpt lat="44.78076060960171" lon="10.052615570896272"><ele>166.16666666666669</ele><time>2026-04-04T13:43:46.998Z</time></trkpt><trkpt lat="44.78077420127913" lon="10.052525319617194"><ele>166.0</ele><time>2026-04-04T13:43:47.998Z</time></trkpt><trkpt lat="44.780803166307145" lon="10.052418203972854"><ele>166.0</ele><time>2026-04-04T13:43:48.998Z</time></trkpt><trkpt lat="44.78084011879642" lon="10.052297150468034"><ele>166.0</ele><time>2026-04-04T13:43:49.998Z</time></trkpt><trkpt lat="44.780888182912705" lon="10.05215218820732"><ele>166.0</ele><time>2026-04-04T13:43:50.998Z</time></trkpt><trkpt lat="44.78093254710415" lon="10.051980123912683"><ele>166.0</ele><time>2026-04-04T13:43:51.998Z</time></trkpt><trkpt lat="44.781000678275355" lon="10.05181400227727"><ele>167.25</ele><time>2026-04-04T13:43:52.998Z</time></trkpt><trkpt lat="44.78104124372389" lon="10.05163241084004"><ele>168.5</ele><time>2026-04-04T13:43:53.998Z</time></trkpt><trkpt lat="44.781089772329246" lon="10.051471258975521"><ele>169.75</ele><time>2026-04-04T13:43:54.998Z</time></trkpt><trkpt lat="44.78115960836697" lon="10.05129674078975"><ele>171.0</ele><time>2026-04-04T13:43:55.998Z</time></trkpt><trkpt lat="44.78120628562526" lon="10.051125549139973"><ele>172.60000000000002</ele><time>2026-04-04T13:43:57.998Z</time></trkpt><trkpt lat="44.7812417234549" lon="10.05097179288004"><ele>174.2</ele><time>2026-04-04T13:43:58.998Z</time></trkpt><trkpt lat="44.781257834551354" lon="10.05082347449331"><ele>175.8</ele><time>2026-04-04T13:43:59.998Z</time></trkpt><trkpt lat="44.78126246522129" lon="10.050687477944688"><ele>177.39999999999998</ele><time>2026-04-04T13:44:00.998Z</time></trkpt><trkpt lat="44.78122411462165" lon="10.05053403129103"><ele>179.0</ele><time>2026-04-04T13:44:01.998Z</time></trkpt><trkpt lat="44.781168061573965" lon="10.050373561159747"><ele>177.66666666666666</ele><time>2026-04-04T13:44:02.998Z</time></trkpt><trkpt lat="44.78109296040427" lon="10.050203009308282"><ele>176.33333333333334</ele><time>2026-04-04T13:44:03.998Z</time></trkpt><trkpt lat="44.78101751656885" lon="10.050015135743497"><ele>175.0</ele><time>2026-04-04T13:44:04.998Z</time></trkpt><trkpt lat="44.78093417842448" lon="10.049827112297482"><ele>175.0</ele><time>2026-04-04T13:44:05.998Z</time></trkpt><trkpt lat="44.780852019753844" lon="10.049651759797884"><ele>175.0</ele><time>2026-04-04T13:44:06.998Z</time></trkpt><trkpt lat="44.78076867105867" lon="10.049468458987318"><ele>175.0</ele><time>2026-04-04T13:44:07.998Z</time></trkpt><trkpt lat="44.780682380063084" lon="10.049278101786967"><ele>178.0</ele><time>2026-04-04T13:44:08.998Z</time></trkpt><trkpt lat="44.78059490946941" lon="10.049084838331776"><ele>181.0</ele><time>2026-04-04T13:44:09.998Z</time></trkpt><trkpt lat="44.780505215961654" lon="10.048889996864688"><ele>184.0</ele><time>2026-04-04T13:44:10.998Z</time></trkpt><trkpt lat="44.78042659853737" lon="10.048702607467424"><ele>184.0</ele><time>2026-04-04T13:44:11.998Z</time></trkpt><trkpt lat="44.78034339075582" lon="10.048517743705796"><ele>184.0</ele><time>2026-04-04T13:44:12.998Z</time></trkpt><trkpt lat="44.78025547210283" lon="10.048337650663637"><ele>184.0</ele><time>2026-04-04T13:44:13.998Z</time></trkpt><trkpt lat="44.78016929525468" lon="10.048164675782665"><ele>184.25</ele><time>2026-04-04T13:44:15Z</time></trkpt><trkpt lat="44.78009238187871" lon="10.04801712063157"><ele>184.5</ele><time>2026-04-04T13:44:16Z</time></trkpt><trkpt lat="44.78000536041428" lon="10.047858094812987"><ele>184.75</ele><time>2026-04-04T13:44:17Z</time></trkpt><trkpt lat="44.779904584081336" lon="10.047742420725266"><ele>185.0</ele><time>2026-04-04T13:44:18Z</time></trkpt><trkpt lat="44.779800983153976" lon="10.047661454565372"><ele>185.0</ele><time>2026-04-04T13:44:19Z</time></trkpt><trkpt lat="44.779735785621426" lon="10.047610045466037"><ele>185.0</ele><time>2026-04-04T13:44:20Z</time></trkpt><trkpt lat="44.77963831173356" lon="10.047558901947395"><ele>185.0</ele><time>2026-04-04T13:44:22Z</time></trkpt><trkpt lat="44.779579425096124" lon="10.047522131187643"><ele>185.0</ele><time>2026-04-04T13:44:23Z</time></trkpt><trkpt lat="44.779505741361625" lon="10.047475084946077"><ele>185.0</ele><time>2026-04-04T13:44:24Z</time></trkpt><trkpt lat="44.77942441842397" lon="10.047421169491084"><ele>185.0</ele><time>2026-04-04T13:44:25Z</time></trkpt><trkpt lat="44.77933992270272" lon="10.047347603918087"><ele>186.0</ele><time>2026-04-04T13:44:26Z</time></trkpt><trkpt lat="44.77925594966775" lon="10.047246997853536"><ele>187.0</ele><time>2026-04-04T13:44:27Z</time></trkpt><trkpt lat="44.77918015452018" lon="10.047136736679194"><ele>188.0</ele><time>2026-04-04T13:44:28Z</time></trkpt><trkpt lat="44.7791022287341" lon="10.047028889781204"><ele>189.0</ele><time>2026-04-04T13:44:29Z</time></trkpt><trkpt lat="44.779021290723016" lon="10.046920463969549"><ele>190.0</ele><time>2026-04-04T13:44:30Z</time></trkpt><trkpt lat="44.7789368704947" lon="10.046801600174817"><ele>190.0</ele><time>2026-04-04T13:44:31Z</time></trkpt><trkpt lat="44.778847115425364" lon="10.046683398493538"><ele>190.0</ele><time>2026-04-04T13:44:32Z</time></trkpt><trkpt lat="44.77876228360731" lon="10.046568998410281"><ele>190.0</ele><time>2026-04-04T13:44:33Z</time></trkpt><trkpt lat="44.77867576561595" lon="10.046450687707248"><ele>190.0</ele><time>2026-04-04T13:44:34Z</time></trkpt><trkpt lat="44.778592434743786" lon="10.04632712107206"><ele>188.0</ele><time>2026-04-04T13:44:35Z</time></trkpt><trkpt lat="44.7785124371438" lon="10.046194346977911"><ele>186.0</ele><time>2026-04-04T13:44:36Z</time></trkpt><trkpt lat="44.77845762679409" lon="10.046041783797277"><ele>184.0</ele><time>2026-04-04T13:44:37Z</time></trkpt><trkpt lat="44.77839134842392" lon="10.045893191930865"><ele>182.0</ele><time>2026-04-04T13:44:38Z</time></trkpt><trkpt lat="44.77834035260056" lon="10.045727536479143"><ele>182.0</ele><time>2026-04-04T13:44:39Z</time></trkpt><trkpt lat="44.778279514817534" lon="10.045568524846104"><ele>182.0</ele><time>2026-04-04T13:44:40Z</time></trkpt><trkpt lat="44.77823271873871" lon="10.045427562829557"><ele>182.0</ele><time>2026-04-04T13:44:41Z</time></trkpt><trkpt lat="44.778176332854336" lon="10.045286702979226"><ele>182.0</ele><time>2026-04-04T13:44:42Z</time></trkpt><trkpt lat="44.778119442857886" lon="10.04515460422903"><ele>182.0</ele><time>2026-04-04T13:44:43Z</time></trkpt><trkpt lat="44.778070362285064" lon="10.045032304143257"><ele>182.0</ele><time>2026-04-04T13:44:44Z</time></trkpt><trkpt lat="44.77803525584292" lon="10.04491115381898"><ele>182.0</ele><time>2026-04-04T13:44:45Z</time></trkpt><trkpt lat="44.778018255107575" lon="10.044794953172554"><ele>182.0</ele><time>2026-04-04T13:44:46Z</time></trkpt><trkpt lat="44.778006871463944" lon="10.044670644060636"><ele>182.0</ele><time>2026-04-04T13:44:47Z</time></trkpt><trkpt lat="44.7779971357909" lon="10.044537607215934"><ele>183.0</ele><time>2026-04-04T13:44:48Z</time></trkpt><trkpt lat="44.777988074526974" lon="10.044412837579468"><ele>183.0</ele><time>2026-04-04T13:44:49Z</time></trkpt><trkpt lat="44.777979371571625" lon="10.044306172594604"><ele>183.0</ele><time>2026-04-04T13:44:50Z</time></trkpt><trkpt lat="44.777971683173305" lon="10.04421010468501"><ele>183.0</ele><time>2026-04-04T13:44:51Z</time></trkpt><trkpt lat="44.777969259421255" lon="10.044047700304398"><ele>185.0</ele><time>2026-04-04T13:44:52.999Z</time></trkpt></trkseg></trk></gpx>